<?xml version='1.0' encoding='UTF-8'?><gpx version="1.1" creator="JPX - https://github.com/jenetics/jpx" xmlns="http://www.topografix.com/GPX/1/1"><trk><trkseg><trkpt lat="41.86069750206496" lon="12.375730525929233"><ele>64.0</ele><time>2026-05-01T07:58:18Z</time></trkpt><trkpt lat="41.86075612979122" lon="12.375686064876794"><ele>64.0</ele><time>2026-05-01T07:58:19Z</time></trkpt><trkpt lat="41.86082564297178" lon="12.375653704733757"><ele>64.0</ele><time>2026-05-01T07:58:20Z</time></trkpt><trkpt lat="41.86089631997088" lon="12.375622735006514"><ele>64.0</ele><time>2026-05-01T07:58:21Z</time></trkpt><trkpt lat="41.8609903562154" lon="12.37556753737905"><ele>64.0</ele><time>2026-05-01T07:58:22Z</time></trkpt><trkpt lat="41.86111496967508" lon="12.375501851089203"><ele>63.666666666666664</ele><time>2026-05-01T07:58:24Z</time></trkpt><trkpt lat="41.86118970575898" lon="12.375456717918146"><ele>63.33333333333333</ele><time>2026-05-01T07:58:25Z</time></trkpt><trkpt lat="41.86125250790574" lon="12.375433199386961"><ele>63.0</ele><time>2026-05-01T07:58:26Z</time></trkpt><trkpt lat="41.8613256467251" lon="12.375410777541624"><ele>62.66666666666667</ele><time>2026-05-01T07:58:27Z</time></trkpt><trkpt lat="41.861395911362756" lon="12.375388451618177"><ele>62.333333333333336</ele><time>2026-05-01T07:58:28Z</time></trkpt><trkpt lat="41.861468193185" lon="12.3753565522227"><ele>62.0</ele><time>2026-05-01T07:58:29Z</time></trkpt><trkpt lat="41.861565734279345" lon="12.375306197403573"><ele>62.0</ele><time>2026-05-01T07:58:30Z</time></trkpt><trkpt lat="41.86164774553806" lon="12.37528931290731"><ele>62.0</ele><time>2026-05-01T07:58:32Z</time></trkpt><trkpt lat="41.86178283715104" lon="12.37520693260446"><ele>62.0</ele><time>2026-05-01T07:58:34Z</time></trkpt><trkpt lat="41.86185210741433" lon="12.375154892182671"><ele>62.0</ele><time>2026-05-01T07:58:35Z</time></trkpt><trkpt lat="41.86191618769953" lon="12.375091875681424"><ele>62.0</ele><time>2026-05-01T07:58:36Z</time></trkpt><trkpt lat="41.86198963968192" lon="12.37503470422506"><ele>61.400000000000006</ele><time>2026-05-01T07:58:37Z</time></trkpt><trkpt lat="41.862064354909904" lon="12.374984688876072"><ele>60.800000000000004</ele><time>2026-05-01T07:58:38Z</time></trkpt><trkpt lat="41.86217432434506" lon="12.374900227577617"><ele>60.2</ele><time>2026-05-01T07:58:39Z</time></trkpt><trkpt lat="41.862297183570234" lon="12.374872366995092"><ele>59.6</ele><time>2026-05-01T07:58:41Z</time></trkpt><trkpt lat="41.86238222607313" lon="12.374815589766289"><ele>59.0</ele><time>2026-05-01T07:58:42Z</time></trkpt><trkpt lat="41.86249038080556" lon="12.374773582409672"><ele>59.0</ele><time>2026-05-01T07:58:43Z</time></trkpt><trkpt lat="41.86259410412797" lon="12.374685088674564"><ele>59.00000000000001</ele><time>2026-05-01T07:58:45.001Z</time></trkpt><trkpt lat="41.86265801722187" lon="12.374587856525396"><ele>59.00000000000001</ele><time>2026-05-01T07:58:46.001Z</time></trkpt><trkpt lat="41.86271380226205" lon="12.374513933250354"><ele>59.0</ele><time>2026-05-01T07:58:47.001Z</time></trkpt><trkpt lat="41.86280107710895" lon="12.374461089420675"><ele>59.0</ele><time>2026-05-01T07:58:48.001Z</time></trkpt><trkpt lat="41.86293403819992" lon="12.374360441790962"><ele>59.0</ele><time>2026-05-01T07:58:49.001Z</time></trkpt><trkpt lat="41.863011354988195" lon="12.374354824718028"><ele>59.0</ele><time>2026-05-01T07:58:50.001Z</time></trkpt><trkpt lat="41.863127832468614" lon="12.37431495834892"><ele>59.0</ele><time>2026-05-01T07:58:51.001Z</time></trkpt><trkpt lat="41.86325564336155" lon="12.374287325121253"><ele>59.0</ele><time>2026-05-01T07:58:52.001Z</time></trkpt><trkpt lat="41.863374558266294" lon="12.374220973630296"><ele>59.0</ele><time>2026-05-01T07:58:53.001Z</time></trkpt><trkpt lat="41.86349367382618" lon="12.374189017343847"><ele>59.0</ele><time>2026-05-01T07:58:54.001Z</time></trkpt><trkpt lat="41.86362036717251" lon="12.37414941168026"><ele>59.0</ele><time>2026-05-01T07:58:55.001Z</time></trkpt><trkpt lat="41.86376527938217" lon="12.374095829396124"><ele>59.0</ele><time>2026-05-01T07:58:56.001Z</time></trkpt><trkpt lat="41.86391695678332" lon="12.374073438150205"><ele>59.0</ele><time>2026-05-01T07:58:57.001Z</time></trkpt><trkpt lat="41.86407121872121" lon="12.374047404310298"><ele>59.0</ele><time>2026-05-01T07:58:58.001Z</time></trkpt><trkpt lat="41.86423528877153" lon="12.374007005500449"><ele>59.0</ele><time>2026-05-01T07:58:59.001Z</time></trkpt><trkpt lat="41.864376554522416" lon="12.374000962496197"><ele>57.66666666666667</ele><time>2026-05-01T07:59:00.001Z</time></trkpt><trkpt lat="41.86455722541292" lon="12.373941348809124"><ele>56.33333333333333</ele><time>2026-05-01T07:59:00.999Z</time></trkpt><trkpt lat="41.86471527406657" lon="12.373932512757097"><ele>55.0</ele><time>2026-05-01T07:59:01.999Z</time></trkpt><trkpt lat="41.864859773045346" lon="12.373953492358192"><ele>55.0</ele><time>2026-05-01T07:59:02.999Z</time></trkpt><trkpt lat="41.86503649153126" lon="12.373920090979446"><ele>55.0</ele><time>2026-05-01T07:59:03.999Z</time></trkpt><trkpt lat="41.86518720408372" lon="12.37390802527911"><ele>55.0</ele><time>2026-05-01T07:59:04.999Z</time></trkpt><trkpt lat="41.865325294830996" lon="12.373891589148663"><ele>56.33333333333333</ele><time>2026-05-01T07:59:05.999Z</time></trkpt><trkpt lat="41.865524313514655" lon="12.373895067335766"><ele>57.66666666666667</ele><time>2026-05-01T07:59:06.999Z</time></trkpt><trkpt lat="41.865700785516815" lon="12.373915138871173"><ele>59.0</ele><time>2026-05-01T07:59:07.999Z</time></trkpt><trkpt lat="41.86589140270202" lon="12.373935893013927"><ele>59.0</ele><time>2026-05-01T07:59:08.999Z</time></trkpt><trkpt lat="41.866058154264515" lon="12.373941647983157"><ele>59.0</ele><time>2026-05-01T07:59:09.999Z</time></trkpt><trkpt lat="41.866227446352184" lon="12.373960727581355"><ele>59.0</ele><time>2026-05-01T07:59:10.999Z</time></trkpt><trkpt lat="41.8663935631014" lon="12.373982589456746"><ele>59.0</ele><time>2026-05-01T07:59:11.999Z</time></trkpt><trkpt lat="41.866583232505526" lon="12.3740138612047"><ele>59.0</ele><time>2026-05-01T07:59:12.999Z</time></trkpt><trkpt lat="41.866795991869125" lon="12.374048159170764"><ele>59.0</ele><time>2026-05-01T07:59:13.999Z</time></trkpt><trkpt lat="41.86697857080331" lon="12.374090307156392"><ele>57.0</ele><time>2026-05-01T07:59:14.999Z</time></trkpt><trkpt lat="41.86715478517849" lon="12.374134038629933"><ele>55.0</ele><time>2026-05-01T07:59:15.999Z</time></trkpt><trkpt lat="41.86733907875575" lon="12.374190083515572"><ele>53.0</ele><time>2026-05-01T07:59:16.999Z</time></trkpt><trkpt lat="41.86751882845854" lon="12.374244480488464"><ele>51.0</ele><time>2026-05-01T07:59:17.999Z</time></trkpt><trkpt lat="41.86770843931433" lon="12.374306799101658"><ele>49.0</ele><time>2026-05-01T07:59:18.999Z</time></trkpt><trkpt lat="41.86788874255694" lon="12.374374130429306"><ele>47.0</ele><time>2026-05-01T07:59:19.999Z</time></trkpt><trkpt lat="41.86807267946454" lon="12.37444557857584"><ele>47.0</ele><time>2026-05-01T07:59:20.999Z</time></trkpt><trkpt lat="41.86826132797603" lon="12.374518836756607"><ele>47.0</ele><time>2026-05-01T07:59:21.999Z</time></trkpt><trkpt lat="41.86843000193558" lon="12.37460575958785"><ele>47.0</ele><time>2026-05-01T07:59:22.999Z</time></trkpt><trkpt lat="41.86860714675963" lon="12.374693805098996"><ele>47.0</ele><time>2026-05-01T07:59:23.999Z</time></trkpt><trkpt lat="41.868791201971455" lon="12.374777947799135"><ele>47.0</ele><time>2026-05-01T07:59:24.999Z</time></trkpt><trkpt lat="41.86896443877819" lon="12.374868468403216"><ele>47.0</ele><time>2026-05-01T07:59:25.999Z</time></trkpt><trkpt lat="41.869125923413364" lon="12.37498579768361"><ele>45.0</ele><time>2026-05-01T07:59:26.999Z</time></trkpt><trkpt lat="41.869321810145195" lon="12.375071671266104"><ele>43.0</ele><time>2026-05-01T07:59:27.999Z</time></trkpt><trkpt lat="41.86952590603892" lon="12.375158012007171"><ele>41.0</ele><time>2026-05-01T07:59:28.999Z</time></trkpt><trkpt lat="41.86969688233746" lon="12.375265618860556"><ele>41.0</ele><time>2026-05-01T07:59:29.999Z</time></trkpt><trkpt lat="41.86987520822525" lon="12.375372634371756"><ele>41.0</ele><time>2026-05-01T07:59:30.999Z</time></trkpt><trkpt lat="41.87007221002448" lon="12.375471863723266"><ele>41.0</ele><time>2026-05-01T07:59:31.999Z</time></trkpt><trkpt lat="41.87025990168012" lon="12.375591056652244"><ele>41.33333333333333</ele><time>2026-05-01T07:59:32.999Z</time></trkpt><trkpt lat="41.87045364955294" lon="12.37570158789128"><ele>41.666666666666664</ele><time>2026-05-01T07:59:34Z</time></trkpt><trkpt lat="41.87063928610219" lon="12.37580816526616"><ele>42.0</ele><time>2026-05-01T07:59:35Z</time></trkpt><trkpt lat="41.87081485487387" lon="12.375917997518197"><ele>44.0</ele><time>2026-05-01T07:59:36Z</time></trkpt><trkpt lat="41.87102758251115" lon="12.376028040710034"><ele>46.0</ele><time>2026-05-01T07:59:37Z</time></trkpt><trkpt lat="41.87122586330412" lon="12.376141253539295"><ele>48.0</ele><time>2026-05-01T07:59:38Z</time></trkpt><trkpt lat="41.87142266525905" lon="12.37625482912542"><ele>45.333333333333336</ele><time>2026-05-01T07:59:39Z</time></trkpt><trkpt lat="41.87161920446561" lon="12.376367965418305"><ele>42.66666666666667</ele><time>2026-05-01T07:59:40Z</time></trkpt><trkpt lat="41.87181964335893" lon="12.376480521718596"><ele>40.0</ele><time>2026-05-01T07:59:41Z</time></trkpt><trkpt lat="41.872007272334734" lon="12.376597787262071"><ele>40.0</ele><time>2026-05-01T07:59:42Z</time></trkpt><trkpt lat="41.87220885133872" lon="12.376708392685702"><ele>40.0</ele><time>2026-05-01T07:59:43Z</time></trkpt><trkpt lat="41.87241165331951" lon="12.376817467173606"><ele>40.0</ele><time>2026-05-01T07:59:44Z</time></trkpt><trkpt lat="41.87262147420971" lon="12.376924575611541"><ele>39.333333333333336</ele><time>2026-05-01T07:59:45Z</time></trkpt><trkpt lat="41.872819107120776" lon="12.377036242615995"><ele>38.666666666666664</ele><time>2026-05-01T07:59:46Z</time></trkpt><trkpt lat="41.87301781133472" lon="12.377146734265141"><ele>38.0</ele><time>2026-05-01T07:59:47Z</time></trkpt><trkpt lat="41.87321374636168" lon="12.37725390539422"><ele>36.33333333333333</ele><time>2026-05-01T07:59:48Z</time></trkpt><trkpt lat="41.873418919082724" lon="12.377359510227766"><ele>34.666666666666664</ele><time>2026-05-01T07:59:49Z</time></trkpt><trkpt lat="41.873619175595806" lon="12.37747000169076"><ele>33.0</ele><time>2026-05-01T07:59:50Z</time></trkpt><trkpt lat="41.87381911893329" lon="12.37757482370947"><ele>33.0</ele><time>2026-05-01T07:59:51Z</time></trkpt><trkpt lat="41.87401995637067" lon="12.377681364909169"><ele>33.0</ele><time>2026-05-01T07:59:52Z</time></trkpt><trkpt lat="41.87422563377646" lon="12.377789428391473"><ele>33.0</ele><time>2026-05-01T07:59:53Z</time></trkpt><trkpt lat="41.87443159264839" lon="12.377896838365853"><ele>32.666666666666664</ele><time>2026-05-01T07:59:54Z</time></trkpt><trkpt lat="41.874633240962716" lon="12.37800702773524"><ele>32.33333333333333</ele><time>2026-05-01T07:59:55Z</time></trkpt><trkpt lat="41.87483548883675" lon="12.378116561385633"><ele>32.0</ele><time>2026-05-01T07:59:56Z</time></trkpt><trkpt lat="41.875047665076195" lon="12.378218716015473"><ele>31.0</ele><time>2026-05-01T07:59:57Z</time></trkpt><trkpt lat="41.87522887457315" lon="12.378349745541954"><ele>30.0</ele><time>2026-05-01T07:59:58Z</time></trkpt><trkpt lat="41.87545113464393" lon="12.378451579276048"><ele>29.0</ele><time>2026-05-01T07:59:59Z</time></trkpt><trkpt lat="41.87565590133161" lon="12.378566554342926"><ele>29.0</ele><time>2026-05-01T08:00:00Z</time></trkpt><trkpt lat="41.87586259993075" lon="12.378675721493765"><ele>29.0</ele><time>2026-05-01T08:00:01Z</time></trkpt><trkpt lat="41.87607136507231" lon="12.37878952729947"><ele>29.0</ele><time>2026-05-01T08:00:02Z</time></trkpt><trkpt lat="41.87627490882053" lon="12.378904371974343"><ele>31.333333333333332</ele><time>2026-05-01T08:00:03Z</time></trkpt><trkpt lat="41.876471854322446" lon="12.37901398039557"><ele>33.666666666666664</ele><time>2026-05-01T08:00:04Z</time></trkpt><trkpt lat="41.87666860031264" lon="12.37912550343909"><ele>36.0</ele><time>2026-05-01T08:00:05Z</time></trkpt><trkpt lat="41.87686696205662" lon="12.379232594419427"><ele>36.0</ele><time>2026-05-01T08:00:06Z</time></trkpt><trkpt lat="41.87704851416629" lon="12.379332088196415"><ele>36.0</ele><time>2026-05-01T08:00:07Z</time></trkpt><trkpt lat="41.87723389981378" lon="12.379412550466473"><ele>36.0</ele><time>2026-05-01T08:00:08Z</time></trkpt><trkpt lat="41.877412641353835" lon="12.379525080988644"><ele>36.0</ele><time>2026-05-01T08:00:09Z</time></trkpt><trkpt lat="41.877583763441756" lon="12.379627285337778"><ele>36.0</ele><time>2026-05-01T08:00:10Z</time></trkpt><trkpt lat="41.87776726019199" lon="12.37971451745489"><ele>36.0</ele><time>2026-05-01T08:00:11Z</time></trkpt><trkpt lat="41.87794539040171" lon="12.379806774391179"><ele>37.0</ele><time>2026-05-01T08:00:12Z</time></trkpt><trkpt lat="41.878124307145924" lon="12.379882048169975"><ele>38.0</ele><time>2026-05-01T08:00:13Z</time></trkpt><trkpt lat="41.87830003900498" lon="12.379946325513284"><ele>39.0</ele><time>2026-05-01T08:00:14Z</time></trkpt><trkpt lat="41.87847197044973" lon="12.380035653079002"><ele>37.0</ele><time>2026-05-01T08:00:15Z</time></trkpt><trkpt lat="41.8786499014141" lon="12.380105140637811"><ele>35.0</ele><time>2026-05-01T08:00:16Z</time></trkpt><trkpt lat="41.878809098622455" lon="12.3801778164133"><ele>33.0</ele><time>2026-05-01T08:00:17Z</time></trkpt><trkpt lat="41.87900315346003" lon="12.380262480039352"><ele>33.0</ele><time>2026-05-01T08:00:18Z</time></trkpt><trkpt lat="41.879187268199104" lon="12.380323187038693"><ele>33.0</ele><time>2026-05-01T08:00:19Z</time></trkpt><trkpt lat="41.879345480345776" lon="12.380373735414649"><ele>33.0</ele><time>2026-05-01T08:00:20Z</time></trkpt><trkpt lat="41.879505153018364" lon="12.380436420252432"><ele>32.666666666666664</ele><time>2026-05-01T08:00:21Z</time></trkpt><trkpt lat="41.8796812753992" lon="12.380490438456148"><ele>32.33333333333333</ele><time>2026-05-01T08:00:22Z</time></trkpt><trkpt lat="41.87985106841388" lon="12.380551558495595"><ele>32.0</ele><time>2026-05-01T08:00:23Z</time></trkpt><trkpt lat="41.880017672173125" lon="12.380610807803517"><ele>33.666666666666664</ele><time>2026-05-01T08:00:24Z</time></trkpt><trkpt lat="41.88018420197389" lon="12.38066466744781"><ele>35.333333333333336</ele><time>2026-05-01T08:00:25Z</time></trkpt><trkpt lat="41.88034626768417" lon="12.3807105393429"><ele>37.0</ele><time>2026-05-01T08:00:26Z</time></trkpt><trkpt lat="41.880505675538394" lon="12.380760337997629"><ele>37.0</ele><time>2026-05-01T08:00:27Z</time></trkpt><trkpt lat="41.88065971150776" lon="12.380811085517763"><ele>37.0</ele><time>2026-05-01T08:00:28Z</time></trkpt><trkpt lat="41.880834086566395" lon="12.38084905478968"><ele>37.0</ele><time>2026-05-01T08:00:29Z</time></trkpt><trkpt lat="41.880977344452184" lon="12.38089487782263"><ele>37.0</ele><time>2026-05-01T08:00:30Z</time></trkpt><trkpt lat="41.88111418156734" lon="12.380933417326236"><ele>37.0</ele><time>2026-05-01T08:00:31Z</time></trkpt><trkpt lat="41.88127999149649" lon="12.380962644136025"><ele>37.0</ele><time>2026-05-01T08:00:32Z</time></trkpt><trkpt lat="41.88143206967464" lon="12.380978329746542"><ele>37.0</ele><time>2026-05-01T08:00:33Z</time></trkpt><trkpt lat="41.881596922360885" lon="12.38099750679819"><ele>37.0</ele><time>2026-05-01T08:00:34Z</time></trkpt><trkpt lat="41.881763348438966" lon="12.381012871599708"><ele>37.0</ele><time>2026-05-01T08:00:35Z</time></trkpt><trkpt lat="41.88193029214595" lon="12.381029101076747"><ele>37.0</ele><time>2026-05-01T08:00:36Z</time></trkpt><trkpt lat="41.8820882733387" lon="12.381059880487904"><ele>37.0</ele><time>2026-05-01T08:00:37Z</time></trkpt><trkpt lat="41.8822691254657" lon="12.381070073082133"><ele>37.0</ele><time>2026-05-01T08:00:38Z</time></trkpt><trkpt lat="41.882448050117866" lon="12.381090249870773"><ele>36.66666666666667</ele><time>2026-05-01T08:00:39Z</time></trkpt><trkpt lat="41.88262775308736" lon="12.381098088191361"><ele>36.333333333333336</ele><time>2026-05-01T08:00:40Z</time></trkpt><trkpt lat="41.88281035506765" lon="12.381105548041498"><ele>36.0</ele><time>2026-05-01T08:00:41Z</time></trkpt><trkpt lat="41.88299085837406" lon="12.381112654224035"><ele>36.0</ele><time>2026-05-01T08:00:42Z</time></trkpt><trkpt lat="41.883189398671554" lon="12.381098320480561"><ele>36.0</ele><time>2026-05-01T08:00:43Z</time></trkpt><trkpt lat="41.883367596308105" lon="12.38109365930173"><ele>36.0</ele><time>2026-05-01T08:00:44Z</time></trkpt><trkpt lat="41.883504392569314" lon="12.381134579417207"><ele>35.5</ele><time>2026-05-01T08:00:45.001Z</time></trkpt><trkpt lat="41.88365930650093" lon="12.381153105485696"><ele>35.0</ele><time>2026-05-01T08:00:46.001Z</time></trkpt><trkpt lat="41.88380244896914" lon="12.381170650854633"><ele>34.5</ele><time>2026-05-01T08:00:47.001Z</time></trkpt><trkpt lat="41.88394082108471" lon="12.381184896741743"><ele>34.0</ele><time>2026-05-01T08:00:48.001Z</time></trkpt><trkpt lat="41.8840744417533" lon="12.38119427224029"><ele>35.0</ele><time>2026-05-01T08:00:49.001Z</time></trkpt><trkpt lat="41.88432649107745" lon="12.381190734044454"><ele>36.0</ele><time>2026-05-01T08:00:51.001Z</time></trkpt><trkpt lat="41.88442242650884" lon="12.381186949776962"><ele>37.0</ele><time>2026-05-01T08:00:52.001Z</time></trkpt><trkpt lat="41.884545807734014" lon="12.381191065961767"><ele>37.0</ele><time>2026-05-01T08:00:53.001Z</time></trkpt><trkpt lat="41.88465628232314" lon="12.38119742934146"><ele>37.0</ele><time>2026-05-01T08:00:54.001Z</time></trkpt><trkpt lat="41.88476030269987" lon="12.381202170907368"><ele>37.0</ele><time>2026-05-01T08:00:55.001Z</time></trkpt><trkpt lat="41.88485595054715" lon="12.381200617247734"><ele>37.0</ele><time>2026-05-01T08:00:56.001Z</time></trkpt><trkpt lat="41.884946835372396" lon="12.381212772432045"><ele>37.0</ele><time>2026-05-01T08:00:57.001Z</time></trkpt><trkpt lat="41.885046595573726" lon="12.381224933424711"><ele>37.8</ele><time>2026-05-01T08:00:58.001Z</time></trkpt><trkpt lat="41.88514159998613" lon="12.381249280200272"><ele>38.6</ele><time>2026-05-01T08:00:59.001Z</time></trkpt><trkpt lat="41.88524613498918" lon="12.381247374880687"><ele>39.4</ele><time>2026-05-01T08:01:00.001Z</time></trkpt><trkpt lat="41.885361516060286" lon="12.381254582664752"><ele>40.199999999999996</ele><time>2026-05-01T08:01:01.001Z</time></trkpt><trkpt lat="41.88547155056024" lon="12.381270343786195"><ele>41.0</ele><time>2026-05-01T08:01:02.001Z</time></trkpt><trkpt lat="41.885574805376855" lon="12.381303441037415"><ele>39.75</ele><time>2026-05-01T08:01:03.001Z</time></trkpt><trkpt lat="41.885663786181176" lon="12.381387782207833"><ele>38.5</ele><time>2026-05-01T08:01:04.001Z</time></trkpt><trkpt lat="41.88572869621685" lon="12.381499978479843"><ele>37.25</ele><time>2026-05-01T08:01:05.001Z</time></trkpt><trkpt lat="41.885765022035976" lon="12.381662991672632"><ele>36.0</ele><time>2026-05-01T08:01:06.001Z</time></trkpt><trkpt lat="41.885743587057284" lon="12.381832623489862"><ele>36.0</ele><time>2026-05-01T08:01:06.998Z</time></trkpt><trkpt lat="41.885641070061595" lon="12.382035407258737"><ele>36.0</ele><time>2026-05-01T08:01:07.998Z</time></trkpt><trkpt lat="41.88554018598087" lon="12.382164813304978"><ele>36.0</ele><time>2026-05-01T08:01:08.998Z</time></trkpt><trkpt lat="41.88542544780989" lon="12.382262675690939"><ele>36.25</ele><time>2026-05-01T08:01:09.998Z</time></trkpt><trkpt lat="41.8853056755033" lon="12.3823128430658"><ele>36.5</ele><time>2026-05-01T08:01:10.998Z</time></trkpt><trkpt lat="41.88519540591508" lon="12.382302884761701"><ele>36.75</ele><time>2026-05-01T08:01:11.998Z</time></trkpt><trkpt lat="41.885072786140626" lon="12.382277370524374"><ele>37.0</ele><time>2026-05-01T08:01:12.998Z</time></trkpt><trkpt lat="41.884975217973796" lon="12.382206098427835"><ele>36.75</ele><time>2026-05-01T08:01:13.998Z</time></trkpt><trkpt lat="41.88488058804528" lon="12.382114148088148"><ele>36.5</ele><time>2026-05-01T08:01:14.998Z</time></trkpt><trkpt lat="41.884792346159465" lon="12.381997461521474"><ele>36.25</ele><time>2026-05-01T08:01:15.998Z</time></trkpt><trkpt lat="41.884708615957145" lon="12.381849197474741"><ele>36.0</ele><time>2026-05-01T08:01:16.999Z</time></trkpt><trkpt lat="41.88463474212821" lon="12.381696270802971"><ele>36.0</ele><time>2026-05-01T08:01:17.999Z</time></trkpt><trkpt lat="41.88455649101805" lon="12.381533620486378"><ele>36.0</ele><time>2026-05-01T08:01:18.999Z</time></trkpt><trkpt lat="41.88447361239269" lon="12.38136111723746"><ele>36.0</ele><time>2026-05-01T08:01:19.999Z</time></trkpt><trkpt lat="41.88438238235332" lon="12.381187064577382"><ele>36.25</ele><time>2026-05-01T08:01:20.999Z</time></trkpt><trkpt lat="41.884292149283816" lon="12.381030356921244"><ele>36.5</ele><time>2026-05-01T08:01:21.999Z</time></trkpt><trkpt lat="41.8842031160644" lon="12.380872680444714"><ele>36.75</ele><time>2026-05-01T08:01:22.999Z</time></trkpt><trkpt lat="41.88411267491378" lon="12.380716654261555"><ele>37.0</ele><time>2026-05-01T08:01:23.999Z</time></trkpt><trkpt lat="41.88402215562314" lon="12.380554171395271"><ele>37.75</ele><time>2026-05-01T08:01:24.999Z</time></trkpt><trkpt lat="41.883926617991975" lon="12.380366077923064"><ele>38.5</ele><time>2026-05-01T08:01:25.999Z</time></trkpt><trkpt lat="41.883880914949614" lon="12.3802045346233"><ele>39.25</ele><time>2026-05-01T08:01:26.999Z</time></trkpt><trkpt lat="41.88381662162418" lon="12.38006527719417"><ele>40.0</ele><time>2026-05-01T08:01:27.999Z</time></trkpt><trkpt lat="41.88375106794271" lon="12.37993423385109"><ele>40.0</ele><time>2026-05-01T08:01:28.999Z</time></trkpt><trkpt lat="41.88368652674284" lon="12.379811111190481"><ele>40.0</ele><time>2026-05-01T08:01:29.999Z</time></trkpt><trkpt lat="41.88362881936909" lon="12.379695143787266"><ele>40.0</ele><time>2026-05-01T08:01:30.999Z</time></trkpt><trkpt lat="41.88358302737312" lon="12.379581056668494"><ele>40.0</ele><time>2026-05-01T08:01:31.999Z</time></trkpt><trkpt lat="41.883525638493126" lon="12.379470445851315"><ele>40.0</ele><time>2026-05-01T08:01:32.999Z</time></trkpt><trkpt lat="41.883473039216526" lon="12.379376695465172"><ele>39.833333333333336</ele><time>2026-05-01T08:01:33.999Z</time></trkpt><trkpt lat="41.88343661237402" lon="12.37927768688573"><ele>39.66666666666667</ele><time>2026-05-01T08:01:34.999Z</time></trkpt><trkpt lat="41.883394231630724" lon="12.379151782211578"><ele>39.5</ele><time>2026-05-01T08:01:35.999Z</time></trkpt><trkpt lat="41.883359739880554" lon="12.379030534339726"><ele>39.333333333333336</ele><time>2026-05-01T08:01:36.999Z</time></trkpt><trkpt lat="41.883341342504295" lon="12.37893013346715"><ele>39.166666666666664</ele><time>2026-05-01T08:01:37.999Z</time></trkpt><trkpt lat="41.88332520074973" lon="12.378829334268016"><ele>39.0</ele><time>2026-05-01T08:01:38.999Z</time></trkpt><trkpt lat="41.88330827324889" lon="12.378711488403955"><ele>39.8</ele><time>2026-05-01T08:01:39.999Z</time></trkpt><trkpt lat="41.88328603165317" lon="12.378580651526063"><ele>40.599999999999994</ele><time>2026-05-01T08:01:41Z</time></trkpt><trkpt lat="41.88328111889393" lon="12.378445284035347"><ele>41.4</ele><time>2026-05-01T08:01:42Z</time></trkpt><trkpt lat="41.88328251728764" lon="12.378307093837694"><ele>42.199999999999996</ele><time>2026-05-01T08:01:43Z</time></trkpt><trkpt lat="41.88327960055932" lon="12.37816546678434"><ele>43.0</ele><time>2026-05-01T08:01:44Z</time></trkpt><trkpt lat="41.88326755985634" lon="12.378048342828077"><ele>41.6</ele><time>2026-05-01T08:01:45Z</time></trkpt><trkpt lat="41.88327272355917" lon="12.377902828890699"><ele>40.199999999999996</ele><time>2026-05-01T08:01:46Z</time></trkpt><trkpt lat="41.883311514770625" lon="12.377771272528094"><ele>38.8</ele><time>2026-05-01T08:01:47Z</time></trkpt><trkpt lat="41.88335444669011" lon="12.377653750358771"><ele>37.4</ele><time>2026-05-01T08:01:48Z</time></trkpt><trkpt lat="41.883374068660515" lon="12.37754544674132"><ele>36.0</ele><time>2026-05-01T08:01:49Z</time></trkpt><trkpt lat="41.88339774889739" lon="12.377460620487614"><ele>36.0</ele><time>2026-05-01T08:01:50Z</time></trkpt><trkpt lat="41.8834247377253" lon="12.377352712355565"><ele>36.0</ele><time>2026-05-01T08:01:51Z</time></trkpt><trkpt lat="41.8834455126194" lon="12.377236415317821"><ele>36.0</ele><time>2026-05-01T08:01:52Z</time></trkpt><trkpt lat="41.88349620127486" lon="12.377118086407897"><ele>36.0</ele><time>2026-05-01T08:01:53Z</time></trkpt><trkpt lat="41.883565536663816" lon="12.376980654078519"><ele>36.0</ele><time>2026-05-01T08:01:54Z</time></trkpt><trkpt lat="41.88363239098478" lon="12.376851335013775"><ele>36.75</ele><time>2026-05-01T08:01:55Z</time></trkpt><trkpt lat="41.883727005115645" lon="12.376698008348843"><ele>37.5</ele><time>2026-05-01T08:01:56Z</time></trkpt><trkpt lat="41.88381660351188" lon="12.376564212250864"><ele>38.25</ele><time>2026-05-01T08:01:57Z</time></trkpt><trkpt lat="41.883919421747606" lon="12.37643671725096"><ele>39.0</ele><time>2026-05-01T08:01:58Z</time></trkpt><trkpt lat="41.884048907633385" lon="12.376297553583225"><ele>39.0</ele><time>2026-05-01T08:01:59Z</time></trkpt><trkpt lat="41.88413362597788" lon="12.37620779821794"><ele>39.0</ele><time>2026-05-01T08:02:00Z</time></trkpt><trkpt lat="41.88425280158543" lon="12.37612739990239"><ele>39.0</ele><time>2026-05-01T08:02:01Z</time></trkpt><trkpt lat="41.88434475743746" lon="12.376045646093596"><ele>39.0</ele><time>2026-05-01T08:02:02Z</time></trkpt><trkpt lat="41.88443315944629" lon="12.375965580680313"><ele>38.666666666666664</ele><time>2026-05-01T08:02:03Z</time></trkpt><trkpt lat="41.88452491765218" lon="12.37588961217433"><ele>38.33333333333333</ele><time>2026-05-01T08:02:04Z</time></trkpt><trkpt lat="41.884731078327746" lon="12.375718241188274"><ele>38.0</ele><time>2026-05-01T08:02:06Z</time></trkpt><trkpt lat="41.884834255586284" lon="12.375588481283287"><ele>38.0</ele><time>2026-05-01T08:02:07Z</time></trkpt><trkpt lat="41.88495738711033" lon="12.37551157275999"><ele>38.0</ele><time>2026-05-01T08:02:08Z</time></trkpt><trkpt lat="41.88507562481868" lon="12.375408785297253"><ele>38.0</ele><time>2026-05-01T08:02:09Z</time></trkpt><trkpt lat="41.88519246242377" lon="12.375309904997012"><ele>38.0</ele><time>2026-05-01T08:02:10Z</time></trkpt><trkpt lat="41.88530795559558" lon="12.375211468932003"><ele>38.0</ele><time>2026-05-01T08:02:11Z</time></trkpt><trkpt lat="41.88541546324226" lon="12.375096608758094"><ele>38.0</ele><time>2026-05-01T08:02:12Z</time></trkpt><trkpt lat="41.88551635095743" lon="12.37495719970484"><ele>38.0</ele><time>2026-05-01T08:02:13Z</time></trkpt><trkpt lat="41.885609682448056" lon="12.37481990994842"><ele>38.0</ele><time>2026-05-01T08:02:14Z</time></trkpt><trkpt lat="41.88570138139414" lon="12.374701179005061"><ele>37.8</ele><time>2026-05-01T08:02:15Z</time></trkpt><trkpt lat="41.885789039794155" lon="12.374617394727805"><ele>37.599999999999994</ele><time>2026-05-01T08:02:16Z</time></trkpt><trkpt lat="41.885865364983935" lon="12.37455352183764"><ele>37.400000000000006</ele><time>2026-05-01T08:02:17Z</time></trkpt><trkpt lat="41.88591914961724" lon="12.374500836638356"><ele>37.2</ele><time>2026-05-01T08:02:18Z</time></trkpt><trkpt lat="41.88599064734033" lon="12.374408266961865"><ele>37.0</ele><time>2026-05-01T08:02:20Z</time></trkpt><trkpt lat="41.885946981344155" lon="12.374234941995935"><ele>38.0</ele><time>2026-05-01T08:02:23Z</time></trkpt><trkpt lat="41.88588863228606" lon="12.374180160283647"><ele>39.0</ele><time>2026-05-01T08:02:24Z</time></trkpt><trkpt lat="41.88583724424141" lon="12.374121401521183"><ele>40.0</ele><time>2026-05-01T08:02:25Z</time></trkpt><trkpt lat="41.88575090785711" lon="12.374011566129749"><ele>41.0</ele><time>2026-05-01T08:02:27Z</time></trkpt><trkpt lat="41.88568078690953" lon="12.373919955524668"><ele>42.0</ele><time>2026-05-01T08:02:29.001Z</time></trkpt><trkpt lat="41.88557091976979" lon="12.374008078046485"><ele>42.0</ele><time>2026-05-01T08:02:31.001Z</time></trkpt><trkpt lat="41.88552192756122" lon="12.374114016881059"><ele>42.0</ele><time>2026-05-01T08:02:33.001Z</time></trkpt><trkpt lat="41.88548426201805" lon="12.374183000264635"><ele>42.0</ele><time>2026-05-01T08:02:37.001Z</time></trkpt><trkpt lat="41.88543579743958" lon="12.37428859301912"><ele>42.0</ele><time>2026-05-01T08:02:45.001Z</time></trkpt><trkpt lat="41.885354775592" lon="12.374426237556332"><ele>42.0</ele><time>2026-05-01T08:02:47.001Z</time></trkpt><trkpt lat="41.885296646246" lon="12.374508170913726"><ele>42.0</ele><time>2026-05-01T08:02:48.001Z</time></trkpt><trkpt lat="41.88520995429839" lon="12.374588820740279"><ele>42.0</ele><time>2026-05-01T08:02:49.001Z</time></trkpt><trkpt lat="41.88513212566495" lon="12.37465792694071"><ele>42.0</ele><time>2026-05-01T08:02:50.001Z</time></trkpt><trkpt lat="41.88503993328772" lon="12.374742535876987"><ele>42.0</ele><time>2026-05-01T08:02:51.001Z</time></trkpt><trkpt lat="41.88495545482303" lon="12.374826261695311"><ele>42.0</ele><time>2026-05-01T08:02:52.001Z</time></trkpt><trkpt lat="41.884857964446674" lon="12.374918125747014"><ele>41.25</ele><time>2026-05-01T08:02:53.001Z</time></trkpt><trkpt lat="41.88475624162029" lon="12.375019729838936"><ele>40.5</ele><time>2026-05-01T08:02:54.001Z</time></trkpt><trkpt lat="41.88465307798293" lon="12.375113743826875"><ele>39.75</ele><time>2026-05-01T08:02:55.001Z</time></trkpt><trkpt lat="41.88454883387154" lon="12.375216345847132"><ele>39.0</ele><time>2026-05-01T08:02:56.001Z</time></trkpt><trkpt lat="41.884439718132796" lon="12.375326411570626"><ele>39.0</ele><time>2026-05-01T08:02:57.001Z</time></trkpt><trkpt lat="41.884324294129485" lon="12.375442042870313"><ele>39.0</ele><time>2026-05-01T08:02:58.001Z</time></trkpt><trkpt lat="41.88419415992448" lon="12.375570582045224"><ele>39.0</ele><time>2026-05-01T08:02:59.001Z</time></trkpt><trkpt lat="41.88407053944065" lon="12.37571966927128"><ele>39.0</ele><time>2026-05-01T08:03:00.001Z</time></trkpt><trkpt lat="41.8839558018826" lon="12.375894143154252"><ele>39.0</ele><time>2026-05-01T08:03:01.001Z</time></trkpt><trkpt lat="41.88382913370244" lon="12.376069251249582"><ele>39.0</ele><time>2026-05-01T08:03:02.001Z</time></trkpt><trkpt lat="41.883723496463986" lon="12.376252266588768"><ele>39.0</ele><time>2026-05-01T08:03:03.001Z</time></trkpt><trkpt lat="41.88362970306563" lon="12.376443980176502"><ele>39.0</ele><time>2026-05-01T08:03:04.001Z</time></trkpt><trkpt lat="41.88353838396745" lon="12.376663021164498"><ele>39.0</ele><time>2026-05-01T08:03:05.001Z</time></trkpt><trkpt lat="41.883450226868874" lon="12.376885595343765"><ele>38.333333333333336</ele><time>2026-05-01T08:03:06.001Z</time></trkpt><trkpt lat="41.88337238672958" lon="12.377108145510253"><ele>37.66666666666667</ele><time>2026-05-01T08:03:07.001Z</time></trkpt><trkpt lat="41.88332346395501" lon="12.37732495170287"><ele>37.0</ele><time>2026-05-01T08:03:08.001Z</time></trkpt><trkpt lat="41.88327575010123" lon="12.37754417387359"><ele>36.66666666666667</ele><time>2026-05-01T08:03:09.001Z</time></trkpt><trkpt lat="41.883229036508894" lon="12.377747719398931"><ele>36.333333333333336</ele><time>2026-05-01T08:03:10.001Z</time></trkpt><trkpt lat="41.88317991506971" lon="12.377939883773202"><ele>36.0</ele><time>2026-05-01T08:03:11.001Z</time></trkpt><trkpt lat="41.88311978908362" lon="12.37811598745284"><ele>37.75</ele><time>2026-05-01T08:03:12.001Z</time></trkpt><trkpt lat="41.88304157498864" lon="12.378272198392661"><ele>39.5</ele><time>2026-05-01T08:03:12.999Z</time></trkpt><trkpt lat="41.88294231452393" lon="12.378419958030651"><ele>41.25</ele><time>2026-05-01T08:03:13.999Z</time></trkpt><trkpt lat="41.88283823234887" lon="12.378565414073346"><ele>43.0</ele><time>2026-05-01T08:03:14.999Z</time></trkpt><trkpt lat="41.882715036204665" lon="12.378716833428994"><ele>39.333333333333336</ele><time>2026-05-01T08:03:15.999Z</time></trkpt><trkpt lat="41.88258668017637" lon="12.378859411968342"><ele>35.666666666666664</ele><time>2026-05-01T08:03:16.999Z</time></trkpt><trkpt lat="41.88245148367746" lon="12.379006612846053"><ele>32.0</ele><time>2026-05-01T08:03:17.999Z</time></trkpt><trkpt lat="41.882336378316566" lon="12.379149689062606"><ele>32.0</ele><time>2026-05-01T08:03:18.999Z</time></trkpt><trkpt lat="41.88220826346627" lon="12.379272559728276"><ele>32.0</ele><time>2026-05-01T08:03:19.999Z</time></trkpt><trkpt lat="41.88193918250508" lon="12.379520781932133"><ele>32.0</ele><time>2026-05-01T08:03:21.999Z</time></trkpt><trkpt lat="41.88178557305606" lon="12.379648302736392"><ele>32.0</ele><time>2026-05-01T08:03:22.999Z</time></trkpt><trkpt lat="41.88162356724428" lon="12.37978083175027"><ele>32.0</ele><time>2026-05-01T08:03:23.999Z</time></trkpt><trkpt lat="41.88150232694429" lon="12.379868564543035"><ele>32.0</ele><time>2026-05-01T08:03:24.999Z</time></trkpt><trkpt lat="41.88132147442276" lon="12.379983714949148"><ele>32.0</ele><time>2026-05-01T08:03:25.999Z</time></trkpt><trkpt lat="41.88114067672232" lon="12.380046087370289"><ele>32.0</ele><time>2026-05-01T08:03:26.999Z</time></trkpt><trkpt lat="41.88092757175562" lon="12.38012859632275"><ele>32.0</ele><time>2026-05-01T08:03:28Z</time></trkpt><trkpt lat="41.88075800635019" lon="12.380175363591842"><ele>32.0</ele><time>2026-05-01T08:03:29Z</time></trkpt><trkpt lat="41.88057886179179" lon="12.380171559885254"><ele>32.0</ele><time>2026-05-01T08:03:30Z</time></trkpt><trkpt lat="41.880397842570495" lon="12.380176631568792"><ele>32.0</ele><time>2026-05-01T08:03:31Z</time></trkpt><trkpt lat="41.88021619763176" lon="12.380180845231232"><ele>32.0</ele><time>2026-05-01T08:03:32Z</time></trkpt><trkpt lat="41.88003240950915" lon="12.380143518610552"><ele>32.0</ele><time>2026-05-01T08:03:33Z</time></trkpt><trkpt lat="41.87984964859076" lon="12.380097099952389"><ele>32.0</ele><time>2026-05-01T08:03:34Z</time></trkpt><trkpt lat="41.87966849700352" lon="12.38004909552128"><ele>32.0</ele><time>2026-05-01T08:03:35Z</time></trkpt><trkpt lat="41.87948468221638" lon="12.37998566281843"><ele>32.0</ele><time>2026-05-01T08:03:36Z</time></trkpt><trkpt lat="41.87930973477738" lon="12.379909257740811"><ele>32.33333333333333</ele><time>2026-05-01T08:03:37Z</time></trkpt><trkpt lat="41.87912554382759" lon="12.37984590709686"><ele>32.666666666666664</ele><time>2026-05-01T08:03:38Z</time></trkpt><trkpt lat="41.87894366667359" lon="12.379778287752265"><ele>33.0</ele><time>2026-05-01T08:03:39Z</time></trkpt><trkpt lat="41.87875937507254" lon="12.379701107943845"><ele>32.333333333333336</ele><time>2026-05-01T08:03:40Z</time></trkpt><trkpt lat="41.878573294163324" lon="12.37963049831988"><ele>31.666666666666668</ele><time>2026-05-01T08:03:41Z</time></trkpt><trkpt lat="41.87842471267247" lon="12.379536037453796"><ele>31.0</ele><time>2026-05-01T08:03:42Z</time></trkpt><trkpt lat="41.87823106809575" lon="12.379479480208236"><ele>31.0</ele><time>2026-05-01T08:03:43Z</time></trkpt><trkpt lat="41.87806259464109" lon="12.379418920141056"><ele>31.0</ele><time>2026-05-01T08:03:44Z</time></trkpt><trkpt lat="41.87787763810968" lon="12.379361419757386"><ele>31.0</ele><time>2026-05-01T08:03:45Z</time></trkpt><trkpt lat="41.87769861475447" lon="12.379297493869519"><ele>32.66666666666667</ele><time>2026-05-01T08:03:46Z</time></trkpt><trkpt lat="41.87752980410979" lon="12.37922109087361"><ele>34.333333333333336</ele><time>2026-05-01T08:03:47Z</time></trkpt><trkpt lat="41.877358896963365" lon="12.379145073681688"><ele>36.0</ele><time>2026-05-01T08:03:48Z</time></trkpt><trkpt lat="41.87719175894299" lon="12.37906196106522"><ele>36.0</ele><time>2026-05-01T08:03:49Z</time></trkpt><trkpt lat="41.87701393683262" lon="12.378963983835913"><ele>36.0</ele><time>2026-05-01T08:03:50Z</time></trkpt><trkpt lat="41.87683989581812" lon="12.378880115673368"><ele>36.0</ele><time>2026-05-01T08:03:51Z</time></trkpt><trkpt lat="41.8766698452528" lon="12.378779995469497"><ele>35.333333333333336</ele><time>2026-05-01T08:03:52Z</time></trkpt><trkpt lat="41.87649076605858" lon="12.378688064959"><ele>34.66666666666667</ele><time>2026-05-01T08:03:53Z</time></trkpt><trkpt lat="41.87630539836645" lon="12.378587967662785"><ele>34.0</ele><time>2026-05-01T08:03:54Z</time></trkpt><trkpt lat="41.876118226918365" lon="12.378488817647881"><ele>32.333333333333336</ele><time>2026-05-01T08:03:55Z</time></trkpt><trkpt lat="41.875929172661046" lon="12.378382035086725"><ele>30.666666666666664</ele><time>2026-05-01T08:03:56Z</time></trkpt><trkpt lat="41.87572460549988" lon="12.378290117008207"><ele>29.0</ele><time>2026-05-01T08:03:57Z</time></trkpt><trkpt lat="41.8755330404145" lon="12.3781850627713"><ele>29.0</ele><time>2026-05-01T08:03:58Z</time></trkpt><trkpt lat="41.875342679004675" lon="12.378077098306603"><ele>29.0</ele><time>2026-05-01T08:03:59Z</time></trkpt><trkpt lat="41.87514760131711" lon="12.377971799499903"><ele>29.0</ele><time>2026-05-01T08:04:00Z</time></trkpt><trkpt lat="41.87495740582578" lon="12.37787206701111"><ele>29.666666666666664</ele><time>2026-05-01T08:04:01Z</time></trkpt><trkpt lat="41.87477106318232" lon="12.377774400003135"><ele>30.333333333333336</ele><time>2026-05-01T08:04:02Z</time></trkpt><trkpt lat="41.874585078554865" lon="12.377678941784252"><ele>31.0</ele><time>2026-05-01T08:04:03.001Z</time></trkpt><trkpt lat="41.87440020535102" lon="12.377584196441681"><ele>31.666666666666668</ele><time>2026-05-01T08:04:04.001Z</time></trkpt><trkpt lat="41.87421827553126" lon="12.377480075095114"><ele>32.333333333333336</ele><time>2026-05-01T08:04:05.001Z</time></trkpt><trkpt lat="41.874034934343904" lon="12.37738413160544"><ele>33.0</ele><time>2026-05-01T08:04:06.001Z</time></trkpt><trkpt lat="41.87385949441236" lon="12.37728147083538"><ele>33.0</ele><time>2026-05-01T08:04:07.001Z</time></trkpt><trkpt lat="41.873671015467174" lon="12.377185819980742"><ele>33.0</ele><time>2026-05-01T08:04:08.001Z</time></trkpt><trkpt lat="41.873484833148204" lon="12.37709207413102"><ele>33.0</ele><time>2026-05-01T08:04:09.001Z</time></trkpt><trkpt lat="41.873301991189116" lon="12.37698978294084"><ele>34.666666666666664</ele><time>2026-05-01T08:04:10.001Z</time></trkpt><trkpt lat="41.87312798527661" lon="12.376889234124267"><ele>36.33333333333333</ele><time>2026-05-01T08:04:11.001Z</time></trkpt><trkpt lat="41.87294235144212" lon="12.376800315074465"><ele>38.0</ele><time>2026-05-01T08:04:12.001Z</time></trkpt><trkpt lat="41.87276702312005" lon="12.376694481347503"><ele>38.666666666666664</ele><time>2026-05-01T08:04:13.001Z</time></trkpt><trkpt lat="41.872579339346025" lon="12.376599267441595"><ele>39.333333333333336</ele><time>2026-05-01T08:04:14.001Z</time></trkpt><trkpt lat="41.87240140716169" lon="12.376494099074876"><ele>40.0</ele><time>2026-05-01T08:04:15.001Z</time></trkpt><trkpt lat="41.87222546600972" lon="12.376397715650436"><ele>42.66666666666667</ele><time>2026-05-01T08:04:16.001Z</time></trkpt><trkpt lat="41.87204508110073" lon="12.376301956651666"><ele>45.333333333333336</ele><time>2026-05-01T08:04:17.001Z</time></trkpt><trkpt lat="41.87186428222666" lon="12.376212829668543"><ele>48.0</ele><time>2026-05-01T08:04:18.001Z</time></trkpt><trkpt lat="41.87167833455983" lon="12.3761078033093"><ele>48.0</ele><time>2026-05-01T08:04:19.001Z</time></trkpt><trkpt lat="41.87150015162184" lon="12.375994329526"><ele>48.0</ele><time>2026-05-01T08:04:20.001Z</time></trkpt><trkpt lat="41.87130794746869" lon="12.375892691814117"><ele>48.0</ele><time>2026-05-01T08:04:21.001Z</time></trkpt><trkpt lat="41.87111926073414" lon="12.375789201036042"><ele>49.66666666666667</ele><time>2026-05-01T08:04:22.001Z</time></trkpt><trkpt lat="41.87093023719249" lon="12.37568401730841"><ele>51.333333333333336</ele><time>2026-05-01T08:04:23.001Z</time></trkpt><trkpt lat="41.87073677754924" lon="12.375584303211872"><ele>53.0</ele><time>2026-05-01T08:04:24.001Z</time></trkpt><trkpt lat="41.87054770174604" lon="12.375472746688452"><ele>53.0</ele><time>2026-05-01T08:04:25.001Z</time></trkpt><trkpt lat="41.870358701790195" lon="12.375362614479503"><ele>53.0</ele><time>2026-05-01T08:04:26.001Z</time></trkpt><trkpt lat="41.86997759138104" lon="12.375143825684194"><ele>49.0</ele><time>2026-05-01T08:04:28.001Z</time></trkpt><trkpt lat="41.86979158631657" lon="12.37502433973346"><ele>45.0</ele><time>2026-05-01T08:04:29.001Z</time></trkpt><trkpt lat="41.86961079124427" lon="12.37490187290497"><ele>41.0</ele><time>2026-05-01T08:04:30.001Z</time></trkpt><trkpt lat="41.86942135738806" lon="12.374781999327551"><ele>40.666666666666664</ele><time>2026-05-01T08:04:31.001Z</time></trkpt><trkpt lat="41.86924565329665" lon="12.374669372981401"><ele>40.333333333333336</ele><time>2026-05-01T08:04:32.001Z</time></trkpt><trkpt lat="41.869055327714705" lon="12.374548631701206"><ele>40.0</ele><time>2026-05-01T08:04:33.001Z</time></trkpt><trkpt lat="41.86887284678685" lon="12.374443237935484"><ele>40.0</ele><time>2026-05-01T08:04:34.001Z</time></trkpt><trkpt lat="41.86869877128075" lon="12.374344207622448"><ele>40.0</ele><time>2026-05-01T08:04:35.001Z</time></trkpt><trkpt lat="41.86852487402222" lon="12.374248524304768"><ele>40.0</ele><time>2026-05-01T08:04:36.001Z</time></trkpt><trkpt lat="41.86834106026725" lon="12.374161391721204"><ele>42.333333333333336</ele><time>2026-05-01T08:04:37.001Z</time></trkpt><trkpt lat="41.868163901049755" lon="12.374074536626154"><ele>44.666666666666664</ele><time>2026-05-01T08:04:38.001Z</time></trkpt><trkpt lat="41.86797243341463" lon="12.374005347333627"><ele>47.0</ele><time>2026-05-01T08:04:39.001Z</time></trkpt><trkpt lat="41.86777790618879" lon="12.373935015924712"><ele>49.0</ele><time>2026-05-01T08:04:40.001Z</time></trkpt><trkpt lat="41.86758872400618" lon="12.373859014155922"><ele>51.0</ele><time>2026-05-01T08:04:41.001Z</time></trkpt><trkpt lat="41.86737715015204" lon="12.373810896874364"><ele>53.0</ele><time>2026-05-01T08:04:42.001Z</time></trkpt><trkpt lat="41.86718001264357" lon="12.373751271645249"><ele>54.333333333333336</ele><time>2026-05-01T08:04:43.001Z</time></trkpt><trkpt lat="41.86696604323373" lon="12.373686656294227"><ele>55.66666666666667</ele><time>2026-05-01T08:04:44.001Z</time></trkpt><trkpt lat="41.86674754997399" lon="12.373644349346051"><ele>57.0</ele><time>2026-05-01T08:04:45.001Z</time></trkpt><trkpt lat="41.86652893335235" lon="12.373604859386019"><ele>59.5</ele><time>2026-05-01T08:04:46.001Z</time></trkpt><trkpt lat="41.86631143624593" lon="12.373573832675465"><ele>62.0</ele><time>2026-05-01T08:04:47.001Z</time></trkpt><trkpt lat="41.86606754368149" lon="12.373543498130921"><ele>62.0</ele><time>2026-05-01T08:04:48.001Z</time></trkpt><trkpt lat="41.86583328561539" lon="12.373530615673397"><ele>62.0</ele><time>2026-05-01T08:04:49.001Z</time></trkpt><trkpt lat="41.86560102692413" lon="12.373510543538417"><ele>62.0</ele><time>2026-05-01T08:04:50.001Z</time></trkpt><trkpt lat="41.865364435782716" lon="12.373501223673433"><ele>62.0</ele><time>2026-05-01T08:04:51.001Z</time></trkpt><trkpt lat="41.86512629881264" lon="12.373488542572545"><ele>61.0</ele><time>2026-05-01T08:04:52.001Z</time></trkpt><trkpt lat="41.86489085968019" lon="12.373539124742624"><ele>60.0</ele><time>2026-05-01T08:04:53.002Z</time></trkpt><trkpt lat="41.86464006405334" lon="12.373551762293946"><ele>60.0</ele><time>2026-05-01T08:04:54.002Z</time></trkpt><trkpt lat="41.86439218446524" lon="12.373576779375144"><ele>60.0</ele><time>2026-05-01T08:04:55.002Z</time></trkpt><trkpt lat="41.86414553369839" lon="12.373627536703049"><ele>61.0</ele><time>2026-05-01T08:04:56.002Z</time></trkpt><trkpt lat="41.863898281952736" lon="12.373672399443636"><ele>62.0</ele><time>2026-05-01T08:04:57.002Z</time></trkpt><trkpt lat="41.86366382466667" lon="12.37372945768665"><ele>62.0</ele><time>2026-05-01T08:04:58.002Z</time></trkpt><trkpt lat="41.86345520273006" lon="12.373800316276036"><ele>62.0</ele><time>2026-05-01T08:04:59.002Z</time></trkpt><trkpt lat="41.8632470654346" lon="12.373855458179413"><ele>62.0</ele><time>2026-05-01T08:05:00.002Z</time></trkpt><trkpt lat="41.86306203110525" lon="12.373899933592474"><ele>61.0</ele><time>2026-05-01T08:05:01.002Z</time></trkpt><trkpt lat="41.86287607770713" lon="12.373912361724729"><ele>60.0</ele><time>2026-05-01T08:05:02.002Z</time></trkpt><trkpt lat="41.86270485523518" lon="12.373888917727927"><ele>59.0</ele><time>2026-05-01T08:05:03.002Z</time></trkpt><trkpt lat="41.86253623632675" lon="12.373842395099869"><ele>59.0</ele><time>2026-05-01T08:05:04.002Z</time></trkpt><trkpt lat="41.862366144991036" lon="12.373768959754056"><ele>59.0</ele><time>2026-05-01T08:05:05.002Z</time></trkpt><trkpt lat="41.86220486587672" lon="12.373674825615964"><ele>59.0</ele><time>2026-05-01T08:05:06.002Z</time></trkpt><trkpt lat="41.86205263660135" lon="12.373572351362863"><ele>59.0</ele><time>2026-05-01T08:05:07.002Z</time></trkpt><trkpt lat="41.86185994087127" lon="12.373481488285355"><ele>59.0</ele><time>2026-05-01T08:05:08.002Z</time></trkpt><trkpt lat="41.86170909859736" lon="12.373460916778281"><ele>59.0</ele><time>2026-05-01T08:05:09.002Z</time></trkpt><trkpt lat="41.861531138489234" lon="12.373469529099614"><ele>58.66666666666667</ele><time>2026-05-01T08:05:10.002Z</time></trkpt><trkpt lat="41.861353240235886" lon="12.373512287068804"><ele>58.33333333333333</ele><time>2026-05-01T08:05:11.002Z</time></trkpt><trkpt lat="41.86116438825559" lon="12.37358210041615"><ele>58.0</ele><time>2026-05-01T08:05:12.002Z</time></trkpt><trkpt lat="41.86097526821289" lon="12.373667577235938"><ele>58.0</ele><time>2026-05-01T08:05:13.002Z</time></trkpt><trkpt lat="41.86078442885771" lon="12.373751749973362"><ele>58.0</ele><time>2026-05-01T08:05:14.002Z</time></trkpt><trkpt lat="41.86059127308351" lon="12.373830113789872"><ele>58.0</ele><time>2026-05-01T08:05:15.002Z</time></trkpt><trkpt lat="41.860391866422766" lon="12.373891023121175"><ele>60.33333333333333</ele><time>2026-05-01T08:05:16.002Z</time></trkpt><trkpt lat="41.86019443660562" lon="12.373975661078767"><ele>62.66666666666667</ele><time>2026-05-01T08:05:17.002Z</time></trkpt><trkpt lat="41.860044959591285" lon="12.374070009501427"><ele>65.0</ele><time>2026-05-01T08:05:18.002Z</time></trkpt><trkpt lat="41.85989378821604" lon="12.374198212243286"><ele>65.0</ele><time>2026-05-01T08:05:19Z</time></trkpt><trkpt lat="41.85975991555134" lon="12.37436642863983"><ele>65.0</ele><time>2026-05-01T08:05:20Z</time></trkpt><trkpt lat="41.85965848677794" lon="12.37456593397772"><ele>65.0</ele><time>2026-05-01T08:05:21Z</time></trkpt><trkpt lat="41.85955870849762" lon="12.374781646383113"><ele>65.0</ele><time>2026-05-01T08:05:22Z</time></trkpt><trkpt lat="41.8594526088045" lon="12.375005630964887"><ele>65.0</ele><time>2026-05-01T08:05:23Z</time></trkpt><trkpt lat="41.85934510419" lon="12.375197086025182"><ele>65.0</ele><time>2026-05-01T08:05:24Z</time></trkpt><trkpt lat="41.85921755482524" lon="12.375372646024335"><ele>65.0</ele><time>2026-05-01T08:05:25Z</time></trkpt><trkpt lat="41.859062309474865" lon="12.375525582464014"><ele>65.0</ele><time>2026-05-01T08:05:26Z</time></trkpt><trkpt lat="41.858866903717974" lon="12.375642476852109"><ele>65.0</ele><time>2026-05-01T08:05:27Z</time></trkpt><trkpt lat="41.85867276003418" lon="12.375751939830927"><ele>65.0</ele><time>2026-05-01T08:05:28Z</time></trkpt><trkpt lat="41.858487546695464" lon="12.375847981389784"><ele>65.0</ele><time>2026-05-01T08:05:29Z</time></trkpt><trkpt lat="41.858282366887714" lon="12.375943892759345"><ele>65.0</ele><time>2026-05-01T08:05:30Z</time></trkpt><trkpt lat="41.858074536134644" lon="12.376032754659956"><ele>65.33333333333334</ele><time>2026-05-01T08:05:31Z</time></trkpt><trkpt lat="41.85787345260828" lon="12.376125843568657"><ele>65.66666666666667</ele><time>2026-05-01T08:05:32Z</time></trkpt><trkpt lat="41.85766474321975" lon="12.376212494208255"><ele>66.0</ele><time>2026-05-01T08:05:33Z</time></trkpt><trkpt lat="41.8574534027124" lon="12.376286185046881"><ele>67.33333333333333</ele><time>2026-05-01T08:05:34Z</time></trkpt><trkpt lat="41.85724815248718" lon="12.37638085722252"><ele>68.66666666666666</ele><time>2026-05-01T08:05:35Z</time></trkpt><trkpt lat="41.85704033910722" lon="12.37647881866638"><ele>70.0</ele><time>2026-05-01T08:05:36Z</time></trkpt><trkpt lat="41.856808020371325" lon="12.376599812163823"><ele>69.33333333333333</ele><time>2026-05-01T08:05:37Z</time></trkpt><trkpt lat="41.856608245653014" lon="12.376696837925596"><ele>68.66666666666667</ele><time>2026-05-01T08:05:38Z</time></trkpt><trkpt lat="41.856403295130065" lon="12.37678671857416"><ele>68.0</ele><time>2026-05-01T08:05:39Z</time></trkpt><trkpt lat="41.85618648510332" lon="12.376862593954199"><ele>68.0</ele><time>2026-05-01T08:05:40Z</time></trkpt><trkpt lat="41.85598197534221" lon="12.376946247263865"><ele>68.0</ele><time>2026-05-01T08:05:41Z</time></trkpt><trkpt lat="41.855788242823564" lon="12.377019431716127"><ele>68.0</ele><time>2026-05-01T08:05:42Z</time></trkpt><trkpt lat="41.85555913412836" lon="12.37710896668374"><ele>68.0</ele><time>2026-05-01T08:05:43Z</time></trkpt><trkpt lat="41.85534378475189" lon="12.377194619916931"><ele>68.0</ele><time>2026-05-01T08:05:44Z</time></trkpt><trkpt lat="41.855134906592966" lon="12.377286522783656"><ele>68.0</ele><time>2026-05-01T08:05:45Z</time></trkpt><trkpt lat="41.854944971246496" lon="12.377390107175206"><ele>68.5</ele><time>2026-05-01T08:05:46Z</time></trkpt><trkpt lat="41.85474438460105" lon="12.377498183778306"><ele>69.0</ele><time>2026-05-01T08:05:47Z</time></trkpt><trkpt lat="41.854506371501046" lon="12.377549277232918"><ele>67.0</ele><time>2026-05-01T08:05:48Z</time></trkpt><trkpt lat="41.8542868652343" lon="12.377645845010335"><ele>65.0</ele><time>2026-05-01T08:05:49Z</time></trkpt><trkpt lat="41.85407803289338" lon="12.37773342809912"><ele>65.0</ele><time>2026-05-01T08:05:50Z</time></trkpt><trkpt lat="41.85386807024278" lon="12.377813780410248"><ele>65.0</ele><time>2026-05-01T08:05:51Z</time></trkpt><trkpt lat="41.853659417126494" lon="12.377894654601164"><ele>65.0</ele><time>2026-05-01T08:05:52Z</time></trkpt><trkpt lat="41.853442163690104" lon="12.377960567275663"><ele>66.0</ele><time>2026-05-01T08:05:53Z</time></trkpt><trkpt lat="41.85323600769709" lon="12.378050875234914"><ele>67.0</ele><time>2026-05-01T08:05:54Z</time></trkpt><trkpt lat="41.853023529097705" lon="12.378121864502459"><ele>68.0</ele><time>2026-05-01T08:05:55Z</time></trkpt><trkpt lat="41.852813385092404" lon="12.378222329315607"><ele>68.0</ele><time>2026-05-01T08:05:56Z</time></trkpt><trkpt lat="41.85259831488736" lon="12.378302190895612"><ele>68.0</ele><time>2026-05-01T08:05:57.001Z</time></trkpt><trkpt lat="41.85239493211461" lon="12.378403621544752"><ele>68.0</ele><time>2026-05-01T08:05:58.001Z</time></trkpt><trkpt lat="41.85220203734724" lon="12.378483672116515"><ele>68.0</ele><time>2026-05-01T08:05:59.001Z</time></trkpt><trkpt lat="41.85202798823017" lon="12.378549362424778"><ele>68.0</ele><time>2026-05-01T08:06:00.001Z</time></trkpt><trkpt lat="41.851893759817166" lon="12.378596582540426"><ele>68.0</ele><time>2026-05-01T08:06:01.001Z</time></trkpt><trkpt lat="41.851739612069764" lon="12.378625228694272"><ele>68.33333333333334</ele><time>2026-05-01T08:06:02.001Z</time></trkpt><trkpt lat="41.851427728075066" lon="12.378599645336825"><ele>68.66666666666667</ele><time>2026-05-01T08:06:04.001Z</time></trkpt><trkpt lat="41.85131201052634" lon="12.378545685483408"><ele>69.0</ele><time>2026-05-01T08:06:05.001Z</time></trkpt><trkpt lat="41.85122104501463" lon="12.378461036357477"><ele>69.0</ele><time>2026-05-01T08:06:06.001Z</time></trkpt><trkpt lat="41.85114812152035" lon="12.378336580720063"><ele>69.0</ele><time>2026-05-01T08:06:07.001Z</time></trkpt><trkpt lat="41.85109080135344" lon="12.378190516441586"><ele>69.0</ele><time>2026-05-01T08:06:08.001Z</time></trkpt><trkpt lat="41.851061061522515" lon="12.378032012251865"><ele>69.0</ele><time>2026-05-01T08:06:09.001Z</time></trkpt><trkpt lat="41.85104086967307" lon="12.377829290560088"><ele>69.60000000000001</ele><time>2026-05-01T08:06:10.001Z</time></trkpt><trkpt lat="41.85103768440942" lon="12.377726107135215"><ele>70.2</ele><time>2026-05-01T08:06:11.001Z</time></trkpt><trkpt lat="41.85108259700547" lon="12.377615469011163"><ele>70.80000000000001</ele><time>2026-05-01T08:06:12.001Z</time></trkpt><trkpt lat="41.85119537572836" lon="12.377461170091006"><ele>71.4</ele><time>2026-05-01T08:06:13.001Z</time></trkpt><trkpt lat="41.85129632377103" lon="12.37738138481965"><ele>72.0</ele><time>2026-05-01T08:06:14.001Z</time></trkpt><trkpt lat="41.85141777627312" lon="12.377356620078189"><ele>72.0</ele><time>2026-05-01T08:06:15.001Z</time></trkpt><trkpt lat="41.851571821906944" lon="12.377372880020136"><ele>72.0</ele><time>2026-05-01T08:06:16.001Z</time></trkpt><trkpt lat="41.85167845573243" lon="12.37737257843105"><ele>72.0</ele><time>2026-05-01T08:06:17.001Z</time></trkpt><trkpt lat="41.851726074478975" lon="12.377514851189824"><ele>72.0</ele><time>2026-05-01T08:06:18.001Z</time></trkpt><trkpt lat="41.85177964259108" lon="12.37760307148268"><ele>71.2</ele><time>2026-05-01T08:06:19.001Z</time></trkpt><trkpt lat="41.851834228835045" lon="12.37770852661629"><ele>70.4</ele><time>2026-05-01T08:06:20.001Z</time></trkpt><trkpt lat="41.8518970543532" lon="12.377780638421939"><ele>69.6</ele><time>2026-05-01T08:06:21.001Z</time></trkpt><trkpt lat="41.85189502177829" lon="12.377925126041806"><ele>68.8</ele><time>2026-05-01T08:06:22.001Z</time></trkpt><trkpt lat="41.851927979795846" lon="12.378064846833324"><ele>68.0</ele><time>2026-05-01T08:06:23.001Z</time></trkpt><trkpt lat="41.851958003393435" lon="12.378216474840045"><ele>68.0</ele><time>2026-05-01T08:06:24.001Z</time></trkpt><trkpt lat="41.85199644541917" lon="12.378367503493669"><ele>68.0</ele><time>2026-05-01T08:06:25.001Z</time></trkpt><trkpt lat="41.85203175423024" lon="12.378542762308125"><ele>68.0</ele><time>2026-05-01T08:06:26.001Z</time></trkpt><trkpt lat="41.8520744119582" lon="12.37870581199278"><ele>68.0</ele><time>2026-05-01T08:06:27.001Z</time></trkpt><trkpt lat="41.852113182935" lon="12.378880362170337"><ele>68.5</ele><time>2026-05-01T08:06:28.001Z</time></trkpt><trkpt lat="41.85216010185097" lon="12.379060671304757"><ele>69.0</ele><time>2026-05-01T08:06:29.001Z</time></trkpt><trkpt lat="41.852214215733575" lon="12.379245285641625"><ele>69.5</ele><time>2026-05-01T08:06:30.001Z</time></trkpt><trkpt lat="41.85226989337931" lon="12.37942239365367"><ele>70.0</ele><time>2026-05-01T08:06:31.001Z</time></trkpt><trkpt lat="41.85232423727868" lon="12.379580071180744"><ele>70.0</ele><time>2026-05-01T08:06:32.001Z</time></trkpt><trkpt lat="41.85237547728951" lon="12.379740434409616"><ele>70.0</ele><time>2026-05-01T08:06:33.001Z</time></trkpt><trkpt lat="41.85243016799399" lon="12.37987486445098"><ele>70.0</ele><time>2026-05-01T08:06:34.001Z</time></trkpt><trkpt lat="41.852491614559284" lon="12.380005333970102"><ele>70.0</ele><time>2026-05-01T08:06:35.001Z</time></trkpt><trkpt lat="41.85256867913977" lon="12.380121423455776"><ele>70.25</ele><time>2026-05-01T08:06:36.001Z</time></trkpt><trkpt lat="41.85263925614537" lon="12.380254810928852"><ele>70.5</ele><time>2026-05-01T08:06:37.001Z</time></trkpt><trkpt lat="41.85271030294906" lon="12.380374368211235"><ele>70.75</ele><time>2026-05-01T08:06:38.001Z</time></trkpt><trkpt lat="41.852799456839946" lon="12.38047637024001"><ele>71.0</ele><time>2026-05-01T08:06:39.001Z</time></trkpt><trkpt lat="41.8528767991192" lon="12.380570422251058"><ele>71.39999999999999</ele><time>2026-05-01T08:06:41.001Z</time></trkpt><trkpt lat="41.85289710244576" lon="12.380467259467544"><ele>71.8</ele><time>2026-05-01T08:06:45.001Z</time></trkpt><trkpt lat="41.85289552721979" lon="12.380376382330065"><ele>72.19999999999999</ele><time>2026-05-01T08:07:21.002Z</time></trkpt><trkpt lat="41.85287912838391" lon="12.380250985798915"><ele>72.6</ele><time>2026-05-01T08:07:23.002Z</time></trkpt><trkpt lat="41.85282902673596" lon="12.380069470405402"><ele>73.0</ele><time>2026-05-01T08:07:25.001Z</time></trkpt><trkpt lat="41.852794776280675" lon="12.379972063595078"><ele>73.0</ele><time>2026-05-01T08:07:26.001Z</time></trkpt><trkpt lat="41.85275465457239" lon="12.379857962558075"><ele>73.0</ele><time>2026-05-01T08:07:27.001Z</time></trkpt><trkpt lat="41.852764120626894" lon="12.37977053155799"><ele>73.0</ele><time>2026-05-01T08:07:28.001Z</time></trkpt><trkpt lat="41.85231835223024" lon="12.379695709793005"><ele>72.0</ele><time>2026-05-01T08:07:29.001Z</time></trkpt><trkpt lat="41.852266693183694" lon="12.379489909764134"><ele>71.0</ele><time>2026-05-01T08:07:30.001Z</time></trkpt><trkpt lat="41.852215952141464" lon="12.37929633936421"><ele>70.0</ele><time>2026-05-01T08:07:31.001Z</time></trkpt><trkpt lat="41.85220211575399" lon="12.379094418596658"><ele>70.0</ele><time>2026-05-01T08:07:32.001Z</time></trkpt><trkpt lat="41.85214799882669" lon="12.378894135778797"><ele>70.0</ele><time>2026-05-01T08:07:33.001Z</time></trkpt><trkpt lat="41.85209266321136" lon="12.378676882788428"><ele>70.0</ele><time>2026-05-01T08:07:34.001Z</time></trkpt><trkpt lat="41.85204236495112" lon="12.378471005856042"><ele>69.33333333333333</ele><time>2026-05-01T08:07:35.001Z</time></trkpt><trkpt lat="41.851994603467915" lon="12.378267133279312"><ele>68.66666666666667</ele><time>2026-05-01T08:07:36.001Z</time></trkpt><trkpt lat="41.851948984909065" lon="12.378058404526806"><ele>68.0</ele><time>2026-05-01T08:07:37.001Z</time></trkpt><trkpt lat="41.8519084821474" lon="12.377853509863968"><ele>68.0</ele><time>2026-05-01T08:07:38.001Z</time></trkpt><trkpt lat="41.851868029928795" lon="12.37764189368227"><ele>68.0</ele><time>2026-05-01T08:07:39.001Z</time></trkpt><trkpt lat="41.851830865277535" lon="12.377416778880733"><ele>68.0</ele><time>2026-05-01T08:07:40.001Z</time></trkpt><trkpt lat="41.85179475509665" lon="12.37717276783564"><ele>68.33333333333334</ele><time>2026-05-01T08:07:41.001Z</time></trkpt><trkpt lat="41.85177971563137" lon="12.376934558765418"><ele>68.66666666666667</ele><time>2026-05-01T08:07:42.001Z</time></trkpt><trkpt lat="41.851780398245324" lon="12.376700404091624"><ele>69.0</ele><time>2026-05-01T08:07:43.001Z</time></trkpt><trkpt lat="41.851783874591945" lon="12.376449129091421"><ele>68.0</ele><time>2026-05-01T08:07:44.001Z</time></trkpt><trkpt lat="41.85178030596039" lon="12.376169823563988"><ele>67.0</ele><time>2026-05-01T08:07:45.001Z</time></trkpt><trkpt lat="41.85177893304239" lon="12.375883861577215"><ele>66.0</ele><time>2026-05-01T08:07:46.001Z</time></trkpt><trkpt lat="41.85177789909492" lon="12.375591641985363"><ele>65.33333333333333</ele><time>2026-05-01T08:07:47.001Z</time></trkpt><trkpt lat="41.85178468916448" lon="12.375290143152771"><ele>64.66666666666666</ele><time>2026-05-01T08:07:48.001Z</time></trkpt><trkpt lat="41.85179541767889" lon="12.375034687351604"><ele>64.0</ele><time>2026-05-01T08:07:49.001Z</time></trkpt><trkpt lat="41.85179432369624" lon="12.374751692539744"><ele>64.33333333333333</ele><time>2026-05-01T08:07:50.001Z</time></trkpt><trkpt lat="41.85180311037692" lon="12.374468323662665"><ele>64.66666666666667</ele><time>2026-05-01T08:07:51.001Z</time></trkpt><trkpt lat="41.851804630702446" lon="12.374187006610706"><ele>65.0</ele><time>2026-05-01T08:07:52.001Z</time></trkpt><trkpt lat="41.851792129841996" lon="12.373917607405467"><ele>65.0</ele><time>2026-05-01T08:07:53.001Z</time></trkpt><trkpt lat="41.851761521353836" lon="12.373657878947567"><ele>65.0</ele><time>2026-05-01T08:07:54.001Z</time></trkpt><trkpt lat="41.85171229758107" lon="12.373404469941226"><ele>65.0</ele><time>2026-05-01T08:07:55.001Z</time></trkpt><trkpt lat="41.85163830921748" lon="12.37315557164631"><ele>64.0</ele><time>2026-05-01T08:07:56.001Z</time></trkpt><trkpt lat="41.85155159386222" lon="12.372913755391266"><ele>63.0</ele><time>2026-05-01T08:07:57.001Z</time></trkpt><trkpt lat="41.85146444241254" lon="12.372665823681906"><ele>62.0</ele><time>2026-05-01T08:07:58.001Z</time></trkpt><trkpt lat="41.851383690632304" lon="12.372411471058992"><ele>60.0</ele><time>2026-05-01T08:07:59.001Z</time></trkpt><trkpt lat="41.85132142486215" lon="12.37214712853073"><ele>58.0</ele><time>2026-05-01T08:08:00.001Z</time></trkpt><trkpt lat="41.85124438340103" lon="12.371889374712689"><ele>56.0</ele><time>2026-05-01T08:08:01.001Z</time></trkpt><trkpt lat="41.85116494868404" lon="12.371630242188782"><ele>56.0</ele><time>2026-05-01T08:08:02.001Z</time></trkpt><trkpt lat="41.85106835746213" lon="12.371387713379198"><ele>56.0</ele><time>2026-05-01T08:08:03.001Z</time></trkpt><trkpt lat="41.85098713248573" lon="12.371135062949316"><ele>56.0</ele><time>2026-05-01T08:08:04.001Z</time></trkpt><trkpt lat="41.85089766565424" lon="12.370880754243933"><ele>57.0</ele><time>2026-05-01T08:08:05.001Z</time></trkpt><trkpt lat="41.85079500162836" lon="12.370630100265025"><ele>58.0</ele><time>2026-05-01T08:08:06.001Z</time></trkpt><trkpt lat="41.850674350477206" lon="12.370390743461323"><ele>59.0</ele><time>2026-05-01T08:08:07.001Z</time></trkpt><trkpt lat="41.85055951637257" lon="12.370142053637887"><ele>59.0</ele><time>2026-05-01T08:08:08.001Z</time></trkpt><trkpt lat="41.850408524590435" lon="12.36987232761708"><ele>59.0</ele><time>2026-05-01T08:08:09.001Z</time></trkpt><trkpt lat="41.850311696902196" lon="12.369643297520604"><ele>59.0</ele><time>2026-05-01T08:08:10.001Z</time></trkpt><trkpt lat="41.85021121249862" lon="12.369376633697533"><ele>58.0</ele><time>2026-05-01T08:08:11.001Z</time></trkpt><trkpt lat="41.85013248204167" lon="12.36908740619206"><ele>57.0</ele><time>2026-05-01T08:08:12.001Z</time></trkpt><trkpt lat="41.850058007071034" lon="12.368795846200678"><ele>58.66666666666667</ele><time>2026-05-01T08:08:13.001Z</time></trkpt><trkpt lat="41.849983905482574" lon="12.36851389225287"><ele>60.333333333333336</ele><time>2026-05-01T08:08:14.001Z</time></trkpt><trkpt lat="41.84990936445023" lon="12.368256329308663"><ele>62.0</ele><time>2026-05-01T08:08:15.001Z</time></trkpt><trkpt lat="41.84983533477428" lon="12.367999194890654"><ele>62.66666666666667</ele><time>2026-05-01T08:08:16.001Z</time></trkpt><trkpt lat="41.84976872137805" lon="12.367724847433106"><ele>63.33333333333333</ele><time>2026-05-01T08:08:17.001Z</time></trkpt><trkpt lat="41.84970925739605" lon="12.367458585091853"><ele>64.0</ele><time>2026-05-01T08:08:18.001Z</time></trkpt><trkpt lat="41.84966622186049" lon="12.36719983909691"><ele>65.33333333333333</ele><time>2026-05-01T08:08:19.001Z</time></trkpt><trkpt lat="41.849659636147884" lon="12.366930066206555"><ele>66.66666666666667</ele><time>2026-05-01T08:08:20.001Z</time></trkpt><trkpt lat="41.84960311829272" lon="12.366670099243809"><ele>68.0</ele><time>2026-05-01T08:08:21.001Z</time></trkpt><trkpt lat="41.84955798046754" lon="12.366433666580113"><ele>67.33333333333334</ele><time>2026-05-01T08:08:22.001Z</time></trkpt><trkpt lat="41.84950066241652" lon="12.366188654287459"><ele>66.66666666666667</ele><time>2026-05-01T08:08:23.001Z</time></trkpt><trkpt lat="41.84944426867959" lon="12.365944462294921"><ele>66.0</ele><time>2026-05-01T08:08:24.001Z</time></trkpt><trkpt lat="41.84937600368636" lon="12.365703845549127"><ele>65.66666666666667</ele><time>2026-05-01T08:08:25.001Z</time></trkpt><trkpt lat="41.84930067902996" lon="12.365471039677779"><ele>65.33333333333334</ele><time>2026-05-01T08:08:26.001Z</time></trkpt><trkpt lat="41.84922097243701" lon="12.36524054911221"><ele>65.0</ele><time>2026-05-01T08:08:27.001Z</time></trkpt><trkpt lat="41.849139199908045" lon="12.365012105644466"><ele>64.33333333333334</ele><time>2026-05-01T08:08:28.001Z</time></trkpt><trkpt lat="41.849066117319076" lon="12.364786074861744"><ele>63.66666666666667</ele><time>2026-05-01T08:08:29.001Z</time></trkpt><trkpt lat="41.848991273801374" lon="12.364561406159673"><ele>63.0</ele><time>2026-05-01T08:08:30.001Z</time></trkpt><trkpt lat="41.84892175282505" lon="12.364336857766993"><ele>62.66666666666667</ele><time>2026-05-01T08:08:31.001Z</time></trkpt><trkpt lat="41.84885430152161" lon="12.364118432879804"><ele>62.333333333333336</ele><time>2026-05-01T08:08:32.001Z</time></trkpt><trkpt lat="41.84879008847871" lon="12.36391517002392"><ele>62.0</ele><time>2026-05-01T08:08:33.001Z</time></trkpt><trkpt lat="41.848726739758696" lon="12.363717621810563"><ele>61.66666666666667</ele><time>2026-05-01T08:08:34.001Z</time></trkpt><trkpt lat="41.84866773313857" lon="12.363517579358493"><ele>61.33333333333333</ele><time>2026-05-01T08:08:35.001Z</time></trkpt><trkpt lat="41.848607607200684" lon="12.36331272201358"><ele>61.0</ele><time>2026-05-01T08:08:36.001Z</time></trkpt><trkpt lat="41.84854720843465" lon="12.363118129127672"><ele>60.33333333333333</ele><time>2026-05-01T08:08:37.001Z</time></trkpt><trkpt lat="41.84847670099817" lon="12.362930866528012"><ele>59.66666666666667</ele><time>2026-05-01T08:08:38.001Z</time></trkpt><trkpt lat="41.84839594555026" lon="12.36274949584679"><ele>59.0</ele><time>2026-05-01T08:08:39.001Z</time></trkpt><trkpt lat="41.848299018812256" lon="12.362568291149213"><ele>59.0</ele><time>2026-05-01T08:08:40.001Z</time></trkpt><trkpt lat="41.8481937281341" lon="12.362391873763878"><ele>59.0</ele><time>2026-05-01T08:08:41.001Z</time></trkpt><trkpt lat="41.84808096768442" lon="12.36222017317495"><ele>59.0</ele><time>2026-05-01T08:08:42.001Z</time></trkpt><trkpt lat="41.847969355442906" lon="12.36204217594992"><ele>59.0</ele><time>2026-05-01T08:08:43.001Z</time></trkpt><trkpt lat="41.847857153038824" lon="12.361857849701519"><ele>59.0</ele><time>2026-05-01T08:08:44.001Z</time></trkpt><trkpt lat="41.84774446798588" lon="12.361673061253052"><ele>59.0</ele><time>2026-05-01T08:08:45.001Z</time></trkpt><trkpt lat="41.847631361206425" lon="12.361491382399928"><ele>57.66666666666667</ele><time>2026-05-01T08:08:46.001Z</time></trkpt><trkpt lat="41.8475155905384" lon="12.361310100145667"><ele>56.33333333333333</ele><time>2026-05-01T08:08:47.001Z</time></trkpt><trkpt lat="41.84738968527521" lon="12.361136463820632"><ele>55.0</ele><time>2026-05-01T08:08:48.001Z</time></trkpt><trkpt lat="41.847246781849265" lon="12.360984334392077"><ele>55.0</ele><time>2026-05-01T08:08:49.001Z</time></trkpt><trkpt lat="41.84709133954042" lon="12.36084385961517"><ele>55.0</ele><time>2026-05-01T08:08:50.002Z</time></trkpt><trkpt lat="41.84693268118971" lon="12.360708412477525"><ele>55.0</ele><time>2026-05-01T08:08:51.002Z</time></trkpt><trkpt lat="41.84676571157806" lon="12.360578181982074"><ele>55.33333333333333</ele><time>2026-05-01T08:08:52.002Z</time></trkpt><trkpt lat="41.8466286552398" lon="12.360412438477976"><ele>55.66666666666667</ele><time>2026-05-01T08:08:53.002Z</time></trkpt><trkpt lat="41.84647585026541" lon="12.360283771371483"><ele>56.0</ele><time>2026-05-01T08:08:54.002Z</time></trkpt><trkpt lat="41.84633727516226" lon="12.360150186649271"><ele>56.0</ele><time>2026-05-01T08:08:55.002Z</time></trkpt><trkpt lat="41.846190285572376" lon="12.360041191658505"><ele>56.0</ele><time>2026-05-01T08:08:56.002Z</time></trkpt><trkpt lat="41.84605075225676" lon="12.359914500613614"><ele>56.0</ele><time>2026-05-01T08:08:57.002Z</time></trkpt><trkpt lat="41.84590573562614" lon="12.35979955261542"><ele>55.0</ele><time>2026-05-01T08:08:58.002Z</time></trkpt><trkpt lat="41.84578565135926" lon="12.35965696338603"><ele>54.0</ele><time>2026-05-01T08:08:59.002Z</time></trkpt><trkpt lat="41.84566323240509" lon="12.35949679250042"><ele>53.0</ele><time>2026-05-01T08:09:00.002Z</time></trkpt><trkpt lat="41.84556913509694" lon="12.359296405984873"><ele>53.0</ele><time>2026-05-01T08:09:01.002Z</time></trkpt><trkpt lat="41.84548079430712" lon="12.359086291913504"><ele>53.0</ele><time>2026-05-01T08:09:02.002Z</time></trkpt><trkpt lat="41.84539817004355" lon="12.358875312155547"><ele>53.0</ele><time>2026-05-01T08:09:03.002Z</time></trkpt><trkpt lat="41.84531304936959" lon="12.358666350693554"><ele>54.66666666666667</ele><time>2026-05-01T08:09:04.002Z</time></trkpt><trkpt lat="41.8452281066162" lon="12.358460395333521"><ele>56.33333333333333</ele><time>2026-05-01T08:09:05.002Z</time></trkpt><trkpt lat="41.84515076844935" lon="12.358271429268727"><ele>58.0</ele><time>2026-05-01T08:09:06.002Z</time></trkpt><trkpt lat="41.84508041616431" lon="12.358091469183057"><ele>59.33333333333333</ele><time>2026-05-01T08:09:07.002Z</time></trkpt><trkpt lat="41.845012726532204" lon="12.35791152265009"><ele>60.66666666666667</ele><time>2026-05-01T08:09:08.002Z</time></trkpt><trkpt lat="41.84495469009805" lon="12.357720925073808"><ele>62.0</ele><time>2026-05-01T08:09:09.002Z</time></trkpt><trkpt lat="41.84490330576271" lon="12.357526957471393"><ele>62.0</ele><time>2026-05-01T08:09:10.002Z</time></trkpt><trkpt lat="41.84484999275185" lon="12.357327258780767"><ele>62.0</ele><time>2026-05-01T08:09:11.002Z</time></trkpt><trkpt lat="41.84479417118104" lon="12.357127240462333"><ele>62.0</ele><time>2026-05-01T08:09:12.002Z</time></trkpt><trkpt lat="41.8447381873731" lon="12.356923181742427"><ele>61.333333333333336</ele><time>2026-05-01T08:09:13.002Z</time></trkpt><trkpt lat="41.84468185147528" lon="12.356717209166938"><ele>60.66666666666667</ele><time>2026-05-01T08:09:14.002Z</time></trkpt><trkpt lat="41.844628538650525" lon="12.356516801533418"><ele>60.0</ele><time>2026-05-01T08:09:15.002Z</time></trkpt><trkpt lat="41.84457594908204" lon="12.356323572409403"><ele>58.5</ele><time>2026-05-01T08:09:16.002Z</time></trkpt><trkpt lat="41.844522645967935" lon="12.35614218230002"><ele>57.0</ele><time>2026-05-01T08:09:17.002Z</time></trkpt><trkpt lat="41.844483765406494" lon="12.355962018461321"><ele>55.5</ele><time>2026-05-01T08:09:18.002Z</time></trkpt><trkpt lat="41.844445672994944" lon="12.355781998075196"><ele>54.0</ele><time>2026-05-01T08:09:19.002Z</time></trkpt><trkpt lat="41.84440458513498" lon="12.355605599647602"><ele>53.25</ele><time>2026-05-01T08:09:20.002Z</time></trkpt><trkpt lat="41.8443854592723" lon="12.355422107413057"><ele>52.5</ele><time>2026-05-01T08:09:21.002Z</time></trkpt><trkpt lat="41.84435436493169" lon="12.355230548815184"><ele>51.75</ele><time>2026-05-01T08:09:22.002Z</time></trkpt><trkpt lat="41.844329370699995" lon="12.35502472650906"><ele>51.0</ele><time>2026-05-01T08:09:23.002Z</time></trkpt><trkpt lat="41.84429306727226" lon="12.354807674396909"><ele>53.33333333333333</ele><time>2026-05-01T08:09:24.002Z</time></trkpt><trkpt lat="41.84427883558941" lon="12.354567956725772"><ele>55.666666666666664</ele><time>2026-05-01T08:09:25.002Z</time></trkpt><trkpt lat="41.84428062226651" lon="12.354311608881996"><ele>58.0</ele><time>2026-05-01T08:09:26.002Z</time></trkpt><trkpt lat="41.84429627589496" lon="12.354047558306428"><ele>58.666666666666664</ele><time>2026-05-01T08:09:27.002Z</time></trkpt><trkpt lat="41.844317531095285" lon="12.353782345065408"><ele>59.33333333333333</ele><time>2026-05-01T08:09:28.002Z</time></trkpt><trkpt lat="41.84434319227511" lon="12.353527993098803"><ele>60.0</ele><time>2026-05-01T08:09:29.002Z</time></trkpt><trkpt lat="41.844380306063854" lon="12.35328275547943"><ele>60.0</ele><time>2026-05-01T08:09:30.002Z</time></trkpt><trkpt lat="41.84444029280178" lon="12.353041688863824"><ele>60.0</ele><time>2026-05-01T08:09:31.001Z</time></trkpt><trkpt lat="41.844509282252666" lon="12.35280486374668"><ele>60.0</ele><time>2026-05-01T08:09:32.001Z</time></trkpt><trkpt lat="41.844581565135165" lon="12.352572641113381"><ele>60.0</ele><time>2026-05-01T08:09:33.001Z</time></trkpt><trkpt lat="41.84465528642941" lon="12.352348002359427"><ele>60.0</ele><time>2026-05-01T08:09:34.001Z</time></trkpt><trkpt lat="41.84473206572584" lon="12.352098417595126"><ele>60.0</ele><time>2026-05-01T08:09:35.001Z</time></trkpt><trkpt lat="41.84481494520532" lon="12.35185135201937"><ele>60.0</ele><time>2026-05-01T08:09:36.001Z</time></trkpt><trkpt lat="41.84489118833175" lon="12.351600997120164"><ele>60.0</ele><time>2026-05-01T08:09:37.001Z</time></trkpt><trkpt lat="41.844967720823206" lon="12.351347621608562"><ele>60.0</ele><time>2026-05-01T08:09:38.001Z</time></trkpt><trkpt lat="41.84504812236544" lon="12.351096391258165"><ele>60.0</ele><time>2026-05-01T08:09:39.001Z</time></trkpt><trkpt lat="41.84512743680201" lon="12.350843970226896"><ele>60.0</ele><time>2026-05-01T08:09:40.001Z</time></trkpt><trkpt lat="41.84520701173468" lon="12.350590090574805"><ele>60.0</ele><time>2026-05-01T08:09:41.001Z</time></trkpt><trkpt lat="41.84528008300001" lon="12.35033555574029"><ele>59.0</ele><time>2026-05-01T08:09:42.001Z</time></trkpt><trkpt lat="41.84535538098136" lon="12.350081988349544"><ele>58.0</ele><time>2026-05-01T08:09:43.001Z</time></trkpt><trkpt lat="41.845453785223" lon="12.349835975017395"><ele>57.0</ele><time>2026-05-01T08:09:44.001Z</time></trkpt><trkpt lat="41.84553344216547" lon="12.349574220788298"><ele>57.0</ele><time>2026-05-01T08:09:45.001Z</time></trkpt><trkpt lat="41.84563300636567" lon="12.349322881929025"><ele>57.0</ele><time>2026-05-01T08:09:46.001Z</time></trkpt><trkpt lat="41.845728238421195" lon="12.349070124254728"><ele>57.0</ele><time>2026-05-01T08:09:47.001Z</time></trkpt><trkpt lat="41.84582225808494" lon="12.348818341434887"><ele>57.33333333333333</ele><time>2026-05-01T08:09:48.001Z</time></trkpt><trkpt lat="41.845912656343415" lon="12.348569482270918"><ele>57.666666666666664</ele><time>2026-05-01T08:09:49.001Z</time></trkpt><trkpt lat="41.84599997431332" lon="12.348328133109579"><ele>58.0</ele><time>2026-05-01T08:09:50.001Z</time></trkpt><trkpt lat="41.84610264620823" lon="12.348092591808928"><ele>57.33333333333333</ele><time>2026-05-01T08:09:51.001Z</time></trkpt><trkpt lat="41.846193318193656" lon="12.347854482068284"><ele>56.66666666666667</ele><time>2026-05-01T08:09:52.001Z</time></trkpt><trkpt lat="41.846283533290396" lon="12.347613876722855"><ele>56.0</ele><time>2026-05-01T08:09:53.001Z</time></trkpt><trkpt lat="41.84636042103839" lon="12.347353177801983"><ele>55.66666666666667</ele><time>2026-05-01T08:09:54.001Z</time></trkpt><trkpt lat="41.84644352778565" lon="12.347113820514773"><ele>55.33333333333333</ele><time>2026-05-01T08:09:55.001Z</time></trkpt><trkpt lat="41.84654156836042" lon="12.346875535745163"><ele>55.0</ele><time>2026-05-01T08:09:56.001Z</time></trkpt><trkpt lat="41.84660983904637" lon="12.346658570395704"><ele>55.0</ele><time>2026-05-01T08:09:57.001Z</time></trkpt><trkpt lat="41.846672142523865" lon="12.34644407346768"><ele>55.0</ele><time>2026-05-01T08:09:58.001Z</time></trkpt><trkpt lat="41.846729271389115" lon="12.346225485071"><ele>55.0</ele><time>2026-05-01T08:09:59.001Z</time></trkpt><trkpt lat="41.84677608455597" lon="12.346019487233338"><ele>54.666666666666664</ele><time>2026-05-01T08:10:00.001Z</time></trkpt><trkpt lat="41.84680853392375" lon="12.345812307161852"><ele>54.33333333333333</ele><time>2026-05-01T08:10:01.001Z</time></trkpt><trkpt lat="41.84682372338629" lon="12.34560274243599"><ele>54.0</ele><time>2026-05-01T08:10:02.001Z</time></trkpt><trkpt lat="41.84682874447517" lon="12.345403368383169"><ele>54.400000000000006</ele><time>2026-05-01T08:10:03.001Z</time></trkpt><trkpt lat="41.84682490333538" lon="12.345220060984914"><ele>54.800000000000004</ele><time>2026-05-01T08:10:04.001Z</time></trkpt><trkpt lat="41.84681947622426" lon="12.345070815278763"><ele>55.199999999999996</ele><time>2026-05-01T08:10:05.001Z</time></trkpt><trkpt lat="41.846814456411224" lon="12.344944090400192"><ele>55.599999999999994</ele><time>2026-05-01T08:10:06.001Z</time></trkpt><trkpt lat="41.84680826429672" lon="12.344814423240305"><ele>56.0</ele><time>2026-05-01T08:10:07.001Z</time></trkpt><trkpt lat="41.84680022499521" lon="12.344688346227446"><ele>54.8</ele><time>2026-05-01T08:10:08.001Z</time></trkpt><trkpt lat="41.84677651277365" lon="12.344548271214736"><ele>53.599999999999994</ele><time>2026-05-01T08:10:09.001Z</time></trkpt><trkpt lat="41.84678547521035" lon="12.344394854837292"><ele>52.4</ele><time>2026-05-01T08:10:10.001Z</time></trkpt><trkpt lat="41.846746193620454" lon="12.34425342263484"><ele>51.2</ele><time>2026-05-01T08:10:11.001Z</time></trkpt><trkpt lat="41.84670040006333" lon="12.344117353201737"><ele>50.0</ele><time>2026-05-01T08:10:12.001Z</time></trkpt><trkpt lat="41.84666002640443" lon="12.343973428059195"><ele>50.0</ele><time>2026-05-01T08:10:13.001Z</time></trkpt><trkpt lat="41.846587897380616" lon="12.343846947597173"><ele>50.0</ele><time>2026-05-01T08:10:14.001Z</time></trkpt><trkpt lat="41.8465204887457" lon="12.343704142086391"><ele>50.0</ele><time>2026-05-01T08:10:15.001Z</time></trkpt><trkpt lat="41.84644460682483" lon="12.34359544333079"><ele>50.0</ele><time>2026-05-01T08:10:16.001Z</time></trkpt><trkpt lat="41.846323280751264" lon="12.343501452335966"><ele>50.0</ele><time>2026-05-01T08:10:17.001Z</time></trkpt><trkpt lat="41.846215031301334" lon="12.343379502401735"><ele>50.0</ele><time>2026-05-01T08:10:18.001Z</time></trkpt><trkpt lat="41.8461010360332" lon="12.34328646030044"><ele>50.0</ele><time>2026-05-01T08:10:19.001Z</time></trkpt><trkpt lat="41.84597067726991" lon="12.343209837265224"><ele>50.0</ele><time>2026-05-01T08:10:20.001Z</time></trkpt><trkpt lat="41.84585497581844" lon="12.343108402062766"><ele>48.25</ele><time>2026-05-01T08:10:21.001Z</time></trkpt><trkpt lat="41.84572876693352" lon="12.342984757182048"><ele>46.5</ele><time>2026-05-01T08:10:22.001Z</time></trkpt><trkpt lat="41.84561320504299" lon="12.342915057819395"><ele>44.75</ele><time>2026-05-01T08:10:23.001Z</time></trkpt><trkpt lat="41.84549505713016" lon="12.342798947082985"><ele>43.0</ele><time>2026-05-01T08:10:24.001Z</time></trkpt><trkpt lat="41.84538030425865" lon="12.342659226724475"><ele>43.0</ele><time>2026-05-01T08:10:25.001Z</time></trkpt><trkpt lat="41.84528622156024" lon="12.342501115224188"><ele>43.0</ele><time>2026-05-01T08:10:26.001Z</time></trkpt><trkpt lat="41.845198591962216" lon="12.34232357466645"><ele>43.0</ele><time>2026-05-01T08:10:27.001Z</time></trkpt><trkpt lat="41.84510066747128" lon="12.342124555035582"><ele>39.333333333333336</ele><time>2026-05-01T08:10:28.001Z</time></trkpt><trkpt lat="41.84500262576853" lon="12.341937344070622"><ele>35.666666666666664</ele><time>2026-05-01T08:10:29.001Z</time></trkpt><trkpt lat="41.844893199620735" lon="12.341752045948867"><ele>32.0</ele><time>2026-05-01T08:10:30.001Z</time></trkpt><trkpt lat="41.84477232739605" lon="12.34156909741532"><ele>32.0</ele><time>2026-05-01T08:10:31.001Z</time></trkpt><trkpt lat="41.84465268677342" lon="12.341393873218582"><ele>32.0</ele><time>2026-05-01T08:10:32.001Z</time></trkpt><trkpt lat="41.844534449050755" lon="12.341236079577454"><ele>32.0</ele><time>2026-05-01T08:10:33.001Z</time></trkpt><trkpt lat="41.84441023093138" lon="12.341085903313596"><ele>30.333333333333332</ele><time>2026-05-01T08:10:34.001Z</time></trkpt><trkpt lat="41.844280774252184" lon="12.340957234564009"><ele>28.666666666666664</ele><time>2026-05-01T08:10:35.001Z</time></trkpt><trkpt lat="41.84414569218413" lon="12.34081355345615"><ele>27.0</ele><time>2026-05-01T08:10:36.001Z</time></trkpt><trkpt lat="41.84401025044883" lon="12.34067874799465"><ele>31.333333333333336</ele><time>2026-05-01T08:10:37.001Z</time></trkpt><trkpt lat="41.843870772774444" lon="12.340537983410119"><ele>35.66666666666667</ele><time>2026-05-01T08:10:38.001Z</time></trkpt><trkpt lat="41.84372867396806" lon="12.340397106456914"><ele>40.0</ele><time>2026-05-01T08:10:39.001Z</time></trkpt><trkpt lat="41.84358475579018" lon="12.340261269520589"><ele>35.66666666666667</ele><time>2026-05-01T08:10:40.001Z</time></trkpt><trkpt lat="41.84344092674193" lon="12.340123449816312"><ele>31.333333333333336</ele><time>2026-05-01T08:10:41.001Z</time></trkpt><trkpt lat="41.84329661707626" lon="12.33997796710439"><ele>27.0</ele><time>2026-05-01T08:10:42.001Z</time></trkpt><trkpt lat="41.8431777931496" lon="12.339806990737674"><ele>29.333333333333336</ele><time>2026-05-01T08:10:43.001Z</time></trkpt><trkpt lat="41.84306266297394" lon="12.339649559607833"><ele>31.666666666666668</ele><time>2026-05-01T08:10:44.001Z</time></trkpt><trkpt lat="41.8429724121549" lon="12.339477086288158"><ele>34.0</ele><time>2026-05-01T08:10:45.001Z</time></trkpt><trkpt lat="41.84283479764476" lon="12.339092800225066"><ele>34.0</ele><time>2026-05-01T08:10:47.001Z</time></trkpt><trkpt lat="41.84279826556903" lon="12.338899503795774"><ele>34.0</ele><time>2026-05-01T08:10:48.001Z</time></trkpt><trkpt lat="41.84277143442001" lon="12.338713685522947"><ele>34.0</ele><time>2026-05-01T08:10:49.001Z</time></trkpt><trkpt lat="41.84273138298679" lon="12.338515816370245"><ele>34.0</ele><time>2026-05-01T08:10:50.001Z</time></trkpt><trkpt lat="41.84269643103554" lon="12.338323988587305"><ele>33.0</ele><time>2026-05-01T08:10:51.001Z</time></trkpt><trkpt lat="41.842669060450994" lon="12.33811944897707"><ele>32.0</ele><time>2026-05-01T08:10:52.001Z</time></trkpt><trkpt lat="41.84265163565284" lon="12.33792051955629"><ele>31.0</ele><time>2026-05-01T08:10:53.001Z</time></trkpt><trkpt lat="41.84264416139353" lon="12.337713465910902"><ele>28.666666666666668</ele><time>2026-05-01T08:10:54.001Z</time></trkpt><trkpt lat="41.842646880023565" lon="12.33749594162881"><ele>26.333333333333336</ele><time>2026-05-01T08:10:55.001Z</time></trkpt><trkpt lat="41.84265664715458" lon="12.337291454111355"><ele>24.0</ele><time>2026-05-01T08:10:56.001Z</time></trkpt><trkpt lat="41.842664821356365" lon="12.337099141198365"><ele>24.0</ele><time>2026-05-01T08:10:57.001Z</time></trkpt><trkpt lat="41.84266824827104" lon="12.336912203560464"><ele>24.0</ele><time>2026-05-01T08:10:58.001Z</time></trkpt><trkpt lat="41.84267166191173" lon="12.336744160103448"><ele>24.0</ele><time>2026-05-01T08:10:59.001Z</time></trkpt><trkpt lat="41.84266315905092" lon="12.33658746317419"><ele>24.0</ele><time>2026-05-01T08:11:00.001Z</time></trkpt><trkpt lat="41.84266863161872" lon="12.336431375523262"><ele>23.799999999999997</ele><time>2026-05-01T08:11:01.001Z</time></trkpt><trkpt lat="41.84267402480958" lon="12.336269881477685"><ele>23.599999999999998</ele><time>2026-05-01T08:11:02.001Z</time></trkpt><trkpt lat="41.84267621649449" lon="12.336118017324699"><ele>23.4</ele><time>2026-05-01T08:11:03.001Z</time></trkpt><trkpt lat="41.84267958612569" lon="12.335964523636415"><ele>23.2</ele><time>2026-05-01T08:11:04.002Z</time></trkpt><trkpt lat="41.842688895399576" lon="12.335830615589009"><ele>23.0</ele><time>2026-05-01T08:11:05.002Z</time></trkpt><trkpt lat="41.842693953173104" lon="12.335724613228077"><ele>23.0</ele><time>2026-05-01T08:11:06.002Z</time></trkpt><trkpt lat="41.84272359509355" lon="12.3356088747788"><ele>23.0</ele><time>2026-05-01T08:11:08.002Z</time></trkpt><trkpt lat="41.84278451654649" lon="12.335509885376794"><ele>23.0</ele><time>2026-05-01T08:11:10.002Z</time></trkpt><trkpt lat="41.84291864054262" lon="12.335438353461676"><ele>23.0</ele><time>2026-05-01T08:11:12.002Z</time></trkpt><trkpt lat="41.843013138964345" lon="12.33539759172686"><ele>23.0</ele><time>2026-05-01T08:11:13.002Z</time></trkpt><trkpt lat="41.84310788957492" lon="12.33535203062717"><ele>21.5</ele><time>2026-05-01T08:11:14.002Z</time></trkpt><trkpt lat="41.84322082014189" lon="12.33531026771597"><ele>20.0</ele><time>2026-05-01T08:11:15.002Z</time></trkpt><trkpt lat="41.8433387379496" lon="12.335259215118471"><ele>18.5</ele><time>2026-05-01T08:11:16.002Z</time></trkpt><trkpt lat="41.84346975125031" lon="12.335203011400274"><ele>17.0</ele><time>2026-05-01T08:11:17.002Z</time></trkpt><trkpt lat="41.84360050037044" lon="12.335134137331838"><ele>17.0</ele><time>2026-05-01T08:11:18.002Z</time></trkpt><trkpt lat="41.843745906437725" lon="12.3350607630067"><ele>17.0</ele><time>2026-05-01T08:11:19.002Z</time></trkpt><trkpt lat="41.84389583994736" lon="12.334983130437681"><ele>17.0</ele><time>2026-05-01T08:11:20.002Z</time></trkpt><trkpt lat="41.844053969129064" lon="12.334898755291547"><ele>17.0</ele><time>2026-05-01T08:11:21.002Z</time></trkpt><trkpt lat="41.8442248046022" lon="12.334822465966505"><ele>17.0</ele><time>2026-05-01T08:11:22.002Z</time></trkpt><trkpt lat="41.8443892418204" lon="12.334739795298432"><ele>17.0</ele><time>2026-05-01T08:11:23.002Z</time></trkpt><trkpt lat="41.844550605993206" lon="12.334633161440701"><ele>15.666666666666668</ele><time>2026-05-01T08:11:24.002Z</time></trkpt><trkpt lat="41.84470854027985" lon="12.334536494402274"><ele>14.333333333333332</ele><time>2026-05-01T08:11:25.002Z</time></trkpt><trkpt lat="41.84486982141426" lon="12.334430807279876"><ele>13.0</ele><time>2026-05-01T08:11:26.002Z</time></trkpt><trkpt lat="41.845036470071236" lon="12.334326520062703"><ele>14.0</ele><time>2026-05-01T08:11:27.002Z</time></trkpt><trkpt lat="41.84520104211109" lon="12.334232726332207"><ele>15.0</ele><time>2026-05-01T08:11:28.002Z</time></trkpt><trkpt lat="41.84536135660251" lon="12.334134215788842"><ele>16.0</ele><time>2026-05-01T08:11:29.002Z</time></trkpt><trkpt lat="41.845521585691095" lon="12.334033301915118"><ele>16.0</ele><time>2026-05-01T08:11:30.002Z</time></trkpt><trkpt lat="41.84568167818185" lon="12.333935908531407"><ele>16.0</ele><time>2026-05-01T08:11:31.002Z</time></trkpt><trkpt lat="41.84584021262015" lon="12.333837848724492"><ele>16.0</ele><time>2026-05-01T08:11:32.002Z</time></trkpt><trkpt lat="41.84599240200046" lon="12.333740604270673"><ele>15.666666666666666</ele><time>2026-05-01T08:11:33.002Z</time></trkpt><trkpt lat="41.84614665577207" lon="12.333646349724106"><ele>15.333333333333332</ele><time>2026-05-01T08:11:34.002Z</time></trkpt><trkpt lat="41.846300522338026" lon="12.333551019867816"><ele>15.0</ele><time>2026-05-01T08:11:35.002Z</time></trkpt><trkpt lat="41.846453966356606" lon="12.333454137408633"><ele>15.0</ele><time>2026-05-01T08:11:36.002Z</time></trkpt><trkpt lat="41.8466072254826" lon="12.333354034610135"><ele>15.0</ele><time>2026-05-01T08:11:37.001Z</time></trkpt><trkpt lat="41.846759577899256" lon="12.333249038267866"><ele>15.0</ele><time>2026-05-01T08:11:38.001Z</time></trkpt><trkpt lat="41.8469144472183" lon="12.333138290818164"><ele>14.333333333333332</ele><time>2026-05-01T08:11:39.001Z</time></trkpt><trkpt lat="41.847065570077255" lon="12.333035077046116"><ele>13.666666666666666</ele><time>2026-05-01T08:11:40.001Z</time></trkpt><trkpt lat="41.84720720645192" lon="12.332924920147086"><ele>13.0</ele><time>2026-05-01T08:11:41.001Z</time></trkpt><trkpt lat="41.847336809886365" lon="12.332812671440458"><ele>13.0</ele><time>2026-05-01T08:11:42.001Z</time></trkpt><trkpt lat="41.847462444793535" lon="12.332709404948417"><ele>13.0</ele><time>2026-05-01T08:11:43Z</time></trkpt><trkpt lat="41.847592156364136" lon="12.332605088009691"><ele>13.0</ele><time>2026-05-01T08:11:44Z</time></trkpt><trkpt lat="41.84774261229343" lon="12.332495537925617"><ele>13.333333333333332</ele><time>2026-05-01T08:11:45Z</time></trkpt><trkpt lat="41.847884217925476" lon="12.33239345191093"><ele>13.666666666666668</ele><time>2026-05-01T08:11:46Z</time></trkpt><trkpt lat="41.84803300127515" lon="12.332289853427769"><ele>14.0</ele><time>2026-05-01T08:11:47Z</time></trkpt><trkpt lat="41.84817042176932" lon="12.33218259992044"><ele>14.0</ele><time>2026-05-01T08:11:48Z</time></trkpt><trkpt lat="41.848321933035955" lon="12.332064404124452"><ele>14.0</ele><time>2026-05-01T08:11:49Z</time></trkpt><trkpt lat="41.84846751394484" lon="12.33195223875439"><ele>14.0</ele><time>2026-05-01T08:11:50Z</time></trkpt><trkpt lat="41.84861864039535" lon="12.331839510880254"><ele>14.666666666666668</ele><time>2026-05-01T08:11:51Z</time></trkpt><trkpt lat="41.848774277616265" lon="12.331708541545694"><ele>15.333333333333332</ele><time>2026-05-01T08:11:52Z</time></trkpt><trkpt lat="41.84892904122576" lon="12.331585503541977"><ele>16.0</ele><time>2026-05-01T08:11:53Z</time></trkpt><trkpt lat="41.849087179577474" lon="12.331462675008359"><ele>15.666666666666666</ele><time>2026-05-01T08:11:54Z</time></trkpt><trkpt lat="41.84924789738196" lon="12.331326190725136"><ele>15.333333333333332</ele><time>2026-05-01T08:11:55Z</time></trkpt><trkpt lat="41.84940566735417" lon="12.331206584913947"><ele>15.0</ele><time>2026-05-01T08:11:56Z</time></trkpt><trkpt lat="41.8495640027666" lon="12.331085672380503"><ele>16.0</ele><time>2026-05-01T08:11:57Z</time></trkpt><trkpt lat="41.849726928886405" lon="12.330958746632891"><ele>17.0</ele><time>2026-05-01T08:11:58Z</time></trkpt><trkpt lat="41.84989396222157" lon="12.33082342496251"><ele>18.0</ele><time>2026-05-01T08:11:59Z</time></trkpt><trkpt lat="41.85006264522603" lon="12.330695465268665"><ele>18.333333333333332</ele><time>2026-05-01T08:12:00Z</time></trkpt><trkpt lat="41.850229703635954" lon="12.330563226950026"><ele>18.666666666666664</ele><time>2026-05-01T08:12:01Z</time></trkpt><trkpt lat="41.85039506028092" lon="12.330437732470049"><ele>19.0</ele><time>2026-05-01T08:12:02Z</time></trkpt><trkpt lat="41.85055929904769" lon="12.33031825449678"><ele>19.0</ele><time>2026-05-01T08:12:03Z</time></trkpt><trkpt lat="41.85072471026451" lon="12.330188407195978"><ele>19.0</ele><time>2026-05-01T08:12:04Z</time></trkpt><trkpt lat="41.85089341399881" lon="12.330061753504172"><ele>19.0</ele><time>2026-05-01T08:12:05.001Z</time></trkpt><trkpt lat="41.8510626354194" lon="12.329926595213188"><ele>19.0</ele><time>2026-05-01T08:12:06.001Z</time></trkpt><trkpt lat="41.8512258612831" lon="12.329800409419367"><ele>19.0</ele><time>2026-05-01T08:12:07.001Z</time></trkpt><trkpt lat="41.85139659720642" lon="12.329672307366746"><ele>19.0</ele><time>2026-05-01T08:12:08.001Z</time></trkpt><trkpt lat="41.85157010122107" lon="12.329546874599716"><ele>18.0</ele><time>2026-05-01T08:12:09.001Z</time></trkpt><trkpt lat="41.85172790399931" lon="12.329426149894305"><ele>17.0</ele><time>2026-05-01T08:12:10.001Z</time></trkpt><trkpt lat="41.851889740444086" lon="12.329302183075017"><ele>16.0</ele><time>2026-05-01T08:12:11.001Z</time></trkpt><trkpt lat="41.85205601576104" lon="12.329169925790366"><ele>16.0</ele><time>2026-05-01T08:12:12.001Z</time></trkpt><trkpt lat="41.852216331540454" lon="12.329044451005169"><ele>16.0</ele><time>2026-05-01T08:12:13.001Z</time></trkpt><trkpt lat="41.852374381789126" lon="12.328924116707306"><ele>16.0</ele><time>2026-05-01T08:12:14.001Z</time></trkpt><trkpt lat="41.852521560394244" lon="12.328814364264394"><ele>15.666666666666666</ele><time>2026-05-01T08:12:15.001Z</time></trkpt><trkpt lat="41.85267170996004" lon="12.328698204895748"><ele>15.333333333333332</ele><time>2026-05-01T08:12:16.001Z</time></trkpt><trkpt lat="41.8528054460811" lon="12.328591508393075"><ele>15.0</ele><time>2026-05-01T08:12:17.001Z</time></trkpt><trkpt lat="41.852960918406254" lon="12.328490514587251"><ele>15.0</ele><time>2026-05-01T08:12:18.001Z</time></trkpt><trkpt lat="41.853098923449615" lon="12.328360620127958"><ele>15.0</ele><time>2026-05-01T08:12:19.001Z</time></trkpt><trkpt lat="41.853245386106295" lon="12.328252044371931"><ele>15.0</ele><time>2026-05-01T08:12:20.001Z</time></trkpt><trkpt lat="41.85339220974872" lon="12.328144361769821"><ele>15.0</ele><time>2026-05-01T08:12:21.001Z</time></trkpt><trkpt lat="41.85354983112269" lon="12.328040694707482"><ele>15.0</ele><time>2026-05-01T08:12:22.001Z</time></trkpt><trkpt lat="41.85368809313547" lon="12.327934361433961"><ele>15.0</ele><time>2026-05-01T08:12:23.001Z</time></trkpt><trkpt lat="41.85383925242172" lon="12.327817905977867"><ele>15.0</ele><time>2026-05-01T08:12:24.001Z</time></trkpt><trkpt lat="41.85401060025426" lon="12.327685896882876"><ele>15.0</ele><time>2026-05-01T08:12:25.001Z</time></trkpt><trkpt lat="41.85418425098652" lon="12.327552113626565"><ele>15.0</ele><time>2026-05-01T08:12:26.001Z</time></trkpt><trkpt lat="41.85436083448936" lon="12.32741607086528"><ele>16.333333333333332</ele><time>2026-05-01T08:12:27.001Z</time></trkpt><trkpt lat="41.854534995582476" lon="12.327257004679652"><ele>17.666666666666664</ele><time>2026-05-01T08:12:28.001Z</time></trkpt><trkpt lat="41.85471948552569" lon="12.327117594206136"><ele>19.0</ele><time>2026-05-01T08:12:29.001Z</time></trkpt><trkpt lat="41.85489882205916" lon="12.326987107034796"><ele>19.333333333333332</ele><time>2026-05-01T08:12:30.001Z</time></trkpt><trkpt lat="41.855075480334" lon="12.326857220910908"><ele>19.666666666666668</ele><time>2026-05-01T08:12:31.001Z</time></trkpt><trkpt lat="41.8552382127971" lon="12.326748841913654"><ele>20.0</ele><time>2026-05-01T08:12:32.001Z</time></trkpt><trkpt lat="41.85540044183769" lon="12.326639421106655"><ele>20.333333333333336</ele><time>2026-05-01T08:12:33.001Z</time></trkpt><trkpt lat="41.85556669010209" lon="12.326552088038758"><ele>20.666666666666668</ele><time>2026-05-01T08:12:34.001Z</time></trkpt><trkpt lat="41.85573465410905" lon="12.32648851503844"><ele>21.0</ele><time>2026-05-01T08:12:35.001Z</time></trkpt><trkpt lat="41.855900349164784" lon="12.32644237406838"><ele>23.333333333333336</ele><time>2026-05-01T08:12:36.001Z</time></trkpt><trkpt lat="41.85607431032118" lon="12.326402635634935"><ele>25.666666666666668</ele><time>2026-05-01T08:12:37.001Z</time></trkpt><trkpt lat="41.856236089063394" lon="12.326413822222635"><ele>28.0</ele><time>2026-05-01T08:12:38.001Z</time></trkpt><trkpt lat="41.856401934555784" lon="12.326411393418711"><ele>28.0</ele><time>2026-05-01T08:12:39.001Z</time></trkpt><trkpt lat="41.85656316018811" lon="12.326420941618522"><ele>28.0</ele><time>2026-05-01T08:12:40.001Z</time></trkpt><trkpt lat="41.85671363890608" lon="12.326414452628134"><ele>28.0</ele><time>2026-05-01T08:12:41.001Z</time></trkpt><trkpt lat="41.856848377226484" lon="12.326449634140285"><ele>28.0</ele><time>2026-05-01T08:12:42.001Z</time></trkpt><trkpt lat="41.85697894422052" lon="12.326442313701559"><ele>28.166666666666668</ele><time>2026-05-01T08:12:43.001Z</time></trkpt><trkpt lat="41.85709788431867" lon="12.326456613671228"><ele>28.333333333333336</ele><time>2026-05-01T08:12:44.001Z</time></trkpt><trkpt lat="41.85719855752229" lon="12.326476399449039"><ele>28.5</ele><time>2026-05-01T08:12:45.001Z</time></trkpt><trkpt lat="41.85728040481773" lon="12.326486240976466"><ele>28.666666666666664</ele><time>2026-05-01T08:12:46.001Z</time></trkpt><trkpt lat="41.85735143415784" lon="12.32649519069242"><ele>28.833333333333332</ele><time>2026-05-01T08:12:47.001Z</time></trkpt><trkpt lat="41.857413825469365" lon="12.326519216857992"><ele>29.0</ele><time>2026-05-01T08:12:48.001Z</time></trkpt><trkpt lat="41.85747891346595" lon="12.326527002745156"><ele>28.999999999999996</ele><time>2026-05-01T08:12:49.001Z</time></trkpt><trkpt lat="41.85754407143278" lon="12.326538514150897"><ele>29.0</ele><time>2026-05-01T08:12:50.001Z</time></trkpt><trkpt lat="41.85762108864521" lon="12.326551096252636"><ele>29.0</ele><time>2026-05-01T08:12:51.001Z</time></trkpt><trkpt lat="41.857695717687726" lon="12.326558281105267"><ele>29.0</ele><time>2026-05-01T08:12:52.001Z</time></trkpt><trkpt lat="41.85778086713888" lon="12.326582237096632"><ele>28.999999999999996</ele><time>2026-05-01T08:12:53.001Z</time></trkpt><trkpt lat="41.85787413340637" lon="12.326591543326877"><ele>29.0</ele><time>2026-05-01T08:12:54.001Z</time></trkpt><trkpt lat="41.85796148687826" lon="12.326607675080739"><ele>27.6</ele><time>2026-05-01T08:12:55.001Z</time></trkpt><trkpt lat="41.85805000187832" lon="12.326633099273959"><ele>26.2</ele><time>2026-05-01T08:12:56.001Z</time></trkpt><trkpt lat="41.85813902442032" lon="12.326652869774433"><ele>24.8</ele><time>2026-05-01T08:12:57.001Z</time></trkpt><trkpt lat="41.8582314851601" lon="12.326679822006058"><ele>23.400000000000002</ele><time>2026-05-01T08:12:58.001Z</time></trkpt><trkpt lat="41.858321617278484" lon="12.326715727264272"><ele>22.0</ele><time>2026-05-01T08:12:59.001Z</time></trkpt><trkpt lat="41.85840679296238" lon="12.326778811215949"><ele>21.6</ele><time>2026-05-01T08:13:00.001Z</time></trkpt><trkpt lat="41.8585030812345" lon="12.326813829704887"><ele>21.200000000000003</ele><time>2026-05-01T08:13:01.001Z</time></trkpt><trkpt lat="41.858586945792005" lon="12.326897150393282"><ele>20.8</ele><time>2026-05-01T08:13:02.001Z</time></trkpt><trkpt lat="41.85867663387353" lon="12.326966451275384"><ele>20.4</ele><time>2026-05-01T08:13:03.001Z</time></trkpt><trkpt lat="41.85877357498055" lon="12.327050191453036"><ele>20.0</ele><time>2026-05-01T08:13:04.001Z</time></trkpt><trkpt lat="41.858871732432235" lon="12.327112219505622"><ele>20.0</ele><time>2026-05-01T08:13:05.001Z</time></trkpt><trkpt lat="41.858967010592984" lon="12.327224955989763"><ele>20.0</ele><time>2026-05-01T08:13:06.001Z</time></trkpt><trkpt lat="41.859072403075004" lon="12.327315675377381"><ele>20.0</ele><time>2026-05-01T08:13:07.001Z</time></trkpt><trkpt lat="41.85918108718533" lon="12.327404634431442"><ele>20.0</ele><time>2026-05-01T08:13:08.001Z</time></trkpt><trkpt lat="41.85929674630428" lon="12.3274961402994"><ele>20.0</ele><time>2026-05-01T08:13:09.001Z</time></trkpt><trkpt lat="41.85941148211745" lon="12.327598084807008"><ele>20.0</ele><time>2026-05-01T08:13:10.001Z</time></trkpt><trkpt lat="41.859517473198885" lon="12.327705067649433"><ele>20.0</ele><time>2026-05-01T08:13:11.001Z</time></trkpt><trkpt lat="41.85961051474239" lon="12.327820662919024"><ele>20.0</ele><time>2026-05-01T08:13:12.001Z</time></trkpt><trkpt lat="41.85970935487816" lon="12.327915589188391"><ele>20.0</ele><time>2026-05-01T08:13:13.001Z</time></trkpt><trkpt lat="41.85982030016821" lon="12.328015463998842"><ele>20.0</ele><time>2026-05-01T08:13:14.001Z</time></trkpt><trkpt lat="41.85993194219213" lon="12.328130989253994"><ele>20.0</ele><time>2026-05-01T08:13:15.001Z</time></trkpt><trkpt lat="41.86004822459424" lon="12.328214326585504"><ele>20.0</ele><time>2026-05-01T08:13:16.001Z</time></trkpt><trkpt lat="41.86017151118163" lon="12.328285652410488"><ele>19.75</ele><time>2026-05-01T08:13:17.001Z</time></trkpt><trkpt lat="41.860294993938055" lon="12.328354384790916"><ele>19.5</ele><time>2026-05-01T08:13:18.001Z</time></trkpt><trkpt lat="41.86044703317041" lon="12.32839407314013"><ele>19.25</ele><time>2026-05-01T08:13:19.001Z</time></trkpt><trkpt lat="41.8605886201029" lon="12.328441303057023"><ele>19.0</ele><time>2026-05-01T08:13:20.001Z</time></trkpt><trkpt lat="41.86072753485506" lon="12.328495705928958"><ele>19.0</ele><time>2026-05-01T08:13:21.002Z</time></trkpt><trkpt lat="41.860874253827504" lon="12.328535841366604"><ele>19.0</ele><time>2026-05-01T08:13:22.002Z</time></trkpt><trkpt lat="41.8610151721399" lon="12.328566355030569"><ele>19.0</ele><time>2026-05-01T08:13:23.002Z</time></trkpt><trkpt lat="41.86115275336017" lon="12.328594616512438"><ele>19.0</ele><time>2026-05-01T08:13:24.002Z</time></trkpt><trkpt lat="41.86127760929474" lon="12.328618854411152"><ele>19.0</ele><time>2026-05-01T08:13:25.002Z</time></trkpt><trkpt lat="41.86139609154499" lon="12.328647611760646"><ele>19.0</ele><time>2026-05-01T08:13:26.002Z</time></trkpt><trkpt lat="41.86151145494866" lon="12.32867996404379"><ele>19.0</ele><time>2026-05-01T08:13:27.002Z</time></trkpt><trkpt lat="41.86162885360508" lon="12.328701895760677"><ele>19.0</ele><time>2026-05-01T08:13:28.002Z</time></trkpt><trkpt lat="41.86176036300335" lon="12.328745553978468"><ele>19.5</ele><time>2026-05-01T08:13:29.002Z</time></trkpt><trkpt lat="41.861889857306466" lon="12.328772558055762"><ele>20.0</ele><time>2026-05-01T08:13:30.002Z</time></trkpt><trkpt lat="41.862033886773276" lon="12.32880259319565"><ele>20.5</ele><time>2026-05-01T08:13:31.002Z</time></trkpt><trkpt lat="41.86216934262038" lon="12.328785441635976"><ele>21.0</ele><time>2026-05-01T08:13:32.002Z</time></trkpt><trkpt lat="41.86230871051496" lon="12.328808896669111"><ele>21.0</ele><time>2026-05-01T08:13:33.002Z</time></trkpt><trkpt lat="41.86246386850444" lon="12.328839531073802"><ele>21.0</ele><time>2026-05-01T08:13:34.002Z</time></trkpt><trkpt lat="41.86262475497399" lon="12.328866337814086"><ele>21.0</ele><time>2026-05-01T08:13:35.002Z</time></trkpt><trkpt lat="41.86280017488689" lon="12.328961406546728"><ele>21.0</ele><time>2026-05-01T08:13:36.002Z</time></trkpt><trkpt lat="41.863005715160924" lon="12.329006842997526"><ele>21.0</ele><time>2026-05-01T08:13:37.002Z</time></trkpt><trkpt lat="41.8632188189148" lon="12.329055235824296"><ele>21.0</ele><time>2026-05-01T08:13:38.002Z</time></trkpt><trkpt lat="41.863450673450004" lon="12.329053208289094"><ele>21.0</ele><time>2026-05-01T08:13:39.002Z</time></trkpt><trkpt lat="41.863689051838335" lon="12.32910091562865"><ele>21.0</ele><time>2026-05-01T08:13:40.002Z</time></trkpt><trkpt lat="41.86393403949065" lon="12.329157251504945"><ele>21.0</ele><time>2026-05-01T08:13:41.002Z</time></trkpt><trkpt lat="41.86416690547961" lon="12.329227028736563"><ele>21.0</ele><time>2026-05-01T08:13:42.002Z</time></trkpt><trkpt lat="41.86442805891569" lon="12.329320806676924"><ele>20.5</ele><time>2026-05-01T08:13:43Z</time></trkpt><trkpt lat="41.86467839716044" lon="12.329374260634074"><ele>20.0</ele><time>2026-05-01T08:13:44Z</time></trkpt><trkpt lat="41.86492909102481" lon="12.329408243562872"><ele>20.5</ele><time>2026-05-01T08:13:45Z</time></trkpt><trkpt lat="41.86516046760575" lon="12.329479290655593"><ele>21.0</ele><time>2026-05-01T08:13:46Z</time></trkpt><trkpt lat="41.86538935532791" lon="12.329529072261792"><ele>21.0</ele><time>2026-05-01T08:13:47Z</time></trkpt><trkpt lat="41.86561575684918" lon="12.329576859745124"><ele>21.0</ele><time>2026-05-01T08:13:48Z</time></trkpt><trkpt lat="41.865846277061564" lon="12.32960884531678"><ele>21.0</ele><time>2026-05-01T08:13:49Z</time></trkpt><trkpt lat="41.8660682029835" lon="12.329654154254381"><ele>21.0</ele><time>2026-05-01T08:13:50Z</time></trkpt><trkpt lat="41.8662875911193" lon="12.329703827920545"><ele>21.0</ele><time>2026-05-01T08:13:51Z</time></trkpt><trkpt lat="41.86648707144524" lon="12.329763280055944"><ele>21.0</ele><time>2026-05-01T08:13:52Z</time></trkpt><trkpt lat="41.86671047691284" lon="12.329811791169895"><ele>21.0</ele><time>2026-05-01T08:13:53Z</time></trkpt><trkpt lat="41.86694800981987" lon="12.32985936906585"><ele>21.0</ele><time>2026-05-01T08:13:54Z</time></trkpt><trkpt lat="41.8671881288514" lon="12.329901089498255"><ele>21.0</ele><time>2026-05-01T08:13:55Z</time></trkpt><trkpt lat="41.867400911513016" lon="12.329946287853188"><ele>21.333333333333332</ele><time>2026-05-01T08:13:56Z</time></trkpt><trkpt lat="41.867613018925674" lon="12.329997744210404"><ele>21.666666666666664</ele><time>2026-05-01T08:13:57Z</time></trkpt><trkpt lat="41.86783485727574" lon="12.330051072358195"><ele>22.0</ele><time>2026-05-01T08:13:58Z</time></trkpt><trkpt lat="41.86805872727121" lon="12.330101032835325"><ele>22.0</ele><time>2026-05-01T08:13:59Z</time></trkpt><trkpt lat="41.868280001456164" lon="12.330148991055951"><ele>22.0</ele><time>2026-05-01T08:14:00Z</time></trkpt><trkpt lat="41.8684980551439" lon="12.330194173441631"><ele>22.0</ele><time>2026-05-01T08:14:01Z</time></trkpt><trkpt lat="41.86871833067042" lon="12.330234930029528"><ele>22.333333333333332</ele><time>2026-05-01T08:14:02Z</time></trkpt><trkpt lat="41.86893731631102" lon="12.330279044829867"><ele>22.666666666666668</ele><time>2026-05-01T08:14:03Z</time></trkpt><trkpt lat="41.86915391915322" lon="12.330320866162321"><ele>23.0</ele><time>2026-05-01T08:14:04Z</time></trkpt><trkpt lat="41.8693666755701" lon="12.330381987314716"><ele>23.0</ele><time>2026-05-01T08:14:05Z</time></trkpt><trkpt lat="41.86960261625205" lon="12.33043234549676"><ele>23.0</ele><time>2026-05-01T08:14:06Z</time></trkpt><trkpt lat="41.869795783514036" lon="12.3304729479252"><ele>23.0</ele><time>2026-05-01T08:14:07Z</time></trkpt><trkpt lat="41.8700104377314" lon="12.330482422425126"><ele>23.666666666666668</ele><time>2026-05-01T08:14:08Z</time></trkpt><trkpt lat="41.8702221878134" lon="12.3305213360486"><ele>24.333333333333336</ele><time>2026-05-01T08:14:09Z</time></trkpt><trkpt lat="41.870435821515386" lon="12.330564967262056"><ele>25.0</ele><time>2026-05-01T08:14:10Z</time></trkpt><trkpt lat="41.87064630823686" lon="12.330620771132983"><ele>25.666666666666668</ele><time>2026-05-01T08:14:11Z</time></trkpt><trkpt lat="41.87084401441352" lon="12.330699881370581"><ele>26.333333333333336</ele><time>2026-05-01T08:14:12Z</time></trkpt><trkpt lat="41.87103950403622" lon="12.330729654598413"><ele>27.0</ele><time>2026-05-01T08:14:13Z</time></trkpt><trkpt lat="41.871241506521606" lon="12.330777263086633"><ele>26.666666666666664</ele><time>2026-05-01T08:14:14Z</time></trkpt><trkpt lat="41.871448240859216" lon="12.330823893191003"><ele>26.333333333333332</ele><time>2026-05-01T08:14:15Z</time></trkpt><trkpt lat="41.87164611657198" lon="12.330866967336409"><ele>26.0</ele><time>2026-05-01T08:14:16Z</time></trkpt><trkpt lat="41.871850751004494" lon="12.330908778563966"><ele>26.0</ele><time>2026-05-01T08:14:17Z</time></trkpt><trkpt lat="41.87205562066032" lon="12.330948829634838"><ele>26.0</ele><time>2026-05-01T08:14:18Z</time></trkpt><trkpt lat="41.872273722049606" lon="12.3309939948871"><ele>26.0</ele><time>2026-05-01T08:14:19Z</time></trkpt><trkpt lat="41.872491149184384" lon="12.331055369697076"><ele>26.0</ele><time>2026-05-01T08:14:20Z</time></trkpt><trkpt lat="41.872699646531316" lon="12.33107956341409"><ele>26.0</ele><time>2026-05-01T08:14:21Z</time></trkpt><trkpt lat="41.87290650656839" lon="12.331132438152315"><ele>26.0</ele><time>2026-05-01T08:14:22Z</time></trkpt><trkpt lat="41.87311954511715" lon="12.331177643348814"><ele>26.0</ele><time>2026-05-01T08:14:23Z</time></trkpt><trkpt lat="41.87333205867009" lon="12.331220670932499"><ele>26.0</ele><time>2026-05-01T08:14:24Z</time></trkpt><trkpt lat="41.873543870700246" lon="12.331265557941931"><ele>26.0</ele><time>2026-05-01T08:14:25.001Z</time></trkpt><trkpt lat="41.8737566520789" lon="12.331311683111771"><ele>26.0</ele><time>2026-05-01T08:14:26.001Z</time></trkpt><trkpt lat="41.873976650015244" lon="12.331357828553568"><ele>26.0</ele><time>2026-05-01T08:14:27.001Z</time></trkpt><trkpt lat="41.874208244417076" lon="12.331419492751083"><ele>26.0</ele><time>2026-05-01T08:14:28.001Z</time></trkpt><trkpt lat="41.87441967538936" lon="12.331442297979402"><ele>26.0</ele><time>2026-05-01T08:14:29.001Z</time></trkpt><trkpt lat="41.87463320769672" lon="12.331509628658857"><ele>26.0</ele><time>2026-05-01T08:14:30.001Z</time></trkpt><trkpt lat="41.874853904284365" lon="12.33153417597625"><ele>26.0</ele><time>2026-05-01T08:14:31.001Z</time></trkpt><trkpt lat="41.875070331762444" lon="12.331596628857259"><ele>26.0</ele><time>2026-05-01T08:14:32.001Z</time></trkpt><trkpt lat="41.875298623629114" lon="12.331635497971915"><ele>25.5</ele><time>2026-05-01T08:14:33.001Z</time></trkpt><trkpt lat="41.87553333869418" lon="12.331674975850751"><ele>25.0</ele><time>2026-05-01T08:14:34.001Z</time></trkpt><trkpt lat="41.87576021435453" lon="12.3317231292345"><ele>25.5</ele><time>2026-05-01T08:14:35.001Z</time></trkpt><trkpt lat="41.87598885730558" lon="12.33179200935308"><ele>26.0</ele><time>2026-05-01T08:14:36.001Z</time></trkpt><trkpt lat="41.87621516716002" lon="12.331818789497154"><ele>26.0</ele><time>2026-05-01T08:14:37.001Z</time></trkpt><trkpt lat="41.876442906537115" lon="12.331867239143518"><ele>26.0</ele><time>2026-05-01T08:14:38.001Z</time></trkpt><trkpt lat="41.87666747712175" lon="12.331912979781759"><ele>26.0</ele><time>2026-05-01T08:14:39.001Z</time></trkpt><trkpt lat="41.87690029077141" lon="12.3319604662247"><ele>26.0</ele><time>2026-05-01T08:14:40.001Z</time></trkpt><trkpt lat="41.8771229177484" lon="12.332008355364458"><ele>26.0</ele><time>2026-05-01T08:14:41.001Z</time></trkpt><trkpt lat="41.87734572977822" lon="12.332054590584635"><ele>26.0</ele><time>2026-05-01T08:14:42.001Z</time></trkpt><trkpt lat="41.87756468965595" lon="12.332101300846865"><ele>26.0</ele><time>2026-05-01T08:14:43.001Z</time></trkpt><trkpt lat="41.8777811560926" lon="12.332151870595206"><ele>26.0</ele><time>2026-05-01T08:14:44.001Z</time></trkpt><trkpt lat="41.8779974363185" lon="12.332200248782174"><ele>26.0</ele><time>2026-05-01T08:14:45.001Z</time></trkpt><trkpt lat="41.87821460704771" lon="12.332246125173981"><ele>26.0</ele><time>2026-05-01T08:14:46.001Z</time></trkpt><trkpt lat="41.87843007680661" lon="12.332293787991963"><ele>26.0</ele><time>2026-05-01T08:14:47.001Z</time></trkpt><trkpt lat="41.878644515606574" lon="12.332337712509784"><ele>26.0</ele><time>2026-05-01T08:14:48.001Z</time></trkpt><trkpt lat="41.87885740613835" lon="12.332389828232355"><ele>26.0</ele><time>2026-05-01T08:14:49.001Z</time></trkpt><trkpt lat="41.87907455448541" lon="12.332442928846731"><ele>26.666666666666664</ele><time>2026-05-01T08:14:50.001Z</time></trkpt><trkpt lat="41.87928442513649" lon="12.332506521279841"><ele>27.333333333333336</ele><time>2026-05-01T08:14:51.001Z</time></trkpt><trkpt lat="41.87949380634504" lon="12.332571986418346"><ele>28.0</ele><time>2026-05-01T08:14:52.001Z</time></trkpt><trkpt lat="41.87970690877769" lon="12.332647893696489"><ele>28.0</ele><time>2026-05-01T08:14:53.001Z</time></trkpt><trkpt lat="41.879912575226" lon="12.33272229169019"><ele>28.0</ele><time>2026-05-01T08:14:54.001Z</time></trkpt><trkpt lat="41.88012413315593" lon="12.332801832739442"><ele>28.0</ele><time>2026-05-01T08:14:55.001Z</time></trkpt><trkpt lat="41.88033398036963" lon="12.332885691053285"><ele>28.0</ele><time>2026-05-01T08:14:56.001Z</time></trkpt><trkpt lat="41.88054551216262" lon="12.332960082957431"><ele>28.0</ele><time>2026-05-01T08:14:57.001Z</time></trkpt><trkpt lat="41.880759580986016" lon="12.333032021147547"><ele>28.0</ele><time>2026-05-01T08:14:58.001Z</time></trkpt><trkpt lat="41.88097277889228" lon="12.333099279895515"><ele>28.0</ele><time>2026-05-01T08:14:59.001Z</time></trkpt><trkpt lat="41.881187902802225" lon="12.333166307334503"><ele>28.0</ele><time>2026-05-01T08:15:00.001Z</time></trkpt><trkpt lat="41.88161074823315" lon="12.333283472769349"><ele>28.333333333333336</ele><time>2026-05-01T08:15:02.001Z</time></trkpt><trkpt lat="41.8818234337215" lon="12.33333353717648"><ele>28.666666666666664</ele><time>2026-05-01T08:15:03.001Z</time></trkpt><trkpt lat="41.88203536768573" lon="12.333385091304322"><ele>29.0</ele><time>2026-05-01T08:15:04.001Z</time></trkpt><trkpt lat="41.88224579026808" lon="12.333433025699453"><ele>29.0</ele><time>2026-05-01T08:15:05.001Z</time></trkpt><trkpt lat="41.8824527628355" lon="12.333480742164213"><ele>29.0</ele><time>2026-05-01T08:15:06.001Z</time></trkpt><trkpt lat="41.88265362787732" lon="12.333532290682653"><ele>29.0</ele><time>2026-05-01T08:15:07.001Z</time></trkpt><trkpt lat="41.882854598623595" lon="12.333582287457942"><ele>29.333333333333332</ele><time>2026-05-01T08:15:08.001Z</time></trkpt><trkpt lat="41.88304358489777" lon="12.333638155186135"><ele>29.666666666666664</ele><time>2026-05-01T08:15:09.001Z</time></trkpt><trkpt lat="41.88321626294274" lon="12.33365609129514"><ele>30.0</ele><time>2026-05-01T08:15:10.001Z</time></trkpt><trkpt lat="41.883353525632984" lon="12.333708110331434"><ele>30.0</ele><time>2026-05-01T08:15:11.001Z</time></trkpt><trkpt lat="41.883462454895444" lon="12.33373069999391"><ele>30.0</ele><time>2026-05-01T08:15:12.001Z</time></trkpt><trkpt lat="41.883541853973824" lon="12.333717688393994"><ele>30.0</ele><time>2026-05-01T08:15:13.001Z</time></trkpt><trkpt lat="41.88360861873831" lon="12.333756423496324"><ele>30.0</ele><time>2026-05-01T08:15:17.001Z</time></trkpt><trkpt lat="41.883610697273205" lon="12.333876937657589"><ele>30.0</ele><time>2026-05-01T08:15:19.001Z</time></trkpt><trkpt lat="41.88359347719499" lon="12.333984016639684"><ele>30.0</ele><time>2026-05-01T08:15:20.001Z</time></trkpt><trkpt lat="41.8835972104321" lon="12.334087820491842"><ele>30.0</ele><time>2026-05-01T08:15:21.001Z</time></trkpt><trkpt lat="41.88360881552748" lon="12.334188037850582"><ele>30.0</ele><time>2026-05-01T08:15:22.001Z</time></trkpt><trkpt lat="41.88358602203344" lon="12.334334614150135"><ele>30.0</ele><time>2026-05-01T08:15:23.001Z</time></trkpt><trkpt lat="41.88356326109412" lon="12.334469766580769"><ele>30.0</ele><time>2026-05-01T08:15:24.001Z</time></trkpt><trkpt lat="41.883543423586595" lon="12.334637127774112"><ele>30.0</ele><time>2026-05-01T08:15:25.001Z</time></trkpt><trkpt lat="41.88350714186861" lon="12.334807682081882"><ele>30.0</ele><time>2026-05-01T08:15:26.001Z</time></trkpt><trkpt lat="41.88347214857689" lon="12.334945700317295"><ele>30.0</ele><time>2026-05-01T08:15:27.001Z</time></trkpt><trkpt lat="41.883453109407185" lon="12.335057661307562"><ele>30.0</ele><time>2026-05-01T08:15:28.001Z</time></trkpt><trkpt lat="41.883425557019656" lon="12.33514564719664"><ele>30.0</ele><time>2026-05-01T08:15:29.001Z</time></trkpt><trkpt lat="41.88341492460533" lon="12.335286266409375"><ele>30.0</ele><time>2026-05-01T08:15:31.001Z</time></trkpt><trkpt lat="41.883480036058096" lon="12.335278788628576"><ele>30.0</ele><time>2026-05-01T08:15:34.001Z</time></trkpt><trkpt lat="41.88350055522641" lon="12.335174596134504"><ele>30.0</ele><time>2026-05-01T08:15:36.001Z</time></trkpt><trkpt lat="41.88348905399357" lon="12.33500058860921"><ele>30.0</ele><time>2026-05-01T08:15:38.001Z</time></trkpt><trkpt lat="41.88350712316583" lon="12.334883318107948"><ele>30.0</ele><time>2026-05-01T08:15:39.001Z</time></trkpt><trkpt lat="41.88352123849784" lon="12.33475234900043"><ele>30.0</ele><time>2026-05-01T08:15:40.001Z</time></trkpt><trkpt lat="41.883531421894794" lon="12.334615132023133"><ele>30.0</ele><time>2026-05-01T08:15:41.002Z</time></trkpt><trkpt lat="41.88355000600848" lon="12.334479555126078"><ele>30.0</ele><time>2026-05-01T08:15:42.002Z</time></trkpt><trkpt lat="41.88360757966326" lon="12.334347060894908"><ele>30.0</ele><time>2026-05-01T08:15:43.002Z</time></trkpt><trkpt lat="41.88362279168879" lon="12.334228063204018"><ele>30.0</ele><time>2026-05-01T08:15:44.002Z</time></trkpt><trkpt lat="41.88363758686361" lon="12.334090449721906"><ele>30.0</ele><time>2026-05-01T08:15:45.002Z</time></trkpt><trkpt lat="41.88365046686584" lon="12.333947070768872"><ele>30.0</ele><time>2026-05-01T08:15:46.002Z</time></trkpt><trkpt lat="41.883651059428175" lon="12.333831965074463"><ele>30.0</ele><time>2026-05-01T08:15:47.002Z</time></trkpt><trkpt lat="41.883678082792294" lon="12.333750077021088"><ele>30.0</ele><time>2026-05-01T08:15:48.002Z</time></trkpt><trkpt lat="41.8837239760442" lon="12.333664097342448"><ele>30.0</ele><time>2026-05-01T08:15:49Z</time></trkpt><trkpt lat="41.88376386060464" lon="12.333547691916785"><ele>30.0</ele><time>2026-05-01T08:15:50Z</time></trkpt><trkpt lat="41.88381008795154" lon="12.33346029161594"><ele>30.0</ele><time>2026-05-01T08:15:51Z</time></trkpt><trkpt lat="41.8839440323932" lon="12.333395933048239"><ele>30.0</ele><time>2026-05-01T08:15:53Z</time></trkpt><trkpt lat="41.88402738687236" lon="12.333409941756715"><ele>30.0</ele><time>2026-05-01T08:15:54Z</time></trkpt><trkpt lat="41.88409202100968" lon="12.333494233546775"><ele>30.0</ele><time>2026-05-01T08:15:55Z</time></trkpt><trkpt lat="41.884181056538" lon="12.333562073509025"><ele>30.0</ele><time>2026-05-01T08:15:56Z</time></trkpt><trkpt lat="41.88427452249101" lon="12.33363995615902"><ele>30.0</ele><time>2026-05-01T08:15:57Z</time></trkpt><trkpt lat="41.8843688167168" lon="12.333724117245927"><ele>30.25</ele><time>2026-05-01T08:15:58Z</time></trkpt><trkpt lat="41.884459044723926" lon="12.333810501372485"><ele>30.5</ele><time>2026-05-01T08:15:59Z</time></trkpt><trkpt lat="41.88455477723685" lon="12.33388507148244"><ele>30.75</ele><time>2026-05-01T08:16:00Z</time></trkpt><trkpt lat="41.88463772299534" lon="12.334000803319025"><ele>31.0</ele><time>2026-05-01T08:16:01Z</time></trkpt><trkpt lat="41.88473537663703" lon="12.334107326406277"><ele>31.200000000000003</ele><time>2026-05-01T08:16:02Z</time></trkpt><trkpt lat="41.884827065921726" lon="12.334206893460355"><ele>31.400000000000002</ele><time>2026-05-01T08:16:03Z</time></trkpt><trkpt lat="41.88490404731554" lon="12.334290357219508"><ele>31.6</ele><time>2026-05-01T08:16:04Z</time></trkpt><trkpt lat="41.88497377281348" lon="12.33436837179766"><ele>31.8</ele><time>2026-05-01T08:16:05Z</time></trkpt><trkpt lat="41.88504317393337" lon="12.334446033118686"><ele>32.0</ele><time>2026-05-01T08:16:06Z</time></trkpt><trkpt lat="41.88512823675235" lon="12.334541677251709"><ele>32.5</ele><time>2026-05-01T08:16:07Z</time></trkpt><trkpt lat="41.88520057799421" lon="12.334623065747822"><ele>33.0</ele><time>2026-05-01T08:16:08Z</time></trkpt><trkpt lat="41.885346845854315" lon="12.33478537626843"><ele>33.5</ele><time>2026-05-01T08:16:09Z</time></trkpt><trkpt lat="41.88544262869365" lon="12.334865020529907"><ele>34.0</ele><time>2026-05-01T08:16:10Z</time></trkpt><trkpt lat="41.885535017303596" lon="12.33495717736003"><ele>34.0</ele><time>2026-05-01T08:16:11Z</time></trkpt><trkpt lat="41.88564520438009" lon="12.335084549933985"><ele>34.0</ele><time>2026-05-01T08:16:12Z</time></trkpt><trkpt lat="41.88574884815689" lon="12.33517813160341"><ele>34.0</ele><time>2026-05-01T08:16:13Z</time></trkpt><trkpt lat="41.88586920525477" lon="12.335245775297544"><ele>34.0</ele><time>2026-05-01T08:16:14Z</time></trkpt><trkpt lat="41.88600262764027" lon="12.335335331857342"><ele>34.75</ele><time>2026-05-01T08:16:15Z</time></trkpt><trkpt lat="41.88613044120076" lon="12.335381157399551"><ele>35.5</ele><time>2026-05-01T08:16:16Z</time></trkpt><trkpt lat="41.88623845531363" lon="12.335385642356313"><ele>36.25</ele><time>2026-05-01T08:16:17Z</time></trkpt><trkpt lat="41.886358839258456" lon="12.335383958026728"><ele>37.0</ele><time>2026-05-01T08:16:18Z</time></trkpt><trkpt lat="41.886477888121064" lon="12.335377541284553"><ele>37.0</ele><time>2026-05-01T08:16:19Z</time></trkpt><trkpt lat="41.88659791660952" lon="12.335336975646344"><ele>37.0</ele><time>2026-05-01T08:16:20Z</time></trkpt><trkpt lat="41.886710789101315" lon="12.335296522627308"><ele>37.0</ele><time>2026-05-01T08:16:21Z</time></trkpt><trkpt lat="41.8868373777013" lon="12.335239624264995"><ele>37.0</ele><time>2026-05-01T08:16:22Z</time></trkpt><trkpt lat="41.88694813441613" lon="12.33520804629919"><ele>36.75</ele><time>2026-05-01T08:16:23Z</time></trkpt><trkpt lat="41.88706819548856" lon="12.335162215574568"><ele>36.5</ele><time>2026-05-01T08:16:24Z</time></trkpt><trkpt lat="41.88718979504749" lon="12.335126970059639"><ele>36.25</ele><time>2026-05-01T08:16:25Z</time></trkpt><trkpt lat="41.88730895158352" lon="12.335070377325225"><ele>36.0</ele><time>2026-05-01T08:16:26Z</time></trkpt><trkpt lat="41.88741670351604" lon="12.335028494876529"><ele>36.0</ele><time>2026-05-01T08:16:27Z</time></trkpt><trkpt lat="41.88754955831231" lon="12.334961778464981"><ele>36.0</ele><time>2026-05-01T08:16:28Z</time></trkpt><trkpt lat="41.8876667390962" lon="12.334896142831315"><ele>36.0</ele><time>2026-05-01T08:16:29Z</time></trkpt><trkpt lat="41.88779056856184" lon="12.334828766733132"><ele>36.0</ele><time>2026-05-01T08:16:30Z</time></trkpt><trkpt lat="41.88792467551421" lon="12.33475521524469"><ele>37.0</ele><time>2026-05-01T08:16:31Z</time></trkpt><trkpt lat="41.888043532565014" lon="12.334682507493968"><ele>38.0</ele><time>2026-05-01T08:16:32Z</time></trkpt><trkpt lat="41.88816705885539" lon="12.334612223535794"><ele>39.0</ele><time>2026-05-01T08:16:33Z</time></trkpt><trkpt lat="41.888291935676286" lon="12.334542670582579"><ele>40.0</ele><time>2026-05-01T08:16:34Z</time></trkpt><trkpt lat="41.88842236576129" lon="12.334478138394996"><ele>39.5</ele><time>2026-05-01T08:16:35.001Z</time></trkpt><trkpt lat="41.888553485534786" lon="12.334425003630171"><ele>39.0</ele><time>2026-05-01T08:16:36.001Z</time></trkpt><trkpt lat="41.88869545875808" lon="12.334421461576296"><ele>38.5</ele><time>2026-05-01T08:16:37.001Z</time></trkpt><trkpt lat="41.8888385003805" lon="12.334425998635806"><ele>38.0</ele><time>2026-05-01T08:16:38.001Z</time></trkpt><trkpt lat="41.88898960587701" lon="12.334443034844085"><ele>38.0</ele><time>2026-05-01T08:16:39.001Z</time></trkpt><trkpt lat="41.88914091730381" lon="12.33445261029581"><ele>38.0</ele><time>2026-05-01T08:16:40.001Z</time></trkpt><trkpt lat="41.88926836437864" lon="12.334478521609489"><ele>38.0</ele><time>2026-05-01T08:16:41.001Z</time></trkpt><trkpt lat="41.88937470187343" lon="12.334521200148487"><ele>38.0</ele><time>2026-05-01T08:16:42.001Z</time></trkpt><trkpt lat="41.889500470033184" lon="12.334554093425073"><ele>37.33333333333333</ele><time>2026-05-01T08:16:43.001Z</time></trkpt><trkpt lat="41.88974466778703" lon="12.334512397190469"><ele>36.666666666666664</ele><time>2026-05-01T08:16:44.001Z</time></trkpt><trkpt lat="41.88991241118021" lon="12.334538353517868"><ele>36.0</ele><time>2026-05-01T08:16:45.001Z</time></trkpt><trkpt lat="41.89006348152662" lon="12.33453594046565"><ele>35.666666666666664</ele><time>2026-05-01T08:16:46.001Z</time></trkpt><trkpt lat="41.8902267071688" lon="12.334547383754437"><ele>35.33333333333333</ele><time>2026-05-01T08:16:47.001Z</time></trkpt><trkpt lat="41.89038627807147" lon="12.33456653020488"><ele>35.0</ele><time>2026-05-01T08:16:48.001Z</time></trkpt><trkpt lat="41.89054699406012" lon="12.334584140717839"><ele>35.0</ele><time>2026-05-01T08:16:49.001Z</time></trkpt><trkpt lat="41.890708260512454" lon="12.33459489559193"><ele>35.0</ele><time>2026-05-01T08:16:50.001Z</time></trkpt><trkpt lat="41.890867477379594" lon="12.33460996635448"><ele>35.0</ele><time>2026-05-01T08:16:51.001Z</time></trkpt><trkpt lat="41.89101946052831" lon="12.334640630947886"><ele>35.0</ele><time>2026-05-01T08:16:52.001Z</time></trkpt><trkpt lat="41.89117430505429" lon="12.334679295753928"><ele>35.0</ele><time>2026-05-01T08:16:53.001Z</time></trkpt><trkpt lat="41.89131718629403" lon="12.334747885847984"><ele>35.0</ele><time>2026-05-01T08:16:54.001Z</time></trkpt><trkpt lat="41.891461482837656" lon="12.334837319082343"><ele>35.0</ele><time>2026-05-01T08:16:55.001Z</time></trkpt><trkpt lat="41.89160127641071" lon="12.334939475016036"><ele>35.0</ele><time>2026-05-01T08:16:56.001Z</time></trkpt><trkpt lat="41.891742554988916" lon="12.335047994030823"><ele>35.0</ele><time>2026-05-01T08:16:57.001Z</time></trkpt><trkpt lat="41.89188702613604" lon="12.335154265939645"><ele>36.33333333333333</ele><time>2026-05-01T08:16:58.001Z</time></trkpt><trkpt lat="41.89203321809855" lon="12.335259828122828"><ele>37.666666666666664</ele><time>2026-05-01T08:16:59.001Z</time></trkpt><trkpt lat="41.89218268928018" lon="12.335365398253906"><ele>39.0</ele><time>2026-05-01T08:17:00.001Z</time></trkpt><trkpt lat="41.892342136908816" lon="12.335462802082633"><ele>37.666666666666664</ele><time>2026-05-01T08:17:01.001Z</time></trkpt><trkpt lat="41.892493733170284" lon="12.335569306939169"><ele>36.33333333333333</ele><time>2026-05-01T08:17:02.001Z</time></trkpt><trkpt lat="41.89265308122417" lon="12.335672354647537"><ele>35.0</ele><time>2026-05-01T08:17:03.001Z</time></trkpt><trkpt lat="41.89278313522465" lon="12.335784151935377"><ele>35.0</ele><time>2026-05-01T08:17:04.001Z</time></trkpt><trkpt lat="41.892958895838944" lon="12.335893506748222"><ele>35.0</ele><time>2026-05-01T08:17:05.001Z</time></trkpt><trkpt lat="41.89311907910832" lon="12.336006262652203"><ele>35.0</ele><time>2026-05-01T08:17:06.001Z</time></trkpt><trkpt lat="41.89328324491211" lon="12.336147290223318"><ele>35.0</ele><time>2026-05-01T08:17:07.001Z</time></trkpt><trkpt lat="41.893444356313644" lon="12.336242627425166"><ele>35.0</ele><time>2026-05-01T08:17:08.001Z</time></trkpt><trkpt lat="41.89362047584009" lon="12.336332690405719"><ele>35.0</ele><time>2026-05-01T08:17:09.001Z</time></trkpt><trkpt lat="41.89378307815609" lon="12.336441904564467"><ele>35.33333333333333</ele><time>2026-05-01T08:17:10.001Z</time></trkpt><trkpt lat="41.893956517038106" lon="12.33653055382907"><ele>35.666666666666664</ele><time>2026-05-01T08:17:11.001Z</time></trkpt><trkpt lat="41.89413221450964" lon="12.336601795304208"><ele>36.0</ele><time>2026-05-01T08:17:12.001Z</time></trkpt><trkpt lat="41.89430649198755" lon="12.336662033087961"><ele>37.333333333333336</ele><time>2026-05-01T08:17:13.001Z</time></trkpt><trkpt lat="41.894469846447535" lon="12.336727030938748"><ele>38.66666666666667</ele><time>2026-05-01T08:17:14.001Z</time></trkpt><trkpt lat="41.894625420654236" lon="12.336784249164456"><ele>40.0</ele><time>2026-05-01T08:17:15.001Z</time></trkpt><trkpt lat="41.89476529546215" lon="12.336861154657297"><ele>40.0</ele><time>2026-05-01T08:17:16.001Z</time></trkpt><trkpt lat="41.894880973832066" lon="12.336979701656167"><ele>40.0</ele><time>2026-05-01T08:17:17.001Z</time></trkpt><trkpt lat="41.89498613073253" lon="12.337126190892018"><ele>40.0</ele><time>2026-05-01T08:17:18.001Z</time></trkpt><trkpt lat="41.895076261324576" lon="12.337296616167954"><ele>42.333333333333336</ele><time>2026-05-01T08:17:19.001Z</time></trkpt><trkpt lat="41.8951634275806" lon="12.337467966157377"><ele>44.666666666666664</ele><time>2026-05-01T08:17:20.001Z</time></trkpt><trkpt lat="41.89524672068567" lon="12.33764753719188"><ele>47.0</ele><time>2026-05-01T08:17:21.001Z</time></trkpt><trkpt lat="41.89533179093575" lon="12.337833957422205"><ele>47.0</ele><time>2026-05-01T08:17:22.001Z</time></trkpt><trkpt lat="41.89540196276406" lon="12.33801757593208"><ele>47.0</ele><time>2026-05-01T08:17:23.001Z</time></trkpt><trkpt lat="41.89547998790332" lon="12.338190271663754"><ele>47.0</ele><time>2026-05-01T08:17:24.001Z</time></trkpt><trkpt lat="41.89556336379435" lon="12.338353886525434"><ele>47.666666666666664</ele><time>2026-05-01T08:17:25.001Z</time></trkpt><trkpt lat="41.89566985930449" lon="12.338499632081836"><ele>48.33333333333333</ele><time>2026-05-01T08:17:26.001Z</time></trkpt><trkpt lat="41.895801790975916" lon="12.33862139604264"><ele>49.0</ele><time>2026-05-01T08:17:27.001Z</time></trkpt><trkpt lat="41.895946882191375" lon="12.338729267712775"><ele>49.0</ele><time>2026-05-01T08:17:28.001Z</time></trkpt><trkpt lat="41.89610209831319" lon="12.33886736517234"><ele>49.0</ele><time>2026-05-01T08:17:29.001Z</time></trkpt><trkpt lat="41.89626084094472" lon="12.338999096506303"><ele>49.0</ele><time>2026-05-01T08:17:30.001Z</time></trkpt><trkpt lat="41.89641549210526" lon="12.339150933015299"><ele>49.33333333333333</ele><time>2026-05-01T08:17:31.001Z</time></trkpt><trkpt lat="41.896581337449454" lon="12.339297020042727"><ele>49.66666666666667</ele><time>2026-05-01T08:17:32.001Z</time></trkpt><trkpt lat="41.8967350906968" lon="12.33944143074451"><ele>50.0</ele><time>2026-05-01T08:17:33.001Z</time></trkpt><trkpt lat="41.896878887630955" lon="12.339616044689476"><ele>48.0</ele><time>2026-05-01T08:17:34.001Z</time></trkpt><trkpt lat="41.897022026435145" lon="12.339776866226465"><ele>46.0</ele><time>2026-05-01T08:17:35.001Z</time></trkpt><trkpt lat="41.897164926588204" lon="12.339939700773146"><ele>44.0</ele><time>2026-05-01T08:17:36.001Z</time></trkpt><trkpt lat="41.897307566741226" lon="12.340102156727802"><ele>44.0</ele><time>2026-05-01T08:17:37.001Z</time></trkpt><trkpt lat="41.89745161553003" lon="12.34026560342878"><ele>44.0</ele><time>2026-05-01T08:17:38.001Z</time></trkpt><trkpt lat="41.897597116668344" lon="12.340429980519213"><ele>44.0</ele><time>2026-05-01T08:17:39.001Z</time></trkpt><trkpt lat="41.89774496316664" lon="12.340596693918284"><ele>42.666666666666664</ele><time>2026-05-01T08:17:40.001Z</time></trkpt><trkpt lat="41.8978936779617" lon="12.340764365951696"><ele>41.333333333333336</ele><time>2026-05-01T08:17:41.001Z</time></trkpt><trkpt lat="41.89804530104739" lon="12.340932074434544"><ele>40.0</ele><time>2026-05-01T08:17:42.001Z</time></trkpt><trkpt lat="41.898198741237316" lon="12.34109446431442"><ele>40.0</ele><time>2026-05-01T08:17:43.001Z</time></trkpt><trkpt lat="41.898348831269665" lon="12.341259144648"><ele>40.0</ele><time>2026-05-01T08:17:44.001Z</time></trkpt><trkpt lat="41.89849743704589" lon="12.341425426605646"><ele>40.0</ele><time>2026-05-01T08:17:45.001Z</time></trkpt><trkpt lat="41.89864757721239" lon="12.341594388251963"><ele>39.0</ele><time>2026-05-01T08:17:46.001Z</time></trkpt><trkpt lat="41.898798018478345" lon="12.341764043856166"><ele>38.0</ele><time>2026-05-01T08:17:47.001Z</time></trkpt><trkpt lat="41.898948186875955" lon="12.341934526263804"><ele>37.0</ele><time>2026-05-01T08:17:48.001Z</time></trkpt><trkpt lat="41.899091519319846" lon="12.342104765697577"><ele>36.66666666666667</ele><time>2026-05-01T08:17:49.002Z</time></trkpt><trkpt lat="41.899234826651146" lon="12.342269888356782"><ele>36.333333333333336</ele><time>2026-05-01T08:17:50.002Z</time></trkpt><trkpt lat="41.89938246289259" lon="12.34243087295377"><ele>36.0</ele><time>2026-05-01T08:17:51.002Z</time></trkpt><trkpt lat="41.899547664322604" lon="12.342565529922586"><ele>37.0</ele><time>2026-05-01T08:17:52.002Z</time></trkpt><trkpt lat="41.899710865098626" lon="12.34270215108881"><ele>38.0</ele><time>2026-05-01T08:17:53.002Z</time></trkpt><trkpt lat="41.89988759401202" lon="12.342823078534103"><ele>39.0</ele><time>2026-05-01T08:17:54.002Z</time></trkpt><trkpt lat="41.90007989236759" lon="12.342937134834944"><ele>38.333333333333336</ele><time>2026-05-01T08:17:55Z</time></trkpt><trkpt lat="41.90027103421093" lon="12.343074077680729"><ele>37.66666666666667</ele><time>2026-05-01T08:17:56Z</time></trkpt><trkpt lat="41.900478612626756" lon="12.343168309132286"><ele>37.0</ele><time>2026-05-01T08:17:57Z</time></trkpt><trkpt lat="41.90067961048515" lon="12.343282787171852"><ele>37.0</ele><time>2026-05-01T08:17:58Z</time></trkpt><trkpt lat="41.90087787967852" lon="12.34339836843047"><ele>37.0</ele><time>2026-05-01T08:17:59Z</time></trkpt><trkpt lat="41.90107506018934" lon="12.343511099272908"><ele>37.0</ele><time>2026-05-01T08:18:00Z</time></trkpt><trkpt lat="41.901271340414986" lon="12.343621738076912"><ele>36.333333333333336</ele><time>2026-05-01T08:18:01Z</time></trkpt><trkpt lat="41.9014487631321" lon="12.34376249741989"><ele>35.666666666666664</ele><time>2026-05-01T08:18:02Z</time></trkpt><trkpt lat="41.90162012550923" lon="12.343908795839296"><ele>35.0</ele><time>2026-05-01T08:18:03Z</time></trkpt><trkpt lat="41.90180414083564" lon="12.34403015519775"><ele>37.33333333333333</ele><time>2026-05-01T08:18:04Z</time></trkpt><trkpt lat="41.90195855739004" lon="12.344205137970292"><ele>39.666666666666664</ele><time>2026-05-01T08:18:05Z</time></trkpt><trkpt lat="41.902104950801984" lon="12.344380107476956"><ele>42.0</ele><time>2026-05-01T08:18:06Z</time></trkpt><trkpt lat="41.90224604131601" lon="12.34453998261018"><ele>42.0</ele><time>2026-05-01T08:18:07Z</time></trkpt><trkpt lat="41.90235846722393" lon="12.34469824991433"><ele>42.0</ele><time>2026-05-01T08:18:08Z</time></trkpt><trkpt lat="41.90246528170151" lon="12.34481456140164"><ele>42.0</ele><time>2026-05-01T08:18:09Z</time></trkpt><trkpt lat="41.902564404056875" lon="12.34492249686353"><ele>42.0</ele><time>2026-05-01T08:18:10Z</time></trkpt><trkpt lat="41.90265237572112" lon="12.345018290123496"><ele>41.75</ele><time>2026-05-01T08:18:11Z</time></trkpt><trkpt lat="41.90274964771858" lon="12.345124779468652"><ele>41.5</ele><time>2026-05-01T08:18:12Z</time></trkpt><trkpt lat="41.90285956437852" lon="12.3452452653919"><ele>41.25</ele><time>2026-05-01T08:18:13Z</time></trkpt><trkpt lat="41.90297376532422" lon="12.345370102656613"><ele>41.0</ele><time>2026-05-01T08:18:14Z</time></trkpt><trkpt lat="41.903097461679465" lon="12.345505218628942"><ele>40.33333333333333</ele><time>2026-05-01T08:18:15Z</time></trkpt><trkpt lat="41.90321977691057" lon="12.3456361548433"><ele>39.666666666666664</ele><time>2026-05-01T08:18:16Z</time></trkpt><trkpt lat="41.90334957790388" lon="12.345775291421466"><ele>39.0</ele><time>2026-05-01T08:18:17Z</time></trkpt><trkpt lat="41.903495358494226" lon="12.34590200932748"><ele>43.33333333333333</ele><time>2026-05-01T08:18:18Z</time></trkpt><trkpt lat="41.90363035012181" lon="12.346054092033693"><ele>47.666666666666664</ele><time>2026-05-01T08:18:19Z</time></trkpt><trkpt lat="41.90376751746393" lon="12.346207934939722"><ele>52.0</ele><time>2026-05-01T08:18:20Z</time></trkpt><trkpt lat="41.90390591033352" lon="12.346363429660753"><ele>49.33333333333333</ele><time>2026-05-01T08:18:21Z</time></trkpt><trkpt lat="41.90403179040164" lon="12.346526686389414"><ele>46.666666666666664</ele><time>2026-05-01T08:18:22Z</time></trkpt><trkpt lat="41.90416956783344" lon="12.346641206273706"><ele>44.0</ele><time>2026-05-01T08:18:23Z</time></trkpt><trkpt lat="41.90430305063681" lon="12.346771359102904"><ele>44.0</ele><time>2026-05-01T08:18:24Z</time></trkpt><trkpt lat="41.90444106170903" lon="12.346881245930126"><ele>44.0</ele><time>2026-05-01T08:18:25Z</time></trkpt><trkpt lat="41.90458752189262" lon="12.346958422786075"><ele>44.0</ele><time>2026-05-01T08:18:26Z</time></trkpt><trkpt lat="41.90474032551675" lon="12.347003468066935"><ele>44.0</ele><time>2026-05-01T08:18:27Z</time></trkpt><trkpt lat="41.90488688014626" lon="12.347037297958451"><ele>44.0</ele><time>2026-05-01T08:18:28Z</time></trkpt><trkpt lat="41.90505113626862" lon="12.347039224589976"><ele>44.0</ele><time>2026-05-01T08:18:29Z</time></trkpt><trkpt lat="41.90521144308831" lon="12.347051752200267"><ele>42.0</ele><time>2026-05-01T08:18:30Z</time></trkpt><trkpt lat="41.90537406439207" lon="12.34709410259679"><ele>40.0</ele><time>2026-05-01T08:18:31Z</time></trkpt><trkpt lat="41.9055355753581" lon="12.347104648549854"><ele>38.0</ele><time>2026-05-01T08:18:32Z</time></trkpt><trkpt lat="41.905679901383536" lon="12.347182178282326"><ele>38.33333333333333</ele><time>2026-05-01T08:18:33Z</time></trkpt><trkpt lat="41.90577171292316" lon="12.347249124961994"><ele>38.666666666666664</ele><time>2026-05-01T08:18:34Z</time></trkpt><trkpt lat="41.90591033603533" lon="12.347353661153774"><ele>39.0</ele><time>2026-05-01T08:18:35Z</time></trkpt><trkpt lat="41.906055378037614" lon="12.347513260124234"><ele>39.0</ele><time>2026-05-01T08:18:36Z</time></trkpt><trkpt lat="41.906171089051746" lon="12.347692342979759"><ele>39.0</ele><time>2026-05-01T08:18:37Z</time></trkpt><trkpt lat="41.90628894604744" lon="12.347845496882206"><ele>39.0</ele><time>2026-05-01T08:18:38Z</time></trkpt><trkpt lat="41.90640804272704" lon="12.34800170196522"><ele>39.0</ele><time>2026-05-01T08:18:39Z</time></trkpt><trkpt lat="41.90652803697795" lon="12.348148211810775"><ele>39.0</ele><time>2026-05-01T08:18:40.001Z</time></trkpt><trkpt lat="41.90663913149952" lon="12.348289552957787"><ele>39.0</ele><time>2026-05-01T08:18:41.001Z</time></trkpt><trkpt lat="41.906754392088885" lon="12.348434396943924"><ele>44.0</ele><time>2026-05-01T08:18:42.001Z</time></trkpt><trkpt lat="41.906869838283406" lon="12.348576058923241"><ele>49.0</ele><time>2026-05-01T08:18:43.001Z</time></trkpt><trkpt lat="41.906983266394896" lon="12.348714705349868"><ele>54.0</ele><time>2026-05-01T08:18:44.001Z</time></trkpt><trkpt lat="41.90709610170933" lon="12.348856610195"><ele>51.0</ele><time>2026-05-01T08:18:45.001Z</time></trkpt><trkpt lat="41.907207034886355" lon="12.348992519284401"><ele>48.0</ele><time>2026-05-01T08:18:46.001Z</time></trkpt><trkpt lat="41.90732598571779" lon="12.349094690213802"><ele>45.0</ele><time>2026-05-01T08:18:47.001Z</time></trkpt><trkpt lat="41.90745359053205" lon="12.349177042683703"><ele>42.0</ele><time>2026-05-01T08:18:48.001Z</time></trkpt><trkpt lat="41.90756743338979" lon="12.349224972948367"><ele>42.25</ele><time>2026-05-01T08:18:49.001Z</time></trkpt><trkpt lat="41.907700685590505" lon="12.349241553447792"><ele>42.5</ele><time>2026-05-01T08:18:50.001Z</time></trkpt><trkpt lat="41.907815225055955" lon="12.349255875584314"><ele>42.75</ele><time>2026-05-01T08:18:51.001Z</time></trkpt><trkpt lat="41.90799810622927" lon="12.349213030117399"><ele>43.0</ele><time>2026-05-01T08:18:52.001Z</time></trkpt><trkpt lat="41.90814654467533" lon="12.349213787656"><ele>43.0</ele><time>2026-05-01T08:18:53.001Z</time></trkpt><trkpt lat="41.908302781084984" lon="12.34920233543907"><ele>43.0</ele><time>2026-05-01T08:18:54.001Z</time></trkpt><trkpt lat="41.90845294636853" lon="12.349188445935082"><ele>43.0</ele><time>2026-05-01T08:18:55.001Z</time></trkpt><trkpt lat="41.908584953707965" lon="12.349193142675928"><ele>43.0</ele><time>2026-05-01T08:18:56.001Z</time></trkpt><trkpt lat="41.908731308380375" lon="12.349181927961194"><ele>43.0</ele><time>2026-05-01T08:18:57.001Z</time></trkpt><trkpt lat="41.908869943114354" lon="12.349175386841846"><ele>43.0</ele><time>2026-05-01T08:18:58.001Z</time></trkpt><trkpt lat="41.90901010112809" lon="12.34918523968841"><ele>43.0</ele><time>2026-05-01T08:18:59.001Z</time></trkpt><trkpt lat="41.90915057963538" lon="12.34919598751958"><ele>43.0</ele><time>2026-05-01T08:19:00.001Z</time></trkpt><trkpt lat="41.90928794008759" lon="12.349221496067509"><ele>43.0</ele><time>2026-05-01T08:19:01.001Z</time></trkpt><trkpt lat="41.90943197659082" lon="12.349248482198059"><ele>43.0</ele><time>2026-05-01T08:19:02.001Z</time></trkpt><trkpt lat="41.90958028471248" lon="12.34927129751082"><ele>43.0</ele><time>2026-05-01T08:19:03.001Z</time></trkpt><trkpt lat="41.90972575730645" lon="12.349318046592417"><ele>43.0</ele><time>2026-05-01T08:19:04.001Z</time></trkpt><trkpt lat="41.90985973075527" lon="12.349325586617008"><ele>43.0</ele><time>2026-05-01T08:19:05.001Z</time></trkpt><trkpt lat="41.909979323353596" lon="12.349354534451694"><ele>43.0</ele><time>2026-05-01T08:19:06.001Z</time></trkpt><trkpt lat="41.910102206289196" lon="12.349395399138565"><ele>43.0</ele><time>2026-05-01T08:19:07.001Z</time></trkpt><trkpt lat="41.91020234826547" lon="12.349483038030117"><ele>43.0</ele><time>2026-05-01T08:19:08.001Z</time></trkpt><trkpt lat="41.91031681585701" lon="12.349577748473159"><ele>44.0</ele><time>2026-05-01T08:19:09.001Z</time></trkpt><trkpt lat="41.91041462512164" lon="12.34970504003291"><ele>45.0</ele><time>2026-05-01T08:19:10.001Z</time></trkpt><trkpt lat="41.91050339513583" lon="12.349846822730205"><ele>46.0</ele><time>2026-05-01T08:19:11.001Z</time></trkpt><trkpt lat="41.910578049825254" lon="12.349969559165974"><ele>47.0</ele><time>2026-05-01T08:19:12.001Z</time></trkpt><trkpt lat="41.91063616700905" lon="12.350089940485274"><ele>47.0</ele><time>2026-05-01T08:19:13.001Z</time></trkpt><trkpt lat="41.91070578512945" lon="12.350186877354448"><ele>47.0</ele><time>2026-05-01T08:19:14.001Z</time></trkpt><trkpt lat="41.91075250368185" lon="12.350316745020875"><ele>47.0</ele><time>2026-05-01T08:19:15.001Z</time></trkpt><trkpt lat="41.91085005367448" lon="12.35040793511913"><ele>47.0</ele><time>2026-05-01T08:19:16.001Z</time></trkpt><trkpt lat="41.91094315667474" lon="12.350512302867202"><ele>47.0</ele><time>2026-05-01T08:19:17.001Z</time></trkpt><trkpt lat="41.91101817551752" lon="12.350634438916643"><ele>46.0</ele><time>2026-05-01T08:19:18.001Z</time></trkpt><trkpt lat="41.91111898391294" lon="12.350731625342657"><ele>45.0</ele><time>2026-05-01T08:19:19.001Z</time></trkpt><trkpt lat="41.91120405860158" lon="12.350838952746182"><ele>44.0</ele><time>2026-05-01T08:19:20.001Z</time></trkpt><trkpt lat="41.91132243567183" lon="12.350888249682615"><ele>43.0</ele><time>2026-05-01T08:19:21.001Z</time></trkpt><trkpt lat="41.91144039035327" lon="12.350940536450716"><ele>43.0</ele><time>2026-05-01T08:19:22.001Z</time></trkpt><trkpt lat="41.911553783238936" lon="12.350979295341977"><ele>43.0</ele><time>2026-05-01T08:19:23.001Z</time></trkpt><trkpt lat="41.91166812789849" lon="12.351023399760573"><ele>43.0</ele><time>2026-05-01T08:19:24.001Z</time></trkpt><trkpt lat="41.91178103162766" lon="12.351065936992327"><ele>43.0</ele><time>2026-05-01T08:19:25.001Z</time></trkpt><trkpt lat="41.91189443775205" lon="12.35111773225961"><ele>42.5</ele><time>2026-05-01T08:19:26.001Z</time></trkpt><trkpt lat="41.9120141673198" lon="12.351165459278134"><ele>42.0</ele><time>2026-05-01T08:19:27.001Z</time></trkpt><trkpt lat="41.91213621853912" lon="12.351246390079996"><ele>41.5</ele><time>2026-05-01T08:19:28.001Z</time></trkpt><trkpt lat="41.91226864947259" lon="12.351305908499743"><ele>41.0</ele><time>2026-05-01T08:19:29.001Z</time></trkpt><trkpt lat="41.91237745376555" lon="12.351337275344015"><ele>41.0</ele><time>2026-05-01T08:19:30.001Z</time></trkpt><trkpt lat="41.91249847815263" lon="12.351374652062626"><ele>41.0</ele><time>2026-05-01T08:19:31.001Z</time></trkpt><trkpt lat="41.91259521972866" lon="12.351428199329137"><ele>41.0</ele><time>2026-05-01T08:19:32.001Z</time></trkpt><trkpt lat="41.9127033966377" lon="12.35145742615723"><ele>41.0</ele><time>2026-05-01T08:19:33.001Z</time></trkpt><trkpt lat="41.91281360051713" lon="12.351511726093213"><ele>42.25</ele><time>2026-05-01T08:19:34.001Z</time></trkpt><trkpt lat="41.91292378785752" lon="12.351560927952413"><ele>43.5</ele><time>2026-05-01T08:19:35.001Z</time></trkpt><trkpt lat="41.91303669936291" lon="12.35160293655997"><ele>44.75</ele><time>2026-05-01T08:19:36.001Z</time></trkpt><trkpt lat="41.91314881994176" lon="12.351671803060643"><ele>46.0</ele><time>2026-05-01T08:19:37.001Z</time></trkpt><trkpt lat="41.91327235767315" lon="12.351723966895186"><ele>46.0</ele><time>2026-05-01T08:19:38.001Z</time></trkpt><trkpt lat="41.91339609319743" lon="12.351759945760925"><ele>46.0</ele><time>2026-05-01T08:19:39.001Z</time></trkpt><trkpt lat="41.91351389966723" lon="12.351823683475509"><ele>46.0</ele><time>2026-05-01T08:19:40.001Z</time></trkpt><trkpt lat="41.913656844136874" lon="12.351887885505244"><ele>46.0</ele><time>2026-05-01T08:19:41.001Z</time></trkpt><trkpt lat="41.913792064920024" lon="12.3519032665743"><ele>46.0</ele><time>2026-05-01T08:19:42.001Z</time></trkpt><trkpt lat="41.913930238238606" lon="12.351925825960388"><ele>46.0</ele><time>2026-05-01T08:19:43.001Z</time></trkpt><trkpt lat="41.91406697821687" lon="12.351938712471604"><ele>46.0</ele><time>2026-05-01T08:19:44.001Z</time></trkpt><trkpt lat="41.914199964495516" lon="12.351946022721489"><ele>46.0</ele><time>2026-05-01T08:19:45.001Z</time></trkpt><trkpt lat="41.9143341629066" lon="12.351941390576734"><ele>46.0</ele><time>2026-05-01T08:19:46.001Z</time></trkpt><trkpt lat="41.9144428849948" lon="12.351956694131575"><ele>46.0</ele><time>2026-05-01T08:19:47.001Z</time></trkpt><trkpt lat="41.91455087257803" lon="12.351962046349746"><ele>46.0</ele><time>2026-05-01T08:19:48.001Z</time></trkpt><trkpt lat="41.914664198035936" lon="12.351967183877"><ele>46.0</ele><time>2026-05-01T08:19:49.001Z</time></trkpt><trkpt lat="41.91478551654224" lon="12.351971571060327"><ele>46.0</ele><time>2026-05-01T08:19:50.001Z</time></trkpt><trkpt lat="41.91493871715659" lon="12.351968523550164"><ele>46.0</ele><time>2026-05-01T08:19:52.001Z</time></trkpt><trkpt lat="41.915016061491826" lon="12.351999154517797"><ele>46.0</ele><time>2026-05-01T08:19:53.001Z</time></trkpt><trkpt lat="41.915083650043506" lon="12.352000436858603"><ele>46.0</ele><time>2026-05-01T08:19:54.001Z</time></trkpt><trkpt lat="41.91519936310519" lon="12.352000882581853"><ele>46.0</ele><time>2026-05-01T08:19:56.002Z</time></trkpt><trkpt lat="41.9152910182033" lon="12.352012957634386"><ele>46.199999999999996</ele><time>2026-05-01T08:19:57.002Z</time></trkpt><trkpt lat="41.91535432961865" lon="12.352015788122483"><ele>46.4</ele><time>2026-05-01T08:19:58.002Z</time></trkpt><trkpt lat="41.915451290723595" lon="12.352024684235426"><ele>46.6</ele><time>2026-05-01T08:19:59.002Z</time></trkpt><trkpt lat="41.91555968088074" lon="12.35203655320547"><ele>46.8</ele><time>2026-05-01T08:20:00.002Z</time></trkpt><trkpt lat="41.91566116241351" lon="12.352106344852738"><ele>47.0</ele><time>2026-05-01T08:20:01Z</time></trkpt><trkpt lat="41.915756669877716" lon="12.352129102774908"><ele>47.0</ele><time>2026-05-01T08:20:02Z</time></trkpt><trkpt lat="41.91589815483599" lon="12.35208785335435"><ele>47.0</ele><time>2026-05-01T08:20:03Z</time></trkpt><trkpt lat="41.916009913335216" lon="12.352119090108461"><ele>47.0</ele><time>2026-05-01T08:20:04Z</time></trkpt><trkpt lat="41.916131574996996" lon="12.352165836825558"><ele>47.0</ele><time>2026-05-01T08:20:05Z</time></trkpt><trkpt lat="41.916259093869726" lon="12.352232567912669"><ele>45.33333333333333</ele><time>2026-05-01T08:20:06Z</time></trkpt><trkpt lat="41.916392863973634" lon="12.352302777797346"><ele>43.666666666666664</ele><time>2026-05-01T08:20:07Z</time></trkpt><trkpt lat="41.91653353572043" lon="12.35238166870879"><ele>42.0</ele><time>2026-05-01T08:20:08Z</time></trkpt><trkpt lat="41.91668604690784" lon="12.352454720032553"><ele>42.0</ele><time>2026-05-01T08:20:09Z</time></trkpt><trkpt lat="41.916821708975505" lon="12.352533438072644"><ele>42.0</ele><time>2026-05-01T08:20:10Z</time></trkpt><trkpt lat="41.91696503413285" lon="12.352615466794669"><ele>42.0</ele><time>2026-05-01T08:20:11Z</time></trkpt><trkpt lat="41.917111559100306" lon="12.352697025774054"><ele>42.0</ele><time>2026-05-01T08:20:12Z</time></trkpt><trkpt lat="41.91726333767954" lon="12.352783090226138"><ele>42.0</ele><time>2026-05-01T08:20:13Z</time></trkpt><trkpt lat="41.917410296138954" lon="12.352883159146602"><ele>42.0</ele><time>2026-05-01T08:20:14Z</time></trkpt><trkpt lat="41.91757944988911" lon="12.352962067639904"><ele>42.0</ele><time>2026-05-01T08:20:15Z</time></trkpt><trkpt lat="41.91773281895042" lon="12.35303267387088"><ele>42.0</ele><time>2026-05-01T08:20:16Z</time></trkpt><trkpt lat="41.917907546897034" lon="12.353093712837131"><ele>42.0</ele><time>2026-05-01T08:20:17Z</time></trkpt><trkpt lat="41.91802747065389" lon="12.353187497138679"><ele>42.0</ele><time>2026-05-01T08:20:18Z</time></trkpt><trkpt lat="41.91817044649758" lon="12.353276247429376"><ele>42.0</ele><time>2026-05-01T08:20:19Z</time></trkpt><trkpt lat="41.91830590704343" lon="12.353352534913473"><ele>42.0</ele><time>2026-05-01T08:20:20Z</time></trkpt><trkpt lat="41.918449743584674" lon="12.353425584532642"><ele>42.0</ele><time>2026-05-01T08:20:21Z</time></trkpt><trkpt lat="41.918588390312145" lon="12.353501315625415"><ele>42.0</ele><time>2026-05-01T08:20:22Z</time></trkpt><trkpt lat="41.91872624796166" lon="12.353583765342696"><ele>42.0</ele><time>2026-05-01T08:20:23Z</time></trkpt><trkpt lat="41.91886478747254" lon="12.35366467286231"><ele>42.0</ele><time>2026-05-01T08:20:24Z</time></trkpt><trkpt lat="41.91900416251222" lon="12.353746194452093"><ele>42.0</ele><time>2026-05-01T08:20:25Z</time></trkpt><trkpt lat="41.91913980447167" lon="12.353815828457831"><ele>42.0</ele><time>2026-05-01T08:20:26Z</time></trkpt><trkpt lat="41.9192711519434" lon="12.353879506710946"><ele>42.0</ele><time>2026-05-01T08:20:27Z</time></trkpt><trkpt lat="41.919391417668116" lon="12.353945352208692"><ele>42.75</ele><time>2026-05-01T08:20:28Z</time></trkpt><trkpt lat="41.9195024774461" lon="12.354026861138662"><ele>43.5</ele><time>2026-05-01T08:20:29Z</time></trkpt><trkpt lat="41.919614062241116" lon="12.354059639220651"><ele>44.25</ele><time>2026-05-01T08:20:30Z</time></trkpt><trkpt lat="41.91973443207306" lon="12.35407316714657"><ele>45.0</ele><time>2026-05-01T08:20:31Z</time></trkpt><trkpt lat="41.91983694935497" lon="12.354097882739703"><ele>45.0</ele><time>2026-05-01T08:20:32Z</time></trkpt><trkpt lat="41.91996149776949" lon="12.35405411003491"><ele>45.0</ele><time>2026-05-01T08:20:33Z</time></trkpt><trkpt lat="41.92009719093118" lon="12.354025539587402"><ele>45.0</ele><time>2026-05-01T08:20:34Z</time></trkpt><trkpt lat="41.92024211870303" lon="12.354008357580545"><ele>45.0</ele><time>2026-05-01T08:20:35Z</time></trkpt><trkpt lat="41.92039400325368" lon="12.35398078811814"><ele>44.5</ele><time>2026-05-01T08:20:36Z</time></trkpt><trkpt lat="41.92055191519852" lon="12.35395390367329"><ele>44.0</ele><time>2026-05-01T08:20:37Z</time></trkpt><trkpt lat="41.920694450123676" lon="12.353926742415961"><ele>43.5</ele><time>2026-05-01T08:20:38Z</time></trkpt><trkpt lat="41.92082379803819" lon="12.353900453628688"><ele>43.0</ele><time>2026-05-01T08:20:39Z</time></trkpt><trkpt lat="41.9209380075234" lon="12.353878310889908"><ele>43.599999999999994</ele><time>2026-05-01T08:20:40Z</time></trkpt><trkpt lat="41.92104452742756" lon="12.353856020213172"><ele>44.199999999999996</ele><time>2026-05-01T08:20:41Z</time></trkpt><trkpt lat="41.92112683333321" lon="12.353842128572799"><ele>44.8</ele><time>2026-05-01T08:20:42Z</time></trkpt><trkpt lat="41.921240239311686" lon="12.353819296081076"><ele>45.4</ele><time>2026-05-01T08:20:43Z</time></trkpt><trkpt lat="41.92134949569224" lon="12.353800314277414"><ele>46.0</ele><time>2026-05-01T08:20:44Z</time></trkpt><trkpt lat="41.921456824559506" lon="12.35378092449415"><ele>46.0</ele><time>2026-05-01T08:20:45Z</time></trkpt><trkpt lat="41.92155876472726" lon="12.353758472988742"><ele>46.0</ele><time>2026-05-01T08:20:46Z</time></trkpt><trkpt lat="41.92164158698765" lon="12.353741862345176"><ele>46.0</ele><time>2026-05-01T08:20:47Z</time></trkpt><trkpt lat="41.921710963884564" lon="12.35372679904735"><ele>46.0</ele><time>2026-05-01T08:20:48Z</time></trkpt><trkpt lat="41.92182628298812" lon="12.353700940920966"><ele>46.0</ele><time>2026-05-01T08:20:50.001Z</time></trkpt><trkpt lat="41.92192878188174" lon="12.353679716221977"><ele>45.0</ele><time>2026-05-01T08:20:52.001Z</time></trkpt><trkpt lat="41.921991198469485" lon="12.353666757974688"><ele>44.0</ele><time>2026-05-01T08:20:53.001Z</time></trkpt><trkpt lat="41.92205663407362" lon="12.35365262999215"><ele>43.0</ele><time>2026-05-01T08:20:54.001Z</time></trkpt><trkpt lat="41.92212298476631" lon="12.353635330456887"><ele>42.0</ele><time>2026-05-01T08:20:55.001Z</time></trkpt><trkpt lat="41.92223289724023" lon="12.353613382824115"><ele>41.0</ele><time>2026-05-01T08:20:57.001Z</time></trkpt><trkpt lat="41.92231416157643" lon="12.353608660966533"><ele>40.0</ele><time>2026-05-01T08:20:58.001Z</time></trkpt><trkpt lat="41.92241751623426" lon="12.353587005383574"><ele>40.0</ele><time>2026-05-01T08:20:59.001Z</time></trkpt><trkpt lat="41.92250331430147" lon="12.353569572916745"><ele>40.0</ele><time>2026-05-01T08:21:00.001Z</time></trkpt><trkpt lat="41.92257310188442" lon="12.353535803125718"><ele>40.0</ele><time>2026-05-01T08:21:01.001Z</time></trkpt><trkpt lat="41.9226937554795" lon="12.353530879027376"><ele>40.0</ele><time>2026-05-01T08:21:02.001Z</time></trkpt><trkpt lat="41.92282308366947" lon="12.353488763981275"><ele>40.0</ele><time>2026-05-01T08:21:03.001Z</time></trkpt><trkpt lat="41.92297692463841" lon="12.353476025028948"><ele>40.0</ele><time>2026-05-01T08:21:04.001Z</time></trkpt><trkpt lat="41.92314306650845" lon="12.353450101223963"><ele>40.0</ele><time>2026-05-01T08:21:05.001Z</time></trkpt><trkpt lat="41.92327345637682" lon="12.353417777088852"><ele>40.0</ele><time>2026-05-01T08:21:06.001Z</time></trkpt><trkpt lat="41.923465846113125" lon="12.35340224751629"><ele>40.66666666666667</ele><time>2026-05-01T08:21:07.001Z</time></trkpt><trkpt lat="41.923645915925256" lon="12.353398928147344"><ele>41.333333333333336</ele><time>2026-05-01T08:21:08.001Z</time></trkpt><trkpt lat="41.92383969367041" lon="12.353425830218585"><ele>42.0</ele><time>2026-05-01T08:21:09.001Z</time></trkpt><trkpt lat="41.92401484140849" lon="12.353421590721949"><ele>42.0</ele><time>2026-05-01T08:21:10.001Z</time></trkpt><trkpt lat="41.92419764993598" lon="12.353444980815185"><ele>42.0</ele><time>2026-05-01T08:21:11.001Z</time></trkpt><trkpt lat="41.92439712500134" lon="12.353460101064439"><ele>42.0</ele><time>2026-05-01T08:21:12.001Z</time></trkpt><trkpt lat="41.92458852909634" lon="12.35348203511488"><ele>42.333333333333336</ele><time>2026-05-01T08:21:13.001Z</time></trkpt><trkpt lat="41.924785013516775" lon="12.3535018026339"><ele>42.66666666666667</ele><time>2026-05-01T08:21:14.001Z</time></trkpt><trkpt lat="41.92498020196593" lon="12.353537556033256"><ele>43.0</ele><time>2026-05-01T08:21:15.001Z</time></trkpt><trkpt lat="41.9251711457026" lon="12.353539299167405"><ele>43.333333333333336</ele><time>2026-05-01T08:21:16.001Z</time></trkpt><trkpt lat="41.925368201319976" lon="12.353556684163431"><ele>43.666666666666664</ele><time>2026-05-01T08:21:17.001Z</time></trkpt><trkpt lat="41.92555881659327" lon="12.353573398729244"><ele>44.0</ele><time>2026-05-01T08:21:18.001Z</time></trkpt><trkpt lat="41.92573631966377" lon="12.353615517097609"><ele>44.0</ele><time>2026-05-01T08:21:19.001Z</time></trkpt><trkpt lat="41.925944111723986" lon="12.353638655518385"><ele>44.0</ele><time>2026-05-01T08:21:20.001Z</time></trkpt><trkpt lat="41.92613395973862" lon="12.35365515183283"><ele>44.0</ele><time>2026-05-01T08:21:21.001Z</time></trkpt><trkpt lat="41.92632103370751" lon="12.353662446375242"><ele>44.0</ele><time>2026-05-01T08:21:22.001Z</time></trkpt><trkpt lat="41.92650236788453" lon="12.353692797367822"><ele>44.0</ele><time>2026-05-01T08:21:23.001Z</time></trkpt><trkpt lat="41.92667002538893" lon="12.353708339290577"><ele>44.0</ele><time>2026-05-01T08:21:24.001Z</time></trkpt><trkpt lat="41.926824376567914" lon="12.353723065263871"><ele>44.25</ele><time>2026-05-01T08:21:25.001Z</time></trkpt><trkpt lat="41.926981788528956" lon="12.353745616924478"><ele>44.5</ele><time>2026-05-01T08:21:26.001Z</time></trkpt><trkpt lat="41.92712919951974" lon="12.353754999820245"><ele>44.75</ele><time>2026-05-01T08:21:27.001Z</time></trkpt><trkpt lat="41.9272645275226" lon="12.353732684564106"><ele>45.0</ele><time>2026-05-01T08:21:28.001Z</time></trkpt><trkpt lat="41.9273922208235" lon="12.353682494650732"><ele>45.0</ele><time>2026-05-01T08:21:29.001Z</time></trkpt><trkpt lat="41.92752016655378" lon="12.353653520911774"><ele>45.0</ele><time>2026-05-01T08:21:30.001Z</time></trkpt><trkpt lat="41.9276098160994" lon="12.353610749367524"><ele>45.0</ele><time>2026-05-01T08:21:31.001Z</time></trkpt><trkpt lat="41.927672926722146" lon="12.353552376555044"><ele>45.0</ele><time>2026-05-01T08:21:32.001Z</time></trkpt><trkpt lat="41.927742902520926" lon="12.35350183635779"><ele>45.0</ele><time>2026-05-01T08:21:34.001Z</time></trkpt><trkpt lat="41.927800365752205" lon="12.353457411623154"><ele>45.0</ele><time>2026-05-01T08:21:36.001Z</time></trkpt><trkpt lat="41.927870558948435" lon="12.353414288027807"><ele>45.666666666666664</ele><time>2026-05-01T08:21:43.001Z</time></trkpt><trkpt lat="41.92792892508423" lon="12.35336507524467"><ele>46.33333333333333</ele><time>2026-05-01T08:21:46.001Z</time></trkpt><trkpt lat="41.92798912906772" lon="12.35332738254766"><ele>47.0</ele><time>2026-05-01T08:21:58.001Z</time></trkpt><trkpt lat="41.928077545513304" lon="12.353282398280083"><ele>47.666666666666664</ele><time>2026-05-01T08:22:01.001Z</time></trkpt><trkpt lat="41.92815718992658" lon="12.35316014625492"><ele>48.33333333333333</ele><time>2026-05-01T08:22:03.001Z</time></trkpt><trkpt lat="41.92822148077271" lon="12.353097110000661"><ele>49.0</ele><time>2026-05-01T08:22:04.002Z</time></trkpt><trkpt lat="41.92829603386859" lon="12.353039612021956"><ele>49.0</ele><time>2026-05-01T08:22:05.002Z</time></trkpt><trkpt lat="41.92838079100777" lon="12.352977997759996"><ele>49.0</ele><time>2026-05-01T08:22:06.002Z</time></trkpt><trkpt lat="41.9284797239996" lon="12.352905496783901"><ele>49.0</ele><time>2026-05-01T08:22:07Z</time></trkpt><trkpt lat="41.92858048069269" lon="12.352832067298248"><ele>49.0</ele><time>2026-05-01T08:22:08Z</time></trkpt><trkpt lat="41.92867580012975" lon="12.352764271239982"><ele>49.0</ele><time>2026-05-01T08:22:09Z</time></trkpt><trkpt lat="41.928765982022725" lon="12.352693729004663"><ele>49.0</ele><time>2026-05-01T08:22:10Z</time></trkpt><trkpt lat="41.92886614706509" lon="12.352624320546967"><ele>49.0</ele><time>2026-05-01T08:22:11Z</time></trkpt><trkpt lat="41.928972561119714" lon="12.352555834118917"><ele>49.0</ele><time>2026-05-01T08:22:12Z</time></trkpt><trkpt lat="41.92908642032469" lon="12.352476363084701"><ele>49.0</ele><time>2026-05-01T08:22:13Z</time></trkpt><trkpt lat="41.9291974501645" lon="12.352412979900492"><ele>48.25</ele><time>2026-05-01T08:22:14Z</time></trkpt><trkpt lat="41.92932316491734" lon="12.352329397118751"><ele>47.5</ele><time>2026-05-01T08:22:15Z</time></trkpt><trkpt lat="41.929453980134134" lon="12.35224269363178"><ele>46.75</ele><time>2026-05-01T08:22:16Z</time></trkpt><trkpt lat="41.92959033082995" lon="12.352175107495052"><ele>46.0</ele><time>2026-05-01T08:22:17Z</time></trkpt><trkpt lat="41.929723690841975" lon="12.352106465119698"><ele>46.0</ele><time>2026-05-01T08:22:18Z</time></trkpt><trkpt lat="41.92985764015038" lon="12.352035142730657"><ele>46.0</ele><time>2026-05-01T08:22:19Z</time></trkpt><trkpt lat="41.929995354736015" lon="12.3519537337067"><ele>46.0</ele><time>2026-05-01T08:22:20Z</time></trkpt><trkpt lat="41.93013241439002" lon="12.351887300492802"><ele>46.0</ele><time>2026-05-01T08:22:21Z</time></trkpt><trkpt lat="41.9302731831126" lon="12.351815565110124"><ele>46.0</ele><time>2026-05-01T08:22:22Z</time></trkpt><trkpt lat="41.930411304071185" lon="12.351745769007136"><ele>46.0</ele><time>2026-05-01T08:22:23Z</time></trkpt><trkpt lat="41.93054935530064" lon="12.351675462290379"><ele>46.0</ele><time>2026-05-01T08:22:24Z</time></trkpt><trkpt lat="41.930665367879115" lon="12.351625318539453"><ele>46.0</ele><time>2026-05-01T08:22:25Z</time></trkpt><trkpt lat="41.93082817806853" lon="12.351567473132588"><ele>45.66666666666667</ele><time>2026-05-01T08:22:26Z</time></trkpt><trkpt lat="41.93097058762638" lon="12.351486514629194"><ele>45.333333333333336</ele><time>2026-05-01T08:22:27Z</time></trkpt><trkpt lat="41.93111795639016" lon="12.351414579033014"><ele>45.0</ele><time>2026-05-01T08:22:28Z</time></trkpt><trkpt lat="41.93126565621563" lon="12.351338742716816"><ele>45.333333333333336</ele><time>2026-05-01T08:22:29Z</time></trkpt><trkpt lat="41.93142375638668" lon="12.35126407341471"><ele>45.66666666666667</ele><time>2026-05-01T08:22:30Z</time></trkpt><trkpt lat="41.93158144194315" lon="12.351185717121915"><ele>46.0</ele><time>2026-05-01T08:22:31Z</time></trkpt><trkpt lat="41.931743577866904" lon="12.351143176485554"><ele>46.0</ele><time>2026-05-01T08:22:32Z</time></trkpt><trkpt lat="41.93190845462655" lon="12.351027109093534"><ele>46.0</ele><time>2026-05-01T08:22:33Z</time></trkpt><trkpt lat="41.93207163620799" lon="12.350943361351824"><ele>46.0</ele><time>2026-05-01T08:22:34Z</time></trkpt><trkpt lat="41.932234795920635" lon="12.350885014821404"><ele>46.0</ele><time>2026-05-01T08:22:35Z</time></trkpt><trkpt lat="41.93240681205216" lon="12.350759903653916"><ele>46.0</ele><time>2026-05-01T08:22:36Z</time></trkpt><trkpt lat="41.932577771471955" lon="12.350685763385226"><ele>46.0</ele><time>2026-05-01T08:22:37Z</time></trkpt><trkpt lat="41.932757365146706" lon="12.350576057556143"><ele>46.0</ele><time>2026-05-01T08:22:38Z</time></trkpt><trkpt lat="41.93292925635314" lon="12.350504567588615"><ele>46.0</ele><time>2026-05-01T08:22:39Z</time></trkpt><trkpt lat="41.93310845188621" lon="12.350415986861789"><ele>46.0</ele><time>2026-05-01T08:22:40Z</time></trkpt><trkpt lat="41.933291254279894" lon="12.350326433599907"><ele>46.0</ele><time>2026-05-01T08:22:41Z</time></trkpt><trkpt lat="41.933472574832315" lon="12.350271245370811"><ele>46.0</ele><time>2026-05-01T08:22:42Z</time></trkpt><trkpt lat="41.93366072311423" lon="12.350149519760876"><ele>46.0</ele><time>2026-05-01T08:22:43Z</time></trkpt><trkpt lat="41.93384337909932" lon="12.350061113166346"><ele>46.0</ele><time>2026-05-01T08:22:44Z</time></trkpt><trkpt lat="41.93401832026951" lon="12.349999364003388"><ele>46.0</ele><time>2026-05-01T08:22:45Z</time></trkpt><trkpt lat="41.934209812236524" lon="12.34990331895431"><ele>46.0</ele><time>2026-05-01T08:22:46Z</time></trkpt><trkpt lat="41.93438895441963" lon="12.34979913700841"><ele>46.0</ele><time>2026-05-01T08:22:47Z</time></trkpt><trkpt lat="41.934570950708014" lon="12.349720396208404"><ele>46.0</ele><time>2026-05-01T08:22:48Z</time></trkpt><trkpt lat="41.93474336875192" lon="12.349636242254558"><ele>46.0</ele><time>2026-05-01T08:22:49Z</time></trkpt><trkpt lat="41.93492947100301" lon="12.349553838484193"><ele>46.0</ele><time>2026-05-01T08:22:50Z</time></trkpt><trkpt lat="41.93511537721589" lon="12.3494563578157"><ele>46.0</ele><time>2026-05-01T08:22:51Z</time></trkpt><trkpt lat="41.93529075659094" lon="12.349378993700183"><ele>46.0</ele><time>2026-05-01T08:22:52Z</time></trkpt><trkpt lat="41.93547248363513" lon="12.349283321291328"><ele>46.0</ele><time>2026-05-01T08:22:53.001Z</time></trkpt><trkpt lat="41.935645096629585" lon="12.34920695932898"><ele>46.0</ele><time>2026-05-01T08:22:54.001Z</time></trkpt><trkpt lat="41.935835159838454" lon="12.349113799734777"><ele>46.0</ele><time>2026-05-01T08:22:55.001Z</time></trkpt><trkpt lat="41.93601596459063" lon="12.349017181660873"><ele>46.333333333333336</ele><time>2026-05-01T08:22:56.001Z</time></trkpt><trkpt lat="41.93620569364863" lon="12.348942979867427"><ele>46.666666666666664</ele><time>2026-05-01T08:22:57.001Z</time></trkpt><trkpt lat="41.93637535872452" lon="12.348850896398208"><ele>47.0</ele><time>2026-05-01T08:22:58.001Z</time></trkpt><trkpt lat="41.936566972748565" lon="12.348769494963772"><ele>47.33333333333333</ele><time>2026-05-01T08:22:59.001Z</time></trkpt><trkpt lat="41.93675250143302" lon="12.348679599854147"><ele>47.666666666666664</ele><time>2026-05-01T08:23:00.001Z</time></trkpt><trkpt lat="41.93694096943339" lon="12.348603673810802"><ele>48.0</ele><time>2026-05-01T08:23:01.001Z</time></trkpt><trkpt lat="41.93713104215215" lon="12.348567298764076"><ele>48.0</ele><time>2026-05-01T08:23:02.001Z</time></trkpt><trkpt lat="41.93732989029236" lon="12.348523957318585"><ele>48.0</ele><time>2026-05-01T08:23:03.001Z</time></trkpt><trkpt lat="41.93752976678774" lon="12.34851204717982"><ele>48.0</ele><time>2026-05-01T08:23:04.001Z</time></trkpt><trkpt lat="41.937733515903325" lon="12.348493848233327"><ele>48.33333333333333</ele><time>2026-05-01T08:23:05.001Z</time></trkpt><trkpt lat="41.93795197726521" lon="12.348469654313883"><ele>48.666666666666664</ele><time>2026-05-01T08:23:06.001Z</time></trkpt><trkpt lat="41.938163195432665" lon="12.348443085366904"><ele>49.0</ele><time>2026-05-01T08:23:07.001Z</time></trkpt><trkpt lat="41.938371990794" lon="12.348421245786827"><ele>49.0</ele><time>2026-05-01T08:23:08.001Z</time></trkpt><trkpt lat="41.938581880461165" lon="12.348397965144278"><ele>49.0</ele><time>2026-05-01T08:23:09.001Z</time></trkpt><trkpt lat="41.93877658584947" lon="12.348384625365593"><ele>49.0</ele><time>2026-05-01T08:23:10.001Z</time></trkpt><trkpt lat="41.93897031570291" lon="12.348348005696819"><ele>49.0</ele><time>2026-05-01T08:23:11.001Z</time></trkpt><trkpt lat="41.93914916764191" lon="12.348318127095057"><ele>49.0</ele><time>2026-05-01T08:23:12.001Z</time></trkpt><trkpt lat="41.93932903630354" lon="12.34829031785659"><ele>49.0</ele><time>2026-05-01T08:23:13.001Z</time></trkpt><trkpt lat="41.939481089617075" lon="12.348268090259955"><ele>49.5</ele><time>2026-05-01T08:23:14.001Z</time></trkpt><trkpt lat="41.93962399562506" lon="12.34824646075214"><ele>50.0</ele><time>2026-05-01T08:23:15.001Z</time></trkpt><trkpt lat="41.93975999198965" lon="12.348250228553106"><ele>50.5</ele><time>2026-05-01T08:23:16.001Z</time></trkpt><trkpt lat="41.93990052720181" lon="12.348253693860276"><ele>51.0</ele><time>2026-05-01T08:23:17.001Z</time></trkpt><trkpt lat="41.9400248284406" lon="12.348310069818382"><ele>51.0</ele><time>2026-05-01T08:23:18.001Z</time></trkpt><trkpt lat="41.940149885773415" lon="12.34839085731173"><ele>51.0</ele><time>2026-05-01T08:23:19.001Z</time></trkpt><trkpt lat="41.94025827425003" lon="12.348511612150398"><ele>51.0</ele><time>2026-05-01T08:23:20.001Z</time></trkpt><trkpt lat="41.940351601153836" lon="12.348637624947372"><ele>51.0</ele><time>2026-05-01T08:23:21.001Z</time></trkpt><trkpt lat="41.94044291700343" lon="12.348766002235385"><ele>51.0</ele><time>2026-05-01T08:23:22.001Z</time></trkpt><trkpt lat="41.94053517629867" lon="12.348895119715872"><ele>51.0</ele><time>2026-05-01T08:23:23.001Z</time></trkpt><trkpt lat="41.94063317477123" lon="12.349032535711752"><ele>51.0</ele><time>2026-05-01T08:23:24.001Z</time></trkpt><trkpt lat="41.9407329095561" lon="12.349175527841775"><ele>51.0</ele><time>2026-05-01T08:23:25.001Z</time></trkpt><trkpt lat="41.94083352484663" lon="12.349319782628799"><ele>51.25</ele><time>2026-05-01T08:23:26.001Z</time></trkpt><trkpt lat="41.94093173215039" lon="12.349460584963952"><ele>51.5</ele><time>2026-05-01T08:23:27.001Z</time></trkpt><trkpt lat="41.94102577385217" lon="12.349594980777669"><ele>51.75</ele><time>2026-05-01T08:23:28.001Z</time></trkpt><trkpt lat="41.94112141865912" lon="12.349730816074276"><ele>52.0</ele><time>2026-05-01T08:23:29.001Z</time></trkpt><trkpt lat="41.94121345860986" lon="12.349868144502453"><ele>53.0</ele><time>2026-05-01T08:23:30.001Z</time></trkpt><trkpt lat="41.941305391713584" lon="12.350003797934132"><ele>54.0</ele><time>2026-05-01T08:23:31.001Z</time></trkpt><trkpt lat="41.94139662558019" lon="12.350138951069713"><ele>55.0</ele><time>2026-05-01T08:23:32.001Z</time></trkpt><trkpt lat="41.941487684787816" lon="12.350273776681343"><ele>56.0</ele><time>2026-05-01T08:23:33.001Z</time></trkpt><trkpt lat="41.94158069359641" lon="12.350411315768653"><ele>57.25</ele><time>2026-05-01T08:23:34.001Z</time></trkpt><trkpt lat="41.94167136343999" lon="12.350544320385403"><ele>58.5</ele><time>2026-05-01T08:23:35.001Z</time></trkpt><trkpt lat="41.94175733810167" lon="12.350666541169904"><ele>59.75</ele><time>2026-05-01T08:23:36.001Z</time></trkpt><trkpt lat="41.941838036635595" lon="12.350779457884036"><ele>61.0</ele><time>2026-05-01T08:23:37.001Z</time></trkpt><trkpt lat="41.941921830136366" lon="12.35089577913181"><ele>62.5</ele><time>2026-05-01T08:23:38.001Z</time></trkpt><trkpt lat="41.94201629093782" lon="12.351005308930974"><ele>64.0</ele><time>2026-05-01T08:23:39.001Z</time></trkpt><trkpt lat="41.942106885815946" lon="12.351113789466241"><ele>65.5</ele><time>2026-05-01T08:23:40.001Z</time></trkpt><trkpt lat="41.94219611753687" lon="12.351228839949393"><ele>67.0</ele><time>2026-05-01T08:23:41.001Z</time></trkpt><trkpt lat="41.94229291654244" lon="12.35133284223259"><ele>66.25</ele><time>2026-05-01T08:23:42.001Z</time></trkpt><trkpt lat="41.94239283286929" lon="12.351435583720646"><ele>65.5</ele><time>2026-05-01T08:23:43.001Z</time></trkpt><trkpt lat="41.942497507505166" lon="12.351532567662732"><ele>64.75</ele><time>2026-05-01T08:23:44.001Z</time></trkpt><trkpt lat="41.942601730672" lon="12.351634496730377"><ele>64.0</ele><time>2026-05-01T08:23:45.001Z</time></trkpt><trkpt lat="41.94271034157914" lon="12.35173921865068"><ele>66.75</ele><time>2026-05-01T08:23:46.001Z</time></trkpt><trkpt lat="41.94282107406441" lon="12.351845845671484"><ele>69.5</ele><time>2026-05-01T08:23:47.001Z</time></trkpt><trkpt lat="41.942939560112684" lon="12.351958362768753"><ele>72.25</ele><time>2026-05-01T08:23:48.001Z</time></trkpt><trkpt lat="41.943061329146474" lon="12.35206958460649"><ele>75.0</ele><time>2026-05-01T08:23:49.001Z</time></trkpt><trkpt lat="41.943190790474866" lon="12.35219955787869"><ele>75.33333333333333</ele><time>2026-05-01T08:23:50.001Z</time></trkpt><trkpt lat="41.943333416292866" lon="12.352352879633585"><ele>75.66666666666666</ele><time>2026-05-01T08:23:51.001Z</time></trkpt><trkpt lat="41.94349624257479" lon="12.352509740089449"><ele>76.0</ele><time>2026-05-01T08:23:52.001Z</time></trkpt><trkpt lat="41.94365670451246" lon="12.352664096615843"><ele>76.0</ele><time>2026-05-01T08:23:53.001Z</time></trkpt><trkpt lat="41.9438118326502" lon="12.35281356205075"><ele>76.0</ele><time>2026-05-01T08:23:54.001Z</time></trkpt><trkpt lat="41.943972955445155" lon="12.35296422199145"><ele>76.0</ele><time>2026-05-01T08:23:55.001Z</time></trkpt><trkpt lat="41.944114630184245" lon="12.353124597353846"><ele>76.66666666666666</ele><time>2026-05-01T08:23:56.001Z</time></trkpt><trkpt lat="41.944255564672794" lon="12.353254837523478"><ele>77.33333333333333</ele><time>2026-05-01T08:23:57.001Z</time></trkpt><trkpt lat="41.94438901940186" lon="12.353384910638217"><ele>78.0</ele><time>2026-05-01T08:23:58.001Z</time></trkpt><trkpt lat="41.94451666560092" lon="12.353501268802862"><ele>78.0</ele><time>2026-05-01T08:23:59.001Z</time></trkpt><trkpt lat="41.944649908862964" lon="12.353587112965213"><ele>78.0</ele><time>2026-05-01T08:24:00.001Z</time></trkpt><trkpt lat="41.944778535174684" lon="12.353686944143691"><ele>78.0</ele><time>2026-05-01T08:24:01.001Z</time></trkpt><trkpt lat="41.94491903762984" lon="12.353733963886329"><ele>78.0</ele><time>2026-05-01T08:24:02.001Z</time></trkpt><trkpt lat="41.94507507298008" lon="12.353773591002133"><ele>80.33333333333333</ele><time>2026-05-01T08:24:03.001Z</time></trkpt><trkpt lat="41.945238546778185" lon="12.353813883110558"><ele>82.66666666666666</ele><time>2026-05-01T08:24:04.001Z</time></trkpt><trkpt lat="41.94540302003734" lon="12.35383234968468"><ele>85.0</ele><time>2026-05-01T08:24:05.001Z</time></trkpt><trkpt lat="41.945571439415886" lon="12.353863662608672"><ele>85.0</ele><time>2026-05-01T08:24:06.001Z</time></trkpt><trkpt lat="41.94574137488657" lon="12.353908944265072"><ele>85.0</ele><time>2026-05-01T08:24:07.002Z</time></trkpt><trkpt lat="41.94590610057354" lon="12.353964985334612"><ele>85.0</ele><time>2026-05-01T08:24:08.002Z</time></trkpt><trkpt lat="41.946090799753286" lon="12.354006153764553"><ele>85.0</ele><time>2026-05-01T08:24:09.002Z</time></trkpt><trkpt lat="41.946266134267056" lon="12.354054052643013"><ele>85.0</ele><time>2026-05-01T08:24:10.002Z</time></trkpt><trkpt lat="41.946438949300905" lon="12.354101735121507"><ele>85.0</ele><time>2026-05-01T08:24:11.002Z</time></trkpt><trkpt lat="41.946610860022155" lon="12.354143885990702"><ele>86.33333333333333</ele><time>2026-05-01T08:24:12.002Z</time></trkpt><trkpt lat="41.94678327021842" lon="12.354192557034017"><ele>87.66666666666667</ele><time>2026-05-01T08:24:13Z</time></trkpt><trkpt lat="41.94694601473611" lon="12.354240180998973"><ele>89.0</ele><time>2026-05-01T08:24:14Z</time></trkpt><trkpt lat="41.9471328043811" lon="12.354276131488819"><ele>89.0</ele><time>2026-05-01T08:24:15Z</time></trkpt><trkpt lat="41.947309997711656" lon="12.354327848800295"><ele>89.0</ele><time>2026-05-01T08:24:16Z</time></trkpt><trkpt lat="41.947486331279336" lon="12.35438110437947"><ele>89.0</ele><time>2026-05-01T08:24:17Z</time></trkpt><trkpt lat="41.94765938861295" lon="12.354419822353954"><ele>90.0</ele><time>2026-05-01T08:24:18Z</time></trkpt><trkpt lat="41.947818454907306" lon="12.354485752679084"><ele>91.0</ele><time>2026-05-01T08:24:19Z</time></trkpt><trkpt lat="41.94798483878546" lon="12.35453430828267"><ele>92.0</ele><time>2026-05-01T08:24:20Z</time></trkpt><trkpt lat="41.94814949978689" lon="12.35458197636099"><ele>92.0</ele><time>2026-05-01T08:24:21Z</time></trkpt><trkpt lat="41.94831593417435" lon="12.354613138265023"><ele>92.0</ele><time>2026-05-01T08:24:22Z</time></trkpt><trkpt lat="41.948473958582966" lon="12.354670058656827"><ele>92.0</ele><time>2026-05-01T08:24:23Z</time></trkpt><trkpt lat="41.948627427675866" lon="12.354732686742304"><ele>91.33333333333334</ele><time>2026-05-01T08:24:24Z</time></trkpt><trkpt lat="41.94878953628571" lon="12.354792118628119"><ele>90.66666666666667</ele><time>2026-05-01T08:24:25Z</time></trkpt><trkpt lat="41.94894033822421" lon="12.354853134657104"><ele>90.0</ele><time>2026-05-01T08:24:26Z</time></trkpt><trkpt lat="41.94909617857938" lon="12.354916291900595"><ele>89.0</ele><time>2026-05-01T08:24:27Z</time></trkpt><trkpt lat="41.94924623899361" lon="12.354975281528493"><ele>88.0</ele><time>2026-05-01T08:24:28Z</time></trkpt><trkpt lat="41.949388219277196" lon="12.355031477521955"><ele>87.0</ele><time>2026-05-01T08:24:29Z</time></trkpt><trkpt lat="41.94953248669574" lon="12.355090097024291"><ele>87.0</ele><time>2026-05-01T08:24:30Z</time></trkpt><trkpt lat="41.949665106893285" lon="12.355145079411416"><ele>87.0</ele><time>2026-05-01T08:24:31Z</time></trkpt><trkpt lat="41.94979547562551" lon="12.35520504608977"><ele>87.0</ele><time>2026-05-01T08:24:32Z</time></trkpt><trkpt lat="41.94991910619693" lon="12.355277316066825"><ele>87.0</ele><time>2026-05-01T08:24:33Z</time></trkpt><trkpt lat="41.95003837811225" lon="12.355341710059738"><ele>87.5</ele><time>2026-05-01T08:24:34Z</time></trkpt><trkpt lat="41.9501458326978" lon="12.355447085767564"><ele>88.0</ele><time>2026-05-01T08:24:35Z</time></trkpt><trkpt lat="41.95024828399909" lon="12.355557356584711"><ele>88.5</ele><time>2026-05-01T08:24:36Z</time></trkpt><trkpt lat="41.95032742923537" lon="12.355668547489167"><ele>89.0</ele><time>2026-05-01T08:24:37Z</time></trkpt><trkpt lat="41.95041594379436" lon="12.355742007772976"><ele>89.0</ele><time>2026-05-01T08:24:38Z</time></trkpt><trkpt lat="41.95048020924174" lon="12.355849684301887"><ele>89.0</ele><time>2026-05-01T08:24:39Z</time></trkpt><trkpt lat="41.95055982519057" lon="12.355926714527603"><ele>89.0</ele><time>2026-05-01T08:24:40Z</time></trkpt><trkpt lat="41.95061373058717" lon="12.355986598865572"><ele>89.0</ele><time>2026-05-01T08:24:41Z</time></trkpt><trkpt lat="41.95066863991161" lon="12.356047597250841"><ele>89.0</ele><time>2026-05-01T08:24:42Z</time></trkpt><trkpt lat="41.9507390264378" lon="12.356124355127472"><ele>89.0</ele><time>2026-05-01T08:24:43Z</time></trkpt><trkpt lat="41.9507969355401" lon="12.356187621380197"><ele>88.99999999999999</ele><time>2026-05-01T08:24:44Z</time></trkpt><trkpt lat="41.950852528037736" lon="12.356248356730154"><ele>89.0</ele><time>2026-05-01T08:24:45Z</time></trkpt><trkpt lat="41.95090575579864" lon="12.356306508581623"><ele>89.0</ele><time>2026-05-01T08:24:46Z</time></trkpt><trkpt lat="41.9509577284919" lon="12.356363289254702"><ele>89.0</ele><time>2026-05-01T08:24:47Z</time></trkpt><trkpt lat="41.951008664958756" lon="12.356418674297347"><ele>89.0</ele><time>2026-05-01T08:24:48Z</time></trkpt><trkpt lat="41.95106085160942" lon="12.356474145021261"><ele>88.99999999999999</ele><time>2026-05-01T08:24:49Z</time></trkpt><trkpt lat="41.95111608724756" lon="12.35652696835699"><ele>89.0</ele><time>2026-05-01T08:24:50Z</time></trkpt><trkpt lat="41.951174355728085" lon="12.356575216456159"><ele>88.2</ele><time>2026-05-01T08:24:51Z</time></trkpt><trkpt lat="41.95125881826604" lon="12.356631870865316"><ele>87.4</ele><time>2026-05-01T08:24:52Z</time></trkpt><trkpt lat="41.95136064929157" lon="12.356665211868563"><ele>86.6</ele><time>2026-05-01T08:24:53Z</time></trkpt><trkpt lat="41.95143075156588" lon="12.35671025997825"><ele>85.8</ele><time>2026-05-01T08:24:54Z</time></trkpt><trkpt lat="41.95154073891731" lon="12.356735591239227"><ele>85.0</ele><time>2026-05-01T08:24:55Z</time></trkpt><trkpt lat="41.95164898016396" lon="12.3567490066833"><ele>85.25</ele><time>2026-05-01T08:24:56Z</time></trkpt><trkpt lat="41.951723116625445" lon="12.356735905463474"><ele>85.5</ele><time>2026-05-01T08:24:57Z</time></trkpt><trkpt lat="41.95186890428816" lon="12.356776264096673"><ele>85.75</ele><time>2026-05-01T08:24:58Z</time></trkpt><trkpt lat="41.95197337666181" lon="12.356789201865057"><ele>86.0</ele><time>2026-05-01T08:24:59Z</time></trkpt><trkpt lat="41.9520985501181" lon="12.356804479995573"><ele>86.0</ele><time>2026-05-01T08:25:00Z</time></trkpt><trkpt lat="41.952240003147956" lon="12.356821745138703"><ele>86.0</ele><time>2026-05-01T08:25:01.001Z</time></trkpt><trkpt lat="41.95237917108356" lon="12.356838731378518"><ele>86.0</ele><time>2026-05-01T08:25:02.001Z</time></trkpt><trkpt lat="41.95251876922146" lon="12.356855770122378"><ele>86.0</ele><time>2026-05-01T08:25:03.001Z</time></trkpt><trkpt lat="41.952627971153625" lon="12.356857640253393"><ele>86.8</ele><time>2026-05-01T08:25:04.001Z</time></trkpt><trkpt lat="41.952732920396144" lon="12.356868839783141"><ele>87.6</ele><time>2026-05-01T08:25:05.001Z</time></trkpt><trkpt lat="41.95283723194225" lon="12.356879711697914"><ele>88.4</ele><time>2026-05-01T08:25:06.001Z</time></trkpt><trkpt lat="41.952947093176704" lon="12.356891546748766"><ele>89.2</ele><time>2026-05-01T08:25:07.001Z</time></trkpt><trkpt lat="41.95306263130302" lon="12.356905512290565"><ele>90.0</ele><time>2026-05-01T08:25:08.001Z</time></trkpt><trkpt lat="41.953182514545055" lon="12.356963203249622"><ele>90.0</ele><time>2026-05-01T08:25:09.001Z</time></trkpt><trkpt lat="41.953302204689614" lon="12.357025491046539"><ele>90.0</ele><time>2026-05-01T08:25:10.001Z</time></trkpt><trkpt lat="41.953410846610204" lon="12.357120865031497"><ele>90.0</ele><time>2026-05-01T08:25:11.001Z</time></trkpt><trkpt lat="41.95350089166269" lon="12.35721460703321"><ele>90.0</ele><time>2026-05-01T08:25:12.001Z</time></trkpt><trkpt lat="41.953589887140254" lon="12.357313420965935"><ele>90.5</ele><time>2026-05-01T08:25:13.001Z</time></trkpt><trkpt lat="41.953688903876994" lon="12.3574254141587"><ele>91.0</ele><time>2026-05-01T08:25:14.001Z</time></trkpt><trkpt lat="41.95376666654014" lon="12.357484954167926"><ele>91.5</ele><time>2026-05-01T08:25:15.001Z</time></trkpt><trkpt lat="41.953866609950445" lon="12.357626431195479"><ele>92.0</ele><time>2026-05-01T08:25:16.001Z</time></trkpt><trkpt lat="41.953966385883284" lon="12.357739365221418"><ele>92.0</ele><time>2026-05-01T08:25:17.001Z</time></trkpt><trkpt lat="41.95405940556193" lon="12.357847007307603"><ele>92.0</ele><time>2026-05-01T08:25:18.001Z</time></trkpt><trkpt lat="41.954151841446524" lon="12.357952605277658"><ele>92.0</ele><time>2026-05-01T08:25:19.001Z</time></trkpt><trkpt lat="41.95424824616057" lon="12.358053714545655"><ele>92.0</ele><time>2026-05-01T08:25:20.001Z</time></trkpt><trkpt lat="41.95434722290046" lon="12.358151871674945"><ele>92.25</ele><time>2026-05-01T08:25:21.001Z</time></trkpt><trkpt lat="41.95444593946918" lon="12.358222509632906"><ele>92.5</ele><time>2026-05-01T08:25:22.001Z</time></trkpt><trkpt lat="41.954577111400354" lon="12.358277748359884"><ele>92.75</ele><time>2026-05-01T08:25:23.001Z</time></trkpt><trkpt lat="41.95471043548809" lon="12.358332950295495"><ele>93.0</ele><time>2026-05-01T08:25:24.001Z</time></trkpt><trkpt lat="41.95485539212286" lon="12.3583908094163"><ele>93.0</ele><time>2026-05-01T08:25:25.001Z</time></trkpt><trkpt lat="41.95502209404424" lon="12.35846632107764"><ele>93.0</ele><time>2026-05-01T08:25:26.001Z</time></trkpt><trkpt lat="41.95521755556913" lon="12.358533141939304"><ele>93.0</ele><time>2026-05-01T08:25:27.001Z</time></trkpt><trkpt lat="41.95543080362905" lon="12.358607289578536"><ele>93.0</ele><time>2026-05-01T08:25:28.001Z</time></trkpt><trkpt lat="41.95564928307441" lon="12.35868415867141"><ele>93.0</ele><time>2026-05-01T08:25:29.001Z</time></trkpt><trkpt lat="41.9558611171898" lon="12.358763056741253"><ele>93.0</ele><time>2026-05-01T08:25:30.001Z</time></trkpt><trkpt lat="41.95608526995356" lon="12.358848056629686"><ele>93.0</ele><time>2026-05-01T08:25:31.001Z</time></trkpt><trkpt lat="41.956296096862005" lon="12.358923023045167"><ele>93.0</ele><time>2026-05-01T08:25:32.001Z</time></trkpt><trkpt lat="41.95649358091687" lon="12.358991718667188"><ele>93.0</ele><time>2026-05-01T08:25:33.001Z</time></trkpt><trkpt lat="41.956680597085565" lon="12.359055534597703"><ele>94.0</ele><time>2026-05-01T08:25:34.001Z</time></trkpt><trkpt lat="41.95686218368215" lon="12.359116794878329"><ele>95.0</ele><time>2026-05-01T08:25:35.001Z</time></trkpt><trkpt lat="41.95704110226941" lon="12.359159814073696"><ele>96.0</ele><time>2026-05-01T08:25:36.001Z</time></trkpt><trkpt lat="41.95720244552215" lon="12.359248181770255"><ele>96.0</ele><time>2026-05-01T08:25:37.001Z</time></trkpt><trkpt lat="41.95735448928907" lon="12.35932308503424"><ele>96.0</ele><time>2026-05-01T08:25:38.001Z</time></trkpt><trkpt lat="41.957494387100525" lon="12.359398663133447"><ele>96.0</ele><time>2026-05-01T08:25:39.001Z</time></trkpt><trkpt lat="41.957606688903745" lon="12.35951590149485"><ele>95.75</ele><time>2026-05-01T08:25:40.001Z</time></trkpt><trkpt lat="41.957705349063296" lon="12.359658725312617"><ele>95.5</ele><time>2026-05-01T08:25:41.001Z</time></trkpt><trkpt lat="41.95779617417756" lon="12.359816853891362"><ele>95.25</ele><time>2026-05-01T08:25:42.001Z</time></trkpt><trkpt lat="41.95789120692884" lon="12.359978718036071"><ele>95.0</ele><time>2026-05-01T08:25:43.001Z</time></trkpt><trkpt lat="41.95798471604808" lon="12.360141151752094"><ele>95.0</ele><time>2026-05-01T08:25:44.001Z</time></trkpt><trkpt lat="41.9580805065621" lon="12.360298496099363"><ele>95.0</ele><time>2026-05-01T08:25:45.001Z</time></trkpt><trkpt lat="41.9581780041739" lon="12.360434407396939"><ele>95.0</ele><time>2026-05-01T08:25:46.001Z</time></trkpt><trkpt lat="41.958301768006606" lon="12.360540944551751"><ele>95.0</ele><time>2026-05-01T08:25:47.001Z</time></trkpt><trkpt lat="41.95843286673916" lon="12.360636695975044"><ele>97.33333333333334</ele><time>2026-05-01T08:25:48.001Z</time></trkpt><trkpt lat="41.958578448574" lon="12.360713472556224"><ele>99.66666666666667</ele><time>2026-05-01T08:25:49.001Z</time></trkpt><trkpt lat="41.95872622992453" lon="12.360786729110536"><ele>102.0</ele><time>2026-05-01T08:25:50.001Z</time></trkpt><trkpt lat="41.958878230856726" lon="12.360862632403514"><ele>102.0</ele><time>2026-05-01T08:25:51.001Z</time></trkpt><trkpt lat="41.95902902738698" lon="12.360947865702224"><ele>102.0</ele><time>2026-05-01T08:25:52.001Z</time></trkpt><trkpt lat="41.95919254561695" lon="12.36099372568364"><ele>102.0</ele><time>2026-05-01T08:25:53.001Z</time></trkpt><trkpt lat="41.95933884597108" lon="12.361047654455813"><ele>102.33333333333334</ele><time>2026-05-01T08:25:54.001Z</time></trkpt><trkpt lat="41.95948923549279" lon="12.36107288896573"><ele>102.66666666666667</ele><time>2026-05-01T08:25:55.001Z</time></trkpt><trkpt lat="41.95962469692066" lon="12.361080967754152"><ele>103.0</ele><time>2026-05-01T08:25:56.001Z</time></trkpt><trkpt lat="41.959796502834884" lon="12.361053735712861"><ele>103.0</ele><time>2026-05-01T08:25:57.001Z</time></trkpt><trkpt lat="41.95996455829731" lon="12.361036418133605"><ele>103.0</ele><time>2026-05-01T08:25:58.001Z</time></trkpt><trkpt lat="41.960128774576" lon="12.361004878041282"><ele>103.0</ele><time>2026-05-01T08:25:59.001Z</time></trkpt><trkpt lat="41.96028952769677" lon="12.360967540751934"><ele>102.33333333333334</ele><time>2026-05-01T08:26:00.001Z</time></trkpt><trkpt lat="41.96045597971863" lon="12.360947675939169"><ele>101.66666666666666</ele><time>2026-05-01T08:26:01.001Z</time></trkpt><trkpt lat="41.960627883623516" lon="12.360954738545189"><ele>101.0</ele><time>2026-05-01T08:26:02.001Z</time></trkpt><trkpt lat="41.96079942598763" lon="12.36100597330346"><ele>101.33333333333333</ele><time>2026-05-01T08:26:03.001Z</time></trkpt><trkpt lat="41.96097689485586" lon="12.36105093770115"><ele>101.66666666666666</ele><time>2026-05-01T08:26:04.001Z</time></trkpt><trkpt lat="41.96115457363748" lon="12.361105881240423"><ele>102.0</ele><time>2026-05-01T08:26:05.001Z</time></trkpt><trkpt lat="41.96133569295794" lon="12.361149317747035"><ele>102.0</ele><time>2026-05-01T08:26:06.001Z</time></trkpt><trkpt lat="41.96149798416579" lon="12.361205425570486"><ele>102.0</ele><time>2026-05-01T08:26:07.001Z</time></trkpt><trkpt lat="41.96165068013736" lon="12.361260585970664"><ele>102.0</ele><time>2026-05-01T08:26:08.001Z</time></trkpt><trkpt lat="41.96178994866457" lon="12.361340703693566"><ele>102.25</ele><time>2026-05-01T08:26:09.001Z</time></trkpt><trkpt lat="41.96192906380211" lon="12.361426326023897"><ele>102.5</ele><time>2026-05-01T08:26:10.001Z</time></trkpt><trkpt lat="41.96206342938445" lon="12.361515451454483"><ele>102.75</ele><time>2026-05-01T08:26:11.001Z</time></trkpt><trkpt lat="41.96218092369031" lon="12.361608794038968"><ele>103.0</ele><time>2026-05-01T08:26:12.001Z</time></trkpt><trkpt lat="41.962286975264306" lon="12.36170846936456"><ele>103.0</ele><time>2026-05-01T08:26:13.001Z</time></trkpt><trkpt lat="41.9623847259001" lon="12.361804679091701"><ele>103.0</ele><time>2026-05-01T08:26:14.001Z</time></trkpt><trkpt lat="41.962480800790196" lon="12.36189133274672"><ele>103.0</ele><time>2026-05-01T08:26:15.002Z</time></trkpt><trkpt lat="41.96257841959105" lon="12.361975778603366"><ele>103.0</ele><time>2026-05-01T08:26:16.002Z</time></trkpt><trkpt lat="41.96268621931717" lon="12.362065472854097"><ele>103.25</ele><time>2026-05-01T08:26:17.002Z</time></trkpt><trkpt lat="41.96278851003456" lon="12.362148101210627"><ele>103.5</ele><time>2026-05-01T08:26:18.002Z</time></trkpt><trkpt lat="41.962892967621826" lon="12.362238162154917"><ele>103.75</ele><time>2026-05-01T08:26:19Z</time></trkpt><trkpt lat="41.962996662065784" lon="12.362330734307692"><ele>104.0</ele><time>2026-05-01T08:26:20Z</time></trkpt><trkpt lat="41.9631033363133" lon="12.362431585846448"><ele>104.0</ele><time>2026-05-01T08:26:21Z</time></trkpt><trkpt lat="41.96320782771334" lon="12.36252633829112"><ele>104.0</ele><time>2026-05-01T08:26:22Z</time></trkpt><trkpt lat="41.963317658593645" lon="12.362621555014844"><ele>104.0</ele><time>2026-05-01T08:26:23Z</time></trkpt><trkpt lat="41.96342279940575" lon="12.362720702361637"><ele>104.0</ele><time>2026-05-01T08:26:24Z</time></trkpt><trkpt lat="41.96353339170602" lon="12.362817238842858"><ele>104.0</ele><time>2026-05-01T08:26:25Z</time></trkpt><trkpt lat="41.9636455903431" lon="12.362911968999319"><ele>104.0</ele><time>2026-05-01T08:26:26Z</time></trkpt><trkpt lat="41.96375714330595" lon="12.363011804060529"><ele>104.0</ele><time>2026-05-01T08:26:27Z</time></trkpt><trkpt lat="41.96386885487382" lon="12.363115108686298"><ele>104.0</ele><time>2026-05-01T08:26:28Z</time></trkpt><trkpt lat="41.963987577432626" lon="12.363219072406375"><ele>104.0</ele><time>2026-05-01T08:26:29Z</time></trkpt><trkpt lat="41.9641078664272" lon="12.363323733970095"><ele>104.0</ele><time>2026-05-01T08:26:30Z</time></trkpt><trkpt lat="41.96423369262633" lon="12.36343507832174"><ele>104.0</ele><time>2026-05-01T08:26:31Z</time></trkpt><trkpt lat="41.9643583670901" lon="12.363553369740623"><ele>104.0</ele><time>2026-05-01T08:26:32Z</time></trkpt><trkpt lat="41.96448621360058" lon="12.363668259802584"><ele>104.33333333333333</ele><time>2026-05-01T08:26:33Z</time></trkpt><trkpt lat="41.96461639135181" lon="12.363784424908136"><ele>104.66666666666666</ele><time>2026-05-01T08:26:34Z</time></trkpt><trkpt lat="41.96475080913119" lon="12.363899124739337"><ele>105.0</ele><time>2026-05-01T08:26:35Z</time></trkpt><trkpt lat="41.96487705651827" lon="12.364010122041547"><ele>105.0</ele><time>2026-05-01T08:26:36Z</time></trkpt><trkpt lat="41.96499431977698" lon="12.364118673640533"><ele>105.0</ele><time>2026-05-01T08:26:37Z</time></trkpt><trkpt lat="41.96510614830523" lon="12.364229996825474"><ele>105.0</ele><time>2026-05-01T08:26:38Z</time></trkpt><trkpt lat="41.96522735490917" lon="12.36433178443465"><ele>105.0</ele><time>2026-05-01T08:26:39Z</time></trkpt><trkpt lat="41.965357088861865" lon="12.364428621030033"><ele>105.5</ele><time>2026-05-01T08:26:40Z</time></trkpt><trkpt lat="41.96547959553085" lon="12.364522550300855"><ele>106.0</ele><time>2026-05-01T08:26:41Z</time></trkpt><trkpt lat="41.96561683631229" lon="12.364596708476947"><ele>106.5</ele><time>2026-05-01T08:26:42Z</time></trkpt><trkpt lat="41.9657600383039" lon="12.364667374114893"><ele>107.0</ele><time>2026-05-01T08:26:43Z</time></trkpt><trkpt lat="41.96591235963149" lon="12.364707072352212"><ele>107.0</ele><time>2026-05-01T08:26:44Z</time></trkpt><trkpt lat="41.966061408200574" lon="12.364759068034807"><ele>107.0</ele><time>2026-05-01T08:26:45Z</time></trkpt><trkpt lat="41.96621619619741" lon="12.364821229057293"><ele>107.0</ele><time>2026-05-01T08:26:46Z</time></trkpt><trkpt lat="41.966377845109804" lon="12.364880490696175"><ele>107.0</ele><time>2026-05-01T08:26:47Z</time></trkpt><trkpt lat="41.96653273466312" lon="12.364933981269298"><ele>107.0</ele><time>2026-05-01T08:26:48Z</time></trkpt><trkpt lat="41.96669598192343" lon="12.364989938211007"><ele>107.0</ele><time>2026-05-01T08:26:49Z</time></trkpt><trkpt lat="41.96685539269748" lon="12.365058479005993"><ele>107.0</ele><time>2026-05-01T08:26:50Z</time></trkpt><trkpt lat="41.96702686314102" lon="12.36511848293512"><ele>107.0</ele><time>2026-05-01T08:26:51Z</time></trkpt><trkpt lat="41.967200920341874" lon="12.365185684815588"><ele>107.0</ele><time>2026-05-01T08:26:52Z</time></trkpt><trkpt lat="41.967385448764055" lon="12.365252507781909"><ele>108.0</ele><time>2026-05-01T08:26:53Z</time></trkpt><trkpt lat="41.96756786699767" lon="12.36531732398671"><ele>109.0</ele><time>2026-05-01T08:26:54Z</time></trkpt><trkpt lat="41.96775048536162" lon="12.36538722942526"><ele>110.0</ele><time>2026-05-01T08:26:55Z</time></trkpt><trkpt lat="41.967932574672325" lon="12.365457625720557"><ele>110.0</ele><time>2026-05-01T08:26:56Z</time></trkpt><trkpt lat="41.96811289186899" lon="12.365517937520204"><ele>110.0</ele><time>2026-05-01T08:26:57Z</time></trkpt><trkpt lat="41.968291693469205" lon="12.365586200597685"><ele>110.0</ele><time>2026-05-01T08:26:58Z</time></trkpt><trkpt lat="41.96846844274446" lon="12.365652421831731"><ele>110.66666666666666</ele><time>2026-05-01T08:26:59Z</time></trkpt><trkpt lat="41.96864220125377" lon="12.36572172638697"><ele>111.33333333333334</ele><time>2026-05-01T08:27:00Z</time></trkpt><trkpt lat="41.9688164521104" lon="12.365787330052658"><ele>112.0</ele><time>2026-05-01T08:27:01Z</time></trkpt><trkpt lat="41.96898969947435" lon="12.365849720663372"><ele>112.0</ele><time>2026-05-01T08:27:02Z</time></trkpt><trkpt lat="41.96916285381865" lon="12.365906931739634"><ele>112.0</ele><time>2026-05-01T08:27:03Z</time></trkpt><trkpt lat="41.96933860046383" lon="12.365973726738432"><ele>112.0</ele><time>2026-05-01T08:27:04.001Z</time></trkpt><trkpt lat="41.96951697219947" lon="12.366042419854839"><ele>113.0</ele><time>2026-05-01T08:27:05.001Z</time></trkpt><trkpt lat="41.96969407981081" lon="12.36610579640934"><ele>114.0</ele><time>2026-05-01T08:27:06.001Z</time></trkpt><trkpt lat="41.96987152860213" lon="12.366163358504517"><ele>115.0</ele><time>2026-05-01T08:27:07.001Z</time></trkpt><trkpt lat="41.970046169271" lon="12.366227107899103"><ele>115.0</ele><time>2026-05-01T08:27:08.001Z</time></trkpt><trkpt lat="41.97021937654821" lon="12.366291399845839"><ele>115.0</ele><time>2026-05-01T08:27:09.001Z</time></trkpt><trkpt lat="41.970395050552774" lon="12.366355129033085"><ele>115.0</ele><time>2026-05-01T08:27:10.001Z</time></trkpt><trkpt lat="41.97056496671284" lon="12.3664260520057"><ele>115.0</ele><time>2026-05-01T08:27:11.001Z</time></trkpt><trkpt lat="41.97073854059048" lon="12.366487650219666"><ele>115.0</ele><time>2026-05-01T08:27:12.001Z</time></trkpt><trkpt lat="41.970909133019866" lon="12.36655737226111"><ele>115.0</ele><time>2026-05-01T08:27:13.001Z</time></trkpt><trkpt lat="41.97107647615519" lon="12.366648767562516"><ele>113.66666666666667</ele><time>2026-05-01T08:27:14.001Z</time></trkpt><trkpt lat="41.971242591124756" lon="12.366742547839483"><ele>112.33333333333334</ele><time>2026-05-01T08:27:15.001Z</time></trkpt><trkpt lat="41.971380356785126" lon="12.366889189800686"><ele>111.0</ele><time>2026-05-01T08:27:16.001Z</time></trkpt><trkpt lat="41.97152113499133" lon="12.367028911032934"><ele>111.0</ele><time>2026-05-01T08:27:17.001Z</time></trkpt><trkpt lat="41.97165440530311" lon="12.367173859625074"><ele>111.0</ele><time>2026-05-01T08:27:18.001Z</time></trkpt><trkpt lat="41.971788123491336" lon="12.367289546451063"><ele>111.0</ele><time>2026-05-01T08:27:19.001Z</time></trkpt><trkpt lat="41.97189919684645" lon="12.367417625857255"><ele>110.75</ele><time>2026-05-01T08:27:20.001Z</time></trkpt><trkpt lat="41.97201045823596" lon="12.367521948798576"><ele>110.5</ele><time>2026-05-01T08:27:21.001Z</time></trkpt><trkpt lat="41.972134448192875" lon="12.367608471410337"><ele>110.25</ele><time>2026-05-01T08:27:22.001Z</time></trkpt><trkpt lat="41.97226802402086" lon="12.367668062960906"><ele>110.0</ele><time>2026-05-01T08:27:23.001Z</time></trkpt><trkpt lat="41.97241065676062" lon="12.367707169785628"><ele>109.75</ele><time>2026-05-01T08:27:24.001Z</time></trkpt><trkpt lat="41.97255745726503" lon="12.367721985620541"><ele>109.5</ele><time>2026-05-01T08:27:25.001Z</time></trkpt><trkpt lat="41.97269380915497" lon="12.36772697521789"><ele>109.25</ele><time>2026-05-01T08:27:26.001Z</time></trkpt><trkpt lat="41.972819377256045" lon="12.36773448172853"><ele>109.0</ele><time>2026-05-01T08:27:27.001Z</time></trkpt><trkpt lat="41.972956002788024" lon="12.367725755277165"><ele>109.0</ele><time>2026-05-01T08:27:28.001Z</time></trkpt><trkpt lat="41.973107965074064" lon="12.367686165060418"><ele>109.0</ele><time>2026-05-01T08:27:29.001Z</time></trkpt><trkpt lat="41.97327515742796" lon="12.36761483209553"><ele>109.0</ele><time>2026-05-01T08:27:30.001Z</time></trkpt><trkpt lat="41.97345573884533" lon="12.367537855599927"><ele>108.66666666666667</ele><time>2026-05-01T08:27:31.001Z</time></trkpt><trkpt lat="41.973644815885535" lon="12.367445029676128"><ele>108.33333333333334</ele><time>2026-05-01T08:27:32.001Z</time></trkpt><trkpt lat="41.97384772759423" lon="12.36734549799445"><ele>108.0</ele><time>2026-05-01T08:27:33.001Z</time></trkpt><trkpt lat="41.974062751355824" lon="12.367242989773853"><ele>110.5</ele><time>2026-05-01T08:27:34.001Z</time></trkpt><trkpt lat="41.97428779836847" lon="12.367137016221635"><ele>113.0</ele><time>2026-05-01T08:27:35.001Z</time></trkpt><trkpt lat="41.974507281207174" lon="12.367032172420966"><ele>113.0</ele><time>2026-05-01T08:27:36.001Z</time></trkpt><trkpt lat="41.97470629004166" lon="12.366920908345952"><ele>113.0</ele><time>2026-05-01T08:27:37.001Z</time></trkpt><trkpt lat="41.974890269202525" lon="12.366843154290192"><ele>113.0</ele><time>2026-05-01T08:27:38.001Z</time></trkpt><trkpt lat="41.97507237885349" lon="12.366790370406841"><ele>113.66666666666666</ele><time>2026-05-01T08:27:39.001Z</time></trkpt><trkpt lat="41.97525968897627" lon="12.36675453618427"><ele>114.33333333333334</ele><time>2026-05-01T08:27:40.001Z</time></trkpt><trkpt lat="41.97543840646135" lon="12.366752326177227"><ele>115.0</ele><time>2026-05-01T08:27:41.001Z</time></trkpt><trkpt lat="41.97561009518436" lon="12.36680221245797"><ele>115.0</ele><time>2026-05-01T08:27:42.001Z</time></trkpt><trkpt lat="41.97577687929368" lon="12.366852739610705"><ele>115.0</ele><time>2026-05-01T08:27:43.001Z</time></trkpt><trkpt lat="41.97594945314337" lon="12.366912397092372"><ele>115.0</ele><time>2026-05-01T08:27:44.001Z</time></trkpt><trkpt lat="41.97612737143713" lon="12.36695180820297"><ele>115.33333333333334</ele><time>2026-05-01T08:27:45.001Z</time></trkpt><trkpt lat="41.97629882704859" lon="12.36703534511081"><ele>115.66666666666666</ele><time>2026-05-01T08:27:46.001Z</time></trkpt><trkpt lat="41.97648293295599" lon="12.367100690890004"><ele>116.0</ele><time>2026-05-01T08:27:47.001Z</time></trkpt><trkpt lat="41.97666172185229" lon="12.367164149421555"><ele>115.66666666666666</ele><time>2026-05-01T08:27:48.001Z</time></trkpt><trkpt lat="41.976841299692225" lon="12.367228559940905"><ele>115.33333333333334</ele><time>2026-05-01T08:27:49.001Z</time></trkpt><trkpt lat="41.97702457326629" lon="12.367272915874915"><ele>115.0</ele><time>2026-05-01T08:27:50.001Z</time></trkpt><trkpt lat="41.97720289622575" lon="12.367337178989164"><ele>115.0</ele><time>2026-05-01T08:27:51.001Z</time></trkpt><trkpt lat="41.977368742463746" lon="12.367399888488448"><ele>115.0</ele><time>2026-05-01T08:27:52.001Z</time></trkpt><trkpt lat="41.97752911512352" lon="12.367458981272595"><ele>115.0</ele><time>2026-05-01T08:27:53.001Z</time></trkpt><trkpt lat="41.97768249574357" lon="12.367516532241673"><ele>116.0</ele><time>2026-05-01T08:27:54.001Z</time></trkpt><trkpt lat="41.977836225532954" lon="12.367574411132544"><ele>117.0</ele><time>2026-05-01T08:27:55.001Z</time></trkpt><trkpt lat="41.97799074186721" lon="12.367625561966127"><ele>118.0</ele><time>2026-05-01T08:27:56.001Z</time></trkpt><trkpt lat="41.97814917045616" lon="12.367649849842692"><ele>118.0</ele><time>2026-05-01T08:27:57.001Z</time></trkpt><trkpt lat="41.97831200186749" lon="12.36765926440026"><ele>118.0</ele><time>2026-05-01T08:27:58.001Z</time></trkpt><trkpt lat="41.97847663715762" lon="12.367659806694217"><ele>118.0</ele><time>2026-05-01T08:27:59.001Z</time></trkpt><trkpt lat="41.97864304247127" lon="12.367655557114889"><ele>118.66666666666667</ele><time>2026-05-01T08:28:00.001Z</time></trkpt><trkpt lat="41.97880809897108" lon="12.367647125024888"><ele>119.33333333333334</ele><time>2026-05-01T08:28:01.001Z</time></trkpt><trkpt lat="41.978971555605376" lon="12.36763804722314"><ele>120.0</ele><time>2026-05-01T08:28:02.001Z</time></trkpt><trkpt lat="41.979138076723935" lon="12.367629711832874"><ele>120.33333333333334</ele><time>2026-05-01T08:28:03.001Z</time></trkpt><trkpt lat="41.97930477590342" lon="12.367626880875376"><ele>120.66666666666667</ele><time>2026-05-01T08:28:04.001Z</time></trkpt><trkpt lat="41.979474060685675" lon="12.36762019894981"><ele>121.0</ele><time>2026-05-01T08:28:05.001Z</time></trkpt><trkpt lat="41.979644870371295" lon="12.367612921242426"><ele>121.0</ele><time>2026-05-01T08:28:06.001Z</time></trkpt><trkpt lat="41.97981909382374" lon="12.367622188934744"><ele>121.0</ele><time>2026-05-01T08:28:07.001Z</time></trkpt><trkpt lat="41.97999689534266" lon="12.367610330260634"><ele>121.0</ele><time>2026-05-01T08:28:08.001Z</time></trkpt><trkpt lat="41.98017836774801" lon="12.36757167905835"><ele>122.33333333333334</ele><time>2026-05-01T08:28:09.001Z</time></trkpt><trkpt lat="41.980358103901" lon="12.367569757067438"><ele>123.66666666666666</ele><time>2026-05-01T08:28:10.001Z</time></trkpt><trkpt lat="41.98054218638029" lon="12.367533926549294"><ele>125.0</ele><time>2026-05-01T08:28:11.001Z</time></trkpt><trkpt lat="41.980733029265984" lon="12.367503326979184"><ele>125.66666666666666</ele><time>2026-05-01T08:28:12.001Z</time></trkpt><trkpt lat="41.98091881348501" lon="12.367471538192211"><ele>126.33333333333334</ele><time>2026-05-01T08:28:13.001Z</time></trkpt><trkpt lat="41.98110400543861" lon="12.367448322744833"><ele>127.0</ele><time>2026-05-01T08:28:14.001Z</time></trkpt><trkpt lat="41.98129161521867" lon="12.367440950519399"><ele>127.0</ele><time>2026-05-01T08:28:15.001Z</time></trkpt><trkpt lat="41.98147409907051" lon="12.367466781164618"><ele>127.0</ele><time>2026-05-01T08:28:16.001Z</time></trkpt><trkpt lat="41.98165836948022" lon="12.367512224620535"><ele>127.0</ele><time>2026-05-01T08:28:17.002Z</time></trkpt><trkpt lat="41.98184346349662" lon="12.367563654486114"><ele>128.0</ele><time>2026-05-01T08:28:18.002Z</time></trkpt><trkpt lat="41.98203177756589" lon="12.36763856491429"><ele>129.0</ele><time>2026-05-01T08:28:19.002Z</time></trkpt><trkpt lat="41.98223072701348" lon="12.367678086578197"><ele>130.0</ele><time>2026-05-01T08:28:20.002Z</time></trkpt><trkpt lat="41.98242742464381" lon="12.36774441471878"><ele>129.33333333333334</ele><time>2026-05-01T08:28:21.002Z</time></trkpt><trkpt lat="41.98262592367905" lon="12.367796815960519"><ele>128.66666666666666</ele><time>2026-05-01T08:28:22.002Z</time></trkpt><trkpt lat="41.98282771318656" lon="12.367840081872597"><ele>128.0</ele><time>2026-05-01T08:28:23.002Z</time></trkpt><trkpt lat="41.983015358833725" lon="12.367904555352391"><ele>128.0</ele><time>2026-05-01T08:28:24.002Z</time></trkpt><trkpt lat="41.98318354857798" lon="12.367955964874762"><ele>128.0</ele><time>2026-05-01T08:28:25Z</time></trkpt><trkpt lat="41.98332801371916" lon="12.368024063269322"><ele>128.0</ele><time>2026-05-01T08:28:26Z</time></trkpt><trkpt lat="41.98346647631543" lon="12.368113150687476"><ele>128.66666666666666</ele><time>2026-05-01T08:28:27Z</time></trkpt><trkpt lat="41.98359262075646" lon="12.36822991451559"><ele>129.33333333333334</ele><time>2026-05-01T08:28:28Z</time></trkpt><trkpt lat="41.98371063540233" lon="12.36837363823315"><ele>130.0</ele><time>2026-05-01T08:28:29Z</time></trkpt><trkpt lat="41.98381179710795" lon="12.368542653166205"><ele>130.0</ele><time>2026-05-01T08:28:30Z</time></trkpt><trkpt lat="41.98390384612089" lon="12.368727124383382"><ele>130.0</ele><time>2026-05-01T08:28:31Z</time></trkpt><trkpt lat="41.98399594785396" lon="12.368908395763142"><ele>130.0</ele><time>2026-05-01T08:28:32Z</time></trkpt><trkpt lat="41.98408793800186" lon="12.369068382452609"><ele>130.25</ele><time>2026-05-01T08:28:33Z</time></trkpt><trkpt lat="41.98418391572668" lon="12.36921059282859"><ele>130.5</ele><time>2026-05-01T08:28:34Z</time></trkpt><trkpt lat="41.984283228907636" lon="12.369320791467192"><ele>130.75</ele><time>2026-05-01T08:28:35Z</time></trkpt><trkpt lat="41.984398389739724" lon="12.369395239623737"><ele>131.0</ele><time>2026-05-01T08:28:36Z</time></trkpt><trkpt lat="41.984518958381265" lon="12.369453880473044"><ele>131.0</ele><time>2026-05-01T08:28:37Z</time></trkpt><trkpt lat="41.98465643823565" lon="12.369519761509839"><ele>131.0</ele><time>2026-05-01T08:28:38Z</time></trkpt><trkpt lat="41.98479683550113" lon="12.369570908114856"><ele>131.0</ele><time>2026-05-01T08:28:39Z</time></trkpt><trkpt lat="41.984937951426204" lon="12.369631654723278"><ele>131.0</ele><time>2026-05-01T08:28:40Z</time></trkpt><trkpt lat="41.98507466375953" lon="12.369705906027262"><ele>131.66666666666666</ele><time>2026-05-01T08:28:41Z</time></trkpt><trkpt lat="41.98522022297589" lon="12.369761524524506"><ele>132.33333333333334</ele><time>2026-05-01T08:28:42Z</time></trkpt><trkpt lat="41.985367691096066" lon="12.369804573896896"><ele>133.0</ele><time>2026-05-01T08:28:43Z</time></trkpt><trkpt lat="41.98551828962559" lon="12.369826752540316"><ele>133.0</ele><time>2026-05-01T08:28:44Z</time></trkpt><trkpt lat="41.985673546894155" lon="12.36983046157455"><ele>133.0</ele><time>2026-05-01T08:28:45Z</time></trkpt><trkpt lat="41.985833857308684" lon="12.369831843232106"><ele>133.0</ele><time>2026-05-01T08:28:46Z</time></trkpt><trkpt lat="41.9859997363143" lon="12.369839807028987"><ele>133.33333333333334</ele><time>2026-05-01T08:28:47Z</time></trkpt><trkpt lat="41.986168068120605" lon="12.369849042132978"><ele>133.66666666666666</ele><time>2026-05-01T08:28:48Z</time></trkpt><trkpt lat="41.98634051139663" lon="12.369879848018504"><ele>134.0</ele><time>2026-05-01T08:28:49Z</time></trkpt><trkpt lat="41.98652030023476" lon="12.369867963682463"><ele>133.66666666666666</ele><time>2026-05-01T08:28:50Z</time></trkpt><trkpt lat="41.9866920621157" lon="12.369898734303977"><ele>133.33333333333334</ele><time>2026-05-01T08:28:51Z</time></trkpt><trkpt lat="41.986860590063806" lon="12.369887275741872"><ele>133.0</ele><time>2026-05-01T08:28:52Z</time></trkpt><trkpt lat="41.987031385206826" lon="12.369895924076943"><ele>133.0</ele><time>2026-05-01T08:28:53Z</time></trkpt><trkpt lat="41.98720249193568" lon="12.369904728693419"><ele>133.0</ele><time>2026-05-01T08:28:54Z</time></trkpt><trkpt lat="41.98737137263746" lon="12.369917385381992"><ele>133.0</ele><time>2026-05-01T08:28:55Z</time></trkpt><trkpt lat="41.98754419481391" lon="12.369925548004028"><ele>133.33333333333334</ele><time>2026-05-01T08:28:56Z</time></trkpt><trkpt lat="41.98771432247999" lon="12.369935247902877"><ele>133.66666666666666</ele><time>2026-05-01T08:28:57Z</time></trkpt><trkpt lat="41.987885544221825" lon="12.369944621881437"><ele>134.0</ele><time>2026-05-01T08:28:58Z</time></trkpt><trkpt lat="41.98805432311207" lon="12.36995790749139"><ele>134.0</ele><time>2026-05-01T08:28:59Z</time></trkpt><trkpt lat="41.98821934094472" lon="12.369997265361484"><ele>134.0</ele><time>2026-05-01T08:29:00Z</time></trkpt><trkpt lat="41.9883861108144" lon="12.370061102635347"><ele>134.0</ele><time>2026-05-01T08:29:01Z</time></trkpt><trkpt lat="41.988555249695274" lon="12.3701466465185"><ele>134.66666666666666</ele><time>2026-05-01T08:29:02Z</time></trkpt><trkpt lat="41.988723572661904" lon="12.370253445775095"><ele>135.33333333333334</ele><time>2026-05-01T08:29:03Z</time></trkpt><trkpt lat="41.98889664562702" lon="12.370359379755358"><ele>136.0</ele><time>2026-05-01T08:29:04Z</time></trkpt><trkpt lat="41.98907107198085" lon="12.370455610226974"><ele>136.66666666666669</ele><time>2026-05-01T08:29:05Z</time></trkpt><trkpt lat="41.98924545154734" lon="12.370558433802579"><ele>137.33333333333334</ele><time>2026-05-01T08:29:06Z</time></trkpt><trkpt lat="41.989412716429136" lon="12.370661414261724"><ele>138.0</ele><time>2026-05-01T08:29:07Z</time></trkpt><trkpt lat="41.98958623351831" lon="12.370766981630188"><ele>138.0</ele><time>2026-05-01T08:29:08Z</time></trkpt><trkpt lat="41.989766013299715" lon="12.370865395307694"><ele>138.0</ele><time>2026-05-01T08:29:09Z</time></trkpt><trkpt lat="41.989943059209615" lon="12.370964466804184"><ele>138.0</ele><time>2026-05-01T08:29:10Z</time></trkpt><trkpt lat="41.99012008796299" lon="12.371066613610477"><ele>139.0</ele><time>2026-05-01T08:29:11Z</time></trkpt><trkpt lat="41.99029434950452" lon="12.37117932164149"><ele>140.0</ele><time>2026-05-01T08:29:12Z</time></trkpt><trkpt lat="41.99046414591697" lon="12.37130597109722"><ele>141.0</ele><time>2026-05-01T08:29:13Z</time></trkpt><trkpt lat="41.9906312427088" lon="12.371447557389928"><ele>141.0</ele><time>2026-05-01T08:29:14Z</time></trkpt><trkpt lat="41.9907988501614" lon="12.371600717490221"><ele>141.0</ele><time>2026-05-01T08:29:15Z</time></trkpt><trkpt lat="41.990966395941996" lon="12.371759751056688"><ele>141.0</ele><time>2026-05-01T08:29:16.001Z</time></trkpt><trkpt lat="41.99112621859542" lon="12.371939557196132"><ele>139.33333333333334</ele><time>2026-05-01T08:29:17.001Z</time></trkpt><trkpt lat="41.991292468728275" lon="12.372101645035528"><ele>137.66666666666669</ele><time>2026-05-01T08:29:18.001Z</time></trkpt><trkpt lat="41.99145514112315" lon="12.372260244700565"><ele>136.0</ele><time>2026-05-01T08:29:19.001Z</time></trkpt><trkpt lat="41.99161607663812" lon="12.372417150973805"><ele>136.33333333333334</ele><time>2026-05-01T08:29:20.001Z</time></trkpt><trkpt lat="41.991774347591786" lon="12.372544037274924"><ele>136.66666666666666</ele><time>2026-05-01T08:29:21.001Z</time></trkpt><trkpt lat="41.991910944340994" lon="12.372667771335166"><ele>137.0</ele><time>2026-05-01T08:29:22.001Z</time></trkpt><trkpt lat="41.9920520772451" lon="12.372777043142936"><ele>137.0</ele><time>2026-05-01T08:29:23.001Z</time></trkpt><trkpt lat="41.992207572070114" lon="12.372857962576793"><ele>137.0</ele><time>2026-05-01T08:29:24.001Z</time></trkpt><trkpt lat="41.99238206764307" lon="12.372917025801748"><ele>137.0</ele><time>2026-05-01T08:29:25.001Z</time></trkpt><trkpt lat="41.992564509109656" lon="12.37296594057869"><ele>138.33333333333331</ele><time>2026-05-01T08:29:26.001Z</time></trkpt><trkpt lat="41.992753888443744" lon="12.373015366736627"><ele>139.66666666666666</ele><time>2026-05-01T08:29:27.001Z</time></trkpt><trkpt lat="41.99293510694977" lon="12.373062191399972"><ele>141.0</ele><time>2026-05-01T08:29:28.001Z</time></trkpt><trkpt lat="41.99311236429862" lon="12.373117295689283"><ele>141.66666666666666</ele><time>2026-05-01T08:29:29.001Z</time></trkpt><trkpt lat="41.99328494966076" lon="12.373164916388502"><ele>142.33333333333331</ele><time>2026-05-01T08:29:30.001Z</time></trkpt><trkpt lat="41.99344861412229" lon="12.373207556323432"><ele>143.0</ele><time>2026-05-01T08:29:31.001Z</time></trkpt><trkpt lat="41.99359876419923" lon="12.373249780635785"><ele>143.0</ele><time>2026-05-01T08:29:32.001Z</time></trkpt><trkpt lat="41.99373595647637" lon="12.373286258100784"><ele>143.0</ele><time>2026-05-01T08:29:33.001Z</time></trkpt><trkpt lat="41.99388877038811" lon="12.373313217777445"><ele>143.0</ele><time>2026-05-01T08:29:34.001Z</time></trkpt><trkpt lat="41.99403550404603" lon="12.373315395053368"><ele>143.0</ele><time>2026-05-01T08:29:35.001Z</time></trkpt><trkpt lat="41.99417251507062" lon="12.373293313315024"><ele>143.0</ele><time>2026-05-01T08:29:36.001Z</time></trkpt><trkpt lat="41.994300661512916" lon="12.37325555694337"><ele>143.0</ele><time>2026-05-01T08:29:37.001Z</time></trkpt><trkpt lat="41.99442619833243" lon="12.373197039014926"><ele>143.0</ele><time>2026-05-01T08:29:38.001Z</time></trkpt><trkpt lat="41.9945280499684" lon="12.373137253269773"><ele>143.0</ele><time>2026-05-01T08:29:39.001Z</time></trkpt><trkpt lat="41.994613535475985" lon="12.37309038863543"><ele>143.0</ele><time>2026-05-01T08:29:40.001Z</time></trkpt><trkpt lat="41.994693052939226" lon="12.373062718696499"><ele>143.0</ele><time>2026-05-01T08:29:41.001Z</time></trkpt><trkpt lat="41.99475895375932" lon="12.37301301251495"><ele>143.0</ele><time>2026-05-01T08:29:42.001Z</time></trkpt><trkpt lat="41.99483100825666" lon="12.372977517983953"><ele>143.0</ele><time>2026-05-01T08:29:43.001Z</time></trkpt><trkpt lat="41.994915136491656" lon="12.37294071124597"><ele>143.0</ele><time>2026-05-01T08:29:44.001Z</time></trkpt><trkpt lat="41.99500828423958" lon="12.372894611857562"><ele>143.0</ele><time>2026-05-01T08:29:45.001Z</time></trkpt><trkpt lat="41.995110093139964" lon="12.372837781352093"><ele>144.25</ele><time>2026-05-01T08:29:46.001Z</time></trkpt><trkpt lat="41.99522064635159" lon="12.372791491190169"><ele>145.5</ele><time>2026-05-01T08:29:47.001Z</time></trkpt><trkpt lat="41.99532500702959" lon="12.372760185998926"><ele>146.75</ele><time>2026-05-01T08:29:48.001Z</time></trkpt><trkpt lat="41.995439193368554" lon="12.372738978404078"><ele>148.0</ele><time>2026-05-01T08:29:49.001Z</time></trkpt><trkpt lat="41.995555836090524" lon="12.372741174678756"><ele>148.0</ele><time>2026-05-01T08:29:50.001Z</time></trkpt><trkpt lat="41.99568061785178" lon="12.372762318556964"><ele>148.0</ele><time>2026-05-01T08:29:51.001Z</time></trkpt><trkpt lat="41.99580229991593" lon="12.372799109675904"><ele>148.0</ele><time>2026-05-01T08:29:52.001Z</time></trkpt><trkpt lat="41.99592131435611" lon="12.3728352427763"><ele>148.0</ele><time>2026-05-01T08:29:53.001Z</time></trkpt><trkpt lat="41.99602003817935" lon="12.372878984228585"><ele>148.0</ele><time>2026-05-01T08:29:54.001Z</time></trkpt><trkpt lat="41.996110537944624" lon="12.372923758111881"><ele>148.0</ele><time>2026-05-01T08:29:55.001Z</time></trkpt><trkpt lat="41.99620132104468" lon="12.372971371298682"><ele>148.0</ele><time>2026-05-01T08:29:56.001Z</time></trkpt><trkpt lat="41.99628199092676" lon="12.373032780550185"><ele>148.0</ele><time>2026-05-01T08:29:57.001Z</time></trkpt><trkpt lat="41.996349428743635" lon="12.373104357231648"><ele>148.0</ele><time>2026-05-01T08:29:58.001Z</time></trkpt><trkpt lat="41.996409123180804" lon="12.373185277311958"><ele>148.0</ele><time>2026-05-01T08:29:59.001Z</time></trkpt><trkpt lat="41.996468810349796" lon="12.373263303631765"><ele>148.0</ele><time>2026-05-01T08:30:00.001Z</time></trkpt><trkpt lat="41.99652657397491" lon="12.373344986056367"><ele>148.0</ele><time>2026-05-01T08:30:01.001Z</time></trkpt><trkpt lat="41.99657536821446" lon="12.37343999487046"><ele>148.0</ele><time>2026-05-01T08:30:02.001Z</time></trkpt><trkpt lat="41.99661348975054" lon="12.373541628434204"><ele>148.0</ele><time>2026-05-01T08:30:03.001Z</time></trkpt><trkpt lat="41.996647542051754" lon="12.3736504843891"><ele>148.0</ele><time>2026-05-01T08:30:04.001Z</time></trkpt><trkpt lat="41.99667888529451" lon="12.373765617907338"><ele>148.8</ele><time>2026-05-01T08:30:05.001Z</time></trkpt><trkpt lat="41.996709710223904" lon="12.373881544755653"><ele>149.60000000000002</ele><time>2026-05-01T08:30:06.001Z</time></trkpt><trkpt lat="41.99676311906487" lon="12.373980222629749"><ele>150.39999999999998</ele><time>2026-05-01T08:30:07.001Z</time></trkpt><trkpt lat="41.996837639192655" lon="12.37405922757891"><ele>151.2</ele><time>2026-05-01T08:30:08.001Z</time></trkpt><trkpt lat="41.99691798478005" lon="12.374133536847141"><ele>152.0</ele><time>2026-05-01T08:30:09.001Z</time></trkpt><trkpt lat="41.997000842501905" lon="12.374201252122282"><ele>152.0</ele><time>2026-05-01T08:30:10.001Z</time></trkpt><trkpt lat="41.99707992055867" lon="12.374280875422349"><ele>152.0</ele><time>2026-05-01T08:30:11.001Z</time></trkpt><trkpt lat="41.9971656379033" lon="12.37435491153514"><ele>152.0</ele><time>2026-05-01T08:30:12.001Z</time></trkpt><trkpt lat="41.99724401876799" lon="12.374422611013824"><ele>152.0</ele><time>2026-05-01T08:30:13.001Z</time></trkpt><trkpt lat="41.997333264966244" lon="12.37449969507528"><ele>152.0</ele><time>2026-05-01T08:30:14.001Z</time></trkpt><trkpt lat="41.997441228369695" lon="12.374592464764552"><ele>151.79999999999998</ele><time>2026-05-01T08:30:15.001Z</time></trkpt><trkpt lat="41.99752775965627" lon="12.374665517652444"><ele>151.6</ele><time>2026-05-01T08:30:16.001Z</time></trkpt><trkpt lat="41.99761247662162" lon="12.374740817064753"><ele>151.39999999999998</ele><time>2026-05-01T08:30:17.001Z</time></trkpt><trkpt lat="41.99769043568068" lon="12.374811610899064"><ele>151.2</ele><time>2026-05-01T08:30:18.001Z</time></trkpt><trkpt lat="41.99776842807378" lon="12.374869602364042"><ele>151.0</ele><time>2026-05-01T08:30:19.001Z</time></trkpt><trkpt lat="41.99785789406161" lon="12.374870061572066"><ele>151.0</ele><time>2026-05-01T08:30:20.001Z</time></trkpt><trkpt lat="41.99795259181583" lon="12.374879800514382"><ele>151.0</ele><time>2026-05-01T08:30:21.001Z</time></trkpt><trkpt lat="41.99803422261864" lon="12.374873710163756"><ele>151.0</ele><time>2026-05-01T08:30:22.001Z</time></trkpt><trkpt lat="41.99812557007326" lon="12.374857801051654"><ele>151.0</ele><time>2026-05-01T08:30:23.001Z</time></trkpt><trkpt lat="41.99822223657932" lon="12.374862843286119"><ele>151.0</ele><time>2026-05-01T08:30:24.001Z</time></trkpt><trkpt lat="41.99831777913585" lon="12.374825007937684"><ele>150.6</ele><time>2026-05-01T08:30:25.001Z</time></trkpt><trkpt lat="41.99841974583762" lon="12.374815994466795"><ele>150.2</ele><time>2026-05-01T08:30:26.001Z</time></trkpt><trkpt lat="41.998518032230145" lon="12.37479845322566"><ele>149.8</ele><time>2026-05-01T08:30:27.001Z</time></trkpt><trkpt lat="41.99861274552627" lon="12.374793537135778"><ele>149.4</ele><time>2026-05-01T08:30:28.002Z</time></trkpt><trkpt lat="41.998709924994756" lon="12.374764985234536"><ele>149.0</ele><time>2026-05-01T08:30:29.002Z</time></trkpt><trkpt lat="41.998823197162906" lon="12.374767464242753"><ele>149.0</ele><time>2026-05-01T08:30:30.002Z</time></trkpt><trkpt lat="41.99893693630744" lon="12.37474277851559"><ele>149.0</ele><time>2026-05-01T08:30:31Z</time></trkpt><trkpt lat="41.99905740192104" lon="12.374676548660254"><ele>149.0</ele><time>2026-05-01T08:30:32Z</time></trkpt><trkpt lat="41.999165829623145" lon="12.374653035919843"><ele>149.0</ele><time>2026-05-01T08:30:33Z</time></trkpt><trkpt lat="41.99927965753328" lon="12.374607420061926"><ele>150.0</ele><time>2026-05-01T08:30:34Z</time></trkpt><trkpt lat="41.99938508336538" lon="12.37455220560358"><ele>151.0</ele><time>2026-05-01T08:30:35Z</time></trkpt><trkpt lat="41.99948467859866" lon="12.374503481946396"><ele>152.0</ele><time>2026-05-01T08:30:36Z</time></trkpt><trkpt lat="41.99958595292353" lon="12.374467703293853"><ele>153.0</ele><time>2026-05-01T08:30:37Z</time></trkpt><trkpt lat="41.9996855851257" lon="12.374458203961254"><ele>154.0</ele><time>2026-05-01T08:30:38Z</time></trkpt><trkpt lat="41.9997841663956" lon="12.374450992294193"><ele>154.0</ele><time>2026-05-01T08:30:39Z</time></trkpt><trkpt lat="41.999884438444916" lon="12.37445875484493"><ele>154.0</ele><time>2026-05-01T08:30:40Z</time></trkpt><trkpt lat="41.999978282407774" lon="12.374489198726488"><ele>154.0</ele><time>2026-05-01T08:30:41Z</time></trkpt><trkpt lat="42.00007369902596" lon="12.374545413565043"><ele>154.0</ele><time>2026-05-01T08:30:42Z</time></trkpt><trkpt lat="42.00016570292991" lon="12.37461475841597"><ele>154.0</ele><time>2026-05-01T08:30:43Z</time></trkpt><trkpt lat="42.00025352017213" lon="12.374692716327282"><ele>153.2</ele><time>2026-05-01T08:30:44Z</time></trkpt><trkpt lat="42.000335561631815" lon="12.374791896112626"><ele>152.4</ele><time>2026-05-01T08:30:45Z</time></trkpt><trkpt lat="42.000419644690595" lon="12.374883590527556"><ele>151.6</ele><time>2026-05-01T08:30:46Z</time></trkpt><trkpt lat="42.000501670363896" lon="12.374986004916883"><ele>150.8</ele><time>2026-05-01T08:30:47Z</time></trkpt><trkpt lat="42.00057158350635" lon="12.375105812662362"><ele>150.0</ele><time>2026-05-01T08:30:48Z</time></trkpt><trkpt lat="42.00064966551982" lon="12.375215808768605"><ele>150.0</ele><time>2026-05-01T08:30:49Z</time></trkpt><trkpt lat="42.00072904276982" lon="12.37532886316763"><ele>150.0</ele><time>2026-05-01T08:30:50Z</time></trkpt><trkpt lat="42.000809632416846" lon="12.375447680960487"><ele>150.0</ele><time>2026-05-01T08:30:51Z</time></trkpt><trkpt lat="42.00088672134919" lon="12.375580834579193"><ele>150.0</ele><time>2026-05-01T08:30:52Z</time></trkpt><trkpt lat="42.00096343063139" lon="12.375691456777357"><ele>151.25</ele><time>2026-05-01T08:30:53Z</time></trkpt><trkpt lat="42.0010421488864" lon="12.375797003816082"><ele>152.5</ele><time>2026-05-01T08:30:54Z</time></trkpt><trkpt lat="42.00111800810096" lon="12.375919353902745"><ele>153.75</ele><time>2026-05-01T08:30:55Z</time></trkpt><trkpt lat="42.00119742375893" lon="12.376035139852965"><ele>155.0</ele><time>2026-05-01T08:30:56Z</time></trkpt><trkpt lat="42.00127779046292" lon="12.376152774333034"><ele>155.0</ele><time>2026-05-01T08:30:57Z</time></trkpt><trkpt lat="42.00135951660606" lon="12.376273678554249"><ele>155.0</ele><time>2026-05-01T08:30:58Z</time></trkpt><trkpt lat="42.00151295882206" lon="12.376515614876562"><ele>155.0</ele><time>2026-05-01T08:31:00Z</time></trkpt><trkpt lat="42.00158923023162" lon="12.37663422799486"><ele>156.0</ele><time>2026-05-01T08:31:01Z</time></trkpt><trkpt lat="42.00167025944871" lon="12.376750461230088"><ele>157.0</ele><time>2026-05-01T08:31:02Z</time></trkpt><trkpt lat="42.00175110651319" lon="12.376861644969837"><ele>158.0</ele><time>2026-05-01T08:31:03Z</time></trkpt><trkpt lat="42.001828539986406" lon="12.376976961412888"><ele>159.0</ele><time>2026-05-01T08:31:04Z</time></trkpt><trkpt lat="42.00190570134245" lon="12.377084980421103"><ele>159.25</ele><time>2026-05-01T08:31:05Z</time></trkpt><trkpt lat="42.0019798545571" lon="12.3772003119338"><ele>159.5</ele><time>2026-05-01T08:31:06Z</time></trkpt><trkpt lat="42.002038258678" lon="12.377329654407413"><ele>159.75</ele><time>2026-05-01T08:31:07Z</time></trkpt><trkpt lat="42.002120642980415" lon="12.377435197589792"><ele>160.0</ele><time>2026-05-01T08:31:08Z</time></trkpt><trkpt lat="42.00218504392658" lon="12.37756545373249"><ele>160.0</ele><time>2026-05-01T08:31:09Z</time></trkpt><trkpt lat="42.00225888376463" lon="12.37768716303845"><ele>160.0</ele><time>2026-05-01T08:31:10Z</time></trkpt><trkpt lat="42.00232150308764" lon="12.377820513980623"><ele>160.0</ele><time>2026-05-01T08:31:11Z</time></trkpt><trkpt lat="42.00240896858249" lon="12.377958290924425"><ele>160.0</ele><time>2026-05-01T08:31:12Z</time></trkpt><trkpt lat="42.00248926559468" lon="12.37808547658049"><ele>161.0</ele><time>2026-05-01T08:31:13Z</time></trkpt><trkpt lat="42.0025823203728" lon="12.378221985869788"><ele>162.0</ele><time>2026-05-01T08:31:14Z</time></trkpt><trkpt lat="42.00268274384353" lon="12.378345444342534"><ele>163.0</ele><time>2026-05-01T08:31:15Z</time></trkpt><trkpt lat="42.00279003143203" lon="12.378460148132516"><ele>164.0</ele><time>2026-05-01T08:31:16Z</time></trkpt><trkpt lat="42.00290765083197" lon="12.37856783868021"><ele>164.0</ele><time>2026-05-01T08:31:17Z</time></trkpt><trkpt lat="42.003024179765426" lon="12.378666240274994"><ele>164.0</ele><time>2026-05-01T08:31:18Z</time></trkpt><trkpt lat="42.003154168308306" lon="12.378755128355893"><ele>164.0</ele><time>2026-05-01T08:31:19Z</time></trkpt><trkpt lat="42.00326445075422" lon="12.378850917402119"><ele>164.0</ele><time>2026-05-01T08:31:20Z</time></trkpt><trkpt lat="42.00337560970249" lon="12.378926644368798"><ele>163.5</ele><time>2026-05-01T08:31:21.001Z</time></trkpt><trkpt lat="42.00346891329882" lon="12.37898422066937"><ele>163.0</ele><time>2026-05-01T08:31:22.001Z</time></trkpt><trkpt lat="42.003549663481465" lon="12.379051426798434"><ele>162.5</ele><time>2026-05-01T08:31:23.001Z</time></trkpt><trkpt lat="42.00362233311917" lon="12.379126619758843"><ele>162.0</ele><time>2026-05-01T08:31:24.001Z</time></trkpt><trkpt lat="42.003688588687574" lon="12.37920031301767"><ele>161.5</ele><time>2026-05-01T08:31:25.001Z</time></trkpt><trkpt lat="42.00374001157116" lon="12.37926906091809"><ele>161.0</ele><time>2026-05-01T08:31:26.001Z</time></trkpt><trkpt lat="42.00379621970539" lon="12.379385784555485"><ele>161.0</ele><time>2026-05-01T08:31:28.001Z</time></trkpt><trkpt lat="42.00388360496253" lon="12.379293566172048"><ele>161.0</ele><time>2026-05-01T08:31:29.001Z</time></trkpt><trkpt lat="42.00395693921289" lon="12.37929230967891"><ele>161.0</ele><time>2026-05-01T08:31:30.001Z</time></trkpt><trkpt lat="42.00404097126194" lon="12.379257639608607"><ele>161.0</ele><time>2026-05-01T08:31:31.001Z</time></trkpt><trkpt lat="42.00414834503348" lon="12.379242934624765"><ele>161.0</ele><time>2026-05-01T08:31:32.001Z</time></trkpt><trkpt lat="42.004264545945595" lon="12.379236249966636"><ele>160.75</ele><time>2026-05-01T08:31:33.001Z</time></trkpt><trkpt lat="42.00438072342946" lon="12.379216630958837"><ele>160.5</ele><time>2026-05-01T08:31:34.001Z</time></trkpt><trkpt lat="42.0045005740992" lon="12.379176960251609"><ele>160.25</ele><time>2026-05-01T08:31:35.001Z</time></trkpt><trkpt lat="42.00461478647409" lon="12.37911659284827"><ele>160.0</ele><time>2026-05-01T08:31:36.001Z</time></trkpt><trkpt lat="42.004694356047956" lon="12.379020777694391"><ele>160.0</ele><time>2026-05-01T08:31:37.001Z</time></trkpt><trkpt lat="42.00476033445683" lon="12.3789096835189"><ele>160.0</ele><time>2026-05-01T08:31:38.001Z</time></trkpt><trkpt lat="42.0048432318258" lon="12.378857049519807"><ele>160.0</ele><time>2026-05-01T08:31:39.001Z</time></trkpt><trkpt lat="42.00491941605777" lon="12.378808430317891"><ele>160.0</ele><time>2026-05-01T08:31:40.001Z</time></trkpt><trkpt lat="42.005007489141335" lon="12.378786371523308"><ele>160.0</ele><time>2026-05-01T08:31:41.001Z</time></trkpt><trkpt lat="42.00510248839527" lon="12.378758132834097"><ele>160.25</ele><time>2026-05-01T08:31:42.001Z</time></trkpt><trkpt lat="42.005207131510645" lon="12.378819634414258"><ele>160.5</ele><time>2026-05-01T08:31:43.001Z</time></trkpt><trkpt lat="42.005314936307904" lon="12.378836905356058"><ele>160.75</ele><time>2026-05-01T08:31:44.001Z</time></trkpt><trkpt lat="42.005431057366785" lon="12.378858680238775"><ele>161.0</ele><time>2026-05-01T08:31:45.001Z</time></trkpt><trkpt lat="42.00555184657826" lon="12.378873062032739"><ele>161.0</ele><time>2026-05-01T08:31:46.001Z</time></trkpt><trkpt lat="42.00567100062478" lon="12.378883893396512"><ele>161.0</ele><time>2026-05-01T08:31:47.001Z</time></trkpt><trkpt lat="42.00579225381634" lon="12.378875646639711"><ele>161.0</ele><time>2026-05-01T08:31:48.001Z</time></trkpt><trkpt lat="42.00592331238896" lon="12.378857279037433"><ele>161.0</ele><time>2026-05-01T08:31:49.001Z</time></trkpt><trkpt lat="42.00605032007831" lon="12.378824706352308"><ele>160.5</ele><time>2026-05-01T08:31:50.001Z</time></trkpt><trkpt lat="42.00617941804636" lon="12.378771291165497"><ele>160.0</ele><time>2026-05-01T08:31:51.001Z</time></trkpt><trkpt lat="42.00630586048971" lon="12.378700086375659"><ele>159.5</ele><time>2026-05-01T08:31:52.001Z</time></trkpt><trkpt lat="42.00644564092011" lon="12.37862588769528"><ele>159.0</ele><time>2026-05-01T08:31:53.001Z</time></trkpt><trkpt lat="42.00659095425138" lon="12.378548551293132"><ele>158.66666666666666</ele><time>2026-05-01T08:31:54.001Z</time></trkpt><trkpt lat="42.00674548929356" lon="12.378464136516198"><ele>158.33333333333331</ele><time>2026-05-01T08:31:55.001Z</time></trkpt><trkpt lat="42.00690248211752" lon="12.378394958353487"><ele>158.0</ele><time>2026-05-01T08:31:56.001Z</time></trkpt><trkpt lat="42.00706496574485" lon="12.378307768476239"><ele>158.0</ele><time>2026-05-01T08:31:57.001Z</time></trkpt><trkpt lat="42.00721947729103" lon="12.378206955655115"><ele>158.0</ele><time>2026-05-01T08:31:58.001Z</time></trkpt><trkpt lat="42.00738051230804" lon="12.378105920286162"><ele>158.0</ele><time>2026-05-01T08:31:59.001Z</time></trkpt><trkpt lat="42.007534281973236" lon="12.378000332860237"><ele>157.33333333333331</ele><time>2026-05-01T08:32:00.001Z</time></trkpt><trkpt lat="42.00768488557894" lon="12.377891368597302"><ele>156.66666666666666</ele><time>2026-05-01T08:32:01.001Z</time></trkpt><trkpt lat="42.00783344598468" lon="12.377793763814156"><ele>156.0</ele><time>2026-05-01T08:32:02.001Z</time></trkpt><trkpt lat="42.00797089096742" lon="12.37767986591853"><ele>156.0</ele><time>2026-05-01T08:32:03.001Z</time></trkpt><trkpt lat="42.00810031502605" lon="12.377554249427982"><ele>156.0</ele><time>2026-05-01T08:32:04.001Z</time></trkpt><trkpt lat="42.00822122630985" lon="12.377417126567693"><ele>156.0</ele><time>2026-05-01T08:32:05.001Z</time></trkpt><trkpt lat="42.00832972994753" lon="12.377267909679578"><ele>154.0</ele><time>2026-05-01T08:32:06.001Z</time></trkpt><trkpt lat="42.008427429878516" lon="12.377093089743571"><ele>152.0</ele><time>2026-05-01T08:32:07.001Z</time></trkpt><trkpt lat="42.008510372549964" lon="12.376897722263605"><ele>150.0</ele><time>2026-05-01T08:32:08.001Z</time></trkpt><trkpt lat="42.00857340995647" lon="12.376690526427392"><ele>150.0</ele><time>2026-05-01T08:32:09.001Z</time></trkpt><trkpt lat="42.00861774290359" lon="12.376471681390445"><ele>150.0</ele><time>2026-05-01T08:32:10.001Z</time></trkpt><trkpt lat="42.00865284422979" lon="12.376245964146998"><ele>150.0</ele><time>2026-05-01T08:32:11.001Z</time></trkpt><trkpt lat="42.00868620115839" lon="12.376011450030804"><ele>148.33333333333334</ele><time>2026-05-01T08:32:12.001Z</time></trkpt><trkpt lat="42.008723387569354" lon="12.375765629802466"><ele>146.66666666666669</ele><time>2026-05-01T08:32:13.001Z</time></trkpt><trkpt lat="42.00876310730748" lon="12.375524644872124"><ele>145.0</ele><time>2026-05-01T08:32:14.001Z</time></trkpt><trkpt lat="42.008787072293664" lon="12.375280068905553"><ele>145.0</ele><time>2026-05-01T08:32:15.001Z</time></trkpt><trkpt lat="42.008817675481644" lon="12.375028192071174"><ele>145.0</ele><time>2026-05-01T08:32:16.001Z</time></trkpt><trkpt lat="42.00886475310837" lon="12.37478484306425"><ele>145.0</ele><time>2026-05-01T08:32:17.001Z</time></trkpt><trkpt lat="42.00889877810708" lon="12.374540451877936"><ele>147.0</ele><time>2026-05-01T08:32:18.001Z</time></trkpt><trkpt lat="42.00892424327494" lon="12.374293550206168"><ele>149.0</ele><time>2026-05-01T08:32:19.001Z</time></trkpt><trkpt lat="42.00895461287191" lon="12.374038316011633"><ele>151.0</ele><time>2026-05-01T08:32:20.001Z</time></trkpt><trkpt lat="42.008968212038276" lon="12.37380175614616"><ele>151.0</ele><time>2026-05-01T08:32:21.001Z</time></trkpt><trkpt lat="42.008962444325576" lon="12.37356220174845"><ele>151.0</ele><time>2026-05-01T08:32:22.001Z</time></trkpt><trkpt lat="42.0089651547169" lon="12.373315903977486"><ele>151.0</ele><time>2026-05-01T08:32:23.001Z</time></trkpt><trkpt lat="42.00897148622049" lon="12.373068039118749"><ele>150.66666666666669</ele><time>2026-05-01T08:32:24.001Z</time></trkpt><trkpt lat="42.00896677961632" lon="12.372821652515766"><ele>150.33333333333334</ele><time>2026-05-01T08:32:25.001Z</time></trkpt><trkpt lat="42.008969533395444" lon="12.372567157765758"><ele>150.0</ele><time>2026-05-01T08:32:26.001Z</time></trkpt><trkpt lat="42.00898075077491" lon="12.372313401145522"><ele>152.66666666666666</ele><time>2026-05-01T08:32:27.001Z</time></trkpt><trkpt lat="42.00898089103305" lon="12.372059929059414"><ele>155.33333333333331</ele><time>2026-05-01T08:32:28.001Z</time></trkpt><trkpt lat="42.00898680235795" lon="12.371799351561913"><ele>158.0</ele><time>2026-05-01T08:32:29.001Z</time></trkpt><trkpt lat="42.008997209455416" lon="12.371537724890741"><ele>159.0</ele><time>2026-05-01T08:32:30.002Z</time></trkpt><trkpt lat="42.00900758425455" lon="12.371277900535159"><ele>160.0</ele><time>2026-05-01T08:32:31.002Z</time></trkpt><trkpt lat="42.00902535913054" lon="12.37101622351935"><ele>161.0</ele><time>2026-05-01T08:32:32.002Z</time></trkpt><trkpt lat="42.00905510509015" lon="12.370757351160657"><ele>161.0</ele><time>2026-05-01T08:32:33.002Z</time></trkpt><trkpt lat="42.00909480095149" lon="12.370500857254749"><ele>161.0</ele><time>2026-05-01T08:32:34.002Z</time></trkpt><trkpt lat="42.00914481121414" lon="12.37024997551345"><ele>161.0</ele><time>2026-05-01T08:32:35.002Z</time></trkpt><trkpt lat="42.00920314020008" lon="12.370000912295156"><ele>161.0</ele><time>2026-05-01T08:32:36.002Z</time></trkpt><trkpt lat="42.009277199768256" lon="12.36975414262629"><ele>161.0</ele><time>2026-05-01T08:32:37Z</time></trkpt><trkpt lat="42.00935849150359" lon="12.36950895861284"><ele>161.0</ele><time>2026-05-01T08:32:38Z</time></trkpt><trkpt lat="42.00944719800769" lon="12.36926588992964"><ele>160.33333333333331</ele><time>2026-05-01T08:32:39Z</time></trkpt><trkpt lat="42.00953696006347" lon="12.369053334020094"><ele>159.66666666666666</ele><time>2026-05-01T08:32:40Z</time></trkpt><trkpt lat="42.009632973319135" lon="12.368849388785847"><ele>159.0</ele><time>2026-05-01T08:32:41Z</time></trkpt><trkpt lat="42.009740044811295" lon="12.368659083720724"><ele>157.66666666666666</ele><time>2026-05-01T08:32:42Z</time></trkpt><trkpt lat="42.009840409041544" lon="12.368477592487944"><ele>156.33333333333331</ele><time>2026-05-01T08:32:43Z</time></trkpt><trkpt lat="42.00994088477088" lon="12.368308610110967"><ele>155.0</ele><time>2026-05-01T08:32:44Z</time></trkpt><trkpt lat="42.01004899571166" lon="12.368148477267134"><ele>154.0</ele><time>2026-05-01T08:32:45Z</time></trkpt><trkpt lat="42.01015556105333" lon="12.368007402394243"><ele>153.0</ele><time>2026-05-01T08:32:46Z</time></trkpt><trkpt lat="42.01026363792744" lon="12.367876779887663"><ele>152.0</ele><time>2026-05-01T08:32:47Z</time></trkpt><trkpt lat="42.010360814078126" lon="12.367763880168106"><ele>151.0</ele><time>2026-05-01T08:32:48Z</time></trkpt><trkpt lat="42.01046311144592" lon="12.367664351503109"><ele>151.0</ele><time>2026-05-01T08:32:49Z</time></trkpt><trkpt lat="42.010545614417666" lon="12.367562925462884"><ele>151.0</ele><time>2026-05-01T08:32:50Z</time></trkpt><trkpt lat="42.01061989737546" lon="12.367465836925895"><ele>151.0</ele><time>2026-05-01T08:32:51Z</time></trkpt><trkpt lat="42.01068911952827" lon="12.367376715386266"><ele>151.0</ele><time>2026-05-01T08:32:52Z</time></trkpt><trkpt lat="42.01076607531818" lon="12.367279619983979"><ele>151.0</ele><time>2026-05-01T08:32:53Z</time></trkpt><trkpt lat="42.01084902561928" lon="12.367198054892201"><ele>151.5</ele><time>2026-05-01T08:32:54Z</time></trkpt><trkpt lat="42.010931272769774" lon="12.36713054019594"><ele>152.0</ele><time>2026-05-01T08:32:55Z</time></trkpt><trkpt lat="42.01101555605471" lon="12.367060908605708"><ele>152.5</ele><time>2026-05-01T08:32:56Z</time></trkpt><trkpt lat="42.01119253885631" lon="12.366888682766245"><ele>153.0</ele><time>2026-05-01T08:32:58Z</time></trkpt><trkpt lat="42.011296324375756" lon="12.366809513669573"><ele>153.0</ele><time>2026-05-01T08:32:59Z</time></trkpt><trkpt lat="42.011397159156935" lon="12.366714178548852"><ele>153.0</ele><time>2026-05-01T08:33:00Z</time></trkpt><trkpt lat="42.011499562022586" lon="12.366610640876464"><ele>153.0</ele><time>2026-05-01T08:33:01Z</time></trkpt><trkpt lat="42.011612989695074" lon="12.366507441240397"><ele>153.0</ele><time>2026-05-01T08:33:02Z</time></trkpt><trkpt lat="42.01173119238631" lon="12.366402101851593"><ele>154.0</ele><time>2026-05-01T08:33:03Z</time></trkpt><trkpt lat="42.01185208303892" lon="12.366295559857068"><ele>155.0</ele><time>2026-05-01T08:33:04Z</time></trkpt><trkpt lat="42.01196611300131" lon="12.366186659403613"><ele>156.0</ele><time>2026-05-01T08:33:05Z</time></trkpt><trkpt lat="42.01208640195907" lon="12.366069710560415"><ele>157.0</ele><time>2026-05-01T08:33:06Z</time></trkpt><trkpt lat="42.0122092268399" lon="12.365943765216324"><ele>157.0</ele><time>2026-05-01T08:33:07Z</time></trkpt><trkpt lat="42.01233318342641" lon="12.365808740483294"><ele>157.0</ele><time>2026-05-01T08:33:08Z</time></trkpt><trkpt lat="42.01246107975372" lon="12.365665375987813"><ele>157.0</ele><time>2026-05-01T08:33:09Z</time></trkpt><trkpt lat="42.012594252849816" lon="12.365514967382767"><ele>154.33333333333334</ele><time>2026-05-01T08:33:10Z</time></trkpt><trkpt lat="42.012728262608256" lon="12.365360470558208"><ele>151.66666666666666</ele><time>2026-05-01T08:33:11Z</time></trkpt><trkpt lat="42.012856379256114" lon="12.365193609375009"><ele>149.0</ele><time>2026-05-01T08:33:12Z</time></trkpt><trkpt lat="42.01298834180473" lon="12.365018787842649"><ele>149.0</ele><time>2026-05-01T08:33:13Z</time></trkpt><trkpt lat="42.013129805188626" lon="12.364841368542915"><ele>149.0</ele><time>2026-05-01T08:33:14Z</time></trkpt><trkpt lat="42.013280855774035" lon="12.3646710710285"><ele>149.0</ele><time>2026-05-01T08:33:15Z</time></trkpt><trkpt lat="42.013439001286585" lon="12.36451510239239"><ele>148.0</ele><time>2026-05-01T08:33:16Z</time></trkpt><trkpt lat="42.013597147693176" lon="12.364379577527806"><ele>147.0</ele><time>2026-05-01T08:33:17Z</time></trkpt><trkpt lat="42.01374525988039" lon="12.364254966327055"><ele>146.0</ele><time>2026-05-01T08:33:18Z</time></trkpt><trkpt lat="42.013886104973025" lon="12.364132568897018"><ele>146.0</ele><time>2026-05-01T08:33:19Z</time></trkpt><trkpt lat="42.014019398593895" lon="12.364009595245038"><ele>146.0</ele><time>2026-05-01T08:33:20Z</time></trkpt><trkpt lat="42.01414762629785" lon="12.363869899619106"><ele>146.0</ele><time>2026-05-01T08:33:21Z</time></trkpt><trkpt lat="42.01426554173397" lon="12.363714380426195"><ele>144.66666666666666</ele><time>2026-05-01T08:33:22Z</time></trkpt><trkpt lat="42.014375463320675" lon="12.363554019578775"><ele>143.33333333333334</ele><time>2026-05-01T08:33:23Z</time></trkpt><trkpt lat="42.014486338793105" lon="12.3633985912344"><ele>142.0</ele><time>2026-05-01T08:33:24Z</time></trkpt><trkpt lat="42.014593768438246" lon="12.363236679243737"><ele>142.0</ele><time>2026-05-01T08:33:25Z</time></trkpt><trkpt lat="42.014695636247254" lon="12.363082078266672"><ele>142.0</ele><time>2026-05-01T08:33:26Z</time></trkpt><trkpt lat="42.01479405598291" lon="12.362926046508287"><ele>142.0</ele><time>2026-05-01T08:33:27Z</time></trkpt><trkpt lat="42.014891055551885" lon="12.362777813094239"><ele>141.5</ele><time>2026-05-01T08:33:28.001Z</time></trkpt><trkpt lat="42.01498371181369" lon="12.362639584400918"><ele>141.0</ele><time>2026-05-01T08:33:29.001Z</time></trkpt><trkpt lat="42.01507550256244" lon="12.362506960915013"><ele>140.5</ele><time>2026-05-01T08:33:30.001Z</time></trkpt><trkpt lat="42.01517688490253" lon="12.362378609896593"><ele>140.0</ele><time>2026-05-01T08:33:31.001Z</time></trkpt><trkpt lat="42.015289164634574" lon="12.36225284346228"><ele>139.75</ele><time>2026-05-01T08:33:32.001Z</time></trkpt><trkpt lat="42.01540211051155" lon="12.362137953868372"><ele>139.5</ele><time>2026-05-01T08:33:33.001Z</time></trkpt><trkpt lat="42.01551867915199" lon="12.362025091646235"><ele>139.25</ele><time>2026-05-01T08:33:34.001Z</time></trkpt><trkpt lat="42.01563380205902" lon="12.361911385208625"><ele>139.0</ele><time>2026-05-01T08:33:35.001Z</time></trkpt><trkpt lat="42.01575277776361" lon="12.36179913244789"><ele>139.5</ele><time>2026-05-01T08:33:36.001Z</time></trkpt><trkpt lat="42.0158757577282" lon="12.361687103716248"><ele>140.0</ele><time>2026-05-01T08:33:37.001Z</time></trkpt><trkpt lat="42.01599708293662" lon="12.361577101154946"><ele>140.5</ele><time>2026-05-01T08:33:38.001Z</time></trkpt><trkpt lat="42.01610490473294" lon="12.361473337973424"><ele>141.0</ele><time>2026-05-01T08:33:39.001Z</time></trkpt><trkpt lat="42.016222926813334" lon="12.361359769504594"><ele>142.25</ele><time>2026-05-01T08:33:40.001Z</time></trkpt><trkpt lat="42.016336764083675" lon="12.361259051493025"><ele>143.5</ele><time>2026-05-01T08:33:41.001Z</time></trkpt><trkpt lat="42.016447192846" lon="12.3611391500136"><ele>144.75</ele><time>2026-05-01T08:33:42.001Z</time></trkpt><trkpt lat="42.0165523396138" lon="12.361035873713446"><ele>146.0</ele><time>2026-05-01T08:33:43.001Z</time></trkpt><trkpt lat="42.016661582171885" lon="12.360934893759293"><ele>146.25</ele><time>2026-05-01T08:33:44.001Z</time></trkpt><trkpt lat="42.01676474389298" lon="12.360825166001318"><ele>146.5</ele><time>2026-05-01T08:33:45.001Z</time></trkpt><trkpt lat="42.01686022591796" lon="12.360708589207606"><ele>146.75</ele><time>2026-05-01T08:33:46.001Z</time></trkpt><trkpt lat="42.016962301187334" lon="12.36059039243608"><ele>147.0</ele><time>2026-05-01T08:33:47.001Z</time></trkpt><trkpt lat="42.01705693804307" lon="12.360464092824003"><ele>147.75</ele><time>2026-05-01T08:33:48.001Z</time></trkpt><trkpt lat="42.01714146063968" lon="12.3603201548681"><ele>148.5</ele><time>2026-05-01T08:33:49.001Z</time></trkpt><trkpt lat="42.0172142928532" lon="12.360162969832126"><ele>149.25</ele><time>2026-05-01T08:33:50.001Z</time></trkpt><trkpt lat="42.017277462953714" lon="12.360000700401812"><ele>150.0</ele><time>2026-05-01T08:33:51.001Z</time></trkpt><trkpt lat="42.01733654109191" lon="12.359842074537024"><ele>150.5</ele><time>2026-05-01T08:33:52.001Z</time></trkpt><trkpt lat="42.0173973549182" lon="12.359684149364721"><ele>151.0</ele><time>2026-05-01T08:33:53.001Z</time></trkpt><trkpt lat="42.017454589569944" lon="12.359534958456388"><ele>151.5</ele><time>2026-05-01T08:33:54.001Z</time></trkpt><trkpt lat="42.01751728891273" lon="12.359389108319643"><ele>152.0</ele><time>2026-05-01T08:33:55.001Z</time></trkpt><trkpt lat="42.0175753220094" lon="12.359248236243774"><ele>151.0</ele><time>2026-05-01T08:33:56.001Z</time></trkpt><trkpt lat="42.01763366265155" lon="12.359104687989271"><ele>150.0</ele><time>2026-05-01T08:33:57.001Z</time></trkpt><trkpt lat="42.017694819746644" lon="12.358943808154784"><ele>149.0</ele><time>2026-05-01T08:33:58.001Z</time></trkpt><trkpt lat="42.01775507798176" lon="12.358779753031037"><ele>148.0</ele><time>2026-05-01T08:33:59.001Z</time></trkpt><trkpt lat="42.01780624461854" lon="12.358607267955948"><ele>147.0</ele><time>2026-05-01T08:34:00.001Z</time></trkpt><trkpt lat="42.01784444099835" lon="12.358431951309528"><ele>146.0</ele><time>2026-05-01T08:34:01.001Z</time></trkpt><trkpt lat="42.01786809635954" lon="12.358259859477359"><ele>145.0</ele><time>2026-05-01T08:34:02.001Z</time></trkpt><trkpt lat="42.017877433666506" lon="12.358080622573098"><ele>144.0</ele><time>2026-05-01T08:34:03.001Z</time></trkpt><trkpt lat="42.01786264278022" lon="12.357902472061001"><ele>143.5</ele><time>2026-05-01T08:34:04.001Z</time></trkpt><trkpt lat="42.01782740200361" lon="12.357726837458058"><ele>143.0</ele><time>2026-05-01T08:34:05.001Z</time></trkpt><trkpt lat="42.017782843169314" lon="12.357553245215358"><ele>142.5</ele><time>2026-05-01T08:34:06.001Z</time></trkpt><trkpt lat="42.01773728650641" lon="12.357377730506636"><ele>142.0</ele><time>2026-05-01T08:34:07.001Z</time></trkpt><trkpt lat="42.01769919585087" lon="12.357200399713694"><ele>141.75</ele><time>2026-05-01T08:34:08.001Z</time></trkpt><trkpt lat="42.017668962065926" lon="12.35702268826051"><ele>141.5</ele><time>2026-05-01T08:34:09.001Z</time></trkpt><trkpt lat="42.01764236475111" lon="12.356844488939435"><ele>141.25</ele><time>2026-05-01T08:34:10.001Z</time></trkpt><trkpt lat="42.017623262406445" lon="12.356659205505807"><ele>141.0</ele><time>2026-05-01T08:34:11.001Z</time></trkpt><trkpt lat="42.017616046028856" lon="12.356468614237235"><ele>140.0</ele><time>2026-05-01T08:34:12.001Z</time></trkpt><trkpt lat="42.01761580090188" lon="12.35627357984011"><ele>139.0</ele><time>2026-05-01T08:34:13.001Z</time></trkpt><trkpt lat="42.01762825281321" lon="12.35608156731211"><ele>138.0</ele><time>2026-05-01T08:34:14.001Z</time></trkpt><trkpt lat="42.01765857101657" lon="12.35588911345661"><ele>137.0</ele><time>2026-05-01T08:34:15.001Z</time></trkpt><trkpt lat="42.017697868069575" lon="12.355698353516305"><ele>136.0</ele><time>2026-05-01T08:34:16.001Z</time></trkpt><trkpt lat="42.017746384872595" lon="12.35551325640109"><ele>135.0</ele><time>2026-05-01T08:34:17.001Z</time></trkpt><trkpt lat="42.017804263830506" lon="12.355329121268936"><ele>134.0</ele><time>2026-05-01T08:34:18.001Z</time></trkpt><trkpt lat="42.0178640844856" lon="12.355136394607822"><ele>134.0</ele><time>2026-05-01T08:34:19.001Z</time></trkpt><trkpt lat="42.01792679525933" lon="12.35495073145893"><ele>134.0</ele><time>2026-05-01T08:34:20.001Z</time></trkpt><trkpt lat="42.017994481730874" lon="12.354783219810132"><ele>134.0</ele><time>2026-05-01T08:34:21.001Z</time></trkpt><trkpt lat="42.01806028541703" lon="12.354621271109878"><ele>134.0</ele><time>2026-05-01T08:34:22.001Z</time></trkpt><trkpt lat="42.01811604941868" lon="12.354463169839113"><ele>134.5</ele><time>2026-05-01T08:34:23.001Z</time></trkpt><trkpt lat="42.01816738083782" lon="12.354312393747092"><ele>135.0</ele><time>2026-05-01T08:34:24.001Z</time></trkpt><trkpt lat="42.018216202198" lon="12.354157057752264"><ele>135.5</ele><time>2026-05-01T08:34:25.001Z</time></trkpt><trkpt lat="42.01825073288261" lon="12.353989880257153"><ele>136.0</ele><time>2026-05-01T08:34:26.001Z</time></trkpt><trkpt lat="42.018273299298414" lon="12.353813509043047"><ele>136.0</ele><time>2026-05-01T08:34:27.001Z</time></trkpt><trkpt lat="42.01828800724448" lon="12.353643989272843"><ele>136.0</ele><time>2026-05-01T08:34:28.001Z</time></trkpt><trkpt lat="42.01829719686213" lon="12.353474374248028"><ele>136.0</ele><time>2026-05-01T08:34:29.001Z</time></trkpt><trkpt lat="42.01831057182997" lon="12.353313618098122"><ele>136.0</ele><time>2026-05-01T08:34:30.001Z</time></trkpt><trkpt lat="42.01832538123596" lon="12.353153984511753"><ele>135.25</ele><time>2026-05-01T08:34:31.001Z</time></trkpt><trkpt lat="42.01834308117718" lon="12.35299742943744"><ele>134.5</ele><time>2026-05-01T08:34:32.001Z</time></trkpt><trkpt lat="42.018352029866975" lon="12.352825197071045"><ele>133.75</ele><time>2026-05-01T08:34:33.001Z</time></trkpt><trkpt lat="42.01837736258122" lon="12.352662839926802"><ele>133.0</ele><time>2026-05-01T08:34:34.001Z</time></trkpt><trkpt lat="42.018409332070306" lon="12.35250134352379"><ele>133.0</ele><time>2026-05-01T08:34:35.001Z</time></trkpt><trkpt lat="42.01843884668999" lon="12.352333949066436"><ele>133.0</ele><time>2026-05-01T08:34:36.002Z</time></trkpt><trkpt lat="42.01847566256908" lon="12.352152507423291"><ele>133.0</ele><time>2026-05-01T08:34:37.002Z</time></trkpt><trkpt lat="42.01851941340175" lon="12.351975278756132"><ele>133.0</ele><time>2026-05-01T08:34:38.002Z</time></trkpt><trkpt lat="42.01856945596822" lon="12.351794670663784"><ele>132.5</ele><time>2026-05-01T08:34:39.002Z</time></trkpt><trkpt lat="42.018628508959566" lon="12.351619688598747"><ele>132.0</ele><time>2026-05-01T08:34:40.002Z</time></trkpt><trkpt lat="42.01869816100272" lon="12.351454352560184"><ele>131.5</ele><time>2026-05-01T08:34:41.002Z</time></trkpt><trkpt lat="42.01877218448532" lon="12.351296380239214"><ele>131.0</ele><time>2026-05-01T08:34:42.002Z</time></trkpt><trkpt lat="42.018853775555876" lon="12.35115854645107"><ele>130.75</ele><time>2026-05-01T08:34:43Z</time></trkpt><trkpt lat="42.01894087008892" lon="12.351024579212702"><ele>130.5</ele><time>2026-05-01T08:34:44Z</time></trkpt><trkpt lat="42.01904092108295" lon="12.350898122866035"><ele>130.25</ele><time>2026-05-01T08:34:45Z</time></trkpt><trkpt lat="42.019151708058764" lon="12.350786248089081"><ele>130.0</ele><time>2026-05-01T08:34:46Z</time></trkpt><trkpt lat="42.0192615825346" lon="12.350707022580911"><ele>130.0</ele><time>2026-05-01T08:34:47Z</time></trkpt><trkpt lat="42.01937704197326" lon="12.350635726770395"><ele>130.0</ele><time>2026-05-01T08:34:48Z</time></trkpt><trkpt lat="42.01950377252872" lon="12.350569258514849"><ele>130.0</ele><time>2026-05-01T08:34:49Z</time></trkpt><trkpt lat="42.019635401137876" lon="12.350507819993426"><ele>130.0</ele><time>2026-05-01T08:34:50Z</time></trkpt><trkpt lat="42.01976983772648" lon="12.350447386529758"><ele>130.0</ele><time>2026-05-01T08:34:51Z</time></trkpt><trkpt lat="42.019906412907396" lon="12.350391357066117"><ele>130.0</ele><time>2026-05-01T08:34:52Z</time></trkpt><trkpt lat="42.02003769048503" lon="12.350336011648379"><ele>130.0</ele><time>2026-05-01T08:34:53Z</time></trkpt><trkpt lat="42.02016650863684" lon="12.350274108491964"><ele>130.0</ele><time>2026-05-01T08:34:54Z</time></trkpt><trkpt lat="42.02029524610352" lon="12.35020751517012"><ele>130.0</ele><time>2026-05-01T08:34:55Z</time></trkpt><trkpt lat="42.02042387172179" lon="12.350127755938347"><ele>130.0</ele><time>2026-05-01T08:34:56Z</time></trkpt><trkpt lat="42.020546757420504" lon="12.350044395109627"><ele>130.0</ele><time>2026-05-01T08:34:57Z</time></trkpt><trkpt lat="42.020664944410456" lon="12.349942601769941"><ele>130.0</ele><time>2026-05-01T08:34:58Z</time></trkpt><trkpt lat="42.02078033844017" lon="12.349836012617141"><ele>130.0</ele><time>2026-05-01T08:34:59Z</time></trkpt><trkpt lat="42.02089577583145" lon="12.349714247692972"><ele>130.0</ele><time>2026-05-01T08:35:00Z</time></trkpt><trkpt lat="42.02100891470124" lon="12.349585682024692"><ele>130.0</ele><time>2026-05-01T08:35:01Z</time></trkpt><trkpt lat="42.02111699966366" lon="12.349443459885928"><ele>130.0</ele><time>2026-05-01T08:35:02Z</time></trkpt><trkpt lat="42.02121745484626" lon="12.349293175786071"><ele>130.0</ele><time>2026-05-01T08:35:03Z</time></trkpt><trkpt lat="42.021308632368154" lon="12.349130440310034"><ele>130.0</ele><time>2026-05-01T08:35:04Z</time></trkpt><trkpt lat="42.02139041488727" lon="12.348955361334795"><ele>130.0</ele><time>2026-05-01T08:35:05Z</time></trkpt><trkpt lat="42.02146328078285" lon="12.348767451030817"><ele>130.33333333333334</ele><time>2026-05-01T08:35:06Z</time></trkpt><trkpt lat="42.0215361041661" lon="12.348579504444098"><ele>130.66666666666666</ele><time>2026-05-01T08:35:07Z</time></trkpt><trkpt lat="42.021606617544926" lon="12.348392517285514"><ele>131.0</ele><time>2026-05-01T08:35:08Z</time></trkpt><trkpt lat="42.02167582362026" lon="12.34820884690501"><ele>131.33333333333331</ele><time>2026-05-01T08:35:09Z</time></trkpt><trkpt lat="42.02174653115148" lon="12.348023638642156"><ele>131.66666666666666</ele><time>2026-05-01T08:35:10Z</time></trkpt><trkpt lat="42.021817199992036" lon="12.347835104763304"><ele>132.0</ele><time>2026-05-01T08:35:11Z</time></trkpt><trkpt lat="42.02189244660645" lon="12.347646400060238"><ele>132.0</ele><time>2026-05-01T08:35:12Z</time></trkpt><trkpt lat="42.0219660478674" lon="12.347463584136692"><ele>132.0</ele><time>2026-05-01T08:35:13Z</time></trkpt><trkpt lat="42.02204709290017" lon="12.347272977971217"><ele>132.0</ele><time>2026-05-01T08:35:14Z</time></trkpt><trkpt lat="42.022137080967994" lon="12.347065933346032"><ele>133.0</ele><time>2026-05-01T08:35:15Z</time></trkpt><trkpt lat="42.02225044613133" lon="12.346856856521017"><ele>134.0</ele><time>2026-05-01T08:35:16Z</time></trkpt><trkpt lat="42.022357335825916" lon="12.34662410193726"><ele>135.0</ele><time>2026-05-01T08:35:17Z</time></trkpt><trkpt lat="42.0224672989901" lon="12.346383003145316"><ele>135.66666666666666</ele><time>2026-05-01T08:35:18Z</time></trkpt><trkpt lat="42.022559339375974" lon="12.346144479146798"><ele>136.33333333333331</ele><time>2026-05-01T08:35:19Z</time></trkpt><trkpt lat="42.02266537770841" lon="12.345933995518497"><ele>137.0</ele><time>2026-05-01T08:35:20Z</time></trkpt><trkpt lat="42.02276093675768" lon="12.345739878277497"><ele>137.0</ele><time>2026-05-01T08:35:21Z</time></trkpt><trkpt lat="42.022841895121275" lon="12.345563112773776"><ele>137.0</ele><time>2026-05-01T08:35:22Z</time></trkpt><trkpt lat="42.02291817513866" lon="12.345408215416809"><ele>137.0</ele><time>2026-05-01T08:35:23Z</time></trkpt><trkpt lat="42.02300205533849" lon="12.345265495643016"><ele>137.0</ele><time>2026-05-01T08:35:24Z</time></trkpt><trkpt lat="42.02307212433213" lon="12.345136985650548"><ele>137.25</ele><time>2026-05-01T08:35:25Z</time></trkpt><trkpt lat="42.023146204454676" lon="12.34502004711697"><ele>137.5</ele><time>2026-05-01T08:35:26Z</time></trkpt><trkpt lat="42.023214902074855" lon="12.344903200956242"><ele>137.75</ele><time>2026-05-01T08:35:27Z</time></trkpt><trkpt lat="42.02329166390794" lon="12.34478588877985"><ele>138.0</ele><time>2026-05-01T08:35:28Z</time></trkpt><trkpt lat="42.02337445447508" lon="12.344675457757747"><ele>138.66666666666666</ele><time>2026-05-01T08:35:29Z</time></trkpt><trkpt lat="42.02345500995643" lon="12.344594373115562"><ele>139.33333333333334</ele><time>2026-05-01T08:35:30Z</time></trkpt><trkpt lat="42.02352175203539" lon="12.344533242019969"><ele>140.0</ele><time>2026-05-01T08:35:31Z</time></trkpt><trkpt lat="42.02358361256941" lon="12.344486778811655"><ele>140.66666666666669</ele><time>2026-05-01T08:35:32Z</time></trkpt><trkpt lat="42.02364520946189" lon="12.344440397011025"><ele>141.33333333333334</ele><time>2026-05-01T08:35:33.001Z</time></trkpt><trkpt lat="42.023711386181915" lon="12.344397493880479"><ele>142.0</ele><time>2026-05-01T08:35:34.001Z</time></trkpt><trkpt lat="42.023788574169856" lon="12.344361205700757"><ele>142.0</ele><time>2026-05-01T08:35:35.001Z</time></trkpt><trkpt lat="42.0238782746311" lon="12.344308403265456"><ele>142.0</ele><time>2026-05-01T08:35:36.001Z</time></trkpt><trkpt lat="42.023988281337736" lon="12.344250485043343"><ele>142.0</ele><time>2026-05-01T08:35:37.001Z</time></trkpt><trkpt lat="42.02411978537429" lon="12.344194621931134"><ele>142.0</ele><time>2026-05-01T08:35:38.001Z</time></trkpt><trkpt lat="42.024259709241335" lon="12.344141290275445"><ele>142.25</ele><time>2026-05-01T08:35:39.001Z</time></trkpt><trkpt lat="42.02439201738371" lon="12.344081999591465"><ele>142.5</ele><time>2026-05-01T08:35:40.001Z</time></trkpt><trkpt lat="42.02453415471716" lon="12.344024751309773"><ele>142.75</ele><time>2026-05-01T08:35:41.001Z</time></trkpt><trkpt lat="42.02468657728855" lon="12.343957414064034"><ele>143.0</ele><time>2026-05-01T08:35:42.001Z</time></trkpt><trkpt lat="42.02484623747771" lon="12.343885562204532"><ele>141.66666666666666</ele><time>2026-05-01T08:35:43.001Z</time></trkpt><trkpt lat="42.025020564460576" lon="12.34381884792262"><ele>140.33333333333334</ele><time>2026-05-01T08:35:44.001Z</time></trkpt><trkpt lat="42.025200528607684" lon="12.34375028228124"><ele>139.0</ele><time>2026-05-01T08:35:45.001Z</time></trkpt><trkpt lat="42.025379157030116" lon="12.343689758141457"><ele>139.0</ele><time>2026-05-01T08:35:46.001Z</time></trkpt><trkpt lat="42.02555755985974" lon="12.343631653193924"><ele>139.0</ele><time>2026-05-01T08:35:47.001Z</time></trkpt><trkpt lat="42.025733352714944" lon="12.343570291621898"><ele>139.0</ele><time>2026-05-01T08:35:48.001Z</time></trkpt><trkpt lat="42.025915229809904" lon="12.343512207367816"><ele>139.33333333333334</ele><time>2026-05-01T08:35:49.001Z</time></trkpt><trkpt lat="42.026095841462485" lon="12.343444498250857"><ele>139.66666666666666</ele><time>2026-05-01T08:35:50.001Z</time></trkpt><trkpt lat="42.0262782488211" lon="12.34338295670257"><ele>140.0</ele><time>2026-05-01T08:35:51.001Z</time></trkpt><trkpt lat="42.026462836871964" lon="12.343318807306359"><ele>139.66666666666666</ele><time>2026-05-01T08:35:52.001Z</time></trkpt><trkpt lat="42.02664708603185" lon="12.343257104420998"><ele>139.33333333333334</ele><time>2026-05-01T08:35:53.001Z</time></trkpt><trkpt lat="42.02683243788716" lon="12.343194889102062"><ele>139.0</ele><time>2026-05-01T08:35:54.001Z</time></trkpt><trkpt lat="42.02701315503749" lon="12.343123696136574"><ele>139.0</ele><time>2026-05-01T08:35:55.001Z</time></trkpt><trkpt lat="42.02719298610086" lon="12.343057115534384"><ele>139.0</ele><time>2026-05-01T08:35:56.001Z</time></trkpt><trkpt lat="42.02736544810307" lon="12.342999365519875"><ele>139.0</ele><time>2026-05-01T08:35:57.001Z</time></trkpt><trkpt lat="42.02753524714653" lon="12.342948260351724"><ele>137.66666666666669</ele><time>2026-05-01T08:35:58.001Z</time></trkpt><trkpt lat="42.027703135158134" lon="12.342907926328953"><ele>136.33333333333334</ele><time>2026-05-01T08:35:59.001Z</time></trkpt><trkpt lat="42.02786974901765" lon="12.342874543602145"><ele>135.0</ele><time>2026-05-01T08:36:00.001Z</time></trkpt><trkpt lat="42.02803964924214" lon="12.342848302651365"><ele>135.0</ele><time>2026-05-01T08:36:01.001Z</time></trkpt><trkpt lat="42.02820575648547" lon="12.342852317478538"><ele>135.0</ele><time>2026-05-01T08:36:02.001Z</time></trkpt><trkpt lat="42.02837451460701" lon="12.342872694952979"><ele>135.0</ele><time>2026-05-01T08:36:03.001Z</time></trkpt><trkpt lat="42.02854067255856" lon="12.342898931015917"><ele>136.0</ele><time>2026-05-01T08:36:04.001Z</time></trkpt><trkpt lat="42.0287128508317" lon="12.342919331611432"><ele>137.0</ele><time>2026-05-01T08:36:05.001Z</time></trkpt><trkpt lat="42.02888315947011" lon="12.34293982996363"><ele>138.0</ele><time>2026-05-01T08:36:06.001Z</time></trkpt><trkpt lat="42.02905102864393" lon="12.342967549480788"><ele>136.66666666666666</ele><time>2026-05-01T08:36:07.001Z</time></trkpt><trkpt lat="42.02921566390849" lon="12.342977594934414"><ele>135.33333333333331</ele><time>2026-05-01T08:36:08.001Z</time></trkpt><trkpt lat="42.0293699025835" lon="12.34298500594298"><ele>134.0</ele><time>2026-05-01T08:36:09.001Z</time></trkpt><trkpt lat="42.02953051613252" lon="12.342969683517326"><ele>134.0</ele><time>2026-05-01T08:36:10.001Z</time></trkpt><trkpt lat="42.029686258786086" lon="12.342931515615156"><ele>134.0</ele><time>2026-05-01T08:36:11.001Z</time></trkpt><trkpt lat="42.029839725628975" lon="12.342890330320605"><ele>134.0</ele><time>2026-05-01T08:36:12.001Z</time></trkpt><trkpt lat="42.029983047956506" lon="12.34281786441569"><ele>133.0</ele><time>2026-05-01T08:36:13.001Z</time></trkpt><trkpt lat="42.03012054710376" lon="12.342733744541704"><ele>132.0</ele><time>2026-05-01T08:36:14.001Z</time></trkpt><trkpt lat="42.03025609930919" lon="12.342618120870794"><ele>131.0</ele><time>2026-05-01T08:36:15.001Z</time></trkpt><trkpt lat="42.03038479027817" lon="12.342501960457357"><ele>131.0</ele><time>2026-05-01T08:36:16.001Z</time></trkpt><trkpt lat="42.03051130735108" lon="12.342382885286414"><ele>131.0</ele><time>2026-05-01T08:36:17.001Z</time></trkpt><trkpt lat="42.03064457147832" lon="12.342266641671445"><ele>131.0</ele><time>2026-05-01T08:36:18.001Z</time></trkpt><trkpt lat="42.03076943054159" lon="12.34216203121341"><ele>130.25</ele><time>2026-05-01T08:36:19.001Z</time></trkpt><trkpt lat="42.030900462524095" lon="12.342065277087265"><ele>129.5</ele><time>2026-05-01T08:36:20.001Z</time></trkpt><trkpt lat="42.03103322072154" lon="12.341985246579288"><ele>128.75</ele><time>2026-05-01T08:36:21.001Z</time></trkpt><trkpt lat="42.03117119937067" lon="12.341912650871075"><ele>128.0</ele><time>2026-05-01T08:36:22.001Z</time></trkpt><trkpt lat="42.0313136788596" lon="12.341842981625657"><ele>128.0</ele><time>2026-05-01T08:36:23.001Z</time></trkpt><trkpt lat="42.031460454617914" lon="12.341775675738237"><ele>128.0</ele><time>2026-05-01T08:36:24.001Z</time></trkpt><trkpt lat="42.03160259202092" lon="12.34171442650713"><ele>128.0</ele><time>2026-05-01T08:36:25.001Z</time></trkpt><trkpt lat="42.03173671178559" lon="12.341652519597414"><ele>128.0</ele><time>2026-05-01T08:36:26.001Z</time></trkpt><trkpt lat="42.03186006068927" lon="12.341593128651025"><ele>128.25</ele><time>2026-05-01T08:36:27.001Z</time></trkpt><trkpt lat="42.03199444461678" lon="12.341524109980993"><ele>128.5</ele><time>2026-05-01T08:36:28.001Z</time></trkpt><trkpt lat="42.03212496653185" lon="12.34145581590584"><ele>128.75</ele><time>2026-05-01T08:36:29.001Z</time></trkpt><trkpt lat="42.03225049340081" lon="12.341365168952477"><ele>129.0</ele><time>2026-05-01T08:36:30.001Z</time></trkpt><trkpt lat="42.032374106138455" lon="12.341282763577844"><ele>129.25</ele><time>2026-05-01T08:36:31.001Z</time></trkpt><trkpt lat="42.03248953220607" lon="12.34119569052997"><ele>129.5</ele><time>2026-05-01T08:36:32.001Z</time></trkpt><trkpt lat="42.03259439913294" lon="12.3411052292561"><ele>129.75</ele><time>2026-05-01T08:36:33.001Z</time></trkpt><trkpt lat="42.03269013576221" lon="12.3410075546665"><ele>130.0</ele><time>2026-05-01T08:36:34.001Z</time></trkpt><trkpt lat="42.032777750555596" lon="12.340890140927149"><ele>130.0</ele><time>2026-05-01T08:36:35.001Z</time></trkpt><trkpt lat="42.03286431042844" lon="12.340747103155252"><ele>130.0</ele><time>2026-05-01T08:36:36.001Z</time></trkpt><trkpt lat="42.032953795811046" lon="12.340599318488284"><ele>130.0</ele><time>2026-05-01T08:36:37.001Z</time></trkpt><trkpt lat="42.03302646672318" lon="12.340440679330188"><ele>130.0</ele><time>2026-05-01T08:36:38.001Z</time></trkpt><trkpt lat="42.033107309742185" lon="12.340290916378104"><ele>129.75</ele><time>2026-05-01T08:36:39.002Z</time></trkpt><trkpt lat="42.03318981562489" lon="12.340143552582216"><ele>129.5</ele><time>2026-05-01T08:36:40.002Z</time></trkpt><trkpt lat="42.03327405411024" lon="12.339995893520475"><ele>129.25</ele><time>2026-05-01T08:36:41.002Z</time></trkpt><trkpt lat="42.03336053344121" lon="12.33984748335384"><ele>129.0</ele><time>2026-05-01T08:36:42.002Z</time></trkpt><trkpt lat="42.033449824899186" lon="12.339700865051167"><ele>128.75</ele><time>2026-05-01T08:36:43.002Z</time></trkpt><trkpt lat="42.03354187986967" lon="12.339560097212614"><ele>128.5</ele><time>2026-05-01T08:36:44.002Z</time></trkpt><trkpt lat="42.033640729997764" lon="12.33943271980892"><ele>128.25</ele><time>2026-05-01T08:36:45.002Z</time></trkpt><trkpt lat="42.03375026037267" lon="12.339317925107334"><ele>128.0</ele><time>2026-05-01T08:36:46.002Z</time></trkpt><trkpt lat="42.03386618624497" lon="12.339205547060729"><ele>128.0</ele><time>2026-05-01T08:36:47.002Z</time></trkpt><trkpt lat="42.033992078683134" lon="12.339097332583433"><ele>128.0</ele><time>2026-05-01T08:36:48.002Z</time></trkpt><trkpt lat="42.03412521304097" lon="12.338998702075799"><ele>128.0</ele><time>2026-05-01T08:36:49Z</time></trkpt><trkpt lat="42.03425330969319" lon="12.338905321723729"><ele>128.0</ele><time>2026-05-01T08:36:50Z</time></trkpt><trkpt lat="42.03438912984913" lon="12.338805565927096"><ele>127.0</ele><time>2026-05-01T08:36:51Z</time></trkpt><trkpt lat="42.034538531818725" lon="12.338719204542521"><ele>126.0</ele><time>2026-05-01T08:36:52Z</time></trkpt><trkpt lat="42.03468075448311" lon="12.338622751279658"><ele>125.0</ele><time>2026-05-01T08:36:53Z</time></trkpt><trkpt lat="42.034782666896426" lon="12.338534732238651"><ele>124.0</ele><time>2026-05-01T08:36:54Z</time></trkpt><trkpt lat="42.034889665543716" lon="12.338471451424969"><ele>124.4</ele><time>2026-05-01T08:36:55Z</time></trkpt><trkpt lat="42.03498933115087" lon="12.338408106981348"><ele>124.80000000000001</ele><time>2026-05-01T08:36:56Z</time></trkpt><trkpt lat="42.03507829002357" lon="12.338341767204842"><ele>125.19999999999999</ele><time>2026-05-01T08:36:57Z</time></trkpt><trkpt lat="42.03516938575171" lon="12.338273994910969"><ele>125.6</ele><time>2026-05-01T08:36:58Z</time></trkpt><trkpt lat="42.03526038744349" lon="12.338216984242926"><ele>126.0</ele><time>2026-05-01T08:36:59Z</time></trkpt><trkpt lat="42.035344538282466" lon="12.33814305614792"><ele>126.19999999999999</ele><time>2026-05-01T08:37:00Z</time></trkpt><trkpt lat="42.03541190084471" lon="12.338044364694175"><ele>126.39999999999999</ele><time>2026-05-01T08:37:01Z</time></trkpt><trkpt lat="42.035464099492295" lon="12.33792424724783"><ele>126.6</ele><time>2026-05-01T08:37:02Z</time></trkpt><trkpt lat="42.035495750033036" lon="12.337775862960758"><ele>126.8</ele><time>2026-05-01T08:37:03Z</time></trkpt><trkpt lat="42.03550284099235" lon="12.337616109027703"><ele>127.0</ele><time>2026-05-01T08:37:04Z</time></trkpt><trkpt lat="42.03548594856086" lon="12.337453015284698"><ele>127.0</ele><time>2026-05-01T08:37:05Z</time></trkpt><trkpt lat="42.035489406321844" lon="12.33728665025769"><ele>127.0</ele><time>2026-05-01T08:37:06Z</time></trkpt><trkpt lat="42.035467946417505" lon="12.337134837610895"><ele>127.0</ele><time>2026-05-01T08:37:07Z</time></trkpt><trkpt lat="42.03546505649685" lon="12.336986077668463"><ele>127.0</ele><time>2026-05-01T08:37:08Z</time></trkpt><trkpt lat="42.03546449784194" lon="12.336830257344209"><ele>127.75</ele><time>2026-05-01T08:37:09Z</time></trkpt><trkpt lat="42.03546203063689" lon="12.336670553466373"><ele>128.5</ele><time>2026-05-01T08:37:10Z</time></trkpt><trkpt lat="42.03545753549876" lon="12.336499714324031"><ele>129.25</ele><time>2026-05-01T08:37:11Z</time></trkpt><trkpt lat="42.03544762399537" lon="12.336323959790665"><ele>130.0</ele><time>2026-05-01T08:37:12Z</time></trkpt><trkpt lat="42.03544303014889" lon="12.33614210827136"><ele>130.0</ele><time>2026-05-01T08:37:13Z</time></trkpt><trkpt lat="42.03543540995796" lon="12.335950408224347"><ele>130.0</ele><time>2026-05-01T08:37:14Z</time></trkpt><trkpt lat="42.035424744823494" lon="12.335754028941524"><ele>130.0</ele><time>2026-05-01T08:37:15Z</time></trkpt><trkpt lat="42.0354111828873" lon="12.335549240236197"><ele>130.0</ele><time>2026-05-01T08:37:16Z</time></trkpt><trkpt lat="42.0354076604935" lon="12.335346750729501"><ele>128.5</ele><time>2026-05-01T08:37:17Z</time></trkpt><trkpt lat="42.03539309751157" lon="12.33516266052821"><ele>127.0</ele><time>2026-05-01T08:37:18Z</time></trkpt><trkpt lat="42.035382819427554" lon="12.334977017804132"><ele>125.5</ele><time>2026-05-01T08:37:19Z</time></trkpt><trkpt lat="42.03538454528864" lon="12.33479526071259"><ele>124.0</ele><time>2026-05-01T08:37:20Z</time></trkpt><trkpt lat="42.03537866686678" lon="12.334629058855446"><ele>123.0</ele><time>2026-05-01T08:37:21Z</time></trkpt><trkpt lat="42.03539353104519" lon="12.334462911470087"><ele>122.0</ele><time>2026-05-01T08:37:22Z</time></trkpt><trkpt lat="42.035397216647866" lon="12.33430070727912"><ele>121.0</ele><time>2026-05-01T08:37:23Z</time></trkpt><trkpt lat="42.035423094145415" lon="12.334154579204187"><ele>120.0</ele><time>2026-05-01T08:37:24Z</time></trkpt><trkpt lat="42.03545584874628" lon="12.334020270829747"><ele>120.0</ele><time>2026-05-01T08:37:25Z</time></trkpt><trkpt lat="42.035514462535275" lon="12.333894491940127"><ele>120.0</ele><time>2026-05-01T08:37:26Z</time></trkpt><trkpt lat="42.03558306751641" lon="12.333787453498458"><ele>120.0</ele><time>2026-05-01T08:37:27Z</time></trkpt><trkpt lat="42.03566521780151" lon="12.33368800145358"><ele>120.0</ele><time>2026-05-01T08:37:28Z</time></trkpt><trkpt lat="42.03574714257485" lon="12.333580285755527"><ele>120.0</ele><time>2026-05-01T08:37:29Z</time></trkpt><trkpt lat="42.03582853831599" lon="12.33347036590897"><ele>120.25</ele><time>2026-05-01T08:37:30Z</time></trkpt><trkpt lat="42.035904293147475" lon="12.333368651297754"><ele>120.5</ele><time>2026-05-01T08:37:31Z</time></trkpt><trkpt lat="42.03598513326417" lon="12.333267516716319"><ele>120.75</ele><time>2026-05-01T08:37:32Z</time></trkpt><trkpt lat="42.03607200548657" lon="12.333157729163501"><ele>121.0</ele><time>2026-05-01T08:37:33Z</time></trkpt><trkpt lat="42.03615123062222" lon="12.333049065594434"><ele>121.0</ele><time>2026-05-01T08:37:34Z</time></trkpt><trkpt lat="42.036238037206324" lon="12.332937839239285"><ele>121.0</ele><time>2026-05-01T08:37:35Z</time></trkpt><trkpt lat="42.03632104405813" lon="12.332830120873345"><ele>121.0</ele><time>2026-05-01T08:37:36.001Z</time></trkpt><trkpt lat="42.036401363328096" lon="12.332716823670246"><ele>121.0</ele><time>2026-05-01T08:37:37.001Z</time></trkpt><trkpt lat="42.03648369450541" lon="12.332604894833528"><ele>121.0</ele><time>2026-05-01T08:37:38.001Z</time></trkpt><trkpt lat="42.036563157905036" lon="12.332487073514592"><ele>121.0</ele><time>2026-05-01T08:37:39.001Z</time></trkpt><trkpt lat="42.03664118650658" lon="12.332362607149683"><ele>121.0</ele><time>2026-05-01T08:37:40.001Z</time></trkpt><trkpt lat="42.03671781324673" lon="12.332229563105662"><ele>121.0</ele><time>2026-05-01T08:37:41.001Z</time></trkpt><trkpt lat="42.0367932915872" lon="12.332095134303511"><ele>122.25</ele><time>2026-05-01T08:37:42.001Z</time></trkpt><trkpt lat="42.03686820637494" lon="12.331957269179355"><ele>123.5</ele><time>2026-05-01T08:37:43.001Z</time></trkpt><trkpt lat="42.036940663908744" lon="12.331813281332504"><ele>124.75</ele><time>2026-05-01T08:37:44.001Z</time></trkpt><trkpt lat="42.03701212045399" lon="12.331664165426263"><ele>126.0</ele><time>2026-05-01T08:37:45.001Z</time></trkpt><trkpt lat="42.03709111178423" lon="12.33150968494433"><ele>127.25</ele><time>2026-05-01T08:37:46.001Z</time></trkpt><trkpt lat="42.03716282293859" lon="12.331344974681796"><ele>128.5</ele><time>2026-05-01T08:37:47.001Z</time></trkpt><trkpt lat="42.037234236086995" lon="12.331176246747797"><ele>129.75</ele><time>2026-05-01T08:37:48.001Z</time></trkpt><trkpt lat="42.037285956235166" lon="12.33099820681969"><ele>131.0</ele><time>2026-05-01T08:37:49.001Z</time></trkpt><trkpt lat="42.037323583922394" lon="12.330824936857907"><ele>131.0</ele><time>2026-05-01T08:37:50.001Z</time></trkpt><trkpt lat="42.03734840918748" lon="12.330645024190225"><ele>131.0</ele><time>2026-05-01T08:37:51.001Z</time></trkpt><trkpt lat="42.03736136731847" lon="12.330466014112803"><ele>131.0</ele><time>2026-05-01T08:37:52.001Z</time></trkpt><trkpt lat="42.03736694110234" lon="12.33028396674456"><ele>131.0</ele><time>2026-05-01T08:37:53.001Z</time></trkpt><trkpt lat="42.03736203275436" lon="12.33010130760673"><ele>131.66666666666666</ele><time>2026-05-01T08:37:54.001Z</time></trkpt><trkpt lat="42.03734188487176" lon="12.329908612514535"><ele>132.33333333333334</ele><time>2026-05-01T08:37:55.001Z</time></trkpt><trkpt lat="42.03729302819886" lon="12.329706417485996"><ele>133.0</ele><time>2026-05-01T08:37:56.001Z</time></trkpt><trkpt lat="42.037227173430296" lon="12.329496871400615"><ele>133.33333333333334</ele><time>2026-05-01T08:37:57.001Z</time></trkpt><trkpt lat="42.0371427247296" lon="12.329262220670012"><ele>133.66666666666666</ele><time>2026-05-01T08:37:58.001Z</time></trkpt><trkpt lat="42.037051625341995" lon="12.329016392117207"><ele>134.0</ele><time>2026-05-01T08:37:59.001Z</time></trkpt><trkpt lat="42.036954962383795" lon="12.328791760535715"><ele>134.33333333333331</ele><time>2026-05-01T08:38:00.001Z</time></trkpt><trkpt lat="42.03688726373899" lon="12.328580989719404"><ele>134.66666666666666</ele><time>2026-05-01T08:38:01.001Z</time></trkpt><trkpt lat="42.03681788529648" lon="12.328388354965824"><ele>135.0</ele><time>2026-05-01T08:38:02.001Z</time></trkpt><trkpt lat="42.03675871688962" lon="12.328220957992292"><ele>135.75</ele><time>2026-05-01T08:38:03.001Z</time></trkpt><trkpt lat="42.03670537704231" lon="12.328058159726254"><ele>136.5</ele><time>2026-05-01T08:38:04.001Z</time></trkpt><trkpt lat="42.03666777738862" lon="12.327895411642215"><ele>137.25</ele><time>2026-05-01T08:38:05.001Z</time></trkpt><trkpt lat="42.03665034370314" lon="12.327729269007095"><ele>138.0</ele><time>2026-05-01T08:38:06.001Z</time></trkpt><trkpt lat="42.03664560027344" lon="12.32755403280096"><ele>138.0</ele><time>2026-05-01T08:38:07.001Z</time></trkpt><trkpt lat="42.03666029809661" lon="12.32739019195397"><ele>138.0</ele><time>2026-05-01T08:38:08.001Z</time></trkpt><trkpt lat="42.03668567440278" lon="12.327222746957883"><ele>138.0</ele><time>2026-05-01T08:38:09.001Z</time></trkpt><trkpt lat="42.03672392733902" lon="12.327043861573625"><ele>138.0</ele><time>2026-05-01T08:38:10.001Z</time></trkpt><trkpt lat="42.03675811503997" lon="12.326857876374715"><ele>138.25</ele><time>2026-05-01T08:38:11.001Z</time></trkpt><trkpt lat="42.036798808503995" lon="12.326674426900047"><ele>138.5</ele><time>2026-05-01T08:38:12.001Z</time></trkpt><trkpt lat="42.03684434850583" lon="12.326488914098485"><ele>138.75</ele><time>2026-05-01T08:38:13.001Z</time></trkpt><trkpt lat="42.03688893989317" lon="12.32629570538445"><ele>139.0</ele><time>2026-05-01T08:38:14.001Z</time></trkpt><trkpt lat="42.03693953108413" lon="12.326080677989495"><ele>139.0</ele><time>2026-05-01T08:38:15.001Z</time></trkpt><trkpt lat="42.03699790563832" lon="12.325849194214829"><ele>139.0</ele><time>2026-05-01T08:38:16.001Z</time></trkpt><trkpt lat="42.03706275392002" lon="12.32562351991792"><ele>139.0</ele><time>2026-05-01T08:38:17.001Z</time></trkpt><trkpt lat="42.03712568415015" lon="12.325407054476734"><ele>138.0</ele><time>2026-05-01T08:38:18.001Z</time></trkpt><trkpt lat="42.037180511724365" lon="12.325202723996474"><ele>137.0</ele><time>2026-05-01T08:38:19.001Z</time></trkpt><trkpt lat="42.037237329911385" lon="12.325004057086241"><ele>136.0</ele><time>2026-05-01T08:38:20.001Z</time></trkpt><trkpt lat="42.037295162146464" lon="12.324821148915271"><ele>135.0</ele><time>2026-05-01T08:38:21.001Z</time></trkpt><trkpt lat="42.037349653171994" lon="12.324636746721014"><ele>134.0</ele><time>2026-05-01T08:38:22.001Z</time></trkpt><trkpt lat="42.037392878727005" lon="12.324446732071022"><ele>133.0</ele><time>2026-05-01T08:38:23.001Z</time></trkpt><trkpt lat="42.03744504721426" lon="12.324259286583251"><ele>132.0</ele><time>2026-05-01T08:38:24.001Z</time></trkpt><trkpt lat="42.037441857291796" lon="12.324013239879488"><ele>133.0</ele><time>2026-05-01T08:38:25.001Z</time></trkpt><trkpt lat="42.03746091891515" lon="12.323753821590415"><ele>134.0</ele><time>2026-05-01T08:38:26.001Z</time></trkpt><trkpt lat="42.03749962590668" lon="12.323502692092136"><ele>135.0</ele><time>2026-05-01T08:38:27.001Z</time></trkpt><trkpt lat="42.037537843409346" lon="12.323282778363728"><ele>135.0</ele><time>2026-05-01T08:38:28.001Z</time></trkpt><trkpt lat="42.037572053836314" lon="12.323080183325791"><ele>135.0</ele><time>2026-05-01T08:38:29.001Z</time></trkpt><trkpt lat="42.037597425224725" lon="12.32289756901476"><ele>135.0</ele><time>2026-05-01T08:38:30.001Z</time></trkpt><trkpt lat="42.03762071440234" lon="12.322718525872025"><ele>135.0</ele><time>2026-05-01T08:38:31.001Z</time></trkpt><trkpt lat="42.037643071254095" lon="12.322545485492"><ele>134.75</ele><time>2026-05-01T08:38:32.001Z</time></trkpt><trkpt lat="42.03765100631437" lon="12.322362704657595"><ele>134.5</ele><time>2026-05-01T08:38:33.001Z</time></trkpt><trkpt lat="42.037647451631734" lon="12.322179053342962"><ele>134.25</ele><time>2026-05-01T08:38:34.001Z</time></trkpt><trkpt lat="42.037622626637045" lon="12.321997897674821"><ele>134.0</ele><time>2026-05-01T08:38:35.001Z</time></trkpt><trkpt lat="42.03758962183522" lon="12.321817635534499"><ele>134.0</ele><time>2026-05-01T08:38:36.001Z</time></trkpt><trkpt lat="42.03754573444539" lon="12.32163294883421"><ele>134.0</ele><time>2026-05-01T08:38:37.001Z</time></trkpt><trkpt lat="42.037517761991346" lon="12.321429483307156"><ele>134.0</ele><time>2026-05-01T08:38:38.001Z</time></trkpt><trkpt lat="42.03745530490242" lon="12.321232909817539"><ele>134.0</ele><time>2026-05-01T08:38:39.002Z</time></trkpt><trkpt lat="42.03742301722509" lon="12.321012981017669"><ele>134.0</ele><time>2026-05-01T08:38:40.002Z</time></trkpt><trkpt lat="42.037376409062574" lon="12.32078553644773"><ele>134.0</ele><time>2026-05-01T08:38:41.002Z</time></trkpt><trkpt lat="42.037324809924655" lon="12.320533736353278"><ele>134.66666666666666</ele><time>2026-05-01T08:38:42.002Z</time></trkpt><trkpt lat="42.0372713269886" lon="12.320272978819428"><ele>135.33333333333334</ele><time>2026-05-01T08:38:43.002Z</time></trkpt><trkpt lat="42.0372189655667" lon="12.319991429424684"><ele>136.0</ele><time>2026-05-01T08:38:44.002Z</time></trkpt><trkpt lat="42.03716790829238" lon="12.319702016448547"><ele>137.66666666666669</ele><time>2026-05-01T08:38:45.002Z</time></trkpt><trkpt lat="42.03710709471119" lon="12.319414126424961"><ele>139.33333333333334</ele><time>2026-05-01T08:38:46.002Z</time></trkpt><trkpt lat="42.037059658521216" lon="12.319132768289162"><ele>141.0</ele><time>2026-05-01T08:38:47.002Z</time></trkpt><trkpt lat="42.037016643454415" lon="12.318856256554655"><ele>142.33333333333334</ele><time>2026-05-01T08:38:48.002Z</time></trkpt><trkpt lat="42.036968011377596" lon="12.318581832248057"><ele>143.66666666666669</ele><time>2026-05-01T08:38:49.002Z</time></trkpt><trkpt lat="42.036922686492176" lon="12.318308117051002"><ele>145.0</ele><time>2026-05-01T08:38:50.002Z</time></trkpt><trkpt lat="42.0368745450915" lon="12.318036740470838"><ele>145.33333333333334</ele><time>2026-05-01T08:38:51.002Z</time></trkpt><trkpt lat="42.03683039759472" lon="12.317776024396025"><ele>145.66666666666666</ele><time>2026-05-01T08:38:52.002Z</time></trkpt><trkpt lat="42.03678836455132" lon="12.317512942427046"><ele>146.0</ele><time>2026-05-01T08:38:53.002Z</time></trkpt><trkpt lat="42.036749397182874" lon="12.317253216914311"><ele>145.66666666666666</ele><time>2026-05-01T08:38:54.002Z</time></trkpt><trkpt lat="42.036718900752966" lon="12.317002948374347"><ele>145.33333333333334</ele><time>2026-05-01T08:38:55Z</time></trkpt><trkpt lat="42.0366905830377" lon="12.316761010535627"><ele>145.0</ele><time>2026-05-01T08:38:56Z</time></trkpt><trkpt lat="42.036664753620585" lon="12.316527338272579"><ele>144.33333333333334</ele><time>2026-05-01T08:38:57Z</time></trkpt><trkpt lat="42.03664178140205" lon="12.316297211741173"><ele>143.66666666666666</ele><time>2026-05-01T08:38:58Z</time></trkpt><trkpt lat="42.036622203481656" lon="12.316073039189424"><ele>143.0</ele><time>2026-05-01T08:38:59Z</time></trkpt><trkpt lat="42.03660000697821" lon="12.315849302550632"><ele>143.0</ele><time>2026-05-01T08:39:00Z</time></trkpt><trkpt lat="42.03658108786429" lon="12.315645311501582"><ele>143.0</ele><time>2026-05-01T08:39:01Z</time></trkpt><trkpt lat="42.03656244205736" lon="12.315457323878777"><ele>143.0</ele><time>2026-05-01T08:39:02Z</time></trkpt><trkpt lat="42.03655010189877" lon="12.315288061647763"><ele>143.0</ele><time>2026-05-01T08:39:03Z</time></trkpt><trkpt lat="42.03653952832761" lon="12.315125309773155"><ele>142.5</ele><time>2026-05-01T08:39:04Z</time></trkpt><trkpt lat="42.03652049491956" lon="12.314968522556695"><ele>142.0</ele><time>2026-05-01T08:39:05Z</time></trkpt><trkpt lat="42.03649716568035" lon="12.314803372898325"><ele>141.5</ele><time>2026-05-01T08:39:06Z</time></trkpt><trkpt lat="42.036468410063385" lon="12.31463236793084"><ele>141.0</ele><time>2026-05-01T08:39:07Z</time></trkpt><trkpt lat="42.03644023971568" lon="12.314459782241766"><ele>140.75</ele><time>2026-05-01T08:39:08Z</time></trkpt><trkpt lat="42.03641502511282" lon="12.314279343452183"><ele>140.5</ele><time>2026-05-01T08:39:09Z</time></trkpt><trkpt lat="42.036383819991265" lon="12.314094908667014"><ele>140.25</ele><time>2026-05-01T08:39:10Z</time></trkpt><trkpt lat="42.03636739508937" lon="12.313908643228414"><ele>140.0</ele><time>2026-05-01T08:39:11Z</time></trkpt><trkpt lat="42.0363564093082" lon="12.313717504100559"><ele>139.75</ele><time>2026-05-01T08:39:12Z</time></trkpt><trkpt lat="42.03635257655444" lon="12.313525565623822"><ele>139.5</ele><time>2026-05-01T08:39:13Z</time></trkpt><trkpt lat="42.036354575812865" lon="12.313328343085738"><ele>139.25</ele><time>2026-05-01T08:39:14Z</time></trkpt><trkpt lat="42.036362224300966" lon="12.313134358912619"><ele>139.0</ele><time>2026-05-01T08:39:15Z</time></trkpt><trkpt lat="42.03637224995449" lon="12.31296356575447"><ele>137.75</ele><time>2026-05-01T08:39:16Z</time></trkpt><trkpt lat="42.0363859712922" lon="12.31280691060629"><ele>136.5</ele><time>2026-05-01T08:39:17Z</time></trkpt><trkpt lat="42.03640369934753" lon="12.3126520683667"><ele>135.25</ele><time>2026-05-01T08:39:18Z</time></trkpt><trkpt lat="42.03642147854572" lon="12.312502534136273"><ele>134.0</ele><time>2026-05-01T08:39:19Z</time></trkpt><trkpt lat="42.03644114809495" lon="12.31234931312081"><ele>133.4</ele><time>2026-05-01T08:39:20Z</time></trkpt><trkpt lat="42.03644256234227" lon="12.312214687337182"><ele>132.8</ele><time>2026-05-01T08:39:21Z</time></trkpt><trkpt lat="42.0364411706102" lon="12.312077303339564"><ele>132.2</ele><time>2026-05-01T08:39:22Z</time></trkpt><trkpt lat="42.03645243012944" lon="12.311943536937207"><ele>131.6</ele><time>2026-05-01T08:39:23Z</time></trkpt><trkpt lat="42.03645855638533" lon="12.311815978766315"><ele>131.0</ele><time>2026-05-01T08:39:24Z</time></trkpt><trkpt lat="42.03646914543254" lon="12.311699147301638"><ele>131.0</ele><time>2026-05-01T08:39:25Z</time></trkpt><trkpt lat="42.036478871997275" lon="12.311582427097099"><ele>131.0</ele><time>2026-05-01T08:39:26Z</time></trkpt><trkpt lat="42.03650747784023" lon="12.311323536452136"><ele>131.0</ele><time>2026-05-01T08:39:28Z</time></trkpt><trkpt lat="42.03652212747049" lon="12.311180183529757"><ele>131.0</ele><time>2026-05-01T08:39:29Z</time></trkpt><trkpt lat="42.036532971442284" lon="12.311038415127094"><ele>131.0</ele><time>2026-05-01T08:39:30Z</time></trkpt><trkpt lat="42.03653977752944" lon="12.310888931622525"><ele>131.0</ele><time>2026-05-01T08:39:31Z</time></trkpt><trkpt lat="42.036534674446855" lon="12.310729610280738"><ele>131.0</ele><time>2026-05-01T08:39:32Z</time></trkpt><trkpt lat="42.03651631078641" lon="12.31056358235434"><ele>131.0</ele><time>2026-05-01T08:39:33Z</time></trkpt><trkpt lat="42.03649088623382" lon="12.310391325960877"><ele>131.0</ele><time>2026-05-01T08:39:34Z</time></trkpt><trkpt lat="42.03645327248367" lon="12.310218461734081"><ele>131.0</ele><time>2026-05-01T08:39:35Z</time></trkpt><trkpt lat="42.03640798841865" lon="12.310052586140628"><ele>131.0</ele><time>2026-05-01T08:39:36Z</time></trkpt><trkpt lat="42.036350612153754" lon="12.309883850351657"><ele>131.0</ele><time>2026-05-01T08:39:37Z</time></trkpt><trkpt lat="42.036286117855894" lon="12.309707344301906"><ele>131.75</ele><time>2026-05-01T08:39:38Z</time></trkpt><trkpt lat="42.036224106542946" lon="12.309528383263764"><ele>132.5</ele><time>2026-05-01T08:39:39Z</time></trkpt><trkpt lat="42.03616276401632" lon="12.30934450922164"><ele>133.25</ele><time>2026-05-01T08:39:40Z</time></trkpt><trkpt lat="42.036099254875346" lon="12.309157832992163"><ele>134.0</ele><time>2026-05-01T08:39:41Z</time></trkpt><trkpt lat="42.03603871684256" lon="12.30897053142431"><ele>134.25</ele><time>2026-05-01T08:39:42Z</time></trkpt><trkpt lat="42.03598004820998" lon="12.308785220129668"><ele>134.5</ele><time>2026-05-01T08:39:43Z</time></trkpt><trkpt lat="42.035914292748835" lon="12.30860877403397"><ele>134.75</ele><time>2026-05-01T08:39:44.001Z</time></trkpt><trkpt lat="42.03585532528513" lon="12.308428634271575"><ele>135.0</ele><time>2026-05-01T08:39:45.001Z</time></trkpt><trkpt lat="42.035789946216305" lon="12.308248609403737"><ele>136.0</ele><time>2026-05-01T08:39:46.001Z</time></trkpt><trkpt lat="42.035716304777154" lon="12.308074182221459"><ele>137.0</ele><time>2026-05-01T08:39:47.001Z</time></trkpt><trkpt lat="42.03565287391109" lon="12.30789206916106"><ele>138.0</ele><time>2026-05-01T08:39:48.001Z</time></trkpt><trkpt lat="42.03558345541219" lon="12.30770393741261"><ele>138.0</ele><time>2026-05-01T08:39:49.001Z</time></trkpt><trkpt lat="42.03551335437047" lon="12.30751557104707"><ele>138.0</ele><time>2026-05-01T08:39:50.001Z</time></trkpt><trkpt lat="42.03543164429239" lon="12.307326468106952"><ele>138.0</ele><time>2026-05-01T08:39:51.001Z</time></trkpt><trkpt lat="42.03533550822938" lon="12.307132667865199"><ele>138.66666666666666</ele><time>2026-05-01T08:39:52.001Z</time></trkpt><trkpt lat="42.035231798958456" lon="12.306947665961431"><ele>139.33333333333331</ele><time>2026-05-01T08:39:53.001Z</time></trkpt><trkpt lat="42.03513674731667" lon="12.306770565509861"><ele>140.0</ele><time>2026-05-01T08:39:54.001Z</time></trkpt><trkpt lat="42.0350520765625" lon="12.306591040742605"><ele>139.33333333333331</ele><time>2026-05-01T08:39:55.001Z</time></trkpt><trkpt lat="42.034955177952995" lon="12.306427084777054"><ele>138.66666666666666</ele><time>2026-05-01T08:39:56.001Z</time></trkpt><trkpt lat="42.034855023294384" lon="12.30625579878913"><ele>138.0</ele><time>2026-05-01T08:39:57.001Z</time></trkpt><trkpt lat="42.034763513877586" lon="12.306076189557523"><ele>138.0</ele><time>2026-05-01T08:39:58.001Z</time></trkpt><trkpt lat="42.03466724592603" lon="12.30589267837094"><ele>138.0</ele><time>2026-05-01T08:39:59.001Z</time></trkpt><trkpt lat="42.03456964605777" lon="12.305720091893598"><ele>138.0</ele><time>2026-05-01T08:40:00.001Z</time></trkpt><trkpt lat="42.03447201713764" lon="12.305535575553776"><ele>137.66666666666666</ele><time>2026-05-01T08:40:01.001Z</time></trkpt><trkpt lat="42.03437556821784" lon="12.305334275923718"><ele>137.33333333333331</ele><time>2026-05-01T08:40:02.001Z</time></trkpt><trkpt lat="42.03428392153315" lon="12.30514080093482"><ele>137.0</ele><time>2026-05-01T08:40:03.001Z</time></trkpt><trkpt lat="42.034191339263515" lon="12.30494109913146"><ele>136.0</ele><time>2026-05-01T08:40:04.001Z</time></trkpt><trkpt lat="42.03409281626214" lon="12.30474189012134"><ele>135.0</ele><time>2026-05-01T08:40:05.001Z</time></trkpt><trkpt lat="42.033995035050985" lon="12.30455447653277"><ele>134.0</ele><time>2026-05-01T08:40:06.001Z</time></trkpt><trkpt lat="42.03389631568783" lon="12.304377552940146"><ele>134.0</ele><time>2026-05-01T08:40:07.001Z</time></trkpt><trkpt lat="42.03379497972702" lon="12.304210753632091"><ele>134.0</ele><time>2026-05-01T08:40:08.001Z</time></trkpt><trkpt lat="42.03369255888742" lon="12.304047938587651"><ele>134.0</ele><time>2026-05-01T08:40:09.001Z</time></trkpt><trkpt lat="42.033579933190545" lon="12.303877354192432"><ele>133.0</ele><time>2026-05-01T08:40:10.001Z</time></trkpt><trkpt lat="42.03345600061072" lon="12.303713405708507"><ele>132.0</ele><time>2026-05-01T08:40:11.001Z</time></trkpt><trkpt lat="42.03332847116521" lon="12.303548796694631"><ele>131.0</ele><time>2026-05-01T08:40:12.001Z</time></trkpt><trkpt lat="42.033199692282416" lon="12.303385182530759"><ele>131.0</ele><time>2026-05-01T08:40:13.001Z</time></trkpt><trkpt lat="42.03307353479357" lon="12.303218593590072"><ele>131.0</ele><time>2026-05-01T08:40:14.001Z</time></trkpt><trkpt lat="42.03294325923388" lon="12.30305925021748"><ele>131.0</ele><time>2026-05-01T08:40:15.001Z</time></trkpt><trkpt lat="42.03282349020214" lon="12.302896276135613"><ele>130.66666666666666</ele><time>2026-05-01T08:40:16.001Z</time></trkpt><trkpt lat="42.03271361287653" lon="12.302735151165113"><ele>130.33333333333334</ele><time>2026-05-01T08:40:17.001Z</time></trkpt><trkpt lat="42.032609667794276" lon="12.30257620040712"><ele>130.0</ele><time>2026-05-01T08:40:18.001Z</time></trkpt><trkpt lat="42.03249970786164" lon="12.30239141624272"><ele>128.66666666666669</ele><time>2026-05-01T08:40:19.001Z</time></trkpt><trkpt lat="42.03240925036345" lon="12.302208073232716"><ele>127.33333333333334</ele><time>2026-05-01T08:40:20.001Z</time></trkpt><trkpt lat="42.0323239641812" lon="12.302038953573241"><ele>126.0</ele><time>2026-05-01T08:40:21.001Z</time></trkpt><trkpt lat="42.03223261966759" lon="12.301855218463867"><ele>126.0</ele><time>2026-05-01T08:40:22.001Z</time></trkpt><trkpt lat="42.03214411011316" lon="12.301672801616974"><ele>126.0</ele><time>2026-05-01T08:40:23.001Z</time></trkpt><trkpt lat="42.03205097512845" lon="12.301482947613295"><ele>126.0</ele><time>2026-05-01T08:40:24.001Z</time></trkpt><trkpt lat="42.03196065558167" lon="12.301288483033735"><ele>126.33333333333334</ele><time>2026-05-01T08:40:25.001Z</time></trkpt><trkpt lat="42.03186904541475" lon="12.301094856433224"><ele>126.66666666666667</ele><time>2026-05-01T08:40:26.001Z</time></trkpt><trkpt lat="42.03177523986855" lon="12.300899082895397"><ele>127.0</ele><time>2026-05-01T08:40:27.001Z</time></trkpt><trkpt lat="42.031683186798354" lon="12.300702936366122"><ele>128.0</ele><time>2026-05-01T08:40:28.001Z</time></trkpt><trkpt lat="42.031597153803716" lon="12.300504976771501"><ele>129.0</ele><time>2026-05-01T08:40:29.001Z</time></trkpt><trkpt lat="42.03151182511657" lon="12.30031326235676"><ele>130.0</ele><time>2026-05-01T08:40:30.001Z</time></trkpt><trkpt lat="42.031429866368754" lon="12.300110564318349"><ele>130.0</ele><time>2026-05-01T08:40:31.001Z</time></trkpt><trkpt lat="42.0313644889667" lon="12.299900465607518"><ele>130.0</ele><time>2026-05-01T08:40:32.001Z</time></trkpt><trkpt lat="42.031319924976835" lon="12.29968699304172"><ele>130.0</ele><time>2026-05-01T08:40:33.001Z</time></trkpt><trkpt lat="42.03129329024862" lon="12.29946905237533"><ele>131.33333333333334</ele><time>2026-05-01T08:40:34.001Z</time></trkpt><trkpt lat="42.031275975784574" lon="12.299248013044705"><ele>132.66666666666666</ele><time>2026-05-01T08:40:35.001Z</time></trkpt><trkpt lat="42.03126523084113" lon="12.29902005440636"><ele>134.0</ele><time>2026-05-01T08:40:36.001Z</time></trkpt><trkpt lat="42.0312557956322" lon="12.298795386061784"><ele>135.66666666666666</ele><time>2026-05-01T08:40:37.001Z</time></trkpt><trkpt lat="42.031245080113294" lon="12.298570026178114"><ele>137.33333333333334</ele><time>2026-05-01T08:40:38.001Z</time></trkpt><trkpt lat="42.03123452110021" lon="12.298344609757983"><ele>139.0</ele><time>2026-05-01T08:40:39.001Z</time></trkpt><trkpt lat="42.03122982874535" lon="12.298117027410289"><ele>139.66666666666669</ele><time>2026-05-01T08:40:40.001Z</time></trkpt><trkpt lat="42.03122670182936" lon="12.297892221402462"><ele>140.33333333333334</ele><time>2026-05-01T08:40:41.001Z</time></trkpt><trkpt lat="42.03122383038064" lon="12.297676023277356"><ele>141.0</ele><time>2026-05-01T08:40:42.001Z</time></trkpt><trkpt lat="42.03120840865198" lon="12.29744478206548"><ele>141.33333333333334</ele><time>2026-05-01T08:40:43.001Z</time></trkpt><trkpt lat="42.031199445201054" lon="12.297210820569159"><ele>141.66666666666669</ele><time>2026-05-01T08:40:44.001Z</time></trkpt><trkpt lat="42.03119852249655" lon="12.296982699591533"><ele>142.0</ele><time>2026-05-01T08:40:45.001Z</time></trkpt><trkpt lat="42.03119012936265" lon="12.296758303922127"><ele>142.0</ele><time>2026-05-01T08:40:46.001Z</time></trkpt><trkpt lat="42.03117908804913" lon="12.296535458218731"><ele>142.0</ele><time>2026-05-01T08:40:47.002Z</time></trkpt><trkpt lat="42.03116958520924" lon="12.296317488573607"><ele>142.0</ele><time>2026-05-01T08:40:48.002Z</time></trkpt><trkpt lat="42.03116183092614" lon="12.296104833473713"><ele>142.33333333333334</ele><time>2026-05-01T08:40:49.002Z</time></trkpt><trkpt lat="42.03115578916963" lon="12.29588763116033"><ele>142.66666666666666</ele><time>2026-05-01T08:40:50.002Z</time></trkpt><trkpt lat="42.03115120961462" lon="12.295671169221723"><ele>143.0</ele><time>2026-05-01T08:40:51.002Z</time></trkpt><trkpt lat="42.03114439066625" lon="12.295457622329854"><ele>143.33333333333331</ele><time>2026-05-01T08:40:52.002Z</time></trkpt><trkpt lat="42.03113145002894" lon="12.295239969197446"><ele>143.66666666666666</ele><time>2026-05-01T08:40:53.002Z</time></trkpt><trkpt lat="42.03112085469982" lon="12.295025581350226"><ele>144.0</ele><time>2026-05-01T08:40:54.002Z</time></trkpt><trkpt lat="42.031107858176995" lon="12.294806312338917"><ele>144.66666666666666</ele><time>2026-05-01T08:40:55.002Z</time></trkpt><trkpt lat="42.03111413964468" lon="12.294592107063893"><ele>145.33333333333331</ele><time>2026-05-01T08:40:56.002Z</time></trkpt><trkpt lat="42.031123278137564" lon="12.294359170633543"><ele>146.0</ele><time>2026-05-01T08:40:57.002Z</time></trkpt><trkpt lat="42.03112737310073" lon="12.29412785766656"><ele>147.0</ele><time>2026-05-01T08:40:58.002Z</time></trkpt><trkpt lat="42.03112879094418" lon="12.293902342277763"><ele>148.0</ele><time>2026-05-01T08:40:59.002Z</time></trkpt><trkpt lat="42.031135670936635" lon="12.293676956945696"><ele>149.0</ele><time>2026-05-01T08:41:00.002Z</time></trkpt><trkpt lat="42.031162627806125" lon="12.29345197695656"><ele>149.0</ele><time>2026-05-01T08:41:01Z</time></trkpt><trkpt lat="42.03119345848702" lon="12.293240732864122"><ele>149.0</ele><time>2026-05-01T08:41:02Z</time></trkpt><trkpt lat="42.031226122760906" lon="12.29302991493938"><ele>149.0</ele><time>2026-05-01T08:41:03Z</time></trkpt><trkpt lat="42.031252088024864" lon="12.292858915071871"><ele>149.0</ele><time>2026-05-01T08:41:04Z</time></trkpt><trkpt lat="42.03124493230624" lon="12.292682773536118"><ele>149.0</ele><time>2026-05-01T08:41:05Z</time></trkpt><trkpt lat="42.03126520923293" lon="12.292478573239903"><ele>149.0</ele><time>2026-05-01T08:41:06Z</time></trkpt><trkpt lat="42.03129639839201" lon="12.292268810830768"><ele>149.0</ele><time>2026-05-01T08:41:07Z</time></trkpt><trkpt lat="42.03133327749502" lon="12.292066109048879"><ele>149.25</ele><time>2026-05-01T08:41:08Z</time></trkpt><trkpt lat="42.031361812354845" lon="12.291861045214683"><ele>149.5</ele><time>2026-05-01T08:41:09Z</time></trkpt><trkpt lat="42.031388093957396" lon="12.29167355531322"><ele>149.75</ele><time>2026-05-01T08:41:10Z</time></trkpt><trkpt lat="42.031407377114874" lon="12.291487632462964"><ele>150.0</ele><time>2026-05-01T08:41:11Z</time></trkpt><trkpt lat="42.03143296397337" lon="12.291301043291027"><ele>150.25</ele><time>2026-05-01T08:41:12Z</time></trkpt><trkpt lat="42.0314655391678" lon="12.291117990359774"><ele>150.5</ele><time>2026-05-01T08:41:13Z</time></trkpt><trkpt lat="42.0314897540797" lon="12.290933300408005"><ele>150.75</ele><time>2026-05-01T08:41:14Z</time></trkpt><trkpt lat="42.03151633282854" lon="12.290753001032856"><ele>151.0</ele><time>2026-05-01T08:41:15Z</time></trkpt><trkpt lat="42.031541258718384" lon="12.290569045818076"><ele>151.0</ele><time>2026-05-01T08:41:16Z</time></trkpt><trkpt lat="42.03157040187505" lon="12.290382880388547"><ele>151.0</ele><time>2026-05-01T08:41:17Z</time></trkpt><trkpt lat="42.031599283916066" lon="12.29019860502312"><ele>151.0</ele><time>2026-05-01T08:41:18Z</time></trkpt><trkpt lat="42.0316282824214" lon="12.290014407214633"><ele>151.0</ele><time>2026-05-01T08:41:19Z</time></trkpt><trkpt lat="42.03165777360382" lon="12.28983052874568"><ele>151.0</ele><time>2026-05-01T08:41:20Z</time></trkpt><trkpt lat="42.03169019517209" lon="12.289647656151462"><ele>151.0</ele><time>2026-05-01T08:41:21Z</time></trkpt><trkpt lat="42.03171805478291" lon="12.289467948632716"><ele>151.0</ele><time>2026-05-01T08:41:22Z</time></trkpt><trkpt lat="42.0317457821429" lon="12.28929211914469"><ele>151.0</ele><time>2026-05-01T08:41:23Z</time></trkpt><trkpt lat="42.03177443072003" lon="12.289110291924043"><ele>151.0</ele><time>2026-05-01T08:41:24Z</time></trkpt><trkpt lat="42.03180474992357" lon="12.288907907908342"><ele>151.0</ele><time>2026-05-01T08:41:25Z</time></trkpt><trkpt lat="42.031841602078956" lon="12.288690593031053"><ele>151.0</ele><time>2026-05-01T08:41:26Z</time></trkpt><trkpt lat="42.03187309242272" lon="12.288483974539684"><ele>151.0</ele><time>2026-05-01T08:41:27Z</time></trkpt><trkpt lat="42.03189728313969" lon="12.288286205337592"><ele>151.0</ele><time>2026-05-01T08:41:28Z</time></trkpt><trkpt lat="42.03194255267745" lon="12.288110346606075"><ele>151.0</ele><time>2026-05-01T08:41:29Z</time></trkpt><trkpt lat="42.03197192646263" lon="12.287936593195006"><ele>151.0</ele><time>2026-05-01T08:41:30Z</time></trkpt><trkpt lat="42.031993180348344" lon="12.287751578231878"><ele>151.0</ele><time>2026-05-01T08:41:31Z</time></trkpt><trkpt lat="42.03202872212443" lon="12.287572794422587"><ele>151.0</ele><time>2026-05-01T08:41:32Z</time></trkpt><trkpt lat="42.03206547885233" lon="12.287380478775242"><ele>151.0</ele><time>2026-05-01T08:41:33Z</time></trkpt><trkpt lat="42.032102222384815" lon="12.287178239997072"><ele>151.0</ele><time>2026-05-01T08:41:34Z</time></trkpt><trkpt lat="42.03213947438399" lon="12.286966866471118"><ele>151.0</ele><time>2026-05-01T08:41:35Z</time></trkpt><trkpt lat="42.03217731065011" lon="12.286741078678634"><ele>151.0</ele><time>2026-05-01T08:41:36Z</time></trkpt><trkpt lat="42.03221930050941" lon="12.286499211430497"><ele>151.0</ele><time>2026-05-01T08:41:37Z</time></trkpt><trkpt lat="42.032264585780986" lon="12.286241638064938"><ele>151.33333333333334</ele><time>2026-05-01T08:41:38Z</time></trkpt><trkpt lat="42.03231994205212" lon="12.285972792948147"><ele>151.66666666666666</ele><time>2026-05-01T08:41:39Z</time></trkpt><trkpt lat="42.0323711752765" lon="12.285690001377137"><ele>152.0</ele><time>2026-05-01T08:41:40Z</time></trkpt><trkpt lat="42.032420507349954" lon="12.285393723054415"><ele>153.0</ele><time>2026-05-01T08:41:41Z</time></trkpt><trkpt lat="42.03246326802772" lon="12.285089019400933"><ele>154.0</ele><time>2026-05-01T08:41:42Z</time></trkpt><trkpt lat="42.0325001132857" lon="12.284790011125992"><ele>156.33333333333334</ele><time>2026-05-01T08:41:43Z</time></trkpt><trkpt lat="42.03253069052075" lon="12.284499903824987"><ele>158.66666666666666</ele><time>2026-05-01T08:41:44Z</time></trkpt><trkpt lat="42.032559755051736" lon="12.284210536326254"><ele>161.0</ele><time>2026-05-01T08:41:45Z</time></trkpt><trkpt lat="42.032589250949236" lon="12.283921800186816"><ele>161.66666666666666</ele><time>2026-05-01T08:41:46Z</time></trkpt><trkpt lat="42.03261964774002" lon="12.2836371866347"><ele>162.33333333333334</ele><time>2026-05-01T08:41:47Z</time></trkpt><trkpt lat="42.03265101696837" lon="12.283357151930545"><ele>163.0</ele><time>2026-05-01T08:41:48Z</time></trkpt><trkpt lat="42.03268417068547" lon="12.283079280546582"><ele>164.0</ele><time>2026-05-01T08:41:49Z</time></trkpt><trkpt lat="42.03272109842016" lon="12.28280485548188"><ele>165.0</ele><time>2026-05-01T08:41:50.001Z</time></trkpt><trkpt lat="42.032760017366094" lon="12.28253543963406"><ele>166.0</ele><time>2026-05-01T08:41:51.001Z</time></trkpt><trkpt lat="42.0327969786968" lon="12.282275021227237"><ele>165.33333333333334</ele><time>2026-05-01T08:41:52.001Z</time></trkpt><trkpt lat="42.03282964504699" lon="12.282029691742238"><ele>164.66666666666666</ele><time>2026-05-01T08:41:53.001Z</time></trkpt><trkpt lat="42.032861677017245" lon="12.281801750191363"><ele>164.0</ele><time>2026-05-01T08:41:54.001Z</time></trkpt><trkpt lat="42.032897883789694" lon="12.281586150233338"><ele>164.66666666666666</ele><time>2026-05-01T08:41:55.001Z</time></trkpt><trkpt lat="42.032943262053024" lon="12.281368526814948"><ele>165.33333333333334</ele><time>2026-05-01T08:41:56.001Z</time></trkpt><trkpt lat="42.0329981474161" lon="12.281150841537007"><ele>166.0</ele><time>2026-05-01T08:41:57.001Z</time></trkpt><trkpt lat="42.033055423735405" lon="12.280931654528956"><ele>166.0</ele><time>2026-05-01T08:41:58.001Z</time></trkpt><trkpt lat="42.03312061070375" lon="12.280710354414008"><ele>166.0</ele><time>2026-05-01T08:41:59.001Z</time></trkpt><trkpt lat="42.03318630923001" lon="12.280487133207522"><ele>166.0</ele><time>2026-05-01T08:42:00.001Z</time></trkpt><trkpt lat="42.033249626098495" lon="12.28025872048402"><ele>165.66666666666669</ele><time>2026-05-01T08:42:01.001Z</time></trkpt><trkpt lat="42.0333149187443" lon="12.28002451087881"><ele>165.33333333333334</ele><time>2026-05-01T08:42:02.001Z</time></trkpt><trkpt lat="42.03338206848267" lon="12.279784920375374"><ele>165.0</ele><time>2026-05-01T08:42:03.001Z</time></trkpt><trkpt lat="42.03344933373306" lon="12.279541890999806"><ele>164.0</ele><time>2026-05-01T08:42:04.001Z</time></trkpt><trkpt lat="42.03351661251073" lon="12.27928862293545"><ele>163.0</ele><time>2026-05-01T08:42:05.001Z</time></trkpt><trkpt lat="42.03359312881436" lon="12.279037414508263"><ele>162.0</ele><time>2026-05-01T08:42:06.001Z</time></trkpt><trkpt lat="42.03366675502946" lon="12.278781731395329"><ele>161.66666666666666</ele><time>2026-05-01T08:42:07.001Z</time></trkpt><trkpt lat="42.033736922942246" lon="12.278522566199943"><ele>161.33333333333331</ele><time>2026-05-01T08:42:08.001Z</time></trkpt><trkpt lat="42.03380558058589" lon="12.27826068810156"><ele>161.0</ele><time>2026-05-01T08:42:09.001Z</time></trkpt><trkpt lat="42.03387065694929" lon="12.278005487929555"><ele>160.66666666666666</ele><time>2026-05-01T08:42:10.001Z</time></trkpt><trkpt lat="42.03393273461227" lon="12.277765570954825"><ele>160.33333333333334</ele><time>2026-05-01T08:42:11.001Z</time></trkpt><trkpt lat="42.03399449419449" lon="12.277538967021002"><ele>160.0</ele><time>2026-05-01T08:42:12.001Z</time></trkpt><trkpt lat="42.03405038456447" lon="12.277323489754712"><ele>160.33333333333334</ele><time>2026-05-01T08:42:13.001Z</time></trkpt><trkpt lat="42.03409701749933" lon="12.277126157628553"><ele>160.66666666666666</ele><time>2026-05-01T08:42:14.001Z</time></trkpt><trkpt lat="42.034148315111985" lon="12.276931093958275"><ele>161.0</ele><time>2026-05-01T08:42:15.001Z</time></trkpt><trkpt lat="42.0342210752671" lon="12.27674668611373"><ele>162.66666666666666</ele><time>2026-05-01T08:42:16.001Z</time></trkpt><trkpt lat="42.034274735339366" lon="12.27654718023636"><ele>164.33333333333334</ele><time>2026-05-01T08:42:17.001Z</time></trkpt><trkpt lat="42.034327811516334" lon="12.276349682990409"><ele>166.0</ele><time>2026-05-01T08:42:18.001Z</time></trkpt><trkpt lat="42.0343662059414" lon="12.276150405559562"><ele>166.0</ele><time>2026-05-01T08:42:19.001Z</time></trkpt><trkpt lat="42.034422121243196" lon="12.275952383739776"><ele>166.0</ele><time>2026-05-01T08:42:20.001Z</time></trkpt><trkpt lat="42.03447873153315" lon="12.275750875218499"><ele>166.0</ele><time>2026-05-01T08:42:21.001Z</time></trkpt><trkpt lat="42.03453811693491" lon="12.275548374832175"><ele>164.66666666666669</ele><time>2026-05-01T08:42:22.001Z</time></trkpt><trkpt lat="42.03460241706335" lon="12.275346462904695"><ele>163.33333333333334</ele><time>2026-05-01T08:42:23.001Z</time></trkpt><trkpt lat="42.03466900726574" lon="12.275136511199495"><ele>162.0</ele><time>2026-05-01T08:42:24.001Z</time></trkpt><trkpt lat="42.03473588487885" lon="12.274920974315835"><ele>162.0</ele><time>2026-05-01T08:42:25.001Z</time></trkpt><trkpt lat="42.0348015187078" lon="12.274699039194173"><ele>162.0</ele><time>2026-05-01T08:42:26.001Z</time></trkpt><trkpt lat="42.03487181337277" lon="12.274473305435064"><ele>162.0</ele><time>2026-05-01T08:42:27.001Z</time></trkpt><trkpt lat="42.034945799714116" lon="12.274253202262821"><ele>162.33333333333334</ele><time>2026-05-01T08:42:28.001Z</time></trkpt><trkpt lat="42.03502177760237" lon="12.274029904079844"><ele>162.66666666666669</ele><time>2026-05-01T08:42:29.001Z</time></trkpt><trkpt lat="42.035100547495475" lon="12.273794087935515"><ele>163.0</ele><time>2026-05-01T08:42:30.001Z</time></trkpt><trkpt lat="42.03517829348534" lon="12.273566497937468"><ele>163.33333333333334</ele><time>2026-05-01T08:42:31.001Z</time></trkpt><trkpt lat="42.035251676461165" lon="12.273343907581724"><ele>163.66666666666666</ele><time>2026-05-01T08:42:32.001Z</time></trkpt><trkpt lat="42.03533022524684" lon="12.273128722236509"><ele>164.0</ele><time>2026-05-01T08:42:33.001Z</time></trkpt><trkpt lat="42.035407929704405" lon="12.27291554607617"><ele>165.0</ele><time>2026-05-01T08:42:34.001Z</time></trkpt><trkpt lat="42.03548302509244" lon="12.272711852330774"><ele>166.0</ele><time>2026-05-01T08:42:35.001Z</time></trkpt><trkpt lat="42.03555093157654" lon="12.272518788671352"><ele>167.0</ele><time>2026-05-01T08:42:36.001Z</time></trkpt><trkpt lat="42.035618690823085" lon="12.272327314360888"><ele>168.33333333333331</ele><time>2026-05-01T08:42:37.001Z</time></trkpt><trkpt lat="42.03568849847668" lon="12.272140498354602"><ele>169.66666666666666</ele><time>2026-05-01T08:42:38.001Z</time></trkpt><trkpt lat="42.03575706545451" lon="12.27195391828011"><ele>171.0</ele><time>2026-05-01T08:42:39.001Z</time></trkpt><trkpt lat="42.03582081895731" lon="12.271761727117173"><ele>171.66666666666666</ele><time>2026-05-01T08:42:40.001Z</time></trkpt><trkpt lat="42.03587710250511" lon="12.271561129000297"><ele>172.33333333333331</ele><time>2026-05-01T08:42:41.001Z</time></trkpt><trkpt lat="42.03592585949184" lon="12.27135023935394"><ele>173.0</ele><time>2026-05-01T08:42:42.001Z</time></trkpt><trkpt lat="42.03596369673446" lon="12.271126385673398"><ele>173.33333333333331</ele><time>2026-05-01T08:42:43.001Z</time></trkpt><trkpt lat="42.036010447739095" lon="12.27089525245198"><ele>173.66666666666666</ele><time>2026-05-01T08:42:44.001Z</time></trkpt><trkpt lat="42.03603831689263" lon="12.270661696420548"><ele>174.0</ele><time>2026-05-01T08:42:45.001Z</time></trkpt><trkpt lat="42.0360518797135" lon="12.270431733509293"><ele>173.33333333333334</ele><time>2026-05-01T08:42:46.001Z</time></trkpt><trkpt lat="42.03607953034576" lon="12.27021400388695"><ele>172.66666666666669</ele><time>2026-05-01T08:42:47.001Z</time></trkpt><trkpt lat="42.03610953642531" lon="12.270005069446132"><ele>172.0</ele><time>2026-05-01T08:42:48.001Z</time></trkpt><trkpt lat="42.0361417180898" lon="12.269799662173867"><ele>171.0</ele><time>2026-05-01T08:42:49.001Z</time></trkpt><trkpt lat="42.036182038644064" lon="12.269602431239695"><ele>170.0</ele><time>2026-05-01T08:42:50.001Z</time></trkpt><trkpt lat="42.03623425061675" lon="12.269414194368949"><ele>169.0</ele><time>2026-05-01T08:42:51.002Z</time></trkpt><trkpt lat="42.03629634212445" lon="12.269228130928548"><ele>169.0</ele><time>2026-05-01T08:42:52.002Z</time></trkpt><trkpt lat="42.036362184735346" lon="12.269047093043039"><ele>169.0</ele><time>2026-05-01T08:42:53.002Z</time></trkpt><trkpt lat="42.03642990337903" lon="12.26886766961939"><ele>169.0</ele><time>2026-05-01T08:42:54.002Z</time></trkpt><trkpt lat="42.036493932598226" lon="12.268684854362888"><ele>169.0</ele><time>2026-05-01T08:42:55.002Z</time></trkpt><trkpt lat="42.03655732195969" lon="12.268503137603403"><ele>169.75</ele><time>2026-05-01T08:42:56.002Z</time></trkpt><trkpt lat="42.03661854322504" lon="12.268322555833352"><ele>170.5</ele><time>2026-05-01T08:42:57.002Z</time></trkpt><trkpt lat="42.036681626682345" lon="12.268143647025049"><ele>171.25</ele><time>2026-05-01T08:42:58.002Z</time></trkpt><trkpt lat="42.03674517023479" lon="12.267967177680573"><ele>172.0</ele><time>2026-05-01T08:42:59.002Z</time></trkpt><trkpt lat="42.03680968324393" lon="12.26779004341837"><ele>173.25</ele><time>2026-05-01T08:43:00.002Z</time></trkpt><trkpt lat="42.03687434774531" lon="12.267614663877012"><ele>174.5</ele><time>2026-05-01T08:43:01.002Z</time></trkpt><trkpt lat="42.03693818031381" lon="12.267437063014885"><ele>175.75</ele><time>2026-05-01T08:43:02.002Z</time></trkpt><trkpt lat="42.03700425862768" lon="12.267256916974725"><ele>177.0</ele><time>2026-05-01T08:43:03.002Z</time></trkpt><trkpt lat="42.03706985257202" lon="12.26707503068357"><ele>177.75</ele><time>2026-05-01T08:43:04.002Z</time></trkpt><trkpt lat="42.03713403670624" lon="12.266895153154687"><ele>178.5</ele><time>2026-05-01T08:43:05.002Z</time></trkpt><trkpt lat="42.03719973816546" lon="12.266715229867366"><ele>179.25</ele><time>2026-05-01T08:43:06.002Z</time></trkpt><trkpt lat="42.0372685901124" lon="12.266537727201259"><ele>180.0</ele><time>2026-05-01T08:43:07Z</time></trkpt><trkpt lat="42.037332114968486" lon="12.266358012035674"><ele>180.25</ele><time>2026-05-01T08:43:08Z</time></trkpt><trkpt lat="42.03739699619636" lon="12.266179882897728"><ele>180.5</ele><time>2026-05-01T08:43:09Z</time></trkpt><trkpt lat="42.03746461758257" lon="12.266003154516863"><ele>180.75</ele><time>2026-05-01T08:43:10Z</time></trkpt><trkpt lat="42.03752976748527" lon="12.265823919779946"><ele>181.0</ele><time>2026-05-01T08:43:11Z</time></trkpt><trkpt lat="42.037595076352595" lon="12.265642314035679"><ele>180.66666666666669</ele><time>2026-05-01T08:43:12Z</time></trkpt><trkpt lat="42.03766186422295" lon="12.265458302017375"><ele>180.33333333333334</ele><time>2026-05-01T08:43:13Z</time></trkpt><trkpt lat="42.037728223888955" lon="12.265271807140774"><ele>180.0</ele><time>2026-05-01T08:43:14Z</time></trkpt><trkpt lat="42.03780506341969" lon="12.2650876834436"><ele>180.0</ele><time>2026-05-01T08:43:15Z</time></trkpt><trkpt lat="42.037884173751024" lon="12.264901860698822"><ele>180.0</ele><time>2026-05-01T08:43:16Z</time></trkpt><trkpt lat="42.03796942528834" lon="12.264715629123891"><ele>180.0</ele><time>2026-05-01T08:43:17Z</time></trkpt><trkpt lat="42.03806202725532" lon="12.26453520372077"><ele>179.33333333333334</ele><time>2026-05-01T08:43:18Z</time></trkpt><trkpt lat="42.03816075786781" lon="12.264358407534854"><ele>178.66666666666669</ele><time>2026-05-01T08:43:19Z</time></trkpt><trkpt lat="42.03826667044646" lon="12.264189147473095"><ele>178.0</ele><time>2026-05-01T08:43:20Z</time></trkpt><trkpt lat="42.03838076599557" lon="12.264030368048195"><ele>177.33333333333334</ele><time>2026-05-01T08:43:21Z</time></trkpt><trkpt lat="42.03849842604792" lon="12.263875332074575"><ele>176.66666666666666</ele><time>2026-05-01T08:43:22Z</time></trkpt><trkpt lat="42.03861422376553" lon="12.26372068471378"><ele>176.0</ele><time>2026-05-01T08:43:23Z</time></trkpt><trkpt lat="42.03873273705851" lon="12.263566816171883"><ele>176.0</ele><time>2026-05-01T08:43:24Z</time></trkpt><trkpt lat="42.0388534501097" lon="12.263419717716411"><ele>176.0</ele><time>2026-05-01T08:43:25Z</time></trkpt><trkpt lat="42.03897254053372" lon="12.263270412654995"><ele>176.0</ele><time>2026-05-01T08:43:26Z</time></trkpt><trkpt lat="42.03909436881621" lon="12.263124697960151"><ele>177.66666666666666</ele><time>2026-05-01T08:43:27Z</time></trkpt><trkpt lat="42.03921857027718" lon="12.262980387746623"><ele>179.33333333333334</ele><time>2026-05-01T08:43:28Z</time></trkpt><trkpt lat="42.03933733577834" lon="12.262831123163904"><ele>181.0</ele><time>2026-05-01T08:43:29Z</time></trkpt><trkpt lat="42.03945862141498" lon="12.262681942369666"><ele>181.0</ele><time>2026-05-01T08:43:30Z</time></trkpt><trkpt lat="42.039581613723925" lon="12.262536542361469"><ele>181.0</ele><time>2026-05-01T08:43:31Z</time></trkpt><trkpt lat="42.039704225957145" lon="12.262386418037506"><ele>181.0</ele><time>2026-05-01T08:43:32Z</time></trkpt><trkpt lat="42.03982728635286" lon="12.26224326068736"><ele>181.66666666666669</ele><time>2026-05-01T08:43:33Z</time></trkpt><trkpt lat="42.039944487693994" lon="12.262096715376614"><ele>182.33333333333334</ele><time>2026-05-01T08:43:34Z</time></trkpt><trkpt lat="42.04006398133158" lon="12.26195199927798"><ele>183.0</ele><time>2026-05-01T08:43:35Z</time></trkpt><trkpt lat="42.040181079815795" lon="12.261813599499988"><ele>183.0</ele><time>2026-05-01T08:43:36Z</time></trkpt><trkpt lat="42.040299656980196" lon="12.261671912604136"><ele>183.0</ele><time>2026-05-01T08:43:37Z</time></trkpt><trkpt lat="42.040416766020186" lon="12.261527142356261"><ele>183.0</ele><time>2026-05-01T08:43:38Z</time></trkpt><trkpt lat="42.04053384870356" lon="12.261387650063469"><ele>181.66666666666666</ele><time>2026-05-01T08:43:39Z</time></trkpt><trkpt lat="42.04064986216742" lon="12.261248487105467"><ele>180.33333333333331</ele><time>2026-05-01T08:43:40Z</time></trkpt><trkpt lat="42.04076432034889" lon="12.261106600793527"><ele>179.0</ele><time>2026-05-01T08:43:41.001Z</time></trkpt><trkpt lat="42.04087900288408" lon="12.260966894319637"><ele>181.66666666666666</ele><time>2026-05-01T08:43:42.001Z</time></trkpt><trkpt lat="42.04099232354395" lon="12.260822468331174"><ele>184.33333333333334</ele><time>2026-05-01T08:43:43.001Z</time></trkpt><trkpt lat="42.041105584523486" lon="12.26069527382874"><ele>187.0</ele><time>2026-05-01T08:43:44.001Z</time></trkpt><trkpt lat="42.04121657005479" lon="12.260563320032904"><ele>187.75</ele><time>2026-05-01T08:43:45.001Z</time></trkpt><trkpt lat="42.04131899517613" lon="12.260437128248217"><ele>188.5</ele><time>2026-05-01T08:43:46.001Z</time></trkpt><trkpt lat="42.04141375906261" lon="12.260319876401988"><ele>189.25</ele><time>2026-05-01T08:43:47.001Z</time></trkpt><trkpt lat="42.04150576807591" lon="12.260209305110033"><ele>190.0</ele><time>2026-05-01T08:43:48.001Z</time></trkpt><trkpt lat="42.04158791634281" lon="12.260112100972957"><ele>190.16666666666669</ele><time>2026-05-01T08:43:49.001Z</time></trkpt><trkpt lat="42.04166614767291" lon="12.260033629602946"><ele>190.33333333333334</ele><time>2026-05-01T08:43:50.001Z</time></trkpt><trkpt lat="42.04174141371064" lon="12.259977152618262"><ele>190.5</ele><time>2026-05-01T08:43:51.001Z</time></trkpt><trkpt lat="42.04180499358513" lon="12.259927100935384"><ele>190.66666666666666</ele><time>2026-05-01T08:43:52.001Z</time></trkpt><trkpt lat="42.041873349925716" lon="12.259851718480572"><ele>190.83333333333331</ele><time>2026-05-01T08:43:54.001Z</time></trkpt><trkpt lat="42.04190047097732" lon="12.259755708033133"><ele>191.0</ele><time>2026-05-01T08:49:42Z</time></trkpt><trkpt lat="42.041962414876394" lon="12.259643862529272"><ele>191.4</ele><time>2026-05-01T08:49:45Z</time></trkpt><trkpt lat="42.04205521136191" lon="12.259591394448202"><ele>191.8</ele><time>2026-05-01T08:49:47Z</time></trkpt><trkpt lat="42.04217233574454" lon="12.259585507281386"><ele>192.20000000000002</ele><time>2026-05-01T08:49:49Z</time></trkpt><trkpt lat="42.042261823958725" lon="12.259488977105757"><ele>192.60000000000002</ele><time>2026-05-01T08:49:51Z</time></trkpt><trkpt lat="42.042285062429656" lon="12.259409602073799"><ele>193.0</ele><time>2026-05-01T08:49:52Z</time></trkpt><trkpt lat="42.042304015403495" lon="12.25930572735524"><ele>193.0</ele><time>2026-05-01T08:49:53Z</time></trkpt><trkpt lat="42.04234104588077" lon="12.259197463017005"><ele>193.0</ele><time>2026-05-01T08:49:54Z</time></trkpt><trkpt lat="42.04240791294535" lon="12.259088766343398"><ele>193.0</ele><time>2026-05-01T08:49:55Z</time></trkpt><trkpt lat="42.04249487286217" lon="12.25897356289456"><ele>193.0</ele><time>2026-05-01T08:49:56Z</time></trkpt><trkpt lat="42.04258088057864" lon="12.258874137955598"><ele>193.0</ele><time>2026-05-01T08:49:57Z</time></trkpt><trkpt lat="42.042673749832474" lon="12.258769269954614"><ele>194.0</ele><time>2026-05-01T08:49:58Z</time></trkpt><trkpt lat="42.0427715146189" lon="12.258661475281732"><ele>195.0</ele><time>2026-05-01T08:49:59Z</time></trkpt><trkpt lat="42.042878329881916" lon="12.258550225993655"><ele>196.0</ele><time>2026-05-01T08:50:00Z</time></trkpt><trkpt lat="42.042989484243016" lon="12.258424255615495"><ele>197.0</ele><time>2026-05-01T08:50:01Z</time></trkpt><trkpt lat="42.04311036713345" lon="12.258299392844688"><ele>197.0</ele><time>2026-05-01T08:50:02Z</time></trkpt><trkpt lat="42.04323227596909" lon="12.258178375851935"><ele>197.0</ele><time>2026-05-01T08:50:03Z</time></trkpt><trkpt lat="42.043361837662275" lon="12.258050063686369"><ele>197.0</ele><time>2026-05-01T08:50:04Z</time></trkpt><trkpt lat="42.04349448917263" lon="12.257914260507887"><ele>197.0</ele><time>2026-05-01T08:50:05Z</time></trkpt><trkpt lat="42.043632944224335" lon="12.25777452832615"><ele>197.0</ele><time>2026-05-01T08:50:06Z</time></trkpt><trkpt lat="42.043772612689125" lon="12.25762802142603"><ele>197.0</ele><time>2026-05-01T08:50:07Z</time></trkpt><trkpt lat="42.04391412656308" lon="12.257471587941408"><ele>197.0</ele><time>2026-05-01T08:50:08Z</time></trkpt><trkpt lat="42.044058722931375" lon="12.257301784111377"><ele>197.0</ele><time>2026-05-01T08:50:09Z</time></trkpt><trkpt lat="42.04419854339949" lon="12.257130740647796"><ele>197.0</ele><time>2026-05-01T08:50:10Z</time></trkpt><trkpt lat="42.044338802938356" lon="12.256960994542416"><ele>197.33333333333334</ele><time>2026-05-01T08:50:11Z</time></trkpt><trkpt lat="42.04447721283278" lon="12.2567892183702"><ele>197.66666666666669</ele><time>2026-05-01T08:50:12Z</time></trkpt><trkpt lat="42.04462181823553" lon="12.256614255201418"><ele>198.0</ele><time>2026-05-01T08:50:13Z</time></trkpt><trkpt lat="42.04477012201745" lon="12.256437600004423"><ele>198.33333333333331</ele><time>2026-05-01T08:50:14Z</time></trkpt><trkpt lat="42.044920050133484" lon="12.256258914827438"><ele>198.66666666666666</ele><time>2026-05-01T08:50:15Z</time></trkpt><trkpt lat="42.04507059485538" lon="12.256076223107607"><ele>199.0</ele><time>2026-05-01T08:50:16Z</time></trkpt><trkpt lat="42.04522298532796" lon="12.255898218258404"><ele>199.0</ele><time>2026-05-01T08:50:17Z</time></trkpt><trkpt lat="42.045385412424096" lon="12.255723359718473"><ele>199.0</ele><time>2026-05-01T08:50:18Z</time></trkpt><trkpt lat="42.04555764518911" lon="12.255551855922663"><ele>199.0</ele><time>2026-05-01T08:50:19Z</time></trkpt><trkpt lat="42.04573321844145" lon="12.255373855338322"><ele>199.33333333333331</ele><time>2026-05-01T08:50:20Z</time></trkpt><trkpt lat="42.045909852021914" lon="12.255198642806201"><ele>199.66666666666669</ele><time>2026-05-01T08:50:21Z</time></trkpt><trkpt lat="42.046090924371676" lon="12.255037319490873"><ele>200.0</ele><time>2026-05-01T08:50:22Z</time></trkpt><trkpt lat="42.046266202855925" lon="12.254875687707605"><ele>199.66666666666669</ele><time>2026-05-01T08:50:23Z</time></trkpt><trkpt lat="42.04643090616279" lon="12.254711108967369"><ele>199.33333333333331</ele><time>2026-05-01T08:50:24.001Z</time></trkpt><trkpt lat="42.04659215871746" lon="12.254543967916115"><ele>199.0</ele><time>2026-05-01T08:50:25.001Z</time></trkpt><trkpt lat="42.046750437776204" lon="12.254370428961273"><ele>199.0</ele><time>2026-05-01T08:50:26.001Z</time></trkpt><trkpt lat="42.04690493640201" lon="12.254186853576993"><ele>199.0</ele><time>2026-05-01T08:50:27.001Z</time></trkpt><trkpt lat="42.0470604462495" lon="12.254007687114465"><ele>199.0</ele><time>2026-05-01T08:50:28.001Z</time></trkpt><trkpt lat="42.047216278465314" lon="12.253825636136032"><ele>199.33333333333331</ele><time>2026-05-01T08:50:29.001Z</time></trkpt><trkpt lat="42.04737055362199" lon="12.253642225720537"><ele>199.66666666666669</ele><time>2026-05-01T08:50:30.001Z</time></trkpt><trkpt lat="42.04752397556066" lon="12.253461604248601"><ele>200.0</ele><time>2026-05-01T08:50:31.001Z</time></trkpt><trkpt lat="42.04766717725616" lon="12.253283711636485"><ele>200.33333333333334</ele><time>2026-05-01T08:50:32.001Z</time></trkpt><trkpt lat="42.04781528439768" lon="12.253103004706723"><ele>200.66666666666669</ele><time>2026-05-01T08:50:33.001Z</time></trkpt><trkpt lat="42.04796642083662" lon="12.25292955760715"><ele>201.0</ele><time>2026-05-01T08:50:34.001Z</time></trkpt><trkpt lat="42.048120967735" lon="12.252759515472167"><ele>201.0</ele><time>2026-05-01T08:50:35.001Z</time></trkpt><trkpt lat="42.04827937337704" lon="12.252595140958848"><ele>201.0</ele><time>2026-05-01T08:50:36.001Z</time></trkpt><trkpt lat="42.04844028755657" lon="12.252433386042085"><ele>201.0</ele><time>2026-05-01T08:50:37.001Z</time></trkpt><trkpt lat="42.04860473863949" lon="12.252275545323593"><ele>202.0</ele><time>2026-05-01T08:50:38.001Z</time></trkpt><trkpt lat="42.04876631746103" lon="12.252123197764039"><ele>203.0</ele><time>2026-05-01T08:50:39.001Z</time></trkpt><trkpt lat="42.048919776299726" lon="12.251965982974948"><ele>204.0</ele><time>2026-05-01T08:50:40.001Z</time></trkpt><trkpt lat="42.049061988952744" lon="12.25179885474775"><ele>204.0</ele><time>2026-05-01T08:50:41.001Z</time></trkpt><trkpt lat="42.0491913966889" lon="12.25161926945381"><ele>204.0</ele><time>2026-05-01T08:50:42.001Z</time></trkpt><trkpt lat="42.04929740446852" lon="12.251441504990007"><ele>204.0</ele><time>2026-05-01T08:50:43.001Z</time></trkpt><trkpt lat="42.04936273840628" lon="12.251268847646266"><ele>205.33333333333331</ele><time>2026-05-01T08:50:44.001Z</time></trkpt><trkpt lat="42.04941104725183" lon="12.251082587048092"><ele>206.66666666666666</ele><time>2026-05-01T08:50:45.001Z</time></trkpt><trkpt lat="42.049445406633346" lon="12.250886584157177"><ele>208.0</ele><time>2026-05-01T08:50:46.001Z</time></trkpt><trkpt lat="42.049480045122934" lon="12.25068487099772"><ele>209.0</ele><time>2026-05-01T08:50:47.001Z</time></trkpt><trkpt lat="42.049506152028684" lon="12.250488496892363"><ele>210.0</ele><time>2026-05-01T08:50:48.001Z</time></trkpt><trkpt lat="42.049519789651995" lon="12.250290774301291"><ele>211.0</ele><time>2026-05-01T08:50:49.001Z</time></trkpt><trkpt lat="42.04951340775032" lon="12.250082917165864"><ele>211.0</ele><time>2026-05-01T08:50:50.001Z</time></trkpt><trkpt lat="42.04949679590717" lon="12.249868615346434"><ele>211.0</ele><time>2026-05-01T08:50:51.001Z</time></trkpt><trkpt lat="42.04948798805573" lon="12.249639373968764"><ele>211.0</ele><time>2026-05-01T08:50:52.001Z</time></trkpt><trkpt lat="42.04951188136935" lon="12.249406871294061"><ele>213.5</ele><time>2026-05-01T08:50:53.001Z</time></trkpt><trkpt lat="42.049641516908125" lon="12.248928536217054"><ele>216.0</ele><time>2026-05-01T08:50:55.001Z</time></trkpt><trkpt lat="42.049725109762" lon="12.248686371007782"><ele>216.0</ele><time>2026-05-01T08:50:56.001Z</time></trkpt><trkpt lat="42.04980378041427" lon="12.248437261426321"><ele>216.0</ele><time>2026-05-01T08:50:57.001Z</time></trkpt><trkpt lat="42.049884106150664" lon="12.248191920941997"><ele>216.0</ele><time>2026-05-01T08:50:58.001Z</time></trkpt><trkpt lat="42.04996494853116" lon="12.247946314004995"><ele>216.0</ele><time>2026-05-01T08:50:59.001Z</time></trkpt><trkpt lat="42.05004312486301" lon="12.247706427472812"><ele>216.0</ele><time>2026-05-01T08:51:00.001Z</time></trkpt><trkpt lat="42.050116940111955" lon="12.247482484665165"><ele>216.0</ele><time>2026-05-01T08:51:01.001Z</time></trkpt><trkpt lat="42.05018602637985" lon="12.247272448541587"><ele>216.0</ele><time>2026-05-01T08:51:02.001Z</time></trkpt><trkpt lat="42.050260097920116" lon="12.247066590456079"><ele>216.0</ele><time>2026-05-01T08:51:03.001Z</time></trkpt><trkpt lat="42.05033163205554" lon="12.246852236683782"><ele>216.0</ele><time>2026-05-01T08:51:04.001Z</time></trkpt><trkpt lat="42.05040685615653" lon="12.246641088080091"><ele>216.0</ele><time>2026-05-01T08:51:05.001Z</time></trkpt><trkpt lat="42.05048030535227" lon="12.246417552221352"><ele>216.0</ele><time>2026-05-01T08:51:06.001Z</time></trkpt><trkpt lat="42.05055591489446" lon="12.246196940067566"><ele>216.0</ele><time>2026-05-01T08:51:07.001Z</time></trkpt><trkpt lat="42.0506299723057" lon="12.245994171229516"><ele>216.0</ele><time>2026-05-01T08:51:08.001Z</time></trkpt><trkpt lat="42.05070149132242" lon="12.24581806196771"><ele>216.0</ele><time>2026-05-01T08:51:09.001Z</time></trkpt><trkpt lat="42.05076754685931" lon="12.245674806478833"><ele>216.0</ele><time>2026-05-01T08:51:10.001Z</time></trkpt><trkpt lat="42.050840937934396" lon="12.24556929348644"><ele>216.0</ele><time>2026-05-01T08:51:11.001Z</time></trkpt><trkpt lat="42.0508949822402" lon="12.245480776705614"><ele>216.0</ele><time>2026-05-01T08:51:12.001Z</time></trkpt><trkpt lat="42.051033687536304" lon="12.245477168862578"><ele>216.0</ele><time>2026-05-01T08:51:13.001Z</time></trkpt><trkpt lat="42.05112780335866" lon="12.245550572798008"><ele>216.0</ele><time>2026-05-01T08:51:14.001Z</time></trkpt><trkpt lat="42.051232507363785" lon="12.24561983804546"><ele>216.0</ele><time>2026-05-01T08:51:15.001Z</time></trkpt><trkpt lat="42.05133865456371" lon="12.245704875361454"><ele>216.0</ele><time>2026-05-01T08:51:16.001Z</time></trkpt><trkpt lat="42.051454540509766" lon="12.245801008202077"><ele>216.0</ele><time>2026-05-01T08:51:17.001Z</time></trkpt><trkpt lat="42.051572298222744" lon="12.245897459058998"><ele>216.0</ele><time>2026-05-01T08:51:18.001Z</time></trkpt><trkpt lat="42.05169571396043" lon="12.246009169047731"><ele>216.0</ele><time>2026-05-01T08:51:19.001Z</time></trkpt><trkpt lat="42.0518192921533" lon="12.246149822370116"><ele>217.0</ele><time>2026-05-01T08:51:20.001Z</time></trkpt><trkpt lat="42.05203210406835" lon="12.246463016562723"><ele>218.0</ele><time>2026-05-01T08:51:22.001Z</time></trkpt><trkpt lat="42.052122334751594" lon="12.246625396313197"><ele>218.0</ele><time>2026-05-01T08:51:23.001Z</time></trkpt><trkpt lat="42.05220386766503" lon="12.246782153149692"><ele>218.0</ele><time>2026-05-01T08:51:24.001Z</time></trkpt><trkpt lat="42.05228602245808" lon="12.24692404836351"><ele>218.0</ele><time>2026-05-01T08:51:25.001Z</time></trkpt><trkpt lat="42.052363198425454" lon="12.247048190388455"><ele>218.0</ele><time>2026-05-01T08:51:26.001Z</time></trkpt><trkpt lat="42.0524338470854" lon="12.247165659396646"><ele>218.0</ele><time>2026-05-01T08:51:27.001Z</time></trkpt><trkpt lat="42.052514921437165" lon="12.247257982892211"><ele>218.0</ele><time>2026-05-01T08:51:28.001Z</time></trkpt><trkpt lat="42.052593207814034" lon="12.247336566090537"><ele>218.0</ele><time>2026-05-01T08:51:29.001Z</time></trkpt><trkpt lat="42.052666986802976" lon="12.247393924652119"><ele>218.0</ele><time>2026-05-01T08:51:30.001Z</time></trkpt><trkpt lat="42.05273540746346" lon="12.247453699596338"><ele>218.0</ele><time>2026-05-01T08:51:30.999Z</time></trkpt><trkpt lat="42.05281715033135" lon="12.247525786911066"><ele>217.75</ele><time>2026-05-01T08:51:31.999Z</time></trkpt><trkpt lat="42.05291231877365" lon="12.24761876950254"><ele>217.5</ele><time>2026-05-01T08:51:32.999Z</time></trkpt><trkpt lat="42.053017586306844" lon="12.247747414492606"><ele>217.25</ele><time>2026-05-01T08:51:33.999Z</time></trkpt><trkpt lat="42.053141606772925" lon="12.247883823024246"><ele>217.0</ele><time>2026-05-01T08:51:34.999Z</time></trkpt><trkpt lat="42.053263605804595" lon="12.248033267163233"><ele>216.33333333333331</ele><time>2026-05-01T08:51:35.999Z</time></trkpt><trkpt lat="42.05339102308737" lon="12.248193620277803"><ele>215.66666666666669</ele><time>2026-05-01T08:51:36.999Z</time></trkpt><trkpt lat="42.053517354507086" lon="12.248376422911187"><ele>215.0</ele><time>2026-05-01T08:51:37.999Z</time></trkpt><trkpt lat="42.05365323819882" lon="12.248562389498266"><ele>215.0</ele><time>2026-05-01T08:51:38.999Z</time></trkpt><trkpt lat="42.05376108480765" lon="12.248746647722664"><ele>215.0</ele><time>2026-05-01T08:51:39.999Z</time></trkpt><trkpt lat="42.05387873454413" lon="12.248924174064006"><ele>215.0</ele><time>2026-05-01T08:51:40.999Z</time></trkpt><trkpt lat="42.05399624323792" lon="12.249107718311157"><ele>214.33333333333334</ele><time>2026-05-01T08:51:41.999Z</time></trkpt><trkpt lat="42.05411741142271" lon="12.249294402609708"><ele>213.66666666666669</ele><time>2026-05-01T08:51:42.999Z</time></trkpt><trkpt lat="42.054246252543514" lon="12.249487811275998"><ele>213.0</ele><time>2026-05-01T08:51:43.999Z</time></trkpt><trkpt lat="42.05436476655156" lon="12.249687082831073"><ele>212.33333333333331</ele><time>2026-05-01T08:51:44.999Z</time></trkpt><trkpt lat="42.05448949373917" lon="12.249888310767489"><ele>211.66666666666666</ele><time>2026-05-01T08:51:45.999Z</time></trkpt><trkpt lat="42.054611994869255" lon="12.250110904281899"><ele>211.0</ele><time>2026-05-01T08:51:46.999Z</time></trkpt><trkpt lat="42.054698844667776" lon="12.250349071626214"><ele>211.0</ele><time>2026-05-01T08:51:47.999Z</time></trkpt><trkpt lat="42.05477962077648" lon="12.250571389778301"><ele>211.0</ele><time>2026-05-01T08:51:48.999Z</time></trkpt><trkpt lat="42.05486162304883" lon="12.250811617302684"><ele>211.0</ele><time>2026-05-01T08:51:49.999Z</time></trkpt><trkpt lat="42.054946069424695" lon="12.251073063354553"><ele>212.0</ele><time>2026-05-01T08:51:50.999Z</time></trkpt><trkpt lat="42.0550325483504" lon="12.25135024461076"><ele>213.0</ele><time>2026-05-01T08:51:51.999Z</time></trkpt><trkpt lat="42.05511737267897" lon="12.251631998869351"><ele>214.0</ele><time>2026-05-01T08:51:52.999Z</time></trkpt><trkpt lat="42.05520506195331" lon="12.251927301795721"><ele>214.0</ele><time>2026-05-01T08:51:53.999Z</time></trkpt><trkpt lat="42.05529305883776" lon="12.252230114293749"><ele>214.0</ele><time>2026-05-01T08:51:54.999Z</time></trkpt><trkpt lat="42.0554011245003" lon="12.252510051571743"><ele>214.0</ele><time>2026-05-01T08:51:55.999Z</time></trkpt><trkpt lat="42.05548765881482" lon="12.252785126765364"><ele>214.0</ele><time>2026-05-01T08:51:57Z</time></trkpt><trkpt lat="42.055591775933614" lon="12.253041269402969"><ele>214.0</ele><time>2026-05-01T08:51:58Z</time></trkpt><trkpt lat="42.05570814867352" lon="12.253284456495862"><ele>214.66666666666666</ele><time>2026-05-01T08:51:59Z</time></trkpt><trkpt lat="42.05580611129268" lon="12.25353766390934"><ele>215.33333333333331</ele><time>2026-05-01T08:52:00Z</time></trkpt><trkpt lat="42.0559010602213" lon="12.253781858992957"><ele>216.0</ele><time>2026-05-01T08:52:01Z</time></trkpt><trkpt lat="42.05600226544863" lon="12.253998155729708"><ele>216.0</ele><time>2026-05-01T08:52:02Z</time></trkpt><trkpt lat="42.05609741260414" lon="12.254185088843364"><ele>216.0</ele><time>2026-05-01T08:52:03Z</time></trkpt><trkpt lat="42.056199782589964" lon="12.25434582732077"><ele>216.0</ele><time>2026-05-01T08:52:04Z</time></trkpt><trkpt lat="42.05632322717684" lon="12.254460128817152"><ele>216.0</ele><time>2026-05-01T08:52:05Z</time></trkpt><trkpt lat="42.0564684077165" lon="12.254570891277224"><ele>216.0</ele><time>2026-05-01T08:52:06Z</time></trkpt><trkpt lat="42.05662269701299" lon="12.254678563601312"><ele>216.0</ele><time>2026-05-01T08:52:07Z</time></trkpt><trkpt lat="42.056802342653384" lon="12.254788361729183"><ele>215.66666666666669</ele><time>2026-05-01T08:52:08Z</time></trkpt><trkpt lat="42.05694413389233" lon="12.254972379272505"><ele>215.33333333333334</ele><time>2026-05-01T08:52:09Z</time></trkpt><trkpt lat="42.05710849902461" lon="12.25515288700093"><ele>215.0</ele><time>2026-05-01T08:52:10Z</time></trkpt><trkpt lat="42.05727359723345" lon="12.25538084869864"><ele>215.0</ele><time>2026-05-01T08:52:11Z</time></trkpt><trkpt lat="42.05744786210046" lon="12.255597097560141"><ele>215.0</ele><time>2026-05-01T08:52:12Z</time></trkpt><trkpt lat="42.05761689265203" lon="12.255810010411063"><ele>213.66666666666669</ele><time>2026-05-01T08:52:13Z</time></trkpt><trkpt lat="42.0577812162943" lon="12.256018064982378"><ele>212.33333333333331</ele><time>2026-05-01T08:52:14Z</time></trkpt><trkpt lat="42.057930959661604" lon="12.256208216555535"><ele>211.0</ele><time>2026-05-01T08:52:15Z</time></trkpt><trkpt lat="42.05807831741208" lon="12.256379993113974"><ele>210.33333333333331</ele><time>2026-05-01T08:52:16Z</time></trkpt><trkpt lat="42.05822510164732" lon="12.25652167084632"><ele>209.66666666666669</ele><time>2026-05-01T08:52:17Z</time></trkpt><trkpt lat="42.05838631743534" lon="12.256635784497249"><ele>209.0</ele><time>2026-05-01T08:52:18Z</time></trkpt><trkpt lat="42.058564130590725" lon="12.256721671054539"><ele>209.0</ele><time>2026-05-01T08:52:19Z</time></trkpt><trkpt lat="42.05875311723595" lon="12.256789395177837"><ele>209.0</ele><time>2026-05-01T08:52:20Z</time></trkpt><trkpt lat="42.058942355686675" lon="12.256857939208066"><ele>209.0</ele><time>2026-05-01T08:52:21Z</time></trkpt><trkpt lat="42.05913261938389" lon="12.256938517414232"><ele>209.33333333333334</ele><time>2026-05-01T08:52:22Z</time></trkpt><trkpt lat="42.059321872971005" lon="12.257027663967559"><ele>209.66666666666669</ele><time>2026-05-01T08:52:23Z</time></trkpt><trkpt lat="42.059512763727184" lon="12.257114263482059"><ele>210.0</ele><time>2026-05-01T08:52:24Z</time></trkpt><trkpt lat="42.05971298993852" lon="12.257176512228858"><ele>210.0</ele><time>2026-05-01T08:52:25Z</time></trkpt><trkpt lat="42.059911058525564" lon="12.257233338963099"><ele>210.0</ele><time>2026-05-01T08:52:26Z</time></trkpt><trkpt lat="42.0601007075492" lon="12.257271117447686"><ele>210.0</ele><time>2026-05-01T08:52:27Z</time></trkpt><trkpt lat="42.060284632052785" lon="12.25729358591645"><ele>209.66666666666669</ele><time>2026-05-01T08:52:28Z</time></trkpt><trkpt lat="42.06046711146544" lon="12.25731785934302"><ele>209.33333333333334</ele><time>2026-05-01T08:52:29Z</time></trkpt><trkpt lat="42.06064892105638" lon="12.257322452224143"><ele>209.0</ele><time>2026-05-01T08:52:30Z</time></trkpt><trkpt lat="42.06083346599418" lon="12.257330581629038"><ele>209.66666666666669</ele><time>2026-05-01T08:52:31Z</time></trkpt><trkpt lat="42.0610206746082" lon="12.25733007843846"><ele>210.33333333333331</ele><time>2026-05-01T08:52:32Z</time></trkpt><trkpt lat="42.06121610522081" lon="12.257323585372465"><ele>211.0</ele><time>2026-05-01T08:52:33Z</time></trkpt><trkpt lat="42.061411095825925" lon="12.257322199287431"><ele>211.0</ele><time>2026-05-01T08:52:34Z</time></trkpt><trkpt lat="42.06160891642336" lon="12.257323518360268"><ele>211.0</ele><time>2026-05-01T08:52:35Z</time></trkpt><trkpt lat="42.06180171239829" lon="12.25733180749819"><ele>211.0</ele><time>2026-05-01T08:52:36Z</time></trkpt><trkpt lat="42.061994172380324" lon="12.257350439321131"><ele>211.66666666666666</ele><time>2026-05-01T08:52:37Z</time></trkpt><trkpt lat="42.062182854741835" lon="12.257372725210953"><ele>212.33333333333331</ele><time>2026-05-01T08:52:38Z</time></trkpt><trkpt lat="42.06237304736194" lon="12.257395644677713"><ele>213.0</ele><time>2026-05-01T08:52:39Z</time></trkpt><trkpt lat="42.06253929700553" lon="12.257420490762104"><ele>213.0</ele><time>2026-05-01T08:52:40Z</time></trkpt><trkpt lat="42.06274112429075" lon="12.257435568922242"><ele>213.0</ele><time>2026-05-01T08:52:41Z</time></trkpt><trkpt lat="42.06292931654545" lon="12.257445535698158"><ele>213.0</ele><time>2026-05-01T08:52:42Z</time></trkpt><trkpt lat="42.06311750053407" lon="12.257452076288743"><ele>213.0</ele><time>2026-05-01T08:52:43Z</time></trkpt><trkpt lat="42.06330792701166" lon="12.257461945920896"><ele>213.0</ele><time>2026-05-01T08:52:44Z</time></trkpt><trkpt lat="42.063502741728364" lon="12.257467594782607"><ele>213.0</ele><time>2026-05-01T08:52:45Z</time></trkpt><trkpt lat="42.06370191051195" lon="12.257466623057272"><ele>213.0</ele><time>2026-05-01T08:52:46Z</time></trkpt><trkpt lat="42.06390194411843" lon="12.257488794225091"><ele>213.0</ele><time>2026-05-01T08:52:47.001Z</time></trkpt><trkpt lat="42.06410527273568" lon="12.257513826746393"><ele>213.0</ele><time>2026-05-01T08:52:48.001Z</time></trkpt><trkpt lat="42.064320737752205" lon="12.257516904866325"><ele>213.0</ele><time>2026-05-01T08:52:49.001Z</time></trkpt><trkpt lat="42.06453967300697" lon="12.257523030184075"><ele>213.0</ele><time>2026-05-01T08:52:50.001Z</time></trkpt><trkpt lat="42.06474876853325" lon="12.257530014969786"><ele>213.0</ele><time>2026-05-01T08:52:51.001Z</time></trkpt><trkpt lat="42.06496320045578" lon="12.25752468542888"><ele>213.33333333333331</ele><time>2026-05-01T08:52:52.001Z</time></trkpt><trkpt lat="42.065181690450075" lon="12.257509312485057"><ele>213.66666666666666</ele><time>2026-05-01T08:52:53.001Z</time></trkpt><trkpt lat="42.06540342628222" lon="12.257487673149324"><ele>214.0</ele><time>2026-05-01T08:52:54.001Z</time></trkpt><trkpt lat="42.06561659272149" lon="12.257452699502002"><ele>215.66666666666666</ele><time>2026-05-01T08:52:55.001Z</time></trkpt><trkpt lat="42.06581334576642" lon="12.257416162854021"><ele>217.33333333333331</ele><time>2026-05-01T08:52:56.001Z</time></trkpt><trkpt lat="42.06599310364794" lon="12.25738571546873"><ele>219.0</ele><time>2026-05-01T08:52:57.001Z</time></trkpt><trkpt lat="42.06617301620922" lon="12.257366542556099"><ele>219.0</ele><time>2026-05-01T08:52:58.001Z</time></trkpt><trkpt lat="42.06635121760843" lon="12.25738349691653"><ele>219.0</ele><time>2026-05-01T08:52:59.001Z</time></trkpt><trkpt lat="42.06653452387097" lon="12.257414415959378"><ele>219.0</ele><time>2026-05-01T08:53:00.001Z</time></trkpt><trkpt lat="42.06672327409661" lon="12.257452536997125"><ele>220.33333333333331</ele><time>2026-05-01T08:53:01.001Z</time></trkpt><trkpt lat="42.066908400034336" lon="12.257495871868795"><ele>221.66666666666666</ele><time>2026-05-01T08:53:02.001Z</time></trkpt><trkpt lat="42.0670931514031" lon="12.257529605972161"><ele>223.0</ele><time>2026-05-01T08:53:03.001Z</time></trkpt><trkpt lat="42.067269648142876" lon="12.257567461079905"><ele>223.0</ele><time>2026-05-01T08:53:04.001Z</time></trkpt><trkpt lat="42.06744073302869" lon="12.257599959844857"><ele>223.0</ele><time>2026-05-01T08:53:05.001Z</time></trkpt><trkpt lat="42.067603356945924" lon="12.257635993026028"><ele>223.0</ele><time>2026-05-01T08:53:06.001Z</time></trkpt><trkpt lat="42.06776050241005" lon="12.25766701159499"><ele>223.33333333333331</ele><time>2026-05-01T08:53:07.001Z</time></trkpt><trkpt lat="42.06791695162434" lon="12.257692656428295"><ele>223.66666666666669</ele><time>2026-05-01T08:53:08.001Z</time></trkpt><trkpt lat="42.06807081900186" lon="12.257722950649962"><ele>224.0</ele><time>2026-05-01T08:53:09.001Z</time></trkpt><trkpt lat="42.06822043732429" lon="12.257749086537617"><ele>224.5</ele><time>2026-05-01T08:53:10.001Z</time></trkpt><trkpt lat="42.06836442231028" lon="12.257773699255738"><ele>225.0</ele><time>2026-05-01T08:53:11.001Z</time></trkpt><trkpt lat="42.06850939226789" lon="12.257785706262338"><ele>225.5</ele><time>2026-05-01T08:53:12.001Z</time></trkpt><trkpt lat="42.06865798761449" lon="12.257787711909371"><ele>226.0</ele><time>2026-05-01T08:53:13.001Z</time></trkpt><trkpt lat="42.068807465770604" lon="12.2577694918989"><ele>226.0</ele><time>2026-05-01T08:53:14.001Z</time></trkpt><trkpt lat="42.0689535872012" lon="12.257732884896027"><ele>226.0</ele><time>2026-05-01T08:53:15.001Z</time></trkpt><trkpt lat="42.06909642257247" lon="12.257681700238301"><ele>226.0</ele><time>2026-05-01T08:53:16.001Z</time></trkpt><trkpt lat="42.069223714798234" lon="12.257639032168765"><ele>226.0</ele><time>2026-05-01T08:53:17.001Z</time></trkpt><trkpt lat="42.06934391381684" lon="12.257599219250647"><ele>226.5</ele><time>2026-05-01T08:53:18.001Z</time></trkpt><trkpt lat="42.069459264298814" lon="12.257560658587956"><ele>227.0</ele><time>2026-05-01T08:53:19.001Z</time></trkpt><trkpt lat="42.069579269093936" lon="12.25752139987993"><ele>227.5</ele><time>2026-05-01T08:53:20.001Z</time></trkpt><trkpt lat="42.06970805137392" lon="12.257481791500346"><ele>228.0</ele><time>2026-05-01T08:53:21.001Z</time></trkpt><trkpt lat="42.06984370715272" lon="12.257457643336531"><ele>227.25</ele><time>2026-05-01T08:53:22.001Z</time></trkpt><trkpt lat="42.06998473899679" lon="12.25745223415884"><ele>226.5</ele><time>2026-05-01T08:53:23.001Z</time></trkpt><trkpt lat="42.07013059331883" lon="12.257458042158222"><ele>225.75</ele><time>2026-05-01T08:53:24.001Z</time></trkpt><trkpt lat="42.070275994668506" lon="12.257469254739185"><ele>225.0</ele><time>2026-05-01T08:53:25.001Z</time></trkpt><trkpt lat="42.070413083351085" lon="12.257482711867237"><ele>225.0</ele><time>2026-05-01T08:53:26.001Z</time></trkpt><trkpt lat="42.07053363289961" lon="12.257484441936901"><ele>225.0</ele><time>2026-05-01T08:53:27.001Z</time></trkpt><trkpt lat="42.07065292935339" lon="12.25748872130859"><ele>225.0</ele><time>2026-05-01T08:53:28.001Z</time></trkpt><trkpt lat="42.07078234215641" lon="12.257494022891795"><ele>225.0</ele><time>2026-05-01T08:53:29.001Z</time></trkpt><trkpt lat="42.07091323823134" lon="12.257502472139535"><ele>225.25</ele><time>2026-05-01T08:53:30.001Z</time></trkpt><trkpt lat="42.071047571760545" lon="12.257518675507226"><ele>225.5</ele><time>2026-05-01T08:53:31.001Z</time></trkpt><trkpt lat="42.07117783166898" lon="12.257550279842361"><ele>225.75</ele><time>2026-05-01T08:53:32.001Z</time></trkpt><trkpt lat="42.07129624707724" lon="12.257597929566028"><ele>226.0</ele><time>2026-05-01T08:53:33.001Z</time></trkpt><trkpt lat="42.07140799087289" lon="12.257666545644268"><ele>226.0</ele><time>2026-05-01T08:53:34.001Z</time></trkpt><trkpt lat="42.07151823296851" lon="12.25775091691074"><ele>226.0</ele><time>2026-05-01T08:53:35.001Z</time></trkpt><trkpt lat="42.0716216750721" lon="12.25784439166053"><ele>226.0</ele><time>2026-05-01T08:53:36.001Z</time></trkpt><trkpt lat="42.0717098369168" lon="12.257973061593594"><ele>226.0</ele><time>2026-05-01T08:53:36.999Z</time></trkpt><trkpt lat="42.07180495899396" lon="12.25809958251274"><ele>225.75</ele><time>2026-05-01T08:53:37.999Z</time></trkpt><trkpt lat="42.07189746597651" lon="12.25822153606136"><ele>225.5</ele><time>2026-05-01T08:53:38.999Z</time></trkpt><trkpt lat="42.07198510317333" lon="12.258351183004788"><ele>225.25</ele><time>2026-05-01T08:53:39.999Z</time></trkpt><trkpt lat="42.07206810919388" lon="12.258479604775612"><ele>225.0</ele><time>2026-05-01T08:53:40.999Z</time></trkpt><trkpt lat="42.07215870148805" lon="12.258610774557118"><ele>225.0</ele><time>2026-05-01T08:53:41.999Z</time></trkpt><trkpt lat="42.0722564103483" lon="12.258721945505092"><ele>225.0</ele><time>2026-05-01T08:53:42.999Z</time></trkpt><trkpt lat="42.07236260989779" lon="12.258796725421387"><ele>225.0</ele><time>2026-05-01T08:53:43.999Z</time></trkpt><trkpt lat="42.07248799973892" lon="12.25883028127275"><ele>225.0</ele><time>2026-05-01T08:53:45Z</time></trkpt><trkpt lat="42.07263265564483" lon="12.258847247599356"><ele>225.66666666666669</ele><time>2026-05-01T08:53:46Z</time></trkpt><trkpt lat="42.07278638082387" lon="12.258861623112159"><ele>226.33333333333334</ele><time>2026-05-01T08:53:47Z</time></trkpt><trkpt lat="42.07296711296318" lon="12.258872100101323"><ele>227.0</ele><time>2026-05-01T08:53:48Z</time></trkpt><trkpt lat="42.073149463052395" lon="12.258889225084392"><ele>228.0</ele><time>2026-05-01T08:53:49Z</time></trkpt><trkpt lat="42.07334411732091" lon="12.25890884163633"><ele>229.0</ele><time>2026-05-01T08:53:50Z</time></trkpt><trkpt lat="42.07353854371335" lon="12.258953822246585"><ele>230.0</ele><time>2026-05-01T08:53:51Z</time></trkpt><trkpt lat="42.07373387054479" lon="12.258988775334236"><ele>230.33333333333334</ele><time>2026-05-01T08:53:52Z</time></trkpt><trkpt lat="42.07391241324718" lon="12.259031793259513"><ele>230.66666666666669</ele><time>2026-05-01T08:53:53Z</time></trkpt><trkpt lat="42.07407111300046" lon="12.25906343660205"><ele>231.0</ele><time>2026-05-01T08:53:54Z</time></trkpt><trkpt lat="42.07422166729464" lon="12.25910794611708"><ele>231.25</ele><time>2026-05-01T08:53:55Z</time></trkpt><trkpt lat="42.07436778185252" lon="12.259149043448371"><ele>231.5</ele><time>2026-05-01T08:53:56Z</time></trkpt><trkpt lat="42.074510559297856" lon="12.259190533100254"><ele>231.75</ele><time>2026-05-01T08:53:57Z</time></trkpt><trkpt lat="42.07465794287491" lon="12.259244339602656"><ele>232.0</ele><time>2026-05-01T08:53:58Z</time></trkpt><trkpt lat="42.07481211616405" lon="12.25930491797649"><ele>231.66666666666666</ele><time>2026-05-01T08:53:59Z</time></trkpt><trkpt lat="42.07496862810973" lon="12.25937271813927"><ele>231.33333333333331</ele><time>2026-05-01T08:54:00Z</time></trkpt><trkpt lat="42.07512436717507" lon="12.259434774337446"><ele>231.0</ele><time>2026-05-01T08:54:01Z</time></trkpt><trkpt lat="42.07528090822254" lon="12.259492184864733"><ele>231.0</ele><time>2026-05-01T08:54:02Z</time></trkpt><trkpt lat="42.07543770944762" lon="12.259559578570563"><ele>231.0</ele><time>2026-05-01T08:54:03Z</time></trkpt><trkpt lat="42.07559911719886" lon="12.259619573623645"><ele>231.0</ele><time>2026-05-01T08:54:04Z</time></trkpt><trkpt lat="42.075764214030244" lon="12.259676629473935"><ele>231.0</ele><time>2026-05-01T08:54:05Z</time></trkpt><trkpt lat="42.07592598274642" lon="12.259727672736073"><ele>231.0</ele><time>2026-05-01T08:54:06Z</time></trkpt><trkpt lat="42.076079400956786" lon="12.25977123227767"><ele>231.0</ele><time>2026-05-01T08:54:07Z</time></trkpt><trkpt lat="42.076221675252505" lon="12.259814316144281"><ele>230.0</ele><time>2026-05-01T08:54:08Z</time></trkpt><trkpt lat="42.076366184267506" lon="12.2598650743795"><ele>229.0</ele><time>2026-05-01T08:54:09Z</time></trkpt><trkpt lat="42.07651105816469" lon="12.25992004190227"><ele>228.0</ele><time>2026-05-01T08:54:10Z</time></trkpt><trkpt lat="42.07665839090176" lon="12.259976475746626"><ele>228.0</ele><time>2026-05-01T08:54:11Z</time></trkpt><trkpt lat="42.0768077137348" lon="12.260030137314276"><ele>228.0</ele><time>2026-05-01T08:54:12Z</time></trkpt><trkpt lat="42.076959734956496" lon="12.260087037645711"><ele>228.0</ele><time>2026-05-01T08:54:13Z</time></trkpt><trkpt lat="42.07711601443861" lon="12.260142221342777"><ele>228.0</ele><time>2026-05-01T08:54:14Z</time></trkpt><trkpt lat="42.07726281844014" lon="12.260189162035813"><ele>228.0</ele><time>2026-05-01T08:54:15Z</time></trkpt><trkpt lat="42.07739970639045" lon="12.26023053211534"><ele>228.0</ele><time>2026-05-01T08:54:16Z</time></trkpt><trkpt lat="42.07752796931106" lon="12.260259487868094"><ele>228.0</ele><time>2026-05-01T08:54:17Z</time></trkpt><trkpt lat="42.077654449029296" lon="12.260283949156783"><ele>228.25</ele><time>2026-05-01T08:54:18Z</time></trkpt><trkpt lat="42.07778145533324" lon="12.260315954752608"><ele>228.5</ele><time>2026-05-01T08:54:19Z</time></trkpt><trkpt lat="42.0778981610428" lon="12.260353769219154"><ele>228.75</ele><time>2026-05-01T08:54:20Z</time></trkpt><trkpt lat="42.07802192271946" lon="12.260406427366803"><ele>229.0</ele><time>2026-05-01T08:54:21Z</time></trkpt><trkpt lat="42.07814975534749" lon="12.260474196562848"><ele>229.0</ele><time>2026-05-01T08:54:22Z</time></trkpt><trkpt lat="42.07827717740083" lon="12.260548802112817"><ele>229.0</ele><time>2026-05-01T08:54:23Z</time></trkpt><trkpt lat="42.078516400532486" lon="12.260696972591901"><ele>229.0</ele><time>2026-05-01T08:54:25Z</time></trkpt><trkpt lat="42.07862197099133" lon="12.26077577018406"><ele>229.0</ele><time>2026-05-01T08:54:26Z</time></trkpt><trkpt lat="42.07872630539456" lon="12.260871034660564"><ele>229.0</ele><time>2026-05-01T08:54:27Z</time></trkpt><trkpt lat="42.07883911317777" lon="12.260966614190895"><ele>229.0</ele><time>2026-05-01T08:54:28Z</time></trkpt><trkpt lat="42.078959366385725" lon="12.261062665934446"><ele>229.0</ele><time>2026-05-01T08:54:29Z</time></trkpt><trkpt lat="42.07907980956774" lon="12.261165350814924"><ele>229.25</ele><time>2026-05-01T08:54:30.001Z</time></trkpt><trkpt lat="42.07919334192424" lon="12.26126838340555"><ele>229.5</ele><time>2026-05-01T08:54:31.001Z</time></trkpt><trkpt lat="42.07930662633855" lon="12.261368971894738"><ele>229.75</ele><time>2026-05-01T08:54:32.001Z</time></trkpt><trkpt lat="42.07942461962361" lon="12.261471125634733"><ele>230.0</ele><time>2026-05-01T08:54:33.001Z</time></trkpt><trkpt lat="42.07953968091544" lon="12.261573212961366"><ele>229.5</ele><time>2026-05-01T08:54:34.001Z</time></trkpt><trkpt lat="42.07965232311773" lon="12.261671625381842"><ele>229.0</ele><time>2026-05-01T08:54:35.001Z</time></trkpt><trkpt lat="42.07976290605724" lon="12.261771731471864"><ele>228.5</ele><time>2026-05-01T08:54:36.001Z</time></trkpt><trkpt lat="42.07987337075531" lon="12.261871105627048"><ele>228.0</ele><time>2026-05-01T08:54:37.001Z</time></trkpt><trkpt lat="42.07997444613623" lon="12.2619685905532"><ele>228.0</ele><time>2026-05-01T08:54:38.001Z</time></trkpt><trkpt lat="42.08007083762372" lon="12.262071510345812"><ele>228.0</ele><time>2026-05-01T08:54:39.001Z</time></trkpt><trkpt lat="42.08016931765146" lon="12.26218433636884"><ele>228.0</ele><time>2026-05-01T08:54:40.001Z</time></trkpt><trkpt lat="42.08026828752087" lon="12.262308420215973"><ele>228.0</ele><time>2026-05-01T08:54:41.001Z</time></trkpt><trkpt lat="42.08037024616134" lon="12.262435978771416"><ele>227.0</ele><time>2026-05-01T08:54:42.001Z</time></trkpt><trkpt lat="42.08046793781332" lon="12.262560401021839"><ele>226.0</ele><time>2026-05-01T08:54:43.001Z</time></trkpt><trkpt lat="42.08056348135582" lon="12.262675045460632"><ele>225.0</ele><time>2026-05-01T08:54:44.001Z</time></trkpt><trkpt lat="42.080655153086084" lon="12.262778171903872"><ele>224.0</ele><time>2026-05-01T08:54:45.001Z</time></trkpt><trkpt lat="42.08074388797027" lon="12.262878134986925"><ele>223.0</ele><time>2026-05-01T08:54:46.001Z</time></trkpt><trkpt lat="42.08082959997374" lon="12.262969675564927"><ele>221.99999999999997</ele><time>2026-05-01T08:54:47.001Z</time></trkpt><trkpt lat="42.08090569667729" lon="12.26304381395643"><ele>220.99999999999997</ele><time>2026-05-01T08:54:48.001Z</time></trkpt><trkpt lat="42.080967063275274" lon="12.263104559462477"><ele>220.0</ele><time>2026-05-01T08:54:49.001Z</time></trkpt><trkpt lat="42.08104794973798" lon="12.263187745461272"><ele>219.0</ele><time>2026-05-01T08:54:51.001Z</time></trkpt><trkpt lat="42.081149242365264" lon="12.263016501206861"><ele>218.79999999999998</ele><time>2026-05-01T08:54:53.001Z</time></trkpt><trkpt lat="42.08118882163672" lon="12.26291051510513"><ele>218.59999999999997</ele><time>2026-05-01T08:54:54.001Z</time></trkpt><trkpt lat="42.08124293231314" lon="12.262797930453447"><ele>218.4</ele><time>2026-05-01T08:54:55.001Z</time></trkpt><trkpt lat="42.081299816916896" lon="12.262685092020611"><ele>218.2</ele><time>2026-05-01T08:54:56.001Z</time></trkpt><trkpt lat="42.08135532489273" lon="12.262583632926228"><ele>218.0</ele><time>2026-05-01T08:54:57.001Z</time></trkpt><trkpt lat="42.08140817585318" lon="12.26248225396717"><ele>218.0</ele><time>2026-05-01T08:54:58.001Z</time></trkpt><trkpt lat="42.08146725091129" lon="12.262369310589579"><ele>218.0</ele><time>2026-05-01T08:54:59.001Z</time></trkpt><trkpt lat="42.0815232212636" lon="12.26225515803549"><ele>218.0</ele><time>2026-05-01T08:55:00.001Z</time></trkpt><trkpt lat="42.08158846614411" lon="12.262157429200679"><ele>218.0</ele><time>2026-05-01T08:55:01.001Z</time></trkpt><trkpt lat="42.08166191888312" lon="12.2620945056746"><ele>218.0</ele><time>2026-05-01T08:55:02.001Z</time></trkpt><trkpt lat="42.08174919579564" lon="12.262065990673777"><ele>217.8</ele><time>2026-05-01T08:55:03.001Z</time></trkpt><trkpt lat="42.08184030481352" lon="12.262073596482937"><ele>217.60000000000002</ele><time>2026-05-01T08:55:04.001Z</time></trkpt><trkpt lat="42.08192712354377" lon="12.262080852755682"><ele>217.39999999999998</ele><time>2026-05-01T08:55:05.001Z</time></trkpt><trkpt lat="42.082021530350474" lon="12.262067599124947"><ele>217.2</ele><time>2026-05-01T08:55:06.001Z</time></trkpt><trkpt lat="42.08211918988574" lon="12.262035958384706"><ele>217.0</ele><time>2026-05-01T08:55:07.001Z</time></trkpt><trkpt lat="42.082223056217295" lon="12.26198613757139"><ele>217.0</ele><time>2026-05-01T08:55:08.001Z</time></trkpt><trkpt lat="42.08233168518885" lon="12.26192372824194"><ele>217.0</ele><time>2026-05-01T08:55:09.001Z</time></trkpt><trkpt lat="42.082434233705854" lon="12.261849465234231"><ele>217.0</ele><time>2026-05-01T08:55:10.001Z</time></trkpt><trkpt lat="42.0825335686964" lon="12.261780984847968"><ele>217.0</ele><time>2026-05-01T08:55:11.001Z</time></trkpt><trkpt lat="42.08263661588345" lon="12.261728031551801"><ele>215.6</ele><time>2026-05-01T08:55:12.001Z</time></trkpt><trkpt lat="42.08274022275879" lon="12.261687390285585"><ele>214.2</ele><time>2026-05-01T08:55:13.001Z</time></trkpt><trkpt lat="42.08284104069376" lon="12.261658781631786"><ele>212.8</ele><time>2026-05-01T08:55:14.001Z</time></trkpt><trkpt lat="42.0829392900912" lon="12.26166618694343"><ele>211.4</ele><time>2026-05-01T08:55:15.001Z</time></trkpt><trkpt lat="42.083026680550546" lon="12.261726996078236"><ele>210.0</ele><time>2026-05-01T08:55:16.001Z</time></trkpt><trkpt lat="42.08307901698357" lon="12.26183525218605"><ele>210.0</ele><time>2026-05-01T08:55:17.001Z</time></trkpt><trkpt lat="42.0831446355871" lon="12.26195026183485"><ele>210.0</ele><time>2026-05-01T08:55:18.001Z</time></trkpt><trkpt lat="42.083198782011195" lon="12.262082479656119"><ele>210.0</ele><time>2026-05-01T08:55:19.001Z</time></trkpt><trkpt lat="42.08328491834816" lon="12.262184061540427"><ele>210.0</ele><time>2026-05-01T08:55:20.001Z</time></trkpt><trkpt lat="42.08338850152545" lon="12.262253099775466"><ele>209.6</ele><time>2026-05-01T08:55:21.001Z</time></trkpt><trkpt lat="42.0834947037095" lon="12.262310274143827"><ele>209.2</ele><time>2026-05-01T08:55:22.001Z</time></trkpt><trkpt lat="42.08358895166944" lon="12.262369544020403"><ele>208.8</ele><time>2026-05-01T08:55:23.001Z</time></trkpt><trkpt lat="42.08368759351675" lon="12.262398392416372"><ele>208.4</ele><time>2026-05-01T08:55:24.001Z</time></trkpt><trkpt lat="42.083783967319015" lon="12.26238064735266"><ele>208.0</ele><time>2026-05-01T08:55:25.001Z</time></trkpt><trkpt lat="42.083873581510474" lon="12.26235786320568"><ele>208.0</ele><time>2026-05-01T08:55:26.002Z</time></trkpt><trkpt lat="42.08396623357423" lon="12.262341059631074"><ele>208.0</ele><time>2026-05-01T08:55:27.002Z</time></trkpt><trkpt lat="42.0840474840928" lon="12.262314224868287"><ele>208.0</ele><time>2026-05-01T08:55:28.002Z</time></trkpt><trkpt lat="42.0841360948911" lon="12.262330598663354"><ele>208.0</ele><time>2026-05-01T08:55:29.002Z</time></trkpt><trkpt lat="42.08422829590179" lon="12.262337245054246"><ele>208.0</ele><time>2026-05-01T08:55:30.002Z</time></trkpt><trkpt lat="42.08433791014617" lon="12.262346674292935"><ele>208.0</ele><time>2026-05-01T08:55:31.002Z</time></trkpt><trkpt lat="42.08444504087408" lon="12.26235576430059"><ele>208.0</ele><time>2026-05-01T08:55:32.002Z</time></trkpt><trkpt lat="42.08454414677144" lon="12.262364173404666"><ele>208.0</ele><time>2026-05-01T08:55:33.002Z</time></trkpt><trkpt lat="42.08467599536883" lon="12.262375360714401"><ele>208.0</ele><time>2026-05-01T08:55:34.002Z</time></trkpt><trkpt lat="42.08480344102456" lon="12.262397648273081"><ele>208.0</ele><time>2026-05-01T08:55:35.002Z</time></trkpt><trkpt lat="42.08491880766881" lon="12.26245453155929"><ele>208.0</ele><time>2026-05-01T08:55:36.002Z</time></trkpt><trkpt lat="42.085034266667556" lon="12.262515010081747"><ele>208.0</ele><time>2026-05-01T08:55:37.002Z</time></trkpt><trkpt lat="42.0851489418102" lon="12.262575078017301"><ele>208.0</ele><time>2026-05-01T08:55:38.002Z</time></trkpt><trkpt lat="42.085265204889815" lon="12.262609922806735"><ele>207.5</ele><time>2026-05-01T08:55:39.002Z</time></trkpt><trkpt lat="42.08539253673301" lon="12.262560645782155"><ele>207.0</ele><time>2026-05-01T08:55:40.002Z</time></trkpt><trkpt lat="42.085520720960844" lon="12.262518061943524"><ele>206.5</ele><time>2026-05-01T08:55:41.002Z</time></trkpt><trkpt lat="42.08566214223653" lon="12.262511114628982"><ele>206.0</ele><time>2026-05-01T08:55:42.002Z</time></trkpt><trkpt lat="42.08581061487323" lon="12.262513408443322"><ele>204.33333333333334</ele><time>2026-05-01T08:55:42.999Z</time></trkpt><trkpt lat="42.085962368526154" lon="12.26250698976184"><ele>202.66666666666669</ele><time>2026-05-01T08:55:43.999Z</time></trkpt><trkpt lat="42.086125089691755" lon="12.26246887432945"><ele>201.0</ele><time>2026-05-01T08:55:44.999Z</time></trkpt><trkpt lat="42.08631609763001" lon="12.262408696451809"><ele>201.0</ele><time>2026-05-01T08:55:45.999Z</time></trkpt><trkpt lat="42.086495618904536" lon="12.26235328637619"><ele>201.0</ele><time>2026-05-01T08:55:46.999Z</time></trkpt><trkpt lat="42.08666566534108" lon="12.26234055888847"><ele>201.0</ele><time>2026-05-01T08:55:48Z</time></trkpt><trkpt lat="42.08682561963029" lon="12.262344350982442"><ele>199.66666666666669</ele><time>2026-05-01T08:55:49Z</time></trkpt><trkpt lat="42.08699313324044" lon="12.2623362860974"><ele>198.33333333333334</ele><time>2026-05-01T08:55:50Z</time></trkpt><trkpt lat="42.08716421298059" lon="12.262326771216888"><ele>197.0</ele><time>2026-05-01T08:55:51Z</time></trkpt><trkpt lat="42.0873175883908" lon="12.262302745761007"><ele>196.0</ele><time>2026-05-01T08:55:52Z</time></trkpt><trkpt lat="42.08746912300884" lon="12.262262868673693"><ele>195.0</ele><time>2026-05-01T08:55:53Z</time></trkpt><trkpt lat="42.087730107665635" lon="12.262172213992002"><ele>194.0</ele><time>2026-05-01T08:55:55Z</time></trkpt><trkpt lat="42.08784022210578" lon="12.26213376423979"><ele>194.0</ele><time>2026-05-01T08:55:56Z</time></trkpt><trkpt lat="42.08794130685915" lon="12.262094678476835"><ele>194.0</ele><time>2026-05-01T08:55:57Z</time></trkpt><trkpt lat="42.08805402286594" lon="12.262066870246116"><ele>194.0</ele><time>2026-05-01T08:55:58Z</time></trkpt><trkpt lat="42.08816726996669" lon="12.262074772390969"><ele>194.0</ele><time>2026-05-01T08:55:59Z</time></trkpt><trkpt lat="42.088280730971235" lon="12.262108024755623"><ele>194.0</ele><time>2026-05-01T08:56:00Z</time></trkpt><trkpt lat="42.08839342925078" lon="12.262121566919564"><ele>193.0</ele><time>2026-05-01T08:56:01Z</time></trkpt><trkpt lat="42.08850095499835" lon="12.262110909124974"><ele>192.0</ele><time>2026-05-01T08:56:02Z</time></trkpt><trkpt lat="42.088607856205854" lon="12.262096287808154"><ele>191.0</ele><time>2026-05-01T08:56:03Z</time></trkpt><trkpt lat="42.088712047157856" lon="12.26208830085811"><ele>190.0</ele><time>2026-05-01T08:56:04Z</time></trkpt><trkpt lat="42.08880978714187" lon="12.262082631669742"><ele>189.0</ele><time>2026-05-01T08:56:05Z</time></trkpt><trkpt lat="42.08890930513937" lon="12.262057588427304"><ele>189.0</ele><time>2026-05-01T08:56:06Z</time></trkpt><trkpt lat="42.089001232500635" lon="12.262028515559368"><ele>189.0</ele><time>2026-05-01T08:56:07Z</time></trkpt><trkpt lat="42.08907909684063" lon="12.26199900440569"><ele>189.0</ele><time>2026-05-01T08:56:08Z</time></trkpt><trkpt lat="42.08915953027623" lon="12.261980675813614"><ele>189.0</ele><time>2026-05-01T08:56:09Z</time></trkpt><trkpt lat="42.08924460314297" lon="12.261971172854938"><ele>189.0</ele><time>2026-05-01T08:56:10Z</time></trkpt><trkpt lat="42.08933698702139" lon="12.261964835355187"><ele>189.0</ele><time>2026-05-01T08:56:11Z</time></trkpt><trkpt lat="42.08942759241675" lon="12.26196154334235"><ele>187.33333333333334</ele><time>2026-05-01T08:56:12Z</time></trkpt><trkpt lat="42.08952531133817" lon="12.261953725139199"><ele>185.66666666666666</ele><time>2026-05-01T08:56:13Z</time></trkpt><trkpt lat="42.08961624197643" lon="12.261941053205376"><ele>184.0</ele><time>2026-05-01T08:56:14Z</time></trkpt><trkpt lat="42.089701162898294" lon="12.261927465387274"><ele>182.33333333333331</ele><time>2026-05-01T08:56:15Z</time></trkpt><trkpt lat="42.089781188804615" lon="12.261914165261452"><ele>180.66666666666666</ele><time>2026-05-01T08:56:16Z</time></trkpt><trkpt lat="42.089851946507714" lon="12.261905273186137"><ele>179.0</ele><time>2026-05-01T08:56:17Z</time></trkpt><trkpt lat="42.08992993659573" lon="12.261893677490004"><ele>177.0</ele><time>2026-05-01T08:56:19Z</time></trkpt><trkpt lat="42.090028087687074" lon="12.261890643137418"><ele>175.0</ele><time>2026-05-01T08:56:22Z</time></trkpt><trkpt lat="42.09014819151165" lon="12.261903920850356"><ele>173.0</ele><time>2026-05-01T08:56:24Z</time></trkpt><trkpt lat="42.09021233991184" lon="12.261908553808006"><ele>171.0</ele><time>2026-05-01T08:56:25Z</time></trkpt><trkpt lat="42.090282800163045" lon="12.261915541219093"><ele>169.0</ele><time>2026-05-01T08:56:26Z</time></trkpt><trkpt lat="42.09035019981057" lon="12.26191907223053"><ele>167.0</ele><time>2026-05-01T08:56:27Z</time></trkpt><trkpt lat="42.090417343376814" lon="12.261923781124173"><ele>167.0</ele><time>2026-05-01T08:56:28Z</time></trkpt><trkpt lat="42.090513075934915" lon="12.261970897368899"><ele>167.0</ele><time>2026-05-01T08:56:30Z</time></trkpt><trkpt lat="42.090584308501285" lon="12.262007849042197"><ele>167.0</ele><time>2026-05-01T08:56:32Z</time></trkpt><trkpt lat="42.09063637368754" lon="12.262073991501861"><ele>167.0</ele><time>2026-05-01T08:56:34Z</time></trkpt><trkpt lat="42.090658546542706" lon="12.262219182605595"><ele>167.0</ele><time>2026-05-01T08:56:36.001Z</time></trkpt><trkpt lat="42.09066802176824" lon="12.26237021400654"><ele>167.6</ele><time>2026-05-01T08:56:38.001Z</time></trkpt><trkpt lat="42.09068101435222" lon="12.262532626482072"><ele>168.2</ele><time>2026-05-01T08:56:40.001Z</time></trkpt><trkpt lat="42.0906952081326" lon="12.262681811879572"><ele>168.8</ele><time>2026-05-01T08:56:42.001Z</time></trkpt><trkpt lat="42.09071067501042" lon="12.262843134768204"><ele>169.4</ele><time>2026-05-01T08:56:44.001Z</time></trkpt><trkpt lat="42.09072068261491" lon="12.262939985961017"><ele>170.0</ele><time>2026-05-01T08:56:45.001Z</time></trkpt><trkpt lat="42.090735141421206" lon="12.263040222699177"><ele>170.0</ele><time>2026-05-01T08:56:46.001Z</time></trkpt><trkpt lat="42.09074020354788" lon="12.263151380826448"><ele>170.0</ele><time>2026-05-01T08:56:47.001Z</time></trkpt><trkpt lat="42.09075077380811" lon="12.263260768398657"><ele>170.0</ele><time>2026-05-01T08:56:48.001Z</time></trkpt><trkpt lat="42.090768405422516" lon="12.263361067326414"><ele>170.0</ele><time>2026-05-01T08:56:49.001Z</time></trkpt><trkpt lat="42.09078685689452" lon="12.263464155227208"><ele>170.0</ele><time>2026-05-01T08:56:50.001Z</time></trkpt><trkpt lat="42.090801745928665" lon="12.263573217345858"><ele>170.0</ele><time>2026-05-01T08:56:51.001Z</time></trkpt><trkpt lat="42.09082669119513" lon="12.263657186359575"><ele>169.2857142857143</ele><time>2026-05-01T08:56:52.001Z</time></trkpt><trkpt lat="42.09081436078903" lon="12.263783806923433"><ele>168.57142857142856</ele><time>2026-05-01T08:56:53.001Z</time></trkpt><trkpt lat="42.09081722222937" lon="12.263880676184575"><ele>167.85714285714286</ele><time>2026-05-01T08:56:54.001Z</time></trkpt><trkpt lat="42.09082219106817" lon="12.263967643842902"><ele>167.14285714285717</ele><time>2026-05-01T08:56:55.001Z</time></trkpt><trkpt lat="42.09082585635247" lon="12.264058921940375"><ele>166.42857142857144</ele><time>2026-05-01T08:56:56.001Z</time></trkpt><trkpt lat="42.09082811030556" lon="12.264153746475825"><ele>165.71428571428572</ele><time>2026-05-01T08:56:57.001Z</time></trkpt><trkpt lat="42.090835015503984" lon="12.264248501243811"><ele>165.0</ele><time>2026-05-01T08:56:58.001Z</time></trkpt><trkpt lat="42.09083860290151" lon="12.264343615056555"><ele>165.00000000000003</ele><time>2026-05-01T08:56:59.001Z</time></trkpt><trkpt lat="42.09084334826225" lon="12.264437394148233"><ele>165.0</ele><time>2026-05-01T08:57:00.001Z</time></trkpt><trkpt lat="42.09084672075995" lon="12.26453492716168"><ele>165.0</ele><time>2026-05-01T08:57:01.001Z</time></trkpt><trkpt lat="42.09085556192076" lon="12.264632969264316"><ele>165.0</ele><time>2026-05-01T08:57:02.001Z</time></trkpt><trkpt lat="42.09086418548401" lon="12.264731319278901"><ele>165.0</ele><time>2026-05-01T08:57:03.001Z</time></trkpt><trkpt lat="42.09087279045796" lon="12.26482770339935"><ele>165.00000000000003</ele><time>2026-05-01T08:57:04.001Z</time></trkpt><trkpt lat="42.09087607031555" lon="12.264922461029785"><ele>165.0</ele><time>2026-05-01T08:57:05.001Z</time></trkpt><trkpt lat="42.090886755891745" lon="12.265020572712196"><ele>165.16666666666666</ele><time>2026-05-01T08:57:06.001Z</time></trkpt><trkpt lat="42.0909004383953" lon="12.265125342290117"><ele>165.33333333333334</ele><time>2026-05-01T08:57:07.001Z</time></trkpt><trkpt lat="42.090912340990094" lon="12.265229541311143"><ele>165.5</ele><time>2026-05-01T08:57:08.001Z</time></trkpt><trkpt lat="42.09091956894389" lon="12.265331488029226"><ele>165.66666666666669</ele><time>2026-05-01T08:57:09.001Z</time></trkpt><trkpt lat="42.09092771864498" lon="12.265423747296486"><ele>165.83333333333334</ele><time>2026-05-01T08:57:10.001Z</time></trkpt><trkpt lat="42.090936652175145" lon="12.265509818385913"><ele>166.0</ele><time>2026-05-01T08:57:11.001Z</time></trkpt><trkpt lat="42.0909598990522" lon="12.265659425088872"><ele>166.0</ele><time>2026-05-01T08:57:13.001Z</time></trkpt><trkpt lat="42.090976391917" lon="12.265775855583316"><ele>166.0</ele><time>2026-05-01T08:57:15.001Z</time></trkpt><trkpt lat="42.090992004271904" lon="12.265921322988294"><ele>166.0</ele><time>2026-05-01T08:57:17.001Z</time></trkpt><trkpt lat="42.09100374209009" lon="12.266009244250279"><ele>166.0</ele><time>2026-05-01T08:57:18.001Z</time></trkpt><trkpt lat="42.09101458540111" lon="12.266099472112161"><ele>166.0</ele><time>2026-05-01T08:57:19.001Z</time></trkpt><trkpt lat="42.091028904489946" lon="12.26625853033842"><ele>166.0</ele><time>2026-05-01T08:57:21.001Z</time></trkpt><trkpt lat="42.09105212869114" lon="12.266375165415536"><ele>166.0</ele><time>2026-05-01T08:57:23.001Z</time></trkpt><trkpt lat="42.09106748436396" lon="12.26647336544242"><ele>166.0</ele><time>2026-05-01T08:57:25.001Z</time></trkpt><trkpt lat="42.09108923714766" lon="12.26660023806579"><ele>166.0</ele><time>2026-05-01T08:57:27.001Z</time></trkpt><trkpt lat="42.09110837902867" lon="12.266718531850652"><ele>166.0</ele><time>2026-05-01T08:57:29.002Z</time></trkpt><trkpt lat="42.091131677250985" lon="12.266828546652757"><ele>166.0</ele><time>2026-05-01T08:57:31.002Z</time></trkpt><trkpt lat="42.091160491761514" lon="12.266951397370898"><ele>166.5</ele><time>2026-05-01T08:57:33.002Z</time></trkpt><trkpt lat="42.09119432140873" lon="12.267097223742473"><ele>167.0</ele><time>2026-05-01T08:57:35.002Z</time></trkpt><trkpt lat="42.09123630803399" lon="12.267242309308388"><ele>167.5</ele><time>2026-05-01T08:57:37.002Z</time></trkpt><trkpt lat="42.091261437071616" lon="12.267326441976548"><ele>168.0</ele><time>2026-05-01T08:57:38.002Z</time></trkpt><trkpt lat="42.0912908806151" lon="12.26741535920617"><ele>168.5</ele><time>2026-05-01T08:57:39.002Z</time></trkpt><trkpt lat="42.091326677816724" lon="12.267508780319146"><ele>169.0</ele><time>2026-05-01T08:57:40.002Z</time></trkpt><trkpt lat="42.09135955718619" lon="12.267602132821146"><ele>170.66666666666669</ele><time>2026-05-01T08:57:41.002Z</time></trkpt><trkpt lat="42.09138887941837" lon="12.267686601196749"><ele>172.33333333333334</ele><time>2026-05-01T08:57:42.002Z</time></trkpt><trkpt lat="42.09144167201288" lon="12.267834759917275"><ele>174.0</ele><time>2026-05-01T08:57:44.002Z</time></trkpt><trkpt lat="42.09146952877641" lon="12.267915147054978"><ele>175.66666666666666</ele><time>2026-05-01T08:57:45.002Z</time></trkpt><trkpt lat="42.09150822528478" lon="12.267999802423459"><ele>177.33333333333331</ele><time>2026-05-01T08:57:46.002Z</time></trkpt><trkpt lat="42.09154902759068" lon="12.268084486450913"><ele>179.0</ele><time>2026-05-01T08:57:47.002Z</time></trkpt><trkpt lat="42.0915877338198" lon="12.268164681811186"><ele>177.0</ele><time>2026-05-01T08:57:48.002Z</time></trkpt><trkpt lat="42.09162965137129" lon="12.268252666263749"><ele>175.0</ele><time>2026-05-01T08:57:48.999Z</time></trkpt><trkpt lat="42.091670612460696" lon="12.268332383258915"><ele>173.0</ele><time>2026-05-01T08:57:49.999Z</time></trkpt><trkpt lat="42.09171357929716" lon="12.268396495075654"><ele>171.0</ele><time>2026-05-01T08:57:50.999Z</time></trkpt><trkpt lat="42.09179967139651" lon="12.268530795035849"><ele>169.0</ele><time>2026-05-01T08:57:52.999Z</time></trkpt><trkpt lat="42.091840786778874" lon="12.268613316805544"><ele>167.0</ele><time>2026-05-01T08:57:53.999Z</time></trkpt><trkpt lat="42.09187831563543" lon="12.268705215809662"><ele>167.0</ele><time>2026-05-01T08:57:54.999Z</time></trkpt><trkpt lat="42.09191489810173" lon="12.268800180731668"><ele>167.0</ele><time>2026-05-01T08:57:55.999Z</time></trkpt><trkpt lat="42.09194514992004" lon="12.268886486032233"><ele>167.0</ele><time>2026-05-01T08:57:56.999Z</time></trkpt><trkpt lat="42.09197389421629" lon="12.268965364633466"><ele>167.0</ele><time>2026-05-01T08:57:57.999Z</time></trkpt><trkpt lat="42.09200659450656" lon="12.269046675625287"><ele>167.0</ele><time>2026-05-01T08:57:58.999Z</time></trkpt><trkpt lat="42.09203670955299" lon="12.269127882563414"><ele>167.0</ele><time>2026-05-01T08:57:59.999Z</time></trkpt><trkpt lat="42.09207038466796" lon="12.269205873791435"><ele>167.0</ele><time>2026-05-01T08:58:00.999Z</time></trkpt><trkpt lat="42.09210191987455" lon="12.269284650799616"><ele>169.14285714285714</ele><time>2026-05-01T08:58:01.999Z</time></trkpt><trkpt lat="42.09213746984597" lon="12.269359077575844"><ele>171.28571428571428</ele><time>2026-05-01T08:58:02.999Z</time></trkpt><trkpt lat="42.092171071089034" lon="12.269434577809626"><ele>173.42857142857144</ele><time>2026-05-01T08:58:03.999Z</time></trkpt><trkpt lat="42.09220000398359" lon="12.269514145348278"><ele>175.57142857142856</ele><time>2026-05-01T08:58:04.999Z</time></trkpt><trkpt lat="42.09222441853669" lon="12.269601836928878"><ele>177.71428571428572</ele><time>2026-05-01T08:58:05.999Z</time></trkpt><trkpt lat="42.09223030425777" lon="12.269696801730765"><ele>179.85714285714286</ele><time>2026-05-01T08:58:06.999Z</time></trkpt><trkpt lat="42.09223538561079" lon="12.269789376688413"><ele>182.0</ele><time>2026-05-01T08:58:08Z</time></trkpt><trkpt lat="42.092238850691565" lon="12.269887380257165"><ele>184.33333333333331</ele><time>2026-05-01T08:58:09Z</time></trkpt><trkpt lat="42.092227050351646" lon="12.269990474996266"><ele>186.66666666666666</ele><time>2026-05-01T08:58:10Z</time></trkpt><trkpt lat="42.092205015845394" lon="12.27008349451613"><ele>189.0</ele><time>2026-05-01T08:58:11Z</time></trkpt><trkpt lat="42.092196239379724" lon="12.270171622741305"><ele>191.33333333333331</ele><time>2026-05-01T08:58:12Z</time></trkpt><trkpt lat="42.09217426576395" lon="12.27028085431086"><ele>193.66666666666666</ele><time>2026-05-01T08:58:14Z</time></trkpt><trkpt lat="42.092119804098736" lon="12.270374733239562"><ele>196.0</ele><time>2026-05-01T08:58:16Z</time></trkpt><trkpt lat="42.092063890817" lon="12.270487885165892"><ele>196.0</ele><time>2026-05-01T08:58:18Z</time></trkpt><trkpt lat="42.092016631000504" lon="12.270600082383043"><ele>196.0</ele><time>2026-05-01T08:58:20Z</time></trkpt><trkpt lat="42.09196202326987" lon="12.270672936794819"><ele>196.0</ele><time>2026-05-01T08:58:22Z</time></trkpt><trkpt lat="42.09187283620297" lon="12.270785827694604"><ele>196.0</ele><time>2026-05-01T08:58:26Z</time></trkpt><trkpt lat="42.09181004391889" lon="12.270870730797222"><ele>196.0</ele><time>2026-05-01T08:58:28Z</time></trkpt><trkpt lat="42.09175532843562" lon="12.270927282335036"><ele>196.8</ele><time>2026-05-01T08:58:30Z</time></trkpt><trkpt lat="42.09167526916593" lon="12.27099473927566"><ele>197.60000000000002</ele><time>2026-05-01T08:58:33Z</time></trkpt><trkpt lat="42.091578756349186" lon="12.271055895022142"><ele>198.4</ele><time>2026-05-01T08:58:35Z</time></trkpt><trkpt lat="42.091529888724594" lon="12.271116163585798"><ele>199.2</ele><time>2026-05-01T08:58:36Z</time></trkpt><trkpt lat="42.09148066726454" lon="12.271178646929567"><ele>200.0</ele><time>2026-05-01T08:58:37Z</time></trkpt><trkpt lat="42.09145311117673" lon="12.271347035561037"><ele>200.00000000000003</ele><time>2026-05-01T08:58:39Z</time></trkpt><trkpt lat="42.09143302130837" lon="12.27143958522554"><ele>200.0</ele><time>2026-05-01T08:58:40Z</time></trkpt><trkpt lat="42.09141027494637" lon="12.271535596059003"><ele>200.0</ele><time>2026-05-01T08:58:41Z</time></trkpt><trkpt lat="42.091395191152635" lon="12.271635004185615"><ele>200.0</ele><time>2026-05-01T08:58:42Z</time></trkpt><trkpt lat="42.09137120917624" lon="12.271731615287589"><ele>200.00000000000003</ele><time>2026-05-01T08:58:43Z</time></trkpt><trkpt lat="42.091322809696536" lon="12.27188341974604"><ele>200.0</ele><time>2026-05-01T08:58:45.001Z</time></trkpt><trkpt lat="42.09129410292623" lon="12.27201810287728"><ele>199.57142857142858</ele><time>2026-05-01T08:58:47.001Z</time></trkpt><trkpt lat="42.091272146326205" lon="12.272117923318655"><ele>199.14285714285714</ele><time>2026-05-01T08:58:50.001Z</time></trkpt><trkpt lat="42.091252933328896" lon="12.272208707433432"><ele>198.71428571428572</ele><time>2026-05-01T08:58:52.001Z</time></trkpt><trkpt lat="42.091227295296385" lon="12.272300186014595"><ele>198.28571428571428</ele><time>2026-05-01T08:58:54.001Z</time></trkpt><trkpt lat="42.0912175788455" lon="12.272387077483145"><ele>197.85714285714286</ele><time>2026-05-01T08:58:56.001Z</time></trkpt><trkpt lat="42.09119576948657" lon="12.272485324495408"><ele>197.42857142857144</ele><time>2026-05-01T08:58:59.001Z</time></trkpt><trkpt lat="42.09117784808088" lon="12.272577398991697"><ele>197.0</ele><time>2026-05-01T08:59:01.001Z</time></trkpt><trkpt lat="42.091154540648255" lon="12.27266865504464"><ele>196.50000000000003</ele><time>2026-05-01T08:59:03.001Z</time></trkpt><trkpt lat="42.09113233205003" lon="12.272755161613112"><ele>196.0</ele><time>2026-05-01T08:59:05.001Z</time></trkpt><trkpt lat="42.091089070530295" lon="12.272900059924735"><ele>195.5</ele><time>2026-05-01T08:59:07.001Z</time></trkpt><trkpt lat="42.091058369249104" lon="12.272986597561154"><ele>195.0</ele><time>2026-05-01T08:59:08.001Z</time></trkpt><trkpt lat="42.09102422941023" lon="12.2730823014501"><ele>194.50000000000003</ele><time>2026-05-01T08:59:09.001Z</time></trkpt><trkpt lat="42.09098615857904" lon="12.2731818223975"><ele>194.0</ele><time>2026-05-01T08:59:10.001Z</time></trkpt><trkpt lat="42.09095420150841" lon="12.273282684381737"><ele>193.66666666666669</ele><time>2026-05-01T08:59:11.001Z</time></trkpt><trkpt lat="42.09092612723038" lon="12.273368462430806"><ele>193.33333333333334</ele><time>2026-05-01T08:59:12.001Z</time></trkpt><trkpt lat="42.09088877591493" lon="12.273449049048118"><ele>193.0</ele><time>2026-05-01T08:59:13.001Z</time></trkpt><trkpt lat="42.09085425655619" lon="12.273532387991365"><ele>192.66666666666669</ele><time>2026-05-01T08:59:14.001Z</time></trkpt><trkpt lat="42.09082512579109" lon="12.273612681058411"><ele>192.33333333333334</ele><time>2026-05-01T08:59:15.001Z</time></trkpt><trkpt lat="42.090792470534836" lon="12.273739015724738"><ele>192.0</ele><time>2026-05-01T08:59:17.001Z</time></trkpt><trkpt lat="42.09081394575488" lon="12.273844736924415"><ele>192.0</ele><time>2026-05-01T08:59:20.001Z</time></trkpt><trkpt lat="42.09087438640176" lon="12.273923730964766"><ele>192.0</ele><time>2026-05-01T08:59:22.001Z</time></trkpt><trkpt lat="42.09094149739338" lon="12.273983952928868"><ele>192.0</ele><time>2026-05-01T08:59:31.001Z</time></trkpt><trkpt lat="42.09101404427851" lon="12.274019574251742"><ele>192.0</ele><time>2026-05-01T08:59:36.002Z</time></trkpt><trkpt lat="42.09109670475322" lon="12.27403346443388"><ele>192.0</ele><time>2026-05-01T08:59:39.002Z</time></trkpt><trkpt lat="42.09120894540899" lon="12.27406304505321"><ele>192.0</ele><time>2026-05-01T08:59:41.002Z</time></trkpt><trkpt lat="42.09129446009088" lon="12.274094801492828"><ele>191.39999999999998</ele><time>2026-05-01T08:59:44.002Z</time></trkpt><trkpt lat="42.09138312423949" lon="12.274132236823073"><ele>190.79999999999998</ele><time>2026-05-01T08:59:46.002Z</time></trkpt><trkpt lat="42.09151506132734" lon="12.274201373764809"><ele>190.2</ele><time>2026-05-01T08:59:48.002Z</time></trkpt><trkpt lat="42.09158924840369" lon="12.274264226469192"><ele>189.6</ele><time>2026-05-01T08:59:49.002Z</time></trkpt><trkpt lat="42.09166311849978" lon="12.274353144163308"><ele>189.0</ele><time>2026-05-01T08:59:50.002Z</time></trkpt><trkpt lat="42.0917319054956" lon="12.274463716884151"><ele>188.75</ele><time>2026-05-01T08:59:51.002Z</time></trkpt><trkpt lat="42.091800927699055" lon="12.274589830912335"><ele>188.5</ele><time>2026-05-01T08:59:52.002Z</time></trkpt><trkpt lat="42.09187449222739" lon="12.274714499616616"><ele>188.25</ele><time>2026-05-01T08:59:53.002Z</time></trkpt><trkpt lat="42.09194743125368" lon="12.274843560015448"><ele>188.0</ele><time>2026-05-01T08:59:54.002Z</time></trkpt><trkpt lat="42.09202353014817" lon="12.274979091531845"><ele>188.0</ele><time>2026-05-01T08:59:54.999Z</time></trkpt><trkpt lat="42.09209030990899" lon="12.275128331365979"><ele>188.0</ele><time>2026-05-01T08:59:55.999Z</time></trkpt><trkpt lat="42.092166639034886" lon="12.27526015715117"><ele>188.0</ele><time>2026-05-01T08:59:56.999Z</time></trkpt><trkpt lat="42.09225831029088" lon="12.275360016651225"><ele>188.0</ele><time>2026-05-01T08:59:57.999Z</time></trkpt><trkpt lat="42.09233089071804" lon="12.275426034458711"><ele>186.0</ele><time>2026-05-01T08:59:58.999Z</time></trkpt><trkpt lat="42.092423215542595" lon="12.275460614649917"><ele>184.0</ele><time>2026-05-01T08:59:59.999Z</time></trkpt><trkpt lat="42.092509318642776" lon="12.275463545700847"><ele>182.0</ele><time>2026-05-01T09:00:00.999Z</time></trkpt><trkpt lat="42.092589812693845" lon="12.27545220174153"><ele>180.0</ele><time>2026-05-01T09:00:01.999Z</time></trkpt><trkpt lat="42.09265405533948" lon="12.275439499719823"><ele>178.0</ele><time>2026-05-01T09:00:02.999Z</time></trkpt><trkpt lat="42.09276150689968" lon="12.275416397948012"><ele>176.0</ele><time>2026-05-01T09:00:04.999Z</time></trkpt><trkpt lat="42.09275484282084" lon="12.275568458423955"><ele>176.16666666666666</ele><time>2026-05-01T09:00:05.999Z</time></trkpt><trkpt lat="42.092772720309206" lon="12.275661803447104"><ele>176.33333333333331</ele><time>2026-05-01T09:00:06.999Z</time></trkpt><trkpt lat="42.09279206647229" lon="12.275762817063436"><ele>176.5</ele><time>2026-05-01T09:00:08Z</time></trkpt><trkpt lat="42.09281520131069" lon="12.275880445131483"><ele>176.66666666666666</ele><time>2026-05-01T09:00:09Z</time></trkpt><trkpt lat="42.0928388850822" lon="12.275997410593737"><ele>176.83333333333334</ele><time>2026-05-01T09:00:10Z</time></trkpt><trkpt lat="42.09286256262573" lon="12.276114345307633"><ele>177.0</ele><time>2026-05-01T09:00:11Z</time></trkpt><trkpt lat="42.09288697151588" lon="12.276234891234346"><ele>177.0</ele><time>2026-05-01T09:00:12Z</time></trkpt><trkpt lat="42.0929111028375" lon="12.276354964148338"><ele>177.0</ele><time>2026-05-01T09:00:13Z</time></trkpt><trkpt lat="42.09293521637959" lon="12.276474663106741"><ele>177.0</ele><time>2026-05-01T09:00:14Z</time></trkpt><trkpt lat="42.09295993705" lon="12.276597375864286"><ele>177.0</ele><time>2026-05-01T09:00:15Z</time></trkpt><trkpt lat="42.09298672955433" lon="12.276727489093503"><ele>177.0</ele><time>2026-05-01T09:00:16Z</time></trkpt><trkpt lat="42.09301371124048" lon="12.276857412294836"><ele>175.75</ele><time>2026-05-01T09:00:17Z</time></trkpt><trkpt lat="42.093043236714095" lon="12.276999584339947"><ele>174.5</ele><time>2026-05-01T09:00:18Z</time></trkpt><trkpt lat="42.09307473711029" lon="12.277151266145959"><ele>173.25</ele><time>2026-05-01T09:00:19Z</time></trkpt><trkpt lat="42.093105700607715" lon="12.277300361976325"><ele>172.0</ele><time>2026-05-01T09:00:20Z</time></trkpt><trkpt lat="42.09313793018821" lon="12.277448272895358"><ele>171.75</ele><time>2026-05-01T09:00:21Z</time></trkpt><trkpt lat="42.09317281914522" lon="12.27759966607621"><ele>171.5</ele><time>2026-05-01T09:00:22Z</time></trkpt><trkpt lat="42.09321034000296" lon="12.277760567869686"><ele>171.25</ele><time>2026-05-01T09:00:23Z</time></trkpt><trkpt lat="42.0932512783564" lon="12.277929665204628"><ele>171.0</ele><time>2026-05-01T09:00:24Z</time></trkpt><trkpt lat="42.09329579307773" lon="12.278109752854325"><ele>170.0</ele><time>2026-05-01T09:00:25Z</time></trkpt><trkpt lat="42.09333957014289" lon="12.27829325442189"><ele>169.0</ele><time>2026-05-01T09:00:26Z</time></trkpt><trkpt lat="42.09338012667646" lon="12.278469602814988"><ele>168.0</ele><time>2026-05-01T09:00:27Z</time></trkpt><trkpt lat="42.09341786788518" lon="12.278635045381927"><ele>167.0</ele><time>2026-05-01T09:00:28Z</time></trkpt><trkpt lat="42.093451822750986" lon="12.278782875025897"><ele>167.0</ele><time>2026-05-01T09:00:29Z</time></trkpt><trkpt lat="42.09347931618994" lon="12.278901186343075"><ele>167.0</ele><time>2026-05-01T09:00:30Z</time></trkpt><trkpt lat="42.09351785478596" lon="12.278994985105074"><ele>167.0</ele><time>2026-05-01T09:00:31Z</time></trkpt><trkpt lat="42.0935265212965" lon="12.279092053519342"><ele>167.0</ele><time>2026-05-01T09:00:32Z</time></trkpt><trkpt lat="42.09356634565972" lon="12.279191453983927"><ele>167.0</ele><time>2026-05-01T09:00:33Z</time></trkpt><trkpt lat="42.093594985037974" lon="12.279300228115313"><ele>167.0</ele><time>2026-05-01T09:00:34Z</time></trkpt><trkpt lat="42.09363012372001" lon="12.279416151211219"><ele>167.0</ele><time>2026-05-01T09:00:35Z</time></trkpt><trkpt lat="42.093671839479036" lon="12.279528924654986"><ele>167.0</ele><time>2026-05-01T09:00:36Z</time></trkpt><trkpt lat="42.09371948791702" lon="12.279639279387217"><ele>167.0</ele><time>2026-05-01T09:00:37Z</time></trkpt><trkpt lat="42.09377652103664" lon="12.279733340167768"><ele>167.0</ele><time>2026-05-01T09:00:38Z</time></trkpt><trkpt lat="42.093832342677445" lon="12.279813009237397"><ele>167.0</ele><time>2026-05-01T09:00:39Z</time></trkpt><trkpt lat="42.09390365951277" lon="12.279884369069753"><ele>167.0</ele><time>2026-05-01T09:00:40Z</time></trkpt><trkpt lat="42.093982143461254" lon="12.279943926000145"><ele>166.8</ele><time>2026-05-01T09:00:41Z</time></trkpt><trkpt lat="42.0940683042102" lon="12.279989837272995"><ele>166.6</ele><time>2026-05-01T09:00:42Z</time></trkpt><trkpt lat="42.094161050701665" lon="12.280023196804462"><ele>166.4</ele><time>2026-05-01T09:00:43.001Z</time></trkpt><trkpt lat="42.09425337399964" lon="12.28003677009411"><ele>166.20000000000002</ele><time>2026-05-01T09:00:44.001Z</time></trkpt><trkpt lat="42.09434200808231" lon="12.28004129696349"><ele>166.0</ele><time>2026-05-01T09:00:45.001Z</time></trkpt><trkpt lat="42.094433694006916" lon="12.28003271229711"><ele>166.0</ele><time>2026-05-01T09:00:46.001Z</time></trkpt><trkpt lat="42.09453474861835" lon="12.28002892141465"><ele>166.0</ele><time>2026-05-01T09:00:47.001Z</time></trkpt><trkpt lat="42.09464502477826" lon="12.280001674016747"><ele>166.0</ele><time>2026-05-01T09:00:48.001Z</time></trkpt><trkpt lat="42.094768271547046" lon="12.279972392670217"><ele>166.0</ele><time>2026-05-01T09:00:49.001Z</time></trkpt><trkpt lat="42.09490358728154" lon="12.279940574103668"><ele>165.66666666666669</ele><time>2026-05-01T09:00:50.001Z</time></trkpt><trkpt lat="42.09504921282764" lon="12.279902474783153"><ele>165.33333333333334</ele><time>2026-05-01T09:00:51.001Z</time></trkpt><trkpt lat="42.095207327982784" lon="12.279838978554297"><ele>165.0</ele><time>2026-05-01T09:00:52.001Z</time></trkpt><trkpt lat="42.095375047152466" lon="12.279804755025006"><ele>164.33333333333334</ele><time>2026-05-01T09:00:53.001Z</time></trkpt><trkpt lat="42.095549236175174" lon="12.27976529638554"><ele>163.66666666666669</ele><time>2026-05-01T09:00:54.001Z</time></trkpt><trkpt lat="42.09572607611022" lon="12.279721856682265"><ele>163.0</ele><time>2026-05-01T09:00:55.001Z</time></trkpt><trkpt lat="42.09591465760964" lon="12.279674952649875"><ele>163.0</ele><time>2026-05-01T09:00:56.001Z</time></trkpt><trkpt lat="42.09611027151021" lon="12.279634017281495"><ele>163.0</ele><time>2026-05-01T09:00:57.001Z</time></trkpt><trkpt lat="42.096304544037466" lon="12.27958309310581"><ele>163.0</ele><time>2026-05-01T09:00:58.001Z</time></trkpt><trkpt lat="42.0965043824719" lon="12.279539517262481"><ele>163.33333333333334</ele><time>2026-05-01T09:00:59.001Z</time></trkpt><trkpt lat="42.09670691039695" lon="12.279509010156108"><ele>163.66666666666666</ele><time>2026-05-01T09:01:00.001Z</time></trkpt><trkpt lat="42.09690539767076" lon="12.27945118231514"><ele>164.0</ele><time>2026-05-01T09:01:01.001Z</time></trkpt><trkpt lat="42.097100342127135" lon="12.279397841106602"><ele>164.0</ele><time>2026-05-01T09:01:02.001Z</time></trkpt><trkpt lat="42.097289125261504" lon="12.279349525180805"><ele>164.0</ele><time>2026-05-01T09:01:03.001Z</time></trkpt><trkpt lat="42.097446960231956" lon="12.279316258122478"><ele>164.0</ele><time>2026-05-01T09:01:04.001Z</time></trkpt><trkpt lat="42.09759174154834" lon="12.279276454833676"><ele>165.0</ele><time>2026-05-01T09:01:05.001Z</time></trkpt><trkpt lat="42.09773614020807" lon="12.279268678663394"><ele>166.0</ele><time>2026-05-01T09:01:06.001Z</time></trkpt><trkpt lat="42.0978648903409" lon="12.279310648576995"><ele>167.0</ele><time>2026-05-01T09:01:07.001Z</time></trkpt><trkpt lat="42.09799564791009" lon="12.279372510817078"><ele>168.0</ele><time>2026-05-01T09:01:08.001Z</time></trkpt><trkpt lat="42.0981292204798" lon="12.279462754852037"><ele>167.0</ele><time>2026-05-01T09:01:09.001Z</time></trkpt><trkpt lat="42.09826667775017" lon="12.279561160159007"><ele>166.0</ele><time>2026-05-01T09:01:10.001Z</time></trkpt><trkpt lat="42.09841272266384" lon="12.279635885362476"><ele>165.0</ele><time>2026-05-01T09:01:11.001Z</time></trkpt><trkpt lat="42.09857992787332" lon="12.279682194702616"><ele>165.0</ele><time>2026-05-01T09:01:12.001Z</time></trkpt><trkpt lat="42.09875295994214" lon="12.279709281489364"><ele>165.0</ele><time>2026-05-01T09:01:13.001Z</time></trkpt><trkpt lat="42.09893941667449" lon="12.279721056579156"><ele>165.0</ele><time>2026-05-01T09:01:14.001Z</time></trkpt><trkpt lat="42.09913670003585" lon="12.279734185555615"><ele>165.66666666666666</ele><time>2026-05-01T09:01:15.001Z</time></trkpt><trkpt lat="42.099344975497544" lon="12.279755144654553"><ele>166.33333333333331</ele><time>2026-05-01T09:01:16.001Z</time></trkpt><trkpt lat="42.099561613047165" lon="12.279773040165988"><ele>167.0</ele><time>2026-05-01T09:01:17.001Z</time></trkpt><trkpt lat="42.099778585139624" lon="12.279791913909706"><ele>167.0</ele><time>2026-05-01T09:01:18.001Z</time></trkpt><trkpt lat="42.099997183995676" lon="12.279812096720274"><ele>167.0</ele><time>2026-05-01T09:01:19.001Z</time></trkpt><trkpt lat="42.100213474872845" lon="12.279829819787642"><ele>167.0</ele><time>2026-05-01T09:01:20.001Z</time></trkpt><trkpt lat="42.10041592478577" lon="12.279851205995975"><ele>167.0</ele><time>2026-05-01T09:01:21.001Z</time></trkpt><trkpt lat="42.1006049556535" lon="12.279866294200461"><ele>167.0</ele><time>2026-05-01T09:01:22.001Z</time></trkpt><trkpt lat="42.10078572069749" lon="12.279865878006053"><ele>167.0</ele><time>2026-05-01T09:01:23.001Z</time></trkpt><trkpt lat="42.10094927268545" lon="12.279831991893515"><ele>166.0</ele><time>2026-05-01T09:01:24.001Z</time></trkpt><trkpt lat="42.10109916570221" lon="12.279757838288658"><ele>165.0</ele><time>2026-05-01T09:01:25.001Z</time></trkpt><trkpt lat="42.10123680934831" lon="12.279644402154608"><ele>164.0</ele><time>2026-05-01T09:01:26.002Z</time></trkpt><trkpt lat="42.10136158468549" lon="12.279510766651661"><ele>164.0</ele><time>2026-05-01T09:01:27.002Z</time></trkpt><trkpt lat="42.10148136844803" lon="12.279388411553098"><ele>164.0</ele><time>2026-05-01T09:01:28.002Z</time></trkpt><trkpt lat="42.10159805553539" lon="12.27930234023531"><ele>164.0</ele><time>2026-05-01T09:01:29.002Z</time></trkpt><trkpt lat="42.101719168928945" lon="12.279240184031897"><ele>164.0</ele><time>2026-05-01T09:01:30.002Z</time></trkpt><trkpt lat="42.10184486112429" lon="12.279183854812452"><ele>163.25</ele><time>2026-05-01T09:01:31.002Z</time></trkpt><trkpt lat="42.10197623196218" lon="12.27912365010708"><ele>162.5</ele><time>2026-05-01T09:01:32.002Z</time></trkpt><trkpt lat="42.10210623369565" lon="12.279058502342187"><ele>161.75</ele><time>2026-05-01T09:01:33.002Z</time></trkpt><trkpt lat="42.10224142094761" lon="12.278990311723883"><ele>161.0</ele><time>2026-05-01T09:01:34.002Z</time></trkpt><trkpt lat="42.10237741365476" lon="12.278925969461657"><ele>162.0</ele><time>2026-05-01T09:01:35.002Z</time></trkpt><trkpt lat="42.10251583000496" lon="12.27886359599629"><ele>163.0</ele><time>2026-05-01T09:01:36.002Z</time></trkpt><trkpt lat="42.10265643916754" lon="12.27880689050961"><ele>164.0</ele><time>2026-05-01T09:01:37.002Z</time></trkpt><trkpt lat="42.10279661454781" lon="12.278741108983722"><ele>165.0</ele><time>2026-05-01T09:01:38.002Z</time></trkpt><trkpt lat="42.102931489500264" lon="12.278672469547795"><ele>165.0</ele><time>2026-05-01T09:01:39.002Z</time></trkpt><trkpt lat="42.103064271764836" lon="12.278603821159226"><ele>165.0</ele><time>2026-05-01T09:01:40.002Z</time></trkpt><trkpt lat="42.10319846501207" lon="12.278538900265112"><ele>165.0</ele><time>2026-05-01T09:01:41.002Z</time></trkpt><trkpt lat="42.10333144976894" lon="12.278472686797018"><ele>165.0</ele><time>2026-05-01T09:01:42.002Z</time></trkpt><trkpt lat="42.10346087450424" lon="12.278419178097353"><ele>168.25</ele><time>2026-05-01T09:01:43.002Z</time></trkpt><trkpt lat="42.103594865107794" lon="12.278378402151617"><ele>171.5</ele><time>2026-05-01T09:01:44.002Z</time></trkpt><trkpt lat="42.10373435639119" lon="12.278346609553061"><ele>174.75</ele><time>2026-05-01T09:01:45.002Z</time></trkpt><trkpt lat="42.10388445980124" lon="12.278321594238895"><ele>178.0</ele><time>2026-05-01T09:01:46.002Z</time></trkpt><trkpt lat="42.1040399397504" lon="12.278293188232485"><ele>179.33333333333334</ele><time>2026-05-01T09:01:47.002Z</time></trkpt><trkpt lat="42.10419807952363" lon="12.278270236853064"><ele>180.66666666666666</ele><time>2026-05-01T09:01:48.002Z</time></trkpt><trkpt lat="42.104363746785864" lon="12.27826140344142"><ele>182.0</ele><time>2026-05-01T09:01:49.002Z</time></trkpt><trkpt lat="42.10452574556983" lon="12.27827498365189"><ele>182.0</ele><time>2026-05-01T09:01:50.002Z</time></trkpt><trkpt lat="42.104698850947514" lon="12.27832561130935"><ele>182.0</ele><time>2026-05-01T09:01:51.002Z</time></trkpt><trkpt lat="42.1048756439299" lon="12.278366967627262"><ele>182.0</ele><time>2026-05-01T09:01:52.002Z</time></trkpt><trkpt lat="42.105053634213114" lon="12.278408975295052"><ele>178.66666666666666</ele><time>2026-05-01T09:01:53.002Z</time></trkpt><trkpt lat="42.105237075961945" lon="12.278447725754951"><ele>175.33333333333334</ele><time>2026-05-01T09:01:54.002Z</time></trkpt><trkpt lat="42.105424182549264" lon="12.278488511723577"><ele>172.0</ele><time>2026-05-01T09:01:55.002Z</time></trkpt><trkpt lat="42.10561442067068" lon="12.27853630711464"><ele>170.66666666666669</ele><time>2026-05-01T09:01:56.002Z</time></trkpt><trkpt lat="42.1057992096655" lon="12.278590457563812"><ele>169.33333333333334</ele><time>2026-05-01T09:01:57.002Z</time></trkpt><trkpt lat="42.105977898601424" lon="12.278638703515066"><ele>168.0</ele><time>2026-05-01T09:01:58.002Z</time></trkpt><trkpt lat="42.10614643198884" lon="12.27867946214757"><ele>168.0</ele><time>2026-05-01T09:01:59.002Z</time></trkpt><trkpt lat="42.1062992884602" lon="12.278710341594602"><ele>168.0</ele><time>2026-05-01T09:02:00.002Z</time></trkpt><trkpt lat="42.106441591495326" lon="12.278759235712396"><ele>168.0</ele><time>2026-05-01T09:02:01.001Z</time></trkpt><trkpt lat="42.1065592535815" lon="12.278851942490517"><ele>168.0</ele><time>2026-05-01T09:02:02.001Z</time></trkpt><trkpt lat="42.10666208428778" lon="12.278986131967669"><ele>172.33333333333334</ele><time>2026-05-01T09:02:03.001Z</time></trkpt><trkpt lat="42.10675621634747" lon="12.279138850393267"><ele>176.66666666666669</ele><time>2026-05-01T09:02:04.001Z</time></trkpt><trkpt lat="42.10685583819832" lon="12.279308872422543"><ele>181.0</ele><time>2026-05-01T09:02:05.001Z</time></trkpt><trkpt lat="42.10697387048447" lon="12.279467596390647"><ele>181.0</ele><time>2026-05-01T09:02:06.001Z</time></trkpt><trkpt lat="42.107120195663214" lon="12.27959249782909"><ele>181.0</ele><time>2026-05-01T09:02:07.001Z</time></trkpt><trkpt lat="42.10726720301375" lon="12.279722159333625"><ele>181.0</ele><time>2026-05-01T09:02:08.001Z</time></trkpt><trkpt lat="42.107410096668715" lon="12.279842493165074"><ele>182.33333333333334</ele><time>2026-05-01T09:02:09.001Z</time></trkpt><trkpt lat="42.10753282827273" lon="12.279963855404167"><ele>183.66666666666666</ele><time>2026-05-01T09:02:10.001Z</time></trkpt><trkpt lat="42.10767042522232" lon="12.280056865470426"><ele>185.0</ele><time>2026-05-01T09:02:11.001Z</time></trkpt><trkpt lat="42.10779504237662" lon="12.280182326752445"><ele>185.0</ele><time>2026-05-01T09:02:12.001Z</time></trkpt><trkpt lat="42.10793091374034" lon="12.280289876877648"><ele>185.0</ele><time>2026-05-01T09:02:13.001Z</time></trkpt><trkpt lat="42.10807686302817" lon="12.280385342714487"><ele>185.0</ele><time>2026-05-01T09:02:14.001Z</time></trkpt><trkpt lat="42.10823193785901" lon="12.28044645371636"><ele>187.66666666666666</ele><time>2026-05-01T09:02:15.001Z</time></trkpt><trkpt lat="42.1083813021203" lon="12.280519361126863"><ele>190.33333333333331</ele><time>2026-05-01T09:02:16.001Z</time></trkpt><trkpt lat="42.10852354485485" lon="12.28058815440755"><ele>193.0</ele><time>2026-05-01T09:02:17.001Z</time></trkpt><trkpt lat="42.10866587671576" lon="12.280662240071377"><ele>193.0</ele><time>2026-05-01T09:02:18.001Z</time></trkpt><trkpt lat="42.10880795952932" lon="12.280719422765838"><ele>193.0</ele><time>2026-05-01T09:02:19.001Z</time></trkpt><trkpt lat="42.10894996229592" lon="12.280751570778817"><ele>193.0</ele><time>2026-05-01T09:02:20.001Z</time></trkpt><trkpt lat="42.10908919893282" lon="12.280746570716728"><ele>193.0</ele><time>2026-05-01T09:02:21.001Z</time></trkpt><trkpt lat="42.109232776608174" lon="12.280711403812486"><ele>191.25</ele><time>2026-05-01T09:02:22.001Z</time></trkpt><trkpt lat="42.10937157144173" lon="12.280651259412231"><ele>189.5</ele><time>2026-05-01T09:02:23.001Z</time></trkpt><trkpt lat="42.10950449503321" lon="12.280595835193152"><ele>187.75</ele><time>2026-05-01T09:02:24.001Z</time></trkpt><trkpt lat="42.109630198635756" lon="12.280539411658022"><ele>186.0</ele><time>2026-05-01T09:02:25.001Z</time></trkpt><trkpt lat="42.10974703345972" lon="12.280489979775536"><ele>185.4</ele><time>2026-05-01T09:02:26.001Z</time></trkpt><trkpt lat="42.1098522860919" lon="12.28046754787031"><ele>184.8</ele><time>2026-05-01T09:02:27.001Z</time></trkpt><trkpt lat="42.10995773470846" lon="12.280478513299549"><ele>184.20000000000002</ele><time>2026-05-01T09:02:28.001Z</time></trkpt><trkpt lat="42.11006284251205" lon="12.280518666284877"><ele>183.60000000000002</ele><time>2026-05-01T09:02:29.001Z</time></trkpt><trkpt lat="42.11016552186609" lon="12.280580059014035"><ele>183.0</ele><time>2026-05-01T09:02:30.001Z</time></trkpt><trkpt lat="42.11025001726085" lon="12.280684447711403"><ele>183.0</ele><time>2026-05-01T09:02:31.001Z</time></trkpt><trkpt lat="42.11036156923063" lon="12.28078268504065"><ele>183.0</ele><time>2026-05-01T09:02:32.001Z</time></trkpt><trkpt lat="42.110474801177034" lon="12.280903242570657"><ele>183.0</ele><time>2026-05-01T09:02:33.001Z</time></trkpt><trkpt lat="42.11058469025693" lon="12.281010510715824"><ele>183.0</ele><time>2026-05-01T09:02:34.001Z</time></trkpt><trkpt lat="42.11069261497334" lon="12.281124288165834"><ele>184.5</ele><time>2026-05-01T09:02:35.001Z</time></trkpt><trkpt lat="42.11079619984178" lon="12.281248265134149"><ele>186.0</ele><time>2026-05-01T09:02:36.001Z</time></trkpt><trkpt lat="42.11090385547412" lon="12.281348372461478"><ele>187.5</ele><time>2026-05-01T09:02:37.001Z</time></trkpt><trkpt lat="42.11100898793339" lon="12.281452478670394"><ele>189.0</ele><time>2026-05-01T09:02:38.001Z</time></trkpt><trkpt lat="42.111113006970086" lon="12.281550871490563"><ele>189.0</ele><time>2026-05-01T09:02:39.001Z</time></trkpt><trkpt lat="42.111223957463984" lon="12.281650866029802"><ele>189.0</ele><time>2026-05-01T09:02:40.001Z</time></trkpt><trkpt lat="42.111344631040915" lon="12.281736748277101"><ele>189.0</ele><time>2026-05-01T09:02:41.001Z</time></trkpt><trkpt lat="42.111469877592555" lon="12.281815304135844"><ele>189.0</ele><time>2026-05-01T09:02:42.001Z</time></trkpt><trkpt lat="42.11158868378227" lon="12.281889407059507"><ele>184.0</ele><time>2026-05-01T09:02:43.001Z</time></trkpt><trkpt lat="42.11169582770182" lon="12.281959943908019"><ele>179.0</ele><time>2026-05-01T09:02:44.001Z</time></trkpt><trkpt lat="42.111801689554476" lon="12.282024196790724"><ele>174.0</ele><time>2026-05-01T09:02:45.001Z</time></trkpt><trkpt lat="42.11190503168699" lon="12.28207955291198"><ele>169.0</ele><time>2026-05-01T09:02:46.001Z</time></trkpt><trkpt lat="42.112061664227824" lon="12.282127410184774"><ele>169.0</ele><time>2026-05-01T09:02:47.001Z</time></trkpt><trkpt lat="42.11222666872691" lon="12.282153079907728"><ele>169.0</ele><time>2026-05-01T09:02:48.001Z</time></trkpt><trkpt lat="42.11239505089791" lon="12.282197624897648"><ele>169.0</ele><time>2026-05-01T09:02:49.001Z</time></trkpt><trkpt lat="42.11259946678917" lon="12.282252391218954"><ele>174.33333333333334</ele><time>2026-05-01T09:02:50.001Z</time></trkpt><trkpt lat="42.112802066500976" lon="12.282328470438083"><ele>179.66666666666666</ele><time>2026-05-01T09:02:51.001Z</time></trkpt><trkpt lat="42.1130039501136" lon="12.28238674321598"><ele>185.0</ele><time>2026-05-01T09:02:52.001Z</time></trkpt><trkpt lat="42.113215440699975" lon="12.282420075738369"><ele>183.0</ele><time>2026-05-01T09:02:53.001Z</time></trkpt><trkpt lat="42.113407667520406" lon="12.28246629365677"><ele>181.0</ele><time>2026-05-01T09:02:54.001Z</time></trkpt><trkpt lat="42.11359439269872" lon="12.28250677202477"><ele>179.0</ele><time>2026-05-01T09:02:55.001Z</time></trkpt><trkpt lat="42.11378115206253" lon="12.282556497935088"><ele>179.0</ele><time>2026-05-01T09:02:56.001Z</time></trkpt><trkpt lat="42.11396182020175" lon="12.282606113643217"><ele>179.0</ele><time>2026-05-01T09:02:57.001Z</time></trkpt><trkpt lat="42.11413600818241" lon="12.282656382048794"><ele>179.0</ele><time>2026-05-01T09:02:58.001Z</time></trkpt><trkpt lat="42.11431308939434" lon="12.282707248305258"><ele>177.33333333333331</ele><time>2026-05-01T09:02:59.001Z</time></trkpt><trkpt lat="42.114493388802025" lon="12.28276082374126"><ele>175.66666666666666</ele><time>2026-05-01T09:03:00.001Z</time></trkpt><trkpt lat="42.114675248243984" lon="12.282816955564344"><ele>174.0</ele><time>2026-05-01T09:03:01.001Z</time></trkpt><trkpt lat="42.114860717958365" lon="12.282869702810771"><ele>171.66666666666666</ele><time>2026-05-01T09:03:02.001Z</time></trkpt><trkpt lat="42.11504306688195" lon="12.282938912199482"><ele>169.33333333333331</ele><time>2026-05-01T09:03:03.001Z</time></trkpt><trkpt lat="42.11522769125275" lon="12.282991706644069"><ele>167.0</ele><time>2026-05-01T09:03:04.001Z</time></trkpt><trkpt lat="42.115414337565134" lon="12.283047398906318"><ele>167.0</ele><time>2026-05-01T09:03:05.001Z</time></trkpt><trkpt lat="42.11560669343121" lon="12.283079130651254"><ele>167.0</ele><time>2026-05-01T09:03:06.001Z</time></trkpt><trkpt lat="42.115801341554494" lon="12.283122838876583"><ele>167.0</ele><time>2026-05-01T09:03:07.001Z</time></trkpt><trkpt lat="42.11599570421486" lon="12.283161194230916"><ele>171.0</ele><time>2026-05-01T09:03:08.001Z</time></trkpt><trkpt lat="42.11622065068106" lon="12.283190671352235"><ele>175.0</ele><time>2026-05-01T09:03:09.001Z</time></trkpt><trkpt lat="42.11644110633338" lon="12.283214900002337"><ele>179.0</ele><time>2026-05-01T09:03:10.001Z</time></trkpt><trkpt lat="42.11666527650239" lon="12.283229570195155"><ele>179.0</ele><time>2026-05-01T09:03:11.001Z</time></trkpt><trkpt lat="42.116895845038776" lon="12.283252602650867"><ele>179.0</ele><time>2026-05-01T09:03:12.001Z</time></trkpt><trkpt lat="42.117122178849556" lon="12.283276753493235"><ele>179.0</ele><time>2026-05-01T09:03:13.001Z</time></trkpt><trkpt lat="42.11733277661597" lon="12.283310761693185"><ele>179.0</ele><time>2026-05-01T09:03:14.001Z</time></trkpt><trkpt lat="42.11753467434908" lon="12.283331567279122"><ele>179.0</ele><time>2026-05-01T09:03:15.001Z</time></trkpt><trkpt lat="42.11773164845183" lon="12.283358113327697"><ele>177.0</ele><time>2026-05-01T09:03:16.001Z</time></trkpt><trkpt lat="42.11791121331339" lon="12.283384861267265"><ele>175.0</ele><time>2026-05-01T09:03:17.001Z</time></trkpt><trkpt lat="42.118083890756424" lon="12.28341107322896"><ele>173.0</ele><time>2026-05-01T09:03:18.002Z</time></trkpt><trkpt lat="42.11824524293777" lon="12.283425082261592"><ele>172.33333333333331</ele><time>2026-05-01T09:03:19.002Z</time></trkpt><trkpt lat="42.11841850438894" lon="12.28344640196736"><ele>171.66666666666666</ele><time>2026-05-01T09:03:20.002Z</time></trkpt><trkpt lat="42.11860249378383" lon="12.283507927180832"><ele>171.0</ele><time>2026-05-01T09:03:21.002Z</time></trkpt><trkpt lat="42.118804628418104" lon="12.28356457438803"><ele>171.0</ele><time>2026-05-01T09:03:22.002Z</time></trkpt><trkpt lat="42.11901829891188" lon="12.283622397226202"><ele>171.0</ele><time>2026-05-01T09:03:23.002Z</time></trkpt><trkpt lat="42.11924387864411" lon="12.283684037822837"><ele>171.0</ele><time>2026-05-01T09:03:24.002Z</time></trkpt><trkpt lat="42.11947384845212" lon="12.28374714020608"><ele>170.0</ele><time>2026-05-01T09:03:25.002Z</time></trkpt><trkpt lat="42.11970709577781" lon="12.28379219223474"><ele>169.0</ele><time>2026-05-01T09:03:26.002Z</time></trkpt><trkpt lat="42.11991967572861" lon="12.28385250802461"><ele>168.33333333333334</ele><time>2026-05-01T09:03:27.002Z</time></trkpt><trkpt lat="42.12011280495527" lon="12.283907394149404"><ele>167.66666666666666</ele><time>2026-05-01T09:03:28.002Z</time></trkpt><trkpt lat="42.12030334519528" lon="12.283964795019772"><ele>167.0</ele><time>2026-05-01T09:03:29.002Z</time></trkpt><trkpt lat="42.120477921092075" lon="12.284015515268038"><ele>171.66666666666666</ele><time>2026-05-01T09:03:30.002Z</time></trkpt><trkpt lat="42.1206512697617" lon="12.284053915996875"><ele>176.33333333333334</ele><time>2026-05-01T09:03:31.002Z</time></trkpt><trkpt lat="42.12083161291623" lon="12.284057219884142"><ele>181.0</ele><time>2026-05-01T09:03:32.002Z</time></trkpt><trkpt lat="42.12101869075477" lon="12.28408168079128"><ele>181.0</ele><time>2026-05-01T09:03:33.002Z</time></trkpt><trkpt lat="42.12121158200872" lon="12.284088198206103"><ele>181.0</ele><time>2026-05-01T09:03:34.002Z</time></trkpt><trkpt lat="42.12140410395734" lon="12.2840941375523"><ele>181.0</ele><time>2026-05-01T09:03:35.002Z</time></trkpt><trkpt lat="42.121568729359716" lon="12.284097511169296"><ele>179.66666666666669</ele><time>2026-05-01T09:03:36.002Z</time></trkpt><trkpt lat="42.12172644342032" lon="12.284100743154358"><ele>178.33333333333334</ele><time>2026-05-01T09:03:37.002Z</time></trkpt><trkpt lat="42.12186613745648" lon="12.284103605846376"><ele>177.0</ele><time>2026-05-01T09:03:38.002Z</time></trkpt><trkpt lat="42.12202220025359" lon="12.284107263623458"><ele>177.0</ele><time>2026-05-01T09:03:39.002Z</time></trkpt><trkpt lat="42.12219203471076" lon="12.284111130671555"><ele>177.0</ele><time>2026-05-01T09:03:40.002Z</time></trkpt><trkpt lat="42.122374580617475" lon="12.284115287155974"><ele>177.0</ele><time>2026-05-01T09:03:41.002Z</time></trkpt><trkpt lat="42.12254384274936" lon="12.284118874433334"><ele>177.25</ele><time>2026-05-01T09:03:42.002Z</time></trkpt><trkpt lat="42.12270075659719" lon="12.284121932478389"><ele>177.5</ele><time>2026-05-01T09:03:43.002Z</time></trkpt><trkpt lat="42.12283567128648" lon="12.284126672379061"><ele>177.75</ele><time>2026-05-01T09:03:44.002Z</time></trkpt><trkpt lat="42.122963173668" lon="12.284139836815019"><ele>178.0</ele><time>2026-05-01T09:03:45.002Z</time></trkpt><trkpt lat="42.12310917946624" lon="12.284163840107858"><ele>177.25</ele><time>2026-05-01T09:03:46.002Z</time></trkpt><trkpt lat="42.123266452851176" lon="12.284188020766834"><ele>176.5</ele><time>2026-05-01T09:03:47.002Z</time></trkpt><trkpt lat="42.12341370054182" lon="12.284226784371189"><ele>175.75</ele><time>2026-05-01T09:03:48.002Z</time></trkpt><trkpt lat="42.12353612935962" lon="12.284279549037132"><ele>175.0</ele><time>2026-05-01T09:03:49.002Z</time></trkpt><trkpt lat="42.1236435734783" lon="12.284303344719222"><ele>175.0</ele><time>2026-05-01T09:03:50.002Z</time></trkpt><trkpt lat="42.12375347220078" lon="12.284327920514354"><ele>175.0</ele><time>2026-05-01T09:03:51.002Z</time></trkpt><trkpt lat="42.123849488598545" lon="12.284350511743005"><ele>175.0</ele><time>2026-05-01T09:03:52.002Z</time></trkpt><trkpt lat="42.12394192745969" lon="12.28437246219876"><ele>175.0</ele><time>2026-05-01T09:03:53.002Z</time></trkpt><trkpt lat="42.12402392899999" lon="12.284393453869237"><ele>175.0</ele><time>2026-05-01T09:03:54.002Z</time></trkpt><trkpt lat="42.124102728700215" lon="12.284432167675206"><ele>173.33333333333334</ele><time>2026-05-01T09:03:55.002Z</time></trkpt><trkpt lat="42.12418385960131" lon="12.284443296746037"><ele>171.66666666666669</ele><time>2026-05-01T09:03:56.002Z</time></trkpt><trkpt lat="42.124273122777055" lon="12.284464254663297"><ele>170.0</ele><time>2026-05-01T09:03:57.002Z</time></trkpt><trkpt lat="42.12436057543493" lon="12.284480943554513"><ele>168.33333333333334</ele><time>2026-05-01T09:03:58.002Z</time></trkpt><trkpt lat="42.124442305830094" lon="12.284492782249911"><ele>166.66666666666666</ele><time>2026-05-01T09:03:59.002Z</time></trkpt><trkpt lat="42.1245199417084" lon="12.28451342610981"><ele>165.0</ele><time>2026-05-01T09:04:00.002Z</time></trkpt><trkpt lat="42.124590691629294" lon="12.284525026640608"><ele>165.0</ele><time>2026-05-01T09:04:02.002Z</time></trkpt><trkpt lat="42.12466741687596" lon="12.28455373473455"><ele>165.0</ele><time>2026-05-01T09:04:31.001Z</time></trkpt><trkpt lat="42.12473746051961" lon="12.284569629165762"><ele>165.0</ele><time>2026-05-01T09:04:32.001Z</time></trkpt><trkpt lat="42.12482035245217" lon="12.284588439145367"><ele>165.0</ele><time>2026-05-01T09:04:33.001Z</time></trkpt><trkpt lat="42.12491206276621" lon="12.28460925020738"><ele>165.0</ele><time>2026-05-01T09:04:34.001Z</time></trkpt><trkpt lat="42.12501448285773" lon="12.284632491540187"><ele>165.0</ele><time>2026-05-01T09:04:35.001Z</time></trkpt><trkpt lat="42.12513967626655" lon="12.28466090061215"><ele>164.6</ele><time>2026-05-01T09:04:36.001Z</time></trkpt><trkpt lat="42.12526266831581" lon="12.284688810184878"><ele>164.2</ele><time>2026-05-01T09:04:37.001Z</time></trkpt><trkpt lat="42.12535006154802" lon="12.284708641616367"><ele>163.8</ele><time>2026-05-01T09:04:38.001Z</time></trkpt><trkpt lat="42.12546601431984" lon="12.284737785795937"><ele>163.4</ele><time>2026-05-01T09:04:39.001Z</time></trkpt><trkpt lat="42.125574449769495" lon="12.284765498488628"><ele>163.0</ele><time>2026-05-01T09:04:40.001Z</time></trkpt><trkpt lat="42.12566663595152" lon="12.284789058373372"><ele>167.0</ele><time>2026-05-01T09:04:41.001Z</time></trkpt><trkpt lat="42.125732594551806" lon="12.284806694262343"><ele>171.0</ele><time>2026-05-01T09:04:42.001Z</time></trkpt><trkpt lat="42.125801103146784" lon="12.284807756079816"><ele>175.0</ele><time>2026-05-01T09:04:43.001Z</time></trkpt><trkpt lat="42.12588256467306" lon="12.28485068707534"><ele>179.0</ele><time>2026-05-01T09:04:49.001Z</time></trkpt><trkpt lat="42.125960833157094" lon="12.284853232575406"><ele>183.0</ele><time>2026-05-01T09:04:50.001Z</time></trkpt><trkpt lat="42.12603698093828" lon="12.284883901759335"><ele>187.0</ele><time>2026-05-01T09:04:51.001Z</time></trkpt><trkpt lat="42.1261206075817" lon="12.284915693721548"><ele>187.0</ele><time>2026-05-01T09:04:52.001Z</time></trkpt><trkpt lat="42.1262144934358" lon="12.284962988107822"><ele>187.0</ele><time>2026-05-01T09:04:53.001Z</time></trkpt><trkpt lat="42.12633260899593" lon="12.285008829717814"><ele>187.0</ele><time>2026-05-01T09:04:54.001Z</time></trkpt><trkpt lat="42.126448356267986" lon="12.28504426336961"><ele>187.0</ele><time>2026-05-01T09:04:55.001Z</time></trkpt><trkpt lat="42.12656595161646" lon="12.285087016868813"><ele>184.5</ele><time>2026-05-01T09:04:56.001Z</time></trkpt><trkpt lat="42.126684560357795" lon="12.285132266696872"><ele>182.0</ele><time>2026-05-01T09:04:57.001Z</time></trkpt><trkpt lat="42.1268111413266" lon="12.285172536063964"><ele>179.5</ele><time>2026-05-01T09:04:58.001Z</time></trkpt><trkpt lat="42.126938440833065" lon="12.285206621274945"><ele>177.0</ele><time>2026-05-01T09:04:59.001Z</time></trkpt><trkpt lat="42.127075027530104" lon="12.285245778333246"><ele>177.0</ele><time>2026-05-01T09:05:00.001Z</time></trkpt><trkpt lat="42.12721373184958" lon="12.285275755396862"><ele>177.0</ele><time>2026-05-01T09:05:01.001Z</time></trkpt><trkpt lat="42.12735977806925" lon="12.285303026950665"><ele>177.0</ele><time>2026-05-01T09:05:02.001Z</time></trkpt><trkpt lat="42.12750660125815" lon="12.285341835388964"><ele>177.0</ele><time>2026-05-01T09:05:03.001Z</time></trkpt><trkpt lat="42.12765882350423" lon="12.285365193087568"><ele>175.25</ele><time>2026-05-01T09:05:04.001Z</time></trkpt><trkpt lat="42.12780502272301" lon="12.285406592913947"><ele>173.5</ele><time>2026-05-01T09:05:05.001Z</time></trkpt><trkpt lat="42.1279374514745" lon="12.285431391061923"><ele>171.75</ele><time>2026-05-01T09:05:06.001Z</time></trkpt><trkpt lat="42.128061742388645" lon="12.285449256609589"><ele>170.0</ele><time>2026-05-01T09:05:07.001Z</time></trkpt><trkpt lat="42.128185899565175" lon="12.285476814785687"><ele>168.5</ele><time>2026-05-01T09:05:08.001Z</time></trkpt><trkpt lat="42.12831040373439" lon="12.285507167897231"><ele>167.0</ele><time>2026-05-01T09:05:09.001Z</time></trkpt><trkpt lat="42.128436323398454" lon="12.285558709222958"><ele>165.5</ele><time>2026-05-01T09:05:10.001Z</time></trkpt><trkpt lat="42.12856148669171" lon="12.285623224824114"><ele>164.0</ele><time>2026-05-01T09:05:11.001Z</time></trkpt><trkpt lat="42.12868200899521" lon="12.28572877103181"><ele>166.66666666666666</ele><time>2026-05-01T09:05:12.001Z</time></trkpt><trkpt lat="42.12881433593301" lon="12.285814492812005"><ele>169.33333333333334</ele><time>2026-05-01T09:05:13.002Z</time></trkpt><trkpt lat="42.128956552134724" lon="12.285914530867357"><ele>172.0</ele><time>2026-05-01T09:05:14.002Z</time></trkpt><trkpt lat="42.129100507610076" lon="12.286017485737148"><ele>172.0</ele><time>2026-05-01T09:05:15.002Z</time></trkpt><trkpt lat="42.12924806739565" lon="12.286114706960175"><ele>172.0</ele><time>2026-05-01T09:05:16.002Z</time></trkpt><trkpt lat="42.12937987061349" lon="12.286200585995413"><ele>172.0</ele><time>2026-05-01T09:05:17.002Z</time></trkpt><trkpt lat="42.129510985032105" lon="12.286283171767861"><ele>172.0</ele><time>2026-05-01T09:05:18.002Z</time></trkpt><trkpt lat="42.12965145287299" lon="12.286369338843233"><ele>172.0</ele><time>2026-05-01T09:05:19.002Z</time></trkpt><trkpt lat="42.129797938926444" lon="12.286441521472435"><ele>172.0</ele><time>2026-05-01T09:05:20.002Z</time></trkpt><trkpt lat="42.129934316199254" lon="12.286523823086615"><ele>173.25</ele><time>2026-05-01T09:05:21.002Z</time></trkpt><trkpt lat="42.13006407867044" lon="12.286557356921834"><ele>174.5</ele><time>2026-05-01T09:05:22.002Z</time></trkpt><trkpt lat="42.13017235544547" lon="12.28663437586346"><ele>175.75</ele><time>2026-05-01T09:05:23.002Z</time></trkpt><trkpt lat="42.13027159184652" lon="12.286696850060146"><ele>177.0</ele><time>2026-05-01T09:05:24.002Z</time></trkpt><trkpt lat="42.1303778168534" lon="12.28677742284368"><ele>177.0</ele><time>2026-05-01T09:05:25.002Z</time></trkpt><trkpt lat="42.130475323708765" lon="12.286868725996854"><ele>177.0</ele><time>2026-05-01T09:05:26.002Z</time></trkpt><trkpt lat="42.13057532965297" lon="12.286976744676725"><ele>177.0</ele><time>2026-05-01T09:05:27.002Z</time></trkpt><trkpt lat="42.13066539186526" lon="12.287102330809578"><ele>177.0</ele><time>2026-05-01T09:05:28.002Z</time></trkpt><trkpt lat="42.13075151684542" lon="12.287237915901049"><ele>176.5</ele><time>2026-05-01T09:05:29.002Z</time></trkpt><trkpt lat="42.13083766560682" lon="12.287375476620293"><ele>176.0</ele><time>2026-05-01T09:05:30.002Z</time></trkpt><trkpt lat="42.130924194884784" lon="12.287515101889928"><ele>175.5</ele><time>2026-05-01T09:05:31.002Z</time></trkpt><trkpt lat="42.1310053331111" lon="12.287655919385115"><ele>175.0</ele><time>2026-05-01T09:05:32.002Z</time></trkpt><trkpt lat="42.1310780750702" lon="12.28778372550708"><ele>175.0</ele><time>2026-05-01T09:05:33.002Z</time></trkpt><trkpt lat="42.131155794562396" lon="12.287881087616638"><ele>175.0</ele><time>2026-05-01T09:05:34.002Z</time></trkpt><trkpt lat="42.13122260676901" lon="12.287990779843529"><ele>175.0</ele><time>2026-05-01T09:05:35.002Z</time></trkpt><trkpt lat="42.13131771356092" lon="12.288071606348092"><ele>175.0</ele><time>2026-05-01T09:05:36.002Z</time></trkpt><trkpt lat="42.13143487312557" lon="12.288137934692251"><ele>172.66666666666669</ele><time>2026-05-01T09:05:37.002Z</time></trkpt><trkpt lat="42.13156787261712" lon="12.288185139278665"><ele>170.33333333333334</ele><time>2026-05-01T09:05:38.002Z</time></trkpt><trkpt lat="42.13171630591773" lon="12.2882207034785"><ele>168.0</ele><time>2026-05-01T09:05:39.002Z</time></trkpt><trkpt lat="42.13188247749936" lon="12.288258096950168"><ele>168.0</ele><time>2026-05-01T09:05:40.002Z</time></trkpt><trkpt lat="42.13206303172919" lon="12.288301384025146"><ele>168.0</ele><time>2026-05-01T09:05:41.002Z</time></trkpt><trkpt lat="42.13225623547275" lon="12.288353283398854"><ele>168.0</ele><time>2026-05-01T09:05:42.002Z</time></trkpt><trkpt lat="42.13243870845904" lon="12.288406623952575"><ele>167.33333333333334</ele><time>2026-05-01T09:05:43.002Z</time></trkpt><trkpt lat="42.13260909269564" lon="12.288449865852341"><ele>166.66666666666669</ele><time>2026-05-01T09:05:44.002Z</time></trkpt><trkpt lat="42.132775509811374" lon="12.2884993981901"><ele>166.0</ele><time>2026-05-01T09:05:45.002Z</time></trkpt><trkpt lat="42.132941213264814" lon="12.288551109717739"><ele>166.0</ele><time>2026-05-01T09:05:46.002Z</time></trkpt><trkpt lat="42.13311506671975" lon="12.288596702376738"><ele>166.0</ele><time>2026-05-01T09:05:47.002Z</time></trkpt><trkpt lat="42.133287541128986" lon="12.288639635012833"><ele>166.0</ele><time>2026-05-01T09:05:48.002Z</time></trkpt><trkpt lat="42.13346122006665" lon="12.28869406119374"><ele>165.75</ele><time>2026-05-01T09:05:49.002Z</time></trkpt><trkpt lat="42.13362544051335" lon="12.288745909883579"><ele>165.5</ele><time>2026-05-01T09:05:50.002Z</time></trkpt><trkpt lat="42.13377213935595" lon="12.288783655194889"><ele>165.25</ele><time>2026-05-01T09:05:51.002Z</time></trkpt><trkpt lat="42.13390231425768" lon="12.288807293369187"><ele>165.0</ele><time>2026-05-01T09:05:52.002Z</time></trkpt><trkpt lat="42.134038408944214" lon="12.288802056951376"><ele>165.75</ele><time>2026-05-01T09:05:53.002Z</time></trkpt><trkpt lat="42.13417472629886" lon="12.288759343266536"><ele>166.5</ele><time>2026-05-01T09:05:54.002Z</time></trkpt><trkpt lat="42.13429930927035" lon="12.28868510814875"><ele>167.25</ele><time>2026-05-01T09:05:55.002Z</time></trkpt><trkpt lat="42.134415045266714" lon="12.288574217076684"><ele>168.0</ele><time>2026-05-01T09:05:56.002Z</time></trkpt><trkpt lat="42.13452727903103" lon="12.288436071477351"><ele>168.0</ele><time>2026-05-01T09:05:57.002Z</time></trkpt><trkpt lat="42.13462897013828" lon="12.288268210205285"><ele>168.0</ele><time>2026-05-01T09:05:58.002Z</time></trkpt><trkpt lat="42.13473318831844" lon="12.288079063214283"><ele>168.0</ele><time>2026-05-01T09:05:59.002Z</time></trkpt><trkpt lat="42.13484757313472" lon="12.287877412174359"><ele>167.66666666666666</ele><time>2026-05-01T09:06:00.002Z</time></trkpt><trkpt lat="42.13496727037392" lon="12.287664553422347"><ele>167.33333333333331</ele><time>2026-05-01T09:06:01.002Z</time></trkpt><trkpt lat="42.13509277511008" lon="12.28745734756995"><ele>167.0</ele><time>2026-05-01T09:06:02.002Z</time></trkpt><trkpt lat="42.135214818841014" lon="12.287252483520623"><ele>167.0</ele><time>2026-05-01T09:06:03.002Z</time></trkpt><trkpt lat="42.13533596112267" lon="12.287051246944403"><ele>167.0</ele><time>2026-05-01T09:06:04.002Z</time></trkpt><trkpt lat="42.13545471592017" lon="12.286854843974822"><ele>167.0</ele><time>2026-05-01T09:06:05.002Z</time></trkpt><trkpt lat="42.135573651868384" lon="12.286690420913203"><ele>167.0</ele><time>2026-05-01T09:06:06.002Z</time></trkpt><trkpt lat="42.13569552065784" lon="12.286546064909174"><ele>167.0</ele><time>2026-05-01T09:06:07.002Z</time></trkpt><trkpt lat="42.13582457368079" lon="12.286421105130172"><ele>167.0</ele><time>2026-05-01T09:06:08.003Z</time></trkpt><trkpt lat="42.13597510993987" lon="12.286326107930147"><ele>166.0</ele><time>2026-05-01T09:06:09.003Z</time></trkpt><trkpt lat="42.13610672646988" lon="12.286216559520518"><ele>165.0</ele><time>2026-05-01T09:06:10.003Z</time></trkpt><trkpt lat="42.13625349616087" lon="12.286125895221216"><ele>164.0</ele><time>2026-05-01T09:06:11.003Z</time></trkpt><trkpt lat="42.13639932086442" lon="12.286025739164163"><ele>164.0</ele><time>2026-05-01T09:06:12.003Z</time></trkpt><trkpt lat="42.13654689876254" lon="12.28592183036862"><ele>164.0</ele><time>2026-05-01T09:06:13.001Z</time></trkpt><trkpt lat="42.136701217338775" lon="12.285813075949722"><ele>164.0</ele><time>2026-05-01T09:06:14.001Z</time></trkpt><trkpt lat="42.13684780981695" lon="12.28570764059706"><ele>164.33333333333331</ele><time>2026-05-01T09:06:15.001Z</time></trkpt><trkpt lat="42.13699522256468" lon="12.285601971735405"><ele>164.66666666666666</ele><time>2026-05-01T09:06:16.001Z</time></trkpt><trkpt lat="42.137144983797086" lon="12.285497994695993"><ele>165.0</ele><time>2026-05-01T09:06:17.001Z</time></trkpt><trkpt lat="42.1372928781806" lon="12.285402189043168"><ele>164.0</ele><time>2026-05-01T09:06:18.001Z</time></trkpt><trkpt lat="42.13743350257985" lon="12.285307302876289"><ele>163.0</ele><time>2026-05-01T09:06:19.001Z</time></trkpt><trkpt lat="42.1375714186345" lon="12.28521989372947"><ele>162.0</ele><time>2026-05-01T09:06:20.001Z</time></trkpt><trkpt lat="42.13770650170376" lon="12.285116776118446"><ele>162.0</ele><time>2026-05-01T09:06:21.001Z</time></trkpt><trkpt lat="42.137841643733914" lon="12.285016379424286"><ele>162.0</ele><time>2026-05-01T09:06:22.001Z</time></trkpt><trkpt lat="42.13797776531363" lon="12.284919892701824"><ele>162.0</ele><time>2026-05-01T09:06:23.001Z</time></trkpt><trkpt lat="42.13810824329851" lon="12.284826043380356"><ele>162.5</ele><time>2026-05-01T09:06:24.001Z</time></trkpt><trkpt lat="42.13823568184513" lon="12.284742613900718"><ele>163.0</ele><time>2026-05-01T09:06:25.001Z</time></trkpt><trkpt lat="42.138354030872385" lon="12.284666651298771"><ele>163.5</ele><time>2026-05-01T09:06:26.001Z</time></trkpt><trkpt lat="42.13846524681603" lon="12.284591667145381"><ele>164.0</ele><time>2026-05-01T09:06:27.001Z</time></trkpt><trkpt lat="42.138578613973245" lon="12.284507664700719"><ele>164.0</ele><time>2026-05-01T09:06:28.001Z</time></trkpt><trkpt lat="42.13869918180798" lon="12.284420037340023"><ele>164.0</ele><time>2026-05-01T09:06:29.001Z</time></trkpt><trkpt lat="42.13882863815915" lon="12.284330903875084"><ele>164.0</ele><time>2026-05-01T09:06:30.001Z</time></trkpt><trkpt lat="42.138963226629556" lon="12.284234356881562"><ele>164.0</ele><time>2026-05-01T09:06:31.001Z</time></trkpt><trkpt lat="42.13912154698422" lon="12.28410903779138"><ele>164.25</ele><time>2026-05-01T09:06:32.001Z</time></trkpt><trkpt lat="42.13925474395621" lon="12.284039900938655"><ele>164.5</ele><time>2026-05-01T09:06:33.001Z</time></trkpt><trkpt lat="42.13938805977419" lon="12.28394360936824"><ele>164.75</ele><time>2026-05-01T09:06:34.001Z</time></trkpt><trkpt lat="42.13952362633676" lon="12.283843940633895"><ele>165.0</ele><time>2026-05-01T09:06:35.001Z</time></trkpt><trkpt lat="42.13965943663347" lon="12.283738157976826"><ele>165.0</ele><time>2026-05-01T09:06:36.001Z</time></trkpt><trkpt lat="42.139804620672344" lon="12.283643716316178"><ele>165.0</ele><time>2026-05-01T09:06:37.001Z</time></trkpt><trkpt lat="42.13993956053282" lon="12.283542773626438"><ele>165.0</ele><time>2026-05-01T09:06:38.001Z</time></trkpt><trkpt lat="42.140075728055585" lon="12.28343623280259"><ele>164.33333333333334</ele><time>2026-05-01T09:06:39.001Z</time></trkpt><trkpt lat="42.14021231937369" lon="12.283332648169099"><ele>163.66666666666669</ele><time>2026-05-01T09:06:40.001Z</time></trkpt><trkpt lat="42.140351577001" lon="12.283217441872385"><ele>163.0</ele><time>2026-05-01T09:06:41.001Z</time></trkpt><trkpt lat="42.14049448725714" lon="12.283106611762996"><ele>164.0</ele><time>2026-05-01T09:06:42.001Z</time></trkpt><trkpt lat="42.140632768256054" lon="12.282968938587006"><ele>165.0</ele><time>2026-05-01T09:06:43.001Z</time></trkpt><trkpt lat="42.14076229061236" lon="12.282828322411603"><ele>166.0</ele><time>2026-05-01T09:06:44.001Z</time></trkpt><trkpt lat="42.14090073202955" lon="12.28268669023858"><ele>166.33333333333334</ele><time>2026-05-01T09:06:45.001Z</time></trkpt><trkpt lat="42.14103258904804" lon="12.28255747496349"><ele>166.66666666666666</ele><time>2026-05-01T09:06:46.001Z</time></trkpt><trkpt lat="42.141158759418396" lon="12.282439601826717"><ele>167.0</ele><time>2026-05-01T09:06:47.001Z</time></trkpt><trkpt lat="42.141287558222004" lon="12.2823403156022"><ele>167.0</ele><time>2026-05-01T09:06:48.001Z</time></trkpt><trkpt lat="42.141421548205244" lon="12.282270074775447"><ele>167.0</ele><time>2026-05-01T09:06:49.001Z</time></trkpt><trkpt lat="42.14155521062551" lon="12.282212819000689"><ele>167.0</ele><time>2026-05-01T09:06:50.001Z</time></trkpt><trkpt lat="42.14169209346865" lon="12.282182081554375"><ele>167.0</ele><time>2026-05-01T09:06:51.001Z</time></trkpt><trkpt lat="42.141835483612645" lon="12.2821540738767"><ele>166.66666666666666</ele><time>2026-05-01T09:06:52.001Z</time></trkpt><trkpt lat="42.14198171144638" lon="12.282128227332102"><ele>166.33333333333334</ele><time>2026-05-01T09:06:53.001Z</time></trkpt><trkpt lat="42.14214609052765" lon="12.282119824775318"><ele>166.0</ele><time>2026-05-01T09:06:54.001Z</time></trkpt><trkpt lat="42.14231139112752" lon="12.282103498747494"><ele>166.33333333333334</ele><time>2026-05-01T09:06:55.001Z</time></trkpt><trkpt lat="42.14247129691142" lon="12.282100966930653"><ele>166.66666666666666</ele><time>2026-05-01T09:06:56.001Z</time></trkpt><trkpt lat="42.1426254439175" lon="12.282086636427824"><ele>167.0</ele><time>2026-05-01T09:06:57.001Z</time></trkpt><trkpt lat="42.142776389616294" lon="12.28207995175972"><ele>167.0</ele><time>2026-05-01T09:06:58.001Z</time></trkpt><trkpt lat="42.14293117853018" lon="12.282064320743547"><ele>167.0</ele><time>2026-05-01T09:06:59.001Z</time></trkpt><trkpt lat="42.14308454703524" lon="12.282039047782042"><ele>167.0</ele><time>2026-05-01T09:07:00.001Z</time></trkpt><trkpt lat="42.14323764515965" lon="12.28201644453066"><ele>167.25</ele><time>2026-05-01T09:07:01.001Z</time></trkpt><trkpt lat="42.143386805168284" lon="12.281992758475296"><ele>167.5</ele><time>2026-05-01T09:07:02.001Z</time></trkpt><trkpt lat="42.14352841931627" lon="12.281973476838548"><ele>167.75</ele><time>2026-05-01T09:07:03.001Z</time></trkpt><trkpt lat="42.14366479001132" lon="12.281951903011404"><ele>168.0</ele><time>2026-05-01T09:07:04.001Z</time></trkpt><trkpt lat="42.14379403393259" lon="12.281941244515679"><ele>168.0</ele><time>2026-05-01T09:07:05.001Z</time></trkpt><trkpt lat="42.14391254678762" lon="12.281931336076198"><ele>168.0</ele><time>2026-05-01T09:07:06.001Z</time></trkpt><trkpt lat="42.144020328672426" lon="12.28191312062234"><ele>168.0</ele><time>2026-05-01T09:07:07.001Z</time></trkpt><trkpt lat="42.144115186878274" lon="12.281903103634797"><ele>168.0</ele><time>2026-05-01T09:07:08.001Z</time></trkpt><trkpt lat="42.14419451384035" lon="12.281906032426258"><ele>168.0</ele><time>2026-05-01T09:07:09.001Z</time></trkpt><trkpt lat="42.14425574589768" lon="12.281942324984819"><ele>168.2</ele><time>2026-05-01T09:07:10.001Z</time></trkpt><trkpt lat="42.144318410145246" lon="12.282002539827237"><ele>168.4</ele><time>2026-05-01T09:07:12.001Z</time></trkpt><trkpt lat="42.14424529490857" lon="12.282177536863857"><ele>168.6</ele><time>2026-05-01T09:07:15.001Z</time></trkpt><trkpt lat="42.14418664091002" lon="12.282244772703452"><ele>168.79999999999998</ele><time>2026-05-01T09:07:16.001Z</time></trkpt><trkpt lat="42.144116805386226" lon="12.282324825618419"><ele>169.0</ele><time>2026-05-01T09:07:17.001Z</time></trkpt><trkpt lat="42.14404787617187" lon="12.282403839498235"><ele>171.0</ele><time>2026-05-01T09:07:18.001Z</time></trkpt><trkpt lat="42.14396469239644" lon="12.282503814064757"><ele>173.0</ele><time>2026-05-01T09:07:19.001Z</time></trkpt><trkpt lat="42.14387721717123" lon="12.282625344436855"><ele>175.0</ele><time>2026-05-01T09:07:20.001Z</time></trkpt><trkpt lat="42.14379383398224" lon="12.282771935360392"><ele>177.0</ele><time>2026-05-01T09:07:21.001Z</time></trkpt><trkpt lat="42.143731144570594" lon="12.28293527756999"><ele>180.25</ele><time>2026-05-01T09:07:22.001Z</time></trkpt><trkpt lat="42.14370603450706" lon="12.283132336804249"><ele>183.5</ele><time>2026-05-01T09:07:23.001Z</time></trkpt><trkpt lat="42.143684379474024" lon="12.283332298954122"><ele>186.75</ele><time>2026-05-01T09:07:24.001Z</time></trkpt><trkpt lat="42.143647256905076" lon="12.283525189964358"><ele>190.0</ele><time>2026-05-01T09:07:25.001Z</time></trkpt><trkpt lat="42.14361978137442" lon="12.283708086435794"><ele>190.0</ele><time>2026-05-01T09:07:26.001Z</time></trkpt><trkpt lat="42.1435898355161" lon="12.283885983198527"><ele>190.0</ele><time>2026-05-01T09:07:27.001Z</time></trkpt><trkpt lat="42.143523881202874" lon="12.284051560424555"><ele>190.0</ele><time>2026-05-01T09:07:28.001Z</time></trkpt><trkpt lat="42.143430822335034" lon="12.284198686813433"><ele>190.0</ele><time>2026-05-01T09:07:29.001Z</time></trkpt><trkpt lat="42.143342656685064" lon="12.284365466042603"><ele>191.33333333333334</ele><time>2026-05-01T09:07:30.001Z</time></trkpt><trkpt lat="42.1432560681693" lon="12.28454052207526"><ele>192.66666666666669</ele><time>2026-05-01T09:07:31.001Z</time></trkpt><trkpt lat="42.14317262471502" lon="12.284726255172428"><ele>194.0</ele><time>2026-05-01T09:07:32.001Z</time></trkpt><trkpt lat="42.14309419277855" lon="12.284915294333809"><ele>194.5</ele><time>2026-05-01T09:07:33.001Z</time></trkpt><trkpt lat="42.143021748522116" lon="12.28509530858402"><ele>195.0</ele><time>2026-05-01T09:07:34.001Z</time></trkpt><trkpt lat="42.142957529818" lon="12.285272509057659"><ele>195.5</ele><time>2026-05-01T09:07:35.001Z</time></trkpt><trkpt lat="42.14292043358378" lon="12.285451359716879"><ele>196.0</ele><time>2026-05-01T09:07:36.001Z</time></trkpt><trkpt lat="42.14286497596231" lon="12.285613935714892"><ele>196.0</ele><time>2026-05-01T09:07:37.002Z</time></trkpt><trkpt lat="42.14283518102635" lon="12.285788152264518"><ele>196.0</ele><time>2026-05-01T09:07:38.002Z</time></trkpt><trkpt lat="42.14281587909156" lon="12.285967694941583"><ele>196.0</ele><time>2026-05-01T09:07:39.002Z</time></trkpt><trkpt lat="42.14280256786824" lon="12.286153557033183"><ele>196.0</ele><time>2026-05-01T09:07:40.002Z</time></trkpt><trkpt lat="42.14279042296119" lon="12.286338502455516"><ele>196.5</ele><time>2026-05-01T09:07:41.002Z</time></trkpt><trkpt lat="42.14277790909606" lon="12.286525187206431"><ele>197.0</ele><time>2026-05-01T09:07:42.002Z</time></trkpt><trkpt lat="42.14276536038773" lon="12.286712391616557"><ele>197.5</ele><time>2026-05-01T09:07:43.002Z</time></trkpt><trkpt lat="42.14275295403644" lon="12.286903384362194"><ele>198.0</ele><time>2026-05-01T09:07:44.002Z</time></trkpt><trkpt lat="42.142740795860746" lon="12.287091323470086"><ele>199.75</ele><time>2026-05-01T09:07:45.002Z</time></trkpt><trkpt lat="42.14272743292716" lon="12.287281457318741"><ele>201.5</ele><time>2026-05-01T09:07:46.002Z</time></trkpt><trkpt lat="42.14271377586851" lon="12.287473193005104"><ele>203.25</ele><time>2026-05-01T09:07:47.002Z</time></trkpt><trkpt lat="42.14269987575686" lon="12.287668340999582"><ele>205.0</ele><time>2026-05-01T09:07:48.002Z</time></trkpt><trkpt lat="42.142684781140474" lon="12.28786464189837"><ele>205.0</ele><time>2026-05-01T09:07:49.002Z</time></trkpt><trkpt lat="42.14266820827888" lon="12.28805917941993"><ele>205.0</ele><time>2026-05-01T09:07:50.002Z</time></trkpt><trkpt lat="42.14264783030321" lon="12.288249933210173"><ele>205.0</ele><time>2026-05-01T09:07:51.002Z</time></trkpt><trkpt lat="42.14261853057715" lon="12.288439461860037"><ele>205.0</ele><time>2026-05-01T09:07:52.002Z</time></trkpt><trkpt lat="42.142581094223836" lon="12.288627305856691"><ele>206.5</ele><time>2026-05-01T09:07:53.002Z</time></trkpt><trkpt lat="42.142542351650555" lon="12.28881545203217"><ele>208.0</ele><time>2026-05-01T09:07:54.002Z</time></trkpt><trkpt lat="42.142500660977994" lon="12.289004243719738"><ele>209.5</ele><time>2026-05-01T09:07:55.002Z</time></trkpt><trkpt lat="42.142458151298335" lon="12.289189402027068"><ele>211.0</ele><time>2026-05-01T09:07:56.002Z</time></trkpt><trkpt lat="42.142415106213456" lon="12.289374467577849"><ele>211.75</ele><time>2026-05-01T09:07:57.002Z</time></trkpt><trkpt lat="42.142373643590695" lon="12.289560430932127"><ele>212.5</ele><time>2026-05-01T09:07:58.002Z</time></trkpt><trkpt lat="42.142332202532096" lon="12.289747738439281"><ele>213.25</ele><time>2026-05-01T09:07:59.002Z</time></trkpt><trkpt lat="42.14229078117205" lon="12.289934957080423"><ele>214.0</ele><time>2026-05-01T09:08:00.002Z</time></trkpt><trkpt lat="42.14224960998867" lon="12.29012104469741"><ele>216.0</ele><time>2026-05-01T09:08:01.002Z</time></trkpt><trkpt lat="42.142208489759525" lon="12.290306902212473"><ele>218.0</ele><time>2026-05-01T09:08:02.002Z</time></trkpt><trkpt lat="42.14216751591599" lon="12.290492098002748"><ele>220.0</ele><time>2026-05-01T09:08:03.002Z</time></trkpt><trkpt lat="42.14212672842499" lon="12.290680185706453"><ele>222.0</ele><time>2026-05-01T09:08:04.002Z</time></trkpt><trkpt lat="42.142090584091136" lon="12.290872791050546"><ele>224.33333333333331</ele><time>2026-05-01T09:08:05.002Z</time></trkpt><trkpt lat="42.14205855418285" lon="12.291069510040975"><ele>226.66666666666666</ele><time>2026-05-01T09:08:06.002Z</time></trkpt><trkpt lat="42.14205039777682" lon="12.291287276286008"><ele>229.0</ele><time>2026-05-01T09:08:07.002Z</time></trkpt><trkpt lat="42.14205205125927" lon="12.291503300265433"><ele>231.0</ele><time>2026-05-01T09:08:08.002Z</time></trkpt><trkpt lat="42.1420566862199" lon="12.291728457644366"><ele>233.0</ele><time>2026-05-01T09:08:09.002Z</time></trkpt><trkpt lat="42.14206450191038" lon="12.291966751916128"><ele>235.0</ele><time>2026-05-01T09:08:10.002Z</time></trkpt><trkpt lat="42.14207061768628" lon="12.292212566341473"><ele>235.33333333333331</ele><time>2026-05-01T09:08:11.002Z</time></trkpt><trkpt lat="42.14207568927507" lon="12.292468793961067"><ele>235.66666666666669</ele><time>2026-05-01T09:08:12.002Z</time></trkpt><trkpt lat="42.14207909239536" lon="12.292723752619157"><ele>236.0</ele><time>2026-05-01T09:08:13.002Z</time></trkpt><trkpt lat="42.142079645359" lon="12.292976894265534"><ele>236.33333333333334</ele><time>2026-05-01T09:08:14.002Z</time></trkpt><trkpt lat="42.142080565840786" lon="12.293230809971096"><ele>236.66666666666669</ele><time>2026-05-01T09:08:15.002Z</time></trkpt><trkpt lat="42.14208168849655" lon="12.29348479196779"><ele>237.0</ele><time>2026-05-01T09:08:16.002Z</time></trkpt><trkpt lat="42.14208273435149" lon="12.293738769933547"><ele>236.66666666666669</ele><time>2026-05-01T09:08:17.002Z</time></trkpt><trkpt lat="42.142083335873934" lon="12.293992478493578"><ele>236.33333333333334</ele><time>2026-05-01T09:08:18.002Z</time></trkpt><trkpt lat="42.14208303280979" lon="12.294243832826004"><ele>236.0</ele><time>2026-05-01T09:08:19Z</time></trkpt><trkpt lat="42.14208225475593" lon="12.294491387946744"><ele>236.0</ele><time>2026-05-01T09:08:20Z</time></trkpt><trkpt lat="42.14209657419879" lon="12.294745532378615"><ele>236.0</ele><time>2026-05-01T09:08:21Z</time></trkpt><trkpt lat="42.14209275041062" lon="12.294997627554134"><ele>236.0</ele><time>2026-05-01T09:08:22Z</time></trkpt><trkpt lat="42.142090940026506" lon="12.295255323918477"><ele>235.66666666666669</ele><time>2026-05-01T09:08:23Z</time></trkpt><trkpt lat="42.1420930433628" lon="12.295514826651182"><ele>235.33333333333331</ele><time>2026-05-01T09:08:24Z</time></trkpt><trkpt lat="42.14207964536029" lon="12.295787795271169"><ele>235.0</ele><time>2026-05-01T09:08:25Z</time></trkpt><trkpt lat="42.1420796453592" lon="12.296061291137214"><ele>235.33333333333331</ele><time>2026-05-01T09:08:26Z</time></trkpt><trkpt lat="42.14207964535865" lon="12.296336830912182"><ele>235.66666666666669</ele><time>2026-05-01T09:08:27Z</time></trkpt><trkpt lat="42.142079645358095" lon="12.296615490971334"><ele>236.0</ele><time>2026-05-01T09:08:28Z</time></trkpt><trkpt lat="42.142079645357136" lon="12.296894279158906"><ele>236.0</ele><time>2026-05-01T09:08:29Z</time></trkpt><trkpt lat="42.14207964535621" lon="12.297180791745179"><ele>236.0</ele><time>2026-05-01T09:08:30Z</time></trkpt><trkpt lat="42.14207858993614" lon="12.297474640604634"><ele>236.0</ele><time>2026-05-01T09:08:31Z</time></trkpt><trkpt lat="42.14207761325276" lon="12.297768075069238"><ele>236.0</ele><time>2026-05-01T09:08:32Z</time></trkpt><trkpt lat="42.142076647859255" lon="12.29805811773252"><ele>236.0</ele><time>2026-05-01T09:08:33Z</time></trkpt><trkpt lat="42.142075683672616" lon="12.298347797959392"><ele>236.0</ele><time>2026-05-01T09:08:34Z</time></trkpt><trkpt lat="42.14207471112571" lon="12.298639989468228"><ele>236.0</ele><time>2026-05-01T09:08:35Z</time></trkpt><trkpt lat="42.142075411101004" lon="12.298925864318782"><ele>236.0</ele><time>2026-05-01T09:08:36Z</time></trkpt><trkpt lat="42.142077959096376" lon="12.299198805590256"><ele>236.0</ele><time>2026-05-01T09:08:37Z</time></trkpt><trkpt lat="42.14208543533707" lon="12.299465238446293"><ele>236.0</ele><time>2026-05-01T09:08:38Z</time></trkpt><trkpt lat="42.14211359327284" lon="12.29973938902227"><ele>236.0</ele><time>2026-05-01T09:08:39Z</time></trkpt><trkpt lat="42.14215974442831" lon="12.300012089655429"><ele>236.0</ele><time>2026-05-01T09:08:40Z</time></trkpt><trkpt lat="42.14221569875994" lon="12.300295146636538"><ele>234.5</ele><time>2026-05-01T09:08:41Z</time></trkpt><trkpt lat="42.14228816802997" lon="12.300585895403096"><ele>233.0</ele><time>2026-05-01T09:08:42Z</time></trkpt><trkpt lat="42.14234759873469" lon="12.300889412974254"><ele>233.0</ele><time>2026-05-01T09:08:43Z</time></trkpt><trkpt lat="42.14241025681019" lon="12.301208035254483"><ele>233.0</ele><time>2026-05-01T09:08:44Z</time></trkpt><trkpt lat="42.142460120549444" lon="12.301545321144653"><ele>232.0</ele><time>2026-05-01T09:08:45Z</time></trkpt><trkpt lat="42.142533211815675" lon="12.301888431742368"><ele>231.0</ele><time>2026-05-01T09:08:46Z</time></trkpt><trkpt lat="42.142617800474454" lon="12.302242273622827"><ele>230.0</ele><time>2026-05-01T09:08:47Z</time></trkpt><trkpt lat="42.14270481454351" lon="12.302592990191021"><ele>229.0</ele><time>2026-05-01T09:08:48Z</time></trkpt><trkpt lat="42.142792929169296" lon="12.302948142443654"><ele>228.0</ele><time>2026-05-01T09:08:49Z</time></trkpt><trkpt lat="42.14287269642496" lon="12.303267787942982"><ele>227.0</ele><time>2026-05-01T09:08:50Z</time></trkpt><trkpt lat="42.14294586363647" lon="12.303556631844183"><ele>227.0</ele><time>2026-05-01T09:08:51Z</time></trkpt><trkpt lat="42.14302908960289" lon="12.303861834494022"><ele>227.0</ele><time>2026-05-01T09:08:52Z</time></trkpt><trkpt lat="42.143101860825716" lon="12.304140121037497"><ele>227.5</ele><time>2026-05-01T09:08:53Z</time></trkpt><trkpt lat="42.14317969995783" lon="12.30442717081417"><ele>228.0</ele><time>2026-05-01T09:08:54.001Z</time></trkpt><trkpt lat="42.143255250257205" lon="12.304717838239453"><ele>229.0</ele><time>2026-05-01T09:08:55.001Z</time></trkpt><trkpt lat="42.14331871286135" lon="12.304997756573707"><ele>230.0</ele><time>2026-05-01T09:08:56.001Z</time></trkpt><trkpt lat="42.143382214383585" lon="12.305267801051336"><ele>231.0</ele><time>2026-05-01T09:08:57.001Z</time></trkpt><trkpt lat="42.14344310666874" lon="12.305513650554463"><ele>230.0</ele><time>2026-05-01T09:08:58.001Z</time></trkpt><trkpt lat="42.143506855284286" lon="12.30573719916524"><ele>229.0</ele><time>2026-05-01T09:08:59.001Z</time></trkpt><trkpt lat="42.14358476030361" lon="12.305931011118526"><ele>228.0</ele><time>2026-05-01T09:09:00.001Z</time></trkpt><trkpt lat="42.14365962861976" lon="12.306105227010562"><ele>228.0</ele><time>2026-05-01T09:09:01.001Z</time></trkpt><trkpt lat="42.143771910499424" lon="12.306251253208583"><ele>228.0</ele><time>2026-05-01T09:09:02.001Z</time></trkpt><trkpt lat="42.143895369966856" lon="12.30638714885492"><ele>228.0</ele><time>2026-05-01T09:09:03.001Z</time></trkpt><trkpt lat="42.144026218634586" lon="12.306532864660868"><ele>230.66666666666669</ele><time>2026-05-01T09:09:04.001Z</time></trkpt><trkpt lat="42.14416942841756" lon="12.306683955970504"><ele>233.33333333333334</ele><time>2026-05-01T09:09:05.001Z</time></trkpt><trkpt lat="42.14432498490491" lon="12.306834590623366"><ele>236.0</ele><time>2026-05-01T09:09:06.001Z</time></trkpt><trkpt lat="42.14448941546792" lon="12.307001983541486"><ele>236.0</ele><time>2026-05-01T09:09:07.001Z</time></trkpt><trkpt lat="42.14464917615144" lon="12.307172054085997"><ele>236.0</ele><time>2026-05-01T09:09:08.001Z</time></trkpt><trkpt lat="42.14479574200499" lon="12.307335097648984"><ele>236.0</ele><time>2026-05-01T09:09:09.001Z</time></trkpt><trkpt lat="42.14493228905936" lon="12.307498597130888"><ele>236.0</ele><time>2026-05-01T09:09:10.001Z</time></trkpt><trkpt lat="42.14507430395273" lon="12.307658390029076"><ele>236.0</ele><time>2026-05-01T09:09:11.001Z</time></trkpt><trkpt lat="42.1452258713166" lon="12.30779942982513"><ele>236.0</ele><time>2026-05-01T09:09:12.001Z</time></trkpt><trkpt lat="42.14539476124135" lon="12.307924472622947"><ele>236.0</ele><time>2026-05-01T09:09:13.001Z</time></trkpt><trkpt lat="42.145575140439284" lon="12.308037354034632"><ele>236.0</ele><time>2026-05-01T09:09:14.001Z</time></trkpt><trkpt lat="42.14577570239391" lon="12.308109269964195"><ele>236.0</ele><time>2026-05-01T09:09:15.001Z</time></trkpt><trkpt lat="42.145952782087186" lon="12.308191698178605"><ele>235.33333333333334</ele><time>2026-05-01T09:09:16.001Z</time></trkpt><trkpt lat="42.146122530242614" lon="12.308257630137168"><ele>234.66666666666669</ele><time>2026-05-01T09:09:17.001Z</time></trkpt><trkpt lat="42.14630685073317" lon="12.308309833204964"><ele>234.0</ele><time>2026-05-01T09:09:18.001Z</time></trkpt><trkpt lat="42.146510247188004" lon="12.308335926825"><ele>233.0</ele><time>2026-05-01T09:09:19.001Z</time></trkpt><trkpt lat="42.14672720799435" lon="12.308341111074604"><ele>232.0</ele><time>2026-05-01T09:09:20.001Z</time></trkpt><trkpt lat="42.14693222808573" lon="12.308340005665823"><ele>231.0</ele><time>2026-05-01T09:09:21.001Z</time></trkpt><trkpt lat="42.147122500915536" lon="12.308343001194313"><ele>231.0</ele><time>2026-05-01T09:09:22.001Z</time></trkpt><trkpt lat="42.1472945770692" lon="12.308349639346496"><ele>231.0</ele><time>2026-05-01T09:09:23.001Z</time></trkpt><trkpt lat="42.14745013197318" lon="12.308360979188567"><ele>231.0</ele><time>2026-05-01T09:09:24.001Z</time></trkpt><trkpt lat="42.14759609193804" lon="12.30838321698367"><ele>230.66666666666669</ele><time>2026-05-01T09:09:25.001Z</time></trkpt><trkpt lat="42.14774436853205" lon="12.30844905181848"><ele>230.33333333333334</ele><time>2026-05-01T09:09:26.001Z</time></trkpt><trkpt lat="42.14790061582445" lon="12.30855153513029"><ele>230.0</ele><time>2026-05-01T09:09:27.001Z</time></trkpt><trkpt lat="42.1480610908106" lon="12.30870095420172"><ele>228.66666666666669</ele><time>2026-05-01T09:09:28.001Z</time></trkpt><trkpt lat="42.148210900212135" lon="12.308832752629696"><ele>227.33333333333331</ele><time>2026-05-01T09:09:29.001Z</time></trkpt><trkpt lat="42.14835780577726" lon="12.308981488847856"><ele>226.0</ele><time>2026-05-01T09:09:30.001Z</time></trkpt><trkpt lat="42.14849034492166" lon="12.309134012241737"><ele>225.33333333333331</ele><time>2026-05-01T09:09:31.001Z</time></trkpt><trkpt lat="42.148599854332666" lon="12.309310318333017"><ele>224.66666666666669</ele><time>2026-05-01T09:09:32.001Z</time></trkpt><trkpt lat="42.14871740346171" lon="12.309481313803527"><ele>224.0</ele><time>2026-05-01T09:09:33.001Z</time></trkpt><trkpt lat="42.14884481884738" lon="12.309625701825901"><ele>224.0</ele><time>2026-05-01T09:09:34.001Z</time></trkpt><trkpt lat="42.14899492709473" lon="12.309742849810911"><ele>224.0</ele><time>2026-05-01T09:09:35.001Z</time></trkpt><trkpt lat="42.14916786655267" lon="12.309842362895708"><ele>224.0</ele><time>2026-05-01T09:09:36.001Z</time></trkpt><trkpt lat="42.14935879178684" lon="12.309933528074765"><ele>224.0</ele><time>2026-05-01T09:09:37.001Z</time></trkpt><trkpt lat="42.14955754379776" lon="12.310023029031496"><ele>224.0</ele><time>2026-05-01T09:09:38.001Z</time></trkpt><trkpt lat="42.14973530186487" lon="12.310099136525436"><ele>224.0</ele><time>2026-05-01T09:09:39.001Z</time></trkpt><trkpt lat="42.149896485616104" lon="12.31017143307945"><ele>223.0</ele><time>2026-05-01T09:09:40.001Z</time></trkpt><trkpt lat="42.15006526896722" lon="12.310252133952066"><ele>222.0</ele><time>2026-05-01T09:09:41.001Z</time></trkpt><trkpt lat="42.15023657638921" lon="12.310329689081732"><ele>221.0</ele><time>2026-05-01T09:09:42.001Z</time></trkpt><trkpt lat="42.15041877690066" lon="12.310421634120901"><ele>221.0</ele><time>2026-05-01T09:09:43.001Z</time></trkpt><trkpt lat="42.1505878195029" lon="12.310484276580658"><ele>221.0</ele><time>2026-05-01T09:09:44.001Z</time></trkpt><trkpt lat="42.150728477630366" lon="12.310556060288466"><ele>221.0</ele><time>2026-05-01T09:09:45.001Z</time></trkpt><trkpt lat="42.15084839202739" lon="12.310655945537558"><ele>221.0</ele><time>2026-05-01T09:09:46.001Z</time></trkpt><trkpt lat="42.15093730487566" lon="12.310825826796025"><ele>221.0</ele><time>2026-05-01T09:09:47.001Z</time></trkpt><trkpt lat="42.151039093179875" lon="12.311015103004056"><ele>221.0</ele><time>2026-05-01T09:09:48.001Z</time></trkpt><trkpt lat="42.151128990952145" lon="12.311211834070619"><ele>221.0</ele><time>2026-05-01T09:09:49.001Z</time></trkpt><trkpt lat="42.1512007575829" lon="12.311409448594084"><ele>221.0</ele><time>2026-05-01T09:09:50.001Z</time></trkpt><trkpt lat="42.15123227778771" lon="12.311598033892155"><ele>221.0</ele><time>2026-05-01T09:09:51.001Z</time></trkpt><trkpt lat="42.15122571045264" lon="12.311806325046282"><ele>221.0</ele><time>2026-05-01T09:09:52.001Z</time></trkpt><trkpt lat="42.151189927289636" lon="12.312035168413612"><ele>221.0</ele><time>2026-05-01T09:09:53.001Z</time></trkpt><trkpt lat="42.151136669201414" lon="12.312272501712775"><ele>221.0</ele><time>2026-05-01T09:09:54.001Z</time></trkpt><trkpt lat="42.151068293051004" lon="12.312536673597121"><ele>220.0</ele><time>2026-05-01T09:09:55.001Z</time></trkpt><trkpt lat="42.15100119754176" lon="12.312814528785053"><ele>219.0</ele><time>2026-05-01T09:09:56.001Z</time></trkpt><trkpt lat="42.15093077534165" lon="12.313114372115772"><ele>218.5</ele><time>2026-05-01T09:09:57.001Z</time></trkpt><trkpt lat="42.15085474198937" lon="12.31341907577774"><ele>218.0</ele><time>2026-05-01T09:09:58.001Z</time></trkpt><trkpt lat="42.1507869467428" lon="12.313729106427349"><ele>217.5</ele><time>2026-05-01T09:09:59.001Z</time></trkpt><trkpt lat="42.15072744769133" lon="12.314043998613034"><ele>217.0</ele><time>2026-05-01T09:10:00.001Z</time></trkpt><trkpt lat="42.15065615306906" lon="12.31435824893986"><ele>218.33333333333331</ele><time>2026-05-01T09:10:01.002Z</time></trkpt><trkpt lat="42.15056089378974" lon="12.314643452558858"><ele>219.66666666666669</ele><time>2026-05-01T09:10:02.002Z</time></trkpt><trkpt lat="42.15049528550563" lon="12.314911011630137"><ele>221.0</ele><time>2026-05-01T09:10:03.002Z</time></trkpt><trkpt lat="42.150420342406214" lon="12.315171104248863"><ele>221.0</ele><time>2026-05-01T09:10:04.002Z</time></trkpt><trkpt lat="42.15033182425215" lon="12.315436338121827"><ele>221.0</ele><time>2026-05-01T09:10:05.002Z</time></trkpt><trkpt lat="42.15023154427619" lon="12.315720049909363"><ele>221.0</ele><time>2026-05-01T09:10:06.002Z</time></trkpt><trkpt lat="42.1501260914046" lon="12.316011465263355"><ele>218.5</ele><time>2026-05-01T09:10:07.002Z</time></trkpt><trkpt lat="42.15001859228281" lon="12.316308535310066"><ele>216.0</ele><time>2026-05-01T09:10:08.002Z</time></trkpt><trkpt lat="42.149909172459026" lon="12.31661398954931"><ele>214.0</ele><time>2026-05-01T09:10:09.002Z</time></trkpt><trkpt lat="42.14980664020626" lon="12.31690316052962"><ele>212.0</ele><time>2026-05-01T09:10:10.002Z</time></trkpt><trkpt lat="42.14970471496543" lon="12.317189591890795"><ele>211.5</ele><time>2026-05-01T09:10:11.002Z</time></trkpt><trkpt lat="42.14960339272314" lon="12.317470570961444"><ele>211.0</ele><time>2026-05-01T09:10:12.002Z</time></trkpt><trkpt lat="42.14950037856249" lon="12.317756241925482"><ele>211.0</ele><time>2026-05-01T09:10:13.002Z</time></trkpt><trkpt lat="42.149396905264595" lon="12.318044293628631"><ele>211.0</ele><time>2026-05-01T09:10:14.002Z</time></trkpt><trkpt lat="42.1492929446723" lon="12.318335182614264"><ele>211.0</ele><time>2026-05-01T09:10:15.002Z</time></trkpt><trkpt lat="42.149188682713685" lon="12.318626914836647"><ele>211.0</ele><time>2026-05-01T09:10:16.002Z</time></trkpt><trkpt lat="42.149083557641084" lon="12.318919750976196"><ele>214.5</ele><time>2026-05-01T09:10:17.002Z</time></trkpt><trkpt lat="42.14897659979937" lon="12.319217438897228"><ele>218.0</ele><time>2026-05-01T09:10:18.002Z</time></trkpt><trkpt lat="42.14886772280999" lon="12.319520468264574"><ele>217.0</ele><time>2026-05-01T09:10:19.002Z</time></trkpt><trkpt lat="42.1487618684222" lon="12.319815085038785"><ele>216.0</ele><time>2026-05-01T09:10:20.002Z</time></trkpt><trkpt lat="42.14865543375093" lon="12.320108636181759"><ele>216.0</ele><time>2026-05-01T09:10:21.002Z</time></trkpt><trkpt lat="42.148545981372614" lon="12.32040736889136"><ele>216.0</ele><time>2026-05-01T09:10:22.002Z</time></trkpt><trkpt lat="42.14844086111839" lon="12.32070135540717"><ele>213.0</ele><time>2026-05-01T09:10:23.002Z</time></trkpt><trkpt lat="42.14833476065365" lon="12.320985819292092"><ele>210.0</ele><time>2026-05-01T09:10:24.002Z</time></trkpt><trkpt lat="42.1482310897415" lon="12.32126421291132"><ele>209.66666666666669</ele><time>2026-05-01T09:10:25Z</time></trkpt><trkpt lat="42.14814095397925" lon="12.321522729930715"><ele>209.33333333333334</ele><time>2026-05-01T09:10:26Z</time></trkpt><trkpt lat="42.14805811723263" lon="12.321760312786786"><ele>209.0</ele><time>2026-05-01T09:10:27Z</time></trkpt><trkpt lat="42.14797334024044" lon="12.321993033937442"><ele>209.0</ele><time>2026-05-01T09:10:28Z</time></trkpt><trkpt lat="42.147875563256854" lon="12.322206804833732"><ele>209.0</ele><time>2026-05-01T09:10:29Z</time></trkpt><trkpt lat="42.14775174276353" lon="12.322411046189155"><ele>209.0</ele><time>2026-05-01T09:10:30Z</time></trkpt><trkpt lat="42.14761802985601" lon="12.322614903575774"><ele>208.66666666666669</ele><time>2026-05-01T09:10:31Z</time></trkpt><trkpt lat="42.14748422547843" lon="12.322826705124543"><ele>208.33333333333331</ele><time>2026-05-01T09:10:32Z</time></trkpt><trkpt lat="42.14736797740126" lon="12.323045900875771"><ele>208.0</ele><time>2026-05-01T09:10:33Z</time></trkpt><trkpt lat="42.14725509082638" lon="12.323232154389249"><ele>207.33333333333331</ele><time>2026-05-01T09:10:34Z</time></trkpt><trkpt lat="42.147158830813055" lon="12.323412554701166"><ele>206.66666666666669</ele><time>2026-05-01T09:10:35Z</time></trkpt><trkpt lat="42.14710416715883" lon="12.323597626950956"><ele>206.0</ele><time>2026-05-01T09:10:36Z</time></trkpt><trkpt lat="42.14708049334413" lon="12.323810600153278"><ele>206.66666666666669</ele><time>2026-05-01T09:10:37Z</time></trkpt><trkpt lat="42.147099509091184" lon="12.324050864110449"><ele>207.33333333333331</ele><time>2026-05-01T09:10:38Z</time></trkpt><trkpt lat="42.14712290590863" lon="12.324301856914612"><ele>208.0</ele><time>2026-05-01T09:10:39Z</time></trkpt><trkpt lat="42.14712009870524" lon="12.32455078563502"><ele>208.0</ele><time>2026-05-01T09:10:40Z</time></trkpt><trkpt lat="42.14713340100153" lon="12.324798307120108"><ele>208.0</ele><time>2026-05-01T09:10:41Z</time></trkpt><trkpt lat="42.14714508688604" lon="12.325032322176883"><ele>208.0</ele><time>2026-05-01T09:10:42Z</time></trkpt><trkpt lat="42.14715501112508" lon="12.325234293837516"><ele>208.0</ele><time>2026-05-01T09:10:43Z</time></trkpt><trkpt lat="42.147163493003696" lon="12.325406911516499"><ele>208.0</ele><time>2026-05-01T09:10:44Z</time></trkpt><trkpt lat="42.147171803903845" lon="12.325576049579862"><ele>208.0</ele><time>2026-05-01T09:10:45Z</time></trkpt><trkpt lat="42.14718000321096" lon="12.325742916568066"><ele>208.0</ele><time>2026-05-01T09:10:46Z</time></trkpt><trkpt lat="42.147204862356894" lon="12.325914051660133"><ele>207.25</ele><time>2026-05-01T09:10:47Z</time></trkpt><trkpt lat="42.147213687129806" lon="12.326092879714807"><ele>206.5</ele><time>2026-05-01T09:10:48Z</time></trkpt><trkpt lat="42.14723030448098" lon="12.32627728325434"><ele>205.75</ele><time>2026-05-01T09:10:49Z</time></trkpt><trkpt lat="42.14725649133267" lon="12.326452052487017"><ele>205.0</ele><time>2026-05-01T09:10:50Z</time></trkpt><trkpt lat="42.14728638292008" lon="12.326620256129095"><ele>205.0</ele><time>2026-05-01T09:10:51Z</time></trkpt><trkpt lat="42.147314035520985" lon="12.326764288025023"><ele>205.0</ele><time>2026-05-01T09:10:52Z</time></trkpt><trkpt lat="42.14756463689681" lon="12.326831706070605"><ele>205.0</ele><time>2026-05-01T09:10:53Z</time></trkpt><trkpt lat="42.147713072083405" lon="12.326930371879023"><ele>205.0</ele><time>2026-05-01T09:10:54Z</time></trkpt><trkpt lat="42.1478680915354" lon="12.327025516728206"><ele>205.0</ele><time>2026-05-01T09:10:55.001Z</time></trkpt><trkpt lat="42.148031662811604" lon="12.32712586375358"><ele>205.0</ele><time>2026-05-01T09:10:56.001Z</time></trkpt><trkpt lat="42.14819696420038" lon="12.32723477372785"><ele>205.66666666666666</ele><time>2026-05-01T09:10:57.001Z</time></trkpt><trkpt lat="42.14836577933613" lon="12.327350208389829"><ele>206.33333333333331</ele><time>2026-05-01T09:10:58.001Z</time></trkpt><trkpt lat="42.14854117670642" lon="12.327466003335388"><ele>207.0</ele><time>2026-05-01T09:10:59.001Z</time></trkpt><trkpt lat="42.1487242714697" lon="12.32758330757795"><ele>207.0</ele><time>2026-05-01T09:11:00.001Z</time></trkpt><trkpt lat="42.148905708839074" lon="12.32770347170879"><ele>207.0</ele><time>2026-05-01T09:11:01.001Z</time></trkpt><trkpt lat="42.14909277522927" lon="12.327824190021063"><ele>207.0</ele><time>2026-05-01T09:11:02.001Z</time></trkpt><trkpt lat="42.149277634467644" lon="12.327952010367968"><ele>205.66666666666669</ele><time>2026-05-01T09:11:03.001Z</time></trkpt><trkpt lat="42.14946109591355" lon="12.328075273011503"><ele>204.33333333333334</ele><time>2026-05-01T09:11:04.001Z</time></trkpt><trkpt lat="42.149650606500515" lon="12.328204896170126"><ele>203.0</ele><time>2026-05-01T09:11:05.001Z</time></trkpt><trkpt lat="42.14984722438434" lon="12.328338540867614"><ele>204.0</ele><time>2026-05-01T09:11:06.001Z</time></trkpt><trkpt lat="42.150053079558575" lon="12.328477438944187"><ele>205.0</ele><time>2026-05-01T09:11:07.001Z</time></trkpt><trkpt lat="42.15026730648816" lon="12.32862276671655"><ele>205.0</ele><time>2026-05-01T09:11:08.001Z</time></trkpt><trkpt lat="42.150482743774255" lon="12.328769573338459"><ele>205.0</ele><time>2026-05-01T09:11:09.001Z</time></trkpt><trkpt lat="42.15070164539689" lon="12.328918465544048"><ele>205.0</ele><time>2026-05-01T09:11:10.001Z</time></trkpt><trkpt lat="42.1509181051764" lon="12.329066235089593"><ele>205.0</ele><time>2026-05-01T09:11:11.001Z</time></trkpt><trkpt lat="42.15113519083302" lon="12.329213248073497"><ele>205.0</ele><time>2026-05-01T09:11:12.001Z</time></trkpt><trkpt lat="42.151354557722314" lon="12.329353338943326"><ele>205.0</ele><time>2026-05-01T09:11:13.001Z</time></trkpt><trkpt lat="42.15157558385831" lon="12.329496346401799"><ele>205.5</ele><time>2026-05-01T09:11:14.001Z</time></trkpt><trkpt lat="42.15180008704492" lon="12.32964670543436"><ele>206.0</ele><time>2026-05-01T09:11:15.001Z</time></trkpt><trkpt lat="42.15202739971579" lon="12.32980082414859"><ele>205.5</ele><time>2026-05-01T09:11:16.001Z</time></trkpt><trkpt lat="42.15225868785956" lon="12.329959037327292"><ele>205.0</ele><time>2026-05-01T09:11:17.001Z</time></trkpt><trkpt lat="42.152488611487314" lon="12.33011608072396"><ele>205.0</ele><time>2026-05-01T09:11:18.001Z</time></trkpt><trkpt lat="42.152720557261105" lon="12.330271816199696"><ele>205.0</ele><time>2026-05-01T09:11:19.001Z</time></trkpt><trkpt lat="42.15295166170813" lon="12.330422515931216"><ele>205.0</ele><time>2026-05-01T09:11:20.001Z</time></trkpt><trkpt lat="42.15318171195112" lon="12.330573470889327"><ele>205.0</ele><time>2026-05-01T09:11:21.001Z</time></trkpt><trkpt lat="42.15341220032379" lon="12.330727345372775"><ele>205.0</ele><time>2026-05-01T09:11:22.001Z</time></trkpt><trkpt lat="42.15364307370603" lon="12.330878053730812"><ele>205.0</ele><time>2026-05-01T09:11:23.001Z</time></trkpt><trkpt lat="42.15386944150729" lon="12.331031565755532"><ele>206.5</ele><time>2026-05-01T09:11:24.001Z</time></trkpt><trkpt lat="42.154094721625924" lon="12.33118775394202"><ele>208.0</ele><time>2026-05-01T09:11:25.001Z</time></trkpt><trkpt lat="42.154311852981756" lon="12.331330678700615"><ele>208.0</ele><time>2026-05-01T09:11:26.001Z</time></trkpt><trkpt lat="42.154513294535874" lon="12.33146845605479"><ele>208.0</ele><time>2026-05-01T09:11:27.001Z</time></trkpt><trkpt lat="42.15472665877578" lon="12.331613440908198"><ele>209.33333333333331</ele><time>2026-05-01T09:11:28.001Z</time></trkpt><trkpt lat="42.15492677395303" lon="12.33174898937855"><ele>210.66666666666669</ele><time>2026-05-01T09:11:29.001Z</time></trkpt><trkpt lat="42.155122278769156" lon="12.331875899751651"><ele>212.0</ele><time>2026-05-01T09:11:30.001Z</time></trkpt><trkpt lat="42.15530968271389" lon="12.331991477845909"><ele>212.0</ele><time>2026-05-01T09:11:31.001Z</time></trkpt><trkpt lat="42.15548664351076" lon="12.332080440723141"><ele>212.0</ele><time>2026-05-01T09:11:32.001Z</time></trkpt><trkpt lat="42.15566915810206" lon="12.3321581794846"><ele>212.0</ele><time>2026-05-01T09:11:33.001Z</time></trkpt><trkpt lat="42.15585361579616" lon="12.332211200570393"><ele>212.33333333333334</ele><time>2026-05-01T09:11:34.001Z</time></trkpt><trkpt lat="42.156043278155" lon="12.332264941874065"><ele>212.66666666666669</ele><time>2026-05-01T09:11:35.001Z</time></trkpt><trkpt lat="42.156234393809086" lon="12.332320061156295"><ele>213.0</ele><time>2026-05-01T09:11:36.001Z</time></trkpt><trkpt lat="42.15641492128532" lon="12.332367403912935"><ele>213.0</ele><time>2026-05-01T09:11:37.001Z</time></trkpt><trkpt lat="42.15658126640789" lon="12.33240952420089"><ele>213.0</ele><time>2026-05-01T09:11:38.001Z</time></trkpt><trkpt lat="42.156734150574444" lon="12.33245799338157"><ele>213.0</ele><time>2026-05-01T09:11:39.001Z</time></trkpt><trkpt lat="42.15688358852456" lon="12.332504432566"><ele>213.0</ele><time>2026-05-01T09:11:40.001Z</time></trkpt><trkpt lat="42.1570315581454" lon="12.332544840025623"><ele>213.0</ele><time>2026-05-01T09:11:41.001Z</time></trkpt><trkpt lat="42.15717515478242" lon="12.332602367148814"><ele>213.0</ele><time>2026-05-01T09:11:42.001Z</time></trkpt><trkpt lat="42.15730281117688" lon="12.332697381888876"><ele>213.0</ele><time>2026-05-01T09:11:43.001Z</time></trkpt><trkpt lat="42.15742994868025" lon="12.332824539018997"><ele>213.0</ele><time>2026-05-01T09:11:44.001Z</time></trkpt><trkpt lat="42.15755463258819" lon="12.332983629155002"><ele>213.0</ele><time>2026-05-01T09:11:45.001Z</time></trkpt><trkpt lat="42.15768064581784" lon="12.333157738859075"><ele>213.0</ele><time>2026-05-01T09:11:46.001Z</time></trkpt><trkpt lat="42.157806166690285" lon="12.333346752393021"><ele>213.0</ele><time>2026-05-01T09:11:47.001Z</time></trkpt><trkpt lat="42.157937355108814" lon="12.333543780680357"><ele>213.0</ele><time>2026-05-01T09:11:48.001Z</time></trkpt><trkpt lat="42.15808693118616" lon="12.333748234664691"><ele>213.0</ele><time>2026-05-01T09:11:49.001Z</time></trkpt><trkpt lat="42.15821158183253" lon="12.333960323514418"><ele>212.33333333333331</ele><time>2026-05-01T09:11:50.001Z</time></trkpt><trkpt lat="42.15835457058764" lon="12.334167582850526"><ele>211.66666666666666</ele><time>2026-05-01T09:11:51.001Z</time></trkpt><trkpt lat="42.158498233804835" lon="12.334375154712081"><ele>211.0</ele><time>2026-05-01T09:11:52.001Z</time></trkpt><trkpt lat="42.15864217871276" lon="12.334583815844953"><ele>210.66666666666666</ele><time>2026-05-01T09:11:53.001Z</time></trkpt><trkpt lat="42.15878403681266" lon="12.334789452131064"><ele>210.33333333333331</ele><time>2026-05-01T09:11:54.001Z</time></trkpt><trkpt lat="42.15891965162844" lon="12.334986424598648"><ele>210.0</ele><time>2026-05-01T09:11:55.001Z</time></trkpt><trkpt lat="42.159048855307695" lon="12.335175132324348"><ele>210.0</ele><time>2026-05-01T09:11:56.001Z</time></trkpt><trkpt lat="42.15917271279528" lon="12.335353578750933"><ele>210.0</ele><time>2026-05-01T09:11:57.001Z</time></trkpt><trkpt lat="42.1592842521549" lon="12.335526776766505"><ele>210.0</ele><time>2026-05-01T09:11:58.001Z</time></trkpt><trkpt lat="42.15936614047024" lon="12.335711607130886"><ele>209.66666666666669</ele><time>2026-05-01T09:11:59.001Z</time></trkpt><trkpt lat="42.15942152458186" lon="12.33591474487849"><ele>209.33333333333334</ele><time>2026-05-01T09:12:00.001Z</time></trkpt><trkpt lat="42.1594545534384" lon="12.336127186429804"><ele>209.0</ele><time>2026-05-01T09:12:01.001Z</time></trkpt><trkpt lat="42.15945158456018" lon="12.33634766148409"><ele>209.33333333333334</ele><time>2026-05-01T09:12:02.001Z</time></trkpt><trkpt lat="42.15941979250164" lon="12.33657346707525"><ele>209.66666666666669</ele><time>2026-05-01T09:12:03.001Z</time></trkpt><trkpt lat="42.159374372031586" lon="12.336811625458534"><ele>210.0</ele><time>2026-05-01T09:12:04.001Z</time></trkpt><trkpt lat="42.1593396435613" lon="12.33706757520548"><ele>211.0</ele><time>2026-05-01T09:12:05.002Z</time></trkpt><trkpt lat="42.15929285088488" lon="12.337312591447493"><ele>212.0</ele><time>2026-05-01T09:12:06.002Z</time></trkpt><trkpt lat="42.15923355945579" lon="12.337534568148612"><ele>213.0</ele><time>2026-05-01T09:12:07.002Z</time></trkpt><trkpt lat="42.15919610978689" lon="12.337748154105064"><ele>213.0</ele><time>2026-05-01T09:12:08.002Z</time></trkpt><trkpt lat="42.15917831129928" lon="12.337958575309708"><ele>213.0</ele><time>2026-05-01T09:12:09.002Z</time></trkpt><trkpt lat="42.159195427016606" lon="12.33816566740219"><ele>213.0</ele><time>2026-05-01T09:12:10.002Z</time></trkpt><trkpt lat="42.15924651465704" lon="12.338354360322215"><ele>213.0</ele><time>2026-05-01T09:12:11.002Z</time></trkpt><trkpt lat="42.159317116152806" lon="12.338509928160065"><ele>213.0</ele><time>2026-05-01T09:12:12.002Z</time></trkpt><trkpt lat="42.15940863663645" lon="12.338632178808929"><ele>213.0</ele><time>2026-05-01T09:12:13.002Z</time></trkpt><trkpt lat="42.15949084632821" lon="12.338772806750884"><ele>213.0</ele><time>2026-05-01T09:12:14.002Z</time></trkpt><trkpt lat="42.15957597188238" lon="12.338923816522586"><ele>212.33333333333331</ele><time>2026-05-01T09:12:15.002Z</time></trkpt><trkpt lat="42.159663783558116" lon="12.33908739522516"><ele>211.66666666666666</ele><time>2026-05-01T09:12:16.002Z</time></trkpt><trkpt lat="42.159758053059726" lon="12.339260989898516"><ele>211.0</ele><time>2026-05-01T09:12:17.002Z</time></trkpt><trkpt lat="42.15985182759845" lon="12.33941469659721"><ele>211.25</ele><time>2026-05-01T09:12:18.002Z</time></trkpt><trkpt lat="42.15993761667656" lon="12.33956264698764"><ele>211.5</ele><time>2026-05-01T09:12:19.002Z</time></trkpt><trkpt lat="42.160004700454145" lon="12.339727014517234"><ele>211.75</ele><time>2026-05-01T09:12:20.002Z</time></trkpt><trkpt lat="42.16008844143863" lon="12.33988738599711"><ele>212.0</ele><time>2026-05-01T09:12:21.002Z</time></trkpt><trkpt lat="42.16017554315655" lon="12.340054193534638"><ele>212.0</ele><time>2026-05-01T09:12:22.002Z</time></trkpt><trkpt lat="42.16027041981833" lon="12.340235890840175"><ele>212.0</ele><time>2026-05-01T09:12:23.002Z</time></trkpt><trkpt lat="42.16036719875375" lon="12.340433952383135"><ele>212.0</ele><time>2026-05-01T09:12:24.002Z</time></trkpt><trkpt lat="42.16046693113019" lon="12.340641469319737"><ele>212.0</ele><time>2026-05-01T09:12:25.002Z</time></trkpt><trkpt lat="42.16056789959189" lon="12.340851535438011"><ele>212.0</ele><time>2026-05-01T09:12:26.002Z</time></trkpt><trkpt lat="42.16066998524809" lon="12.341063925809824"><ele>212.0</ele><time>2026-05-01T09:12:27.002Z</time></trkpt><trkpt lat="42.160769833647045" lon="12.341271661600713"><ele>209.66666666666669</ele><time>2026-05-01T09:12:28.002Z</time></trkpt><trkpt lat="42.1608704227873" lon="12.34148093856385"><ele>207.33333333333331</ele><time>2026-05-01T09:12:29.002Z</time></trkpt><trkpt lat="42.16097370487372" lon="12.34168644780273"><ele>205.0</ele><time>2026-05-01T09:12:30.002Z</time></trkpt><trkpt lat="42.16109419272222" lon="12.341882629570176"><ele>205.0</ele><time>2026-05-01T09:12:31Z</time></trkpt><trkpt lat="42.16123767699546" lon="12.342058492905778"><ele>205.0</ele><time>2026-05-01T09:12:32Z</time></trkpt><trkpt lat="42.16138093123274" lon="12.342266492362972"><ele>205.0</ele><time>2026-05-01T09:12:33Z</time></trkpt><trkpt lat="42.16153414095174" lon="12.342465798263705"><ele>204.0</ele><time>2026-05-01T09:12:34Z</time></trkpt><trkpt lat="42.161703341650146" lon="12.342655044890353"><ele>203.0</ele><time>2026-05-01T09:12:35Z</time></trkpt><trkpt lat="42.16186026714146" lon="12.342858727308746"><ele>202.0</ele><time>2026-05-01T09:12:36Z</time></trkpt><trkpt lat="42.16202058188689" lon="12.343073207397872"><ele>202.0</ele><time>2026-05-01T09:12:37Z</time></trkpt><trkpt lat="42.1621766699515" lon="12.343283632265763"><ele>202.0</ele><time>2026-05-01T09:12:38Z</time></trkpt><trkpt lat="42.162321539404815" lon="12.343489674405907"><ele>202.0</ele><time>2026-05-01T09:12:39Z</time></trkpt><trkpt lat="42.162462018554926" lon="12.343701136764142"><ele>201.33333333333331</ele><time>2026-05-01T09:12:40Z</time></trkpt><trkpt lat="42.16260702650782" lon="12.343914788586227"><ele>200.66666666666669</ele><time>2026-05-01T09:12:41Z</time></trkpt><trkpt lat="42.162740687475804" lon="12.344118566352204"><ele>200.0</ele><time>2026-05-01T09:12:42Z</time></trkpt><trkpt lat="42.16285697334319" lon="12.34430785648797"><ele>200.0</ele><time>2026-05-01T09:12:43Z</time></trkpt><trkpt lat="42.16298030122719" lon="12.344481353182637"><ele>200.0</ele><time>2026-05-01T09:12:44Z</time></trkpt><trkpt lat="42.16311309043912" lon="12.3446370293209"><ele>200.0</ele><time>2026-05-01T09:12:45Z</time></trkpt><trkpt lat="42.16325697537955" lon="12.34477394128209"><ele>199.66666666666669</ele><time>2026-05-01T09:12:46Z</time></trkpt><trkpt lat="42.16340008579829" lon="12.344913047952598"><ele>199.33333333333331</ele><time>2026-05-01T09:12:47Z</time></trkpt><trkpt lat="42.16352387498016" lon="12.345069975848462"><ele>199.0</ele><time>2026-05-01T09:12:48Z</time></trkpt><trkpt lat="42.16361989154123" lon="12.3452488276015"><ele>199.0</ele><time>2026-05-01T09:12:49Z</time></trkpt><trkpt lat="42.163723389687895" lon="12.345444766465034"><ele>199.0</ele><time>2026-05-01T09:12:50Z</time></trkpt><trkpt lat="42.16381735183755" lon="12.34565153421117"><ele>199.0</ele><time>2026-05-01T09:12:51Z</time></trkpt><trkpt lat="42.16389520800074" lon="12.34587547895621"><ele>198.66666666666666</ele><time>2026-05-01T09:12:52Z</time></trkpt><trkpt lat="42.16396969343185" lon="12.3461166065639"><ele>198.33333333333331</ele><time>2026-05-01T09:12:53Z</time></trkpt><trkpt lat="42.164049243398296" lon="12.346348073913196"><ele>198.0</ele><time>2026-05-01T09:12:54Z</time></trkpt><trkpt lat="42.16413278066555" lon="12.346561038046573"><ele>198.66666666666669</ele><time>2026-05-01T09:12:55Z</time></trkpt><trkpt lat="42.164231913444944" lon="12.346754632130258"><ele>199.33333333333334</ele><time>2026-05-01T09:12:56Z</time></trkpt><trkpt lat="42.16435791306627" lon="12.34694274375614"><ele>200.0</ele><time>2026-05-01T09:12:57Z</time></trkpt><trkpt lat="42.164496835095015" lon="12.347125460714413"><ele>199.0</ele><time>2026-05-01T09:12:58Z</time></trkpt><trkpt lat="42.16464235310705" lon="12.347309768616253"><ele>198.0</ele><time>2026-05-01T09:12:59Z</time></trkpt><trkpt lat="42.1647918206896" lon="12.347503366312036"><ele>197.0</ele><time>2026-05-01T09:13:00Z</time></trkpt><trkpt lat="42.16493204930349" lon="12.347697298041195"><ele>197.0</ele><time>2026-05-01T09:13:01Z</time></trkpt><trkpt lat="42.16507518736417" lon="12.347852599436914"><ele>197.0</ele><time>2026-05-01T09:13:02Z</time></trkpt><trkpt lat="42.16523469381008" lon="12.347987114506038"><ele>197.0</ele><time>2026-05-01T09:13:03Z</time></trkpt><trkpt lat="42.165402000812826" lon="12.348103345226999"><ele>197.0</ele><time>2026-05-01T09:13:04Z</time></trkpt><trkpt lat="42.16557558055891" lon="12.348228887916093"><ele>197.0</ele><time>2026-05-01T09:13:05.001Z</time></trkpt><trkpt lat="42.16575612434922" lon="12.34835945270996"><ele>197.0</ele><time>2026-05-01T09:13:06.001Z</time></trkpt><trkpt lat="42.165941181819264" lon="12.348490339652999"><ele>196.66666666666669</ele><time>2026-05-01T09:13:07.001Z</time></trkpt><trkpt lat="42.166123963676306" lon="12.34862149888303"><ele>196.33333333333331</ele><time>2026-05-01T09:13:08.001Z</time></trkpt><trkpt lat="42.16629902248221" lon="12.348748189126416"><ele>196.0</ele><time>2026-05-01T09:13:09.001Z</time></trkpt><trkpt lat="42.166472770404475" lon="12.348877744907066"><ele>194.66666666666666</ele><time>2026-05-01T09:13:10.001Z</time></trkpt><trkpt lat="42.1666389363843" lon="12.349003853671991"><ele>193.33333333333331</ele><time>2026-05-01T09:13:11.001Z</time></trkpt><trkpt lat="42.16678752508544" lon="12.34910964617071"><ele>192.0</ele><time>2026-05-01T09:13:12.001Z</time></trkpt><trkpt lat="42.16692579690213" lon="12.349212291722944"><ele>192.0</ele><time>2026-05-01T09:13:13.001Z</time></trkpt><trkpt lat="42.16704280504629" lon="12.349321057970085"><ele>192.0</ele><time>2026-05-01T09:13:14.001Z</time></trkpt><trkpt lat="42.16713937882623" lon="12.349447033157055"><ele>192.0</ele><time>2026-05-01T09:13:15.001Z</time></trkpt><trkpt lat="42.16722998266664" lon="12.349595594678474"><ele>192.0</ele><time>2026-05-01T09:13:16.001Z</time></trkpt><trkpt lat="42.167318212351695" lon="12.349772199054454"><ele>192.0</ele><time>2026-05-01T09:13:17.001Z</time></trkpt><trkpt lat="42.16740912776722" lon="12.349966958836346"><ele>192.0</ele><time>2026-05-01T09:13:18.001Z</time></trkpt><trkpt lat="42.167507298529515" lon="12.350179439571955"><ele>192.0</ele><time>2026-05-01T09:13:19.001Z</time></trkpt><trkpt lat="42.167613616648765" lon="12.350407221863357"><ele>192.0</ele><time>2026-05-01T09:13:20.001Z</time></trkpt><trkpt lat="42.1677336272088" lon="12.350649789553099"><ele>192.0</ele><time>2026-05-01T09:13:21.001Z</time></trkpt><trkpt lat="42.16784526240078" lon="12.35092432957566"><ele>192.0</ele><time>2026-05-01T09:13:22.001Z</time></trkpt><trkpt lat="42.16796821633655" lon="12.35118851601699"><ele>192.5</ele><time>2026-05-01T09:13:23.001Z</time></trkpt><trkpt lat="42.16809527637624" lon="12.351461525052816"><ele>193.0</ele><time>2026-05-01T09:13:24.001Z</time></trkpt><trkpt lat="42.16822318893407" lon="12.351734655902039"><ele>193.33333333333331</ele><time>2026-05-01T09:13:25.001Z</time></trkpt><trkpt lat="42.16834318118283" lon="12.351990818560338"><ele>193.66666666666669</ele><time>2026-05-01T09:13:26.001Z</time></trkpt><trkpt lat="42.16846263472996" lon="12.352245831168908"><ele>194.0</ele><time>2026-05-01T09:13:27.001Z</time></trkpt><trkpt lat="42.16858480441659" lon="12.352507460142075"><ele>194.5</ele><time>2026-05-01T09:13:28.001Z</time></trkpt><trkpt lat="42.16870570552279" lon="12.352770286499197"><ele>195.0</ele><time>2026-05-01T09:13:29.001Z</time></trkpt><trkpt lat="42.16884050974899" lon="12.353063336782634"><ele>195.5</ele><time>2026-05-01T09:13:30.001Z</time></trkpt><trkpt lat="42.16896708810885" lon="12.353338504901352"><ele>196.0</ele><time>2026-05-01T09:13:31.001Z</time></trkpt><trkpt lat="42.169090830505105" lon="12.353606892298666"><ele>195.33333333333331</ele><time>2026-05-01T09:13:32.001Z</time></trkpt><trkpt lat="42.169206559933386" lon="12.353856490341622"><ele>194.66666666666669</ele><time>2026-05-01T09:13:33.001Z</time></trkpt><trkpt lat="42.16931630807169" lon="12.354091792433584"><ele>194.0</ele><time>2026-05-01T09:13:34.001Z</time></trkpt><trkpt lat="42.16941989039294" lon="12.354313557256226"><ele>194.0</ele><time>2026-05-01T09:13:35.001Z</time></trkpt><trkpt lat="42.16951763852534" lon="12.354524800393692"><ele>194.0</ele><time>2026-05-01T09:13:36.001Z</time></trkpt><trkpt lat="42.169600815053975" lon="12.354708857560333"><ele>194.0</ele><time>2026-05-01T09:13:37.001Z</time></trkpt><trkpt lat="42.1696758820665" lon="12.354865431669248"><ele>194.25</ele><time>2026-05-01T09:13:38.001Z</time></trkpt><trkpt lat="42.16975927586637" lon="12.355010063472632"><ele>194.5</ele><time>2026-05-01T09:13:39.001Z</time></trkpt><trkpt lat="42.169873595568134" lon="12.35511563164167"><ele>194.75</ele><time>2026-05-01T09:13:40.001Z</time></trkpt><trkpt lat="42.170005787619" lon="12.355141317724708"><ele>195.0</ele><time>2026-05-01T09:13:41.001Z</time></trkpt><trkpt lat="42.17014466679451" lon="12.355137622073515"><ele>194.0</ele><time>2026-05-01T09:13:42.001Z</time></trkpt><trkpt lat="42.17029791511074" lon="12.355099559359555"><ele>193.0</ele><time>2026-05-01T09:13:43.001Z</time></trkpt><trkpt lat="42.1704574860733" lon="12.355086032682685"><ele>192.0</ele><time>2026-05-01T09:13:44.001Z</time></trkpt><trkpt lat="42.17061208247253" lon="12.355138569612459"><ele>192.66666666666669</ele><time>2026-05-01T09:13:45.001Z</time></trkpt><trkpt lat="42.17076734936597" lon="12.355197329925565"><ele>193.33333333333334</ele><time>2026-05-01T09:13:46.001Z</time></trkpt><trkpt lat="42.17092689329543" lon="12.355294095921586"><ele>194.0</ele><time>2026-05-01T09:13:47.001Z</time></trkpt><trkpt lat="42.17108104249055" lon="12.355404836309157"><ele>194.0</ele><time>2026-05-01T09:13:48.001Z</time></trkpt><trkpt lat="42.17121348074259" lon="12.355514970251871"><ele>194.0</ele><time>2026-05-01T09:13:49.001Z</time></trkpt><trkpt lat="42.171341396793814" lon="12.355620904179096"><ele>194.0</ele><time>2026-05-01T09:13:50.001Z</time></trkpt><trkpt lat="42.171490807218724" lon="12.355744638695489"><ele>193.66666666666669</ele><time>2026-05-01T09:13:51.001Z</time></trkpt><trkpt lat="42.17165104032617" lon="12.355882086168396"><ele>193.33333333333331</ele><time>2026-05-01T09:13:52.001Z</time></trkpt><trkpt lat="42.17182473582729" lon="12.356033193209772"><ele>193.0</ele><time>2026-05-01T09:13:53.001Z</time></trkpt><trkpt lat="42.17201692256479" lon="12.356195225607246"><ele>193.0</ele><time>2026-05-01T09:13:54.001Z</time></trkpt><trkpt lat="42.17221569128996" lon="12.356363130181766"><ele>193.0</ele><time>2026-05-01T09:13:55.001Z</time></trkpt><trkpt lat="42.17241117925541" lon="12.356529260536439"><ele>192.5</ele><time>2026-05-01T09:13:56.001Z</time></trkpt><trkpt lat="42.17260659100591" lon="12.356694293280627"><ele>192.0</ele><time>2026-05-01T09:13:57.001Z</time></trkpt><trkpt lat="42.172807648888245" lon="12.356861548138927"><ele>192.0</ele><time>2026-05-01T09:13:58.001Z</time></trkpt><trkpt lat="42.1730072190536" lon="12.357004144378992"><ele>192.0</ele><time>2026-05-01T09:13:59.001Z</time></trkpt><trkpt lat="42.17318674567775" lon="12.357179590143287"><ele>192.0</ele><time>2026-05-01T09:14:00.001Z</time></trkpt><trkpt lat="42.173367266906006" lon="12.3573123135724"><ele>192.0</ele><time>2026-05-01T09:14:01.001Z</time></trkpt><trkpt lat="42.173544398101996" lon="12.357461738316129"><ele>192.0</ele><time>2026-05-01T09:14:02.001Z</time></trkpt><trkpt lat="42.173722605809374" lon="12.357611983719432"><ele>192.0</ele><time>2026-05-01T09:14:03.001Z</time></trkpt><trkpt lat="42.17390404036234" lon="12.35775925680912"><ele>193.0</ele><time>2026-05-01T09:14:04.001Z</time></trkpt><trkpt lat="42.17408042446502" lon="12.357911401305481"><ele>194.0</ele><time>2026-05-01T09:14:05.001Z</time></trkpt><trkpt lat="42.17425846448493" lon="12.358059843314416"><ele>195.0</ele><time>2026-05-01T09:14:06.001Z</time></trkpt><trkpt lat="42.174425208336864" lon="12.358223443083041"><ele>195.0</ele><time>2026-05-01T09:14:07.001Z</time></trkpt><trkpt lat="42.17460397284857" lon="12.358376286734337"><ele>195.0</ele><time>2026-05-01T09:14:08.001Z</time></trkpt><trkpt lat="42.17479584053109" lon="12.358514978344726"><ele>195.0</ele><time>2026-05-01T09:14:09.001Z</time></trkpt><trkpt lat="42.17497779271249" lon="12.358681732838097"><ele>195.0</ele><time>2026-05-01T09:14:10.001Z</time></trkpt><trkpt lat="42.175163796741195" lon="12.358845330971608"><ele>195.0</ele><time>2026-05-01T09:14:11.001Z</time></trkpt><trkpt lat="42.17535688820157" lon="12.359003043912264"><ele>195.0</ele><time>2026-05-01T09:14:12.001Z</time></trkpt><trkpt lat="42.175543510552934" lon="12.359164018528064"><ele>195.66666666666669</ele><time>2026-05-01T09:14:13.001Z</time></trkpt><trkpt lat="42.17572794638954" lon="12.359314350728946"><ele>196.33333333333334</ele><time>2026-05-01T09:14:14.001Z</time></trkpt><trkpt lat="42.17590940564122" lon="12.35946803612558"><ele>197.0</ele><time>2026-05-01T09:14:15.001Z</time></trkpt><trkpt lat="42.1760822968916" lon="12.35961432769563"><ele>197.0</ele><time>2026-05-01T09:14:16.001Z</time></trkpt><trkpt lat="42.17623770427898" lon="12.359745760007952"><ele>197.0</ele><time>2026-05-01T09:14:17.001Z</time></trkpt><trkpt lat="42.17636798581619" lon="12.3598672080633"><ele>197.0</ele><time>2026-05-01T09:14:18.001Z</time></trkpt><trkpt lat="42.176491741607514" lon="12.359969637589336"><ele>198.25</ele><time>2026-05-01T09:14:19.001Z</time></trkpt><trkpt lat="42.17661046539621" lon="12.36006601591275"><ele>199.5</ele><time>2026-05-01T09:14:20.002Z</time></trkpt><trkpt lat="42.17672247435855" lon="12.360161165641882"><ele>200.75</ele><time>2026-05-01T09:14:21.002Z</time></trkpt><trkpt lat="42.17683518954929" lon="12.360254300448737"><ele>202.0</ele><time>2026-05-01T09:14:22.002Z</time></trkpt><trkpt lat="42.176946011884574" lon="12.360349137252713"><ele>202.0</ele><time>2026-05-01T09:14:23.002Z</time></trkpt><trkpt lat="42.17705088193165" lon="12.360451157243316"><ele>202.0</ele><time>2026-05-01T09:14:24.002Z</time></trkpt><trkpt lat="42.177158683793614" lon="12.360553467044818"><ele>202.0</ele><time>2026-05-01T09:14:25.002Z</time></trkpt><trkpt lat="42.177259652490875" lon="12.360648051458963"><ele>202.0</ele><time>2026-05-01T09:14:26.002Z</time></trkpt><trkpt lat="42.17735835462373" lon="12.360759355065717"><ele>203.25</ele><time>2026-05-01T09:14:27.002Z</time></trkpt><trkpt lat="42.177456248184555" lon="12.360876222074236"><ele>204.5</ele><time>2026-05-01T09:14:28.002Z</time></trkpt><trkpt lat="42.17757228559102" lon="12.360969785693888"><ele>205.75</ele><time>2026-05-01T09:14:29.002Z</time></trkpt><trkpt lat="42.17768870723091" lon="12.361069710124633"><ele>207.0</ele><time>2026-05-01T09:14:30.002Z</time></trkpt><trkpt lat="42.17780756743953" lon="12.361171727564198"><ele>207.0</ele><time>2026-05-01T09:14:31.002Z</time></trkpt><trkpt lat="42.17793604387543" lon="12.361281763687249"><ele>207.0</ele><time>2026-05-01T09:14:32.002Z</time></trkpt><trkpt lat="42.178069766978226" lon="12.361390423412892"><ele>207.0</ele><time>2026-05-01T09:14:33.002Z</time></trkpt><trkpt lat="42.17816633160009" lon="12.361417661460015"><ele>207.0</ele><time>2026-05-01T09:14:34.002Z</time></trkpt><trkpt lat="42.178259084653035" lon="12.361496395576456"><ele>207.5</ele><time>2026-05-01T09:14:35.002Z</time></trkpt><trkpt lat="42.17835900824794" lon="12.361580160412323"><ele>208.0</ele><time>2026-05-01T09:14:36.002Z</time></trkpt><trkpt lat="42.17846208026662" lon="12.361659980029465"><ele>208.5</ele><time>2026-05-01T09:14:37Z</time></trkpt><trkpt lat="42.17856862724686" lon="12.361740624969407"><ele>209.0</ele><time>2026-05-01T09:14:38Z</time></trkpt><trkpt lat="42.17867626012667" lon="12.361827185437756"><ele>209.0</ele><time>2026-05-01T09:14:39Z</time></trkpt><trkpt lat="42.178781287282945" lon="12.361918922163618"><ele>209.0</ele><time>2026-05-01T09:14:40Z</time></trkpt><trkpt lat="42.17888568121645" lon="12.362003554853876"><ele>209.0</ele><time>2026-05-01T09:14:41Z</time></trkpt><trkpt lat="42.17898298731405" lon="12.362079227567413"><ele>209.0</ele><time>2026-05-01T09:14:42Z</time></trkpt><trkpt lat="42.179081996330964" lon="12.36214367480227"><ele>209.0</ele><time>2026-05-01T09:14:43Z</time></trkpt><trkpt lat="42.17919062732828" lon="12.362208827073392"><ele>209.0</ele><time>2026-05-01T09:14:44Z</time></trkpt><trkpt lat="42.17932277120934" lon="12.362281794214224"><ele>209.0</ele><time>2026-05-01T09:14:45Z</time></trkpt><trkpt lat="42.17945258722763" lon="12.362377189084592"><ele>209.0</ele><time>2026-05-01T09:14:46Z</time></trkpt><trkpt lat="42.179591845479415" lon="12.36244993813995"><ele>209.0</ele><time>2026-05-01T09:14:47Z</time></trkpt><trkpt lat="42.17972990010587" lon="12.362519725366624"><ele>209.0</ele><time>2026-05-01T09:14:48Z</time></trkpt><trkpt lat="42.179861333004936" lon="12.36258047990085"><ele>209.0</ele><time>2026-05-01T09:14:49Z</time></trkpt><trkpt lat="42.1799790509692" lon="12.362627597425249"><ele>209.0</ele><time>2026-05-01T09:14:50Z</time></trkpt><trkpt lat="42.180107145070714" lon="12.362660583764978"><ele>209.0</ele><time>2026-05-01T09:14:51Z</time></trkpt><trkpt lat="42.180235060401166" lon="12.362673442816996"><ele>209.0</ele><time>2026-05-01T09:14:52Z</time></trkpt><trkpt lat="42.180362482986" lon="12.362682464304173"><ele>209.0</ele><time>2026-05-01T09:14:53Z</time></trkpt><trkpt lat="42.18048563677047" lon="12.36269486085803"><ele>209.0</ele><time>2026-05-01T09:14:54Z</time></trkpt><trkpt lat="42.1806192008324" lon="12.362736398164785"><ele>208.0</ele><time>2026-05-01T09:14:55Z</time></trkpt><trkpt lat="42.180746936549426" lon="12.362815824123471"><ele>207.0</ele><time>2026-05-01T09:14:56Z</time></trkpt><trkpt lat="42.18087932513295" lon="12.362925021883465"><ele>206.0</ele><time>2026-05-01T09:14:57Z</time></trkpt><trkpt lat="42.181019723254074" lon="12.36304756209026"><ele>206.0</ele><time>2026-05-01T09:14:58Z</time></trkpt><trkpt lat="42.181148498086706" lon="12.363162310348454"><ele>206.0</ele><time>2026-05-01T09:14:59Z</time></trkpt><trkpt lat="42.18127551003552" lon="12.363276159940536"><ele>206.0</ele><time>2026-05-01T09:15:00Z</time></trkpt><trkpt lat="42.18143770703841" lon="12.363398647562562"><ele>205.0</ele><time>2026-05-01T09:15:02Z</time></trkpt><trkpt lat="42.18155433098871" lon="12.363505518461485"><ele>204.0</ele><time>2026-05-01T09:15:03Z</time></trkpt><trkpt lat="42.181668885400455" lon="12.363613286994475"><ele>203.0</ele><time>2026-05-01T09:15:04Z</time></trkpt><trkpt lat="42.18179065902546" lon="12.363724690469075"><ele>202.0</ele><time>2026-05-01T09:15:05Z</time></trkpt><trkpt lat="42.18191878314991" lon="12.363836158898021"><ele>201.33333333333331</ele><time>2026-05-01T09:15:06Z</time></trkpt><trkpt lat="42.182049913858236" lon="12.363949053037969"><ele>200.66666666666669</ele><time>2026-05-01T09:15:07Z</time></trkpt><trkpt lat="42.18218264737991" lon="12.364065282543631"><ele>200.0</ele><time>2026-05-01T09:15:08Z</time></trkpt><trkpt lat="42.182308690001896" lon="12.364180062780365"><ele>199.75</ele><time>2026-05-01T09:15:09Z</time></trkpt><trkpt lat="42.18241985019274" lon="12.364285700040076"><ele>199.5</ele><time>2026-05-01T09:15:10Z</time></trkpt><trkpt lat="42.18252964060793" lon="12.364386225616705"><ele>199.25</ele><time>2026-05-01T09:15:11Z</time></trkpt><trkpt lat="42.18264421030808" lon="12.364488942348618"><ele>199.0</ele><time>2026-05-01T09:15:12Z</time></trkpt><trkpt lat="42.18276658009805" lon="12.364591893464553"><ele>198.75</ele><time>2026-05-01T09:15:13Z</time></trkpt><trkpt lat="42.18288991508815" lon="12.364697030491046"><ele>198.5</ele><time>2026-05-01T09:15:14Z</time></trkpt><trkpt lat="42.183010432597676" lon="12.364805068664602"><ele>198.25</ele><time>2026-05-01T09:15:15Z</time></trkpt><trkpt lat="42.18313636947058" lon="12.364918223722414"><ele>198.0</ele><time>2026-05-01T09:15:16Z</time></trkpt><trkpt lat="42.183253310157966" lon="12.365024022323677"><ele>197.5</ele><time>2026-05-01T09:15:17Z</time></trkpt><trkpt lat="42.183368132844755" lon="12.36513250773416"><ele>197.0</ele><time>2026-05-01T09:15:18Z</time></trkpt><trkpt lat="42.18348684829127" lon="12.36524178268347"><ele>196.5</ele><time>2026-05-01T09:15:19Z</time></trkpt><trkpt lat="42.1836088738516" lon="12.365348365483786"><ele>196.0</ele><time>2026-05-01T09:15:20Z</time></trkpt><trkpt lat="42.18372587518881" lon="12.365459127254992"><ele>196.0</ele><time>2026-05-01T09:15:21Z</time></trkpt><trkpt lat="42.18384119458062" lon="12.36556328607172"><ele>196.0</ele><time>2026-05-01T09:15:22Z</time></trkpt><trkpt lat="42.18395904933624" lon="12.365670641488123"><ele>196.0</ele><time>2026-05-01T09:15:23Z</time></trkpt><trkpt lat="42.18408146905192" lon="12.36576814754237"><ele>196.0</ele><time>2026-05-01T09:15:24Z</time></trkpt><trkpt lat="42.18420021504361" lon="12.365870002480266"><ele>195.66666666666666</ele><time>2026-05-01T09:15:25Z</time></trkpt><trkpt lat="42.18432493318929" lon="12.365967219780865"><ele>195.33333333333331</ele><time>2026-05-01T09:15:26.001Z</time></trkpt><trkpt lat="42.18446341631149" lon="12.366062472622488"><ele>195.0</ele><time>2026-05-01T09:15:27.001Z</time></trkpt><trkpt lat="42.18462489078182" lon="12.366148876974076"><ele>195.0</ele><time>2026-05-01T09:15:28.001Z</time></trkpt><trkpt lat="42.18480299981179" lon="12.366242062020104"><ele>195.0</ele><time>2026-05-01T09:15:29.001Z</time></trkpt><trkpt lat="42.184984863787584" lon="12.366362001214416"><ele>195.0</ele><time>2026-05-01T09:15:30.001Z</time></trkpt><trkpt lat="42.1851896138357" lon="12.36647182618282"><ele>194.33333333333331</ele><time>2026-05-01T09:15:31.001Z</time></trkpt><trkpt lat="42.18538743588353" lon="12.366556195860387"><ele>193.66666666666666</ele><time>2026-05-01T09:15:32.001Z</time></trkpt><trkpt lat="42.18555408450086" lon="12.36666651748308"><ele>193.0</ele><time>2026-05-01T09:15:33.001Z</time></trkpt><trkpt lat="42.1857233955079" lon="12.366752330579791"><ele>192.66666666666666</ele><time>2026-05-01T09:15:34.001Z</time></trkpt><trkpt lat="42.18590345620401" lon="12.366836851222745"><ele>192.33333333333331</ele><time>2026-05-01T09:15:35.001Z</time></trkpt><trkpt lat="42.18608655674181" lon="12.366906748076882"><ele>192.0</ele><time>2026-05-01T09:15:36.001Z</time></trkpt><trkpt lat="42.18627134887738" lon="12.366966698232238"><ele>192.0</ele><time>2026-05-01T09:15:37.001Z</time></trkpt><trkpt lat="42.186459887402044" lon="12.367032915317397"><ele>192.0</ele><time>2026-05-01T09:15:38.001Z</time></trkpt><trkpt lat="42.18663871131908" lon="12.367085323555562"><ele>192.0</ele><time>2026-05-01T09:15:39.001Z</time></trkpt><trkpt lat="42.186803080892034" lon="12.367141788299536"><ele>193.33333333333331</ele><time>2026-05-01T09:15:40.001Z</time></trkpt><trkpt lat="42.186949113768875" lon="12.367211639887145"><ele>194.66666666666666</ele><time>2026-05-01T09:15:41.001Z</time></trkpt><trkpt lat="42.187087185859376" lon="12.367295408396615"><ele>196.0</ele><time>2026-05-01T09:15:42.001Z</time></trkpt><trkpt lat="42.18722834873171" lon="12.367397770083398"><ele>194.66666666666666</ele><time>2026-05-01T09:15:43.001Z</time></trkpt><trkpt lat="42.187378125766266" lon="12.367510800129812"><ele>193.33333333333331</ele><time>2026-05-01T09:15:44.001Z</time></trkpt><trkpt lat="42.187533002620114" lon="12.367636272991426"><ele>192.0</ele><time>2026-05-01T09:15:45.001Z</time></trkpt><trkpt lat="42.187688449540794" lon="12.3677656957198"><ele>192.0</ele><time>2026-05-01T09:15:46.001Z</time></trkpt><trkpt lat="42.18783053514683" lon="12.367894354595638"><ele>192.0</ele><time>2026-05-01T09:15:47.001Z</time></trkpt><trkpt lat="42.1879859539472" lon="12.368025986691913"><ele>192.0</ele><time>2026-05-01T09:15:48.001Z</time></trkpt><trkpt lat="42.18814471882853" lon="12.368163306463728"><ele>191.33333333333334</ele><time>2026-05-01T09:15:49.001Z</time></trkpt><trkpt lat="42.188303037292926" lon="12.368302118179464"><ele>190.66666666666669</ele><time>2026-05-01T09:15:50.001Z</time></trkpt><trkpt lat="42.188463921423754" lon="12.368415847378362"><ele>190.0</ele><time>2026-05-01T09:15:51.001Z</time></trkpt><trkpt lat="42.18861691539124" lon="12.368547112594378"><ele>190.0</ele><time>2026-05-01T09:15:52.001Z</time></trkpt><trkpt lat="42.18875134565779" lon="12.368674141715669"><ele>190.0</ele><time>2026-05-01T09:15:53.001Z</time></trkpt><trkpt lat="42.188863492231555" lon="12.368772909109452"><ele>190.0</ele><time>2026-05-01T09:15:54.001Z</time></trkpt><trkpt lat="42.18897848474032" lon="12.368867020131248"><ele>190.0</ele><time>2026-05-01T09:15:55.001Z</time></trkpt><trkpt lat="42.18907957587585" lon="12.36896371120194"><ele>188.25</ele><time>2026-05-01T09:15:56.001Z</time></trkpt><trkpt lat="42.18918841683332" lon="12.369060647471102"><ele>186.5</ele><time>2026-05-01T09:15:57.001Z</time></trkpt><trkpt lat="42.18928920414017" lon="12.369156135960761"><ele>184.75</ele><time>2026-05-01T09:15:58.001Z</time></trkpt><trkpt lat="42.18938753292553" lon="12.369270844631469"><ele>183.0</ele><time>2026-05-01T09:15:59.001Z</time></trkpt><trkpt lat="42.189460976015106" lon="12.36943273581153"><ele>183.0</ele><time>2026-05-01T09:16:00.001Z</time></trkpt><trkpt lat="42.18953339736732" lon="12.369615263204828"><ele>183.0</ele><time>2026-05-01T09:16:01.001Z</time></trkpt><trkpt lat="42.189622194634715" lon="12.369793593009371"><ele>183.0</ele><time>2026-05-01T09:16:02.001Z</time></trkpt><trkpt lat="42.18970912808379" lon="12.369998531045885"><ele>182.0</ele><time>2026-05-01T09:16:03.001Z</time></trkpt><trkpt lat="42.18979113486724" lon="12.370214866465167"><ele>181.0</ele><time>2026-05-01T09:16:04.001Z</time></trkpt><trkpt lat="42.18987758130745" lon="12.370421717229368"><ele>180.0</ele><time>2026-05-01T09:16:05.001Z</time></trkpt><trkpt lat="42.18996999704421" lon="12.370608025911437"><ele>179.33333333333334</ele><time>2026-05-01T09:16:06.001Z</time></trkpt><trkpt lat="42.190082522260234" lon="12.370749472780465"><ele>178.66666666666669</ele><time>2026-05-01T09:16:07.001Z</time></trkpt><trkpt lat="42.190198881722516" lon="12.3708682821135"><ele>178.0</ele><time>2026-05-01T09:16:08.001Z</time></trkpt><trkpt lat="42.1903342616756" lon="12.370971214264129"><ele>178.0</ele><time>2026-05-01T09:16:09.001Z</time></trkpt><trkpt lat="42.19046399994499" lon="12.371077878375262"><ele>178.0</ele><time>2026-05-01T09:16:10.001Z</time></trkpt><trkpt lat="42.1905815098749" lon="12.371206199371892"><ele>178.0</ele><time>2026-05-01T09:16:11.001Z</time></trkpt><trkpt lat="42.19067718346999" lon="12.371375060227901"><ele>177.66666666666669</ele><time>2026-05-01T09:16:12.001Z</time></trkpt><trkpt lat="42.19074687381543" lon="12.371566422672853"><ele>177.33333333333334</ele><time>2026-05-01T09:16:13.001Z</time></trkpt><trkpt lat="42.190804135190646" lon="12.371773443669374"><ele>177.0</ele><time>2026-05-01T09:16:14.001Z</time></trkpt><trkpt lat="42.190876301735145" lon="12.371970753414908"><ele>177.0</ele><time>2026-05-01T09:16:15.001Z</time></trkpt><trkpt lat="42.190973409780725" lon="12.372143426361458"><ele>177.0</ele><time>2026-05-01T09:16:16.001Z</time></trkpt><trkpt lat="42.19108970627788" lon="12.372294380755164"><ele>177.0</ele><time>2026-05-01T09:16:17.001Z</time></trkpt><trkpt lat="42.19121742336624" lon="12.372437345840254"><ele>176.0</ele><time>2026-05-01T09:16:18.001Z</time></trkpt><trkpt lat="42.191333613696685" lon="12.372583169623754"><ele>175.0</ele><time>2026-05-01T09:16:19.001Z</time></trkpt><trkpt lat="42.191446143592046" lon="12.372727688961433"><ele>174.0</ele><time>2026-05-01T09:16:20.001Z</time></trkpt><trkpt lat="42.19156180741595" lon="12.372864251034185"><ele>175.0</ele><time>2026-05-01T09:16:21.001Z</time></trkpt><trkpt lat="42.19166889143698" lon="12.372998363801909"><ele>176.0</ele><time>2026-05-01T09:16:22.001Z</time></trkpt><trkpt lat="42.191777814386995" lon="12.373131663538947"><ele>177.0</ele><time>2026-05-01T09:16:23.001Z</time></trkpt><trkpt lat="42.191882490503914" lon="12.37327204802604"><ele>178.0</ele><time>2026-05-01T09:16:24.001Z</time></trkpt><trkpt lat="42.19198121115693" lon="12.3734173955645"><ele>178.0</ele><time>2026-05-01T09:16:25.001Z</time></trkpt><trkpt lat="42.19206764255489" lon="12.373571010715047"><ele>178.0</ele><time>2026-05-01T09:16:26.001Z</time></trkpt><trkpt lat="42.19214764680542" lon="12.373730355700925"><ele>178.0</ele><time>2026-05-01T09:16:27.001Z</time></trkpt><trkpt lat="42.19221298755726" lon="12.373900307601374"><ele>178.0</ele><time>2026-05-01T09:16:28.001Z</time></trkpt><trkpt lat="42.19224097094876" lon="12.374085278902255"><ele>177.5</ele><time>2026-05-01T09:16:29.001Z</time></trkpt><trkpt lat="42.19226252938558" lon="12.374265005555392"><ele>177.0</ele><time>2026-05-01T09:16:30.001Z</time></trkpt><trkpt lat="42.19227856947192" lon="12.374448846736888"><ele>176.5</ele><time>2026-05-01T09:16:31.001Z</time></trkpt><trkpt lat="42.192298819910164" lon="12.374632559439462"><ele>176.0</ele><time>2026-05-01T09:16:32.001Z</time></trkpt><trkpt lat="42.19231400687033" lon="12.37482266042464"><ele>174.66666666666666</ele><time>2026-05-01T09:16:33.001Z</time></trkpt><trkpt lat="42.19232416274873" lon="12.375018856888666"><ele>173.33333333333334</ele><time>2026-05-01T09:16:34.001Z</time></trkpt><trkpt lat="42.192343262518385" lon="12.375224331336367"><ele>172.0</ele><time>2026-05-01T09:16:35.001Z</time></trkpt><trkpt lat="42.19236299234883" lon="12.375426765354074"><ele>175.33333333333334</ele><time>2026-05-01T09:16:36.001Z</time></trkpt><trkpt lat="42.19237813506444" lon="12.375636666655762"><ele>178.66666666666666</ele><time>2026-05-01T09:16:37.001Z</time></trkpt><trkpt lat="42.192392007311184" lon="12.375853973256264"><ele>182.0</ele><time>2026-05-01T09:16:38.002Z</time></trkpt><trkpt lat="42.192404915816034" lon="12.376074701160647"><ele>182.0</ele><time>2026-05-01T09:16:39.002Z</time></trkpt><trkpt lat="42.192427360435296" lon="12.376283699191994"><ele>182.0</ele><time>2026-05-01T09:16:40.002Z</time></trkpt><trkpt lat="42.19244307271482" lon="12.376495874993928"><ele>182.0</ele><time>2026-05-01T09:16:41.002Z</time></trkpt><trkpt lat="42.192459559587164" lon="12.376701189337071"><ele>180.66666666666666</ele><time>2026-05-01T09:16:42.002Z</time></trkpt><trkpt lat="42.192475307074425" lon="12.376906249498248"><ele>179.33333333333334</ele><time>2026-05-01T09:16:43Z</time></trkpt><trkpt lat="42.192496341402865" lon="12.377106791659587"><ele>178.0</ele><time>2026-05-01T09:16:44Z</time></trkpt><trkpt lat="42.19253003051446" lon="12.377304849458964"><ele>176.66666666666669</ele><time>2026-05-01T09:16:45Z</time></trkpt><trkpt lat="42.19257911506425" lon="12.377499604988609"><ele>175.33333333333334</ele><time>2026-05-01T09:16:46Z</time></trkpt><trkpt lat="42.1926383312729" lon="12.377686673532349"><ele>174.0</ele><time>2026-05-01T09:16:47Z</time></trkpt><trkpt lat="42.19271393371766" lon="12.377857685907342"><ele>174.0</ele><time>2026-05-01T09:16:48Z</time></trkpt><trkpt lat="42.19280434464666" lon="12.37800132073021"><ele>174.0</ele><time>2026-05-01T09:16:49Z</time></trkpt><trkpt lat="42.19291926587289" lon="12.378116500341399"><ele>174.0</ele><time>2026-05-01T09:16:50Z</time></trkpt><trkpt lat="42.193047961342614" lon="12.378224239060243"><ele>174.0</ele><time>2026-05-01T09:16:51Z</time></trkpt><trkpt lat="42.19318544862382" lon="12.378331340529149"><ele>176.66666666666666</ele><time>2026-05-01T09:16:52Z</time></trkpt><trkpt lat="42.1933127705944" lon="12.378460918933706"><ele>179.33333333333331</ele><time>2026-05-01T09:16:53Z</time></trkpt><trkpt lat="42.19345583542841" lon="12.378572154018789"><ele>182.0</ele><time>2026-05-01T09:16:54Z</time></trkpt><trkpt lat="42.193590043271676" lon="12.378695967870339"><ele>182.0</ele><time>2026-05-01T09:16:55Z</time></trkpt><trkpt lat="42.19372465221502" lon="12.378816836656139"><ele>182.0</ele><time>2026-05-01T09:16:56Z</time></trkpt><trkpt lat="42.193857085944906" lon="12.378942149094708"><ele>182.0</ele><time>2026-05-01T09:16:57Z</time></trkpt><trkpt lat="42.193989566119775" lon="12.379060872582283"><ele>184.66666666666666</ele><time>2026-05-01T09:16:58Z</time></trkpt><trkpt lat="42.1941196046752" lon="12.379182222374418"><ele>187.33333333333334</ele><time>2026-05-01T09:16:59Z</time></trkpt><trkpt lat="42.19423806313997" lon="12.379320122651457"><ele>190.0</ele><time>2026-05-01T09:17:00Z</time></trkpt><trkpt lat="42.194362829644305" lon="12.379439620480015"><ele>190.0</ele><time>2026-05-01T09:17:01Z</time></trkpt><trkpt lat="42.19448539166838" lon="12.3795503097524"><ele>190.0</ele><time>2026-05-01T09:17:02Z</time></trkpt><trkpt lat="42.19461092862376" lon="12.379629282994904"><ele>190.0</ele><time>2026-05-01T09:17:03Z</time></trkpt><trkpt lat="42.19471234546489" lon="12.379705134663588"><ele>190.0</ele><time>2026-05-01T09:17:04Z</time></trkpt><trkpt lat="42.19482347414181" lon="12.37975746437376"><ele>190.25</ele><time>2026-05-01T09:17:05Z</time></trkpt><trkpt lat="42.19494719804199" lon="12.379770853861478"><ele>190.5</ele><time>2026-05-01T09:17:06Z</time></trkpt><trkpt lat="42.19507948593945" lon="12.379762747413759"><ele>190.75</ele><time>2026-05-01T09:17:07Z</time></trkpt><trkpt lat="42.19522129620109" lon="12.379725969959267"><ele>191.0</ele><time>2026-05-01T09:17:08Z</time></trkpt><trkpt lat="42.19537157052935" lon="12.379680256901358"><ele>191.0</ele><time>2026-05-01T09:17:09Z</time></trkpt><trkpt lat="42.19553018273203" lon="12.379630611579595"><ele>191.0</ele><time>2026-05-01T09:17:10Z</time></trkpt><trkpt lat="42.19569431334035" lon="12.379575141356293"><ele>191.0</ele><time>2026-05-01T09:17:11Z</time></trkpt><trkpt lat="42.19585870007247" lon="12.379522233394855"><ele>191.66666666666666</ele><time>2026-05-01T09:17:12Z</time></trkpt><trkpt lat="42.19601957605662" lon="12.37947619575448"><ele>192.33333333333331</ele><time>2026-05-01T09:17:13Z</time></trkpt><trkpt lat="42.19617635273027" lon="12.379425651652163"><ele>193.0</ele><time>2026-05-01T09:17:14Z</time></trkpt><trkpt lat="42.196337833838946" lon="12.379367703664412"><ele>193.0</ele><time>2026-05-01T09:17:15Z</time></trkpt><trkpt lat="42.19649957661699" lon="12.379308871154095"><ele>193.0</ele><time>2026-05-01T09:17:16Z</time></trkpt><trkpt lat="42.19666417274037" lon="12.379257750626493"><ele>193.0</ele><time>2026-05-01T09:17:17Z</time></trkpt><trkpt lat="42.19682249346671" lon="12.379206258380927"><ele>194.0</ele><time>2026-05-01T09:17:18Z</time></trkpt><trkpt lat="42.19698793170717" lon="12.379140339292517"><ele>195.0</ele><time>2026-05-01T09:17:19Z</time></trkpt><trkpt lat="42.197156426073335" lon="12.37909014531074"><ele>196.0</ele><time>2026-05-01T09:17:20Z</time></trkpt><trkpt lat="42.197323087254674" lon="12.379032918414469"><ele>197.0</ele><time>2026-05-01T09:17:21Z</time></trkpt><trkpt lat="42.19749221360585" lon="12.378981737635183"><ele>198.0</ele><time>2026-05-01T09:17:22Z</time></trkpt><trkpt lat="42.19766334867858" lon="12.3789266760738"><ele>199.0</ele><time>2026-05-01T09:17:23Z</time></trkpt><trkpt lat="42.197830315516725" lon="12.378871055574306"><ele>200.0</ele><time>2026-05-01T09:17:24Z</time></trkpt><trkpt lat="42.197997972452455" lon="12.378810342851416"><ele>201.0</ele><time>2026-05-01T09:17:25Z</time></trkpt><trkpt lat="42.198154166444354" lon="12.37876127590032"><ele>202.0</ele><time>2026-05-01T09:17:26Z</time></trkpt><trkpt lat="42.19831789374012" lon="12.37870895211967"><ele>202.66666666666666</ele><time>2026-05-01T09:17:27Z</time></trkpt><trkpt lat="42.19847721501196" lon="12.378656670622856"><ele>203.33333333333331</ele><time>2026-05-01T09:17:28Z</time></trkpt><trkpt lat="42.198631784039144" lon="12.378614093554322"><ele>204.0</ele><time>2026-05-01T09:17:29Z</time></trkpt><trkpt lat="42.19877081518707" lon="12.378569536616826"><ele>204.0</ele><time>2026-05-01T09:17:30.001Z</time></trkpt><trkpt lat="42.198901130930196" lon="12.378535403105143"><ele>204.0</ele><time>2026-05-01T09:17:31.001Z</time></trkpt><trkpt lat="42.19902683278786" lon="12.378514215676306"><ele>204.0</ele><time>2026-05-01T09:17:32.001Z</time></trkpt><trkpt lat="42.19914047419058" lon="12.378510068432817"><ele>204.0</ele><time>2026-05-01T09:17:33.001Z</time></trkpt><trkpt lat="42.19923828986332" lon="12.378548641511728"><ele>204.0</ele><time>2026-05-01T09:17:34.001Z</time></trkpt><trkpt lat="42.199325977859594" lon="12.37863777827435"><ele>204.0</ele><time>2026-05-01T09:17:35.001Z</time></trkpt><trkpt lat="42.19942308464107" lon="12.378735805527127"><ele>204.0</ele><time>2026-05-01T09:17:36.001Z</time></trkpt><trkpt lat="42.19951701639714" lon="12.378870494734338"><ele>204.0</ele><time>2026-05-01T09:17:37.001Z</time></trkpt><trkpt lat="42.199592411484865" lon="12.37905418279662"><ele>204.0</ele><time>2026-05-01T09:17:38.001Z</time></trkpt><trkpt lat="42.199684412711335" lon="12.37923576226625"><ele>204.0</ele><time>2026-05-01T09:17:39.001Z</time></trkpt><trkpt lat="42.19977430956541" lon="12.379445740092743"><ele>204.0</ele><time>2026-05-01T09:17:40.001Z</time></trkpt><trkpt lat="42.19985980830418" lon="12.379657894131718"><ele>205.0</ele><time>2026-05-01T09:17:41.001Z</time></trkpt><trkpt lat="42.19994527809415" lon="12.379869976396009"><ele>206.0</ele><time>2026-05-01T09:17:42.001Z</time></trkpt><trkpt lat="42.20002902620682" lon="12.380078811197855"><ele>207.0</ele><time>2026-05-01T09:17:43.001Z</time></trkpt><trkpt lat="42.200110267565236" lon="12.380282447309918"><ele>207.0</ele><time>2026-05-01T09:17:44.001Z</time></trkpt><trkpt lat="42.20019245510552" lon="12.380488455096167"><ele>207.0</ele><time>2026-05-01T09:17:45.001Z</time></trkpt><trkpt lat="42.200274477602605" lon="12.380694049193023"><ele>207.0</ele><time>2026-05-01T09:17:46.001Z</time></trkpt><trkpt lat="42.200355494272905" lon="12.380896552250922"><ele>207.75</ele><time>2026-05-01T09:17:47.001Z</time></trkpt><trkpt lat="42.200430764067626" lon="12.381084530194274"><ele>208.5</ele><time>2026-05-01T09:17:48.001Z</time></trkpt><trkpt lat="42.20050141950487" lon="12.381260984458478"><ele>209.25</ele><time>2026-05-01T09:17:49.001Z</time></trkpt><trkpt lat="42.20056812168243" lon="12.38142756570516"><ele>210.0</ele><time>2026-05-01T09:17:50.001Z</time></trkpt><trkpt lat="42.20063150137974" lon="12.381585849580079"><ele>209.75</ele><time>2026-05-01T09:17:51.001Z</time></trkpt><trkpt lat="42.2006914357718" lon="12.381735796679981"><ele>209.5</ele><time>2026-05-01T09:17:52.001Z</time></trkpt><trkpt lat="42.20075215759719" lon="12.381887277703747"><ele>209.25</ele><time>2026-05-01T09:17:53.001Z</time></trkpt><trkpt lat="42.200814549235176" lon="12.382043092624375"><ele>209.0</ele><time>2026-05-01T09:17:54.001Z</time></trkpt><trkpt lat="42.20087772834999" lon="12.382200874154172"><ele>209.0</ele><time>2026-05-01T09:17:55.001Z</time></trkpt><trkpt lat="42.20094279616575" lon="12.382363372466878"><ele>209.0</ele><time>2026-05-01T09:17:56.001Z</time></trkpt><trkpt lat="42.20100543144141" lon="12.382523414240167"><ele>209.0</ele><time>2026-05-01T09:17:57.001Z</time></trkpt><trkpt lat="42.2010625353181" lon="12.382670891209065"><ele>209.0</ele><time>2026-05-01T09:17:58.001Z</time></trkpt><trkpt lat="42.20111127073152" lon="12.382796755724799"><ele>209.00000000000003</ele><time>2026-05-01T09:17:59.001Z</time></trkpt><trkpt lat="42.20116375922986" lon="12.382886622840097"><ele>209.0</ele><time>2026-05-01T09:18:00.001Z</time></trkpt><trkpt lat="42.201159291165645" lon="12.383012373897168"><ele>209.0</ele><time>2026-05-01T09:18:02.001Z</time></trkpt><trkpt lat="42.20104365446386" lon="12.383071331010886"><ele>209.0</ele><time>2026-05-01T09:18:05.001Z</time></trkpt><trkpt lat="42.20103261950563" lon="12.383124226350846"><ele>209.00000000000003</ele><time>2026-05-01T09:25:20.001Z</time></trkpt><trkpt lat="42.201093415119246" lon="12.383059392629391"><ele>209.0</ele><time>2026-05-01T09:26:35.002Z</time></trkpt><trkpt lat="42.20102936577034" lon="12.383053343545628"><ele>209.33333333333334</ele><time>2026-05-01T09:26:39.002Z</time></trkpt><trkpt lat="42.20105643803986" lon="12.38314552860912"><ele>209.66666666666669</ele><time>2026-05-01T09:26:53.002Z</time></trkpt><trkpt lat="42.20115974342234" lon="12.383265591185003"><ele>210.0</ele><time>2026-05-01T09:26:55.002Z</time></trkpt><trkpt lat="42.20119863736352" lon="12.383335203982522"><ele>210.33333333333331</ele><time>2026-05-01T09:26:56.002Z</time></trkpt><trkpt lat="42.20122472282453" lon="12.383418926637225"><ele>210.66666666666666</ele><time>2026-05-01T09:26:57.002Z</time></trkpt><trkpt lat="42.2012816840633" lon="12.383460613144585"><ele>211.0</ele><time>2026-05-01T09:26:58.002Z</time></trkpt><trkpt lat="42.20135994382896" lon="12.383556937679543"><ele>211.0</ele><time>2026-05-01T09:27:00.002Z</time></trkpt><trkpt lat="42.20140978754563" lon="12.38370350928318"><ele>211.0</ele><time>2026-05-01T09:27:02.002Z</time></trkpt><trkpt lat="42.2014310036978" lon="12.383812391012189"><ele>211.0</ele><time>2026-05-01T09:27:03.002Z</time></trkpt><trkpt lat="42.201461917641524" lon="12.383930816130448"><ele>211.0</ele><time>2026-05-01T09:27:04.002Z</time></trkpt><trkpt lat="42.20149784155322" lon="12.384067269121312"><ele>211.0</ele><time>2026-05-01T09:27:05.002Z</time></trkpt><trkpt lat="42.20153793705353" lon="12.384216446107503"><ele>211.5</ele><time>2026-05-01T09:27:06.002Z</time></trkpt><trkpt lat="42.20157876705793" lon="12.38438098769098"><ele>212.0</ele><time>2026-05-01T09:27:07.002Z</time></trkpt><trkpt lat="42.20161970213706" lon="12.384538986047872"><ele>212.5</ele><time>2026-05-01T09:27:08.002Z</time></trkpt><trkpt lat="42.201662434403566" lon="12.384712217707039"><ele>213.0</ele><time>2026-05-01T09:27:09.002Z</time></trkpt><trkpt lat="42.201708747629624" lon="12.384892655611711"><ele>214.0</ele><time>2026-05-01T09:27:10.002Z</time></trkpt><trkpt lat="42.20174950027061" lon="12.385079107817528"><ele>215.0</ele><time>2026-05-01T09:27:11.002Z</time></trkpt><trkpt lat="42.201797759549606" lon="12.385273689557849"><ele>216.0</ele><time>2026-05-01T09:27:12.002Z</time></trkpt><trkpt lat="42.20185142031312" lon="12.385478270362649"><ele>217.33333333333331</ele><time>2026-05-01T09:27:13.001Z</time></trkpt><trkpt lat="42.20191152348812" lon="12.385686922662098"><ele>218.66666666666666</ele><time>2026-05-01T09:27:14.001Z</time></trkpt><trkpt lat="42.20197611369073" lon="12.385896092748917"><ele>220.0</ele><time>2026-05-01T09:27:15.001Z</time></trkpt><trkpt lat="42.202045862713355" lon="12.386111879654282"><ele>220.0</ele><time>2026-05-01T09:27:16.001Z</time></trkpt><trkpt lat="42.202118543324765" lon="12.386320600323648"><ele>220.0</ele><time>2026-05-01T09:27:17.001Z</time></trkpt><trkpt lat="42.202194381571665" lon="12.386528548768855"><ele>220.0</ele><time>2026-05-01T09:27:18.001Z</time></trkpt><trkpt lat="42.20225139035706" lon="12.386737066188864"><ele>220.0</ele><time>2026-05-01T09:27:19.001Z</time></trkpt><trkpt lat="42.202325177467216" lon="12.38693475555365"><ele>220.0</ele><time>2026-05-01T09:27:20.001Z</time></trkpt><trkpt lat="42.20242012324491" lon="12.387113739138293"><ele>220.0</ele><time>2026-05-01T09:27:21.001Z</time></trkpt><trkpt lat="42.20250913607187" lon="12.387295863462075"><ele>221.33333333333331</ele><time>2026-05-01T09:27:22.001Z</time></trkpt><trkpt lat="42.20260899797651" lon="12.3874554318304"><ele>222.66666666666669</ele><time>2026-05-01T09:27:23.001Z</time></trkpt><trkpt lat="42.20272364388736" lon="12.387610226494168"><ele>224.0</ele><time>2026-05-01T09:27:24.001Z</time></trkpt><trkpt lat="42.20283957820066" lon="12.387770496884503"><ele>224.0</ele><time>2026-05-01T09:27:25.001Z</time></trkpt><trkpt lat="42.202944651258406" lon="12.387933751010507"><ele>224.0</ele><time>2026-05-01T09:27:26.001Z</time></trkpt><trkpt lat="42.20305126372585" lon="12.388105155845686"><ele>224.0</ele><time>2026-05-01T09:27:27.001Z</time></trkpt><trkpt lat="42.20315549281952" lon="12.388292766930489"><ele>226.0</ele><time>2026-05-01T09:27:28.001Z</time></trkpt><trkpt lat="42.20325597848293" lon="12.388481346810043"><ele>228.0</ele><time>2026-05-01T09:27:29.001Z</time></trkpt><trkpt lat="42.20335175012161" lon="12.388676483241788"><ele>230.0</ele><time>2026-05-01T09:27:30.001Z</time></trkpt><trkpt lat="42.203448685229915" lon="12.388863624576075"><ele>231.0</ele><time>2026-05-01T09:27:31.001Z</time></trkpt><trkpt lat="42.20354960332318" lon="12.389044999298939"><ele>232.0</ele><time>2026-05-01T09:27:32.001Z</time></trkpt><trkpt lat="42.203634036130225" lon="12.389224943207486"><ele>233.0</ele><time>2026-05-01T09:27:33.001Z</time></trkpt><trkpt lat="42.203749031975626" lon="12.389328480373045"><ele>233.0</ele><time>2026-05-01T09:27:34.001Z</time></trkpt><trkpt lat="42.20385858757124" lon="12.389459574191395"><ele>233.0</ele><time>2026-05-01T09:27:35.001Z</time></trkpt><trkpt lat="42.20395157625818" lon="12.389621894979518"><ele>233.0</ele><time>2026-05-01T09:27:36.001Z</time></trkpt><trkpt lat="42.204043807366695" lon="12.389787860177456"><ele>234.33333333333334</ele><time>2026-05-01T09:27:37.001Z</time></trkpt><trkpt lat="42.20413418262917" lon="12.389964691724376"><ele>235.66666666666669</ele><time>2026-05-01T09:27:38.001Z</time></trkpt><trkpt lat="42.204222287872945" lon="12.39014549359444"><ele>237.0</ele><time>2026-05-01T09:27:39.001Z</time></trkpt><trkpt lat="42.20430704686824" lon="12.390325928849508"><ele>237.0</ele><time>2026-05-01T09:27:40.001Z</time></trkpt><trkpt lat="42.20438009129317" lon="12.39050347288891"><ele>237.0</ele><time>2026-05-01T09:27:41.001Z</time></trkpt><trkpt lat="42.20444539263653" lon="12.390695324759228"><ele>237.0</ele><time>2026-05-01T09:27:42.001Z</time></trkpt><trkpt lat="42.20448233323423" lon="12.390905649406216"><ele>236.33333333333331</ele><time>2026-05-01T09:27:43.001Z</time></trkpt><trkpt lat="42.2045295851389" lon="12.391116855245738"><ele>235.66666666666666</ele><time>2026-05-01T09:27:44.001Z</time></trkpt><trkpt lat="42.20457569572668" lon="12.39133611918242"><ele>235.0</ele><time>2026-05-01T09:27:45.001Z</time></trkpt><trkpt lat="42.20461308875009" lon="12.39155802430662"><ele>233.0</ele><time>2026-05-01T09:27:46.001Z</time></trkpt><trkpt lat="42.204644787416925" lon="12.391786281908699"><ele>231.0</ele><time>2026-05-01T09:27:47.001Z</time></trkpt><trkpt lat="42.204686218897294" lon="12.392022142367292"><ele>229.0</ele><time>2026-05-01T09:27:48.001Z</time></trkpt><trkpt lat="42.20469014646745" lon="12.39226933464618"><ele>227.0</ele><time>2026-05-01T09:27:49.001Z</time></trkpt><trkpt lat="42.20470868585972" lon="12.392511372709633"><ele>225.0</ele><time>2026-05-01T09:27:50.001Z</time></trkpt><trkpt lat="42.20472592080081" lon="12.392747193611855"><ele>223.0</ele><time>2026-05-01T09:27:51.001Z</time></trkpt><trkpt lat="42.20474350783944" lon="12.392977248671706"><ele>222.5</ele><time>2026-05-01T09:27:52.001Z</time></trkpt><trkpt lat="42.204766007892026" lon="12.393178556558537"><ele>222.0</ele><time>2026-05-01T09:27:53.001Z</time></trkpt><trkpt lat="42.20481301355302" lon="12.393364048642425"><ele>221.5</ele><time>2026-05-01T09:27:54.001Z</time></trkpt><trkpt lat="42.20486360579707" lon="12.393540914868215"><ele>221.0</ele><time>2026-05-01T09:27:55.001Z</time></trkpt><trkpt lat="42.20493899660785" lon="12.393687082177596"><ele>222.5</ele><time>2026-05-01T09:27:56.001Z</time></trkpt><trkpt lat="42.205039260625675" lon="12.393818290783777"><ele>224.0</ele><time>2026-05-01T09:27:57.001Z</time></trkpt><trkpt lat="42.20515254694824" lon="12.393928497243449"><ele>225.5</ele><time>2026-05-01T09:27:58.001Z</time></trkpt><trkpt lat="42.205282353484186" lon="12.394001678353877"><ele>227.0</ele><time>2026-05-01T09:27:59.001Z</time></trkpt><trkpt lat="42.2055177945283" lon="12.394111565357735"><ele>227.0</ele><time>2026-05-01T09:28:01.001Z</time></trkpt><trkpt lat="42.20556161457642" lon="12.39425344652974"><ele>227.0</ele><time>2026-05-01T09:28:02.001Z</time></trkpt><trkpt lat="42.20559307776577" lon="12.394393820891755"><ele>227.0</ele><time>2026-05-01T09:28:03.001Z</time></trkpt><trkpt lat="42.20560795470546" lon="12.394549393235039"><ele>227.0</ele><time>2026-05-01T09:28:04.001Z</time></trkpt><trkpt lat="42.2056137349918" lon="12.394714283769503"><ele>227.0</ele><time>2026-05-01T09:28:05.001Z</time></trkpt><trkpt lat="42.20561326901583" lon="12.394903813755594"><ele>227.0</ele><time>2026-05-01T09:28:06.001Z</time></trkpt><trkpt lat="42.20560735936486" lon="12.395086208879585"><ele>227.0</ele><time>2026-05-01T09:28:07.001Z</time></trkpt><trkpt lat="42.205629294538156" lon="12.395320463520083"><ele>225.66666666666669</ele><time>2026-05-01T09:28:08.001Z</time></trkpt><trkpt lat="42.20562067040406" lon="12.39554313341935"><ele>224.33333333333331</ele><time>2026-05-01T09:28:09.001Z</time></trkpt><trkpt lat="42.205621689401426" lon="12.395768792932126"><ele>223.0</ele><time>2026-05-01T09:28:10.001Z</time></trkpt><trkpt lat="42.20558785293919" lon="12.39598554043142"><ele>223.0</ele><time>2026-05-01T09:28:11.001Z</time></trkpt><trkpt lat="42.20549580308263" lon="12.39615345502947"><ele>223.0</ele><time>2026-05-01T09:28:12.001Z</time></trkpt><trkpt lat="42.20546202502474" lon="12.396335337050457"><ele>223.0</ele><time>2026-05-01T09:28:13.001Z</time></trkpt><trkpt lat="42.205455437356505" lon="12.396556109588017"><ele>221.0</ele><time>2026-05-01T09:28:14.001Z</time></trkpt><trkpt lat="42.205490674993" lon="12.39671626288078"><ele>219.0</ele><time>2026-05-01T09:28:15.001Z</time></trkpt><trkpt lat="42.20552222979288" lon="12.396894776266631"><ele>217.0</ele><time>2026-05-01T09:28:16.001Z</time></trkpt><trkpt lat="42.2055565517116" lon="12.397053204265276"><ele>215.0</ele><time>2026-05-01T09:28:17.001Z</time></trkpt><trkpt lat="42.205584217001075" lon="12.397199690225715"><ele>214.8</ele><time>2026-05-01T09:28:18.001Z</time></trkpt><trkpt lat="42.20560540711348" lon="12.397315060482676"><ele>214.6</ele><time>2026-05-01T09:28:19.001Z</time></trkpt><trkpt lat="42.20560735645131" lon="12.39740875764537"><ele>214.39999999999998</ele><time>2026-05-01T09:28:20.001Z</time></trkpt><trkpt lat="42.20561368836698" lon="12.397546650858066"><ele>214.2</ele><time>2026-05-01T09:28:22.001Z</time></trkpt><trkpt lat="42.205742693855754" lon="12.397552750662774"><ele>214.0</ele><time>2026-05-01T09:28:23.001Z</time></trkpt><trkpt lat="42.20582271487149" lon="12.39758129005112"><ele>214.6</ele><time>2026-05-01T09:28:24.001Z</time></trkpt><trkpt lat="42.205916165237646" lon="12.397617930281514"><ele>215.2</ele><time>2026-05-01T09:28:25.001Z</time></trkpt><trkpt lat="42.2060353891458" lon="12.39767832034228"><ele>215.79999999999998</ele><time>2026-05-01T09:28:26.001Z</time></trkpt><trkpt lat="42.20613179076596" lon="12.397726895289823"><ele>216.39999999999998</ele><time>2026-05-01T09:28:27.001Z</time></trkpt><trkpt lat="42.20623830052573" lon="12.397775622926428"><ele>217.0</ele><time>2026-05-01T09:28:28.001Z</time></trkpt><trkpt lat="42.20635642768993" lon="12.397829665541506"><ele>217.0</ele><time>2026-05-01T09:28:29.001Z</time></trkpt><trkpt lat="42.206477953882434" lon="12.397886079245966"><ele>217.0</ele><time>2026-05-01T09:28:30.001Z</time></trkpt><trkpt lat="42.20661595006835" lon="12.397917999363347"><ele>217.0</ele><time>2026-05-01T09:28:31.001Z</time></trkpt><trkpt lat="42.20674965978649" lon="12.39797997588954"><ele>217.0</ele><time>2026-05-01T09:28:32.001Z</time></trkpt><trkpt lat="42.20688851873853" lon="12.398048729765923"><ele>215.0</ele><time>2026-05-01T09:28:33.001Z</time></trkpt><trkpt lat="42.207038121826805" lon="12.398117272366967"><ele>213.0</ele><time>2026-05-01T09:28:34.001Z</time></trkpt><trkpt lat="42.207187525033916" lon="12.398186502553354"><ele>211.0</ele><time>2026-05-01T09:28:35.001Z</time></trkpt><trkpt lat="42.20733840095122" lon="12.398255141839247"><ele>208.66666666666666</ele><time>2026-05-01T09:28:36.001Z</time></trkpt><trkpt lat="42.20748638169623" lon="12.398350007173248"><ele>206.33333333333331</ele><time>2026-05-01T09:28:37.001Z</time></trkpt><trkpt lat="42.207642502581244" lon="12.39842408899975"><ele>204.0</ele><time>2026-05-01T09:28:38.002Z</time></trkpt><trkpt lat="42.20780413197868" lon="12.39849905130688"><ele>204.0</ele><time>2026-05-01T09:28:39.002Z</time></trkpt><trkpt lat="42.2079697084534" lon="12.398573508762173"><ele>204.0</ele><time>2026-05-01T09:28:40.002Z</time></trkpt><trkpt lat="42.20814125459558" lon="12.398628325468367"><ele>204.0</ele><time>2026-05-01T09:28:41.002Z</time></trkpt><trkpt lat="42.208301896496124" lon="12.398702874091326"><ele>204.33333333333331</ele><time>2026-05-01T09:28:42.002Z</time></trkpt><trkpt lat="42.20847070259205" lon="12.398781678617347"><ele>204.66666666666666</ele><time>2026-05-01T09:28:43.002Z</time></trkpt><trkpt lat="42.208638617516726" lon="12.398860383796217"><ele>205.0</ele><time>2026-05-01T09:28:44.002Z</time></trkpt><trkpt lat="42.20880650254731" lon="12.398937765243355"><ele>205.0</ele><time>2026-05-01T09:28:45.002Z</time></trkpt><trkpt lat="42.20896826249438" lon="12.399021158388233"><ele>205.0</ele><time>2026-05-01T09:28:46.002Z</time></trkpt><trkpt lat="42.20912776655659" lon="12.399091899582839"><ele>205.0</ele><time>2026-05-01T09:28:47.002Z</time></trkpt><trkpt lat="42.209278829081356" lon="12.399163365894248"><ele>204.0</ele><time>2026-05-01T09:28:48.002Z</time></trkpt><trkpt lat="42.20942415476548" lon="12.399225111062837"><ele>203.0</ele><time>2026-05-01T09:28:49.002Z</time></trkpt><trkpt lat="42.20955734269213" lon="12.39929145285347"><ele>202.0</ele><time>2026-05-01T09:28:50.002Z</time></trkpt><trkpt lat="42.20968565094352" lon="12.39935950059859"><ele>201.0</ele><time>2026-05-01T09:28:51.002Z</time></trkpt><trkpt lat="42.20981014464294" lon="12.39945323100411"><ele>200.5</ele><time>2026-05-01T09:28:52.002Z</time></trkpt><trkpt lat="42.20991255610687" lon="12.399562138678686"><ele>200.0</ele><time>2026-05-01T09:28:53.002Z</time></trkpt><trkpt lat="42.20997729189282" lon="12.399717259499514"><ele>199.5</ele><time>2026-05-01T09:28:54.002Z</time></trkpt><trkpt lat="42.21003892112632" lon="12.399880983184246"><ele>199.0</ele><time>2026-05-01T09:28:55.002Z</time></trkpt><trkpt lat="42.21010056826988" lon="12.400057568932466"><ele>198.33333333333331</ele><time>2026-05-01T09:28:56.002Z</time></trkpt><trkpt lat="42.21013950162624" lon="12.400253775997397"><ele>197.66666666666669</ele><time>2026-05-01T09:28:57.002Z</time></trkpt><trkpt lat="42.210186838529594" lon="12.400450426783177"><ele>197.0</ele><time>2026-05-01T09:28:58.002Z</time></trkpt><trkpt lat="42.210234913357965" lon="12.400651440845593"><ele>195.0</ele><time>2026-05-01T09:28:59.002Z</time></trkpt><trkpt lat="42.210285363969824" lon="12.400859921307319"><ele>193.0</ele><time>2026-05-01T09:29:00.002Z</time></trkpt><trkpt lat="42.21033722629934" lon="12.401073482926702"><ele>191.0</ele><time>2026-05-01T09:29:01.002Z</time></trkpt><trkpt lat="42.210390655388785" lon="12.401293496111144"><ele>190.66666666666666</ele><time>2026-05-01T09:29:02.002Z</time></trkpt><trkpt lat="42.21044539130602" lon="12.40151889068536"><ele>190.33333333333334</ele><time>2026-05-01T09:29:03.002Z</time></trkpt><trkpt lat="42.21050080223711" lon="12.40174926502295"><ele>190.0</ele><time>2026-05-01T09:29:04.002Z</time></trkpt><trkpt lat="42.21055809987232" lon="12.401979538598258"><ele>191.0</ele><time>2026-05-01T09:29:05.002Z</time></trkpt><trkpt lat="42.21061966676006" lon="12.402212230324936"><ele>192.0</ele><time>2026-05-01T09:29:06.002Z</time></trkpt><trkpt lat="42.21068147784452" lon="12.402441434335845"><ele>193.0</ele><time>2026-05-01T09:29:07.002Z</time></trkpt><trkpt lat="42.21074382581067" lon="12.402671557315125"><ele>193.0</ele><time>2026-05-01T09:29:08.002Z</time></trkpt><trkpt lat="42.21080690775052" lon="12.402904389335506"><ele>193.0</ele><time>2026-05-01T09:29:09.002Z</time></trkpt><trkpt lat="42.210868636294606" lon="12.403137024079694"><ele>193.0</ele><time>2026-05-01T09:29:10.002Z</time></trkpt><trkpt lat="42.210926889048174" lon="12.40337324990984"><ele>188.66666666666666</ele><time>2026-05-01T09:29:11.002Z</time></trkpt><trkpt lat="42.21097598578608" lon="12.40360837154398"><ele>184.33333333333331</ele><time>2026-05-01T09:29:12.002Z</time></trkpt><trkpt lat="42.21100672688348" lon="12.403848740860264"><ele>180.0</ele><time>2026-05-01T09:29:13.002Z</time></trkpt><trkpt lat="42.21102322893981" lon="12.40409186016317"><ele>180.0</ele><time>2026-05-01T09:29:14.002Z</time></trkpt><trkpt lat="42.211036281912854" lon="12.404341950706806"><ele>180.0</ele><time>2026-05-01T09:29:15.002Z</time></trkpt><trkpt lat="42.21104920745022" lon="12.404589598725867"><ele>180.0</ele><time>2026-05-01T09:29:16.002Z</time></trkpt><trkpt lat="42.21106028492879" lon="12.40483374332923"><ele>184.33333333333331</ele><time>2026-05-01T09:29:17.002Z</time></trkpt><trkpt lat="42.21109796724824" lon="12.40507420431875"><ele>188.66666666666666</ele><time>2026-05-01T09:29:18.002Z</time></trkpt><trkpt lat="42.21110874959044" lon="12.405308081609082"><ele>193.0</ele><time>2026-05-01T09:29:19Z</time></trkpt><trkpt lat="42.21112349012865" lon="12.405538815552706"><ele>195.25</ele><time>2026-05-01T09:29:20Z</time></trkpt><trkpt lat="42.21113274103106" lon="12.405758905060754"><ele>197.5</ele><time>2026-05-01T09:29:21Z</time></trkpt><trkpt lat="42.21110310398803" lon="12.405947058229964"><ele>199.75</ele><time>2026-05-01T09:29:22Z</time></trkpt><trkpt lat="42.211091212368686" lon="12.40611787784191"><ele>202.0</ele><time>2026-05-01T09:29:23Z</time></trkpt><trkpt lat="42.211063429712546" lon="12.406285246249606"><ele>202.5</ele><time>2026-05-01T09:29:24Z</time></trkpt><trkpt lat="42.21101076960362" lon="12.40645071845668"><ele>203.0</ele><time>2026-05-01T09:29:25Z</time></trkpt><trkpt lat="42.21094063834507" lon="12.406609261303746"><ele>203.5</ele><time>2026-05-01T09:29:26Z</time></trkpt><trkpt lat="42.21085136157454" lon="12.406751463816166"><ele>204.0</ele><time>2026-05-01T09:29:27Z</time></trkpt><trkpt lat="42.21073481184197" lon="12.406869134781342"><ele>204.33333333333331</ele><time>2026-05-01T09:29:28Z</time></trkpt><trkpt lat="42.2106052682265" lon="12.406980753518447"><ele>204.66666666666666</ele><time>2026-05-01T09:29:29Z</time></trkpt><trkpt lat="42.21045902536646" lon="12.407096420738402"><ele>205.0</ele><time>2026-05-01T09:29:30Z</time></trkpt><trkpt lat="42.210311134609064" lon="12.40723415018218"><ele>203.33333333333331</ele><time>2026-05-01T09:29:31Z</time></trkpt><trkpt lat="42.21014917414073" lon="12.40736627936406"><ele>201.66666666666669</ele><time>2026-05-01T09:29:32Z</time></trkpt><trkpt lat="42.2099883150636" lon="12.40750081602735"><ele>200.0</ele><time>2026-05-01T09:29:33Z</time></trkpt><trkpt lat="42.20981783040602" lon="12.40763856448838"><ele>197.33333333333334</ele><time>2026-05-01T09:29:34Z</time></trkpt><trkpt lat="42.20963470871533" lon="12.407762458437567"><ele>194.66666666666669</ele><time>2026-05-01T09:29:35Z</time></trkpt><trkpt lat="42.209459399743714" lon="12.407903842138378"><ele>192.0</ele><time>2026-05-01T09:29:36Z</time></trkpt><trkpt lat="42.209304983704996" lon="12.408051215414229"><ele>192.0</ele><time>2026-05-01T09:29:37Z</time></trkpt><trkpt lat="42.209141992004994" lon="12.408159976892042"><ele>192.0</ele><time>2026-05-01T09:29:38Z</time></trkpt><trkpt lat="42.20895293865839" lon="12.408312669467698"><ele>192.0</ele><time>2026-05-01T09:29:39Z</time></trkpt><trkpt lat="42.20878577421539" lon="12.408444606943462"><ele>184.0</ele><time>2026-05-01T09:29:40Z</time></trkpt><trkpt lat="42.20863052500405" lon="12.408565818458756"><ele>176.0</ele><time>2026-05-01T09:29:41Z</time></trkpt><trkpt lat="42.208491313482256" lon="12.408698709006668"><ele>168.0</ele><time>2026-05-01T09:29:42Z</time></trkpt><trkpt lat="42.208368031625994" lon="12.408794137890505"><ele>171.25</ele><time>2026-05-01T09:29:43Z</time></trkpt><trkpt lat="42.208266993534146" lon="12.408940591413193"><ele>174.5</ele><time>2026-05-01T09:29:44Z</time></trkpt><trkpt lat="42.208227986255935" lon="12.409125663464675"><ele>177.75</ele><time>2026-05-01T09:29:45Z</time></trkpt><trkpt lat="42.20821644912115" lon="12.409298145686002"><ele>181.0</ele><time>2026-05-01T09:29:46Z</time></trkpt><trkpt lat="42.20822427701633" lon="12.409474226423084"><ele>181.0</ele><time>2026-05-01T09:29:47Z</time></trkpt><trkpt lat="42.20827693134774" lon="12.409643337643743"><ele>181.0</ele><time>2026-05-01T09:29:48Z</time></trkpt><trkpt lat="42.20834193761649" lon="12.409819621132797"><ele>181.0</ele><time>2026-05-01T09:29:49Z</time></trkpt><trkpt lat="42.20842035007694" lon="12.410018524207286"><ele>181.0</ele><time>2026-05-01T09:29:50Z</time></trkpt><trkpt lat="42.208497510741644" lon="12.410209930919763"><ele>180.0</ele><time>2026-05-01T09:29:51Z</time></trkpt><trkpt lat="42.20858291542316" lon="12.410427510694966"><ele>179.0</ele><time>2026-05-01T09:29:52Z</time></trkpt><trkpt lat="42.208666285158884" lon="12.4106407752953"><ele>178.0</ele><time>2026-05-01T09:29:53Z</time></trkpt><trkpt lat="42.20875215353988" lon="12.410858761410305"><ele>176.66666666666669</ele><time>2026-05-01T09:29:54Z</time></trkpt><trkpt lat="42.208835295464624" lon="12.41106309314653"><ele>175.33333333333334</ele><time>2026-05-01T09:29:55Z</time></trkpt><trkpt lat="42.20893400303564" lon="12.411269723236947"><ele>174.0</ele><time>2026-05-01T09:29:56Z</time></trkpt><trkpt lat="42.20902924242053" lon="12.411433129261264"><ele>174.0</ele><time>2026-05-01T09:29:57.001Z</time></trkpt><trkpt lat="42.20910071849484" lon="12.411573840203856"><ele>174.0</ele><time>2026-05-01T09:29:58.001Z</time></trkpt><trkpt lat="42.20913764877334" lon="12.411679814554299"><ele>174.0</ele><time>2026-05-01T09:29:59.001Z</time></trkpt><trkpt lat="42.209153046747495" lon="12.411776756645574"><ele>174.0</ele><time>2026-05-01T09:30:00.001Z</time></trkpt><trkpt lat="42.20906110415014" lon="12.411828856350512"><ele>174.0</ele><time>2026-05-01T09:30:02.001Z</time></trkpt><trkpt lat="42.208950877480156" lon="12.411748183457325"><ele>172.0</ele><time>2026-05-01T09:30:03.001Z</time></trkpt><trkpt lat="42.20888814967033" lon="12.41162161919481"><ele>170.0</ele><time>2026-05-01T09:30:04.001Z</time></trkpt><trkpt lat="42.20883262492783" lon="12.411475368100522"><ele>168.0</ele><time>2026-05-01T09:30:05.001Z</time></trkpt><trkpt lat="42.20877569139669" lon="12.411329443315624"><ele>166.0</ele><time>2026-05-01T09:30:06.001Z</time></trkpt><trkpt lat="42.20871135766927" lon="12.411187080590732"><ele>166.0</ele><time>2026-05-01T09:30:07.001Z</time></trkpt><trkpt lat="42.20861622845243" lon="12.41106703099352"><ele>166.0</ele><time>2026-05-01T09:30:08.001Z</time></trkpt><trkpt lat="42.208491597494394" lon="12.410966211507647"><ele>166.0</ele><time>2026-05-01T09:30:09.001Z</time></trkpt><trkpt lat="42.20835195848173" lon="12.410904005699573"><ele>166.0</ele><time>2026-05-01T09:30:10.001Z</time></trkpt><trkpt lat="42.20818445957776" lon="12.410899227541451"><ele>163.0</ele><time>2026-05-01T09:30:11.001Z</time></trkpt><trkpt lat="42.20802468464213" lon="12.410905731721458"><ele>160.0</ele><time>2026-05-01T09:30:12.001Z</time></trkpt><trkpt lat="42.20787380835572" lon="12.41089052793976"><ele>157.0</ele><time>2026-05-01T09:30:13.001Z</time></trkpt><trkpt lat="42.20775837531442" lon="12.410923946178448"><ele>154.0</ele><time>2026-05-01T09:30:14.001Z</time></trkpt><trkpt lat="42.20764236531915" lon="12.410978700457324"><ele>154.0</ele><time>2026-05-01T09:30:15.001Z</time></trkpt><trkpt lat="42.20755163424591" lon="12.41106284161683"><ele>154.0</ele><time>2026-05-01T09:30:16.001Z</time></trkpt><trkpt lat="42.207489481115886" lon="12.41122585073185"><ele>154.0</ele><time>2026-05-01T09:30:17.001Z</time></trkpt><trkpt lat="42.207436255669066" lon="12.41139548375218"><ele>154.0</ele><time>2026-05-01T09:30:18.001Z</time></trkpt><trkpt lat="42.20738912615758" lon="12.411581545292782"><ele>150.66666666666669</ele><time>2026-05-01T09:30:19.001Z</time></trkpt><trkpt lat="42.20733080383138" lon="12.411778189260124"><ele>147.33333333333334</ele><time>2026-05-01T09:30:20.001Z</time></trkpt><trkpt lat="42.207264985321544" lon="12.411971226880734"><ele>144.0</ele><time>2026-05-01T09:30:21.001Z</time></trkpt><trkpt lat="42.207226268743405" lon="12.412160772549024"><ele>138.0</ele><time>2026-05-01T09:30:22.001Z</time></trkpt><trkpt lat="42.20718510198133" lon="12.412317913181676"><ele>132.0</ele><time>2026-05-01T09:30:23.001Z</time></trkpt><trkpt lat="42.20716939286314" lon="12.41246920600908"><ele>126.0</ele><time>2026-05-01T09:30:24.001Z</time></trkpt><trkpt lat="42.20719486954983" lon="12.41261356092789"><ele>120.0</ele><time>2026-05-01T09:30:25.001Z</time></trkpt><trkpt lat="42.20727261343747" lon="12.412727546207105"><ele>123.75</ele><time>2026-05-01T09:30:26.001Z</time></trkpt><trkpt lat="42.20738876721694" lon="12.41277743004676"><ele>127.5</ele><time>2026-05-01T09:30:27.001Z</time></trkpt><trkpt lat="42.20751681981077" lon="12.412738065465835"><ele>131.25</ele><time>2026-05-01T09:30:28.001Z</time></trkpt><trkpt lat="42.20762649905564" lon="12.412640302641417"><ele>135.0</ele><time>2026-05-01T09:30:29.001Z</time></trkpt><trkpt lat="42.20772200143388" lon="12.412490725459442"><ele>135.0</ele><time>2026-05-01T09:30:30.001Z</time></trkpt><trkpt lat="42.20781213253596" lon="12.412344259966147"><ele>135.0</ele><time>2026-05-01T09:30:31.001Z</time></trkpt><trkpt lat="42.20790709700931" lon="12.412231624299537"><ele>135.0</ele><time>2026-05-01T09:30:32.001Z</time></trkpt><trkpt lat="42.20801207147988" lon="12.412204977988955"><ele>135.0</ele><time>2026-05-01T09:30:33.001Z</time></trkpt><trkpt lat="42.20809324921269" lon="12.412216928174114"><ele>136.0</ele><time>2026-05-01T09:30:34.001Z</time></trkpt><trkpt lat="42.20817803163687" lon="12.412279965524403"><ele>137.0</ele><time>2026-05-01T09:30:35.001Z</time></trkpt><trkpt lat="42.20821365612924" lon="12.41240577723315"><ele>138.0</ele><time>2026-05-01T09:30:36.001Z</time></trkpt><trkpt lat="42.20824213940836" lon="12.41254736778356"><ele>139.0</ele><time>2026-05-01T09:30:37.001Z</time></trkpt><trkpt lat="42.208268291574164" lon="12.4127407634112"><ele>139.0</ele><time>2026-05-01T09:30:38.001Z</time></trkpt><trkpt lat="42.20829344397818" lon="12.412935176580842"><ele>139.0</ele><time>2026-05-01T09:30:39.001Z</time></trkpt><trkpt lat="42.208331950402965" lon="12.413178650071067"><ele>139.0</ele><time>2026-05-01T09:30:40.001Z</time></trkpt><trkpt lat="42.208372621176586" lon="12.413428954643612"><ele>136.33333333333334</ele><time>2026-05-01T09:30:41.001Z</time></trkpt><trkpt lat="42.20841536625894" lon="12.413679173924901"><ele>133.66666666666666</ele><time>2026-05-01T09:30:42.001Z</time></trkpt><trkpt lat="42.208462358935265" lon="12.413928396958198"><ele>131.0</ele><time>2026-05-01T09:30:43.001Z</time></trkpt><trkpt lat="42.20851463966159" lon="12.414166262683082"><ele>126.33333333333333</ele><time>2026-05-01T09:30:44.001Z</time></trkpt><trkpt lat="42.208567889514796" lon="12.414369314714166"><ele>121.66666666666666</ele><time>2026-05-01T09:30:45.001Z</time></trkpt><trkpt lat="42.20864518678995" lon="12.414544498727885"><ele>117.0</ele><time>2026-05-01T09:30:46.001Z</time></trkpt><trkpt lat="42.208745592569024" lon="12.414717489228941"><ele>119.33333333333334</ele><time>2026-05-01T09:30:47.001Z</time></trkpt><trkpt lat="42.20888789619847" lon="12.41488511832188"><ele>121.66666666666667</ele><time>2026-05-01T09:30:48.001Z</time></trkpt><trkpt lat="42.20904835304065" lon="12.41505537947076"><ele>124.0</ele><time>2026-05-01T09:30:49.001Z</time></trkpt><trkpt lat="42.20921530693538" lon="12.415229895642655"><ele>124.0</ele><time>2026-05-01T09:30:50.001Z</time></trkpt><trkpt lat="42.2093895156895" lon="12.41540920319653"><ele>124.0</ele><time>2026-05-01T09:30:51.001Z</time></trkpt><trkpt lat="42.20955157670539" lon="12.415572598549126"><ele>124.0</ele><time>2026-05-01T09:30:52.001Z</time></trkpt><trkpt lat="42.209692311942284" lon="12.415723875026364"><ele>124.75</ele><time>2026-05-01T09:30:53.001Z</time></trkpt><trkpt lat="42.20981185738437" lon="12.41586044167016"><ele>125.5</ele><time>2026-05-01T09:30:54.001Z</time></trkpt><trkpt lat="42.20990781757737" lon="12.416000032494097"><ele>126.25</ele><time>2026-05-01T09:30:55.001Z</time></trkpt><trkpt lat="42.20998244803068" lon="12.416155356497276"><ele>127.0</ele><time>2026-05-01T09:30:56.001Z</time></trkpt><trkpt lat="42.21003434031428" lon="12.416320290409848"><ele>121.5</ele><time>2026-05-01T09:30:57.001Z</time></trkpt><trkpt lat="42.21006729948355" lon="12.416501022367532"><ele>116.0</ele><time>2026-05-01T09:30:58.001Z</time></trkpt><trkpt lat="42.21008096366718" lon="12.41668958148061"><ele>110.5</ele><time>2026-05-01T09:30:59.001Z</time></trkpt><trkpt lat="42.210081951037274" lon="12.416899784232852"><ele>105.0</ele><time>2026-05-01T09:31:00.001Z</time></trkpt><trkpt lat="42.21008109284065" lon="12.41712569619568"><ele>105.33333333333334</ele><time>2026-05-01T09:31:01.001Z</time></trkpt><trkpt lat="42.210078341778235" lon="12.417359565828823"><ele>105.66666666666667</ele><time>2026-05-01T09:31:02.001Z</time></trkpt><trkpt lat="42.21007485043443" lon="12.417601394758835"><ele>106.0</ele><time>2026-05-01T09:31:03.001Z</time></trkpt><trkpt lat="42.21007374521791" lon="12.417844899643416"><ele>109.0</ele><time>2026-05-01T09:31:04.001Z</time></trkpt><trkpt lat="42.21007374521645" lon="12.418078696829177"><ele>112.0</ele><time>2026-05-01T09:31:05.001Z</time></trkpt><trkpt lat="42.2100725010356" lon="12.418310622308825"><ele>115.0</ele><time>2026-05-01T09:31:06.001Z</time></trkpt><trkpt lat="42.21007133664563" lon="12.418538492330796"><ele>115.0</ele><time>2026-05-01T09:31:07.001Z</time></trkpt><trkpt lat="42.21007056003536" lon="12.418736628344302"><ele>115.0</ele><time>2026-05-01T09:31:08.001Z</time></trkpt><trkpt lat="42.21006874522068" lon="12.418920529234544"><ele>115.0</ele><time>2026-05-01T09:31:09.001Z</time></trkpt><trkpt lat="42.210074269089915" lon="12.419103678907996"><ele>115.0</ele><time>2026-05-01T09:31:10.001Z</time></trkpt><trkpt lat="42.21010558617191" lon="12.419326369944617"><ele>113.66666666666667</ele><time>2026-05-01T09:31:11.001Z</time></trkpt><trkpt lat="42.21018426448865" lon="12.419539858436655"><ele>112.33333333333334</ele><time>2026-05-01T09:31:12.001Z</time></trkpt><trkpt lat="42.21030056129177" lon="12.41975015947448"><ele>111.0</ele><time>2026-05-01T09:31:13.001Z</time></trkpt><trkpt lat="42.21042311070297" lon="12.419965513060768"><ele>111.0</ele><time>2026-05-01T09:31:14.001Z</time></trkpt><trkpt lat="42.2105451260315" lon="12.4201753390552"><ele>111.0</ele><time>2026-05-01T09:31:15.001Z</time></trkpt><trkpt lat="42.21066288556201" lon="12.420380634132922"><ele>111.0</ele><time>2026-05-01T09:31:16.001Z</time></trkpt><trkpt lat="42.21076353978614" lon="12.420565073098901"><ele>113.25</ele><time>2026-05-01T09:31:17.001Z</time></trkpt><trkpt lat="42.21083775387051" lon="12.420727209195572"><ele>115.5</ele><time>2026-05-01T09:31:18.001Z</time></trkpt><trkpt lat="42.21087754824976" lon="12.420835762482723"><ele>117.75</ele><time>2026-05-01T09:31:19.001Z</time></trkpt><trkpt lat="42.210882973632835" lon="12.421021865885058"><ele>120.0</ele><time>2026-05-01T09:31:21.002Z</time></trkpt><trkpt lat="42.2108892471278" lon="12.421205321652128"><ele>122.33333333333334</ele><time>2026-05-01T09:31:22.002Z</time></trkpt><trkpt lat="42.21088931833415" lon="12.421427762441459"><ele>124.66666666666667</ele><time>2026-05-01T09:31:23.002Z</time></trkpt><trkpt lat="42.21088866744203" lon="12.42167064463207"><ele>127.0</ele><time>2026-05-01T09:31:24.002Z</time></trkpt><trkpt lat="42.2108899201443" lon="12.421935585854111"><ele>130.66666666666669</ele><time>2026-05-01T09:31:25Z</time></trkpt><trkpt lat="42.210895849008224" lon="12.422287246349825"><ele>134.33333333333334</ele><time>2026-05-01T09:31:26Z</time></trkpt><trkpt lat="42.210910962609226" lon="12.422489141921512"><ele>138.0</ele><time>2026-05-01T09:31:27Z</time></trkpt><trkpt lat="42.210956975257986" lon="12.422690363847398"><ele>138.0</ele><time>2026-05-01T09:31:28Z</time></trkpt><trkpt lat="42.21105893084647" lon="12.422857354243865"><ele>138.0</ele><time>2026-05-01T09:31:29Z</time></trkpt><trkpt lat="42.21122045750903" lon="12.422932942759195"><ele>138.0</ele><time>2026-05-01T09:31:30Z</time></trkpt><trkpt lat="42.21134483432446" lon="12.423005402908414"><ele>137.66666666666666</ele><time>2026-05-01T09:31:31Z</time></trkpt><trkpt lat="42.211483045819776" lon="12.423087163464883"><ele>137.33333333333331</ele><time>2026-05-01T09:31:32Z</time></trkpt><trkpt lat="42.21163320185828" lon="12.423176075938652"><ele>137.0</ele><time>2026-05-01T09:31:33Z</time></trkpt><trkpt lat="42.211796185433265" lon="12.423272501776355"><ele>137.0</ele><time>2026-05-01T09:31:34Z</time></trkpt><trkpt lat="42.211973274658746" lon="12.423374646145612"><ele>137.0</ele><time>2026-05-01T09:31:35Z</time></trkpt><trkpt lat="42.21216464622649" lon="12.423458970914277"><ele>137.0</ele><time>2026-05-01T09:31:36Z</time></trkpt><trkpt lat="42.21237245286008" lon="12.423521182764915"><ele>129.5</ele><time>2026-05-01T09:31:37Z</time></trkpt><trkpt lat="42.21258822365455" lon="12.423588284244543"><ele>122.0</ele><time>2026-05-01T09:31:38Z</time></trkpt><trkpt lat="42.212810603516466" lon="12.423671127576682"><ele>122.0</ele><time>2026-05-01T09:31:39Z</time></trkpt><trkpt lat="42.213037346921304" lon="12.42376547056212"><ele>122.0</ele><time>2026-05-01T09:31:40Z</time></trkpt><trkpt lat="42.21326630709161" lon="12.423862369435811"><ele>133.0</ele><time>2026-05-01T09:31:41Z</time></trkpt><trkpt lat="42.213476302792614" lon="12.423951323873604"><ele>144.0</ele><time>2026-05-01T09:31:42Z</time></trkpt><trkpt lat="42.21365953556231" lon="12.424028095938123"><ele>155.0</ele><time>2026-05-01T09:31:43Z</time></trkpt><trkpt lat="42.21382199995471" lon="12.42409395388072"><ele>155.0</ele><time>2026-05-01T09:31:44Z</time></trkpt><trkpt lat="42.213964637004146" lon="12.424166556080499"><ele>155.0</ele><time>2026-05-01T09:31:45Z</time></trkpt><trkpt lat="42.214076365677926" lon="12.42423746088602"><ele>155.0</ele><time>2026-05-01T09:31:46Z</time></trkpt><trkpt lat="42.214182856085614" lon="12.424314235386557"><ele>155.0</ele><time>2026-05-01T09:31:47Z</time></trkpt><trkpt lat="42.214266200850915" lon="12.42440380470067"><ele>153.2</ele><time>2026-05-01T09:31:48Z</time></trkpt><trkpt lat="42.21436300240845" lon="12.424446069797522"><ele>151.4</ele><time>2026-05-01T09:31:49Z</time></trkpt><trkpt lat="42.214449269287535" lon="12.424438720335795"><ele>149.6</ele><time>2026-05-01T09:31:50Z</time></trkpt><trkpt lat="42.214535612718464" lon="12.42442301294884"><ele>147.8</ele><time>2026-05-01T09:31:51Z</time></trkpt><trkpt lat="42.214610483907755" lon="12.424347808729545"><ele>146.0</ele><time>2026-05-01T09:31:52Z</time></trkpt><trkpt lat="42.21466805027924" lon="12.424230074894249"><ele>146.0</ele><time>2026-05-01T09:31:53Z</time></trkpt><trkpt lat="42.21470501745981" lon="12.424080284866397"><ele>146.0</ele><time>2026-05-01T09:31:54Z</time></trkpt><trkpt lat="42.214705489172246" lon="12.423915901117638"><ele>146.0</ele><time>2026-05-01T09:31:55Z</time></trkpt><trkpt lat="42.21470707031033" lon="12.423730754388737"><ele>146.0</ele><time>2026-05-01T09:31:56Z</time></trkpt><trkpt lat="42.21472231538872" lon="12.423623854410932"><ele>146.4</ele><time>2026-05-01T09:31:57Z</time></trkpt><trkpt lat="42.21475219159845" lon="12.423499078806268"><ele>146.8</ele><time>2026-05-01T09:31:58Z</time></trkpt><trkpt lat="42.214803450489455" lon="12.423384489371436"><ele>147.20000000000002</ele><time>2026-05-01T09:31:59Z</time></trkpt><trkpt lat="42.21488832900979" lon="12.423292346817457"><ele>147.6</ele><time>2026-05-01T09:32:00Z</time></trkpt><trkpt lat="42.21499633288749" lon="12.423227632978444"><ele>148.0</ele><time>2026-05-01T09:32:01Z</time></trkpt><trkpt lat="42.21512368767629" lon="12.423184392204124"><ele>148.0</ele><time>2026-05-01T09:32:02Z</time></trkpt><trkpt lat="42.215255781694616" lon="12.423145784153707"><ele>148.0</ele><time>2026-05-01T09:32:03Z</time></trkpt><trkpt lat="42.215398469730566" lon="12.423096295478686"><ele>148.0</ele><time>2026-05-01T09:32:04Z</time></trkpt><trkpt lat="42.21554435047555" lon="12.423042764628523"><ele>148.0</ele><time>2026-05-01T09:32:05Z</time></trkpt><trkpt lat="42.21570034796722" lon="12.423026383983833"><ele>146.5</ele><time>2026-05-01T09:32:06Z</time></trkpt><trkpt lat="42.21585005642137" lon="12.422981068373433"><ele>145.0</ele><time>2026-05-01T09:32:07Z</time></trkpt><trkpt lat="42.215978188685284" lon="12.422978580122084"><ele>143.5</ele><time>2026-05-01T09:32:08Z</time></trkpt><trkpt lat="42.216107858662454" lon="12.42292346816842"><ele>142.0</ele><time>2026-05-01T09:32:09Z</time></trkpt><trkpt lat="42.21621822815652" lon="12.422791288857294"><ele>142.0</ele><time>2026-05-01T09:32:10Z</time></trkpt><trkpt lat="42.21628902382123" lon="12.422644199122226"><ele>142.0</ele><time>2026-05-01T09:32:11Z</time></trkpt><trkpt lat="42.2163245710814" lon="12.422485463298731"><ele>142.0</ele><time>2026-05-01T09:32:12Z</time></trkpt><trkpt lat="42.216344649734474" lon="12.422328186858744"><ele>142.0</ele><time>2026-05-01T09:32:13Z</time></trkpt><trkpt lat="42.21635970624276" lon="12.422160842571724"><ele>137.66666666666669</ele><time>2026-05-01T09:32:14Z</time></trkpt><trkpt lat="42.216369903535806" lon="12.421995393474095"><ele>133.33333333333334</ele><time>2026-05-01T09:32:15Z</time></trkpt><trkpt lat="42.21637745463866" lon="12.421771394506633"><ele>129.0</ele><time>2026-05-01T09:32:16.001Z</time></trkpt><trkpt lat="42.21640477465726" lon="12.422015554879838"><ele>129.0</ele><time>2026-05-01T09:32:17.001Z</time></trkpt><trkpt lat="42.21640914142234" lon="12.421827275859625"><ele>129.0</ele><time>2026-05-01T09:32:18.001Z</time></trkpt><trkpt lat="42.21640729909247" lon="12.421646814906245"><ele>129.0</ele><time>2026-05-01T09:32:19.001Z</time></trkpt><trkpt lat="42.2164019470153" lon="12.421501691862531"><ele>129.0</ele><time>2026-05-01T09:32:20.001Z</time></trkpt><trkpt lat="42.21639542748856" lon="12.421392170188044"><ele>128.16666666666666</ele><time>2026-05-01T09:32:21.001Z</time></trkpt><trkpt lat="42.21639276282918" lon="12.421301840823745"><ele>127.33333333333334</ele><time>2026-05-01T09:32:22.001Z</time></trkpt><trkpt lat="42.2163902158252" lon="12.421163280364704"><ele>126.5</ele><time>2026-05-01T09:32:24.001Z</time></trkpt><trkpt lat="42.216448548780164" lon="12.421105118601723"><ele>125.66666666666667</ele><time>2026-05-01T09:32:26.001Z</time></trkpt><trkpt lat="42.21652546197078" lon="12.42112085631804"><ele>124.83333333333334</ele><time>2026-05-01T09:32:28.001Z</time></trkpt><trkpt lat="42.216587972676024" lon="12.42122175580554"><ele>124.0</ele><time>2026-05-01T09:32:31.001Z</time></trkpt><trkpt lat="42.21652824701532" lon="12.421340034373047"><ele>125.0</ele><time>2026-05-01T09:32:33.001Z</time></trkpt><trkpt lat="42.21649564690679" lon="12.421508964136212"><ele>126.0</ele><time>2026-05-01T09:32:35.001Z</time></trkpt><trkpt lat="42.216480175155816" lon="12.421595224346396"><ele>127.0</ele><time>2026-05-01T09:32:36.001Z</time></trkpt><trkpt lat="42.216463224168756" lon="12.421700741267543"><ele>128.0</ele><time>2026-05-01T09:32:37.001Z</time></trkpt><trkpt lat="42.21645011193764" lon="12.421803278321823"><ele>129.0</ele><time>2026-05-01T09:32:38.001Z</time></trkpt><trkpt lat="42.21644255413901" lon="12.421936618059188"><ele>129.0</ele><time>2026-05-01T09:32:39.001Z</time></trkpt><trkpt lat="42.21646021481964" lon="12.42205444575013"><ele>129.0</ele><time>2026-05-01T09:32:40.001Z</time></trkpt><trkpt lat="42.21647158968281" lon="12.422156292619857"><ele>129.0</ele><time>2026-05-01T09:32:41.001Z</time></trkpt><trkpt lat="42.216485361689315" lon="12.422279602725277"><ele>129.0</ele><time>2026-05-01T09:32:43.001Z</time></trkpt><trkpt lat="42.21649014541489" lon="12.422436224299956"><ele>129.0</ele><time>2026-05-01T09:32:45.001Z</time></trkpt><trkpt lat="42.21645468140647" lon="12.422609817310134"><ele>131.16666666666666</ele><time>2026-05-01T09:32:47.001Z</time></trkpt><trkpt lat="42.216429906507116" lon="12.42271961344191"><ele>133.33333333333334</ele><time>2026-05-01T09:32:48.001Z</time></trkpt><trkpt lat="42.216411056625574" lon="12.422819745605077"><ele>135.5</ele><time>2026-05-01T09:32:49.001Z</time></trkpt><trkpt lat="42.216392661747044" lon="12.422931089380352"><ele>137.66666666666669</ele><time>2026-05-01T09:32:50.001Z</time></trkpt><trkpt lat="42.21637922231418" lon="12.423044970346295"><ele>139.83333333333334</ele><time>2026-05-01T09:32:51.001Z</time></trkpt><trkpt lat="42.21636996156637" lon="12.423138862835692"><ele>142.0</ele><time>2026-05-01T09:32:52.001Z</time></trkpt><trkpt lat="42.216360488280145" lon="12.423224095601872"><ele>147.66666666666669</ele><time>2026-05-01T09:32:53.001Z</time></trkpt><trkpt lat="42.216334806721136" lon="12.423351573085823"><ele>153.33333333333334</ele><time>2026-05-01T09:32:55.001Z</time></trkpt><trkpt lat="42.21625506683115" lon="12.423444350151591"><ele>159.0</ele><time>2026-05-01T09:32:57.001Z</time></trkpt><trkpt lat="42.21621210778648" lon="12.423507574586967"><ele>164.66666666666666</ele><time>2026-05-01T09:32:58.001Z</time></trkpt><trkpt lat="42.21614622087489" lon="12.423519969035608"><ele>170.33333333333331</ele><time>2026-05-01T09:32:59.001Z</time></trkpt><trkpt lat="42.21607418373451" lon="12.423519928069275"><ele>176.0</ele><time>2026-05-01T09:33:00.001Z</time></trkpt><trkpt lat="42.21599728801545" lon="12.423509558571451"><ele>176.0</ele><time>2026-05-01T09:33:01.001Z</time></trkpt><trkpt lat="42.21592460521681" lon="12.423491727334724"><ele>176.0</ele><time>2026-05-01T09:33:02.001Z</time></trkpt><trkpt lat="42.215741082583456" lon="12.423494080319877"><ele>176.0</ele><time>2026-05-01T09:33:04.001Z</time></trkpt><trkpt lat="42.21565961219404" lon="12.42349959768903"><ele>176.0</ele><time>2026-05-01T09:33:05.001Z</time></trkpt><trkpt lat="42.21558073170343" lon="12.423511710402698"><ele>176.0</ele><time>2026-05-01T09:33:06.001Z</time></trkpt><trkpt lat="42.215493318045766" lon="12.423531149520393"><ele>174.8</ele><time>2026-05-01T09:33:07.001Z</time></trkpt><trkpt lat="42.215404692234756" lon="12.42356637350862"><ele>173.60000000000002</ele><time>2026-05-01T09:33:08.001Z</time></trkpt><trkpt lat="42.21532033812532" lon="12.423620931032755"><ele>172.4</ele><time>2026-05-01T09:33:09.001Z</time></trkpt><trkpt lat="42.215252498773324" lon="12.423705598066865"><ele>171.2</ele><time>2026-05-01T09:33:10.001Z</time></trkpt><trkpt lat="42.21520179030556" lon="12.42382268650447"><ele>170.0</ele><time>2026-05-01T09:33:11.001Z</time></trkpt><trkpt lat="42.21518829521404" lon="12.423971268773766"><ele>170.0</ele><time>2026-05-01T09:33:12.001Z</time></trkpt><trkpt lat="42.2151811886358" lon="12.424103740772251"><ele>170.0</ele><time>2026-05-01T09:33:13.001Z</time></trkpt><trkpt lat="42.215173960067624" lon="12.424245687423948"><ele>170.0</ele><time>2026-05-01T09:33:14.001Z</time></trkpt><trkpt lat="42.21516848533641" lon="12.424391977307511"><ele>170.0</ele><time>2026-05-01T09:33:15.001Z</time></trkpt><trkpt lat="42.21516303932781" lon="12.424537923430618"><ele>170.0</ele><time>2026-05-01T09:33:16.001Z</time></trkpt><trkpt lat="42.21516104544259" lon="12.424697354366812"><ele>172.66666666666666</ele><time>2026-05-01T09:33:17.001Z</time></trkpt><trkpt lat="42.215154007133606" lon="12.424837365405343"><ele>175.33333333333331</ele><time>2026-05-01T09:33:18.001Z</time></trkpt><trkpt lat="42.21513650573084" lon="12.424965562862438"><ele>178.0</ele><time>2026-05-01T09:33:19.001Z</time></trkpt><trkpt lat="42.21511313020369" lon="12.425090282421483"><ele>180.66666666666666</ele><time>2026-05-01T09:33:20.001Z</time></trkpt><trkpt lat="42.21509149884385" lon="12.425201339452643"><ele>183.33333333333334</ele><time>2026-05-01T09:33:21.001Z</time></trkpt><trkpt lat="42.21507115752832" lon="12.425289461567907"><ele>186.0</ele><time>2026-05-01T09:33:22.001Z</time></trkpt><trkpt lat="42.21505239796219" lon="12.425371148777794"><ele>187.83333333333334</ele><time>2026-05-01T09:33:23.001Z</time></trkpt><trkpt lat="42.21502424584787" lon="12.425519460498906"><ele>189.66666666666669</ele><time>2026-05-01T09:33:25.001Z</time></trkpt><trkpt lat="42.21501561474941" lon="12.425608882653744"><ele>191.5</ele><time>2026-05-01T09:33:26.001Z</time></trkpt><trkpt lat="42.21501207451338" lon="12.425707256131165"><ele>193.33333333333334</ele><time>2026-05-01T09:33:27.001Z</time></trkpt><trkpt lat="42.215015676140865" lon="12.42581966792379"><ele>195.16666666666669</ele><time>2026-05-01T09:33:28.001Z</time></trkpt><trkpt lat="42.21502447777394" lon="12.42590547351803"><ele>197.0</ele><time>2026-05-01T09:33:29.001Z</time></trkpt><trkpt lat="42.21504752029054" lon="12.42606296360863"><ele>197.00000000000003</ele><time>2026-05-01T09:33:31Z</time></trkpt><trkpt lat="42.21505979764216" lon="12.426146432536395"><ele>197.0</ele><time>2026-05-01T09:33:32Z</time></trkpt><trkpt lat="42.215072853233025" lon="12.426238893823685"><ele>197.0</ele><time>2026-05-01T09:33:33Z</time></trkpt><trkpt lat="42.215087410252856" lon="12.426342801944733"><ele>197.0</ele><time>2026-05-01T09:33:34Z</time></trkpt><trkpt lat="42.21510716684689" lon="12.426483824750356"><ele>197.00000000000003</ele><time>2026-05-01T09:33:35Z</time></trkpt><trkpt lat="42.21512884234608" lon="12.426638544698019"><ele>197.0</ele><time>2026-05-01T09:33:36Z</time></trkpt><trkpt lat="42.21514963123427" lon="12.426786935735883"><ele>198.2</ele><time>2026-05-01T09:33:37Z</time></trkpt><trkpt lat="42.21518252586943" lon="12.426920435583762"><ele>199.39999999999998</ele><time>2026-05-01T09:33:38Z</time></trkpt><trkpt lat="42.21520926164835" lon="12.427057076954947"><ele>200.60000000000002</ele><time>2026-05-01T09:33:39Z</time></trkpt><trkpt lat="42.215233656044944" lon="12.427181091053967"><ele>201.8</ele><time>2026-05-01T09:33:40Z</time></trkpt><trkpt lat="42.215287527358115" lon="12.427304417362043"><ele>203.0</ele><time>2026-05-01T09:33:41Z</time></trkpt><trkpt lat="42.21538690633663" lon="12.427472399037589"><ele>203.60000000000002</ele><time>2026-05-01T09:33:43Z</time></trkpt><trkpt lat="42.215454352008855" lon="12.427559889691727"><ele>204.20000000000002</ele><time>2026-05-01T09:33:45Z</time></trkpt><trkpt lat="42.21550382729384" lon="12.427625996476644"><ele>204.8</ele><time>2026-05-01T09:33:48Z</time></trkpt><trkpt lat="42.21561258758365" lon="12.42746352764093"><ele>205.4</ele><time>2026-05-01T09:33:49Z</time></trkpt><trkpt lat="42.21566688939104" lon="12.42738850386529"><ele>206.0</ele><time>2026-05-01T09:33:50Z</time></trkpt><trkpt lat="42.21573407077761" lon="12.427338767639826"><ele>206.0</ele><time>2026-05-01T09:33:51Z</time></trkpt><trkpt lat="42.2158109976854" lon="12.427289793381702"><ele>206.0</ele><time>2026-05-01T09:33:52Z</time></trkpt><trkpt lat="42.215895670624796" lon="12.427233773331102"><ele>206.0</ele><time>2026-05-01T09:33:53Z</time></trkpt><trkpt lat="42.215987020525844" lon="12.42718226712988"><ele>206.0</ele><time>2026-05-01T09:33:54Z</time></trkpt><trkpt lat="42.21609055408156" lon="12.427139830454216"><ele>206.0</ele><time>2026-05-01T09:33:55Z</time></trkpt><trkpt lat="42.21619553754459" lon="12.427111785545502"><ele>206.25</ele><time>2026-05-01T09:33:56Z</time></trkpt><trkpt lat="42.21630753195659" lon="12.42713150370137"><ele>206.5</ele><time>2026-05-01T09:33:57Z</time></trkpt><trkpt lat="42.216422356784044" lon="12.42711169123195"><ele>206.75</ele><time>2026-05-01T09:33:58Z</time></trkpt><trkpt lat="42.21653608564568" lon="12.427114362386659"><ele>207.0</ele><time>2026-05-01T09:33:59Z</time></trkpt><trkpt lat="42.21664536577591" lon="12.42711829737534"><ele>207.25</ele><time>2026-05-01T09:34:00Z</time></trkpt><trkpt lat="42.21675759288652" lon="12.42713550370193"><ele>207.5</ele><time>2026-05-01T09:34:01Z</time></trkpt><trkpt lat="42.21687979203628" lon="12.427130642980037"><ele>207.75</ele><time>2026-05-01T09:34:02Z</time></trkpt><trkpt lat="42.21699621342345" lon="12.427097975874627"><ele>208.0</ele><time>2026-05-01T09:34:03Z</time></trkpt><trkpt lat="42.217121044111046" lon="12.427083182384159"><ele>208.0</ele><time>2026-05-01T09:34:04Z</time></trkpt><trkpt lat="42.21724498474701" lon="12.42706357801592"><ele>208.0</ele><time>2026-05-01T09:34:05Z</time></trkpt><trkpt lat="42.21737280448472" lon="12.427051764752633"><ele>208.0</ele><time>2026-05-01T09:34:06Z</time></trkpt><trkpt lat="42.21750288147787" lon="12.427027803604966"><ele>208.0</ele><time>2026-05-01T09:34:07Z</time></trkpt><trkpt lat="42.21763568348652" lon="12.427002213714784"><ele>208.75</ele><time>2026-05-01T09:34:08Z</time></trkpt><trkpt lat="42.21776623238351" lon="12.42697401093978"><ele>209.5</ele><time>2026-05-01T09:34:09Z</time></trkpt><trkpt lat="42.21789162645901" lon="12.426967741780297"><ele>210.25</ele><time>2026-05-01T09:34:10Z</time></trkpt><trkpt lat="42.21800227441612" lon="12.426926330317636"><ele>211.0</ele><time>2026-05-01T09:34:11Z</time></trkpt><trkpt lat="42.21809697756926" lon="12.426914200015643"><ele>211.49999999999997</ele><time>2026-05-01T09:34:12Z</time></trkpt><trkpt lat="42.21818303038363" lon="12.426906811253332"><ele>212.0</ele><time>2026-05-01T09:34:13Z</time></trkpt><trkpt lat="42.218250850494826" lon="12.426895787325734"><ele>212.5</ele><time>2026-05-01T09:34:14Z</time></trkpt><trkpt lat="42.218364579048156" lon="12.426891832689247"><ele>213.0</ele><time>2026-05-01T09:34:16Z</time></trkpt><trkpt lat="42.218426974095955" lon="12.426861209793636"><ele>213.49999999999997</ele><time>2026-05-01T09:34:17Z</time></trkpt><trkpt lat="42.2185004107353" lon="12.4268273362439"><ele>214.0</ele><time>2026-05-01T09:34:18Z</time></trkpt><trkpt lat="42.21859022948442" lon="12.42680813077264"><ele>214.0</ele><time>2026-05-01T09:34:19Z</time></trkpt><trkpt lat="42.21868478664179" lon="12.426797049580973"><ele>213.99999999999997</ele><time>2026-05-01T09:34:20Z</time></trkpt><trkpt lat="42.21879114134384" lon="12.426766133554757"><ele>213.99999999999997</ele><time>2026-05-01T09:34:21Z</time></trkpt><trkpt lat="42.21889549948337" lon="12.426745149306514"><ele>214.0</ele><time>2026-05-01T09:34:22Z</time></trkpt><trkpt lat="42.21899727121269" lon="12.426720116980315"><ele>214.0</ele><time>2026-05-01T09:34:23Z</time></trkpt><trkpt lat="42.21909802380079" lon="12.426673078396018"><ele>215.0</ele><time>2026-05-01T09:34:24Z</time></trkpt><trkpt lat="42.21918784700269" lon="12.426593181901545"><ele>215.99999999999997</ele><time>2026-05-01T09:34:25Z</time></trkpt><trkpt lat="42.21927136265337" lon="12.42648397513498"><ele>216.99999999999997</ele><time>2026-05-01T09:34:26Z</time></trkpt><trkpt lat="42.21934826282613" lon="12.426361839117467"><ele>218.0</ele><time>2026-05-01T09:34:27Z</time></trkpt><trkpt lat="42.21941293257911" lon="12.426247839651671"><ele>219.0</ele><time>2026-05-01T09:34:28Z</time></trkpt><trkpt lat="42.21947045554601" lon="12.426153024820836"><ele>220.0</ele><time>2026-05-01T09:34:29.001Z</time></trkpt><trkpt lat="42.219518907060895" lon="12.426081747404186"><ele>220.0</ele><time>2026-05-01T09:34:30.001Z</time></trkpt><trkpt lat="42.2195868938631" lon="12.425972176104487"><ele>220.0</ele><time>2026-05-01T09:34:32.001Z</time></trkpt><trkpt lat="42.2196393162952" lon="12.425872836366027"><ele>220.0</ele><time>2026-05-01T09:34:34.001Z</time></trkpt><trkpt lat="42.21970519981818" lon="12.42581174477596"><ele>220.0</ele><time>2026-05-01T09:34:36.001Z</time></trkpt></trkseg><trkseg><trkpt lat="42.206094162577955" lon="12.412876412284014"><ele>116.0</ele><time>2026-05-01T11:02:33Z</time></trkpt><trkpt lat="42.20614743000515" lon="12.41297948105558"><ele>116.0</ele><time>2026-05-01T11:04:38Z</time></trkpt><trkpt lat="42.2062101426595" lon="12.413070456157087"><ele>116.0</ele><time>2026-05-01T11:04:40Z</time></trkpt><trkpt lat="42.20625872799287" lon="12.413167158496416"><ele>116.0</ele><time>2026-05-01T11:04:41.999Z</time></trkpt><trkpt lat="42.20628631991085" lon="12.413284452571212"><ele>116.0</ele><time>2026-05-01T11:04:44.999Z</time></trkpt><trkpt lat="42.20629328264923" lon="12.41340200512829"><ele>115.33333333333333</ele><time>2026-05-01T11:04:46.999Z</time></trkpt><trkpt lat="42.20634683217865" lon="12.413567902557306"><ele>114.66666666666666</ele><time>2026-05-01T11:04:48.999Z</time></trkpt><trkpt lat="42.206386724807835" lon="12.413653429109191"><ele>114.0</ele><time>2026-05-01T11:04:49.999Z</time></trkpt><trkpt lat="42.20640630761284" lon="12.41375024555633"><ele>113.33333333333334</ele><time>2026-05-01T11:04:50.999Z</time></trkpt><trkpt lat="42.206436897738705" lon="12.413825321766511"><ele>112.66666666666667</ele><time>2026-05-01T11:04:51.999Z</time></trkpt><trkpt lat="42.20648522879384" lon="12.41393013353643"><ele>112.0</ele><time>2026-05-01T11:04:53.999Z</time></trkpt><trkpt lat="42.2065641283937" lon="12.414038363261053"><ele>112.0</ele><time>2026-05-01T11:04:55.999Z</time></trkpt><trkpt lat="42.2066347685329" lon="12.414134802713273"><ele>111.99999999999999</ele><time>2026-05-01T11:04:57.999Z</time></trkpt><trkpt lat="42.20671471482538" lon="12.414231335143194"><ele>111.99999999999999</ele><time>2026-05-01T11:04:59.999Z</time></trkpt><trkpt lat="42.206773748765784" lon="12.41429869202789"><ele>112.0</ele><time>2026-05-01T11:05:01.999Z</time></trkpt><trkpt lat="42.20686090772125" lon="12.414402410545115"><ele>112.0</ele><time>2026-05-01T11:05:03.999Z</time></trkpt><trkpt lat="42.206939458446456" lon="12.414446856110208"><ele>112.0</ele><time>2026-05-01T11:05:05.999Z</time></trkpt><trkpt lat="42.207036564550904" lon="12.414495814638459"><ele>111.99999999999999</ele><time>2026-05-01T11:05:07.999Z</time></trkpt><trkpt lat="42.20713012897756" lon="12.414509893808345"><ele>111.99999999999999</ele><time>2026-05-01T11:05:10Z</time></trkpt><trkpt lat="42.207225705493975" lon="12.414523541360996"><ele>112.0</ele><time>2026-05-01T11:05:12Z</time></trkpt><trkpt lat="42.20732194939411" lon="12.414515209068075"><ele>112.0</ele><time>2026-05-01T11:05:14Z</time></trkpt><trkpt lat="42.20739108283294" lon="12.414506335625576"><ele>111.00000000000001</ele><time>2026-05-01T11:05:17Z</time></trkpt><trkpt lat="42.20748300139931" lon="12.414505083279563"><ele>110.0</ele><time>2026-05-01T11:05:22Z</time></trkpt><trkpt lat="42.20756554893432" lon="12.414508800488314"><ele>109.0</ele><time>2026-05-01T11:05:24Z</time></trkpt><trkpt lat="42.207670513100275" lon="12.414506598328721"><ele>108.0</ele><time>2026-05-01T11:05:26Z</time></trkpt><trkpt lat="42.20774952371698" lon="12.414510119980884"><ele>107.00000000000001</ele><time>2026-05-01T11:05:28Z</time></trkpt><trkpt lat="42.207823342430856" lon="12.414533779822712"><ele>106.0</ele><time>2026-05-01T11:05:30Z</time></trkpt><trkpt lat="42.20788329671056" lon="12.414577053990563"><ele>106.4</ele><time>2026-05-01T11:05:32Z</time></trkpt><trkpt lat="42.2079358560462" lon="12.414678161871267"><ele>106.8</ele><time>2026-05-01T11:05:35Z</time></trkpt><trkpt lat="42.20801234233627" lon="12.4147686475496"><ele>107.20000000000002</ele><time>2026-05-01T11:05:37Z</time></trkpt><trkpt lat="42.2080691937349" lon="12.41481013431153"><ele>107.60000000000001</ele><time>2026-05-01T11:05:38Z</time></trkpt><trkpt lat="42.20817207818308" lon="12.414911919333932"><ele>108.0</ele><time>2026-05-01T11:05:40Z</time></trkpt><trkpt lat="42.208231907276314" lon="12.414966608095778"><ele>108.0</ele><time>2026-05-01T11:05:41Z</time></trkpt><trkpt lat="42.208293085190476" lon="12.415010844922874"><ele>108.0</ele><time>2026-05-01T11:05:42Z</time></trkpt><trkpt lat="42.20835534273789" lon="12.41506761148111"><ele>108.0</ele><time>2026-05-01T11:05:43Z</time></trkpt><trkpt lat="42.20841804730687" lon="12.415125396184209"><ele>108.0</ele><time>2026-05-01T11:05:44Z</time></trkpt><trkpt lat="42.20847902592219" lon="12.415183803858588"><ele>108.0</ele><time>2026-05-01T11:05:45Z</time></trkpt><trkpt lat="42.20853435756425" lon="12.41523818730133"><ele>108.0</ele><time>2026-05-01T11:05:46Z</time></trkpt><trkpt lat="42.208626913427096" lon="12.415350788317365"><ele>108.0</ele><time>2026-05-01T11:05:48Z</time></trkpt><trkpt lat="42.208721275300704" lon="12.415464221812593"><ele>108.0</ele><time>2026-05-01T11:05:50Z</time></trkpt><trkpt lat="42.20877648891405" lon="12.41553910951715"><ele>108.0</ele><time>2026-05-01T11:05:52Z</time></trkpt><trkpt lat="42.20883235549968" lon="12.415601579771545"><ele>108.0</ele><time>2026-05-01T11:05:54Z</time></trkpt><trkpt lat="42.20886763055622" lon="12.415673618237921"><ele>108.0</ele><time>2026-05-01T11:05:56Z</time></trkpt><trkpt lat="42.20891606443907" lon="12.41573832785152"><ele>108.0</ele><time>2026-05-01T11:05:57Z</time></trkpt><trkpt lat="42.208980295236984" lon="12.415856887052929"><ele>108.0</ele><time>2026-05-01T11:05:59Z</time></trkpt><trkpt lat="42.20905920358681" lon="12.415996417119887"><ele>108.0</ele><time>2026-05-01T11:06:01Z</time></trkpt><trkpt lat="42.20915269698298" lon="12.416139556469735"><ele>108.0</ele><time>2026-05-01T11:06:03Z</time></trkpt><trkpt lat="42.209232101886386" lon="12.416265241109658"><ele>108.0</ele><time>2026-05-01T11:06:05Z</time></trkpt><trkpt lat="42.20927640365606" lon="12.416390919279133"><ele>109.4</ele><time>2026-05-01T11:06:07Z</time></trkpt><trkpt lat="42.20928388455985" lon="12.416529708297098"><ele>110.80000000000001</ele><time>2026-05-01T11:06:09Z</time></trkpt><trkpt lat="42.209287480700304" lon="12.416668789634574"><ele>112.2</ele><time>2026-05-01T11:06:11Z</time></trkpt><trkpt lat="42.20930623210409" lon="12.416751520691077"><ele>113.6</ele><time>2026-05-01T11:06:12Z</time></trkpt><trkpt lat="42.20931554440925" lon="12.416891135536979"><ele>115.0</ele><time>2026-05-01T11:06:14Z</time></trkpt><trkpt lat="42.20932978963699" lon="12.417019498079815"><ele>115.00000000000001</ele><time>2026-05-01T11:06:15Z</time></trkpt><trkpt lat="42.20934552557326" lon="12.417123768552887"><ele>115.0</ele><time>2026-05-01T11:06:16Z</time></trkpt><trkpt lat="42.209379401442646" lon="12.417216446098369"><ele>115.0</ele><time>2026-05-01T11:06:17Z</time></trkpt><trkpt lat="42.209377397711535" lon="12.417306692166548"><ele>115.0</ele><time>2026-05-01T11:06:18Z</time></trkpt><trkpt lat="42.20938836375774" lon="12.417391550889297"><ele>115.00000000000001</ele><time>2026-05-01T11:06:19Z</time></trkpt><trkpt lat="42.209420048934646" lon="12.417521409815555"><ele>115.0</ele><time>2026-05-01T11:06:21Z</time></trkpt><trkpt lat="42.2094528245104" lon="12.41759401157182"><ele>118.85714285714283</ele><time>2026-05-01T11:06:26Z</time></trkpt><trkpt lat="42.209511367245064" lon="12.417635718811113"><ele>122.71428571428571</ele><time>2026-05-01T11:06:32Z</time></trkpt><trkpt lat="42.20953146891925" lon="12.417719850390583"><ele>126.57142857142856</ele><time>2026-05-01T11:06:41Z</time></trkpt><trkpt lat="42.20956730535745" lon="12.417793273538958"><ele>130.42857142857142</ele><time>2026-05-01T11:06:44Z</time></trkpt><trkpt lat="42.20961723985715" lon="12.417877125301672"><ele>134.28571428571428</ele><time>2026-05-01T11:06:47Z</time></trkpt><trkpt lat="42.20966507383987" lon="12.41797053943821"><ele>138.14285714285714</ele><time>2026-05-01T11:06:48.999Z</time></trkpt><trkpt lat="42.20970603439925" lon="12.418039507988295"><ele>142.0</ele><time>2026-05-01T11:06:50.999Z</time></trkpt><trkpt lat="42.20975198278705" lon="12.418114427547502"><ele>142.0</ele><time>2026-05-01T11:06:52.999Z</time></trkpt><trkpt lat="42.209804737861106" lon="12.418191442759715"><ele>142.0</ele><time>2026-05-01T11:06:55.999Z</time></trkpt><trkpt lat="42.20985800049955" lon="12.418265924355442"><ele>142.0</ele><time>2026-05-01T11:06:59Z</time></trkpt><trkpt lat="42.20990651096694" lon="12.418323033213447"><ele>142.0</ele><time>2026-05-01T11:07:03Z</time></trkpt><trkpt lat="42.209966848533476" lon="12.418375480879664"><ele>142.0</ele><time>2026-05-01T11:07:11Z</time></trkpt><trkpt lat="42.21003922396895" lon="12.418300816842557"><ele>142.0</ele><time>2026-05-01T11:13:39Z</time></trkpt><trkpt lat="42.21010768366919" lon="12.418354768909001"><ele>136.6</ele><time>2026-05-01T11:21:06.002Z</time></trkpt><trkpt lat="42.210163574095276" lon="12.41844928661223"><ele>131.2</ele><time>2026-05-01T11:21:13.002Z</time></trkpt><trkpt lat="42.21015114323817" lon="12.41855989617422"><ele>125.8</ele><time>2026-05-01T11:21:15.002Z</time></trkpt><trkpt lat="42.21015022939034" lon="12.41872769277959"><ele>120.4</ele><time>2026-05-01T11:21:17.002Z</time></trkpt><trkpt lat="42.21014391383365" lon="12.41882374260205"><ele>115.0</ele><time>2026-05-01T11:21:18.002Z</time></trkpt><trkpt lat="42.21013771672992" lon="12.418934383555904"><ele>113.8</ele><time>2026-05-01T11:21:19.002Z</time></trkpt><trkpt lat="42.2100726478709" lon="12.419057044083413"><ele>112.6</ele><time>2026-05-01T11:21:20.002Z</time></trkpt><trkpt lat="42.21008112809707" lon="12.419175915242434"><ele>111.4</ele><time>2026-05-01T11:21:21.002Z</time></trkpt><trkpt lat="42.21010138373326" lon="12.41930364446475"><ele>110.2</ele><time>2026-05-01T11:21:22.002Z</time></trkpt><trkpt lat="42.21013154126275" lon="12.419413804951501"><ele>109.0</ele><time>2026-05-01T11:21:23.002Z</time></trkpt><trkpt lat="42.21017781959954" lon="12.419524219190365"><ele>109.0</ele><time>2026-05-01T11:21:24.002Z</time></trkpt><trkpt lat="42.210231833530024" lon="12.419633831727912"><ele>109.0</ele><time>2026-05-01T11:21:25.002Z</time></trkpt><trkpt lat="42.21029146590535" lon="12.419734821044125"><ele>109.0</ele><time>2026-05-01T11:21:26.002Z</time></trkpt><trkpt lat="42.21034913372939" lon="12.419836532766036"><ele>109.0</ele><time>2026-05-01T11:21:27.002Z</time></trkpt><trkpt lat="42.210410743526126" lon="12.419944245582357"><ele>109.0</ele><time>2026-05-01T11:21:28.002Z</time></trkpt><trkpt lat="42.21047223951059" lon="12.420049998341344"><ele>109.33333333333334</ele><time>2026-05-01T11:21:29.002Z</time></trkpt><trkpt lat="42.2105325147189" lon="12.420153651765068"><ele>109.66666666666667</ele><time>2026-05-01T11:21:30.001Z</time></trkpt><trkpt lat="42.21058932306944" lon="12.420251343304665"><ele>110.0</ele><time>2026-05-01T11:21:31.001Z</time></trkpt><trkpt lat="42.2106425616216" lon="12.42034485123402"><ele>110.33333333333334</ele><time>2026-05-01T11:21:32.001Z</time></trkpt><trkpt lat="42.210707040396585" lon="12.42042213691552"><ele>110.66666666666667</ele><time>2026-05-01T11:21:33.001Z</time></trkpt><trkpt lat="42.210752848566756" lon="12.420510656110046"><ele>111.0</ele><time>2026-05-01T11:21:34Z</time></trkpt><trkpt lat="42.21079981509977" lon="12.420603279826976"><ele>112.5</ele><time>2026-05-01T11:21:35.001Z</time></trkpt><trkpt lat="42.210827598407725" lon="12.42070956318753"><ele>114.0</ele><time>2026-05-01T11:21:36Z</time></trkpt><trkpt lat="42.21086084818929" lon="12.420814489741792"><ele>115.5</ele><time>2026-05-01T11:21:37Z</time></trkpt><trkpt lat="42.21088225424531" lon="12.420924385030249"><ele>117.0</ele><time>2026-05-01T11:21:38Z</time></trkpt><trkpt lat="42.21089629185407" lon="12.42103781404513"><ele>118.5</ele><time>2026-05-01T11:21:39Z</time></trkpt><trkpt lat="42.21089921632453" lon="12.421151666729537"><ele>120.0</ele><time>2026-05-01T11:21:40Z</time></trkpt><trkpt lat="42.21090462459746" lon="12.42126440377645"><ele>121.16666666666667</ele><time>2026-05-01T11:21:41Z</time></trkpt><trkpt lat="42.210892749668446" lon="12.421381846684271"><ele>122.33333333333334</ele><time>2026-05-01T11:21:42Z</time></trkpt><trkpt lat="42.21090088585614" lon="12.421496913091392"><ele>123.5</ele><time>2026-05-01T11:21:43Z</time></trkpt><trkpt lat="42.21089494732132" lon="12.42161062261868"><ele>124.66666666666667</ele><time>2026-05-01T11:21:44Z</time></trkpt><trkpt lat="42.21090356478313" lon="12.421720760925597"><ele>125.83333333333334</ele><time>2026-05-01T11:21:45Z</time></trkpt><trkpt lat="42.210889166221705" lon="12.421835184549442"><ele>127.0</ele><time>2026-05-01T11:21:46Z</time></trkpt><trkpt lat="42.21089006665641" lon="12.42194607740415"><ele>127.00000000000001</ele><time>2026-05-01T11:21:47Z</time></trkpt><trkpt lat="42.21089170589252" lon="12.422063479358647"><ele>127.0</ele><time>2026-05-01T11:21:48Z</time></trkpt><trkpt lat="42.21089332527373" lon="12.42217945927412"><ele>127.0</ele><time>2026-05-01T11:21:49Z</time></trkpt><trkpt lat="42.210896334635606" lon="12.422298318021054"><ele>127.0</ele><time>2026-05-01T11:21:50Z</time></trkpt><trkpt lat="42.21090399282068" lon="12.422419985431256"><ele>127.00000000000001</ele><time>2026-05-01T11:21:51Z</time></trkpt><trkpt lat="42.21091851046451" lon="12.422546729719546"><ele>127.0</ele><time>2026-05-01T11:21:52Z</time></trkpt><trkpt lat="42.21095174992507" lon="12.422671828661368"><ele>129.2</ele><time>2026-05-01T11:21:53Z</time></trkpt><trkpt lat="42.21101032983343" lon="12.422776352961014"><ele>131.39999999999998</ele><time>2026-05-01T11:21:54Z</time></trkpt><trkpt lat="42.211085877060235" lon="12.42285227413637"><ele>133.60000000000002</ele><time>2026-05-01T11:21:55Z</time></trkpt><trkpt lat="42.211166366765994" lon="12.42290514433481"><ele>135.8</ele><time>2026-05-01T11:21:56Z</time></trkpt><trkpt lat="42.21125267120173" lon="12.422950492166054"><ele>138.0</ele><time>2026-05-01T11:21:57Z</time></trkpt><trkpt lat="42.21133703026099" lon="12.423000707992271"><ele>137.8</ele><time>2026-05-01T11:21:58Z</time></trkpt><trkpt lat="42.21142853874116" lon="12.423038275351903"><ele>137.60000000000002</ele><time>2026-05-01T11:21:59Z</time></trkpt><trkpt lat="42.21151503576221" lon="12.423106041199082"><ele>137.39999999999998</ele><time>2026-05-01T11:22:00.001Z</time></trkpt><trkpt lat="42.21161045396595" lon="12.423143575460301"><ele>137.2</ele><time>2026-05-01T11:22:01.001Z</time></trkpt><trkpt lat="42.21169555473343" lon="12.423215280473679"><ele>137.0</ele><time>2026-05-01T11:22:02.001Z</time></trkpt><trkpt lat="42.21179180071104" lon="12.423254091098798"><ele>137.0</ele><time>2026-05-01T11:22:03.001Z</time></trkpt><trkpt lat="42.211881015678735" lon="12.423315496169298"><ele>137.0</ele><time>2026-05-01T11:22:04.001Z</time></trkpt><trkpt lat="42.21197125360416" lon="12.423371934127163"><ele>137.0</ele><time>2026-05-01T11:22:05.001Z</time></trkpt><trkpt lat="42.21207301092261" lon="12.423404892308726"><ele>137.0</ele><time>2026-05-01T11:22:06.001Z</time></trkpt><trkpt lat="42.21216578851057" lon="12.423460298128386"><ele>137.0</ele><time>2026-05-01T11:22:07.001Z</time></trkpt><trkpt lat="42.21226493928208" lon="12.423490056398494"><ele>134.0</ele><time>2026-05-01T11:22:08.001Z</time></trkpt><trkpt lat="42.212364539288565" lon="12.423518949411141"><ele>131.0</ele><time>2026-05-01T11:22:09.001Z</time></trkpt><trkpt lat="42.2124620014097" lon="12.423564564113905"><ele>127.99999999999999</ele><time>2026-05-01T11:22:10.001Z</time></trkpt><trkpt lat="42.212566395151576" lon="12.423593723757483"><ele>125.0</ele><time>2026-05-01T11:22:11.001Z</time></trkpt><trkpt lat="42.21266887152573" lon="12.423636119890492"><ele>122.0</ele><time>2026-05-01T11:22:12.001Z</time></trkpt><trkpt lat="42.21276732648704" lon="12.423672399443818"><ele>122.0</ele><time>2026-05-01T11:22:13.001Z</time></trkpt><trkpt lat="42.21286465045525" lon="12.423707504543454"><ele>121.99999999999999</ele><time>2026-05-01T11:22:14.001Z</time></trkpt><trkpt lat="42.2129629293767" lon="12.423749077989198"><ele>121.99999999999999</ele><time>2026-05-01T11:22:15.001Z</time></trkpt><trkpt lat="42.21306689471936" lon="12.42379309208975"><ele>122.0</ele><time>2026-05-01T11:22:16.001Z</time></trkpt><trkpt lat="42.21317263418693" lon="12.42383634414844"><ele>122.0</ele><time>2026-05-01T11:22:17.001Z</time></trkpt><trkpt lat="42.213281386426736" lon="12.423880496221663"><ele>130.25</ele><time>2026-05-01T11:22:18.001Z</time></trkpt><trkpt lat="42.21339311543142" lon="12.423929189846714"><ele>138.5</ele><time>2026-05-01T11:22:19.001Z</time></trkpt><trkpt lat="42.21350661160371" lon="12.423976595467007"><ele>146.75</ele><time>2026-05-01T11:22:20.001Z</time></trkpt><trkpt lat="42.21362063911805" lon="12.424020311393594"><ele>155.0</ele><time>2026-05-01T11:22:21.001Z</time></trkpt><trkpt lat="42.21373334097447" lon="12.424069942072038"><ele>155.0</ele><time>2026-05-01T11:22:22.001Z</time></trkpt><trkpt lat="42.21384325079575" lon="12.424118280981089"><ele>155.0</ele><time>2026-05-01T11:22:23.001Z</time></trkpt><trkpt lat="42.21394777616418" lon="12.424166058480079"><ele>155.0</ele><time>2026-05-01T11:22:24.001Z</time></trkpt><trkpt lat="42.21404269935877" lon="12.424210702339122"><ele>155.0</ele><time>2026-05-01T11:22:25.001Z</time></trkpt><trkpt lat="42.21412124752572" lon="12.424257638630758"><ele>155.0</ele><time>2026-05-01T11:22:26.001Z</time></trkpt><trkpt lat="42.214192278420995" lon="12.424301551745643"><ele>153.71428571428572</ele><time>2026-05-01T11:22:27.001Z</time></trkpt><trkpt lat="42.21426045433765" lon="12.424352674062384"><ele>152.42857142857142</ele><time>2026-05-01T11:22:28.001Z</time></trkpt><trkpt lat="42.21431592167765" lon="12.424404432026913"><ele>151.14285714285714</ele><time>2026-05-01T11:22:29.001Z</time></trkpt><trkpt lat="42.21437746037951" lon="12.424442502132166"><ele>149.85714285714286</ele><time>2026-05-01T11:22:30.001Z</time></trkpt><trkpt lat="42.21444303480528" lon="12.424456031306834"><ele>148.57142857142858</ele><time>2026-05-01T11:22:31.001Z</time></trkpt><trkpt lat="42.21451821176353" lon="12.424420804064937"><ele>147.28571428571428</ele><time>2026-05-01T11:22:32.001Z</time></trkpt><trkpt lat="42.21459461884153" lon="12.424366784140291"><ele>146.0</ele><time>2026-05-01T11:22:33.001Z</time></trkpt><trkpt lat="42.21463643250922" lon="12.424245776831526"><ele>146.0</ele><time>2026-05-01T11:22:34.001Z</time></trkpt><trkpt lat="42.21466732951473" lon="12.42412406762166"><ele>146.0</ele><time>2026-05-01T11:22:35.001Z</time></trkpt><trkpt lat="42.21467739560655" lon="12.423990275659582"><ele>146.0</ele><time>2026-05-01T11:22:36.001Z</time></trkpt><trkpt lat="42.21468025965509" lon="12.423842975148304"><ele>146.0</ele><time>2026-05-01T11:22:37.001Z</time></trkpt><trkpt lat="42.21470333033767" lon="12.423700200363802"><ele>146.0</ele><time>2026-05-01T11:22:38.001Z</time></trkpt><trkpt lat="42.21470103813602" lon="12.423578127045733"><ele>146.4</ele><time>2026-05-01T11:22:39.001Z</time></trkpt><trkpt lat="42.21475143367935" lon="12.42348119129045"><ele>146.8</ele><time>2026-05-01T11:22:40.001Z</time></trkpt><trkpt lat="42.21479962380813" lon="12.423381270033751"><ele>147.20000000000002</ele><time>2026-05-01T11:22:41.001Z</time></trkpt><trkpt lat="42.21487632891781" lon="12.42330800671872"><ele>147.6</ele><time>2026-05-01T11:22:42.001Z</time></trkpt><trkpt lat="42.21496284742861" lon="12.423251659195516"><ele>148.0</ele><time>2026-05-01T11:22:43.001Z</time></trkpt><trkpt lat="42.21505582004748" lon="12.423212560951317"><ele>148.0</ele><time>2026-05-01T11:22:44.001Z</time></trkpt><trkpt lat="42.21515964268653" lon="12.423179386299003"><ele>148.0</ele><time>2026-05-01T11:22:45.001Z</time></trkpt><trkpt lat="42.21526729790502" lon="12.4231500554568"><ele>148.0</ele><time>2026-05-01T11:22:46.001Z</time></trkpt><trkpt lat="42.21537498344016" lon="12.423120674779819"><ele>148.0</ele><time>2026-05-01T11:22:47.001Z</time></trkpt><trkpt lat="42.21548562111508" lon="12.423088790629883"><ele>148.0</ele><time>2026-05-01T11:22:48.001Z</time></trkpt><trkpt lat="42.21559567869123" lon="12.423065616473641"><ele>146.5</ele><time>2026-05-01T11:22:49.001Z</time></trkpt><trkpt lat="42.21570661867885" lon="12.423041454546906"><ele>145.0</ele><time>2026-05-01T11:22:50.001Z</time></trkpt><trkpt lat="42.215820716461685" lon="12.423018594807571"><ele>143.5</ele><time>2026-05-01T11:22:51.001Z</time></trkpt><trkpt lat="42.215934602154356" lon="12.422995535324343"><ele>142.0</ele><time>2026-05-01T11:22:52.001Z</time></trkpt><trkpt lat="42.216045010211204" lon="12.422967173942281"><ele>142.0</ele><time>2026-05-01T11:22:53.001Z</time></trkpt><trkpt lat="42.21614463392299" lon="12.422913559820076"><ele>142.0</ele><time>2026-05-01T11:22:54.001Z</time></trkpt><trkpt lat="42.21622515653444" lon="12.42282293083413"><ele>142.0</ele><time>2026-05-01T11:22:55.001Z</time></trkpt><trkpt lat="42.21628555450623" lon="12.422701732888305"><ele>142.0</ele><time>2026-05-01T11:22:56.001Z</time></trkpt><trkpt lat="42.21632037392619" lon="12.422556478248675"><ele>142.0</ele><time>2026-05-01T11:22:57.001Z</time></trkpt><trkpt lat="42.21634173519559" lon="12.422399099199591"><ele>142.0</ele><time>2026-05-01T11:22:58.001Z</time></trkpt><trkpt lat="42.21635359815266" lon="12.422228914789804"><ele>142.0</ele><time>2026-05-01T11:22:59.001Z</time></trkpt><trkpt lat="42.216364973147435" lon="12.422055224855002"><ele>142.0</ele><time>2026-05-01T11:23:00.001Z</time></trkpt><trkpt lat="42.21637157737426" lon="12.421879693856791"><ele>142.0</ele><time>2026-05-01T11:23:01.001Z</time></trkpt><trkpt lat="42.216368171075466" lon="12.421717170282717"><ele>139.83333333333334</ele><time>2026-05-01T11:23:02.001Z</time></trkpt><trkpt lat="42.21636486084401" lon="12.421576518757327"><ele>137.66666666666669</ele><time>2026-05-01T11:23:03.001Z</time></trkpt><trkpt lat="42.21636435739867" lon="12.421452137786769"><ele>135.5</ele><time>2026-05-01T11:23:04.001Z</time></trkpt><trkpt lat="42.21636357310993" lon="12.421345653663218"><ele>133.33333333333334</ele><time>2026-05-01T11:23:05.001Z</time></trkpt><trkpt lat="42.21637251748308" lon="12.421253965761096"><ele>131.16666666666666</ele><time>2026-05-01T11:23:06.001Z</time></trkpt><trkpt lat="42.21643034197616" lon="12.421150759853573"><ele>129.0</ele><time>2026-05-01T11:23:08.002Z</time></trkpt><trkpt lat="42.216526766046066" lon="12.421183107477034"><ele>129.0</ele><time>2026-05-01T11:23:10.002Z</time></trkpt><trkpt lat="42.21653993072121" lon="12.421336522229389"><ele>129.0</ele><time>2026-05-01T11:23:12.002Z</time></trkpt><trkpt lat="42.21649306902294" lon="12.421484245840341"><ele>129.0</ele><time>2026-05-01T11:23:14.002Z</time></trkpt><trkpt lat="42.21647600790501" lon="12.42157251018663"><ele>129.0</ele><time>2026-05-01T11:23:15.002Z</time></trkpt><trkpt lat="42.21646233437168" lon="12.421671845593282"><ele>129.0</ele><time>2026-05-01T11:23:16.002Z</time></trkpt><trkpt lat="42.216455068587976" lon="12.421775526413029"><ele>129.0</ele><time>2026-05-01T11:23:17.002Z</time></trkpt><trkpt lat="42.21645091024166" lon="12.421887830516539"><ele>129.0</ele><time>2026-05-01T11:23:18.002Z</time></trkpt><trkpt lat="42.216460352771" lon="12.422000104111936"><ele>129.0</ele><time>2026-05-01T11:23:19.002Z</time></trkpt><trkpt lat="42.21647529849504" lon="12.422104915005704"><ele>129.0</ele><time>2026-05-01T11:23:20.002Z</time></trkpt><trkpt lat="42.21648701094822" lon="12.42220481855731"><ele>129.0</ele><time>2026-05-01T11:23:21.002Z</time></trkpt><trkpt lat="42.21649236360705" lon="12.422307229947513"><ele>129.0</ele><time>2026-05-01T11:23:22.002Z</time></trkpt><trkpt lat="42.21649165542095" lon="12.422413022707133"><ele>131.16666666666666</ele><time>2026-05-01T11:23:23.002Z</time></trkpt><trkpt lat="42.216477053965406" lon="12.42251677578923"><ele>133.33333333333334</ele><time>2026-05-01T11:23:24.002Z</time></trkpt><trkpt lat="42.21645867069361" lon="12.422620611739033"><ele>135.5</ele><time>2026-05-01T11:23:25.002Z</time></trkpt><trkpt lat="42.2164400593829" lon="12.42272533923465"><ele>137.66666666666669</ele><time>2026-05-01T11:23:26.002Z</time></trkpt><trkpt lat="42.21641688713245" lon="12.422827932717338"><ele>139.83333333333334</ele><time>2026-05-01T11:23:27.002Z</time></trkpt><trkpt lat="42.21639858582719" lon="12.422923777644469"><ele>142.0</ele><time>2026-05-01T11:23:28.002Z</time></trkpt><trkpt lat="42.21639272662985" lon="12.423028954063872"><ele>146.85714285714286</ele><time>2026-05-01T11:23:29.002Z</time></trkpt><trkpt lat="42.216371956735905" lon="12.423118634291768"><ele>151.7142857142857</ele><time>2026-05-01T11:23:30.002Z</time></trkpt><trkpt lat="42.2163622663631" lon="12.42321020857774"><ele>156.57142857142856</ele><time>2026-05-01T11:23:31.002Z</time></trkpt><trkpt lat="42.21636399496861" lon="12.42330274628423"><ele>161.42857142857142</ele><time>2026-05-01T11:23:32.002Z</time></trkpt><trkpt lat="42.21632616031664" lon="12.423377133475448"><ele>166.28571428571428</ele><time>2026-05-01T11:23:33.002Z</time></trkpt><trkpt lat="42.21627698181122" lon="12.423439103861188"><ele>171.14285714285714</ele><time>2026-05-01T11:23:34.002Z</time></trkpt><trkpt lat="42.216213025331754" lon="12.423478583111077"><ele>176.0</ele><time>2026-05-01T11:23:35.002Z</time></trkpt><trkpt lat="42.21614584986817" lon="12.423500784583744"><ele>176.0</ele><time>2026-05-01T11:23:36Z</time></trkpt><trkpt lat="42.21607561487354" lon="12.423501236442926"><ele>176.0</ele><time>2026-05-01T11:23:37Z</time></trkpt><trkpt lat="42.216000987699815" lon="12.423486946034645"><ele>176.0</ele><time>2026-05-01T11:23:38Z</time></trkpt><trkpt lat="42.21591941957205" lon="12.423490660231508"><ele>176.0</ele><time>2026-05-01T11:23:39Z</time></trkpt><trkpt lat="42.2158380754355" lon="12.423504543904647"><ele>176.0</ele><time>2026-05-01T11:23:40Z</time></trkpt><trkpt lat="42.21568762307828" lon="12.423495967668474"><ele>172.0</ele><time>2026-05-01T11:23:42Z</time></trkpt><trkpt lat="42.21561991960085" lon="12.423504913353094"><ele>168.0</ele><time>2026-05-01T11:23:43Z</time></trkpt><trkpt lat="42.2155521495026" lon="12.423517922319554"><ele>164.0</ele><time>2026-05-01T11:23:44Z</time></trkpt><trkpt lat="42.21548093091194" lon="12.423534357840307"><ele>160.0</ele><time>2026-05-01T11:23:45Z</time></trkpt><trkpt lat="42.21541127848432" lon="12.423560524832087"><ele>156.0</ele><time>2026-05-01T11:23:46Z</time></trkpt><trkpt lat="42.21534007908287" lon="12.423603967783938"><ele>152.0</ele><time>2026-05-01T11:23:47Z</time></trkpt><trkpt lat="42.215275250261534" lon="12.423672460968753"><ele>148.0</ele><time>2026-05-01T11:23:48Z</time></trkpt><trkpt lat="42.215230871761996" lon="12.423750630412322"><ele>151.66666666666669</ele><time>2026-05-01T11:23:49Z</time></trkpt><trkpt lat="42.21519981494696" lon="12.423844842152759"><ele>155.33333333333334</ele><time>2026-05-01T11:23:50Z</time></trkpt><trkpt lat="42.215190052918906" lon="12.423954857101302"><ele>159.0</ele><time>2026-05-01T11:23:51Z</time></trkpt><trkpt lat="42.21518371829963" lon="12.42406100945791"><ele>162.66666666666666</ele><time>2026-05-01T11:23:52Z</time></trkpt><trkpt lat="42.215177001436814" lon="12.424174471310238"><ele>166.33333333333331</ele><time>2026-05-01T11:23:53Z</time></trkpt><trkpt lat="42.21517212744198" lon="12.424294656877173"><ele>170.0</ele><time>2026-05-01T11:23:54Z</time></trkpt><trkpt lat="42.21516733920791" lon="12.424422602959831"><ele>170.0</ele><time>2026-05-01T11:23:55Z</time></trkpt><trkpt lat="42.21516289582393" lon="12.424545328267866"><ele>170.0</ele><time>2026-05-01T11:23:56Z</time></trkpt><trkpt lat="42.215161045442095" lon="12.424672882340436"><ele>170.0</ele><time>2026-05-01T11:23:57Z</time></trkpt><trkpt lat="42.215157291097896" lon="12.424791751260338"><ele>170.0</ele><time>2026-05-01T11:23:58Z</time></trkpt><trkpt lat="42.21515971060362" lon="12.424916056388724"><ele>170.0</ele><time>2026-05-01T11:23:59Z</time></trkpt><trkpt lat="42.215127878989094" lon="12.425014486320451"><ele>170.0</ele><time>2026-05-01T11:24:00Z</time></trkpt><trkpt lat="42.215126600338834" lon="12.425105148386624"><ele>172.66666666666666</ele><time>2026-05-01T11:24:01Z</time></trkpt><trkpt lat="42.215092979419" lon="12.425243262746339"><ele>175.33333333333331</ele><time>2026-05-01T11:24:03Z</time></trkpt><trkpt lat="42.21505842978714" lon="12.425344883888547"><ele>178.0</ele><time>2026-05-01T11:24:05Z</time></trkpt><trkpt lat="42.21505458902975" lon="12.425431103435756"><ele>180.66666666666666</ele><time>2026-05-01T11:24:07Z</time></trkpt><trkpt lat="42.215024740762374" lon="12.425516144546473"><ele>183.33333333333334</ele><time>2026-05-01T11:24:09Z</time></trkpt><trkpt lat="42.215013590537474" lon="12.425646236252234"><ele>186.0</ele><time>2026-05-01T11:24:11Z</time></trkpt><trkpt lat="42.21501347579492" lon="12.425752777648075"><ele>187.83333333333334</ele><time>2026-05-01T11:24:13Z</time></trkpt><trkpt lat="42.215019277019806" lon="12.425848067940533"><ele>189.66666666666669</ele><time>2026-05-01T11:24:20.001Z</time></trkpt><trkpt lat="42.21502895330772" lon="12.425933990923804"><ele>191.5</ele><time>2026-05-01T11:24:24.001Z</time></trkpt><trkpt lat="42.215044949154596" lon="12.426045483333924"><ele>193.33333333333334</ele><time>2026-05-01T11:24:35.001Z</time></trkpt><trkpt lat="42.21506825092864" lon="12.426206042438254"><ele>195.16666666666669</ele><time>2026-05-01T11:24:37.001Z</time></trkpt><trkpt lat="42.21508285398625" lon="12.426310279196105"><ele>197.0</ele><time>2026-05-01T11:24:38.001Z</time></trkpt><trkpt lat="42.215097271994026" lon="12.426413195089669"><ele>197.85714285714286</ele><time>2026-05-01T11:24:39.001Z</time></trkpt><trkpt lat="42.215125829227404" lon="12.42650498226713"><ele>198.71428571428572</ele><time>2026-05-01T11:24:40.001Z</time></trkpt><trkpt lat="42.215140088896185" lon="12.426603057157187"><ele>199.57142857142856</ele><time>2026-05-01T11:24:41.001Z</time></trkpt><trkpt lat="42.2151488238599" lon="12.426700099133575"><ele>200.42857142857144</ele><time>2026-05-01T11:24:42.001Z</time></trkpt><trkpt lat="42.215159794533065" lon="12.426796075939"><ele>201.28571428571428</ele><time>2026-05-01T11:24:43.001Z</time></trkpt><trkpt lat="42.21517516966293" lon="12.42688403407144"><ele>202.14285714285714</ele><time>2026-05-01T11:24:44.001Z</time></trkpt><trkpt lat="42.21519249463436" lon="12.426976922752218"><ele>203.0</ele><time>2026-05-01T11:24:45.001Z</time></trkpt><trkpt lat="42.21520539633322" lon="12.427061452619972"><ele>203.66666666666669</ele><time>2026-05-01T11:24:46.001Z</time></trkpt><trkpt lat="42.215224411095804" lon="12.427150437019153"><ele>204.33333333333334</ele><time>2026-05-01T11:24:47.001Z</time></trkpt><trkpt lat="42.21525429269725" lon="12.427233301069242"><ele>205.0</ele><time>2026-05-01T11:24:48.001Z</time></trkpt><trkpt lat="42.215289361453266" lon="12.42730757145607"><ele>205.66666666666669</ele><time>2026-05-01T11:24:49.001Z</time></trkpt><trkpt lat="42.215360292840046" lon="12.427432592880573"><ele>206.33333333333334</ele><time>2026-05-01T11:24:51.001Z</time></trkpt><trkpt lat="42.2154417782752" lon="12.427548012418166"><ele>207.0</ele><time>2026-05-01T11:24:53.001Z</time></trkpt><trkpt lat="42.21554902122202" lon="12.427672597781372"><ele>207.0</ele><time>2026-05-01T11:24:55.001Z</time></trkpt><trkpt lat="42.21561446181253" lon="12.427741966651789"><ele>207.0</ele><time>2026-05-01T11:24:56.001Z</time></trkpt><trkpt lat="42.21568946317278" lon="12.427825592397065"><ele>207.0</ele><time>2026-05-01T11:24:57.001Z</time></trkpt><trkpt lat="42.21576894131203" lon="12.427913446799641"><ele>207.0</ele><time>2026-05-01T11:24:58.001Z</time></trkpt><trkpt lat="42.21584945527765" lon="12.428013047309612"><ele>207.0</ele><time>2026-05-01T11:24:59.001Z</time></trkpt><trkpt lat="42.21593864144056" lon="12.428108266199393"><ele>206.33333333333331</ele><time>2026-05-01T11:25:00.001Z</time></trkpt><trkpt lat="42.21603200568306" lon="12.428210203207692"><ele>205.66666666666666</ele><time>2026-05-01T11:25:01.001Z</time></trkpt><trkpt lat="42.216229235518334" lon="12.428460343766293"><ele>205.0</ele><time>2026-05-01T11:25:03.001Z</time></trkpt><trkpt lat="42.21633836084319" lon="12.4285819827777"><ele>205.0</ele><time>2026-05-01T11:25:04.001Z</time></trkpt><trkpt lat="42.21645317480248" lon="12.428709919886888"><ele>205.0</ele><time>2026-05-01T11:25:05.001Z</time></trkpt><trkpt lat="42.21669122496993" lon="12.42896436976323"><ele>204.0</ele><time>2026-05-01T11:25:07.001Z</time></trkpt><trkpt lat="42.216812608460984" lon="12.429098727609789"><ele>203.0</ele><time>2026-05-01T11:25:08.001Z</time></trkpt><trkpt lat="42.2169369221508" lon="12.429236277195315"><ele>202.0</ele><time>2026-05-01T11:25:09.001Z</time></trkpt><trkpt lat="42.21706331791905" lon="12.429382312243233"><ele>202.0</ele><time>2026-05-01T11:25:10.001Z</time></trkpt><trkpt lat="42.217192935868006" lon="12.42953002139094"><ele>202.0</ele><time>2026-05-01T11:25:11.001Z</time></trkpt><trkpt lat="42.21732160605182" lon="12.42968091986157"><ele>202.0</ele><time>2026-05-01T11:25:12.001Z</time></trkpt><trkpt lat="42.21746471517934" lon="12.429836090551753"><ele>201.0</ele><time>2026-05-01T11:25:13.001Z</time></trkpt><trkpt lat="42.21760637018464" lon="12.429989601312958"><ele>200.0</ele><time>2026-05-01T11:25:14.001Z</time></trkpt><trkpt lat="42.21774818331394" lon="12.430150840479122"><ele>199.0</ele><time>2026-05-01T11:25:15.001Z</time></trkpt><trkpt lat="42.21789307422681" lon="12.430313026494437"><ele>199.66666666666666</ele><time>2026-05-01T11:25:16.001Z</time></trkpt><trkpt lat="42.218038850015006" lon="12.43047537692412"><ele>200.33333333333331</ele><time>2026-05-01T11:25:17.001Z</time></trkpt><trkpt lat="42.2181887739418" lon="12.43063962156921"><ele>201.0</ele><time>2026-05-01T11:25:18.001Z</time></trkpt><trkpt lat="42.218342218384635" lon="12.430806634202538"><ele>199.0</ele><time>2026-05-01T11:25:19.001Z</time></trkpt><trkpt lat="42.21849563474723" lon="12.430973780431385"><ele>197.0</ele><time>2026-05-01T11:25:20.001Z</time></trkpt><trkpt lat="42.21863725546615" lon="12.431160387667175"><ele>195.0</ele><time>2026-05-01T11:25:21.001Z</time></trkpt><trkpt lat="42.21879020757718" lon="12.431331372036837"><ele>194.66666666666669</ele><time>2026-05-01T11:25:22.001Z</time></trkpt><trkpt lat="42.21894261318819" lon="12.43150200091945"><ele>194.33333333333334</ele><time>2026-05-01T11:25:23.002Z</time></trkpt><trkpt lat="42.21909294831804" lon="12.431670542539088"><ele>194.0</ele><time>2026-05-01T11:25:24.002Z</time></trkpt><trkpt lat="42.21924041839778" lon="12.431837281564428"><ele>194.0</ele><time>2026-05-01T11:25:25.002Z</time></trkpt><trkpt lat="42.219389118261965" lon="12.432005458654277"><ele>194.0</ele><time>2026-05-01T11:25:26.002Z</time></trkpt><trkpt lat="42.219532844330566" lon="12.432168010394733"><ele>194.0</ele><time>2026-05-01T11:25:27.002Z</time></trkpt><trkpt lat="42.21967545058021" lon="12.432329295586419"><ele>194.0</ele><time>2026-05-01T11:25:28.002Z</time></trkpt><trkpt lat="42.21981895315877" lon="12.432489633515939"><ele>194.0</ele><time>2026-05-01T11:25:29.002Z</time></trkpt><trkpt lat="42.21995814144275" lon="12.432642060336164"><ele>194.0</ele><time>2026-05-01T11:25:30.002Z</time></trkpt><trkpt lat="42.22009149324286" lon="12.432788095590572"><ele>194.0</ele><time>2026-05-01T11:25:31.002Z</time></trkpt><trkpt lat="42.22022078752237" lon="12.432933442948825"><ele>194.0</ele><time>2026-05-01T11:25:32.002Z</time></trkpt><trkpt lat="42.220347715730526" lon="12.43307659612342"><ele>194.0</ele><time>2026-05-01T11:25:33.002Z</time></trkpt><trkpt lat="42.22047388407538" lon="12.433220598002597"><ele>194.0</ele><time>2026-05-01T11:25:34.002Z</time></trkpt><trkpt lat="42.220600154925286" lon="12.43336416135176"><ele>194.0</ele><time>2026-05-01T11:25:35.002Z</time></trkpt><trkpt lat="42.22073570630777" lon="12.433489961877628"><ele>194.0</ele><time>2026-05-01T11:25:36.002Z</time></trkpt><trkpt lat="42.220858897427135" lon="12.433632926934282"><ele>194.0</ele><time>2026-05-01T11:25:37.002Z</time></trkpt><trkpt lat="42.220978727283935" lon="12.433769517161602"><ele>194.0</ele><time>2026-05-01T11:25:38.002Z</time></trkpt><trkpt lat="42.221098786320916" lon="12.433909338376047"><ele>194.0</ele><time>2026-05-01T11:25:39.002Z</time></trkpt><trkpt lat="42.22120945410079" lon="12.434054924675213"><ele>194.5</ele><time>2026-05-01T11:25:40.002Z</time></trkpt><trkpt lat="42.22130901846509" lon="12.43419918682502"><ele>195.0</ele><time>2026-05-01T11:25:41.002Z</time></trkpt><trkpt lat="42.22140616802156" lon="12.434344804662013"><ele>195.5</ele><time>2026-05-01T11:25:42Z</time></trkpt><trkpt lat="42.22150828488457" lon="12.434492390624335"><ele>196.0</ele><time>2026-05-01T11:25:43Z</time></trkpt><trkpt lat="42.22160357773298" lon="12.434642756742141"><ele>193.0</ele><time>2026-05-01T11:25:44Z</time></trkpt><trkpt lat="42.22172335869781" lon="12.434778123792146"><ele>190.0</ele><time>2026-05-01T11:25:45Z</time></trkpt><trkpt lat="42.221857585419315" lon="12.434892741563866"><ele>187.0</ele><time>2026-05-01T11:25:46Z</time></trkpt><trkpt lat="42.22199672224805" lon="12.4349937574918"><ele>187.0</ele><time>2026-05-01T11:25:47Z</time></trkpt><trkpt lat="42.222143243370304" lon="12.435094837011391"><ele>187.0</ele><time>2026-05-01T11:25:48Z</time></trkpt><trkpt lat="42.22229550490241" lon="12.435198588712948"><ele>187.0</ele><time>2026-05-01T11:25:49Z</time></trkpt><trkpt lat="42.22244923631156" lon="12.43530302232619"><ele>188.33333333333334</ele><time>2026-05-01T11:25:50Z</time></trkpt><trkpt lat="42.22260015525654" lon="12.435405972938167"><ele>189.66666666666666</ele><time>2026-05-01T11:25:51Z</time></trkpt><trkpt lat="42.22275198207871" lon="12.43551315832507"><ele>191.0</ele><time>2026-05-01T11:25:52Z</time></trkpt><trkpt lat="42.2229096175158" lon="12.435586725700801"><ele>188.66666666666666</ele><time>2026-05-01T11:25:53Z</time></trkpt><trkpt lat="42.223054068047745" lon="12.435686331976662"><ele>186.33333333333334</ele><time>2026-05-01T11:25:54Z</time></trkpt><trkpt lat="42.22320411245731" lon="12.435786910463715"><ele>184.0</ele><time>2026-05-01T11:25:55Z</time></trkpt><trkpt lat="42.223349250247" lon="12.435892158848324"><ele>184.0</ele><time>2026-05-01T11:25:56Z</time></trkpt><trkpt lat="42.223480556367" lon="12.436022601004995"><ele>184.0</ele><time>2026-05-01T11:25:57Z</time></trkpt><trkpt lat="42.22361796615401" lon="12.436121149099423"><ele>184.0</ele><time>2026-05-01T11:25:58Z</time></trkpt><trkpt lat="42.223746323777355" lon="12.436200542379659"><ele>184.0</ele><time>2026-05-01T11:25:59Z</time></trkpt><trkpt lat="42.223840544258195" lon="12.436292400120058"><ele>184.0</ele><time>2026-05-01T11:26:00Z</time></trkpt><trkpt lat="42.22391635122649" lon="12.436366784489259"><ele>184.0</ele><time>2026-05-01T11:26:01Z</time></trkpt><trkpt lat="42.22394276373488" lon="12.436497860037893"><ele>184.0</ele><time>2026-05-01T11:26:02Z</time></trkpt><trkpt lat="42.22391432737716" lon="12.436636396674283"><ele>184.0</ele><time>2026-05-01T11:26:03Z</time></trkpt><trkpt lat="42.22384351451041" lon="12.43672599963512"><ele>181.0</ele><time>2026-05-01T11:26:04Z</time></trkpt><trkpt lat="42.22375088526797" lon="12.436773420256092"><ele>178.0</ele><time>2026-05-01T11:26:05Z</time></trkpt><trkpt lat="42.22363352350569" lon="12.436797138922511"><ele>175.0</ele><time>2026-05-01T11:26:06Z</time></trkpt><trkpt lat="42.22351501499854" lon="12.436828600610138"><ele>172.0</ele><time>2026-05-01T11:26:07Z</time></trkpt><trkpt lat="42.223424105993274" lon="12.436899651372784"><ele>169.0</ele><time>2026-05-01T11:26:08Z</time></trkpt><trkpt lat="42.22336017807795" lon="12.436990176632577"><ele>169.0</ele><time>2026-05-01T11:26:09Z</time></trkpt><trkpt lat="42.22333612685095" lon="12.437094222904545"><ele>169.0</ele><time>2026-05-01T11:26:26Z</time></trkpt><trkpt lat="42.223319006779555" lon="12.437176406171984"><ele>169.0</ele><time>2026-05-01T11:26:28Z</time></trkpt><trkpt lat="42.22329917630573" lon="12.437333900117189"><ele>169.0</ele><time>2026-05-01T11:26:30Z</time></trkpt><trkpt lat="42.223295720823366" lon="12.437423787478712"><ele>169.0</ele><time>2026-05-01T11:26:31.001Z</time></trkpt><trkpt lat="42.22328394507274" lon="12.437576617184419"><ele>169.0</ele><time>2026-05-01T11:26:33.001Z</time></trkpt><trkpt lat="42.22326599613989" lon="12.437754079208068"><ele>167.83333333333334</ele><time>2026-05-01T11:26:35.001Z</time></trkpt><trkpt lat="42.223257111260246" lon="12.4378573449073"><ele>166.66666666666669</ele><time>2026-05-01T11:26:36.001Z</time></trkpt><trkpt lat="42.22324989767663" lon="12.437958371105912"><ele>165.5</ele><time>2026-05-01T11:26:37.001Z</time></trkpt><trkpt lat="42.22324246863146" lon="12.43805869651128"><ele>164.33333333333334</ele><time>2026-05-01T11:26:38.001Z</time></trkpt><trkpt lat="42.22323842713404" lon="12.438147127683187"><ele>163.16666666666666</ele><time>2026-05-01T11:26:39.001Z</time></trkpt><trkpt lat="42.22323329002569" lon="12.43825150290206"><ele>162.0</ele><time>2026-05-01T11:26:40.001Z</time></trkpt><trkpt lat="42.22322229466785" lon="12.438365233844639"><ele>162.0</ele><time>2026-05-01T11:26:41.001Z</time></trkpt><trkpt lat="42.22320781392472" lon="12.438483812895004"><ele>162.0</ele><time>2026-05-01T11:26:42.001Z</time></trkpt><trkpt lat="42.22319973416921" lon="12.4386026829524"><ele>162.0</ele><time>2026-05-01T11:26:43.001Z</time></trkpt><trkpt lat="42.22319848497097" lon="12.438720770774024"><ele>162.0</ele><time>2026-05-01T11:26:44.001Z</time></trkpt><trkpt lat="42.22320329381995" lon="12.438842072995298"><ele>162.0</ele><time>2026-05-01T11:26:45.001Z</time></trkpt><trkpt lat="42.223220885508645" lon="12.43897105721915"><ele>165.6</ele><time>2026-05-01T11:26:46.001Z</time></trkpt><trkpt lat="42.22324945484042" lon="12.439095372277837"><ele>169.2</ele><time>2026-05-01T11:26:47.001Z</time></trkpt><trkpt lat="42.223285364852586" lon="12.439225697378044"><ele>172.8</ele><time>2026-05-01T11:26:48.001Z</time></trkpt><trkpt lat="42.22332059471899" lon="12.439354917065994"><ele>176.4</ele><time>2026-05-01T11:26:49.001Z</time></trkpt><trkpt lat="42.223346384979365" lon="12.439479880804138"><ele>180.0</ele><time>2026-05-01T11:26:50.001Z</time></trkpt><trkpt lat="42.2233880201123" lon="12.439600662325512"><ele>182.0</ele><time>2026-05-01T11:26:51.001Z</time></trkpt><trkpt lat="42.223427232087005" lon="12.439722742940932"><ele>184.0</ele><time>2026-05-01T11:26:52.001Z</time></trkpt><trkpt lat="42.22347638695411" lon="12.43983650373279"><ele>186.0</ele><time>2026-05-01T11:26:53.001Z</time></trkpt><trkpt lat="42.22350793165879" lon="12.439964529910522"><ele>188.0</ele><time>2026-05-01T11:26:54.001Z</time></trkpt><trkpt lat="42.223561927541" lon="12.440081981509767"><ele>190.0</ele><time>2026-05-01T11:26:55.001Z</time></trkpt><trkpt lat="42.22362669755195" lon="12.440192423154322"><ele>190.0</ele><time>2026-05-01T11:26:56.001Z</time></trkpt><trkpt lat="42.22370625186349" lon="12.440290736192578"><ele>190.0</ele><time>2026-05-01T11:26:57.001Z</time></trkpt><trkpt lat="42.223794226234766" lon="12.440379016083485"><ele>190.0</ele><time>2026-05-01T11:26:58.001Z</time></trkpt><trkpt lat="42.22388807761219" lon="12.44046037836054"><ele>190.0</ele><time>2026-05-01T11:26:59.001Z</time></trkpt><trkpt lat="42.22398236241241" lon="12.44052505373664"><ele>190.0</ele><time>2026-05-01T11:27:00.001Z</time></trkpt><trkpt lat="42.22404950374152" lon="12.440624544859377"><ele>189.4</ele><time>2026-05-01T11:27:01.001Z</time></trkpt><trkpt lat="42.224095741491524" lon="12.440741768358018"><ele>188.8</ele><time>2026-05-01T11:27:02.001Z</time></trkpt><trkpt lat="42.22411136773042" lon="12.440881609922712"><ele>188.2</ele><time>2026-05-01T11:27:03.001Z</time></trkpt><trkpt lat="42.22411991572511" lon="12.441023085339715"><ele>187.6</ele><time>2026-05-01T11:27:04.001Z</time></trkpt><trkpt lat="42.22413642564177" lon="12.441172876580053"><ele>187.0</ele><time>2026-05-01T11:27:05.001Z</time></trkpt><trkpt lat="42.224150321013994" lon="12.441326784725455"><ele>187.0</ele><time>2026-05-01T11:27:06.001Z</time></trkpt><trkpt lat="42.22416037209286" lon="12.441468944195938"><ele>187.0</ele><time>2026-05-01T11:27:07.001Z</time></trkpt><trkpt lat="42.22414872442609" lon="12.441584553618975"><ele>187.0</ele><time>2026-05-01T11:27:08.001Z</time></trkpt><trkpt lat="42.22411181488077" lon="12.441663690360786"><ele>187.0</ele><time>2026-05-01T11:27:09.001Z</time></trkpt><trkpt lat="42.22405263992532" lon="12.441732935593764"><ele>187.0</ele><time>2026-05-01T11:27:10.001Z</time></trkpt><trkpt lat="42.22397970728738" lon="12.441789794025548"><ele>187.0</ele><time>2026-05-01T11:27:11.001Z</time></trkpt><trkpt lat="42.223910855990816" lon="12.441854446978436"><ele>190.2</ele><time>2026-05-01T11:27:12.001Z</time></trkpt><trkpt lat="42.223863264636606" lon="12.441956846691497"><ele>193.39999999999998</ele><time>2026-05-01T11:27:13.001Z</time></trkpt><trkpt lat="42.22384640268187" lon="12.442070359944637"><ele>196.60000000000002</ele><time>2026-05-01T11:27:14.001Z</time></trkpt><trkpt lat="42.22385348108535" lon="12.442191823044816"><ele>199.8</ele><time>2026-05-01T11:27:15.001Z</time></trkpt><trkpt lat="42.22386493549293" lon="12.442318839941716"><ele>203.0</ele><time>2026-05-01T11:27:16.001Z</time></trkpt><trkpt lat="42.223932598099665" lon="12.442421192235106"><ele>201.2</ele><time>2026-05-01T11:27:17.001Z</time></trkpt><trkpt lat="42.22400414647423" lon="12.442512794588852"><ele>199.4</ele><time>2026-05-01T11:27:18.001Z</time></trkpt><trkpt lat="42.224075628724975" lon="12.442606993861789"><ele>197.6</ele><time>2026-05-01T11:27:19.001Z</time></trkpt><trkpt lat="42.22413522360397" lon="12.442708207800205"><ele>195.79999999999998</ele><time>2026-05-01T11:27:20.001Z</time></trkpt><trkpt lat="42.2241794414627" lon="12.44283007349742"><ele>194.0</ele><time>2026-05-01T11:27:21.001Z</time></trkpt><trkpt lat="42.22421947861248" lon="12.442956075626054"><ele>195.39999999999998</ele><time>2026-05-01T11:27:22.001Z</time></trkpt><trkpt lat="42.22420997061974" lon="12.443100450404232"><ele>196.8</ele><time>2026-05-01T11:27:23.001Z</time></trkpt><trkpt lat="42.224235857093426" lon="12.443234284835937"><ele>198.2</ele><time>2026-05-01T11:27:24.001Z</time></trkpt><trkpt lat="42.22425640363368" lon="12.443360575807969"><ele>199.60000000000002</ele><time>2026-05-01T11:27:25.001Z</time></trkpt><trkpt lat="42.2243034390219" lon="12.443477844177796"><ele>201.0</ele><time>2026-05-01T11:27:26.001Z</time></trkpt><trkpt lat="42.22436753684768" lon="12.443577493337829"><ele>201.0</ele><time>2026-05-01T11:27:27.001Z</time></trkpt><trkpt lat="42.22444829079818" lon="12.443651477576813"><ele>201.0</ele><time>2026-05-01T11:27:28.001Z</time></trkpt><trkpt lat="42.22455185776241" lon="12.443653406771437"><ele>201.0</ele><time>2026-05-01T11:27:29.001Z</time></trkpt><trkpt lat="42.22465557585024" lon="12.443641159678737"><ele>201.0</ele><time>2026-05-01T11:27:30.001Z</time></trkpt><trkpt lat="42.224756024518314" lon="12.443621386524919"><ele>201.0</ele><time>2026-05-01T11:27:31.001Z</time></trkpt><trkpt lat="42.224859177760514" lon="12.44357348132845"><ele>201.20000000000002</ele><time>2026-05-01T11:27:32.001Z</time></trkpt><trkpt lat="42.22494627407858" lon="12.443502617007278"><ele>201.4</ele><time>2026-05-01T11:27:33.001Z</time></trkpt><trkpt lat="42.22497868623886" lon="12.443323756060872"><ele>201.6</ele><time>2026-05-01T11:27:34.002Z</time></trkpt><trkpt lat="42.22505308872632" lon="12.443255418383679"><ele>201.8</ele><time>2026-05-01T11:27:35.002Z</time></trkpt><trkpt lat="42.225127885583724" lon="12.443170467356593"><ele>202.0</ele><time>2026-05-01T11:27:36.002Z</time></trkpt><trkpt lat="42.225224925258296" lon="12.443106000661148"><ele>202.0</ele><time>2026-05-01T11:27:37.002Z</time></trkpt><trkpt lat="42.2253331337358" lon="12.443059596513862"><ele>202.0</ele><time>2026-05-01T11:27:38.002Z</time></trkpt><trkpt lat="42.22544418280677" lon="12.44300960424354"><ele>202.0</ele><time>2026-05-01T11:27:39.002Z</time></trkpt><trkpt lat="42.22553482035911" lon="12.443014902867478"><ele>202.0</ele><time>2026-05-01T11:27:40.002Z</time></trkpt><trkpt lat="42.22560319652442" lon="12.443004216913346"><ele>202.0</ele><time>2026-05-01T11:27:41.002Z</time></trkpt><trkpt lat="42.22568566356823" lon="12.443004007168168"><ele>202.66666666666666</ele><time>2026-05-01T11:27:42.002Z</time></trkpt><trkpt lat="42.22576673560048" lon="12.443004007169314"><ele>203.33333333333331</ele><time>2026-05-01T11:27:43.002Z</time></trkpt><trkpt lat="42.22584063368761" lon="12.442984663561353"><ele>204.0</ele><time>2026-05-01T11:27:44.002Z</time></trkpt><trkpt lat="42.225910007030656" lon="12.442990619640748"><ele>204.66666666666669</ele><time>2026-05-01T11:27:45.002Z</time></trkpt><trkpt lat="42.226003995436685" lon="12.443014114074368"><ele>205.33333333333334</ele><time>2026-05-01T11:27:47.002Z</time></trkpt><trkpt lat="42.22603885677677" lon="12.443093407769398"><ele>206.0</ele><time>2026-05-01T11:27:49Z</time></trkpt><trkpt lat="42.22602086281835" lon="12.44326714266738"><ele>206.00000000000003</ele><time>2026-05-01T11:27:52Z</time></trkpt><trkpt lat="42.22597740848686" lon="12.44332997483674"><ele>206.0</ele><time>2026-05-01T11:27:53Z</time></trkpt><trkpt lat="42.22594017220562" lon="12.443412060178238"><ele>206.0</ele><time>2026-05-01T11:27:54Z</time></trkpt><trkpt lat="42.22589450367505" lon="12.443518547051973"><ele>206.0</ele><time>2026-05-01T11:27:55Z</time></trkpt><trkpt lat="42.22585146430234" lon="12.443622270645024"><ele>206.00000000000003</ele><time>2026-05-01T11:27:56Z</time></trkpt><trkpt lat="42.22581008074245" lon="12.443737016740377"><ele>206.0</ele><time>2026-05-01T11:27:57Z</time></trkpt><trkpt lat="42.225763879490536" lon="12.443866039362595"><ele>206.4</ele><time>2026-05-01T11:27:58Z</time></trkpt><trkpt lat="42.22571053574884" lon="12.44399733253332"><ele>206.8</ele><time>2026-05-01T11:27:59Z</time></trkpt><trkpt lat="42.2256592019503" lon="12.444126684413984"><ele>207.20000000000002</ele><time>2026-05-01T11:28:00Z</time></trkpt><trkpt lat="42.22560156382475" lon="12.444255733946868"><ele>207.60000000000002</ele><time>2026-05-01T11:28:01Z</time></trkpt><trkpt lat="42.22553245806143" lon="12.444367859544496"><ele>208.0</ele><time>2026-05-01T11:28:02Z</time></trkpt><trkpt lat="42.22546430439938" lon="12.444490327035997"><ele>208.66666666666666</ele><time>2026-05-01T11:28:03Z</time></trkpt><trkpt lat="42.2254000671102" lon="12.444600198871402"><ele>209.33333333333331</ele><time>2026-05-01T11:28:04Z</time></trkpt><trkpt lat="42.22534785540319" lon="12.444696707266084"><ele>210.0</ele><time>2026-05-01T11:28:05Z</time></trkpt><trkpt lat="42.22529346703233" lon="12.444771022243396"><ele>210.66666666666669</ele><time>2026-05-01T11:28:06Z</time></trkpt><trkpt lat="42.22524516485693" lon="12.444861159375574"><ele>211.33333333333334</ele><time>2026-05-01T11:28:07Z</time></trkpt><trkpt lat="42.22518172052072" lon="12.444940930812114"><ele>212.0</ele><time>2026-05-01T11:28:08Z</time></trkpt><trkpt lat="42.225120580349206" lon="12.445017804103237"><ele>212.39999999999998</ele><time>2026-05-01T11:28:09Z</time></trkpt><trkpt lat="42.22504382439696" lon="12.445082876740946"><ele>212.79999999999998</ele><time>2026-05-01T11:28:10Z</time></trkpt><trkpt lat="42.2249741404531" lon="12.445168715013551"><ele>213.2</ele><time>2026-05-01T11:28:11Z</time></trkpt><trkpt lat="42.22490225910185" lon="12.445270877594702"><ele>213.6</ele><time>2026-05-01T11:28:12Z</time></trkpt><trkpt lat="42.2248420810888" lon="12.445355397724551"><ele>214.0</ele><time>2026-05-01T11:28:13Z</time></trkpt><trkpt lat="42.224790669731085" lon="12.445432903253762"><ele>216.2</ele><time>2026-05-01T11:28:14Z</time></trkpt><trkpt lat="42.224743868564694" lon="12.445516503782146"><ele>218.39999999999998</ele><time>2026-05-01T11:28:15Z</time></trkpt><trkpt lat="42.22469289566785" lon="12.445609812226923"><ele>220.6</ele><time>2026-05-01T11:28:16Z</time></trkpt><trkpt lat="42.22465022753909" lon="12.445730415438303"><ele>222.8</ele><time>2026-05-01T11:28:17Z</time></trkpt><trkpt lat="42.224597158762" lon="12.445882308338183"><ele>225.0</ele><time>2026-05-01T11:28:18Z</time></trkpt><trkpt lat="42.22454978706071" lon="12.44604795325717"><ele>225.0</ele><time>2026-05-01T11:28:19Z</time></trkpt><trkpt lat="42.224501572939594" lon="12.446207632348424"><ele>225.0</ele><time>2026-05-01T11:28:20Z</time></trkpt><trkpt lat="42.22446675660233" lon="12.446370973276155"><ele>225.0</ele><time>2026-05-01T11:28:21Z</time></trkpt><trkpt lat="42.22443382676483" lon="12.446547673003598"><ele>225.0</ele><time>2026-05-01T11:28:22Z</time></trkpt><trkpt lat="42.22440587384803" lon="12.446714081832889"><ele>225.0</ele><time>2026-05-01T11:28:23Z</time></trkpt><trkpt lat="42.22436846086613" lon="12.446854113982992"><ele>225.0</ele><time>2026-05-01T11:28:24Z</time></trkpt><trkpt lat="42.22434131245796" lon="12.446961040002918"><ele>225.0</ele><time>2026-05-01T11:28:25Z</time></trkpt><trkpt lat="42.22430953349972" lon="12.447101308610547"><ele>225.0</ele><time>2026-05-01T11:28:27Z</time></trkpt><trkpt lat="42.2244355296454" lon="12.447218019050183"><ele>224.33333333333334</ele><time>2026-05-01T11:28:30Z</time></trkpt><trkpt lat="42.22451759888093" lon="12.44724871285451"><ele>223.66666666666669</ele><time>2026-05-01T11:28:31Z</time></trkpt><trkpt lat="42.22459771120467" lon="12.447279374582333"><ele>223.0</ele><time>2026-05-01T11:28:32Z</time></trkpt><trkpt lat="42.22468246606095" lon="12.447315975466221"><ele>222.33333333333334</ele><time>2026-05-01T11:28:33.001Z</time></trkpt><trkpt lat="42.224766379527985" lon="12.447365921817678"><ele>221.66666666666669</ele><time>2026-05-01T11:28:34.001Z</time></trkpt><trkpt lat="42.22484618118426" lon="12.447419355157958"><ele>221.0</ele><time>2026-05-01T11:28:35.001Z</time></trkpt><trkpt lat="42.22492008470239" lon="12.447479502092206"><ele>219.4</ele><time>2026-05-01T11:28:36.001Z</time></trkpt><trkpt lat="42.22499470805616" lon="12.447559852951485"><ele>217.8</ele><time>2026-05-01T11:28:37.001Z</time></trkpt><trkpt lat="42.22508147595671" lon="12.447627928957823"><ele>216.20000000000002</ele><time>2026-05-01T11:28:38.001Z</time></trkpt><trkpt lat="42.22517432122257" lon="12.44768989795009"><ele>214.60000000000002</ele><time>2026-05-01T11:28:39.001Z</time></trkpt><trkpt lat="42.22526817277813" lon="12.447739861208206"><ele>213.0</ele><time>2026-05-01T11:28:40.001Z</time></trkpt><trkpt lat="42.22535868779973" lon="12.44777660848275"><ele>213.0</ele><time>2026-05-01T11:28:41.001Z</time></trkpt><trkpt lat="42.22545059362291" lon="12.447798210285622"><ele>213.0</ele><time>2026-05-01T11:28:42.001Z</time></trkpt><trkpt lat="42.22553804411279" lon="12.447838827544025"><ele>213.0</ele><time>2026-05-01T11:28:43.001Z</time></trkpt><trkpt lat="42.22562504720146" lon="12.447872174750602"><ele>213.0</ele><time>2026-05-01T11:28:44.001Z</time></trkpt><trkpt lat="42.22571528458621" lon="12.447902322335313"><ele>213.0</ele><time>2026-05-01T11:28:45.001Z</time></trkpt><trkpt lat="42.22580426489031" lon="12.447933183802377"><ele>211.83333333333334</ele><time>2026-05-01T11:28:46.001Z</time></trkpt><trkpt lat="42.22588525322349" lon="12.447985020671627"><ele>210.66666666666669</ele><time>2026-05-01T11:28:47.001Z</time></trkpt><trkpt lat="42.22596484926319" lon="12.448016668029721"><ele>209.5</ele><time>2026-05-01T11:28:48.001Z</time></trkpt><trkpt lat="42.22603334356773" lon="12.448043901317593"><ele>208.33333333333334</ele><time>2026-05-01T11:28:49.001Z</time></trkpt><trkpt lat="42.22609383039873" lon="12.448067950846351"><ele>207.16666666666669</ele><time>2026-05-01T11:28:50.001Z</time></trkpt><trkpt lat="42.22617117126713" lon="12.448098701480129"><ele>206.0</ele><time>2026-05-01T11:28:52.001Z</time></trkpt><trkpt lat="42.22626527772987" lon="12.447923901728494"><ele>206.00000000000003</ele><time>2026-05-01T11:28:54.001Z</time></trkpt><trkpt lat="42.22628079600651" lon="12.447835854927735"><ele>206.0</ele><time>2026-05-01T11:28:55.001Z</time></trkpt><trkpt lat="42.22629765046165" lon="12.447731848431737"><ele>206.0</ele><time>2026-05-01T11:28:56.001Z</time></trkpt><trkpt lat="42.22631270834827" lon="12.447626488068325"><ele>206.0</ele><time>2026-05-01T11:28:57.001Z</time></trkpt><trkpt lat="42.22632633624032" lon="12.44751837283338"><ele>206.00000000000003</ele><time>2026-05-01T11:28:58.001Z</time></trkpt><trkpt lat="42.22633883404786" lon="12.447415113683935"><ele>206.0</ele><time>2026-05-01T11:28:59.001Z</time></trkpt><trkpt lat="42.2263514482282" lon="12.447310892884468"><ele>206.00000000000003</ele><time>2026-05-01T11:29:00.001Z</time></trkpt><trkpt lat="42.22636379827446" lon="12.44720885527789"><ele>206.0</ele><time>2026-05-01T11:29:01.001Z</time></trkpt><trkpt lat="42.22637937698548" lon="12.447102404731888"><ele>206.0</ele><time>2026-05-01T11:29:02.001Z</time></trkpt><trkpt lat="42.22639527796229" lon="12.446989023816785"><ele>206.0</ele><time>2026-05-01T11:29:03.001Z</time></trkpt><trkpt lat="42.22641050731817" lon="12.44688043210097"><ele>206.00000000000003</ele><time>2026-05-01T11:29:04.001Z</time></trkpt><trkpt lat="42.226429189770535" lon="12.446775664063146"><ele>206.0</ele><time>2026-05-01T11:29:05.001Z</time></trkpt><trkpt lat="42.226450523107694" lon="12.446679568288877"><ele>205.16666666666669</ele><time>2026-05-01T11:29:06.001Z</time></trkpt><trkpt lat="42.226478657817616" lon="12.446595872124918"><ele>204.33333333333334</ele><time>2026-05-01T11:29:07.001Z</time></trkpt><trkpt lat="42.22651882070457" lon="12.446502850166729"><ele>203.5</ele><time>2026-05-01T11:29:08.001Z</time></trkpt><trkpt lat="42.226561377285314" lon="12.4463871554209"><ele>202.66666666666669</ele><time>2026-05-01T11:29:09.001Z</time></trkpt><trkpt lat="42.22659900211018" lon="12.446267849447397"><ele>201.83333333333334</ele><time>2026-05-01T11:29:10.001Z</time></trkpt><trkpt lat="42.22662978121771" lon="12.446152172503165"><ele>201.0</ele><time>2026-05-01T11:29:11.001Z</time></trkpt><trkpt lat="42.2266594551127" lon="12.44604380980365"><ele>200.8</ele><time>2026-05-01T11:29:12.001Z</time></trkpt><trkpt lat="42.22668969741114" lon="12.44592495577894"><ele>200.60000000000002</ele><time>2026-05-01T11:29:13.001Z</time></trkpt><trkpt lat="42.2267217104297" lon="12.445800714383159"><ele>200.4</ele><time>2026-05-01T11:29:14.001Z</time></trkpt><trkpt lat="42.22674294126264" lon="12.445658685377767"><ele>200.2</ele><time>2026-05-01T11:29:15.001Z</time></trkpt><trkpt lat="42.226726929748146" lon="12.445512678757243"><ele>200.0</ele><time>2026-05-01T11:29:16.001Z</time></trkpt><trkpt lat="42.22670564109462" lon="12.445399183510387"><ele>200.00000000000003</ele><time>2026-05-01T11:29:17.001Z</time></trkpt><trkpt lat="42.226687452844786" lon="12.445291702036766"><ele>200.0</ele><time>2026-05-01T11:29:18.001Z</time></trkpt><trkpt lat="42.226679316562894" lon="12.445174896534093"><ele>200.0</ele><time>2026-05-01T11:29:19.001Z</time></trkpt><trkpt lat="42.22667738474117" lon="12.445049788029596"><ele>200.0</ele><time>2026-05-01T11:29:20.001Z</time></trkpt><trkpt lat="42.226691750556505" lon="12.444925750749753"><ele>200.00000000000003</ele><time>2026-05-01T11:29:21.001Z</time></trkpt><trkpt lat="42.226706537469816" lon="12.444804348062902"><ele>200.0</ele><time>2026-05-01T11:29:22.001Z</time></trkpt><trkpt lat="42.226720121355875" lon="12.444699308823052"><ele>200.0</ele><time>2026-05-01T11:29:23.001Z</time></trkpt><trkpt lat="42.22673389678149" lon="12.444601179948476"><ele>200.0</ele><time>2026-05-01T11:29:24.001Z</time></trkpt><trkpt lat="42.226746760048634" lon="12.444512988289405"><ele>200.0</ele><time>2026-05-01T11:29:25.001Z</time></trkpt><trkpt lat="42.22677508392285" lon="12.444381393428486"><ele>200.0</ele><time>2026-05-01T11:29:27.001Z</time></trkpt><trkpt lat="42.22690149952236" lon="12.444488728943512"><ele>200.0</ele><time>2026-05-01T11:29:31.001Z</time></trkpt><trkpt lat="42.22698184118217" lon="12.44462228893175"><ele>200.00000000000003</ele><time>2026-05-01T11:29:33.001Z</time></trkpt><trkpt lat="42.227019136187096" lon="12.444693167036474"><ele>200.0</ele><time>2026-05-01T11:29:34.001Z</time></trkpt><trkpt lat="42.22706408878204" lon="12.444774280903491"><ele>200.0</ele><time>2026-05-01T11:29:35.001Z</time></trkpt><trkpt lat="42.227115701962475" lon="12.444862017636249"><ele>200.0</ele><time>2026-05-01T11:29:36.002Z</time></trkpt><trkpt lat="42.227169731926004" lon="12.44495537407849"><ele>200.00000000000003</ele><time>2026-05-01T11:29:37.002Z</time></trkpt><trkpt lat="42.22722372809406" lon="12.445059271568176"><ele>200.0</ele><time>2026-05-01T11:29:38.002Z</time></trkpt><trkpt lat="42.227286200728656" lon="12.445172240622883"><ele>199.6</ele><time>2026-05-01T11:29:39.002Z</time></trkpt><trkpt lat="42.227347752234664" lon="12.44528876402466"><ele>199.2</ele><time>2026-05-01T11:29:40.002Z</time></trkpt><trkpt lat="42.22741248477607" lon="12.445409955372087"><ele>198.8</ele><time>2026-05-01T11:29:41.002Z</time></trkpt><trkpt lat="42.2274728612317" lon="12.445525145766679"><ele>198.4</ele><time>2026-05-01T11:29:42.002Z</time></trkpt><trkpt lat="42.227538288011225" lon="12.445635045503778"><ele>198.0</ele><time>2026-05-01T11:29:43.002Z</time></trkpt><trkpt lat="42.227605836270584" lon="12.445743567242747"><ele>199.0</ele><time>2026-05-01T11:29:44.002Z</time></trkpt><trkpt lat="42.22767079065911" lon="12.445853202289532"><ele>200.0</ele><time>2026-05-01T11:29:45.002Z</time></trkpt><trkpt lat="42.22774797780279" lon="12.445954422427143"><ele>201.0</ele><time>2026-05-01T11:29:46.002Z</time></trkpt><trkpt lat="42.22782608388076" lon="12.44605794027806"><ele>202.0</ele><time>2026-05-01T11:29:47.002Z</time></trkpt><trkpt lat="42.22790443580065" lon="12.446161476859203"><ele>203.0</ele><time>2026-05-01T11:29:48.002Z</time></trkpt><trkpt lat="42.22798250104012" lon="12.446263982330512"><ele>203.5</ele><time>2026-05-01T11:29:49.002Z</time></trkpt><trkpt lat="42.22805921540873" lon="12.446369899254288"><ele>204.0</ele><time>2026-05-01T11:29:50.002Z</time></trkpt><trkpt lat="42.2281453746179" lon="12.446475745615064"><ele>204.5</ele><time>2026-05-01T11:29:51.002Z</time></trkpt><trkpt lat="42.228225419950036" lon="12.446591836769347"><ele>205.0</ele><time>2026-05-01T11:29:52.002Z</time></trkpt><trkpt lat="42.22830103208905" lon="12.446718040990927"><ele>207.0</ele><time>2026-05-01T11:29:53.002Z</time></trkpt><trkpt lat="42.22837512326442" lon="12.44685792748932"><ele>209.0</ele><time>2026-05-01T11:29:54Z</time></trkpt><trkpt lat="42.22845052193216" lon="12.447007438284214"><ele>211.0</ele><time>2026-05-01T11:29:55Z</time></trkpt><trkpt lat="42.228528911093484" lon="12.447165765896909"><ele>213.0</ele><time>2026-05-01T11:29:56Z</time></trkpt><trkpt lat="42.22860626972998" lon="12.44733374592714"><ele>213.0</ele><time>2026-05-01T11:29:57Z</time></trkpt><trkpt lat="42.22867491316142" lon="12.447510704088565"><ele>213.0</ele><time>2026-05-01T11:29:58Z</time></trkpt><trkpt lat="42.228736218732024" lon="12.447668607289732"><ele>213.0</ele><time>2026-05-01T11:29:59Z</time></trkpt><trkpt lat="42.22879726975078" lon="12.447840358410375"><ele>213.0</ele><time>2026-05-01T11:30:00Z</time></trkpt><trkpt lat="42.228847956796564" lon="12.448019602672757"><ele>213.0</ele><time>2026-05-01T11:30:01Z</time></trkpt><trkpt lat="42.228903990335894" lon="12.448187300567515"><ele>213.0</ele><time>2026-05-01T11:30:02Z</time></trkpt><trkpt lat="42.228953183771715" lon="12.448361386829863"><ele>213.0</ele><time>2026-05-01T11:30:03Z</time></trkpt><trkpt lat="42.229009879175884" lon="12.448528952120322"><ele>213.0</ele><time>2026-05-01T11:30:04Z</time></trkpt><trkpt lat="42.22905565621925" lon="12.448709021634848"><ele>216.25</ele><time>2026-05-01T11:30:05Z</time></trkpt><trkpt lat="42.22912012357087" lon="12.448882092101181"><ele>219.5</ele><time>2026-05-01T11:30:06Z</time></trkpt><trkpt lat="42.229205672364984" lon="12.449034481858673"><ele>222.75</ele><time>2026-05-01T11:30:07Z</time></trkpt><trkpt lat="42.22928688058865" lon="12.449192737716077"><ele>226.0</ele><time>2026-05-01T11:30:08Z</time></trkpt><trkpt lat="42.22937435811264" lon="12.449345052024338"><ele>226.0</ele><time>2026-05-01T11:30:09Z</time></trkpt><trkpt lat="42.22946849443918" lon="12.449492376744715"><ele>226.0</ele><time>2026-05-01T11:30:10Z</time></trkpt><trkpt lat="42.22956070903918" lon="12.449640023446824"><ele>226.0</ele><time>2026-05-01T11:30:11Z</time></trkpt><trkpt lat="42.229656087990776" lon="12.449785688358745"><ele>226.0</ele><time>2026-05-01T11:30:12Z</time></trkpt><trkpt lat="42.2297481225413" lon="12.449938702421575"><ele>228.25</ele><time>2026-05-01T11:30:13Z</time></trkpt><trkpt lat="42.229869722058964" lon="12.450044220802111"><ele>230.5</ele><time>2026-05-01T11:30:14Z</time></trkpt><trkpt lat="42.22997946275469" lon="12.450172740709597"><ele>232.75</ele><time>2026-05-01T11:30:15Z</time></trkpt><trkpt lat="42.23010143801868" lon="12.450276073151313"><ele>235.0</ele><time>2026-05-01T11:30:16Z</time></trkpt><trkpt lat="42.23022822639593" lon="12.450376595003352"><ele>236.25</ele><time>2026-05-01T11:30:17Z</time></trkpt><trkpt lat="42.23035860916272" lon="12.450469511715996"><ele>237.5</ele><time>2026-05-01T11:30:18Z</time></trkpt><trkpt lat="42.23049620124405" lon="12.45053654978332"><ele>238.75</ele><time>2026-05-01T11:30:19Z</time></trkpt><trkpt lat="42.23061683370609" lon="12.45063884107339"><ele>240.0</ele><time>2026-05-01T11:30:20Z</time></trkpt><trkpt lat="42.23074421333633" lon="12.450721041019275"><ele>241.75</ele><time>2026-05-01T11:30:21Z</time></trkpt><trkpt lat="42.23087217815537" lon="12.450807098384997"><ele>243.5</ele><time>2026-05-01T11:30:22Z</time></trkpt><trkpt lat="42.23099860200782" lon="12.450895335787566"><ele>245.25</ele><time>2026-05-01T11:30:23Z</time></trkpt><trkpt lat="42.231133776049134" lon="12.450986959170265"><ele>247.0</ele><time>2026-05-01T11:30:24Z</time></trkpt><trkpt lat="42.231278333945774" lon="12.451072489317035"><ele>247.0</ele><time>2026-05-01T11:30:25Z</time></trkpt><trkpt lat="42.2314298425222" lon="12.451153524216725"><ele>247.0</ele><time>2026-05-01T11:30:26Z</time></trkpt><trkpt lat="42.231584989499154" lon="12.451237698284569"><ele>247.0</ele><time>2026-05-01T11:30:27Z</time></trkpt><trkpt lat="42.23173243959432" lon="12.451316383491275"><ele>248.33333333333331</ele><time>2026-05-01T11:30:28Z</time></trkpt><trkpt lat="42.23187772971446" lon="12.451391512671984"><ele>249.66666666666669</ele><time>2026-05-01T11:30:29Z</time></trkpt><trkpt lat="42.23202112309127" lon="12.45145625524597"><ele>251.0</ele><time>2026-05-01T11:30:30Z</time></trkpt><trkpt lat="42.2321640832714" lon="12.45151710889572"><ele>251.0</ele><time>2026-05-01T11:30:31Z</time></trkpt><trkpt lat="42.23230418971739" lon="12.451575019522032"><ele>251.0</ele><time>2026-05-01T11:30:32Z</time></trkpt><trkpt lat="42.232426906877826" lon="12.451648875450513"><ele>251.0</ele><time>2026-05-01T11:30:33Z</time></trkpt><trkpt lat="42.23253613640996" lon="12.451742925543256"><ele>251.0</ele><time>2026-05-01T11:30:34.001Z</time></trkpt><trkpt lat="42.23264203482171" lon="12.451858229615038"><ele>250.25</ele><time>2026-05-01T11:30:35.001Z</time></trkpt><trkpt lat="42.232757384525506" lon="12.451977805659752"><ele>249.5</ele><time>2026-05-01T11:30:36.001Z</time></trkpt><trkpt lat="42.232856617888764" lon="12.452127704884905"><ele>248.75</ele><time>2026-05-01T11:30:37.001Z</time></trkpt><trkpt lat="42.23298141241124" lon="12.45224998293639"><ele>248.0</ele><time>2026-05-01T11:30:38.001Z</time></trkpt><trkpt lat="42.233115209438466" lon="12.452351823188451"><ele>248.33333333333334</ele><time>2026-05-01T11:30:39.001Z</time></trkpt><trkpt lat="42.233262440341505" lon="12.452446904783661"><ele>248.66666666666669</ele><time>2026-05-01T11:30:40.001Z</time></trkpt><trkpt lat="42.2334168158098" lon="12.452545281834944"><ele>249.0</ele><time>2026-05-01T11:30:41.001Z</time></trkpt><trkpt lat="42.23357193269342" lon="12.452645171461675"><ele>249.0</ele><time>2026-05-01T11:30:42.001Z</time></trkpt><trkpt lat="42.23372193605243" lon="12.452741490698756"><ele>249.0</ele><time>2026-05-01T11:30:43.001Z</time></trkpt><trkpt lat="42.23386125710464" lon="12.452825778876552"><ele>249.0</ele><time>2026-05-01T11:30:44.001Z</time></trkpt><trkpt lat="42.23400073527991" lon="12.452901802373741"><ele>248.66666666666669</ele><time>2026-05-01T11:30:45.001Z</time></trkpt><trkpt lat="42.234153295862704" lon="12.452966123568956"><ele>248.33333333333334</ele><time>2026-05-01T11:30:46.001Z</time></trkpt><trkpt lat="42.234312391874404" lon="12.453017273824358"><ele>248.0</ele><time>2026-05-01T11:30:47.001Z</time></trkpt><trkpt lat="42.23448257700577" lon="12.453056319374813"><ele>248.0</ele><time>2026-05-01T11:30:48.001Z</time></trkpt><trkpt lat="42.23466107378343" lon="12.45308942298327"><ele>248.0</ele><time>2026-05-01T11:30:49.001Z</time></trkpt><trkpt lat="42.23485540798469" lon="12.453120275091157"><ele>248.0</ele><time>2026-05-01T11:30:50.001Z</time></trkpt><trkpt lat="42.235057495719396" lon="12.453146014902694"><ele>247.0</ele><time>2026-05-01T11:30:51.001Z</time></trkpt><trkpt lat="42.235262416234406" lon="12.45316661911465"><ele>246.0</ele><time>2026-05-01T11:30:52.001Z</time></trkpt><trkpt lat="42.23546623309848" lon="12.453187112377986"><ele>245.0</ele><time>2026-05-01T11:30:53.001Z</time></trkpt><trkpt lat="42.23567234525189" lon="12.45320783642279"><ele>244.0</ele><time>2026-05-01T11:30:54.001Z</time></trkpt><trkpt lat="42.235877882509946" lon="12.453226958491168"><ele>243.0</ele><time>2026-05-01T11:30:55.001Z</time></trkpt><trkpt lat="42.23607463387735" lon="12.453221978891559"><ele>242.0</ele><time>2026-05-01T11:30:56.001Z</time></trkpt><trkpt lat="42.23626881918423" lon="12.453240114191894"><ele>242.0</ele><time>2026-05-01T11:30:57.001Z</time></trkpt><trkpt lat="42.23645852532636" lon="12.453247410458232"><ele>242.0</ele><time>2026-05-01T11:30:58.001Z</time></trkpt><trkpt lat="42.23664530376245" lon="12.453237107832168"><ele>242.0</ele><time>2026-05-01T11:30:59.001Z</time></trkpt><trkpt lat="42.2368350266231" lon="12.45320253397419"><ele>240.0</ele><time>2026-05-01T11:31:00.001Z</time></trkpt><trkpt lat="42.237026694295636" lon="12.453155556487735"><ele>238.0</ele><time>2026-05-01T11:31:01.001Z</time></trkpt><trkpt lat="42.23721890664599" lon="12.453102801951417"><ele>236.0</ele><time>2026-05-01T11:31:02.001Z</time></trkpt><trkpt lat="42.237408296304935" lon="12.453052770366165"><ele>235.0</ele><time>2026-05-01T11:31:03.001Z</time></trkpt><trkpt lat="42.23758592876739" lon="12.45300059133696"><ele>234.0</ele><time>2026-05-01T11:31:04.001Z</time></trkpt><trkpt lat="42.2377513886195" lon="12.45295902503495"><ele>233.0</ele><time>2026-05-01T11:31:05.001Z</time></trkpt><trkpt lat="42.237904334774825" lon="12.452938151426128"><ele>233.0</ele><time>2026-05-01T11:31:06.001Z</time></trkpt><trkpt lat="42.23805389093665" lon="12.452935756240223"><ele>233.0</ele><time>2026-05-01T11:31:07.001Z</time></trkpt><trkpt lat="42.23820364395581" lon="12.452957068510173"><ele>233.0</ele><time>2026-05-01T11:31:08.001Z</time></trkpt><trkpt lat="42.23835967379357" lon="12.452966971936256"><ele>233.0</ele><time>2026-05-01T11:31:09.001Z</time></trkpt><trkpt lat="42.238518847077366" lon="12.452969712268223"><ele>233.0</ele><time>2026-05-01T11:31:10.001Z</time></trkpt><trkpt lat="42.238684432581486" lon="12.452927688886263"><ele>233.0</ele><time>2026-05-01T11:31:11.001Z</time></trkpt><trkpt lat="42.2388585249206" lon="12.452884422065155"><ele>231.66666666666669</ele><time>2026-05-01T11:31:12.001Z</time></trkpt><trkpt lat="42.239041711558265" lon="12.452846118205093"><ele>230.33333333333331</ele><time>2026-05-01T11:31:13.001Z</time></trkpt><trkpt lat="42.23923526167473" lon="12.452812322090343"><ele>229.0</ele><time>2026-05-01T11:31:14.001Z</time></trkpt><trkpt lat="42.2394395103456" lon="12.452785045099969"><ele>229.0</ele><time>2026-05-01T11:31:15.001Z</time></trkpt><trkpt lat="42.23963646307129" lon="12.452752071711977"><ele>229.0</ele><time>2026-05-01T11:31:16.001Z</time></trkpt><trkpt lat="42.23981868624186" lon="12.45272500623802"><ele>229.0</ele><time>2026-05-01T11:31:17.001Z</time></trkpt><trkpt lat="42.23998798888861" lon="12.45269008099023"><ele>229.33333333333331</ele><time>2026-05-01T11:31:18.001Z</time></trkpt><trkpt lat="42.24014280864838" lon="12.452654382187895"><ele>229.66666666666669</ele><time>2026-05-01T11:31:19.001Z</time></trkpt><trkpt lat="42.24028739013279" lon="12.452598382265446"><ele>230.0</ele><time>2026-05-01T11:31:20.001Z</time></trkpt><trkpt lat="42.24043905490684" lon="12.452526789714414"><ele>230.0</ele><time>2026-05-01T11:31:21.001Z</time></trkpt><trkpt lat="42.240593292394465" lon="12.452446398236624"><ele>230.0</ele><time>2026-05-01T11:31:22.001Z</time></trkpt><trkpt lat="42.24073947760843" lon="12.45236288166585"><ele>230.0</ele><time>2026-05-01T11:31:23.001Z</time></trkpt><trkpt lat="42.2408894381647" lon="12.452271989655657"><ele>229.66666666666669</ele><time>2026-05-01T11:31:24.001Z</time></trkpt><trkpt lat="42.241034130728565" lon="12.452171492452385"><ele>229.33333333333331</ele><time>2026-05-01T11:31:25.001Z</time></trkpt><trkpt lat="42.24116795986302" lon="12.452066001052058"><ele>229.0</ele><time>2026-05-01T11:31:26.001Z</time></trkpt><trkpt lat="42.241311347804825" lon="12.451958418426992"><ele>228.66666666666666</ele><time>2026-05-01T11:31:27.001Z</time></trkpt><trkpt lat="42.24144982652961" lon="12.451848675000079"><ele>228.33333333333331</ele><time>2026-05-01T11:31:28.001Z</time></trkpt><trkpt lat="42.24159405897212" lon="12.451743355188437"><ele>228.0</ele><time>2026-05-01T11:31:29.001Z</time></trkpt><trkpt lat="42.24172832482716" lon="12.451642950652305"><ele>227.25</ele><time>2026-05-01T11:31:30.001Z</time></trkpt><trkpt lat="42.24185297936322" lon="12.451569176859934"><ele>226.5</ele><time>2026-05-01T11:31:31.001Z</time></trkpt><trkpt lat="42.24199178013194" lon="12.451526911354584"><ele>225.75</ele><time>2026-05-01T11:31:32.001Z</time></trkpt><trkpt lat="42.24211758915406" lon="12.451524934005386"><ele>225.0</ele><time>2026-05-01T11:31:33.001Z</time></trkpt><trkpt lat="42.242248556187576" lon="12.451555107091684"><ele>224.25</ele><time>2026-05-01T11:31:34.001Z</time></trkpt><trkpt lat="42.24238983600875" lon="12.451529987108186"><ele>223.5</ele><time>2026-05-01T11:31:35.001Z</time></trkpt><trkpt lat="42.24250982781478" lon="12.451544300574362"><ele>222.75</ele><time>2026-05-01T11:31:36.001Z</time></trkpt><trkpt lat="42.242622772681685" lon="12.451589080031988"><ele>222.0</ele><time>2026-05-01T11:31:37.001Z</time></trkpt><trkpt lat="42.2427372419194" lon="12.451666219066986"><ele>222.0</ele><time>2026-05-01T11:31:38.001Z</time></trkpt><trkpt lat="42.242872775872534" lon="12.451756266338625"><ele>222.0</ele><time>2026-05-01T11:31:39.002Z</time></trkpt><trkpt lat="42.242993454511684" lon="12.45188799745943"><ele>222.0</ele><time>2026-05-01T11:31:40.002Z</time></trkpt><trkpt lat="42.24311222723065" lon="12.452033706202826"><ele>219.0</ele><time>2026-05-01T11:31:41.002Z</time></trkpt><trkpt lat="42.24327955898077" lon="12.45216120229338"><ele>216.0</ele><time>2026-05-01T11:31:42.002Z</time></trkpt><trkpt lat="42.24343599011626" lon="12.45231523499916"><ele>213.0</ele><time>2026-05-01T11:31:43.002Z</time></trkpt><trkpt lat="42.24358807401582" lon="12.452457697770868"><ele>213.0</ele><time>2026-05-01T11:31:44.002Z</time></trkpt><trkpt lat="42.24374831081864" lon="12.452600150762816"><ele>213.0</ele><time>2026-05-01T11:31:45.002Z</time></trkpt><trkpt lat="42.24390939805828" lon="12.452749976706828"><ele>213.0</ele><time>2026-05-01T11:31:46.002Z</time></trkpt><trkpt lat="42.244078006036574" lon="12.452906194300734"><ele>210.0</ele><time>2026-05-01T11:31:47.002Z</time></trkpt><trkpt lat="42.24424606422198" lon="12.453066086859062"><ele>207.0</ele><time>2026-05-01T11:31:48.002Z</time></trkpt><trkpt lat="42.24441838541025" lon="12.453233782462307"><ele>204.0</ele><time>2026-05-01T11:31:49.002Z</time></trkpt><trkpt lat="42.24459356875942" lon="12.453402957246682"><ele>204.0</ele><time>2026-05-01T11:31:50.002Z</time></trkpt><trkpt lat="42.24474886631045" lon="12.45354492021817"><ele>204.0</ele><time>2026-05-01T11:31:51.002Z</time></trkpt><trkpt lat="42.24487405686543" lon="12.453670856808142"><ele>204.0</ele><time>2026-05-01T11:31:52.002Z</time></trkpt><trkpt lat="42.24498877457433" lon="12.453774357477485"><ele>202.75</ele><time>2026-05-01T11:31:53.002Z</time></trkpt><trkpt lat="42.24509841148933" lon="12.453869826139236"><ele>201.5</ele><time>2026-05-01T11:31:54.002Z</time></trkpt><trkpt lat="42.24521067649915" lon="12.453930666636495"><ele>200.25</ele><time>2026-05-01T11:31:55.002Z</time></trkpt><trkpt lat="42.24533145995239" lon="12.453955694891784"><ele>199.0</ele><time>2026-05-01T11:31:56.002Z</time></trkpt><trkpt lat="42.24545243837023" lon="12.453953767713958"><ele>199.0</ele><time>2026-05-01T11:31:57.002Z</time></trkpt><trkpt lat="42.24559590250384" lon="12.453958964029326"><ele>199.0</ele><time>2026-05-01T11:31:58.002Z</time></trkpt><trkpt lat="42.24573693459139" lon="12.453921719429207"><ele>199.0</ele><time>2026-05-01T11:31:59.002Z</time></trkpt><trkpt lat="42.245879333561135" lon="12.453891151869366"><ele>199.0</ele><time>2026-05-01T11:32:00.001Z</time></trkpt><trkpt lat="42.24600571231738" lon="12.453841701916991"><ele>198.5</ele><time>2026-05-01T11:32:01.001Z</time></trkpt><trkpt lat="42.24612759644979" lon="12.453738744269502"><ele>198.0</ele><time>2026-05-01T11:32:02.001Z</time></trkpt><trkpt lat="42.24624577094314" lon="12.453630706499979"><ele>197.5</ele><time>2026-05-01T11:32:03.001Z</time></trkpt><trkpt lat="42.246354552775166" lon="12.453502782552377"><ele>197.0</ele><time>2026-05-01T11:32:04.001Z</time></trkpt><trkpt lat="42.2464721933981" lon="12.45341342237527"><ele>197.0</ele><time>2026-05-01T11:32:05.001Z</time></trkpt><trkpt lat="42.24658098690041" lon="12.453340710610254"><ele>197.0</ele><time>2026-05-01T11:32:06.001Z</time></trkpt><trkpt lat="42.2466924896881" lon="12.453312470435524"><ele>197.0</ele><time>2026-05-01T11:32:07Z</time></trkpt><trkpt lat="42.246810149027375" lon="12.453304413734338"><ele>197.0</ele><time>2026-05-01T11:32:08.001Z</time></trkpt><trkpt lat="42.24694321155339" lon="12.453300152754489"><ele>197.0</ele><time>2026-05-01T11:32:09Z</time></trkpt><trkpt lat="42.247077250381174" lon="12.45334261987311"><ele>197.0</ele><time>2026-05-01T11:32:10Z</time></trkpt><trkpt lat="42.24723173354995" lon="12.453407844447762"><ele>197.0</ele><time>2026-05-01T11:32:11Z</time></trkpt><trkpt lat="42.247379589386554" lon="12.453510972891701"><ele>196.33333333333334</ele><time>2026-05-01T11:32:12Z</time></trkpt><trkpt lat="42.24752642823127" lon="12.453595008657178"><ele>195.66666666666669</ele><time>2026-05-01T11:32:13Z</time></trkpt><trkpt lat="42.24766451341828" lon="12.453673537139782"><ele>195.0</ele><time>2026-05-01T11:32:14Z</time></trkpt><trkpt lat="42.2477977366933" lon="12.453739290715822"><ele>195.0</ele><time>2026-05-01T11:32:15Z</time></trkpt><trkpt lat="42.24792952330457" lon="12.453765730757878"><ele>195.0</ele><time>2026-05-01T11:32:16Z</time></trkpt><trkpt lat="42.24808000691728" lon="12.453775441414178"><ele>195.0</ele><time>2026-05-01T11:32:17Z</time></trkpt><trkpt lat="42.24825030378508" lon="12.453749959462924"><ele>195.33333333333331</ele><time>2026-05-01T11:32:18Z</time></trkpt><trkpt lat="42.24841508168553" lon="12.453744446368425"><ele>195.66666666666666</ele><time>2026-05-01T11:32:19Z</time></trkpt><trkpt lat="42.24860071846905" lon="12.453709400475727"><ele>196.0</ele><time>2026-05-01T11:32:20Z</time></trkpt><trkpt lat="42.24879391571631" lon="12.45370187575478"><ele>193.33333333333331</ele><time>2026-05-01T11:32:21Z</time></trkpt><trkpt lat="42.248984153452064" lon="12.453690161612021"><ele>190.66666666666666</ele><time>2026-05-01T11:32:22Z</time></trkpt><trkpt lat="42.249172000367764" lon="12.453689852122558"><ele>188.0</ele><time>2026-05-01T11:32:23Z</time></trkpt><trkpt lat="42.24937068634294" lon="12.453704135255155"><ele>188.0</ele><time>2026-05-01T11:32:24Z</time></trkpt><trkpt lat="42.249588555805836" lon="12.453734861814093"><ele>188.0</ele><time>2026-05-01T11:32:25Z</time></trkpt><trkpt lat="42.24981688483603" lon="12.453754666906791"><ele>188.0</ele><time>2026-05-01T11:32:26.001Z</time></trkpt><trkpt lat="42.25005308257585" lon="12.453823589947518"><ele>179.0</ele><time>2026-05-01T11:32:27.001Z</time></trkpt><trkpt lat="42.25030073512337" lon="12.453879348325582"><ele>170.0</ele><time>2026-05-01T11:32:28.001Z</time></trkpt><trkpt lat="42.25054642882213" lon="12.453941270325359"><ele>169.0</ele><time>2026-05-01T11:32:29.001Z</time></trkpt><trkpt lat="42.25077419174851" lon="12.453999403995889"><ele>168.0</ele><time>2026-05-01T11:32:30.001Z</time></trkpt><trkpt lat="42.250997747388745" lon="12.454053948617641"><ele>168.0</ele><time>2026-05-01T11:32:31.001Z</time></trkpt><trkpt lat="42.25119728210846" lon="12.454083743653424"><ele>168.0</ele><time>2026-05-01T11:32:32.001Z</time></trkpt><trkpt lat="42.25139316025588" lon="12.454137582633804"><ele>168.0</ele><time>2026-05-01T11:32:33.001Z</time></trkpt><trkpt lat="42.25158113803997" lon="12.454182909894245"><ele>168.33333333333334</ele><time>2026-05-01T11:32:34.001Z</time></trkpt><trkpt lat="42.25174701106149" lon="12.454237908815848"><ele>168.66666666666669</ele><time>2026-05-01T11:32:35.001Z</time></trkpt><trkpt lat="42.2519297345683" lon="12.454280911175466"><ele>169.0</ele><time>2026-05-01T11:32:36.001Z</time></trkpt><trkpt lat="42.25209468202951" lon="12.454317355279471"><ele>169.0</ele><time>2026-05-01T11:32:37.001Z</time></trkpt><trkpt lat="42.25226087132023" lon="12.454365152701081"><ele>169.0</ele><time>2026-05-01T11:32:38.001Z</time></trkpt><trkpt lat="42.25242193040438" lon="12.454418693691444"><ele>169.0</ele><time>2026-05-01T11:32:39.001Z</time></trkpt><trkpt lat="42.252591891534465" lon="12.454488707964563"><ele>169.0</ele><time>2026-05-01T11:32:40.001Z</time></trkpt><trkpt lat="42.252760597379215" lon="12.454561421505923"><ele>169.0</ele><time>2026-05-01T11:32:41.001Z</time></trkpt><trkpt lat="42.25292927627906" lon="12.45464836679409"><ele>169.0</ele><time>2026-05-01T11:32:42.001Z</time></trkpt><trkpt lat="42.25310620808392" lon="12.454763003712594"><ele>164.33333333333334</ele><time>2026-05-01T11:32:43.001Z</time></trkpt><trkpt lat="42.253295736312225" lon="12.454865261578048"><ele>159.66666666666666</ele><time>2026-05-01T11:32:44.001Z</time></trkpt><trkpt lat="42.25348288274288" lon="12.454966538402179"><ele>155.0</ele><time>2026-05-01T11:32:45.001Z</time></trkpt><trkpt lat="42.25367160484565" lon="12.455069891006195"><ele>155.0</ele><time>2026-05-01T11:32:46.001Z</time></trkpt><trkpt lat="42.25386981319747" lon="12.455179967054454"><ele>155.0</ele><time>2026-05-01T11:32:47.001Z</time></trkpt><trkpt lat="42.25405768156175" lon="12.455291247233678"><ele>155.0</ele><time>2026-05-01T11:32:48.001Z</time></trkpt><trkpt lat="42.25423758182255" lon="12.455399621204895"><ele>153.0</ele><time>2026-05-01T11:32:49.001Z</time></trkpt><trkpt lat="42.25442461589802" lon="12.455511725291416"><ele>151.0</ele><time>2026-05-01T11:32:50.001Z</time></trkpt><trkpt lat="42.25460135812802" lon="12.455616214912755"><ele>149.0</ele><time>2026-05-01T11:32:51.001Z</time></trkpt><trkpt lat="42.254779082412966" lon="12.455719864172014"><ele>148.33333333333331</ele><time>2026-05-01T11:32:52.001Z</time></trkpt><trkpt lat="42.25494966187655" lon="12.45581760707638"><ele>147.66666666666666</ele><time>2026-05-01T11:32:53.001Z</time></trkpt><trkpt lat="42.25512284677822" lon="12.455896409150354"><ele>147.0</ele><time>2026-05-01T11:32:54.001Z</time></trkpt><trkpt lat="42.25527958446057" lon="12.45599019775313"><ele>147.0</ele><time>2026-05-01T11:32:55.001Z</time></trkpt><trkpt lat="42.25544658217415" lon="12.456082884021171"><ele>147.0</ele><time>2026-05-01T11:32:56.001Z</time></trkpt><trkpt lat="42.255606090352494" lon="12.456168586069554"><ele>147.0</ele><time>2026-05-01T11:32:57.001Z</time></trkpt><trkpt lat="42.25575462370977" lon="12.45627371494783"><ele>150.33333333333334</ele><time>2026-05-01T11:32:58.001Z</time></trkpt><trkpt lat="42.25590087696855" lon="12.456358083999334"><ele>153.66666666666669</ele><time>2026-05-01T11:32:59.001Z</time></trkpt><trkpt lat="42.256041990797556" lon="12.456434621138548"><ele>157.0</ele><time>2026-05-01T11:33:00.001Z</time></trkpt><trkpt lat="42.2561756469286" lon="12.45651173350513"><ele>157.0</ele><time>2026-05-01T11:33:01.001Z</time></trkpt><trkpt lat="42.25630073440724" lon="12.456559424449017"><ele>157.0</ele><time>2026-05-01T11:33:02.001Z</time></trkpt><trkpt lat="42.25642938635573" lon="12.456610836809451"><ele>157.0</ele><time>2026-05-01T11:33:03.001Z</time></trkpt><trkpt lat="42.25656237766169" lon="12.456627741628253"><ele>157.0</ele><time>2026-05-01T11:33:04.001Z</time></trkpt><trkpt lat="42.25670102949959" lon="12.456629592026921"><ele>157.0</ele><time>2026-05-01T11:33:05.001Z</time></trkpt><trkpt lat="42.25684768666286" lon="12.456610503761212"><ele>157.0</ele><time>2026-05-01T11:33:06.001Z</time></trkpt><trkpt lat="42.256992996277674" lon="12.456578226681888"><ele>157.0</ele><time>2026-05-01T11:33:07.001Z</time></trkpt><trkpt lat="42.25714208336661" lon="12.456546349303771"><ele>157.0</ele><time>2026-05-01T11:33:08.001Z</time></trkpt><trkpt lat="42.25729625151253" lon="12.456518593888642"><ele>158.33333333333334</ele><time>2026-05-01T11:33:09.001Z</time></trkpt><trkpt lat="42.257454867734594" lon="12.456481920987121"><ele>159.66666666666666</ele><time>2026-05-01T11:33:10.001Z</time></trkpt><trkpt lat="42.25760812638216" lon="12.456472549670213"><ele>161.0</ele><time>2026-05-01T11:33:11.001Z</time></trkpt><trkpt lat="42.25776701087661" lon="12.456426032103364"><ele>161.0</ele><time>2026-05-01T11:33:12.001Z</time></trkpt><trkpt lat="42.25790703398631" lon="12.456409395206993"><ele>161.0</ele><time>2026-05-01T11:33:13.001Z</time></trkpt><trkpt lat="42.25805368369151" lon="12.456429744049679"><ele>161.0</ele><time>2026-05-01T11:33:14.001Z</time></trkpt><trkpt lat="42.25819307055529" lon="12.45643956847038"><ele>161.0</ele><time>2026-05-01T11:33:15.001Z</time></trkpt><trkpt lat="42.25832666157196" lon="12.456520749225856"><ele>162.66666666666666</ele><time>2026-05-01T11:33:16.001Z</time></trkpt><trkpt lat="42.258469654640386" lon="12.456587377577357"><ele>164.33333333333334</ele><time>2026-05-01T11:33:17.001Z</time></trkpt><trkpt lat="42.258606659186256" lon="12.45666568108014"><ele>166.0</ele><time>2026-05-01T11:33:18.001Z</time></trkpt><trkpt lat="42.25874644035559" lon="12.4567488797975"><ele>166.0</ele><time>2026-05-01T11:33:19.001Z</time></trkpt><trkpt lat="42.25889802167691" lon="12.456808053770123"><ele>166.0</ele><time>2026-05-01T11:33:20.001Z</time></trkpt><trkpt lat="42.25906608471802" lon="12.45684365093004"><ele>166.0</ele><time>2026-05-01T11:33:21.001Z</time></trkpt><trkpt lat="42.259232424460684" lon="12.456871903047968"><ele>166.33333333333334</ele><time>2026-05-01T11:33:22.001Z</time></trkpt><trkpt lat="42.259399603094096" lon="12.456903977919822"><ele>166.66666666666666</ele><time>2026-05-01T11:33:23.001Z</time></trkpt><trkpt lat="42.259567676344105" lon="12.456950590357254"><ele>167.0</ele><time>2026-05-01T11:33:24.001Z</time></trkpt><trkpt lat="42.25973068725882" lon="12.457033085727435"><ele>167.66666666666666</ele><time>2026-05-01T11:33:25.001Z</time></trkpt><trkpt lat="42.259895235738696" lon="12.45710186796068"><ele>168.33333333333334</ele><time>2026-05-01T11:33:26.001Z</time></trkpt><trkpt lat="42.26006629609439" lon="12.457156287818272"><ele>169.0</ele><time>2026-05-01T11:33:27.001Z</time></trkpt><trkpt lat="42.26023593144957" lon="12.457232687721405"><ele>169.66666666666669</ele><time>2026-05-01T11:33:28.001Z</time></trkpt><trkpt lat="42.2604126179541" lon="12.457308647886297"><ele>170.33333333333334</ele><time>2026-05-01T11:33:29.001Z</time></trkpt><trkpt lat="42.26058116710149" lon="12.45738612693739"><ele>171.0</ele><time>2026-05-01T11:33:30.001Z</time></trkpt><trkpt lat="42.26074772974343" lon="12.457464032706708"><ele>171.66666666666666</ele><time>2026-05-01T11:33:31.001Z</time></trkpt><trkpt lat="42.26091296543424" lon="12.457535594608476"><ele>172.33333333333331</ele><time>2026-05-01T11:33:32.001Z</time></trkpt><trkpt lat="42.261061475164624" lon="12.457592062189565"><ele>173.0</ele><time>2026-05-01T11:33:33.001Z</time></trkpt><trkpt lat="42.26120213642369" lon="12.457658017060108"><ele>173.0</ele><time>2026-05-01T11:33:34.001Z</time></trkpt><trkpt lat="42.261336468813646" lon="12.457709111008795"><ele>173.0</ele><time>2026-05-01T11:33:35.001Z</time></trkpt><trkpt lat="42.26145288315507" lon="12.457753019865807"><ele>173.0</ele><time>2026-05-01T11:33:36.001Z</time></trkpt><trkpt lat="42.26154296794321" lon="12.45780160343642"><ele>173.0</ele><time>2026-05-01T11:33:37.001Z</time></trkpt><trkpt lat="42.261607146704876" lon="12.45783255172371"><ele>173.0</ele><time>2026-05-01T11:33:38.001Z</time></trkpt><trkpt lat="42.26166395218932" lon="12.45787964302046"><ele>173.2</ele><time>2026-05-01T11:33:40.001Z</time></trkpt><trkpt lat="42.26173480840983" lon="12.457933508427255"><ele>173.4</ele><time>2026-05-01T11:33:43.002Z</time></trkpt><trkpt lat="42.261835402907295" lon="12.457830756439966"><ele>173.6</ele><time>2026-05-01T11:33:44.002Z</time></trkpt><trkpt lat="42.26189714833034" lon="12.457755335837062"><ele>173.79999999999998</ele><time>2026-05-01T11:33:45.002Z</time></trkpt><trkpt lat="42.261978275832796" lon="12.457693598088639"><ele>174.0</ele><time>2026-05-01T11:33:46.002Z</time></trkpt><trkpt lat="42.26207029123757" lon="12.457624271224063"><ele>174.0</ele><time>2026-05-01T11:33:47.002Z</time></trkpt><trkpt lat="42.262170145666765" lon="12.45754707530584"><ele>174.0</ele><time>2026-05-01T11:33:48.002Z</time></trkpt><trkpt lat="42.26227076739944" lon="12.457470902581951"><ele>174.0</ele><time>2026-05-01T11:33:49.002Z</time></trkpt><trkpt lat="42.262375472686955" lon="12.457389089809324"><ele>174.0</ele><time>2026-05-01T11:33:50.002Z</time></trkpt><trkpt lat="42.26248615491212" lon="12.457302214915627"><ele>174.75</ele><time>2026-05-01T11:33:51.002Z</time></trkpt><trkpt lat="42.262601521401066" lon="12.457207738957825"><ele>175.5</ele><time>2026-05-01T11:33:52.002Z</time></trkpt><trkpt lat="42.26272120082245" lon="12.457114825134985"><ele>176.25</ele><time>2026-05-01T11:33:53.002Z</time></trkpt><trkpt lat="42.262841848248875" lon="12.457018935674498"><ele>177.0</ele><time>2026-05-01T11:33:54.002Z</time></trkpt><trkpt lat="42.262959947454384" lon="12.456912711708421"><ele>177.0</ele><time>2026-05-01T11:33:55.002Z</time></trkpt><trkpt lat="42.26307132451992" lon="12.45677583398852"><ele>177.0</ele><time>2026-05-01T11:33:56.002Z</time></trkpt><trkpt lat="42.26315030624297" lon="12.456622151620307"><ele>177.0</ele><time>2026-05-01T11:33:57.002Z</time></trkpt><trkpt lat="42.26322027464617" lon="12.456441526945156"><ele>177.0</ele><time>2026-05-01T11:33:58.002Z</time></trkpt><trkpt lat="42.26328852015965" lon="12.456242685004714"><ele>177.33333333333334</ele><time>2026-05-01T11:33:59.002Z</time></trkpt><trkpt lat="42.26336265878226" lon="12.456045140436085"><ele>177.66666666666669</ele><time>2026-05-01T11:34:00.002Z</time></trkpt><trkpt lat="42.26344329768342" lon="12.45585099142959"><ele>178.0</ele><time>2026-05-01T11:34:01.002Z</time></trkpt><trkpt lat="42.26351792585175" lon="12.455635684731275"><ele>178.66666666666669</ele><time>2026-05-01T11:34:02.002Z</time></trkpt><trkpt lat="42.26360808628906" lon="12.45543396984978"><ele>179.33333333333334</ele><time>2026-05-01T11:34:03.002Z</time></trkpt><trkpt lat="42.2637093820659" lon="12.455230145234989"><ele>180.0</ele><time>2026-05-01T11:34:04.002Z</time></trkpt><trkpt lat="42.26382225284325" lon="12.455037335827132"><ele>180.0</ele><time>2026-05-01T11:34:05.002Z</time></trkpt><trkpt lat="42.26394386813995" lon="12.454848283090046"><ele>180.0</ele><time>2026-05-01T11:34:06.001Z</time></trkpt><trkpt lat="42.26407972859901" lon="12.454676094706153"><ele>180.0</ele><time>2026-05-01T11:34:07.001Z</time></trkpt><trkpt lat="42.26420816078993" lon="12.454493803900249"><ele>179.33333333333334</ele><time>2026-05-01T11:34:08.001Z</time></trkpt><trkpt lat="42.26433675638817" lon="12.45431899859858"><ele>178.66666666666669</ele><time>2026-05-01T11:34:09.001Z</time></trkpt><trkpt lat="42.26447199066232" lon="12.454145316833717"><ele>178.0</ele><time>2026-05-01T11:34:10.001Z</time></trkpt><trkpt lat="42.26460865068657" lon="12.45398597764784"><ele>178.0</ele><time>2026-05-01T11:34:11.001Z</time></trkpt><trkpt lat="42.2647238105069" lon="12.453854965123018"><ele>178.0</ele><time>2026-05-01T11:34:12.001Z</time></trkpt><trkpt lat="42.26482610548764" lon="12.453722389677042"><ele>178.0</ele><time>2026-05-01T11:34:13.001Z</time></trkpt><trkpt lat="42.2649411272963" lon="12.453629633708934"><ele>178.0</ele><time>2026-05-01T11:34:14.001Z</time></trkpt><trkpt lat="42.26503226629019" lon="12.453516463132692"><ele>178.5</ele><time>2026-05-01T11:34:15.001Z</time></trkpt><trkpt lat="42.265142575056586" lon="12.453432615877306"><ele>179.0</ele><time>2026-05-01T11:34:16Z</time></trkpt><trkpt lat="42.265246626783124" lon="12.45333919938866"><ele>179.5</ele><time>2026-05-01T11:34:17Z</time></trkpt><trkpt lat="42.26535475787767" lon="12.453245419164146"><ele>180.0</ele><time>2026-05-01T11:34:18Z</time></trkpt><trkpt lat="42.265466526316345" lon="12.453143505619071"><ele>180.0</ele><time>2026-05-01T11:34:19Z</time></trkpt><trkpt lat="42.26556954230642" lon="12.453052454296328"><ele>180.0</ele><time>2026-05-01T11:34:20Z</time></trkpt><trkpt lat="42.265704365549176" lon="12.45293586617479"><ele>180.0</ele><time>2026-05-01T11:34:21Z</time></trkpt><trkpt lat="42.26583876185296" lon="12.4528175710574"><ele>180.0</ele><time>2026-05-01T11:34:22Z</time></trkpt><trkpt lat="42.26598878096499" lon="12.452685971282012"><ele>179.33333333333334</ele><time>2026-05-01T11:34:23Z</time></trkpt><trkpt lat="42.266134243835296" lon="12.45255810077925"><ele>178.66666666666669</ele><time>2026-05-01T11:34:24Z</time></trkpt><trkpt lat="42.26628653771142" lon="12.452425927461524"><ele>178.0</ele><time>2026-05-01T11:34:25Z</time></trkpt><trkpt lat="42.26644089710407" lon="12.45228412203049"><ele>177.33333333333334</ele><time>2026-05-01T11:34:26Z</time></trkpt><trkpt lat="42.266593265836505" lon="12.45212843256419"><ele>176.66666666666666</ele><time>2026-05-01T11:34:27Z</time></trkpt><trkpt lat="42.266743858431845" lon="12.451948481861736"><ele>176.0</ele><time>2026-05-01T11:34:28Z</time></trkpt><trkpt lat="42.2668943248745" lon="12.451752053465011"><ele>176.0</ele><time>2026-05-01T11:34:29Z</time></trkpt><trkpt lat="42.267043913015435" lon="12.451548019387932"><ele>176.0</ele><time>2026-05-01T11:34:30Z</time></trkpt><trkpt lat="42.26718465504105" lon="12.45133063667985"><ele>176.0</ele><time>2026-05-01T11:34:31Z</time></trkpt><trkpt lat="42.26731245518742" lon="12.451133492228593"><ele>175.0</ele><time>2026-05-01T11:34:32Z</time></trkpt><trkpt lat="42.26743478805416" lon="12.45095394899706"><ele>174.0</ele><time>2026-05-01T11:34:33Z</time></trkpt><trkpt lat="42.26756226800151" lon="12.45077542831071"><ele>173.0</ele><time>2026-05-01T11:34:34Z</time></trkpt><trkpt lat="42.267712747774375" lon="12.450599660755854"><ele>171.33333333333331</ele><time>2026-05-01T11:34:35Z</time></trkpt><trkpt lat="42.26787735709654" lon="12.450422377699295"><ele>169.66666666666666</ele><time>2026-05-01T11:34:36Z</time></trkpt><trkpt lat="42.26804443905566" lon="12.450233585195003"><ele>168.0</ele><time>2026-05-01T11:34:37Z</time></trkpt><trkpt lat="42.26822719621027" lon="12.45006082731506"><ele>166.5</ele><time>2026-05-01T11:34:38Z</time></trkpt><trkpt lat="42.268410684762024" lon="12.449874647224986"><ele>165.0</ele><time>2026-05-01T11:34:39.001Z</time></trkpt><trkpt lat="42.26861461577053" lon="12.449703398690586"><ele>162.5</ele><time>2026-05-01T11:34:40.001Z</time></trkpt><trkpt lat="42.26881520553794" lon="12.449510074746762"><ele>160.0</ele><time>2026-05-01T11:34:41.001Z</time></trkpt><trkpt lat="42.2690170455918" lon="12.449315545744303"><ele>159.5</ele><time>2026-05-01T11:34:42.001Z</time></trkpt><trkpt lat="42.269220571038794" lon="12.449119361350736"><ele>159.0</ele><time>2026-05-01T11:34:43.001Z</time></trkpt><trkpt lat="42.26941399780661" lon="12.448908656740235"><ele>158.0</ele><time>2026-05-01T11:34:44.001Z</time></trkpt><trkpt lat="42.26962827455404" lon="12.448726020413018"><ele>157.0</ele><time>2026-05-01T11:34:45.001Z</time></trkpt><trkpt lat="42.26983122986703" lon="12.448530214606382"><ele>157.0</ele><time>2026-05-01T11:34:46.001Z</time></trkpt><trkpt lat="42.270025026939734" lon="12.448343244433982"><ele>157.0</ele><time>2026-05-01T11:34:47.001Z</time></trkpt><trkpt lat="42.27021490089567" lon="12.448160395107395"><ele>157.0</ele><time>2026-05-01T11:34:48.001Z</time></trkpt><trkpt lat="42.27039557794401" lon="12.44796704127114"><ele>157.0</ele><time>2026-05-01T11:34:49.001Z</time></trkpt><trkpt lat="42.27059341094882" lon="12.447802679123999"><ele>156.5</ele><time>2026-05-01T11:34:50.001Z</time></trkpt><trkpt lat="42.2708066115911" lon="12.447639677885212"><ele>156.0</ele><time>2026-05-01T11:34:51.001Z</time></trkpt><trkpt lat="42.27102522833771" lon="12.447482093671505"><ele>156.0</ele><time>2026-05-01T11:34:52.001Z</time></trkpt><trkpt lat="42.27122081369033" lon="12.447335131510362"><ele>156.0</ele><time>2026-05-01T11:34:53.001Z</time></trkpt><trkpt lat="42.271402240325074" lon="12.447207783833841"><ele>156.0</ele><time>2026-05-01T11:34:54.001Z</time></trkpt><trkpt lat="42.27156467177841" lon="12.447090328090967"><ele>155.66666666666666</ele><time>2026-05-01T11:34:55.001Z</time></trkpt><trkpt lat="42.27171591485283" lon="12.446981606050063"><ele>155.33333333333331</ele><time>2026-05-01T11:34:56.001Z</time></trkpt><trkpt lat="42.271857873148" lon="12.446886461619648"><ele>155.0</ele><time>2026-05-01T11:34:57.001Z</time></trkpt><trkpt lat="42.27198538047874" lon="12.446800364491835"><ele>155.0</ele><time>2026-05-01T11:34:58.001Z</time></trkpt><trkpt lat="42.27209747337347" lon="12.446722782583057"><ele>155.0</ele><time>2026-05-01T11:34:59.001Z</time></trkpt><trkpt lat="42.27220383490724" lon="12.446646822448791"><ele>155.0</ele><time>2026-05-01T11:35:00.001Z</time></trkpt><trkpt lat="42.272301737335795" lon="12.446566723650779"><ele>155.0</ele><time>2026-05-01T11:35:01.001Z</time></trkpt><trkpt lat="42.27239325360847" lon="12.446481157304133"><ele>154.75</ele><time>2026-05-01T11:35:02.001Z</time></trkpt><trkpt lat="42.272482455613336" lon="12.446398248460488"><ele>154.5</ele><time>2026-05-01T11:35:03.001Z</time></trkpt><trkpt lat="42.27257679682451" lon="12.446316771368384"><ele>154.25</ele><time>2026-05-01T11:35:04.001Z</time></trkpt><trkpt lat="42.27267749516005" lon="12.446233294585106"><ele>154.0</ele><time>2026-05-01T11:35:05.001Z</time></trkpt><trkpt lat="42.272773192697535" lon="12.446140007763749"><ele>154.0</ele><time>2026-05-01T11:35:06.001Z</time></trkpt><trkpt lat="42.27287082492395" lon="12.446045840863835"><ele>154.0</ele><time>2026-05-01T11:35:07.001Z</time></trkpt><trkpt lat="42.272965047765005" lon="12.44594932058269"><ele>154.0</ele><time>2026-05-01T11:35:08.001Z</time></trkpt><trkpt lat="42.273065490969906" lon="12.445853884071175"><ele>154.0</ele><time>2026-05-01T11:35:09.001Z</time></trkpt><trkpt lat="42.2731673770457" lon="12.445759456215354"><ele>154.75</ele><time>2026-05-01T11:35:10.001Z</time></trkpt><trkpt lat="42.27326948618074" lon="12.445667686147125"><ele>155.5</ele><time>2026-05-01T11:35:11.001Z</time></trkpt><trkpt lat="42.273373544498824" lon="12.445580113241846"><ele>156.25</ele><time>2026-05-01T11:35:12.001Z</time></trkpt><trkpt lat="42.273479290336866" lon="12.445496825180598"><ele>157.0</ele><time>2026-05-01T11:35:13.001Z</time></trkpt><trkpt lat="42.27357502080668" lon="12.445402044263808"><ele>157.0</ele><time>2026-05-01T11:35:14.001Z</time></trkpt><trkpt lat="42.27367555107111" lon="12.445315306815264"><ele>157.0</ele><time>2026-05-01T11:35:15.001Z</time></trkpt><trkpt lat="42.27379122598139" lon="12.445252473663865"><ele>157.0</ele><time>2026-05-01T11:35:16.001Z</time></trkpt><trkpt lat="42.27391433303191" lon="12.445204054193043"><ele>157.0</ele><time>2026-05-01T11:35:17.001Z</time></trkpt><trkpt lat="42.274044164958866" lon="12.445198700155556"><ele>158.5</ele><time>2026-05-01T11:35:18.001Z</time></trkpt><trkpt lat="42.27416587192423" lon="12.445182825981068"><ele>160.0</ele><time>2026-05-01T11:35:19.001Z</time></trkpt><trkpt lat="42.27430194413281" lon="12.445203985164435"><ele>161.5</ele><time>2026-05-01T11:35:20.001Z</time></trkpt><trkpt lat="42.27443880211769" lon="12.445206550244459"><ele>163.0</ele><time>2026-05-01T11:35:21.001Z</time></trkpt><trkpt lat="42.27459494840515" lon="12.445191561035438"><ele>163.0</ele><time>2026-05-01T11:35:22.001Z</time></trkpt><trkpt lat="42.274744735019425" lon="12.445201723793136"><ele>163.0</ele><time>2026-05-01T11:35:23.001Z</time></trkpt><trkpt lat="42.274907943081736" lon="12.445166222241959"><ele>163.0</ele><time>2026-05-01T11:35:24.001Z</time></trkpt><trkpt lat="42.27507960645108" lon="12.445147935634152"><ele>162.33333333333334</ele><time>2026-05-01T11:35:25.001Z</time></trkpt><trkpt lat="42.27525544543641" lon="12.445095599567336"><ele>161.66666666666666</ele><time>2026-05-01T11:35:26.001Z</time></trkpt><trkpt lat="42.275441089485334" lon="12.445016491204868"><ele>161.0</ele><time>2026-05-01T11:35:27.001Z</time></trkpt><trkpt lat="42.27563918012069" lon="12.444954870257925"><ele>160.33333333333331</ele><time>2026-05-01T11:35:28.001Z</time></trkpt><trkpt lat="42.27583588381886" lon="12.44488918604544"><ele>159.66666666666666</ele><time>2026-05-01T11:35:29.001Z</time></trkpt><trkpt lat="42.27603990873686" lon="12.444824326337551"><ele>159.0</ele><time>2026-05-01T11:35:30.001Z</time></trkpt><trkpt lat="42.27624933423502" lon="12.444750453978365"><ele>159.5</ele><time>2026-05-01T11:35:31.001Z</time></trkpt><trkpt lat="42.27646606744926" lon="12.444672513306388"><ele>160.0</ele><time>2026-05-01T11:35:32.001Z</time></trkpt><trkpt lat="42.27668483076767" lon="12.444593362268781"><ele>157.5</ele><time>2026-05-01T11:35:33.001Z</time></trkpt><trkpt lat="42.27690738966705" lon="12.444520554794986"><ele>155.0</ele><time>2026-05-01T11:35:34.001Z</time></trkpt><trkpt lat="42.27712978781715" lon="12.44444814253811"><ele>155.0</ele><time>2026-05-01T11:35:35.001Z</time></trkpt><trkpt lat="42.27735287290727" lon="12.44436943060949"><ele>155.0</ele><time>2026-05-01T11:35:36.001Z</time></trkpt><trkpt lat="42.277574348206315" lon="12.444282383238706"><ele>155.0</ele><time>2026-05-01T11:35:37.001Z</time></trkpt><trkpt lat="42.277795918267984" lon="12.44418513231361"><ele>155.0</ele><time>2026-05-01T11:35:38.001Z</time></trkpt><trkpt lat="42.2780172903389" lon="12.44408257037002"><ele>154.5</ele><time>2026-05-01T11:35:39.001Z</time></trkpt><trkpt lat="42.2782381755903" lon="12.443976395825121"><ele>154.0</ele><time>2026-05-01T11:35:40.001Z</time></trkpt><trkpt lat="42.27845885869891" lon="12.443873211442769"><ele>151.5</ele><time>2026-05-01T11:35:41.001Z</time></trkpt><trkpt lat="42.27867219936384" lon="12.443774090476065"><ele>149.0</ele><time>2026-05-01T11:35:42.001Z</time></trkpt><trkpt lat="42.27888439569416" lon="12.443676190236229"><ele>149.33333333333331</ele><time>2026-05-01T11:35:43.001Z</time></trkpt><trkpt lat="42.27909414855988" lon="12.443580118041472"><ele>149.66666666666666</ele><time>2026-05-01T11:35:44.001Z</time></trkpt><trkpt lat="42.2792941457824" lon="12.443487129246463"><ele>150.0</ele><time>2026-05-01T11:35:45.001Z</time></trkpt><trkpt lat="42.27948417013558" lon="12.443395314826036"><ele>150.0</ele><time>2026-05-01T11:35:46.001Z</time></trkpt><trkpt lat="42.27966929765899" lon="12.443291096516647"><ele>150.0</ele><time>2026-05-01T11:35:47.001Z</time></trkpt><trkpt lat="42.27984906179974" lon="12.44316150803403"><ele>150.0</ele><time>2026-05-01T11:35:48.001Z</time></trkpt><trkpt lat="42.28002920222201" lon="12.443016930926143"><ele>150.33333333333334</ele><time>2026-05-01T11:35:49.001Z</time></trkpt><trkpt lat="42.280220401687956" lon="12.44287415888822"><ele>150.66666666666669</ele><time>2026-05-01T11:35:50.001Z</time></trkpt><trkpt lat="42.280414392726954" lon="12.442718615915235"><ele>151.0</ele><time>2026-05-01T11:35:51.001Z</time></trkpt><trkpt lat="42.28060940325304" lon="12.442553664117423"><ele>151.0</ele><time>2026-05-01T11:35:52.001Z</time></trkpt><trkpt lat="42.28079594540468" lon="12.442359301517456"><ele>151.0</ele><time>2026-05-01T11:35:53.001Z</time></trkpt><trkpt lat="42.280993916685574" lon="12.442168589091182"><ele>149.5</ele><time>2026-05-01T11:35:54.001Z</time></trkpt><trkpt lat="42.28119281210746" lon="12.441965273011517"><ele>148.0</ele><time>2026-05-01T11:35:55.001Z</time></trkpt><trkpt lat="42.28139697020904" lon="12.441758864723248"><ele>149.5</ele><time>2026-05-01T11:35:56.001Z</time></trkpt><trkpt lat="42.28160557337405" lon="12.441545407665606"><ele>151.0</ele><time>2026-05-01T11:35:57.001Z</time></trkpt><trkpt lat="42.28181345187464" lon="12.441338672498588"><ele>148.5</ele><time>2026-05-01T11:35:58.001Z</time></trkpt><trkpt lat="42.28200321538389" lon="12.441127300847445"><ele>146.0</ele><time>2026-05-01T11:35:59.001Z</time></trkpt><trkpt lat="42.28218843448042" lon="12.440933637516702"><ele>146.0</ele><time>2026-05-01T11:36:00.001Z</time></trkpt><trkpt lat="42.282368137453254" lon="12.440737495207117"><ele>146.0</ele><time>2026-05-01T11:36:01.001Z</time></trkpt><trkpt lat="42.282543292530185" lon="12.440548396789172"><ele>146.5</ele><time>2026-05-01T11:36:02.001Z</time></trkpt><trkpt lat="42.28271764962815" lon="12.440348818902107"><ele>147.0</ele><time>2026-05-01T11:36:03.001Z</time></trkpt><trkpt lat="42.28287931201431" lon="12.440128191134262"><ele>147.0</ele><time>2026-05-01T11:36:04.002Z</time></trkpt><trkpt lat="42.28303853161517" lon="12.439886608280746"><ele>147.0</ele><time>2026-05-01T11:36:05.002Z</time></trkpt><trkpt lat="42.28319663035158" lon="12.439642824865686"><ele>148.33333333333334</ele><time>2026-05-01T11:36:06.002Z</time></trkpt><trkpt lat="42.283350441721375" lon="12.43940791199245"><ele>149.66666666666669</ele><time>2026-05-01T11:36:07.002Z</time></trkpt><trkpt lat="42.28349441867373" lon="12.439190867023948"><ele>151.0</ele><time>2026-05-01T11:36:08.002Z</time></trkpt><trkpt lat="42.28362776310546" lon="12.438990547572551"><ele>150.0</ele><time>2026-05-01T11:36:09.002Z</time></trkpt><trkpt lat="42.28376347226412" lon="12.43879022392942"><ele>149.0</ele><time>2026-05-01T11:36:10.002Z</time></trkpt><trkpt lat="42.28388796891599" lon="12.438600008304547"><ele>148.0</ele><time>2026-05-01T11:36:11.002Z</time></trkpt><trkpt lat="42.284003070529565" lon="12.438415019742802"><ele>148.0</ele><time>2026-05-01T11:36:12.001Z</time></trkpt><trkpt lat="42.2841135560535" lon="12.438243092024656"><ele>148.0</ele><time>2026-05-01T11:36:13.001Z</time></trkpt><trkpt lat="42.2842111783885" lon="12.438071210408635"><ele>148.0</ele><time>2026-05-01T11:36:14.001Z</time></trkpt><trkpt lat="42.28430120584126" lon="12.437881529674573"><ele>148.0</ele><time>2026-05-01T11:36:15.001Z</time></trkpt><trkpt lat="42.284375298044935" lon="12.43766763210934"><ele>148.0</ele><time>2026-05-01T11:36:16.001Z</time></trkpt><trkpt lat="42.28445611782719" lon="12.437451922550535"><ele>148.0</ele><time>2026-05-01T11:36:17.001Z</time></trkpt><trkpt lat="42.28453431125827" lon="12.437231061793256"><ele>147.33333333333334</ele><time>2026-05-01T11:36:18.001Z</time></trkpt><trkpt lat="42.284610624076244" lon="12.437008816208902"><ele>146.66666666666666</ele><time>2026-05-01T11:36:19.001Z</time></trkpt><trkpt lat="42.28466635546674" lon="12.436786746541776"><ele>146.0</ele><time>2026-05-01T11:36:20.001Z</time></trkpt><trkpt lat="42.28477855260122" lon="12.436607047084316"><ele>146.0</ele><time>2026-05-01T11:36:21.001Z</time></trkpt><trkpt lat="42.28490816743617" lon="12.436437373861622"><ele>146.0</ele><time>2026-05-01T11:36:22.001Z</time></trkpt><trkpt lat="42.28505707902702" lon="12.436287024737018"><ele>146.0</ele><time>2026-05-01T11:36:23.001Z</time></trkpt><trkpt lat="42.28521219381936" lon="12.436140337700582"><ele>146.0</ele><time>2026-05-01T11:36:24.001Z</time></trkpt><trkpt lat="42.28537872378642" lon="12.435993869192828"><ele>146.0</ele><time>2026-05-01T11:36:25.001Z</time></trkpt><trkpt lat="42.285554046307794" lon="12.435850714541328"><ele>146.0</ele><time>2026-05-01T11:36:26.001Z</time></trkpt><trkpt lat="42.28572582698763" lon="12.435721943977875"><ele>146.0</ele><time>2026-05-01T11:36:27.001Z</time></trkpt><trkpt lat="42.285884977515934" lon="12.43560875013483"><ele>146.0</ele><time>2026-05-01T11:36:28.001Z</time></trkpt><trkpt lat="42.286034819639035" lon="12.435493123614473"><ele>146.0</ele><time>2026-05-01T11:36:29.001Z</time></trkpt><trkpt lat="42.28616713489487" lon="12.435367114772232"><ele>147.66666666666666</ele><time>2026-05-01T11:36:30.001Z</time></trkpt><trkpt lat="42.28627064195675" lon="12.43522280945228"><ele>149.33333333333334</ele><time>2026-05-01T11:36:31.001Z</time></trkpt><trkpt lat="42.286354284325625" lon="12.43505703618607"><ele>151.0</ele><time>2026-05-01T11:36:32.001Z</time></trkpt><trkpt lat="42.286418037282814" lon="12.434851970996995"><ele>149.33333333333334</ele><time>2026-05-01T11:36:33.001Z</time></trkpt><trkpt lat="42.28647683804678" lon="12.434612973317407"><ele>147.66666666666666</ele><time>2026-05-01T11:36:34.001Z</time></trkpt><trkpt lat="42.286548498611126" lon="12.434368004259213"><ele>146.0</ele><time>2026-05-01T11:36:35.001Z</time></trkpt><trkpt lat="42.286631456780746" lon="12.434122872329088"><ele>146.0</ele><time>2026-05-01T11:36:36.001Z</time></trkpt><trkpt lat="42.28670069446449" lon="12.433867746376713"><ele>146.0</ele><time>2026-05-01T11:36:37.001Z</time></trkpt><trkpt lat="42.28676786009048" lon="12.433620944183483"><ele>146.0</ele><time>2026-05-01T11:36:38.001Z</time></trkpt><trkpt lat="42.2868406599636" lon="12.433388365404152"><ele>143.33333333333331</ele><time>2026-05-01T11:36:39.001Z</time></trkpt><trkpt lat="42.286906659659074" lon="12.43314852837607"><ele>140.66666666666666</ele><time>2026-05-01T11:36:40.001Z</time></trkpt><trkpt lat="42.28697056094219" lon="12.4329160801656"><ele>138.0</ele><time>2026-05-01T11:36:41.001Z</time></trkpt><trkpt lat="42.287033690701186" lon="12.432689617826822"><ele>136.66666666666666</ele><time>2026-05-01T11:36:42.001Z</time></trkpt><trkpt lat="42.287094206446646" lon="12.432465546893301"><ele>135.33333333333331</ele><time>2026-05-01T11:36:43.001Z</time></trkpt><trkpt lat="42.28715168299411" lon="12.432234205447198"><ele>134.0</ele><time>2026-05-01T11:36:44.001Z</time></trkpt><trkpt lat="42.28719735142521" lon="12.431995277830161"><ele>132.66666666666666</ele><time>2026-05-01T11:36:45.001Z</time></trkpt><trkpt lat="42.28722394874376" lon="12.431763340802542"><ele>131.33333333333334</ele><time>2026-05-01T11:36:46.001Z</time></trkpt><trkpt lat="42.28722978340299" lon="12.431563050335901"><ele>130.0</ele><time>2026-05-01T11:36:47.001Z</time></trkpt><trkpt lat="42.28721942972599" lon="12.431377658137546"><ele>129.66666666666669</ele><time>2026-05-01T11:36:48.001Z</time></trkpt><trkpt lat="42.28717510282806" lon="12.431196055363916"><ele>129.33333333333334</ele><time>2026-05-01T11:36:49.001Z</time></trkpt><trkpt lat="42.28709670164203" lon="12.43101781870502"><ele>129.0</ele><time>2026-05-01T11:36:50.001Z</time></trkpt><trkpt lat="42.28699238293913" lon="12.430849311082545"><ele>129.0</ele><time>2026-05-01T11:36:51.001Z</time></trkpt><trkpt lat="42.28685422109579" lon="12.430680151493247"><ele>129.0</ele><time>2026-05-01T11:36:52.001Z</time></trkpt><trkpt lat="42.286704693523646" lon="12.43049793060871"><ele>129.0</ele><time>2026-05-01T11:36:53.001Z</time></trkpt><trkpt lat="42.28654019157278" lon="12.430306005622175"><ele>126.5</ele><time>2026-05-01T11:36:54.001Z</time></trkpt><trkpt lat="42.286348014001824" lon="12.430111005403703"><ele>124.0</ele><time>2026-05-01T11:36:55.001Z</time></trkpt><trkpt lat="42.28613408364701" lon="12.429913704651828"><ele>124.0</ele><time>2026-05-01T11:36:56.001Z</time></trkpt><trkpt lat="42.28591262560946" lon="12.429706743298647"><ele>124.0</ele><time>2026-05-01T11:36:57.001Z</time></trkpt><trkpt lat="42.285681304348124" lon="12.42948738165887"><ele>122.5</ele><time>2026-05-01T11:36:58.001Z</time></trkpt><trkpt lat="42.28545881484936" lon="12.429270572604223"><ele>121.0</ele><time>2026-05-01T11:36:59.001Z</time></trkpt><trkpt lat="42.285258894705464" lon="12.429064628161639"><ele>121.0</ele><time>2026-05-01T11:37:00.001Z</time></trkpt><trkpt lat="42.285068911532555" lon="12.428876604594477"><ele>121.0</ele><time>2026-05-01T11:37:01.001Z</time></trkpt><trkpt lat="42.28490226096698" lon="12.428703029928096"><ele>121.0</ele><time>2026-05-01T11:37:02.001Z</time></trkpt><trkpt lat="42.28475285491315" lon="12.428553089004977"><ele>118.0</ele><time>2026-05-01T11:37:03.001Z</time></trkpt><trkpt lat="42.284638234913615" lon="12.428403178801977"><ele>115.0</ele><time>2026-05-01T11:37:04.001Z</time></trkpt><trkpt lat="42.284556791607784" lon="12.428219274144787"><ele>112.0</ele><time>2026-05-01T11:37:05.001Z</time></trkpt><trkpt lat="42.284514331198345" lon="12.428036912664199"><ele>109.0</ele><time>2026-05-01T11:37:06.001Z</time></trkpt><trkpt lat="42.284523524975405" lon="12.427862160886818"><ele>106.0</ele><time>2026-05-01T11:37:07.001Z</time></trkpt><trkpt lat="42.2845720698209" lon="12.427717381000841"><ele>103.0</ele><time>2026-05-01T11:37:08.001Z</time></trkpt><trkpt lat="42.28464460250495" lon="12.427639951793694"><ele>100.0</ele><time>2026-05-01T11:37:09.001Z</time></trkpt><trkpt lat="42.284742045490546" lon="12.427560028436197"><ele>104.0</ele><time>2026-05-01T11:37:10.001Z</time></trkpt><trkpt lat="42.28488339551268" lon="12.42750207149472"><ele>108.0</ele><time>2026-05-01T11:37:11.001Z</time></trkpt><trkpt lat="42.285055154199085" lon="12.427474053988542"><ele>112.0</ele><time>2026-05-01T11:37:12.001Z</time></trkpt><trkpt lat="42.28524776238746" lon="12.427478413194471"><ele>112.0</ele><time>2026-05-01T11:37:13.001Z</time></trkpt><trkpt lat="42.28542675638535" lon="12.42749231365034"><ele>112.0</ele><time>2026-05-01T11:37:14.001Z</time></trkpt><trkpt lat="42.28560239198128" lon="12.427493557381982"><ele>112.0</ele><time>2026-05-01T11:37:15.001Z</time></trkpt><trkpt lat="42.285782761402665" lon="12.42744629259523"><ele>112.66666666666667</ele><time>2026-05-01T11:37:16.001Z</time></trkpt><trkpt lat="42.28596508908202" lon="12.427352433512683"><ele>113.33333333333334</ele><time>2026-05-01T11:37:17.001Z</time></trkpt><trkpt lat="42.28615230025942" lon="12.427233667487146"><ele>114.0</ele><time>2026-05-01T11:37:18.001Z</time></trkpt><trkpt lat="42.28633811762257" lon="12.427100140460965"><ele>108.66666666666666</ele><time>2026-05-01T11:37:19.001Z</time></trkpt><trkpt lat="42.28652458825813" lon="12.426980030283959"><ele>103.33333333333333</ele><time>2026-05-01T11:37:20.001Z</time></trkpt><trkpt lat="42.2867157929823" lon="12.426873865536512"><ele>98.0</ele><time>2026-05-01T11:37:21.001Z</time></trkpt><trkpt lat="42.28690673612369" lon="12.426790876031024"><ele>98.0</ele><time>2026-05-01T11:37:22.001Z</time></trkpt><trkpt lat="42.28709581260563" lon="12.426727578698706"><ele>98.0</ele><time>2026-05-01T11:37:23.001Z</time></trkpt><trkpt lat="42.28728610513838" lon="12.42664603130165"><ele>98.0</ele><time>2026-05-01T11:37:24.001Z</time></trkpt><trkpt lat="42.287472870315895" lon="12.42653351634567"><ele>101.33333333333333</ele><time>2026-05-01T11:37:25.001Z</time></trkpt><trkpt lat="42.28766763200283" lon="12.426419079606442"><ele>104.66666666666666</ele><time>2026-05-01T11:37:26.001Z</time></trkpt><trkpt lat="42.28785077482652" lon="12.426292708059945"><ele>108.0</ele><time>2026-05-01T11:37:27.001Z</time></trkpt><trkpt lat="42.288030863875804" lon="12.426166794827141"><ele>104.33333333333334</ele><time>2026-05-01T11:37:28.001Z</time></trkpt><trkpt lat="42.28819746136495" lon="12.426043295127627"><ele>100.66666666666667</ele><time>2026-05-01T11:37:29.001Z</time></trkpt><trkpt lat="42.28834085310568" lon="12.425941550903257"><ele>97.0</ele><time>2026-05-01T11:37:30.001Z</time></trkpt><trkpt lat="42.28847572396517" lon="12.425833748816181"><ele>97.0</ele><time>2026-05-01T11:37:31.001Z</time></trkpt><trkpt lat="42.28862224139896" lon="12.425779293317973"><ele>97.0</ele><time>2026-05-01T11:37:32.001Z</time></trkpt><trkpt lat="42.28876521603275" lon="12.42575610599154"><ele>97.0</ele><time>2026-05-01T11:37:33.001Z</time></trkpt><trkpt lat="42.2888963824943" lon="12.42577394735251"><ele>97.0</ele><time>2026-05-01T11:37:34.001Z</time></trkpt><trkpt lat="42.28900682718994" lon="12.42586055677245"><ele>99.33333333333334</ele><time>2026-05-01T11:37:35.001Z</time></trkpt><trkpt lat="42.289096128911694" lon="12.426006276671739"><ele>101.66666666666666</ele><time>2026-05-01T11:37:36.001Z</time></trkpt><trkpt lat="42.28919302243188" lon="12.4261646635686"><ele>104.0</ele><time>2026-05-01T11:37:37.001Z</time></trkpt><trkpt lat="42.28928167309397" lon="12.426352084370635"><ele>104.0</ele><time>2026-05-01T11:37:38.001Z</time></trkpt><trkpt lat="42.28935972648709" lon="12.426565866570014"><ele>104.0</ele><time>2026-05-01T11:37:39.001Z</time></trkpt><trkpt lat="42.28943620321334" lon="12.426795093877443"><ele>104.0</ele><time>2026-05-01T11:37:40.001Z</time></trkpt><trkpt lat="42.2894994682328" lon="12.42702910205306"><ele>104.75</ele><time>2026-05-01T11:37:41.001Z</time></trkpt><trkpt lat="42.28955485338449" lon="12.427230806132648"><ele>105.5</ele><time>2026-05-01T11:37:42.001Z</time></trkpt><trkpt lat="42.28961792320623" lon="12.427392071117348"><ele>106.25</ele><time>2026-05-01T11:37:43.001Z</time></trkpt><trkpt lat="42.28969504787788" lon="12.427502614806533"><ele>107.0</ele><time>2026-05-01T11:37:44.001Z</time></trkpt><trkpt lat="42.289797451588676" lon="12.427585549598525"><ele>101.0</ele><time>2026-05-01T11:37:45.001Z</time></trkpt><trkpt lat="42.289922520143975" lon="12.42762567987254"><ele>95.0</ele><time>2026-05-01T11:37:46.001Z</time></trkpt><trkpt lat="42.29006683636079" lon="12.427612682819833"><ele>89.0</ele><time>2026-05-01T11:37:47.001Z</time></trkpt><trkpt lat="42.29019868497365" lon="12.427545514675757"><ele>83.0</ele><time>2026-05-01T11:37:48.001Z</time></trkpt><trkpt lat="42.290295039460176" lon="12.427427696000649"><ele>83.0</ele><time>2026-05-01T11:37:49.001Z</time></trkpt><trkpt lat="42.29035547185938" lon="12.427278783236245"><ele>83.0</ele><time>2026-05-01T11:37:50.001Z</time></trkpt><trkpt lat="42.29037282414184" lon="12.427106416518685"><ele>83.0</ele><time>2026-05-01T11:37:51.001Z</time></trkpt><trkpt lat="42.29034124363785" lon="12.42693074277377"><ele>83.0</ele><time>2026-05-01T11:37:52.001Z</time></trkpt><trkpt lat="42.29027349438824" lon="12.426765738943661"><ele>82.25</ele><time>2026-05-01T11:37:53.001Z</time></trkpt><trkpt lat="42.29017234688459" lon="12.426625398648621"><ele>81.5</ele><time>2026-05-01T11:37:54.001Z</time></trkpt><trkpt lat="42.29005403084379" lon="12.426504951295938"><ele>80.75</ele><time>2026-05-01T11:37:55.001Z</time></trkpt><trkpt lat="42.28992130127335" lon="12.426394105800968"><ele>80.0</ele><time>2026-05-01T11:37:56.001Z</time></trkpt><trkpt lat="42.28978786267548" lon="12.426287119613129"><ele>81.75</ele><time>2026-05-01T11:37:57.001Z</time></trkpt><trkpt lat="42.28967849370342" lon="12.426180074494159"><ele>83.5</ele><time>2026-05-01T11:37:58.001Z</time></trkpt><trkpt lat="42.28960710281981" lon="12.426050581109216"><ele>85.25</ele><time>2026-05-01T11:37:59.001Z</time></trkpt><trkpt lat="42.28957170904717" lon="12.42589534220558"><ele>87.0</ele><time>2026-05-01T11:38:00.001Z</time></trkpt><trkpt lat="42.28957757458572" lon="12.425721405730291"><ele>87.0</ele><time>2026-05-01T11:38:01.001Z</time></trkpt><trkpt lat="42.28963140667876" lon="12.425600101967959"><ele>87.0</ele><time>2026-05-01T11:38:02.001Z</time></trkpt><trkpt lat="42.289712494308134" lon="12.42549168779365"><ele>87.0</ele><time>2026-05-01T11:38:03.001Z</time></trkpt><trkpt lat="42.289829752604476" lon="12.425409693020669"><ele>87.0</ele><time>2026-05-01T11:38:04.001Z</time></trkpt><trkpt lat="42.28996336639274" lon="12.425374148287455"><ele>83.5</ele><time>2026-05-01T11:38:05.001Z</time></trkpt><trkpt lat="42.29009215261106" lon="12.425395925705887"><ele>80.0</ele><time>2026-05-01T11:38:06.001Z</time></trkpt><trkpt lat="42.29020119408447" lon="12.425481281288791"><ele>76.5</ele><time>2026-05-01T11:38:07.001Z</time></trkpt><trkpt lat="42.29029540550328" lon="12.425620220462777"><ele>73.0</ele><time>2026-05-01T11:38:08.001Z</time></trkpt><trkpt lat="42.29037170385048" lon="12.425794025159966"><ele>73.0</ele><time>2026-05-01T11:38:09.001Z</time></trkpt><trkpt lat="42.2904390644505" lon="12.425998413126218"><ele>73.0</ele><time>2026-05-01T11:38:10.001Z</time></trkpt><trkpt lat="42.290509458271416" lon="12.426231826831076"><ele>73.0</ele><time>2026-05-01T11:38:11.001Z</time></trkpt><trkpt lat="42.29057215628424" lon="12.426458761376262"><ele>70.0</ele><time>2026-05-01T11:38:12.001Z</time></trkpt><trkpt lat="42.290636049957534" lon="12.4266610832282"><ele>67.0</ele><time>2026-05-01T11:38:13.001Z</time></trkpt><trkpt lat="42.290693046077635" lon="12.426858844722101"><ele>64.0</ele><time>2026-05-01T11:38:14.001Z</time></trkpt><trkpt lat="42.29074209900911" lon="12.427047737928493"><ele>64.75</ele><time>2026-05-01T11:38:15.002Z</time></trkpt><trkpt lat="42.29079540059247" lon="12.42722602540309"><ele>65.5</ele><time>2026-05-01T11:38:16.002Z</time></trkpt><trkpt lat="42.290840674696376" lon="12.427391744498912"><ele>66.25</ele><time>2026-05-01T11:38:17.002Z</time></trkpt><trkpt lat="42.29088953915136" lon="12.42754446270198"><ele>67.0</ele><time>2026-05-01T11:38:18.001Z</time></trkpt><trkpt lat="42.290949748564515" lon="12.42768926077578"><ele>67.0</ele><time>2026-05-01T11:38:19.001Z</time></trkpt><trkpt lat="42.29102656041293" lon="12.427814246523026"><ele>67.0</ele><time>2026-05-01T11:38:20.001Z</time></trkpt><trkpt lat="42.29112307952662" lon="12.427905326516697"><ele>67.0</ele><time>2026-05-01T11:38:21.001Z</time></trkpt><trkpt lat="42.29123235115881" lon="12.427954239091987"><ele>67.0</ele><time>2026-05-01T11:38:22.001Z</time></trkpt><trkpt lat="42.29135265925188" lon="12.427973403619383"><ele>63.0</ele><time>2026-05-01T11:38:23.001Z</time></trkpt><trkpt lat="42.29147723785707" lon="12.427974919708738"><ele>59.0</ele><time>2026-05-01T11:38:24.001Z</time></trkpt><trkpt lat="42.291611993334605" lon="12.427974986900121"><ele>55.0</ele><time>2026-05-01T11:38:25.001Z</time></trkpt><trkpt lat="42.29175430668646" lon="12.427974692245574"><ele>51.0</ele><time>2026-05-01T11:38:26.001Z</time></trkpt><trkpt lat="42.2919031979613" lon="12.427966331188268"><ele>51.0</ele><time>2026-05-01T11:38:27.001Z</time></trkpt><trkpt lat="42.292055087078076" lon="12.427971208701083"><ele>51.0</ele><time>2026-05-01T11:38:28.001Z</time></trkpt><trkpt lat="42.292211898844265" lon="12.427967203761817"><ele>51.0</ele><time>2026-05-01T11:38:29.001Z</time></trkpt><trkpt lat="42.29236948245803" lon="12.427978291006964"><ele>51.25</ele><time>2026-05-01T11:38:30.001Z</time></trkpt><trkpt lat="42.29251363296187" lon="12.428001302871865"><ele>51.5</ele><time>2026-05-01T11:38:31.001Z</time></trkpt><trkpt lat="42.29264307767786" lon="12.428052372862691"><ele>51.75</ele><time>2026-05-01T11:38:32.001Z</time></trkpt><trkpt lat="42.29275710437188" lon="12.428115310774185"><ele>52.0</ele><time>2026-05-01T11:38:33.001Z</time></trkpt><trkpt lat="42.2928714398831" lon="12.428169169475824"><ele>52.0</ele><time>2026-05-01T11:38:34.001Z</time></trkpt><trkpt lat="42.29297145741777" lon="12.428253212980305"><ele>52.0</ele><time>2026-05-01T11:38:35.001Z</time></trkpt><trkpt lat="42.29310007464542" lon="12.428234449226258"><ele>52.0</ele><time>2026-05-01T11:38:36.001Z</time></trkpt><trkpt lat="42.293194312909996" lon="12.428266065971764"><ele>52.0</ele><time>2026-05-01T11:38:37.001Z</time></trkpt><trkpt lat="42.29327480197864" lon="12.428286461925302"><ele>52.0</ele><time>2026-05-01T11:38:38.001Z</time></trkpt><trkpt lat="42.29335742187201" lon="12.428284217201373"><ele>53.666666666666664</ele><time>2026-05-01T11:38:39.001Z</time></trkpt><trkpt lat="42.29343550438906" lon="12.42824673629846"><ele>55.33333333333333</ele><time>2026-05-01T11:38:40.001Z</time></trkpt><trkpt lat="42.29349090093333" lon="12.428158231566156"><ele>57.0</ele><time>2026-05-01T11:38:41.001Z</time></trkpt><trkpt lat="42.29350317451354" lon="12.428040361327394"><ele>58.66666666666667</ele><time>2026-05-01T11:38:42.001Z</time></trkpt><trkpt lat="42.29350928630145" lon="12.427933577031395"><ele>60.333333333333336</ele><time>2026-05-01T11:38:43.001Z</time></trkpt><trkpt lat="42.293485862943065" lon="12.427826348117252"><ele>62.0</ele><time>2026-05-01T11:38:44.001Z</time></trkpt><trkpt lat="42.293449930635234" lon="12.427717992006652"><ele>64.75</ele><time>2026-05-01T11:38:45.001Z</time></trkpt><trkpt lat="42.29340872985384" lon="12.42759625809962"><ele>67.5</ele><time>2026-05-01T11:38:46.001Z</time></trkpt><trkpt lat="42.29336563746813" lon="12.427459098282382"><ele>70.25</ele><time>2026-05-01T11:38:47.001Z</time></trkpt><trkpt lat="42.29331908221315" lon="12.427304341830151"><ele>73.0</ele><time>2026-05-01T11:38:48.001Z</time></trkpt><trkpt lat="42.29328335578284" lon="12.427131715439828"><ele>74.75</ele><time>2026-05-01T11:38:49.001Z</time></trkpt><trkpt lat="42.293259290920005" lon="12.426939349377346"><ele>76.5</ele><time>2026-05-01T11:38:50.001Z</time></trkpt><trkpt lat="42.293240424629154" lon="12.42673880690644"><ele>78.25</ele><time>2026-05-01T11:38:51.001Z</time></trkpt><trkpt lat="42.29321538070803" lon="12.426544358807387"><ele>80.0</ele><time>2026-05-01T11:38:52.001Z</time></trkpt><trkpt lat="42.29318604375475" lon="12.426346694423444"><ele>82.25</ele><time>2026-05-01T11:38:53.001Z</time></trkpt><trkpt lat="42.29317811344765" lon="12.426144123811332"><ele>84.5</ele><time>2026-05-01T11:38:54.001Z</time></trkpt><trkpt lat="42.29314658007633" lon="12.425949863324222"><ele>86.75</ele><time>2026-05-01T11:38:55.001Z</time></trkpt><trkpt lat="42.293108038473775" lon="12.425762110400372"><ele>89.0</ele><time>2026-05-01T11:38:56.001Z</time></trkpt><trkpt lat="42.29304839260369" lon="12.425578209592162"><ele>81.5</ele><time>2026-05-01T11:38:57.001Z</time></trkpt><trkpt lat="42.29301207056229" lon="12.425393372169019"><ele>74.0</ele><time>2026-05-01T11:38:58.001Z</time></trkpt><trkpt lat="42.292980119068176" lon="12.425205556513026"><ele>66.5</ele><time>2026-05-01T11:38:59.001Z</time></trkpt><trkpt lat="42.29295237802201" lon="12.42501523779123"><ele>59.0</ele><time>2026-05-01T11:39:00.001Z</time></trkpt><trkpt lat="42.29292454135674" lon="12.424819409438804"><ele>60.25</ele><time>2026-05-01T11:39:01.001Z</time></trkpt><trkpt lat="42.2929260974476" lon="12.42463293829575"><ele>61.5</ele><time>2026-05-01T11:39:02.001Z</time></trkpt><trkpt lat="42.29291962124357" lon="12.42444124028043"><ele>62.75</ele><time>2026-05-01T11:39:03.001Z</time></trkpt><trkpt lat="42.29289935396136" lon="12.42424957986273"><ele>64.0</ele><time>2026-05-01T11:39:04.001Z</time></trkpt><trkpt lat="42.29284088564339" lon="12.424068986372275"><ele>64.0</ele><time>2026-05-01T11:39:05.001Z</time></trkpt><trkpt lat="42.2927781043869" lon="12.423884484975092"><ele>64.0</ele><time>2026-05-01T11:39:06.001Z</time></trkpt><trkpt lat="42.29272140595175" lon="12.423684574297924"><ele>64.0</ele><time>2026-05-01T11:39:07.001Z</time></trkpt><trkpt lat="42.29264645666657" lon="12.423482509297"><ele>68.0</ele><time>2026-05-01T11:39:08.001Z</time></trkpt><trkpt lat="42.29256896956034" lon="12.423266297483877"><ele>72.0</ele><time>2026-05-01T11:39:09.001Z</time></trkpt><trkpt lat="42.29249233324112" lon="12.423050918621344"><ele>76.0</ele><time>2026-05-01T11:39:10.001Z</time></trkpt><trkpt lat="42.292434645874195" lon="12.42282513782854"><ele>73.0</ele><time>2026-05-01T11:39:11.001Z</time></trkpt><trkpt lat="42.292371579421165" lon="12.42260964034608"><ele>70.0</ele><time>2026-05-01T11:39:12.001Z</time></trkpt><trkpt lat="42.292300637673854" lon="12.422404206183712"><ele>67.0</ele><time>2026-05-01T11:39:13.001Z</time></trkpt><trkpt lat="42.29222700230299" lon="12.422211741484766"><ele>70.6</ele><time>2026-05-01T11:39:14.001Z</time></trkpt><trkpt lat="42.29217600767663" lon="12.422042271937865"><ele>74.2</ele><time>2026-05-01T11:39:15.001Z</time></trkpt><trkpt lat="42.29214835089965" lon="12.421910415852905"><ele>77.8</ele><time>2026-05-01T11:39:16.001Z</time></trkpt><trkpt lat="42.29213425510785" lon="12.421781086176729"><ele>81.4</ele><time>2026-05-01T11:39:17.001Z</time></trkpt><trkpt lat="42.2921210408586" lon="12.421647338196562"><ele>85.0</ele><time>2026-05-01T11:39:18.001Z</time></trkpt><trkpt lat="42.29207079769789" lon="12.421540407711891"><ele>85.0</ele><time>2026-05-01T11:39:19.001Z</time></trkpt><trkpt lat="42.29199535076832" lon="12.421449166944987"><ele>85.0</ele><time>2026-05-01T11:39:20.001Z</time></trkpt><trkpt lat="42.29187598903278" lon="12.421450249019705"><ele>85.0</ele><time>2026-05-01T11:39:21.001Z</time></trkpt><trkpt lat="42.291758264300576" lon="12.421453218384974"><ele>85.0</ele><time>2026-05-01T11:39:22.001Z</time></trkpt><trkpt lat="42.29162913597811" lon="12.421453836658763"><ele>85.0</ele><time>2026-05-01T11:39:23.001Z</time></trkpt><trkpt lat="42.29148680495602" lon="12.421484118145793"><ele>85.0</ele><time>2026-05-01T11:39:24.001Z</time></trkpt><trkpt lat="42.29133729415162" lon="12.42155045040833"><ele>85.0</ele><time>2026-05-01T11:39:25.001Z</time></trkpt><trkpt lat="42.29118646364487" lon="12.421628544955706"><ele>90.66666666666666</ele><time>2026-05-01T11:39:26.001Z</time></trkpt><trkpt lat="42.291037729808714" lon="12.421690994622567"><ele>96.33333333333333</ele><time>2026-05-01T11:39:27.001Z</time></trkpt><trkpt lat="42.2908887184855" lon="12.421732502096992"><ele>102.0</ele><time>2026-05-01T11:39:28.001Z</time></trkpt><trkpt lat="42.29073936853351" lon="12.421750682110089"><ele>101.0</ele><time>2026-05-01T11:39:29.001Z</time></trkpt><trkpt lat="42.290590176975186" lon="12.421757238218142"><ele>100.0</ele><time>2026-05-01T11:39:30.001Z</time></trkpt><trkpt lat="42.29044527499256" lon="12.421738627883098"><ele>99.0</ele><time>2026-05-01T11:39:31.001Z</time></trkpt><trkpt lat="42.290307019206246" lon="12.421695762241892"><ele>98.0</ele><time>2026-05-01T11:39:32.001Z</time></trkpt><trkpt lat="42.290177149650575" lon="12.421605370435142"><ele>98.0</ele><time>2026-05-01T11:39:33.001Z</time></trkpt><trkpt lat="42.2900278979636" lon="12.421541480179881"><ele>98.0</ele><time>2026-05-01T11:39:34.001Z</time></trkpt><trkpt lat="42.28990921255726" lon="12.421463802976607"><ele>98.0</ele><time>2026-05-01T11:39:35.001Z</time></trkpt><trkpt lat="42.289811469828216" lon="12.42138010065141"><ele>98.0</ele><time>2026-05-01T11:39:36.001Z</time></trkpt><trkpt lat="42.28971508891059" lon="12.421330324932464"><ele>101.83333333333333</ele><time>2026-05-01T11:39:37.001Z</time></trkpt><trkpt lat="42.28964802734845" lon="12.421245484534063"><ele>105.66666666666666</ele><time>2026-05-01T11:39:38.001Z</time></trkpt><trkpt lat="42.2896182362399" lon="12.421147552950488"><ele>109.5</ele><time>2026-05-01T11:39:39.001Z</time></trkpt><trkpt lat="42.28964175990639" lon="12.421034286085835"><ele>113.33333333333334</ele><time>2026-05-01T11:39:40.001Z</time></trkpt><trkpt lat="42.289680515539324" lon="12.420938397290369"><ele>117.16666666666667</ele><time>2026-05-01T11:39:41.001Z</time></trkpt><trkpt lat="42.28972312026814" lon="12.420831370820274"><ele>121.0</ele><time>2026-05-01T11:39:42.001Z</time></trkpt><trkpt lat="42.289765998792014" lon="12.420711858396091"><ele>122.25</ele><time>2026-05-01T11:39:43.001Z</time></trkpt><trkpt lat="42.28978687196386" lon="12.420569744739995"><ele>123.5</ele><time>2026-05-01T11:39:44.001Z</time></trkpt><trkpt lat="42.28978038668443" lon="12.420391859815094"><ele>124.75</ele><time>2026-05-01T11:39:45.001Z</time></trkpt><trkpt lat="42.289778987573065" lon="12.42019389220799"><ele>126.0</ele><time>2026-05-01T11:39:46.001Z</time></trkpt><trkpt lat="42.2897482439924" lon="12.41999349876765"><ele>126.75</ele><time>2026-05-01T11:39:47.001Z</time></trkpt><trkpt lat="42.289746572069056" lon="12.419784419105573"><ele>127.5</ele><time>2026-05-01T11:39:48.001Z</time></trkpt><trkpt lat="42.2897363157806" lon="12.419587034337807"><ele>128.25</ele><time>2026-05-01T11:39:49.001Z</time></trkpt><trkpt lat="42.28972056548349" lon="12.419394195020764"><ele>129.0</ele><time>2026-05-01T11:39:50.001Z</time></trkpt><trkpt lat="42.2896987881785" lon="12.419222315830266"><ele>130.0</ele><time>2026-05-01T11:39:51.001Z</time></trkpt><trkpt lat="42.28967940499206" lon="12.41906730394693"><ele>131.0</ele><time>2026-05-01T11:39:52.001Z</time></trkpt><trkpt lat="42.28966485951191" lon="12.418908299690269"><ele>132.0</ele><time>2026-05-01T11:39:53.001Z</time></trkpt><trkpt lat="42.28965259593414" lon="12.418755515598491"><ele>133.0</ele><time>2026-05-01T11:39:54.001Z</time></trkpt><trkpt lat="42.28963757223457" lon="12.41860347587017"><ele>133.5</ele><time>2026-05-01T11:39:55.001Z</time></trkpt><trkpt lat="42.289600436617235" lon="12.418452578588624"><ele>134.0</ele><time>2026-05-01T11:39:56.001Z</time></trkpt><trkpt lat="42.28958426371564" lon="12.418292330745194"><ele>134.5</ele><time>2026-05-01T11:39:57.001Z</time></trkpt><trkpt lat="42.2895734434147" lon="12.418113947736588"><ele>135.0</ele><time>2026-05-01T11:39:58.001Z</time></trkpt><trkpt lat="42.28956812850398" lon="12.417941482717934"><ele>135.0</ele><time>2026-05-01T11:39:59.001Z</time></trkpt><trkpt lat="42.289564445579835" lon="12.417776305815806"><ele>135.0</ele><time>2026-05-01T11:40:00.001Z</time></trkpt><trkpt lat="42.28956202342754" lon="12.417627687500211"><ele>135.0</ele><time>2026-05-01T11:40:01.001Z</time></trkpt><trkpt lat="42.289543284273385" lon="12.417480122891732"><ele>135.0</ele><time>2026-05-01T11:40:02.001Z</time></trkpt><trkpt lat="42.289527744204186" lon="12.41731893307531"><ele>135.0</ele><time>2026-05-01T11:40:03.001Z</time></trkpt><trkpt lat="42.289491757726715" lon="12.41717551341137"><ele>135.0</ele><time>2026-05-01T11:40:04.001Z</time></trkpt><trkpt lat="42.28947156999688" lon="12.417014668658146"><ele>135.0</ele><time>2026-05-01T11:40:05.001Z</time></trkpt><trkpt lat="42.289439331758146" lon="12.416868600543063"><ele>135.0</ele><time>2026-05-01T11:40:06.001Z</time></trkpt><trkpt lat="42.28943030378786" lon="12.416738519255702"><ele>135.0</ele><time>2026-05-01T11:40:07.001Z</time></trkpt><trkpt lat="42.28941571487783" lon="12.416621732629105"><ele>134.8</ele><time>2026-05-01T11:40:08.001Z</time></trkpt><trkpt lat="42.28940136043398" lon="12.416506822918384"><ele>134.6</ele><time>2026-05-01T11:40:09.001Z</time></trkpt><trkpt lat="42.289385714176376" lon="12.41638038175802"><ele>134.4</ele><time>2026-05-01T11:40:10.001Z</time></trkpt><trkpt lat="42.289369774979356" lon="12.41624957852059"><ele>134.2</ele><time>2026-05-01T11:40:11.001Z</time></trkpt><trkpt lat="42.289353294950224" lon="12.416114337009683"><ele>134.0</ele><time>2026-05-01T11:40:12.001Z</time></trkpt><trkpt lat="42.2893395192337" lon="12.41598040595787"><ele>134.6</ele><time>2026-05-01T11:40:13.001Z</time></trkpt><trkpt lat="42.28932636908413" lon="12.415849177399359"><ele>135.2</ele><time>2026-05-01T11:40:14.001Z</time></trkpt><trkpt lat="42.28930935885146" lon="12.415703408813311"><ele>135.79999999999998</ele><time>2026-05-01T11:40:15.001Z</time></trkpt><trkpt lat="42.289297949259804" lon="12.415616708920853"><ele>136.4</ele><time>2026-05-01T11:40:16.001Z</time></trkpt><trkpt lat="42.28926513174125" lon="12.415463675364593"><ele>137.0</ele><time>2026-05-01T11:40:18.001Z</time></trkpt><trkpt lat="42.28931398402511" lon="12.4153254166806"><ele>137.33333333333331</ele><time>2026-05-01T11:40:20.001Z</time></trkpt><trkpt lat="42.289429264940416" lon="12.415291526487014"><ele>137.66666666666666</ele><time>2026-05-01T11:40:22.001Z</time></trkpt><trkpt lat="42.2895134731415" lon="12.41527314975788"><ele>138.0</ele><time>2026-05-01T11:40:24Z</time></trkpt><trkpt lat="42.28957063390268" lon="12.415215141866776"><ele>138.33333333333334</ele><time>2026-05-01T11:40:26Z</time></trkpt><trkpt lat="42.28961646080278" lon="12.415120907365898"><ele>138.66666666666669</ele><time>2026-05-01T11:40:28Z</time></trkpt><trkpt lat="42.289618484272445" lon="12.4150344780598"><ele>139.0</ele><time>2026-05-01T11:40:29Z</time></trkpt><trkpt lat="42.28961055608213" lon="12.414923997356953"><ele>139.0</ele><time>2026-05-01T11:40:30Z</time></trkpt><trkpt lat="42.28959715235665" lon="12.41479984195718"><ele>139.0</ele><time>2026-05-01T11:40:31Z</time></trkpt><trkpt lat="42.28958917634781" lon="12.414662034490293"><ele>139.0</ele><time>2026-05-01T11:40:32Z</time></trkpt><trkpt lat="42.289580270220654" lon="12.414510275374491"><ele>139.0</ele><time>2026-05-01T11:40:33Z</time></trkpt><trkpt lat="42.289561687968806" lon="12.414369408307058"><ele>139.0</ele><time>2026-05-01T11:40:34Z</time></trkpt><trkpt lat="42.289542240628094" lon="12.414240798454498"><ele>140.0</ele><time>2026-05-01T11:40:35Z</time></trkpt><trkpt lat="42.2895336825631" lon="12.414131106394581"><ele>141.0</ele><time>2026-05-01T11:40:36Z</time></trkpt><trkpt lat="42.289531964300934" lon="12.41398419634913"><ele>142.0</ele><time>2026-05-01T11:40:38Z</time></trkpt><trkpt lat="42.28958334451456" lon="12.413799339826666"><ele>143.0</ele><time>2026-05-01T11:40:40Z</time></trkpt><trkpt lat="42.2896069466776" lon="12.413678499998168"><ele>144.0</ele><time>2026-05-01T11:40:41Z</time></trkpt><trkpt lat="42.28962418090909" lon="12.41353457662941"><ele>145.0</ele><time>2026-05-01T11:40:42Z</time></trkpt><trkpt lat="42.28964048026996" lon="12.413379968397967"><ele>146.0</ele><time>2026-05-01T11:40:43Z</time></trkpt><trkpt lat="42.289654015476344" lon="12.41321727962477"><ele>147.0</ele><time>2026-05-01T11:40:44Z</time></trkpt><trkpt lat="42.28967797788972" lon="12.4130544310447"><ele>148.0</ele><time>2026-05-01T11:40:45Z</time></trkpt><trkpt lat="42.28969411010404" lon="12.4129098854714"><ele>148.0</ele><time>2026-05-01T11:40:46Z</time></trkpt><trkpt lat="42.28970625628998" lon="12.412770796881137"><ele>148.0</ele><time>2026-05-01T11:40:47Z</time></trkpt><trkpt lat="42.28973037997249" lon="12.412642788006217"><ele>148.0</ele><time>2026-05-01T11:40:48Z</time></trkpt><trkpt lat="42.28977331500914" lon="12.412538674506333"><ele>148.0</ele><time>2026-05-01T11:40:49Z</time></trkpt><trkpt lat="42.28984868505365" lon="12.412467189198386"><ele>148.0</ele><time>2026-05-01T11:40:50Z</time></trkpt><trkpt lat="42.289941085000024" lon="12.412433398543298"><ele>144.20000000000002</ele><time>2026-05-01T11:40:51Z</time></trkpt><trkpt lat="42.290035101374016" lon="12.412440496683994"><ele>140.4</ele><time>2026-05-01T11:40:52Z</time></trkpt><trkpt lat="42.29013400479621" lon="12.412473281726038"><ele>136.60000000000002</ele><time>2026-05-01T11:40:53Z</time></trkpt><trkpt lat="42.29024350396854" lon="12.41250994282467"><ele>132.8</ele><time>2026-05-01T11:40:54Z</time></trkpt><trkpt lat="42.29036749271938" lon="12.412548550508369"><ele>129.0</ele><time>2026-05-01T11:40:55Z</time></trkpt><trkpt lat="42.29050375270601" lon="12.412585338789619"><ele>126.75</ele><time>2026-05-01T11:40:56Z</time></trkpt><trkpt lat="42.290643977547916" lon="12.412633661098509"><ele>124.5</ele><time>2026-05-01T11:40:57Z</time></trkpt><trkpt lat="42.29078510156856" lon="12.412679678740124"><ele>122.25</ele><time>2026-05-01T11:40:58Z</time></trkpt><trkpt lat="42.29092742972763" lon="12.412718801964365"><ele>120.0</ele><time>2026-05-01T11:40:59Z</time></trkpt><trkpt lat="42.29106794633619" lon="12.412758793336792"><ele>120.0</ele><time>2026-05-01T11:41:00Z</time></trkpt><trkpt lat="42.291202611289066" lon="12.412799354455007"><ele>120.0</ele><time>2026-05-01T11:41:01Z</time></trkpt><trkpt lat="42.29133901571152" lon="12.412840825578709"><ele>120.0</ele><time>2026-05-01T11:41:02Z</time></trkpt><trkpt lat="42.291472713847845" lon="12.412880117864038"><ele>120.0</ele><time>2026-05-01T11:41:03Z</time></trkpt><trkpt lat="42.2915971616234" lon="12.412915154237279"><ele>122.8</ele><time>2026-05-01T11:41:04Z</time></trkpt><trkpt lat="42.29172263911535" lon="12.412952575848776"><ele>125.6</ele><time>2026-05-01T11:41:05Z</time></trkpt><trkpt lat="42.29183733922836" lon="12.41298743684989"><ele>128.4</ele><time>2026-05-01T11:41:06Z</time></trkpt><trkpt lat="42.29193811312511" lon="12.41303929275844"><ele>131.2</ele><time>2026-05-01T11:41:07Z</time></trkpt><trkpt lat="42.29202315104377" lon="12.413063884945343"><ele>134.0</ele><time>2026-05-01T11:41:08Z</time></trkpt><trkpt lat="42.292111802083774" lon="12.413090630164698"><ele>134.0</ele><time>2026-05-01T11:41:09Z</time></trkpt><trkpt lat="42.29219640400683" lon="12.413116153765111"><ele>134.0</ele><time>2026-05-01T11:41:10Z</time></trkpt><trkpt lat="42.29228099263265" lon="12.413141673385669"><ele>134.0</ele><time>2026-05-01T11:41:11Z</time></trkpt><trkpt lat="42.292366531981145" lon="12.413167479824619"><ele>134.0</ele><time>2026-05-01T11:41:12Z</time></trkpt><trkpt lat="42.29245228611561" lon="12.413193351060578"><ele>134.0</ele><time>2026-05-01T11:41:13Z</time></trkpt><trkpt lat="42.2925531071474" lon="12.413205737142968"><ele>135.2</ele><time>2026-05-01T11:41:14Z</time></trkpt><trkpt lat="42.292632999666395" lon="12.413231944340584"><ele>136.4</ele><time>2026-05-01T11:41:15Z</time></trkpt><trkpt lat="42.292722880160234" lon="12.413261777433407"><ele>137.6</ele><time>2026-05-01T11:41:16Z</time></trkpt><trkpt lat="42.292830526975614" lon="12.413290122011027"><ele>138.8</ele><time>2026-05-01T11:41:17Z</time></trkpt><trkpt lat="42.292924925912146" lon="12.413321321902362"><ele>140.0</ele><time>2026-05-01T11:41:18Z</time></trkpt><trkpt lat="42.29301780710366" lon="12.413352364700868"><ele>140.6</ele><time>2026-05-01T11:41:19Z</time></trkpt><trkpt lat="42.29310534708922" lon="12.413379573611161"><ele>141.2</ele><time>2026-05-01T11:41:20Z</time></trkpt><trkpt lat="42.29319775377727" lon="12.413407086575866"><ele>141.8</ele><time>2026-05-01T11:41:21Z</time></trkpt><trkpt lat="42.29329030637122" lon="12.413437237546919"><ele>142.4</ele><time>2026-05-01T11:41:22Z</time></trkpt><trkpt lat="42.29339342818055" lon="12.413473161062443"><ele>143.0</ele><time>2026-05-01T11:41:23.001Z</time></trkpt><trkpt lat="42.29350640366734" lon="12.413507478833127"><ele>143.0</ele><time>2026-05-01T11:41:24.001Z</time></trkpt><trkpt lat="42.2936354572084" lon="12.413548513846692"><ele>143.0</ele><time>2026-05-01T11:41:25.001Z</time></trkpt><trkpt lat="42.29377499765285" lon="12.413588819477164"><ele>143.0</ele><time>2026-05-01T11:41:26.001Z</time></trkpt><trkpt lat="42.29391399005841" lon="12.41362789289143"><ele>143.0</ele><time>2026-05-01T11:41:27.001Z</time></trkpt><trkpt lat="42.29405767892219" lon="12.413671278972886"><ele>143.66666666666666</ele><time>2026-05-01T11:41:28.001Z</time></trkpt><trkpt lat="42.29420590127734" lon="12.413712168417058"><ele>144.33333333333334</ele><time>2026-05-01T11:41:29.001Z</time></trkpt><trkpt lat="42.29436531485759" lon="12.413761741489601"><ele>145.0</ele><time>2026-05-01T11:41:30.001Z</time></trkpt><trkpt lat="42.2945214529082" lon="12.413807154307538"><ele>143.33333333333334</ele><time>2026-05-01T11:41:31.001Z</time></trkpt><trkpt lat="42.294676592779794" lon="12.413849519489313"><ele>141.66666666666666</ele><time>2026-05-01T11:41:32.001Z</time></trkpt><trkpt lat="42.29482252828705" lon="12.413913289900021"><ele>140.0</ele><time>2026-05-01T11:41:33.001Z</time></trkpt><trkpt lat="42.2949816875966" lon="12.413941869243166"><ele>139.75</ele><time>2026-05-01T11:41:34.001Z</time></trkpt><trkpt lat="42.295129229847326" lon="12.414007548090119"><ele>139.5</ele><time>2026-05-01T11:41:35.001Z</time></trkpt><trkpt lat="42.29527672895516" lon="12.414053478443007"><ele>139.25</ele><time>2026-05-01T11:41:36.001Z</time></trkpt><trkpt lat="42.295410800667796" lon="12.414095482522994"><ele>139.0</ele><time>2026-05-01T11:41:37.001Z</time></trkpt><trkpt lat="42.29553263652801" lon="12.414133653016254"><ele>139.25</ele><time>2026-05-01T11:41:38.001Z</time></trkpt><trkpt lat="42.29565128154658" lon="12.414170939832376"><ele>139.5</ele><time>2026-05-01T11:41:39.001Z</time></trkpt><trkpt lat="42.295769080070095" lon="12.41420793068731"><ele>139.75</ele><time>2026-05-01T11:41:40.001Z</time></trkpt><trkpt lat="42.295885647272605" lon="12.414244534899835"><ele>140.0</ele><time>2026-05-01T11:41:41.001Z</time></trkpt><trkpt lat="42.295993504860824" lon="12.414278404102728"><ele>140.0</ele><time>2026-05-01T11:41:42.001Z</time></trkpt><trkpt lat="42.296088236229565" lon="12.414308151397742"><ele>140.0</ele><time>2026-05-01T11:41:43.001Z</time></trkpt><trkpt lat="42.29616603073779" lon="12.414331820296605"><ele>140.0</ele><time>2026-05-01T11:41:44.001Z</time></trkpt><trkpt lat="42.29625557719298" lon="12.414045314131224"><ele>140.0</ele><time>2026-05-01T11:41:47.001Z</time></trkpt><trkpt lat="42.29626407264246" lon="12.413927918128493"><ele>140.75</ele><time>2026-05-01T11:41:48.001Z</time></trkpt><trkpt lat="42.29629744582107" lon="12.413791065712635"><ele>141.5</ele><time>2026-05-01T11:41:49.001Z</time></trkpt><trkpt lat="42.296305427901686" lon="12.413631200698497"><ele>142.25</ele><time>2026-05-01T11:41:50.001Z</time></trkpt><trkpt lat="42.296338426956765" lon="12.413478994392229"><ele>143.0</ele><time>2026-05-01T11:41:51.001Z</time></trkpt><trkpt lat="42.29635980350984" lon="12.413317222563872"><ele>143.0</ele><time>2026-05-01T11:41:52.001Z</time></trkpt><trkpt lat="42.29640478994147" lon="12.413157246557045"><ele>143.0</ele><time>2026-05-01T11:41:53.001Z</time></trkpt><trkpt lat="42.29647388943683" lon="12.413014321472343"><ele>143.0</ele><time>2026-05-01T11:41:54.001Z</time></trkpt><trkpt lat="42.296550641027295" lon="12.412891700527833"><ele>143.0</ele><time>2026-05-01T11:41:55.001Z</time></trkpt><trkpt lat="42.2966238034214" lon="12.412772273763755"><ele>144.0</ele><time>2026-05-01T11:41:56.001Z</time></trkpt><trkpt lat="42.29671103990676" lon="12.412665423388551"><ele>145.0</ele><time>2026-05-01T11:41:57.001Z</time></trkpt><trkpt lat="42.29681310628277" lon="12.412552151134253"><ele>146.0</ele><time>2026-05-01T11:41:58.001Z</time></trkpt><trkpt lat="42.29691499367418" lon="12.412435561464337"><ele>147.0</ele><time>2026-05-01T11:41:59.001Z</time></trkpt><trkpt lat="42.297014639373394" lon="12.412314647999093"><ele>147.0</ele><time>2026-05-01T11:42:00.001Z</time></trkpt><trkpt lat="42.29711304230411" lon="12.412202030275072"><ele>147.0</ele><time>2026-05-01T11:42:01.001Z</time></trkpt><trkpt lat="42.29720995150504" lon="12.412081037279279"><ele>147.0</ele><time>2026-05-01T11:42:02.001Z</time></trkpt><trkpt lat="42.29730999311398" lon="12.411958810724716"><ele>147.0</ele><time>2026-05-01T11:42:03.001Z</time></trkpt><trkpt lat="42.29741245281751" lon="12.411842376318122"><ele>147.75</ele><time>2026-05-01T11:42:04.001Z</time></trkpt><trkpt lat="42.297519726803" lon="12.411719094063164"><ele>148.5</ele><time>2026-05-01T11:42:05.001Z</time></trkpt><trkpt lat="42.29762599098068" lon="12.411601652629164"><ele>149.25</ele><time>2026-05-01T11:42:06.001Z</time></trkpt><trkpt lat="42.2977248419664" lon="12.411479331431192"><ele>150.0</ele><time>2026-05-01T11:42:07.001Z</time></trkpt><trkpt lat="42.29782769056117" lon="12.411354132067174"><ele>150.0</ele><time>2026-05-01T11:42:08.001Z</time></trkpt><trkpt lat="42.297931695984126" lon="12.411227760422186"><ele>150.0</ele><time>2026-05-01T11:42:09.001Z</time></trkpt><trkpt lat="42.29804643843579" lon="12.41111755728147"><ele>150.0</ele><time>2026-05-01T11:42:10.001Z</time></trkpt><trkpt lat="42.29814382049231" lon="12.410982569422991"><ele>150.0</ele><time>2026-05-01T11:42:11.001Z</time></trkpt><trkpt lat="42.29826024731705" lon="12.410867115844258"><ele>150.0</ele><time>2026-05-01T11:42:12.001Z</time></trkpt><trkpt lat="42.298375334008256" lon="12.4107512553842"><ele>150.0</ele><time>2026-05-01T11:42:13.001Z</time></trkpt><trkpt lat="42.298485423303134" lon="12.410642948974823"><ele>150.0</ele><time>2026-05-01T11:42:14.001Z</time></trkpt><trkpt lat="42.29858611705333" lon="12.41054895089444"><ele>150.0</ele><time>2026-05-01T11:42:15.001Z</time></trkpt><trkpt lat="42.29866805907132" lon="12.41046923480062"><ele>150.0</ele><time>2026-05-01T11:42:16.001Z</time></trkpt><trkpt lat="42.29873395595387" lon="12.410416173625755"><ele>150.0</ele><time>2026-05-01T11:42:17.001Z</time></trkpt><trkpt lat="42.2987981545941" lon="12.410356106808814"><ele>150.0</ele><time>2026-05-01T11:42:20.001Z</time></trkpt><trkpt lat="42.29885362333377" lon="12.410313674640143"><ele>150.0</ele><time>2026-05-01T11:42:22.001Z</time></trkpt><trkpt lat="42.29892687631536" lon="12.410228458818745"><ele>150.0</ele><time>2026-05-01T11:42:24.001Z</time></trkpt><trkpt lat="42.2989783070782" lon="12.41016876521616"><ele>150.0</ele><time>2026-05-01T11:42:25.001Z</time></trkpt><trkpt lat="42.29903696323114" lon="12.410101566947576"><ele>150.33333333333334</ele><time>2026-05-01T11:42:26.001Z</time></trkpt><trkpt lat="42.29909944991188" lon="12.410032689470274"><ele>150.66666666666666</ele><time>2026-05-01T11:42:27.001Z</time></trkpt><trkpt lat="42.29916234275705" lon="12.409963932663807"><ele>151.0</ele><time>2026-05-01T11:42:28.001Z</time></trkpt><trkpt lat="42.29921952126555" lon="12.40990001437668"><ele>151.33333333333331</ele><time>2026-05-01T11:42:29.001Z</time></trkpt><trkpt lat="42.29927770805033" lon="12.409834598026954"><ele>151.66666666666666</ele><time>2026-05-01T11:42:30Z</time></trkpt><trkpt lat="42.29933743906811" lon="12.409761024905718"><ele>152.0</ele><time>2026-05-01T11:42:31Z</time></trkpt><trkpt lat="42.29939803057308" lon="12.409685013177025"><ele>152.0</ele><time>2026-05-01T11:42:32Z</time></trkpt><trkpt lat="42.299453304833925" lon="12.409590141950833"><ele>152.0</ele><time>2026-05-01T11:42:33Z</time></trkpt><trkpt lat="42.299508390935635" lon="12.409490382976177"><ele>152.0</ele><time>2026-05-01T11:42:34Z</time></trkpt><trkpt lat="42.299553475753164" lon="12.40937787081696"><ele>152.0</ele><time>2026-05-01T11:42:35Z</time></trkpt><trkpt lat="42.29962220935935" lon="12.409266366479239"><ele>152.0</ele><time>2026-05-01T11:42:36Z</time></trkpt><trkpt lat="42.299663884899026" lon="12.409133299199086"><ele>152.0</ele><time>2026-05-01T11:42:37Z</time></trkpt><trkpt lat="42.299721539468344" lon="12.409003043291005"><ele>152.0</ele><time>2026-05-01T11:42:38Z</time></trkpt><trkpt lat="42.29978781225704" lon="12.408858285019127"><ele>152.0</ele><time>2026-05-01T11:42:39Z</time></trkpt><trkpt lat="42.29985398316275" lon="12.408693155808985"><ele>152.0</ele><time>2026-05-01T11:42:40Z</time></trkpt><trkpt lat="42.29993072846577" lon="12.408520962997988"><ele>152.66666666666666</ele><time>2026-05-01T11:42:41Z</time></trkpt><trkpt lat="42.3000043117576" lon="12.408351107466691"><ele>153.33333333333334</ele><time>2026-05-01T11:42:42Z</time></trkpt><trkpt lat="42.30008482964585" lon="12.408175767822872"><ele>154.0</ele><time>2026-05-01T11:42:43Z</time></trkpt><trkpt lat="42.3001652887327" lon="12.407990347600277"><ele>154.0</ele><time>2026-05-01T11:42:44Z</time></trkpt><trkpt lat="42.30027190246771" lon="12.407806680497757"><ele>154.0</ele><time>2026-05-01T11:42:45Z</time></trkpt><trkpt lat="42.30037547746959" lon="12.407594809345586"><ele>154.0</ele><time>2026-05-01T11:42:46Z</time></trkpt><trkpt lat="42.300480007858084" lon="12.407376348109018"><ele>154.33333333333334</ele><time>2026-05-01T11:42:47Z</time></trkpt><trkpt lat="42.30057987450046" lon="12.407143730819753"><ele>154.66666666666666</ele><time>2026-05-01T11:42:48Z</time></trkpt><trkpt lat="42.30069819896932" lon="12.40693228835202"><ele>155.0</ele><time>2026-05-01T11:42:49Z</time></trkpt><trkpt lat="42.300817030259125" lon="12.406703637727674"><ele>155.0</ele><time>2026-05-01T11:42:50Z</time></trkpt><trkpt lat="42.300925826704805" lon="12.406470991154649"><ele>155.0</ele><time>2026-05-01T11:42:51Z</time></trkpt><trkpt lat="42.30104172694935" lon="12.406232755451589"><ele>155.0</ele><time>2026-05-01T11:42:52Z</time></trkpt><trkpt lat="42.301161698024565" lon="12.405991644211767"><ele>155.0</ele><time>2026-05-01T11:42:53Z</time></trkpt><trkpt lat="42.301279894990834" lon="12.40577060906108"><ele>155.0</ele><time>2026-05-01T11:42:54Z</time></trkpt><trkpt lat="42.30138758591378" lon="12.405561006053931"><ele>155.0</ele><time>2026-05-01T11:42:55Z</time></trkpt><trkpt lat="42.30148942860382" lon="12.405354831491591"><ele>155.0</ele><time>2026-05-01T11:42:56Z</time></trkpt><trkpt lat="42.30158239298651" lon="12.405150524664162"><ele>155.0</ele><time>2026-05-01T11:42:57Z</time></trkpt><trkpt lat="42.30168000235082" lon="12.404949158932313"><ele>155.0</ele><time>2026-05-01T11:42:58Z</time></trkpt><trkpt lat="42.30176616278554" lon="12.404752962541137"><ele>155.0</ele><time>2026-05-01T11:42:59Z</time></trkpt><trkpt lat="42.30184837484851" lon="12.40456227164742"><ele>155.0</ele><time>2026-05-01T11:43:00Z</time></trkpt><trkpt lat="42.30193108825053" lon="12.404381250432646"><ele>155.0</ele><time>2026-05-01T11:43:01Z</time></trkpt><trkpt lat="42.30202468558887" lon="12.404211968708944"><ele>155.0</ele><time>2026-05-01T11:43:02Z</time></trkpt><trkpt lat="42.302125557587836" lon="12.404056469177975"><ele>155.0</ele><time>2026-05-01T11:43:03Z</time></trkpt><trkpt lat="42.30224390405516" lon="12.403913141150948"><ele>155.0</ele><time>2026-05-01T11:43:04Z</time></trkpt><trkpt lat="42.30238383875288" lon="12.403805075871567"><ele>155.33333333333331</ele><time>2026-05-01T11:43:05Z</time></trkpt><trkpt lat="42.30251679017894" lon="12.403663044982974"><ele>155.66666666666666</ele><time>2026-05-01T11:43:06Z</time></trkpt><trkpt lat="42.30265654521917" lon="12.403526155843942"><ele>156.0</ele><time>2026-05-01T11:43:07Z</time></trkpt><trkpt lat="42.30280146770873" lon="12.403377937141283"><ele>156.0</ele><time>2026-05-01T11:43:08Z</time></trkpt><trkpt lat="42.30294783527547" lon="12.403229458839403"><ele>156.0</ele><time>2026-05-01T11:43:09Z</time></trkpt><trkpt lat="42.30308759444898" lon="12.403092437204496"><ele>156.0</ele><time>2026-05-01T11:43:10Z</time></trkpt><trkpt lat="42.303217986988564" lon="12.402964666913505"><ele>156.0</ele><time>2026-05-01T11:43:11Z</time></trkpt><trkpt lat="42.303363112271235" lon="12.402854284684647"><ele>156.0</ele><time>2026-05-01T11:43:12Z</time></trkpt><trkpt lat="42.30352203821681" lon="12.402769582547167"><ele>156.0</ele><time>2026-05-01T11:43:13Z</time></trkpt><trkpt lat="42.303666497336145" lon="12.402648625898383"><ele>156.0</ele><time>2026-05-01T11:43:14Z</time></trkpt><trkpt lat="42.3038166664287" lon="12.402548153265453"><ele>156.0</ele><time>2026-05-01T11:43:15Z</time></trkpt><trkpt lat="42.30395878292798" lon="12.402421464761808"><ele>156.0</ele><time>2026-05-01T11:43:16Z</time></trkpt><trkpt lat="42.304104806495964" lon="12.402270990244848"><ele>156.33333333333334</ele><time>2026-05-01T11:43:17Z</time></trkpt><trkpt lat="42.30423801128029" lon="12.402099953232948"><ele>156.66666666666669</ele><time>2026-05-01T11:43:18Z</time></trkpt><trkpt lat="42.304376143107135" lon="12.401931017866177"><ele>157.0</ele><time>2026-05-01T11:43:19Z</time></trkpt><trkpt lat="42.30452179161209" lon="12.401749404931682"><ele>157.0</ele><time>2026-05-01T11:43:20Z</time></trkpt><trkpt lat="42.30466594629003" lon="12.401563610250735"><ele>157.0</ele><time>2026-05-01T11:43:21Z</time></trkpt><trkpt lat="42.30481703088144" lon="12.401377319684304"><ele>157.0</ele><time>2026-05-01T11:43:22Z</time></trkpt><trkpt lat="42.30496911131002" lon="12.40118285352041"><ele>156.33333333333334</ele><time>2026-05-01T11:43:23Z</time></trkpt><trkpt lat="42.3051281371353" lon="12.400990607620406"><ele>155.66666666666666</ele><time>2026-05-01T11:43:24Z</time></trkpt><trkpt lat="42.3052839746587" lon="12.40079872143203"><ele>155.0</ele><time>2026-05-01T11:43:25Z</time></trkpt><trkpt lat="42.30544421033961" lon="12.400603558238078"><ele>155.66666666666666</ele><time>2026-05-01T11:43:26Z</time></trkpt><trkpt lat="42.30560227818531" lon="12.400405117174502"><ele>156.33333333333334</ele><time>2026-05-01T11:43:27Z</time></trkpt><trkpt lat="42.30575413872301" lon="12.400212734088234"><ele>157.0</ele><time>2026-05-01T11:43:28Z</time></trkpt><trkpt lat="42.30591088952589" lon="12.400013020723542"><ele>157.0</ele><time>2026-05-01T11:43:29Z</time></trkpt><trkpt lat="42.306067004087254" lon="12.399812164508855"><ele>157.0</ele><time>2026-05-01T11:43:30Z</time></trkpt><trkpt lat="42.306227763525" lon="12.39961478592482"><ele>157.0</ele><time>2026-05-01T11:43:31Z</time></trkpt><trkpt lat="42.30639008247955" lon="12.399407181172844"><ele>154.5</ele><time>2026-05-01T11:43:32Z</time></trkpt><trkpt lat="42.30655545970034" lon="12.399197697623109"><ele>152.0</ele><time>2026-05-01T11:43:33Z</time></trkpt><trkpt lat="42.30672571920429" lon="12.398986679553532"><ele>152.5</ele><time>2026-05-01T11:43:34Z</time></trkpt><trkpt lat="42.30690425412863" lon="12.39878592294467"><ele>153.0</ele><time>2026-05-01T11:43:35Z</time></trkpt><trkpt lat="42.30707370017419" lon="12.398573111263588"><ele>153.0</ele><time>2026-05-01T11:43:36Z</time></trkpt><trkpt lat="42.30723554691563" lon="12.39834367502432"><ele>153.0</ele><time>2026-05-01T11:43:37Z</time></trkpt><trkpt lat="42.30740785494801" lon="12.398133270291938"><ele>153.0</ele><time>2026-05-01T11:43:38Z</time></trkpt><trkpt lat="42.30757813385799" lon="12.397922841066906"><ele>153.0</ele><time>2026-05-01T11:43:39Z</time></trkpt><trkpt lat="42.307747000163104" lon="12.39770721697838"><ele>153.0</ele><time>2026-05-01T11:43:40Z</time></trkpt><trkpt lat="42.3079162470011" lon="12.397493583991391"><ele>153.0</ele><time>2026-05-01T11:43:41Z</time></trkpt><trkpt lat="42.30808412082958" lon="12.39727987825076"><ele>154.0</ele><time>2026-05-01T11:43:42Z</time></trkpt><trkpt lat="42.30824891756148" lon="12.39706953612652"><ele>155.0</ele><time>2026-05-01T11:43:43Z</time></trkpt><trkpt lat="42.30841234946267" lon="12.396874368870808"><ele>156.0</ele><time>2026-05-01T11:43:44Z</time></trkpt><trkpt lat="42.30856335628926" lon="12.396688617045871"><ele>156.0</ele><time>2026-05-01T11:43:45Z</time></trkpt><trkpt lat="42.30869652762926" lon="12.396521248027774"><ele>156.0</ele><time>2026-05-01T11:43:46Z</time></trkpt><trkpt lat="42.308820336368754" lon="12.396376567581735"><ele>156.0</ele><time>2026-05-01T11:43:47Z</time></trkpt><trkpt lat="42.308949082490805" lon="12.396250996764195"><ele>157.33333333333334</ele><time>2026-05-01T11:43:48Z</time></trkpt><trkpt lat="42.30909218578932" lon="12.396139060803542"><ele>158.66666666666669</ele><time>2026-05-01T11:43:49Z</time></trkpt><trkpt lat="42.30924684280921" lon="12.39604130203597"><ele>160.0</ele><time>2026-05-01T11:43:50Z</time></trkpt><trkpt lat="42.309409700859725" lon="12.395942924335435"><ele>160.0</ele><time>2026-05-01T11:43:51Z</time></trkpt><trkpt lat="42.30957970634912" lon="12.395841280656638"><ele>160.0</ele><time>2026-05-01T11:43:52Z</time></trkpt><trkpt lat="42.309752135496815" lon="12.395738281811804"><ele>160.0</ele><time>2026-05-01T11:43:53.001Z</time></trkpt><trkpt lat="42.30993122591938" lon="12.39562814634089"><ele>160.0</ele><time>2026-05-01T11:43:54.001Z</time></trkpt><trkpt lat="42.310113287295835" lon="12.395515889175163"><ele>160.0</ele><time>2026-05-01T11:43:55.001Z</time></trkpt><trkpt lat="42.31030140111372" lon="12.39539853930255"><ele>160.0</ele><time>2026-05-01T11:43:56.001Z</time></trkpt><trkpt lat="42.310485126269256" lon="12.395291290128077"><ele>161.66666666666669</ele><time>2026-05-01T11:43:57.001Z</time></trkpt><trkpt lat="42.310683856712686" lon="12.395170221684129"><ele>163.33333333333334</ele><time>2026-05-01T11:43:58.001Z</time></trkpt><trkpt lat="42.31086969788028" lon="12.395048518599394"><ele>165.0</ele><time>2026-05-01T11:43:59.001Z</time></trkpt><trkpt lat="42.31106013355211" lon="12.394927418335918"><ele>165.0</ele><time>2026-05-01T11:44:00.001Z</time></trkpt><trkpt lat="42.31124732342623" lon="12.394814720971281"><ele>165.0</ele><time>2026-05-01T11:44:01.001Z</time></trkpt><trkpt lat="42.311431247132866" lon="12.394698061762696"><ele>165.0</ele><time>2026-05-01T11:44:02.001Z</time></trkpt><trkpt lat="42.31159966801282" lon="12.394594519747482"><ele>166.0</ele><time>2026-05-01T11:44:03.001Z</time></trkpt><trkpt lat="42.31176044540941" lon="12.394490753087931"><ele>167.0</ele><time>2026-05-01T11:44:04.001Z</time></trkpt><trkpt lat="42.31192135593525" lon="12.394399054444118"><ele>168.0</ele><time>2026-05-01T11:44:05.001Z</time></trkpt><trkpt lat="42.312081218356" lon="12.394310930173726"><ele>168.33333333333334</ele><time>2026-05-01T11:44:06.001Z</time></trkpt><trkpt lat="42.31224513869056" lon="12.39423763871373"><ele>168.66666666666669</ele><time>2026-05-01T11:44:07.001Z</time></trkpt><trkpt lat="42.31241683891043" lon="12.394166599100762"><ele>169.0</ele><time>2026-05-01T11:44:08.001Z</time></trkpt><trkpt lat="42.312589743944315" lon="12.394094763541812"><ele>169.0</ele><time>2026-05-01T11:44:09.001Z</time></trkpt><trkpt lat="42.312764190847666" lon="12.394029154739407"><ele>169.0</ele><time>2026-05-01T11:44:10.001Z</time></trkpt><trkpt lat="42.312926435674726" lon="12.393969911496654"><ele>169.0</ele><time>2026-05-01T11:44:11.001Z</time></trkpt><trkpt lat="42.313089720665346" lon="12.393919660747315"><ele>169.0</ele><time>2026-05-01T11:44:12.001Z</time></trkpt><trkpt lat="42.31321812376191" lon="12.393788066205147"><ele>169.0</ele><time>2026-05-01T11:44:13.001Z</time></trkpt><trkpt lat="42.31332903297731" lon="12.393669753936212"><ele>169.0</ele><time>2026-05-01T11:44:14.001Z</time></trkpt><trkpt lat="42.31342636139936" lon="12.39352530652695"><ele>169.0</ele><time>2026-05-01T11:44:15.001Z</time></trkpt><trkpt lat="42.31351096550904" lon="12.393359128987107"><ele>169.0</ele><time>2026-05-01T11:44:16.001Z</time></trkpt><trkpt lat="42.31357364882203" lon="12.393178394658989"><ele>169.0</ele><time>2026-05-01T11:44:17.001Z</time></trkpt><trkpt lat="42.31362865390316" lon="12.392966806953575"><ele>169.0</ele><time>2026-05-01T11:44:18.001Z</time></trkpt><trkpt lat="42.31367935070797" lon="12.392748516580648"><ele>169.0</ele><time>2026-05-01T11:44:19.001Z</time></trkpt><trkpt lat="42.3137285628131" lon="12.392509590441696"><ele>169.0</ele><time>2026-05-01T11:44:20.001Z</time></trkpt><trkpt lat="42.313783772593936" lon="12.392264695144704"><ele>169.0</ele><time>2026-05-01T11:44:21.001Z</time></trkpt><trkpt lat="42.31382732771874" lon="12.392009696179882"><ele>169.33333333333334</ele><time>2026-05-01T11:44:22.001Z</time></trkpt><trkpt lat="42.31385864831689" lon="12.391753755687283"><ele>169.66666666666666</ele><time>2026-05-01T11:44:23.001Z</time></trkpt><trkpt lat="42.31389004845853" lon="12.391468265149594"><ele>170.0</ele><time>2026-05-01T11:44:24.001Z</time></trkpt><trkpt lat="42.31391916438575" lon="12.39116862536026"><ele>166.0</ele><time>2026-05-01T11:44:25.001Z</time></trkpt><trkpt lat="42.31395559577275" lon="12.390854097513277"><ele>162.0</ele><time>2026-05-01T11:44:26.001Z</time></trkpt><trkpt lat="42.313993107502306" lon="12.390529347501456"><ele>162.33333333333334</ele><time>2026-05-01T11:44:27.001Z</time></trkpt><trkpt lat="42.31402769825125" lon="12.390223563251757"><ele>162.66666666666669</ele><time>2026-05-01T11:44:28.001Z</time></trkpt><trkpt lat="42.31406402349116" lon="12.389936732250012"><ele>163.0</ele><time>2026-05-01T11:44:29.001Z</time></trkpt><trkpt lat="42.31409726968995" lon="12.389663569008924"><ele>163.33333333333334</ele><time>2026-05-01T11:44:30.001Z</time></trkpt><trkpt lat="42.31414692848628" lon="12.389424153678975"><ele>163.66666666666666</ele><time>2026-05-01T11:44:31.001Z</time></trkpt><trkpt lat="42.31420602137976" lon="12.389214393926775"><ele>164.0</ele><time>2026-05-01T11:44:32.001Z</time></trkpt><trkpt lat="42.31428598991509" lon="12.389035056168645"><ele>164.0</ele><time>2026-05-01T11:44:33.001Z</time></trkpt><trkpt lat="42.31438194250802" lon="12.388898205907617"><ele>164.0</ele><time>2026-05-01T11:44:34.001Z</time></trkpt><trkpt lat="42.31452769671888" lon="12.388830703229853"><ele>164.0</ele><time>2026-05-01T11:44:35.001Z</time></trkpt><trkpt lat="42.31467743946041" lon="12.388755263591838"><ele>166.0</ele><time>2026-05-01T11:44:36Z</time></trkpt><trkpt lat="42.314846569892666" lon="12.388622958030881"><ele>168.0</ele><time>2026-05-01T11:44:37Z</time></trkpt><trkpt lat="42.314915974565245" lon="12.388408735185442"><ele>170.0</ele><time>2026-05-01T11:44:38Z</time></trkpt><trkpt lat="42.3150409112442" lon="12.388221637075603"><ele>170.0</ele><time>2026-05-01T11:44:39Z</time></trkpt><trkpt lat="42.315172505785696" lon="12.388043119971645"><ele>170.0</ele><time>2026-05-01T11:44:40Z</time></trkpt><trkpt lat="42.31530145508293" lon="12.38784932901741"><ele>170.0</ele><time>2026-05-01T11:44:41Z</time></trkpt><trkpt lat="42.31544679598548" lon="12.387620130601144"><ele>170.66666666666666</ele><time>2026-05-01T11:44:42Z</time></trkpt><trkpt lat="42.31563520640106" lon="12.387443668356317"><ele>171.33333333333334</ele><time>2026-05-01T11:44:43Z</time></trkpt><trkpt lat="42.31576241824419" lon="12.387476583337389"><ele>172.0</ele><time>2026-05-01T11:44:44Z</time></trkpt><trkpt lat="42.31590354304445" lon="12.38748457920346"><ele>172.0</ele><time>2026-05-01T11:44:45Z</time></trkpt><trkpt lat="42.31600658447444" lon="12.387541724863627"><ele>172.0</ele><time>2026-05-01T11:44:46Z</time></trkpt><trkpt lat="42.31612585765344" lon="12.387560368617127"><ele>172.0</ele><time>2026-05-01T11:44:47Z</time></trkpt><trkpt lat="42.31626968394617" lon="12.38755115517892"><ele>172.0</ele><time>2026-05-01T11:44:48Z</time></trkpt><trkpt lat="42.316432030616305" lon="12.387536020890263"><ele>172.66666666666669</ele><time>2026-05-01T11:44:49Z</time></trkpt><trkpt lat="42.3166501478214" lon="12.387412558095715"><ele>173.33333333333334</ele><time>2026-05-01T11:44:50Z</time></trkpt><trkpt lat="42.31680749880544" lon="12.387321656666877"><ele>174.0</ele><time>2026-05-01T11:44:51Z</time></trkpt><trkpt lat="42.31695683020928" lon="12.387211654103575"><ele>174.33333333333334</ele><time>2026-05-01T11:44:52Z</time></trkpt><trkpt lat="42.31709672502346" lon="12.387088059147874"><ele>174.66666666666669</ele><time>2026-05-01T11:44:53Z</time></trkpt><trkpt lat="42.317230756653125" lon="12.386956064698644"><ele>175.0</ele><time>2026-05-01T11:44:54Z</time></trkpt><trkpt lat="42.31735488156331" lon="12.386835775342885"><ele>175.0</ele><time>2026-05-01T11:44:55Z</time></trkpt><trkpt lat="42.317455659628465" lon="12.386714475968022"><ele>175.0</ele><time>2026-05-01T11:44:56Z</time></trkpt><trkpt lat="42.31753735020581" lon="12.386581993616796"><ele>175.0</ele><time>2026-05-01T11:44:57Z</time></trkpt><trkpt lat="42.317600017431715" lon="12.386455935351734"><ele>175.0</ele><time>2026-05-01T11:44:58Z</time></trkpt><trkpt lat="42.31768799741553" lon="12.386367478140308"><ele>175.0</ele><time>2026-05-01T11:44:59Z</time></trkpt><trkpt lat="42.31777336038057" lon="12.386354121975145"><ele>175.0</ele><time>2026-05-01T11:45:00Z</time></trkpt><trkpt lat="42.31786439824311" lon="12.386344217412296"><ele>175.0</ele><time>2026-05-01T11:45:01Z</time></trkpt><trkpt lat="42.31795508586613" lon="12.386271978095756"><ele>175.0</ele><time>2026-05-01T11:45:02Z</time></trkpt><trkpt lat="42.318044441112775" lon="12.386151329810241"><ele>175.0</ele><time>2026-05-01T11:45:03Z</time></trkpt><trkpt lat="42.31813186396197" lon="12.386013407549505"><ele>175.66666666666669</ele><time>2026-05-01T11:45:04Z</time></trkpt><trkpt lat="42.318252379655455" lon="12.385879437980222"><ele>176.33333333333334</ele><time>2026-05-01T11:45:05Z</time></trkpt><trkpt lat="42.31838336963486" lon="12.385757027024164"><ele>177.0</ele><time>2026-05-01T11:45:06Z</time></trkpt><trkpt lat="42.31851694996517" lon="12.385619126156183"><ele>177.66666666666666</ele><time>2026-05-01T11:45:07Z</time></trkpt><trkpt lat="42.318658369915745" lon="12.385458769488348"><ele>178.33333333333331</ele><time>2026-05-01T11:45:08Z</time></trkpt><trkpt lat="42.31880268160715" lon="12.385280054791895"><ele>179.0</ele><time>2026-05-01T11:45:09Z</time></trkpt><trkpt lat="42.31896168573278" lon="12.38510685750775"><ele>179.0</ele><time>2026-05-01T11:45:10Z</time></trkpt><trkpt lat="42.319123873227575" lon="12.384928570367085"><ele>179.0</ele><time>2026-05-01T11:45:11Z</time></trkpt><trkpt lat="42.31927800684287" lon="12.384740845270311"><ele>179.0</ele><time>2026-05-01T11:45:12Z</time></trkpt><trkpt lat="42.31941258813118" lon="12.384507155996955"><ele>179.66666666666666</ele><time>2026-05-01T11:45:13Z</time></trkpt><trkpt lat="42.31953718164462" lon="12.384280471613296"><ele>180.33333333333334</ele><time>2026-05-01T11:45:14Z</time></trkpt><trkpt lat="42.31964932283663" lon="12.38405636767022"><ele>181.0</ele><time>2026-05-01T11:45:15Z</time></trkpt><trkpt lat="42.31975146495139" lon="12.383836093756884"><ele>181.0</ele><time>2026-05-01T11:45:16Z</time></trkpt><trkpt lat="42.31986032265284" lon="12.383612529492746"><ele>181.0</ele><time>2026-05-01T11:45:17Z</time></trkpt><trkpt lat="42.31996442147797" lon="12.383391455171497"><ele>181.0</ele><time>2026-05-01T11:45:18Z</time></trkpt><trkpt lat="42.320074553583375" lon="12.383176232653485"><ele>181.66666666666669</ele><time>2026-05-01T11:45:19Z</time></trkpt><trkpt lat="42.32017493310511" lon="12.382958076099143"><ele>182.33333333333334</ele><time>2026-05-01T11:45:20Z</time></trkpt><trkpt lat="42.320279981730955" lon="12.382734829425187"><ele>183.0</ele><time>2026-05-01T11:45:21Z</time></trkpt><trkpt lat="42.32038263196527" lon="12.382510394709975"><ele>183.0</ele><time>2026-05-01T11:45:22Z</time></trkpt><trkpt lat="42.32049238197638" lon="12.38229414849469"><ele>183.0</ele><time>2026-05-01T11:45:23Z</time></trkpt><trkpt lat="42.3205933024025" lon="12.382086340159994"><ele>183.0</ele><time>2026-05-01T11:45:24Z</time></trkpt><trkpt lat="42.32069143986557" lon="12.381895964651141"><ele>180.5</ele><time>2026-05-01T11:45:25Z</time></trkpt><trkpt lat="42.32077337785516" lon="12.38174080808044"><ele>178.0</ele><time>2026-05-01T11:45:26Z</time></trkpt><trkpt lat="42.32086966001735" lon="12.381626380685407"><ele>175.5</ele><time>2026-05-01T11:45:27Z</time></trkpt><trkpt lat="42.32097402400907" lon="12.381534748136328"><ele>173.0</ele><time>2026-05-01T11:45:28Z</time></trkpt><trkpt lat="42.32109762472365" lon="12.381485072299919"><ele>173.0</ele><time>2026-05-01T11:45:29Z</time></trkpt><trkpt lat="42.32123727940702" lon="12.381475974803294"><ele>173.0</ele><time>2026-05-01T11:45:30Z</time></trkpt><trkpt lat="42.32138174598686" lon="12.381483168443166"><ele>173.0</ele><time>2026-05-01T11:45:31Z</time></trkpt><trkpt lat="42.32153620272617" lon="12.381472763386862"><ele>173.0</ele><time>2026-05-01T11:45:32Z</time></trkpt><trkpt lat="42.32170125829486" lon="12.381492010150145"><ele>171.33333333333331</ele><time>2026-05-01T11:45:33Z</time></trkpt><trkpt lat="42.32186901297572" lon="12.381507838037189"><ele>169.66666666666666</ele><time>2026-05-01T11:45:34Z</time></trkpt><trkpt lat="42.32204396951413" lon="12.38151555557111"><ele>168.0</ele><time>2026-05-01T11:45:35Z</time></trkpt><trkpt lat="42.32221895691204" lon="12.381510720343373"><ele>168.0</ele><time>2026-05-01T11:45:36Z</time></trkpt><trkpt lat="42.32238535914177" lon="12.381470867353888"><ele>168.0</ele><time>2026-05-01T11:45:37Z</time></trkpt><trkpt lat="42.32253253547027" lon="12.381394665136222"><ele>168.0</ele><time>2026-05-01T11:45:38Z</time></trkpt><trkpt lat="42.322693469347165" lon="12.381276028243121"><ele>170.66666666666666</ele><time>2026-05-01T11:45:39Z</time></trkpt><trkpt lat="42.322853467096174" lon="12.381136000222263"><ele>173.33333333333331</ele><time>2026-05-01T11:45:40Z</time></trkpt><trkpt lat="42.32301352934907" lon="12.381013643039728"><ele>176.0</ele><time>2026-05-01T11:45:41Z</time></trkpt><trkpt lat="42.323177330139885" lon="12.38089129004671"><ele>178.0</ele><time>2026-05-01T11:45:42Z</time></trkpt><trkpt lat="42.32334815702802" lon="12.380757486467143"><ele>180.0</ele><time>2026-05-01T11:45:43Z</time></trkpt><trkpt lat="42.3235191508776" lon="12.380623489069512"><ele>182.0</ele><time>2026-05-01T11:45:44Z</time></trkpt><trkpt lat="42.323690891297694" lon="12.380491276286472"><ele>182.0</ele><time>2026-05-01T11:45:45Z</time></trkpt><trkpt lat="42.323868388820074" lon="12.380354994046344"><ele>182.0</ele><time>2026-05-01T11:45:46Z</time></trkpt><trkpt lat="42.324041275079225" lon="12.380226818087436"><ele>182.0</ele><time>2026-05-01T11:45:47Z</time></trkpt><trkpt lat="42.32421791788458" lon="12.380092539655001"><ele>182.0</ele><time>2026-05-01T11:45:48Z</time></trkpt><trkpt lat="42.32439117946276" lon="12.379961301136566"><ele>182.0</ele><time>2026-05-01T11:45:49Z</time></trkpt><trkpt lat="42.324565817677296" lon="12.37982286684605"><ele>182.0</ele><time>2026-05-01T11:45:50Z</time></trkpt><trkpt lat="42.32474920354034" lon="12.379707084483849"><ele>181.0</ele><time>2026-05-01T11:45:51Z</time></trkpt><trkpt lat="42.324928793617254" lon="12.379570618732322"><ele>180.0</ele><time>2026-05-01T11:45:52Z</time></trkpt><trkpt lat="42.32510494861812" lon="12.379437454380101"><ele>179.0</ele><time>2026-05-01T11:45:53Z</time></trkpt><trkpt lat="42.32526311109349" lon="12.37929414856372"><ele>179.0</ele><time>2026-05-01T11:45:54Z</time></trkpt><trkpt lat="42.32542066345376" lon="12.379183987576234"><ele>179.0</ele><time>2026-05-01T11:45:55Z</time></trkpt><trkpt lat="42.32558991172394" lon="12.379111669273106"><ele>179.0</ele><time>2026-05-01T11:45:56Z</time></trkpt><trkpt lat="42.3257649892689" lon="12.379051585764744"><ele>180.33333333333331</ele><time>2026-05-01T11:45:57Z</time></trkpt><trkpt lat="42.32595499241338" lon="12.37901304595745"><ele>181.66666666666666</ele><time>2026-05-01T11:45:58Z</time></trkpt><trkpt lat="42.32614803614727" lon="12.378986831079363"><ele>183.0</ele><time>2026-05-01T11:45:59Z</time></trkpt><trkpt lat="42.326351110238754" lon="12.378964815471049"><ele>182.66666666666666</ele><time>2026-05-01T11:46:00Z</time></trkpt><trkpt lat="42.32655627471561" lon="12.378942484442405"><ele>182.33333333333331</ele><time>2026-05-01T11:46:01.001Z</time></trkpt><trkpt lat="42.326754274670364" lon="12.378920858706506"><ele>182.0</ele><time>2026-05-01T11:46:02.001Z</time></trkpt><trkpt lat="42.32693438358079" lon="12.378900776388818"><ele>182.0</ele><time>2026-05-01T11:46:03.001Z</time></trkpt><trkpt lat="42.32709889599017" lon="12.378861939441931"><ele>182.0</ele><time>2026-05-01T11:46:04.001Z</time></trkpt><trkpt lat="42.3272570356572" lon="12.378846049195314"><ele>182.0</ele><time>2026-05-01T11:46:05.001Z</time></trkpt><trkpt lat="42.32740354179878" lon="12.378834351940615"><ele>182.75</ele><time>2026-05-01T11:46:06.001Z</time></trkpt><trkpt lat="42.32753581611044" lon="12.378865425100377"><ele>183.5</ele><time>2026-05-01T11:46:07.001Z</time></trkpt><trkpt lat="42.3276649906487" lon="12.378887819621044"><ele>184.25</ele><time>2026-05-01T11:46:08.001Z</time></trkpt><trkpt lat="42.32779087500737" lon="12.378921061861737"><ele>185.0</ele><time>2026-05-01T11:46:09.001Z</time></trkpt><trkpt lat="42.3279226565572" lon="12.378938686668697"><ele>185.0</ele><time>2026-05-01T11:46:10.001Z</time></trkpt><trkpt lat="42.328051211925306" lon="12.378980878841066"><ele>185.0</ele><time>2026-05-01T11:46:11.001Z</time></trkpt><trkpt lat="42.32818561161854" lon="12.379022317816435"><ele>185.0</ele><time>2026-05-01T11:46:12.001Z</time></trkpt><trkpt lat="42.3283105724794" lon="12.379058605639313"><ele>185.0</ele><time>2026-05-01T11:46:13.001Z</time></trkpt><trkpt lat="42.328433842501944" lon="12.379085668060839"><ele>185.0</ele><time>2026-05-01T11:46:14.001Z</time></trkpt><trkpt lat="42.328572890177675" lon="12.379108384345423"><ele>185.0</ele><time>2026-05-01T11:46:15.001Z</time></trkpt><trkpt lat="42.32872253494253" lon="12.37910741504535"><ele>185.0</ele><time>2026-05-01T11:46:16.001Z</time></trkpt><trkpt lat="42.328875011115116" lon="12.379093976552141"><ele>185.0</ele><time>2026-05-01T11:46:17.001Z</time></trkpt><trkpt lat="42.32903151575435" lon="12.379067775745128"><ele>182.66666666666666</ele><time>2026-05-01T11:46:18.001Z</time></trkpt><trkpt lat="42.329187035145985" lon="12.37903142436976"><ele>180.33333333333334</ele><time>2026-05-01T11:46:19.001Z</time></trkpt><trkpt lat="42.329349783904966" lon="12.378992288096468"><ele>178.0</ele><time>2026-05-01T11:46:20.001Z</time></trkpt><trkpt lat="42.32951603087106" lon="12.378963190711541"><ele>178.0</ele><time>2026-05-01T11:46:21.001Z</time></trkpt><trkpt lat="42.32968282058661" lon="12.378943235404366"><ele>178.0</ele><time>2026-05-01T11:46:22.001Z</time></trkpt><trkpt lat="42.329853378848945" lon="12.3789183898877"><ele>178.0</ele><time>2026-05-01T11:46:23.001Z</time></trkpt><trkpt lat="42.33002266328723" lon="12.378888387521222"><ele>177.66666666666669</ele><time>2026-05-01T11:46:24.001Z</time></trkpt><trkpt lat="42.330191172100804" lon="12.378858551995625"><ele>177.33333333333334</ele><time>2026-05-01T11:46:25.001Z</time></trkpt><trkpt lat="42.33036342901793" lon="12.378826611878111"><ele>177.0</ele><time>2026-05-01T11:46:26.001Z</time></trkpt><trkpt lat="42.33053237326697" lon="12.378799381276554"><ele>178.33333333333334</ele><time>2026-05-01T11:46:27.001Z</time></trkpt><trkpt lat="42.330703659369476" lon="12.378769367777263"><ele>179.66666666666669</ele><time>2026-05-01T11:46:28.001Z</time></trkpt><trkpt lat="42.330879950634305" lon="12.378742114504059"><ele>181.0</ele><time>2026-05-01T11:46:29.001Z</time></trkpt><trkpt lat="42.33105615899077" lon="12.378718263877897"><ele>181.0</ele><time>2026-05-01T11:46:30.001Z</time></trkpt><trkpt lat="42.331237933442466" lon="12.378692983534494"><ele>181.0</ele><time>2026-05-01T11:46:31.001Z</time></trkpt><trkpt lat="42.33143007728783" lon="12.378667877263352"><ele>181.0</ele><time>2026-05-01T11:46:32.001Z</time></trkpt><trkpt lat="42.33162650643221" lon="12.37863694390103"><ele>182.66666666666669</ele><time>2026-05-01T11:46:33.001Z</time></trkpt><trkpt lat="42.33182396235329" lon="12.37861278397933"><ele>184.33333333333334</ele><time>2026-05-01T11:46:34.001Z</time></trkpt><trkpt lat="42.33202180298617" lon="12.378589046429918"><ele>186.0</ele><time>2026-05-01T11:46:35.001Z</time></trkpt><trkpt lat="42.33222423889075" lon="12.378565777532923"><ele>186.33333333333334</ele><time>2026-05-01T11:46:36.001Z</time></trkpt><trkpt lat="42.33240224036536" lon="12.378534661337241"><ele>186.66666666666669</ele><time>2026-05-01T11:46:37.001Z</time></trkpt><trkpt lat="42.33259598672571" lon="12.37850011025489"><ele>187.0</ele><time>2026-05-01T11:46:38.001Z</time></trkpt><trkpt lat="42.3327884106903" lon="12.378462598714814"><ele>187.0</ele><time>2026-05-01T11:46:39.001Z</time></trkpt><trkpt lat="42.3329771941274" lon="12.378417808153896"><ele>187.0</ele><time>2026-05-01T11:46:40.001Z</time></trkpt><trkpt lat="42.333164366203526" lon="12.378355306437363"><ele>187.0</ele><time>2026-05-01T11:46:41.001Z</time></trkpt><trkpt lat="42.33335485960771" lon="12.378283266972886"><ele>187.0</ele><time>2026-05-01T11:46:42Z</time></trkpt><trkpt lat="42.33354687970913" lon="12.378198313054813"><ele>187.0</ele><time>2026-05-01T11:46:43Z</time></trkpt><trkpt lat="42.333740541488915" lon="12.378113265095573"><ele>187.0</ele><time>2026-05-01T11:46:44Z</time></trkpt><trkpt lat="42.333943715430856" lon="12.378034567989651"><ele>186.0</ele><time>2026-05-01T11:46:45Z</time></trkpt><trkpt lat="42.33413447880341" lon="12.377950561845463"><ele>185.0</ele><time>2026-05-01T11:46:46Z</time></trkpt><trkpt lat="42.334311961669144" lon="12.377878128989899"><ele>184.0</ele><time>2026-05-01T11:46:47Z</time></trkpt><trkpt lat="42.33447942932089" lon="12.377809081054808"><ele>184.0</ele><time>2026-05-01T11:46:48Z</time></trkpt><trkpt lat="42.3346356322443" lon="12.377739103293502"><ele>184.0</ele><time>2026-05-01T11:46:49Z</time></trkpt><trkpt lat="42.33477635692058" lon="12.377668279982151"><ele>184.0</ele><time>2026-05-01T11:46:50Z</time></trkpt><trkpt lat="42.33491480892143" lon="12.377578004724237"><ele>185.33333333333334</ele><time>2026-05-01T11:46:51Z</time></trkpt><trkpt lat="42.33504319300971" lon="12.377448187342852"><ele>186.66666666666666</ele><time>2026-05-01T11:46:52Z</time></trkpt><trkpt lat="42.335168847159025" lon="12.377299604508478"><ele>188.0</ele><time>2026-05-01T11:46:53Z</time></trkpt><trkpt lat="42.33529721580308" lon="12.377144476891571"><ele>188.33333333333331</ele><time>2026-05-01T11:46:54Z</time></trkpt><trkpt lat="42.335428400565746" lon="12.376992202407568"><ele>188.66666666666666</ele><time>2026-05-01T11:46:55Z</time></trkpt><trkpt lat="42.33557366591805" lon="12.376839608272451"><ele>189.0</ele><time>2026-05-01T11:46:56Z</time></trkpt><trkpt lat="42.33572936543008" lon="12.376680020345063"><ele>189.0</ele><time>2026-05-01T11:46:57Z</time></trkpt><trkpt lat="42.335899621230105" lon="12.376511684631197"><ele>189.0</ele><time>2026-05-01T11:46:58Z</time></trkpt><trkpt lat="42.336083147118785" lon="12.376336701150578"><ele>189.0</ele><time>2026-05-01T11:46:59Z</time></trkpt><trkpt lat="42.336269020386446" lon="12.376158389350282"><ele>188.66666666666666</ele><time>2026-05-01T11:47:00Z</time></trkpt><trkpt lat="42.3364519844481" lon="12.37598122572361"><ele>188.33333333333331</ele><time>2026-05-01T11:47:01Z</time></trkpt><trkpt lat="42.33663932143219" lon="12.37581515657137"><ele>188.0</ele><time>2026-05-01T11:47:02Z</time></trkpt><trkpt lat="42.33683369221438" lon="12.37566335641069"><ele>188.0</ele><time>2026-05-01T11:47:03Z</time></trkpt><trkpt lat="42.337035098675955" lon="12.37552612023399"><ele>188.0</ele><time>2026-05-01T11:47:04Z</time></trkpt><trkpt lat="42.337243093519675" lon="12.375394952805204"><ele>189.0</ele><time>2026-05-01T11:47:05Z</time></trkpt><trkpt lat="42.337442187127124" lon="12.375271135053366"><ele>190.0</ele><time>2026-05-01T11:47:06Z</time></trkpt><trkpt lat="42.33762703775626" lon="12.375157134853689"><ele>191.0</ele><time>2026-05-01T11:47:07Z</time></trkpt><trkpt lat="42.33778981458461" lon="12.375049806657604"><ele>191.0</ele><time>2026-05-01T11:47:08Z</time></trkpt><trkpt lat="42.337936760404425" lon="12.374958353908225"><ele>191.0</ele><time>2026-05-01T11:47:09Z</time></trkpt><trkpt lat="42.338071524397805" lon="12.374854833958237"><ele>191.0</ele><time>2026-05-01T11:47:10Z</time></trkpt><trkpt lat="42.33819416015482" lon="12.374722442200516"><ele>188.0</ele><time>2026-05-01T11:47:11Z</time></trkpt><trkpt lat="42.338298666391786" lon="12.37456619636412"><ele>185.0</ele><time>2026-05-01T11:47:12Z</time></trkpt><trkpt lat="42.33839108031406" lon="12.374392916551763"><ele>182.0</ele><time>2026-05-01T11:47:13Z</time></trkpt><trkpt lat="42.338474729313035" lon="12.37421152230975"><ele>182.0</ele><time>2026-05-01T11:47:14Z</time></trkpt><trkpt lat="42.33856093531061" lon="12.374019578799711"><ele>182.0</ele><time>2026-05-01T11:47:15Z</time></trkpt><trkpt lat="42.338648974705244" lon="12.373824005319435"><ele>182.0</ele><time>2026-05-01T11:47:16Z</time></trkpt><trkpt lat="42.338752692613696" lon="12.373639906105232"><ele>182.0</ele><time>2026-05-01T11:47:17Z</time></trkpt><trkpt lat="42.3388301598719" lon="12.373439586852712"><ele>182.0</ele><time>2026-05-01T11:47:18Z</time></trkpt><trkpt lat="42.33891704837491" lon="12.373263142680436"><ele>182.0</ele><time>2026-05-01T11:47:19Z</time></trkpt><trkpt lat="42.33899664299636" lon="12.373093051791233"><ele>181.25</ele><time>2026-05-01T11:47:20Z</time></trkpt><trkpt lat="42.3390689014492" lon="12.372938154806853"><ele>180.5</ele><time>2026-05-01T11:47:21Z</time></trkpt><trkpt lat="42.33913721481916" lon="12.372794935844293"><ele>179.75</ele><time>2026-05-01T11:47:22Z</time></trkpt><trkpt lat="42.33921154820697" lon="12.372676916839692"><ele>179.0</ele><time>2026-05-01T11:47:23Z</time></trkpt><trkpt lat="42.33930206083317" lon="12.37258657231237"><ele>179.0</ele><time>2026-05-01T11:47:24Z</time></trkpt><trkpt lat="42.33941374918124" lon="12.37252645682839"><ele>179.0</ele><time>2026-05-01T11:47:25Z</time></trkpt><trkpt lat="42.33955286500272" lon="12.372520480784637"><ele>179.0</ele><time>2026-05-01T11:47:26Z</time></trkpt><trkpt lat="42.33969978595036" lon="12.372552713721111"><ele>179.0</ele><time>2026-05-01T11:47:27Z</time></trkpt><trkpt lat="42.33985121375812" lon="12.372593158488113"><ele>177.79999999999998</ele><time>2026-05-01T11:47:28Z</time></trkpt><trkpt lat="42.33997192601949" lon="12.37258370751819"><ele>176.6</ele><time>2026-05-01T11:47:29Z</time></trkpt><trkpt lat="42.34007660146878" lon="12.37257803593614"><ele>175.4</ele><time>2026-05-01T11:47:30Z</time></trkpt><trkpt lat="42.34018105044882" lon="12.372538967222047"><ele>174.2</ele><time>2026-05-01T11:47:31Z</time></trkpt><trkpt lat="42.340250390386586" lon="12.372484828014768"><ele>173.0</ele><time>2026-05-01T11:47:32Z</time></trkpt><trkpt lat="42.34037605662544" lon="12.372334862298121"><ele>177.0</ele><time>2026-05-01T11:47:34Z</time></trkpt><trkpt lat="42.3406116420378" lon="12.371882170184339"><ele>181.0</ele><time>2026-05-01T11:47:35Z</time></trkpt><trkpt lat="42.34071133359198" lon="12.371705288587803"><ele>181.0</ele><time>2026-05-01T11:47:36Z</time></trkpt><trkpt lat="42.34081138262639" lon="12.37152326389546"><ele>181.0</ele><time>2026-05-01T11:47:37Z</time></trkpt><trkpt lat="42.340911623407585" lon="12.37132727974528"><ele>181.0</ele><time>2026-05-01T11:47:38Z</time></trkpt><trkpt lat="42.34102302307373" lon="12.371124208308009"><ele>181.33333333333334</ele><time>2026-05-01T11:47:39Z</time></trkpt><trkpt lat="42.34114103965105" lon="12.370917836309232"><ele>181.66666666666666</ele><time>2026-05-01T11:47:40Z</time></trkpt><trkpt lat="42.341255802209915" lon="12.370709922796754"><ele>182.0</ele><time>2026-05-01T11:47:41Z</time></trkpt><trkpt lat="42.34137244574539" lon="12.370513145158416"><ele>184.0</ele><time>2026-05-01T11:47:42Z</time></trkpt><trkpt lat="42.3414863936885" lon="12.370324093750538"><ele>186.0</ele><time>2026-05-01T11:47:43Z</time></trkpt><trkpt lat="42.34159104884353" lon="12.370137440925298"><ele>188.0</ele><time>2026-05-01T11:47:44Z</time></trkpt><trkpt lat="42.34169605456657" lon="12.369958586343332"><ele>188.0</ele><time>2026-05-01T11:47:45Z</time></trkpt><trkpt lat="42.34180083397631" lon="12.369778287089732"><ele>188.0</ele><time>2026-05-01T11:47:46Z</time></trkpt><trkpt lat="42.341901348340706" lon="12.369598009187692"><ele>188.0</ele><time>2026-05-01T11:47:47Z</time></trkpt><trkpt lat="42.34200287329544" lon="12.36942470581424"><ele>188.5</ele><time>2026-05-01T11:47:48Z</time></trkpt><trkpt lat="42.342086834805386" lon="12.369263081855257"><ele>189.0</ele><time>2026-05-01T11:47:49Z</time></trkpt><trkpt lat="42.342178189463276" lon="12.369129872006175"><ele>189.5</ele><time>2026-05-01T11:47:50Z</time></trkpt><trkpt lat="42.342259207912846" lon="12.368994597351016"><ele>190.0</ele><time>2026-05-01T11:47:51Z</time></trkpt><trkpt lat="42.34235359697887" lon="12.368836178124264"><ele>192.0</ele><time>2026-05-01T11:47:52Z</time></trkpt><trkpt lat="42.342456989513735" lon="12.368661146198948"><ele>194.0</ele><time>2026-05-01T11:47:53Z</time></trkpt><trkpt lat="42.34256804727964" lon="12.368471352353767"><ele>196.0</ele><time>2026-05-01T11:47:54Z</time></trkpt><trkpt lat="42.34266775566128" lon="12.368264879684109"><ele>196.0</ele><time>2026-05-01T11:47:55.001Z</time></trkpt><trkpt lat="42.342763278714564" lon="12.368095034004652"><ele>196.0</ele><time>2026-05-01T11:47:56.001Z</time></trkpt><trkpt lat="42.3428179041672" lon="12.367922076309421"><ele>196.0</ele><time>2026-05-01T11:47:57.001Z</time></trkpt><trkpt lat="42.34282761871947" lon="12.3677334515981"><ele>196.0</ele><time>2026-05-01T11:47:58.001Z</time></trkpt><trkpt lat="42.3428163953865" lon="12.367510822398966"><ele>196.66666666666666</ele><time>2026-05-01T11:47:59.001Z</time></trkpt><trkpt lat="42.3427891266997" lon="12.367264951103907"><ele>197.33333333333331</ele><time>2026-05-01T11:48:00.001Z</time></trkpt><trkpt lat="42.34275320547783" lon="12.36699715684066"><ele>198.0</ele><time>2026-05-01T11:48:01.001Z</time></trkpt><trkpt lat="42.342720905134236" lon="12.366713280502038"><ele>198.33333333333331</ele><time>2026-05-01T11:48:02.001Z</time></trkpt><trkpt lat="42.34269176361051" lon="12.366414109346682"><ele>198.66666666666666</ele><time>2026-05-01T11:48:03.001Z</time></trkpt><trkpt lat="42.342661638573276" lon="12.366117631094992"><ele>199.0</ele><time>2026-05-01T11:48:04.001Z</time></trkpt><trkpt lat="42.3426325465216" lon="12.365823547707285"><ele>199.0</ele><time>2026-05-01T11:48:05.001Z</time></trkpt><trkpt lat="42.34260214439462" lon="12.365534866743879"><ele>199.0</ele><time>2026-05-01T11:48:06.001Z</time></trkpt><trkpt lat="42.34257386081793" lon="12.365245670381992"><ele>199.0</ele><time>2026-05-01T11:48:07.001Z</time></trkpt><trkpt lat="42.34254459016297" lon="12.364955557696433"><ele>199.33333333333331</ele><time>2026-05-01T11:48:08.001Z</time></trkpt><trkpt lat="42.342515124859844" lon="12.364661993168301"><ele>199.66666666666669</ele><time>2026-05-01T11:48:09.001Z</time></trkpt><trkpt lat="42.34248768890884" lon="12.364366652440706"><ele>200.0</ele><time>2026-05-01T11:48:10.001Z</time></trkpt><trkpt lat="42.34245954306746" lon="12.36406755832377"><ele>201.66666666666669</ele><time>2026-05-01T11:48:11.001Z</time></trkpt><trkpt lat="42.34243123102146" lon="12.363770834309797"><ele>203.33333333333331</ele><time>2026-05-01T11:48:12.001Z</time></trkpt><trkpt lat="42.3424008899703" lon="12.363476087710692"><ele>205.0</ele><time>2026-05-01T11:48:13.001Z</time></trkpt><trkpt lat="42.34236773211512" lon="12.363176906510429"><ele>205.0</ele><time>2026-05-01T11:48:14.001Z</time></trkpt><trkpt lat="42.34233471471295" lon="12.362880225554246"><ele>205.0</ele><time>2026-05-01T11:48:15.001Z</time></trkpt><trkpt lat="42.342312049659824" lon="12.362587465940043"><ele>205.0</ele><time>2026-05-01T11:48:16.001Z</time></trkpt><trkpt lat="42.34228663808212" lon="12.362296024548574"><ele>205.0</ele><time>2026-05-01T11:48:17.001Z</time></trkpt><trkpt lat="42.3422640989865" lon="12.36201006191197"><ele>205.0</ele><time>2026-05-01T11:48:18.001Z</time></trkpt><trkpt lat="42.34224236378026" lon="12.361720378625446"><ele>205.0</ele><time>2026-05-01T11:48:19.001Z</time></trkpt><trkpt lat="42.34222074650402" lon="12.361434563318172"><ele>203.66666666666666</ele><time>2026-05-01T11:48:20.001Z</time></trkpt><trkpt lat="42.34219495702597" lon="12.361144237699357"><ele>202.33333333333331</ele><time>2026-05-01T11:48:21.001Z</time></trkpt><trkpt lat="42.342174898407535" lon="12.360856033975814"><ele>201.0</ele><time>2026-05-01T11:48:22.001Z</time></trkpt><trkpt lat="42.34215029747295" lon="12.360564911319948"><ele>201.0</ele><time>2026-05-01T11:48:23.001Z</time></trkpt><trkpt lat="42.34213556426636" lon="12.360270794802862"><ele>201.0</ele><time>2026-05-01T11:48:24.001Z</time></trkpt><trkpt lat="42.342111324638125" lon="12.35998481078838"><ele>201.0</ele><time>2026-05-01T11:48:25.001Z</time></trkpt><trkpt lat="42.34208965244917" lon="12.35970608091421"><ele>201.33333333333331</ele><time>2026-05-01T11:48:26.001Z</time></trkpt><trkpt lat="42.34206288747372" lon="12.359434368560668"><ele>201.66666666666666</ele><time>2026-05-01T11:48:27.001Z</time></trkpt><trkpt lat="42.342042630031514" lon="12.359162208550465"><ele>202.0</ele><time>2026-05-01T11:48:28.001Z</time></trkpt><trkpt lat="42.34202630330889" lon="12.358911229612175"><ele>202.33333333333331</ele><time>2026-05-01T11:48:29.001Z</time></trkpt><trkpt lat="42.34200871470972" lon="12.358680417894027"><ele>202.66666666666669</ele><time>2026-05-01T11:48:30.001Z</time></trkpt><trkpt lat="42.34199330363134" lon="12.35847342548644"><ele>203.0</ele><time>2026-05-01T11:48:31.001Z</time></trkpt><trkpt lat="42.341976040408824" lon="12.358275933575117"><ele>203.0</ele><time>2026-05-01T11:48:32.001Z</time></trkpt><trkpt lat="42.341957216459235" lon="12.358094951103311"><ele>203.0</ele><time>2026-05-01T11:48:33.001Z</time></trkpt><trkpt lat="42.34193931681127" lon="12.357918165232764"><ele>203.0</ele><time>2026-05-01T11:48:34.001Z</time></trkpt><trkpt lat="42.34192730434826" lon="12.357763858950037"><ele>203.0</ele><time>2026-05-01T11:48:35.001Z</time></trkpt><trkpt lat="42.341937101545525" lon="12.357617698089546"><ele>203.0</ele><time>2026-05-01T11:48:36.001Z</time></trkpt><trkpt lat="42.341973565010846" lon="12.357483228853237"><ele>203.0</ele><time>2026-05-01T11:48:37.001Z</time></trkpt><trkpt lat="42.34205197748288" lon="12.357374912565628"><ele>203.0</ele><time>2026-05-01T11:48:38.001Z</time></trkpt><trkpt lat="42.34213554230862" lon="12.35723818105467"><ele>203.0</ele><time>2026-05-01T11:48:39.001Z</time></trkpt><trkpt lat="42.34224948909352" lon="12.35711523061296"><ele>203.0</ele><time>2026-05-01T11:48:40.001Z</time></trkpt><trkpt lat="42.342366701792706" lon="12.356986062953064"><ele>203.0</ele><time>2026-05-01T11:48:41.001Z</time></trkpt><trkpt lat="42.34249177299819" lon="12.356878234974692"><ele>203.0</ele><time>2026-05-01T11:48:42.001Z</time></trkpt><trkpt lat="42.34261410107569" lon="12.356799417387005"><ele>203.0</ele><time>2026-05-01T11:48:43.001Z</time></trkpt><trkpt lat="42.34274275097923" lon="12.356749914132777"><ele>203.0</ele><time>2026-05-01T11:48:44.001Z</time></trkpt><trkpt lat="42.3428942147886" lon="12.356718290221128"><ele>203.0</ele><time>2026-05-01T11:48:45.001Z</time></trkpt><trkpt lat="42.343056184364265" lon="12.356701949630231"><ele>203.0</ele><time>2026-05-01T11:48:46.001Z</time></trkpt><trkpt lat="42.343224817456615" lon="12.35669020783542"><ele>199.66666666666669</ele><time>2026-05-01T11:48:47.001Z</time></trkpt><trkpt lat="42.34341112980156" lon="12.356680360665148"><ele>196.33333333333331</ele><time>2026-05-01T11:48:48Z</time></trkpt><trkpt lat="42.34359757753274" lon="12.356673096117774"><ele>193.0</ele><time>2026-05-01T11:48:49Z</time></trkpt><trkpt lat="42.34376411664382" lon="12.356668590157073"><ele>194.66666666666666</ele><time>2026-05-01T11:48:50Z</time></trkpt><trkpt lat="42.34392512374753" lon="12.356651144977334"><ele>196.33333333333331</ele><time>2026-05-01T11:48:51Z</time></trkpt><trkpt lat="42.344091905978864" lon="12.356611258714228"><ele>198.0</ele><time>2026-05-01T11:48:52Z</time></trkpt><trkpt lat="42.3442617548105" lon="12.356536151429376"><ele>198.0</ele><time>2026-05-01T11:48:53Z</time></trkpt><trkpt lat="42.34443120977344" lon="12.356440367955988"><ele>198.0</ele><time>2026-05-01T11:48:54Z</time></trkpt><trkpt lat="42.34460441340869" lon="12.35634332238723"><ele>198.0</ele><time>2026-05-01T11:48:55Z</time></trkpt><trkpt lat="42.344762547078716" lon="12.356269417167153"><ele>199.25</ele><time>2026-05-01T11:48:56Z</time></trkpt><trkpt lat="42.34490487632663" lon="12.35623060646789"><ele>200.5</ele><time>2026-05-01T11:48:57Z</time></trkpt><trkpt lat="42.345027974791314" lon="12.356174059799683"><ele>201.75</ele><time>2026-05-01T11:48:58Z</time></trkpt><trkpt lat="42.345145476523214" lon="12.356148718142682"><ele>203.0</ele><time>2026-05-01T11:48:59Z</time></trkpt><trkpt lat="42.345245783672" lon="12.35612047623567"><ele>203.00000000000003</ele><time>2026-05-01T11:49:00Z</time></trkpt><trkpt lat="42.3453271286313" lon="12.356087692405165"><ele>203.0</ele><time>2026-05-01T11:49:01Z</time></trkpt><trkpt lat="42.345387360230816" lon="12.356048531291073"><ele>203.0</ele><time>2026-05-01T11:49:02Z</time></trkpt><trkpt lat="42.345438412379394" lon="12.355903228304491"><ele>203.0</ele><time>2026-05-01T11:49:04Z</time></trkpt><trkpt lat="42.345421431884375" lon="12.355795645915947"><ele>203.00000000000003</ele><time>2026-05-01T11:49:05Z</time></trkpt><trkpt lat="42.34539857837722" lon="12.355677537625862"><ele>203.0</ele><time>2026-05-01T11:49:06Z</time></trkpt><trkpt lat="42.34537751235869" lon="12.35554715818885"><ele>203.0</ele><time>2026-05-01T11:49:07Z</time></trkpt><trkpt lat="42.34536715181406" lon="12.355403884722376"><ele>203.0</ele><time>2026-05-01T11:49:08Z</time></trkpt><trkpt lat="42.34535556366079" lon="12.355273514388385"><ele>203.0</ele><time>2026-05-01T11:49:09Z</time></trkpt><trkpt lat="42.34535880965108" lon="12.355153442648486"><ele>203.0</ele><time>2026-05-01T11:49:10Z</time></trkpt><trkpt lat="42.34534655833724" lon="12.35505064265599"><ele>203.0</ele><time>2026-05-01T11:49:11Z</time></trkpt><trkpt lat="42.34535445413704" lon="12.354938408387156"><ele>203.00000000000003</ele><time>2026-05-01T11:49:12Z</time></trkpt><trkpt lat="42.34535191491609" lon="12.354834677204764"><ele>203.0</ele><time>2026-05-01T11:49:13Z</time></trkpt><trkpt lat="42.345352585487014" lon="12.354741202910754"><ele>203.0</ele><time>2026-05-01T11:49:14Z</time></trkpt><trkpt lat="42.345357177891216" lon="12.354647330165442"><ele>203.0</ele><time>2026-05-01T11:49:15Z</time></trkpt><trkpt lat="42.34536993947884" lon="12.354536643042765"><ele>203.00000000000003</ele><time>2026-05-01T11:49:16Z</time></trkpt><trkpt lat="42.345389111272745" lon="12.354422706175443"><ele>203.0</ele><time>2026-05-01T11:49:17Z</time></trkpt><trkpt lat="42.34542453557017" lon="12.354310285321311"><ele>203.2</ele><time>2026-05-01T11:49:18Z</time></trkpt><trkpt lat="42.34544965635728" lon="12.354181919990362"><ele>203.4</ele><time>2026-05-01T11:49:19Z</time></trkpt><trkpt lat="42.34547641445771" lon="12.354045188507639"><ele>203.6</ele><time>2026-05-01T11:49:20Z</time></trkpt><trkpt lat="42.34550308855206" lon="12.353908886075901"><ele>203.79999999999998</ele><time>2026-05-01T11:49:21Z</time></trkpt><trkpt lat="42.345516564573074" lon="12.353764894385755"><ele>204.0</ele><time>2026-05-01T11:49:22Z</time></trkpt><trkpt lat="42.345546497559525" lon="12.353622459607964"><ele>204.75</ele><time>2026-05-01T11:49:23Z</time></trkpt><trkpt lat="42.34557022171557" lon="12.353478216244156"><ele>205.5</ele><time>2026-05-01T11:49:24Z</time></trkpt><trkpt lat="42.34561526603288" lon="12.353336118427857"><ele>206.25</ele><time>2026-05-01T11:49:25Z</time></trkpt><trkpt lat="42.34564817965078" lon="12.353168068800445"><ele>207.0</ele><time>2026-05-01T11:49:26Z</time></trkpt><trkpt lat="42.34568351512893" lon="12.352998364557985"><ele>207.75</ele><time>2026-05-01T11:49:27Z</time></trkpt><trkpt lat="42.34571963037792" lon="12.35282529710729"><ele>208.5</ele><time>2026-05-01T11:49:28Z</time></trkpt><trkpt lat="42.345755959522336" lon="12.352639991000348"><ele>209.25</ele><time>2026-05-01T11:49:29Z</time></trkpt><trkpt lat="42.3457932315536" lon="12.352451406454351"><ele>210.0</ele><time>2026-05-01T11:49:30Z</time></trkpt><trkpt lat="42.34582434719603" lon="12.352236391075952"><ele>210.33333333333331</ele><time>2026-05-01T11:49:31Z</time></trkpt><trkpt lat="42.345862929890764" lon="12.352018546928761"><ele>210.66666666666666</ele><time>2026-05-01T11:49:32Z</time></trkpt><trkpt lat="42.345921801770324" lon="12.351818017717514"><ele>211.0</ele><time>2026-05-01T11:49:33Z</time></trkpt><trkpt lat="42.34596334271172" lon="12.351606865625639"><ele>211.0</ele><time>2026-05-01T11:49:34Z</time></trkpt><trkpt lat="42.34599759872461" lon="12.351399507413728"><ele>211.0</ele><time>2026-05-01T11:49:35Z</time></trkpt><trkpt lat="42.34604129238435" lon="12.35119705124158"><ele>211.0</ele><time>2026-05-01T11:49:36Z</time></trkpt><trkpt lat="42.34608081276383" lon="12.351002589208237"><ele>210.66666666666666</ele><time>2026-05-01T11:49:37Z</time></trkpt><trkpt lat="42.346118150307845" lon="12.350816192806965"><ele>210.33333333333331</ele><time>2026-05-01T11:49:38Z</time></trkpt><trkpt lat="42.34616476210753" lon="12.350612467854319"><ele>210.0</ele><time>2026-05-01T11:49:39Z</time></trkpt><trkpt lat="42.346202516924876" lon="12.350384057052228"><ele>209.66666666666669</ele><time>2026-05-01T11:49:40Z</time></trkpt><trkpt lat="42.34625628487108" lon="12.350169513636564"><ele>209.33333333333334</ele><time>2026-05-01T11:49:41Z</time></trkpt><trkpt lat="42.34629733604006" lon="12.349931081530062"><ele>209.0</ele><time>2026-05-01T11:49:42Z</time></trkpt><trkpt lat="42.34635662170294" lon="12.349707630816996"><ele>209.66666666666669</ele><time>2026-05-01T11:49:43Z</time></trkpt><trkpt lat="42.34639365350037" lon="12.349462125873728"><ele>210.33333333333331</ele><time>2026-05-01T11:49:44Z</time></trkpt><trkpt lat="42.346444630948135" lon="12.349240200041134"><ele>211.0</ele><time>2026-05-01T11:49:45Z</time></trkpt><trkpt lat="42.34648163814927" lon="12.349013074897709"><ele>211.0</ele><time>2026-05-01T11:49:46Z</time></trkpt><trkpt lat="42.34652443650344" lon="12.348796894114432"><ele>211.0</ele><time>2026-05-01T11:49:47Z</time></trkpt><trkpt lat="42.346561367620104" lon="12.34858775297409"><ele>211.0</ele><time>2026-05-01T11:49:48Z</time></trkpt><trkpt lat="42.346598559312355" lon="12.348381498815037"><ele>211.0</ele><time>2026-05-01T11:49:49Z</time></trkpt><trkpt lat="42.346636716920486" lon="12.34818572760631"><ele>211.0</ele><time>2026-05-01T11:49:50Z</time></trkpt><trkpt lat="42.346692101096245" lon="12.348004505018217"><ele>211.0</ele><time>2026-05-01T11:49:51.001Z</time></trkpt><trkpt lat="42.34676255505007" lon="12.347829656352303"><ele>211.0</ele><time>2026-05-01T11:49:52.001Z</time></trkpt><trkpt lat="42.34684670168178" lon="12.347662902479831"><ele>210.0</ele><time>2026-05-01T11:49:53.001Z</time></trkpt><trkpt lat="42.346944017621915" lon="12.347510917211956"><ele>209.0</ele><time>2026-05-01T11:49:54.001Z</time></trkpt><trkpt lat="42.34705318384754" lon="12.347360197085772"><ele>208.0</ele><time>2026-05-01T11:49:55.001Z</time></trkpt><trkpt lat="42.34717547612146" lon="12.347211777269646"><ele>210.0</ele><time>2026-05-01T11:49:56.001Z</time></trkpt><trkpt lat="42.34729524058882" lon="12.347050147687783"><ele>212.0</ele><time>2026-05-01T11:49:57.001Z</time></trkpt><trkpt lat="42.347418137397646" lon="12.346884428931345"><ele>214.0</ele><time>2026-05-01T11:49:58.001Z</time></trkpt><trkpt lat="42.347539333910525" lon="12.346719586785579"><ele>214.0</ele><time>2026-05-01T11:49:59.001Z</time></trkpt><trkpt lat="42.347656326846355" lon="12.346555373390816"><ele>214.0</ele><time>2026-05-01T11:50:00.001Z</time></trkpt><trkpt lat="42.34777460774163" lon="12.346395758061794"><ele>214.0</ele><time>2026-05-01T11:50:01.001Z</time></trkpt><trkpt lat="42.34789537679675" lon="12.346241586533475"><ele>213.66666666666666</ele><time>2026-05-01T11:50:02.001Z</time></trkpt><trkpt lat="42.34802227331715" lon="12.346097432710716"><ele>213.33333333333331</ele><time>2026-05-01T11:50:03.001Z</time></trkpt><trkpt lat="42.348160954222884" lon="12.345965698896826"><ele>213.0</ele><time>2026-05-01T11:50:04.001Z</time></trkpt><trkpt lat="42.348313259434576" lon="12.34585798155329"><ele>213.66666666666669</ele><time>2026-05-01T11:50:05.001Z</time></trkpt><trkpt lat="42.34847317079648" lon="12.345764438463238"><ele>214.33333333333334</ele><time>2026-05-01T11:50:06.001Z</time></trkpt><trkpt lat="42.348637895810576" lon="12.345682647463963"><ele>215.0</ele><time>2026-05-01T11:50:07.001Z</time></trkpt><trkpt lat="42.34879951010539" lon="12.345601745906999"><ele>214.66666666666669</ele><time>2026-05-01T11:50:08.001Z</time></trkpt><trkpt lat="42.34895394733591" lon="12.345540127304488"><ele>214.33333333333331</ele><time>2026-05-01T11:50:09.001Z</time></trkpt><trkpt lat="42.349110135637936" lon="12.345489932655873"><ele>214.0</ele><time>2026-05-01T11:50:10.001Z</time></trkpt><trkpt lat="42.349258718438705" lon="12.345456910500404"><ele>214.0</ele><time>2026-05-01T11:50:11.001Z</time></trkpt><trkpt lat="42.3494115478709" lon="12.34544846661529"><ele>214.0</ele><time>2026-05-01T11:50:12.001Z</time></trkpt><trkpt lat="42.3495645487356" lon="12.345466633924241"><ele>214.0</ele><time>2026-05-01T11:50:13.001Z</time></trkpt><trkpt lat="42.34970762853194" lon="12.345544933654372"><ele>214.0</ele><time>2026-05-01T11:50:14.001Z</time></trkpt><trkpt lat="42.349853234345474" lon="12.34562284879594"><ele>214.0</ele><time>2026-05-01T11:50:15.001Z</time></trkpt><trkpt lat="42.349999604659054" lon="12.345680549830272"><ele>214.0</ele><time>2026-05-01T11:50:16.001Z</time></trkpt><trkpt lat="42.35013322374496" lon="12.345767924444187"><ele>214.0</ele><time>2026-05-01T11:50:17.001Z</time></trkpt><trkpt lat="42.35026645535288" lon="12.345847998674046"><ele>214.0</ele><time>2026-05-01T11:50:18.001Z</time></trkpt><trkpt lat="42.350410641410576" lon="12.345922592110083"><ele>214.0</ele><time>2026-05-01T11:50:19.001Z</time></trkpt><trkpt lat="42.35054583940895" lon="12.346005214438629"><ele>214.0</ele><time>2026-05-01T11:50:20.001Z</time></trkpt><trkpt lat="42.35068768505163" lon="12.346085348195725"><ele>214.33333333333331</ele><time>2026-05-01T11:50:21.001Z</time></trkpt><trkpt lat="42.3508289385093" lon="12.346160746794498"><ele>214.66666666666669</ele><time>2026-05-01T11:50:22.001Z</time></trkpt><trkpt lat="42.35096444863793" lon="12.346243907574816"><ele>215.0</ele><time>2026-05-01T11:50:23.001Z</time></trkpt><trkpt lat="42.35110531302094" lon="12.346317531557874"><ele>215.66666666666669</ele><time>2026-05-01T11:50:24.001Z</time></trkpt><trkpt lat="42.35125069783716" lon="12.34638509023172"><ele>216.33333333333331</ele><time>2026-05-01T11:50:25.001Z</time></trkpt><trkpt lat="42.35138853493611" lon="12.346450022908412"><ele>217.0</ele><time>2026-05-01T11:50:26.001Z</time></trkpt><trkpt lat="42.351535430510566" lon="12.346502313281462"><ele>217.66666666666666</ele><time>2026-05-01T11:50:27.001Z</time></trkpt><trkpt lat="42.35168163599625" lon="12.346541248513713"><ele>218.33333333333331</ele><time>2026-05-01T11:50:28.001Z</time></trkpt><trkpt lat="42.35183535905773" lon="12.346570843513843"><ele>219.0</ele><time>2026-05-01T11:50:29.001Z</time></trkpt><trkpt lat="42.35197855659513" lon="12.346614030197735"><ele>219.0</ele><time>2026-05-01T11:50:30.001Z</time></trkpt><trkpt lat="42.35213068363711" lon="12.346653632597933"><ele>219.0</ele><time>2026-05-01T11:50:31.001Z</time></trkpt><trkpt lat="42.352284223508335" lon="12.34671175446055"><ele>219.0</ele><time>2026-05-01T11:50:32.001Z</time></trkpt><trkpt lat="42.35243480832124" lon="12.346751678056071"><ele>219.33333333333331</ele><time>2026-05-01T11:50:33.001Z</time></trkpt><trkpt lat="42.35258592477161" lon="12.346771926784735"><ele>219.66666666666666</ele><time>2026-05-01T11:50:34.001Z</time></trkpt><trkpt lat="42.3527412133956" lon="12.346816595305436"><ele>220.0</ele><time>2026-05-01T11:50:35.001Z</time></trkpt><trkpt lat="42.35289634126298" lon="12.346857714920809"><ele>219.66666666666666</ele><time>2026-05-01T11:50:36.001Z</time></trkpt><trkpt lat="42.353049263471156" lon="12.346893738785043"><ele>219.33333333333331</ele><time>2026-05-01T11:50:37.001Z</time></trkpt><trkpt lat="42.353200710922174" lon="12.346924072036618"><ele>219.0</ele><time>2026-05-01T11:50:38.001Z</time></trkpt><trkpt lat="42.35334977954668" lon="12.346943556739895"><ele>219.0</ele><time>2026-05-01T11:50:39.001Z</time></trkpt><trkpt lat="42.35349481599919" lon="12.346933839149736"><ele>219.0</ele><time>2026-05-01T11:50:40.001Z</time></trkpt><trkpt lat="42.353621208449134" lon="12.346899264414464"><ele>219.0</ele><time>2026-05-01T11:50:41.001Z</time></trkpt><trkpt lat="42.35374602941169" lon="12.34684929778483"><ele>219.0</ele><time>2026-05-01T11:50:42.001Z</time></trkpt><trkpt lat="42.35385900522365" lon="12.346771515199725"><ele>219.0</ele><time>2026-05-01T11:50:43.001Z</time></trkpt><trkpt lat="42.35397422345534" lon="12.346672796001315"><ele>219.0</ele><time>2026-05-01T11:50:44.001Z</time></trkpt><trkpt lat="42.35408908357337" lon="12.346565455688395"><ele>219.0</ele><time>2026-05-01T11:50:45.001Z</time></trkpt><trkpt lat="42.35421330976938" lon="12.346449885614021"><ele>219.0</ele><time>2026-05-01T11:50:46.001Z</time></trkpt><trkpt lat="42.35434426557305" lon="12.346330450150354"><ele>219.33333333333331</ele><time>2026-05-01T11:50:47.001Z</time></trkpt><trkpt lat="42.35448460945965" lon="12.346202399631194"><ele>219.66666666666666</ele><time>2026-05-01T11:50:48.001Z</time></trkpt><trkpt lat="42.35464244368102" lon="12.346073689727058"><ele>220.0</ele><time>2026-05-01T11:50:49.001Z</time></trkpt><trkpt lat="42.354792439013565" lon="12.345911323200747"><ele>221.0</ele><time>2026-05-01T11:50:50.001Z</time></trkpt><trkpt lat="42.35495762314335" lon="12.345760110332145"><ele>222.0</ele><time>2026-05-01T11:50:51.001Z</time></trkpt><trkpt lat="42.35511859363057" lon="12.34560855214768"><ele>223.0</ele><time>2026-05-01T11:50:52.001Z</time></trkpt><trkpt lat="42.35526598083595" lon="12.34546340192971"><ele>223.0</ele><time>2026-05-01T11:50:53.001Z</time></trkpt><trkpt lat="42.355394776850495" lon="12.345313571886777"><ele>223.0</ele><time>2026-05-01T11:50:54Z</time></trkpt><trkpt lat="42.355498796476354" lon="12.345134273275816"><ele>223.0</ele><time>2026-05-01T11:50:55Z</time></trkpt><trkpt lat="42.355607148340695" lon="12.344951390820874"><ele>223.0</ele><time>2026-05-01T11:50:56Z</time></trkpt><trkpt lat="42.35569540555611" lon="12.344752509509732"><ele>223.0</ele><time>2026-05-01T11:50:57Z</time></trkpt><trkpt lat="42.35578857976985" lon="12.344566140778142"><ele>223.0</ele><time>2026-05-01T11:50:58Z</time></trkpt><trkpt lat="42.3558999636864" lon="12.344381616507386"><ele>223.66666666666666</ele><time>2026-05-01T11:50:59Z</time></trkpt><trkpt lat="42.35603941068334" lon="12.344219578036979"><ele>224.33333333333331</ele><time>2026-05-01T11:51:00Z</time></trkpt><trkpt lat="42.35616567221682" lon="12.344037748087915"><ele>225.0</ele><time>2026-05-01T11:51:01Z</time></trkpt><trkpt lat="42.35630156423603" lon="12.343857357363913"><ele>225.0</ele><time>2026-05-01T11:51:02Z</time></trkpt><trkpt lat="42.356440573949655" lon="12.34367373421069"><ele>225.0</ele><time>2026-05-01T11:51:03Z</time></trkpt><trkpt lat="42.35658024523547" lon="12.343481803065417"><ele>225.0</ele><time>2026-05-01T11:51:04Z</time></trkpt><trkpt lat="42.35672131504488" lon="12.343286247778025"><ele>225.0</ele><time>2026-05-01T11:51:05Z</time></trkpt><trkpt lat="42.356861118725845" lon="12.343090512934618"><ele>225.0</ele><time>2026-05-01T11:51:06Z</time></trkpt><trkpt lat="42.357004760806475" lon="12.342883074313935"><ele>225.0</ele><time>2026-05-01T11:51:07Z</time></trkpt><trkpt lat="42.3571492095194" lon="12.342672851745666"><ele>225.33333333333331</ele><time>2026-05-01T11:51:08Z</time></trkpt><trkpt lat="42.357295311187315" lon="12.342458497646598"><ele>225.66666666666666</ele><time>2026-05-01T11:51:09Z</time></trkpt><trkpt lat="42.35742152986898" lon="12.342253740159247"><ele>226.0</ele><time>2026-05-01T11:51:10Z</time></trkpt><trkpt lat="42.35755348936167" lon="12.342066130872146"><ele>227.0</ele><time>2026-05-01T11:51:11Z</time></trkpt><trkpt lat="42.357684024075205" lon="12.341884216461539"><ele>228.0</ele><time>2026-05-01T11:51:12Z</time></trkpt><trkpt lat="42.35782174577444" lon="12.341729545057504"><ele>229.0</ele><time>2026-05-01T11:51:13Z</time></trkpt><trkpt lat="42.35796359975484" lon="12.341596063448288"><ele>228.66666666666666</ele><time>2026-05-01T11:51:14Z</time></trkpt><trkpt lat="42.35810628583432" lon="12.341471012071564"><ele>228.33333333333331</ele><time>2026-05-01T11:51:15Z</time></trkpt><trkpt lat="42.35823725516307" lon="12.341364430940883"><ele>228.0</ele><time>2026-05-01T11:51:16Z</time></trkpt><trkpt lat="42.35835971050475" lon="12.341264413461596"><ele>228.75</ele><time>2026-05-01T11:51:17Z</time></trkpt><trkpt lat="42.35846136454838" lon="12.341186527239012"><ele>229.5</ele><time>2026-05-01T11:51:18Z</time></trkpt><trkpt lat="42.35857064271462" lon="12.341123180118194"><ele>230.25</ele><time>2026-05-01T11:51:19Z</time></trkpt><trkpt lat="42.358682760777654" lon="12.34106973515382"><ele>231.0</ele><time>2026-05-01T11:51:20Z</time></trkpt><trkpt lat="42.35881160319201" lon="12.341017293914689"><ele>230.66666666666669</ele><time>2026-05-01T11:51:21Z</time></trkpt><trkpt lat="42.358946014688385" lon="12.340953833016606"><ele>230.33333333333334</ele><time>2026-05-01T11:51:22Z</time></trkpt><trkpt lat="42.35909997706718" lon="12.340897920747713"><ele>230.0</ele><time>2026-05-01T11:51:23Z</time></trkpt><trkpt lat="42.359263228495756" lon="12.340840240793776"><ele>230.0</ele><time>2026-05-01T11:51:24Z</time></trkpt><trkpt lat="42.359442602919046" lon="12.34077261977033"><ele>230.0</ele><time>2026-05-01T11:51:25Z</time></trkpt><trkpt lat="42.35962952958164" lon="12.340682790687021"><ele>230.0</ele><time>2026-05-01T11:51:26Z</time></trkpt><trkpt lat="42.35981607524788" lon="12.34056888848365"><ele>230.0</ele><time>2026-05-01T11:51:27Z</time></trkpt><trkpt lat="42.35999677966696" lon="12.340429450408392"><ele>230.0</ele><time>2026-05-01T11:51:28Z</time></trkpt><trkpt lat="42.360193294872" lon="12.340285520172314"><ele>230.0</ele><time>2026-05-01T11:51:29Z</time></trkpt><trkpt lat="42.36037560514697" lon="12.340125633023867"><ele>231.0</ele><time>2026-05-01T11:51:30Z</time></trkpt><trkpt lat="42.36053936647453" lon="12.339978054982875"><ele>232.0</ele><time>2026-05-01T11:51:31Z</time></trkpt><trkpt lat="42.36071740315959" lon="12.339871343227568"><ele>233.0</ele><time>2026-05-01T11:51:32Z</time></trkpt><trkpt lat="42.36090090697122" lon="12.339784490389913"><ele>233.0</ele><time>2026-05-01T11:51:33Z</time></trkpt><trkpt lat="42.3610901785872" lon="12.339719633207133"><ele>233.0</ele><time>2026-05-01T11:51:34Z</time></trkpt><trkpt lat="42.361287668612974" lon="12.33967827874898"><ele>233.0</ele><time>2026-05-01T11:51:35Z</time></trkpt><trkpt lat="42.361486715173086" lon="12.33965186403366"><ele>233.66666666666669</ele><time>2026-05-01T11:51:36Z</time></trkpt><trkpt lat="42.36168164914486" lon="12.339619383765665"><ele>234.33333333333331</ele><time>2026-05-01T11:51:37Z</time></trkpt><trkpt lat="42.36187924592835" lon="12.339554889532653"><ele>235.0</ele><time>2026-05-01T11:51:38Z</time></trkpt><trkpt lat="42.362078328352595" lon="12.339464886138964"><ele>235.66666666666666</ele><time>2026-05-01T11:51:39Z</time></trkpt><trkpt lat="42.36227072929117" lon="12.339359652207568"><ele>236.33333333333331</ele><time>2026-05-01T11:51:40Z</time></trkpt><trkpt lat="42.36246181239418" lon="12.339238834756811"><ele>237.0</ele><time>2026-05-01T11:51:41Z</time></trkpt><trkpt lat="42.362648658853196" lon="12.339109808229564"><ele>237.0</ele><time>2026-05-01T11:51:42Z</time></trkpt><trkpt lat="42.36282915049013" lon="12.338972365755751"><ele>237.0</ele><time>2026-05-01T11:51:43Z</time></trkpt><trkpt lat="42.36300127556829" lon="12.338832227347355"><ele>237.0</ele><time>2026-05-01T11:51:44Z</time></trkpt><trkpt lat="42.36316344308522" lon="12.33868104090481"><ele>237.66666666666669</ele><time>2026-05-01T11:51:45Z</time></trkpt><trkpt lat="42.36331289767063" lon="12.338514272397905"><ele>238.33333333333334</ele><time>2026-05-01T11:51:46Z</time></trkpt><trkpt lat="42.363447003442985" lon="12.338327498815138"><ele>239.0</ele><time>2026-05-01T11:51:47Z</time></trkpt><trkpt lat="42.36357611335561" lon="12.338127210721307"><ele>239.33333333333334</ele><time>2026-05-01T11:51:48Z</time></trkpt><trkpt lat="42.36369787289925" lon="12.337911491563494"><ele>239.66666666666669</ele><time>2026-05-01T11:51:49Z</time></trkpt><trkpt lat="42.36381277307867" lon="12.337681395040892"><ele>240.0</ele><time>2026-05-01T11:51:50Z</time></trkpt><trkpt lat="42.36394199040496" lon="12.33745431576238"><ele>240.66666666666669</ele><time>2026-05-01T11:51:51Z</time></trkpt><trkpt lat="42.36402069610148" lon="12.33718112415854"><ele>241.33333333333334</ele><time>2026-05-01T11:51:52Z</time></trkpt><trkpt lat="42.36411513906451" lon="12.336914461649432"><ele>242.0</ele><time>2026-05-01T11:51:53Z</time></trkpt><trkpt lat="42.364211570235476" lon="12.336645772707511"><ele>242.33333333333334</ele><time>2026-05-01T11:51:54Z</time></trkpt><trkpt lat="42.36429761649348" lon="12.33637595331389"><ele>242.66666666666669</ele><time>2026-05-01T11:51:55Z</time></trkpt><trkpt lat="42.364376908934666" lon="12.336114236657366"><ele>243.0</ele><time>2026-05-01T11:51:56Z</time></trkpt><trkpt lat="42.36447272626428" lon="12.335874220972666"><ele>243.0</ele><time>2026-05-01T11:51:57Z</time></trkpt><trkpt lat="42.36456678934381" lon="12.33561758119029"><ele>243.0</ele><time>2026-05-01T11:51:58.001Z</time></trkpt><trkpt lat="42.364688943376834" lon="12.335386248843083"><ele>243.0</ele><time>2026-05-01T11:51:59.001Z</time></trkpt><trkpt lat="42.36481285272031" lon="12.335161491204095"><ele>244.0</ele><time>2026-05-01T11:52:00.001Z</time></trkpt><trkpt lat="42.36493164348153" lon="12.33494878263177"><ele>245.0</ele><time>2026-05-01T11:52:01.001Z</time></trkpt><trkpt lat="42.365043991204814" lon="12.334748783453906"><ele>246.0</ele><time>2026-05-01T11:52:02.001Z</time></trkpt><trkpt lat="42.36517149842431" lon="12.334563926908947"><ele>247.0</ele><time>2026-05-01T11:52:03.001Z</time></trkpt><trkpt lat="42.365288900575585" lon="12.334361188879138"><ele>248.0</ele><time>2026-05-01T11:52:04.001Z</time></trkpt><trkpt lat="42.36541049480623" lon="12.334149179978379"><ele>249.0</ele><time>2026-05-01T11:52:05.001Z</time></trkpt><trkpt lat="42.36553298910536" lon="12.3339340163277"><ele>249.33333333333331</ele><time>2026-05-01T11:52:06.001Z</time></trkpt><trkpt lat="42.36565930998889" lon="12.33371213116136"><ele>249.66666666666666</ele><time>2026-05-01T11:52:07.001Z</time></trkpt><trkpt lat="42.365788272603304" lon="12.333484598553287"><ele>250.0</ele><time>2026-05-01T11:52:08.001Z</time></trkpt><trkpt lat="42.365920048392006" lon="12.333251711460942"><ele>250.66666666666666</ele><time>2026-05-01T11:52:09.001Z</time></trkpt><trkpt lat="42.36604978497793" lon="12.333014713941235"><ele>251.33333333333331</ele><time>2026-05-01T11:52:10.001Z</time></trkpt><trkpt lat="42.3661703572839" lon="12.332774284836855"><ele>252.0</ele><time>2026-05-01T11:52:11.001Z</time></trkpt><trkpt lat="42.366284449533865" lon="12.332539285150068"><ele>252.33333333333331</ele><time>2026-05-01T11:52:12.001Z</time></trkpt><trkpt lat="42.36639320171389" lon="12.332313858548728"><ele>252.66666666666666</ele><time>2026-05-01T11:52:13.001Z</time></trkpt><trkpt lat="42.366522776951676" lon="12.332113882799435"><ele>253.0</ele><time>2026-05-01T11:52:14.001Z</time></trkpt><trkpt lat="42.36666036805939" lon="12.331927624383171"><ele>254.0</ele><time>2026-05-01T11:52:15.001Z</time></trkpt><trkpt lat="42.36680389128371" lon="12.331752040552638"><ele>255.0</ele><time>2026-05-01T11:52:16.001Z</time></trkpt><trkpt lat="42.366952761160746" lon="12.331584265013738"><ele>256.0</ele><time>2026-05-01T11:52:17.001Z</time></trkpt><trkpt lat="42.36711396092901" lon="12.33143062090737"><ele>256.66666666666663</ele><time>2026-05-01T11:52:18.001Z</time></trkpt><trkpt lat="42.36725588733608" lon="12.331269289782702"><ele>257.3333333333333</ele><time>2026-05-01T11:52:19.001Z</time></trkpt><trkpt lat="42.367401086015384" lon="12.331101626499919"><ele>258.0</ele><time>2026-05-01T11:52:20.001Z</time></trkpt><trkpt lat="42.36756624448883" lon="12.330913476560427"><ele>258.0</ele><time>2026-05-01T11:52:21.001Z</time></trkpt><trkpt lat="42.36774267126993" lon="12.330708009384134"><ele>258.0</ele><time>2026-05-01T11:52:22.001Z</time></trkpt><trkpt lat="42.36792933421633" lon="12.330489447079986"><ele>258.5</ele><time>2026-05-01T11:52:23.001Z</time></trkpt><trkpt lat="42.368126291377315" lon="12.330256528000753"><ele>259.0</ele><time>2026-05-01T11:52:24.001Z</time></trkpt><trkpt lat="42.36832819897811" lon="12.330016728694025"><ele>259.0</ele><time>2026-05-01T11:52:25.001Z</time></trkpt><trkpt lat="42.36853530858867" lon="12.32977075124016"><ele>259.0</ele><time>2026-05-01T11:52:26.001Z</time></trkpt><trkpt lat="42.36874888985776" lon="12.329520148550804"><ele>259.0</ele><time>2026-05-01T11:52:27.001Z</time></trkpt><trkpt lat="42.36896731625636" lon="12.329261378866923"><ele>259.0</ele><time>2026-05-01T11:52:28.001Z</time></trkpt><trkpt lat="42.36919138670948" lon="12.328995259003154"><ele>260.0</ele><time>2026-05-01T11:52:29.001Z</time></trkpt><trkpt lat="42.36942055390661" lon="12.328723079641922"><ele>261.0</ele><time>2026-05-01T11:52:30.001Z</time></trkpt><trkpt lat="42.369648086942426" lon="12.328449932340616"><ele>261.5</ele><time>2026-05-01T11:52:31.001Z</time></trkpt><trkpt lat="42.36985097016973" lon="12.328156818116295"><ele>262.0</ele><time>2026-05-01T11:52:32.001Z</time></trkpt><trkpt lat="42.37005844544332" lon="12.327917800762979"><ele>263.5</ele><time>2026-05-01T11:52:33.001Z</time></trkpt><trkpt lat="42.37025263369442" lon="12.327699940068145"><ele>265.0</ele><time>2026-05-01T11:52:34.001Z</time></trkpt><trkpt lat="42.37043101226157" lon="12.327495291369884"><ele>265.66666666666663</ele><time>2026-05-01T11:52:35.001Z</time></trkpt><trkpt lat="42.370597334854175" lon="12.327302562858412"><ele>266.3333333333333</ele><time>2026-05-01T11:52:36.001Z</time></trkpt><trkpt lat="42.370750852348955" lon="12.327120675712397"><ele>267.0</ele><time>2026-05-01T11:52:37.001Z</time></trkpt><trkpt lat="42.37089806308217" lon="12.326940607477827"><ele>267.0</ele><time>2026-05-01T11:52:38.001Z</time></trkpt><trkpt lat="42.37103923043721" lon="12.326755961685283"><ele>267.0</ele><time>2026-05-01T11:52:39.001Z</time></trkpt><trkpt lat="42.37116014732608" lon="12.326547953573549"><ele>267.0</ele><time>2026-05-01T11:52:40.001Z</time></trkpt><trkpt lat="42.37127416345954" lon="12.32630678629961"><ele>269.0</ele><time>2026-05-01T11:52:41.001Z</time></trkpt><trkpt lat="42.371382246961616" lon="12.326040718380213"><ele>271.0</ele><time>2026-05-01T11:52:42.001Z</time></trkpt><trkpt lat="42.371494561072026" lon="12.3257610396255"><ele>270.5</ele><time>2026-05-01T11:52:43.001Z</time></trkpt><trkpt lat="42.37161256719248" lon="12.325478240876828"><ele>270.0</ele><time>2026-05-01T11:52:44.001Z</time></trkpt><trkpt lat="42.371736407405244" lon="12.32519847002175"><ele>270.0</ele><time>2026-05-01T11:52:45.001Z</time></trkpt><trkpt lat="42.37187391122538" lon="12.324938395484434"><ele>270.0</ele><time>2026-05-01T11:52:46.001Z</time></trkpt><trkpt lat="42.372025785045786" lon="12.324710821292554"><ele>270.3333333333333</ele><time>2026-05-01T11:52:47.001Z</time></trkpt><trkpt lat="42.37218634075764" lon="12.324508577557959"><ele>270.66666666666663</ele><time>2026-05-01T11:52:48.001Z</time></trkpt><trkpt lat="42.37236140469571" lon="12.32432113473017"><ele>271.0</ele><time>2026-05-01T11:52:49.001Z</time></trkpt><trkpt lat="42.37255264932577" lon="12.324151989448264"><ele>272.0</ele><time>2026-05-01T11:52:50.001Z</time></trkpt><trkpt lat="42.37236657305035" lon="12.323805781498963"><ele>273.0</ele><time>2026-05-01T11:52:51.001Z</time></trkpt><trkpt lat="42.372494211863255" lon="12.323648684410738"><ele>273.0</ele><time>2026-05-01T11:52:52.001Z</time></trkpt><trkpt lat="42.372645179036574" lon="12.323524232797782"><ele>273.0</ele><time>2026-05-01T11:52:53.001Z</time></trkpt><trkpt lat="42.37281793990076" lon="12.323415879873641"><ele>273.0</ele><time>2026-05-01T11:52:54.001Z</time></trkpt><trkpt lat="42.3729981082301" lon="12.323305680020548"><ele>273.3333333333333</ele><time>2026-05-01T11:52:55.001Z</time></trkpt><trkpt lat="42.37316840046678" lon="12.323197546966998"><ele>273.66666666666663</ele><time>2026-05-01T11:52:56.001Z</time></trkpt><trkpt lat="42.3733267970476" lon="12.323114570007599"><ele>274.0</ele><time>2026-05-01T11:52:57.001Z</time></trkpt><trkpt lat="42.37351142736409" lon="12.323053290288078"><ele>275.3333333333333</ele><time>2026-05-01T11:52:58.001Z</time></trkpt><trkpt lat="42.37370859339269" lon="12.323009112844082"><ele>276.6666666666667</ele><time>2026-05-01T11:52:59.001Z</time></trkpt><trkpt lat="42.373912035044235" lon="12.322970807737523"><ele>278.0</ele><time>2026-05-01T11:53:00Z</time></trkpt><trkpt lat="42.37411219082449" lon="12.32292823474795"><ele>278.0</ele><time>2026-05-01T11:53:01Z</time></trkpt><trkpt lat="42.374312174951264" lon="12.322881179270134"><ele>278.0</ele><time>2026-05-01T11:53:02Z</time></trkpt><trkpt lat="42.37450579688134" lon="12.32283370473899"><ele>278.0</ele><time>2026-05-01T11:53:03Z</time></trkpt><trkpt lat="42.374700646566865" lon="12.322767902199793"><ele>280.0</ele><time>2026-05-01T11:53:04Z</time></trkpt><trkpt lat="42.37489064093305" lon="12.322674627510132"><ele>282.0</ele><time>2026-05-01T11:53:05Z</time></trkpt><trkpt lat="42.37507378179626" lon="12.322561338739801"><ele>284.0</ele><time>2026-05-01T11:53:06Z</time></trkpt><trkpt lat="42.37525318857027" lon="12.32242963361205"><ele>284.0</ele><time>2026-05-01T11:53:07Z</time></trkpt><trkpt lat="42.375430995065784" lon="12.322298026306976"><ele>284.0</ele><time>2026-05-01T11:53:08Z</time></trkpt><trkpt lat="42.37560359030374" lon="12.322173194143438"><ele>284.0</ele><time>2026-05-01T11:53:09Z</time></trkpt><trkpt lat="42.375759020634966" lon="12.322061498576254"><ele>283.6666666666667</ele><time>2026-05-01T11:53:10Z</time></trkpt><trkpt lat="42.375901264895354" lon="12.321932991218402"><ele>283.3333333333333</ele><time>2026-05-01T11:53:11Z</time></trkpt><trkpt lat="42.376024961939926" lon="12.3217682640236"><ele>283.0</ele><time>2026-05-01T11:53:12Z</time></trkpt><trkpt lat="42.376144679052786" lon="12.321553028387738"><ele>283.66666666666663</ele><time>2026-05-01T11:53:13Z</time></trkpt><trkpt lat="42.37622042674221" lon="12.321337092411055"><ele>284.3333333333333</ele><time>2026-05-01T11:53:14Z</time></trkpt><trkpt lat="42.37631507337126" lon="12.32111815650258"><ele>285.0</ele><time>2026-05-01T11:53:15Z</time></trkpt><trkpt lat="42.37642185713928" lon="12.320898713823055"><ele>284.6666666666667</ele><time>2026-05-01T11:53:16Z</time></trkpt><trkpt lat="42.376531517447766" lon="12.320689440253327"><ele>284.33333333333337</ele><time>2026-05-01T11:53:17Z</time></trkpt><trkpt lat="42.37665349904857" lon="12.32048829417971"><ele>284.0</ele><time>2026-05-01T11:53:18Z</time></trkpt><trkpt lat="42.37679817434393" lon="12.320305825349537"><ele>284.0</ele><time>2026-05-01T11:53:19Z</time></trkpt><trkpt lat="42.3769498595773" lon="12.320145850512718"><ele>284.0</ele><time>2026-05-01T11:53:20Z</time></trkpt><trkpt lat="42.3771025281634" lon="12.32002108595184"><ele>284.0</ele><time>2026-05-01T11:53:21Z</time></trkpt><trkpt lat="42.37724583242027" lon="12.319913704910135"><ele>284.25</ele><time>2026-05-01T11:53:22Z</time></trkpt><trkpt lat="42.37737700856346" lon="12.319806137267927"><ele>284.5</ele><time>2026-05-01T11:53:23Z</time></trkpt><trkpt lat="42.37749780376331" lon="12.319694739542358"><ele>284.75</ele><time>2026-05-01T11:53:24Z</time></trkpt><trkpt lat="42.37760708068663" lon="12.319564470463503"><ele>285.0</ele><time>2026-05-01T11:53:25Z</time></trkpt><trkpt lat="42.3776922338435" lon="12.31939847337695"><ele>285.0</ele><time>2026-05-01T11:53:26Z</time></trkpt><trkpt lat="42.37773827016505" lon="12.319197410094011"><ele>285.0</ele><time>2026-05-01T11:53:27Z</time></trkpt><trkpt lat="42.37774838378416" lon="12.318962205056863"><ele>285.0</ele><time>2026-05-01T11:53:28Z</time></trkpt><trkpt lat="42.37775695464449" lon="12.318691578159113"><ele>285.6666666666667</ele><time>2026-05-01T11:53:29Z</time></trkpt><trkpt lat="42.3777534241801" lon="12.318445593429717"><ele>286.33333333333337</ele><time>2026-05-01T11:53:30Z</time></trkpt><trkpt lat="42.37774265095204" lon="12.318188682979896"><ele>287.0</ele><time>2026-05-01T11:53:31Z</time></trkpt><trkpt lat="42.37770638504862" lon="12.317928555289022"><ele>288.0</ele><time>2026-05-01T11:53:32Z</time></trkpt><trkpt lat="42.377655745610646" lon="12.31767956266983"><ele>289.0</ele><time>2026-05-01T11:53:33Z</time></trkpt><trkpt lat="42.377614467448424" lon="12.317427245055896"><ele>290.0</ele><time>2026-05-01T11:53:34Z</time></trkpt><trkpt lat="42.37759269433988" lon="12.317192347519088"><ele>291.33333333333337</ele><time>2026-05-01T11:53:35Z</time></trkpt><trkpt lat="42.37758910265511" lon="12.316954252115258"><ele>292.6666666666667</ele><time>2026-05-01T11:53:36Z</time></trkpt><trkpt lat="42.377603606917425" lon="12.316703194823717"><ele>294.0</ele><time>2026-05-01T11:53:37Z</time></trkpt><trkpt lat="42.37762882419314" lon="12.316442631016763"><ele>294.6666666666667</ele><time>2026-05-01T11:53:38Z</time></trkpt><trkpt lat="42.377668442824366" lon="12.316172349326006"><ele>295.33333333333337</ele><time>2026-05-01T11:53:39Z</time></trkpt><trkpt lat="42.37769545833267" lon="12.315901477484122"><ele>296.0</ele><time>2026-05-01T11:53:40Z</time></trkpt><trkpt lat="42.377721898860074" lon="12.315636676726713"><ele>296.0</ele><time>2026-05-01T11:53:41Z</time></trkpt><trkpt lat="42.37774863531157" lon="12.3153746594842"><ele>296.0</ele><time>2026-05-01T11:53:42Z</time></trkpt><trkpt lat="42.37777456784678" lon="12.315120520623005"><ele>296.0</ele><time>2026-05-01T11:53:43Z</time></trkpt><trkpt lat="42.37779945127759" lon="12.314874637671524"><ele>295.6666666666667</ele><time>2026-05-01T11:53:44Z</time></trkpt><trkpt lat="42.37782302527377" lon="12.314640982163288"><ele>295.3333333333333</ele><time>2026-05-01T11:53:45Z</time></trkpt><trkpt lat="42.37783086457696" lon="12.314425101445929"><ele>295.0</ele><time>2026-05-01T11:53:46Z</time></trkpt><trkpt lat="42.377856484782654" lon="12.314206796982791"><ele>295.0</ele><time>2026-05-01T11:53:47Z</time></trkpt><trkpt lat="42.377891535950695" lon="12.313981148383595"><ele>295.0</ele><time>2026-05-01T11:53:48Z</time></trkpt><trkpt lat="42.37792973432935" lon="12.313745079113172"><ele>295.0</ele><time>2026-05-01T11:53:49Z</time></trkpt><trkpt lat="42.37797751418303" lon="12.31349863353704"><ele>295.66666666666663</ele><time>2026-05-01T11:53:50Z</time></trkpt><trkpt lat="42.378031236804816" lon="12.313252321272511"><ele>296.3333333333333</ele><time>2026-05-01T11:53:51Z</time></trkpt><trkpt lat="42.37808641453951" lon="12.313000363038357"><ele>297.0</ele><time>2026-05-01T11:53:52Z</time></trkpt><trkpt lat="42.37813417692406" lon="12.31274699766379"><ele>297.3333333333333</ele><time>2026-05-01T11:53:53Z</time></trkpt><trkpt lat="42.37817561108301" lon="12.312488149898439"><ele>297.66666666666663</ele><time>2026-05-01T11:53:54Z</time></trkpt><trkpt lat="42.37822157373751" lon="12.312217997463197"><ele>298.0</ele><time>2026-05-01T11:53:55Z</time></trkpt><trkpt lat="42.378245953732275" lon="12.311915721999389"><ele>299.5</ele><time>2026-05-01T11:53:56Z</time></trkpt><trkpt lat="42.37826463424032" lon="12.311592468857494"><ele>301.0</ele><time>2026-05-01T11:53:57Z</time></trkpt><trkpt lat="42.37828101523456" lon="12.311255613813024"><ele>302.5</ele><time>2026-05-01T11:53:58Z</time></trkpt><trkpt lat="42.37829581627173" lon="12.310916931230949"><ele>304.0</ele><time>2026-05-01T11:53:59Z</time></trkpt><trkpt lat="42.378309974126864" lon="12.310592966159554"><ele>304.3333333333333</ele><time>2026-05-01T11:54:00Z</time></trkpt><trkpt lat="42.37832782571223" lon="12.310301253592145"><ele>304.6666666666667</ele><time>2026-05-01T11:54:01Z</time></trkpt><trkpt lat="42.37836037508607" lon="12.310027778522883"><ele>305.0</ele><time>2026-05-01T11:54:02Z</time></trkpt><trkpt lat="42.37842307293384" lon="12.309762230196752"><ele>304.6666666666667</ele><time>2026-05-01T11:54:03Z</time></trkpt><trkpt lat="42.37849619809317" lon="12.309475444307497"><ele>304.3333333333333</ele><time>2026-05-01T11:54:04Z</time></trkpt><trkpt lat="42.378568533738274" lon="12.309187468037374"><ele>304.0</ele><time>2026-05-01T11:54:05Z</time></trkpt><trkpt lat="42.37863689850333" lon="12.308915300233448"><ele>305.0</ele><time>2026-05-01T11:54:06Z</time></trkpt><trkpt lat="42.37869567159049" lon="12.308661521772853"><ele>306.0</ele><time>2026-05-01T11:54:07.001Z</time></trkpt><trkpt lat="42.378738483506204" lon="12.308401195240693"><ele>307.0</ele><time>2026-05-01T11:54:08.001Z</time></trkpt><trkpt lat="42.37875901451015" lon="12.30813304474553"><ele>308.0</ele><time>2026-05-01T11:54:09.001Z</time></trkpt><trkpt lat="42.378750670352076" lon="12.307853287090726"><ele>309.0</ele><time>2026-05-01T11:54:10.001Z</time></trkpt><trkpt lat="42.378777853663195" lon="12.307572799381555"><ele>310.0</ele><time>2026-05-01T11:54:11.001Z</time></trkpt><trkpt lat="42.37881315673143" lon="12.307295502894988"><ele>310.66666666666663</ele><time>2026-05-01T11:54:12.001Z</time></trkpt><trkpt lat="42.37887262006869" lon="12.307023179693456"><ele>311.3333333333333</ele><time>2026-05-01T11:54:13.001Z</time></trkpt><trkpt lat="42.37893555633583" lon="12.3067540492388"><ele>312.0</ele><time>2026-05-01T11:54:14.001Z</time></trkpt><trkpt lat="42.379001507029834" lon="12.306491674715176"><ele>312.3333333333333</ele><time>2026-05-01T11:54:15.001Z</time></trkpt><trkpt lat="42.379060378341656" lon="12.30624041284867"><ele>312.66666666666663</ele><time>2026-05-01T11:54:16.001Z</time></trkpt><trkpt lat="42.379160487309235" lon="12.306050539255775"><ele>313.0</ele><time>2026-05-01T11:54:17.001Z</time></trkpt><trkpt lat="42.37925323931513" lon="12.305857654633517"><ele>313.0</ele><time>2026-05-01T11:54:18.001Z</time></trkpt><trkpt lat="42.37935181732463" lon="12.305658557749084"><ele>313.0</ele><time>2026-05-01T11:54:19.001Z</time></trkpt><trkpt lat="42.37943589946631" lon="12.305443641717149"><ele>313.0</ele><time>2026-05-01T11:54:20.001Z</time></trkpt><trkpt lat="42.37952392822252" lon="12.305225262050723"><ele>313.0</ele><time>2026-05-01T11:54:21.001Z</time></trkpt><trkpt lat="42.379592830661736" lon="12.304984466173732"><ele>313.0</ele><time>2026-05-01T11:54:22.001Z</time></trkpt><trkpt lat="42.37964503238177" lon="12.304725998154439"><ele>313.0</ele><time>2026-05-01T11:54:23.001Z</time></trkpt><trkpt lat="42.37969598638703" lon="12.304460268475674"><ele>314.66666666666663</ele><time>2026-05-01T11:54:24.001Z</time></trkpt><trkpt lat="42.37975212942172" lon="12.304184980904065"><ele>316.3333333333333</ele><time>2026-05-01T11:54:25.001Z</time></trkpt><trkpt lat="42.37982259386211" lon="12.303910475148461"><ele>318.0</ele><time>2026-05-01T11:54:26.001Z</time></trkpt><trkpt lat="42.379906428014614" lon="12.303640252103756"><ele>318.3333333333333</ele><time>2026-05-01T11:54:27.001Z</time></trkpt><trkpt lat="42.38001170252379" lon="12.303374843798343"><ele>318.66666666666663</ele><time>2026-05-01T11:54:28.001Z</time></trkpt><trkpt lat="42.38011693618548" lon="12.3031097213063"><ele>319.0</ele><time>2026-05-01T11:54:29.001Z</time></trkpt><trkpt lat="42.380214490651895" lon="12.302850837647124"><ele>319.0</ele><time>2026-05-01T11:54:30.001Z</time></trkpt><trkpt lat="42.38030759943006" lon="12.302606190593163"><ele>319.0</ele><time>2026-05-01T11:54:31.001Z</time></trkpt><trkpt lat="42.380387782209716" lon="12.302396853042069"><ele>319.0</ele><time>2026-05-01T11:54:32.001Z</time></trkpt><trkpt lat="42.380453863984705" lon="12.302224019564761"><ele>319.0</ele><time>2026-05-01T11:54:33.001Z</time></trkpt><trkpt lat="42.38051509203329" lon="12.302055432683355"><ele>319.0</ele><time>2026-05-01T11:54:34.001Z</time></trkpt><trkpt lat="42.38056433755443" lon="12.30187096077871"><ele>319.0</ele><time>2026-05-01T11:54:35.001Z</time></trkpt><trkpt lat="42.380606098313166" lon="12.301651701859399"><ele>321.0</ele><time>2026-05-01T11:54:36.001Z</time></trkpt><trkpt lat="42.38063756959868" lon="12.301395519459422"><ele>323.0</ele><time>2026-05-01T11:54:37.001Z</time></trkpt><trkpt lat="42.38066922681689" lon="12.301126689621157"><ele>325.0</ele><time>2026-05-01T11:54:38.001Z</time></trkpt><trkpt lat="42.38070203771143" lon="12.300881294060167"><ele>325.0</ele><time>2026-05-01T11:54:39.001Z</time></trkpt><trkpt lat="42.3807245526452" lon="12.300653372560069"><ele>325.0</ele><time>2026-05-01T11:54:40.001Z</time></trkpt><trkpt lat="42.38074165223085" lon="12.300411080779774"><ele>325.0</ele><time>2026-05-01T11:54:41.001Z</time></trkpt><trkpt lat="42.38075552668535" lon="12.30013223646233"><ele>325.3333333333333</ele><time>2026-05-01T11:54:42.001Z</time></trkpt><trkpt lat="42.380756210994114" lon="12.299829463957456"><ele>325.6666666666667</ele><time>2026-05-01T11:54:43.001Z</time></trkpt><trkpt lat="42.38074232224918" lon="12.299543892925328"><ele>326.0</ele><time>2026-05-01T11:54:44.001Z</time></trkpt><trkpt lat="42.38073490211086" lon="12.299295710718784"><ele>326.0</ele><time>2026-05-01T11:54:45.001Z</time></trkpt><trkpt lat="42.38074283286568" lon="12.299084604118693"><ele>326.0</ele><time>2026-05-01T11:54:46.001Z</time></trkpt><trkpt lat="42.38078078182071" lon="12.298911368156498"><ele>326.0</ele><time>2026-05-01T11:54:47.001Z</time></trkpt><trkpt lat="42.3808575822986" lon="12.298753951072207"><ele>326.0</ele><time>2026-05-01T11:54:48.001Z</time></trkpt><trkpt lat="42.380957307310766" lon="12.29859388363038"><ele>326.0</ele><time>2026-05-01T11:54:49.001Z</time></trkpt><trkpt lat="42.38107572480746" lon="12.29842254203488"><ele>326.0</ele><time>2026-05-01T11:54:50.001Z</time></trkpt><trkpt lat="42.38118640173477" lon="12.298227027614464"><ele>326.0</ele><time>2026-05-01T11:54:51.001Z</time></trkpt><trkpt lat="42.38128710301109" lon="12.298016533431596"><ele>327.0</ele><time>2026-05-01T11:54:52.001Z</time></trkpt><trkpt lat="42.38135642606924" lon="12.297774302786527"><ele>328.0</ele><time>2026-05-01T11:54:53.001Z</time></trkpt><trkpt lat="42.381427098316095" lon="12.297498799080678"><ele>329.0</ele><time>2026-05-01T11:54:54.001Z</time></trkpt><trkpt lat="42.381491321160965" lon="12.29722643218151"><ele>329.33333333333337</ele><time>2026-05-01T11:54:55.001Z</time></trkpt><trkpt lat="42.38153694836063" lon="12.2969883475312"><ele>329.6666666666667</ele><time>2026-05-01T11:54:56.001Z</time></trkpt><trkpt lat="42.381568724464515" lon="12.296741087398317"><ele>330.0</ele><time>2026-05-01T11:54:57.001Z</time></trkpt><trkpt lat="42.38156766120333" lon="12.29647194294881"><ele>331.0</ele><time>2026-05-01T11:54:58.001Z</time></trkpt><trkpt lat="42.381559414878396" lon="12.29618934147159"><ele>332.0</ele><time>2026-05-01T11:54:59.001Z</time></trkpt><trkpt lat="42.38154737121114" lon="12.295855582023837"><ele>333.5</ele><time>2026-05-01T11:55:00.001Z</time></trkpt><trkpt lat="42.381534199033965" lon="12.2955542545163"><ele>335.0</ele><time>2026-05-01T11:55:01.001Z</time></trkpt><trkpt lat="42.38153334484033" lon="12.295243562094662"><ele>335.0</ele><time>2026-05-01T11:55:02.001Z</time></trkpt><trkpt lat="42.38152310682641" lon="12.294947642592279"><ele>335.0</ele><time>2026-05-01T11:55:03.001Z</time></trkpt><trkpt lat="42.3815134039761" lon="12.29468431108013"><ele>335.0</ele><time>2026-05-01T11:55:04.001Z</time></trkpt><trkpt lat="42.38150670417012" lon="12.294434725486733"><ele>335.33333333333337</ele><time>2026-05-01T11:55:05.001Z</time></trkpt><trkpt lat="42.38152011586836" lon="12.294185704137492"><ele>335.6666666666667</ele><time>2026-05-01T11:55:06Z</time></trkpt><trkpt lat="42.38154959699972" lon="12.29393634435819"><ele>336.0</ele><time>2026-05-01T11:55:07Z</time></trkpt><trkpt lat="42.38159365398758" lon="12.293679188622413"><ele>336.3333333333333</ele><time>2026-05-01T11:55:08Z</time></trkpt><trkpt lat="42.38164140066527" lon="12.2934145265566"><ele>336.66666666666663</ele><time>2026-05-01T11:55:09Z</time></trkpt><trkpt lat="42.38169211298761" lon="12.293159780855506"><ele>337.0</ele><time>2026-05-01T11:55:10Z</time></trkpt><trkpt lat="42.381734537916444" lon="12.292935446719738"><ele>337.25</ele><time>2026-05-01T11:55:11Z</time></trkpt><trkpt lat="42.381762915438834" lon="12.292722933527676"><ele>337.5</ele><time>2026-05-01T11:55:12Z</time></trkpt><trkpt lat="42.38178013070281" lon="12.292527566275552"><ele>337.75</ele><time>2026-05-01T11:55:13Z</time></trkpt><trkpt lat="42.38179477187301" lon="12.292343719681838"><ele>338.0</ele><time>2026-05-01T11:55:14Z</time></trkpt><trkpt lat="42.381815021308185" lon="12.29217746354507"><ele>338.4</ele><time>2026-05-01T11:55:15Z</time></trkpt><trkpt lat="42.38184222741417" lon="12.292034185011829"><ele>338.79999999999995</ele><time>2026-05-01T11:55:16Z</time></trkpt><trkpt lat="42.38189440659611" lon="12.291927386690677"><ele>339.2</ele><time>2026-05-01T11:55:17Z</time></trkpt><trkpt lat="42.38195784680692" lon="12.291837878096743"><ele>339.6</ele><time>2026-05-01T11:55:18Z</time></trkpt><trkpt lat="42.38203165649905" lon="12.291752870570912"><ele>340.0</ele><time>2026-05-01T11:55:19Z</time></trkpt><trkpt lat="42.38209023725409" lon="12.291637736298712"><ele>340.0</ele><time>2026-05-01T11:55:20Z</time></trkpt><trkpt lat="42.38211690508498" lon="12.291498201475317"><ele>340.0</ele><time>2026-05-01T11:55:21Z</time></trkpt><trkpt lat="42.38210168515034" lon="12.291356332088391"><ele>340.0</ele><time>2026-05-01T11:55:22Z</time></trkpt><trkpt lat="42.38205770515284" lon="12.2912244711758"><ele>340.0</ele><time>2026-05-01T11:55:23Z</time></trkpt><trkpt lat="42.38198541030653" lon="12.291130500892082"><ele>340.0</ele><time>2026-05-01T11:55:24Z</time></trkpt><trkpt lat="42.38189239665739" lon="12.291084311563663"><ele>340.6</ele><time>2026-05-01T11:55:25Z</time></trkpt><trkpt lat="42.38178947349824" lon="12.291078792376531"><ele>341.2</ele><time>2026-05-01T11:55:26Z</time></trkpt><trkpt lat="42.38169217898733" lon="12.291109830962526"><ele>341.79999999999995</ele><time>2026-05-01T11:55:27Z</time></trkpt><trkpt lat="42.38160690652705" lon="12.291166262671961"><ele>342.4</ele><time>2026-05-01T11:55:28Z</time></trkpt><trkpt lat="42.38152001062577" lon="12.291187339688273"><ele>343.0</ele><time>2026-05-01T11:55:29Z</time></trkpt><trkpt lat="42.38142704493399" lon="12.291171546839092"><ele>343.4</ele><time>2026-05-01T11:55:30Z</time></trkpt><trkpt lat="42.38132515734979" lon="12.291129710809052"><ele>343.79999999999995</ele><time>2026-05-01T11:55:31Z</time></trkpt><trkpt lat="42.38123710301761" lon="12.291043443742652"><ele>344.2</ele><time>2026-05-01T11:55:32Z</time></trkpt><trkpt lat="42.381138220181846" lon="12.290980212880287"><ele>344.6</ele><time>2026-05-01T11:55:33Z</time></trkpt><trkpt lat="42.38104616171088" lon="12.290889539353994"><ele>345.0</ele><time>2026-05-01T11:55:34Z</time></trkpt><trkpt lat="42.38094991497907" lon="12.290809085770885"><ele>345.0</ele><time>2026-05-01T11:55:35Z</time></trkpt><trkpt lat="42.38084568999494" lon="12.290731879954503"><ele>345.0</ele><time>2026-05-01T11:55:36Z</time></trkpt><trkpt lat="42.380743802513955" lon="12.290646936535728"><ele>345.0</ele><time>2026-05-01T11:55:37Z</time></trkpt><trkpt lat="42.38063748710363" lon="12.290546671053267"><ele>345.0</ele><time>2026-05-01T11:55:38Z</time></trkpt><trkpt lat="42.380531019986734" lon="12.290442414403422"><ele>344.0</ele><time>2026-05-01T11:55:39Z</time></trkpt><trkpt lat="42.38042054378256" lon="12.290331935625304"><ele>343.0</ele><time>2026-05-01T11:55:40Z</time></trkpt><trkpt lat="42.380310034317674" lon="12.290220902039072"><ele>342.0</ele><time>2026-05-01T11:55:41Z</time></trkpt><trkpt lat="42.380196167364126" lon="12.290102385465689"><ele>341.0</ele><time>2026-05-01T11:55:42Z</time></trkpt><trkpt lat="42.38008946614496" lon="12.289977113790316"><ele>341.0</ele><time>2026-05-01T11:55:43Z</time></trkpt><trkpt lat="42.37998059721013" lon="12.28984918987436"><ele>341.0</ele><time>2026-05-01T11:55:44Z</time></trkpt><trkpt lat="42.379871071891706" lon="12.289716044274545"><ele>341.0</ele><time>2026-05-01T11:55:45Z</time></trkpt><trkpt lat="42.37976343526459" lon="12.289571745299854"><ele>341.0</ele><time>2026-05-01T11:55:46Z</time></trkpt><trkpt lat="42.37966133285839" lon="12.28942703614491"><ele>339.33333333333337</ele><time>2026-05-01T11:55:47Z</time></trkpt><trkpt lat="42.37955168216274" lon="12.289281414219445"><ele>337.6666666666667</ele><time>2026-05-01T11:55:48Z</time></trkpt><trkpt lat="42.37945150791048" lon="12.28913400059195"><ele>336.0</ele><time>2026-05-01T11:55:49Z</time></trkpt><trkpt lat="42.379349669001535" lon="12.288986366756246"><ele>337.5</ele><time>2026-05-01T11:55:50Z</time></trkpt><trkpt lat="42.37925281756114" lon="12.28883048487579"><ele>339.0</ele><time>2026-05-01T11:55:51Z</time></trkpt><trkpt lat="42.37916121601563" lon="12.288668125013128"><ele>340.5</ele><time>2026-05-01T11:55:52Z</time></trkpt><trkpt lat="42.37908373609139" lon="12.288500137291662"><ele>342.0</ele><time>2026-05-01T11:55:53Z</time></trkpt><trkpt lat="42.379013400674495" lon="12.288325846906567"><ele>342.0</ele><time>2026-05-01T11:55:54Z</time></trkpt><trkpt lat="42.37894946506184" lon="12.288149982726088"><ele>342.0</ele><time>2026-05-01T11:55:55Z</time></trkpt><trkpt lat="42.37889315885893" lon="12.287978305219628"><ele>342.0</ele><time>2026-05-01T11:55:56Z</time></trkpt><trkpt lat="42.37884055545657" lon="12.287807551551973"><ele>342.0</ele><time>2026-05-01T11:55:57Z</time></trkpt><trkpt lat="42.3787921599798" lon="12.28763658927244"><ele>342.0</ele><time>2026-05-01T11:55:58Z</time></trkpt><trkpt lat="42.3787449824521" lon="12.287462989735374"><ele>342.0</ele><time>2026-05-01T11:55:59Z</time></trkpt><trkpt lat="42.37869970419843" lon="12.2872891448329"><ele>342.0</ele><time>2026-05-01T11:56:00Z</time></trkpt><trkpt lat="42.37865740058661" lon="12.28710823837559"><ele>342.0</ele><time>2026-05-01T11:56:01Z</time></trkpt><trkpt lat="42.378614590921295" lon="12.28691615795272"><ele>343.25</ele><time>2026-05-01T11:56:02Z</time></trkpt><trkpt lat="42.378574882618246" lon="12.286723467012193"><ele>344.5</ele><time>2026-05-01T11:56:03Z</time></trkpt><trkpt lat="42.378533301018194" lon="12.286531489163394"><ele>345.75</ele><time>2026-05-01T11:56:04Z</time></trkpt><trkpt lat="42.37849118107905" lon="12.28634279759345"><ele>347.0</ele><time>2026-05-01T11:56:05Z</time></trkpt><trkpt lat="42.37844818655306" lon="12.286152782645173"><ele>348.0</ele><time>2026-05-01T11:56:06Z</time></trkpt><trkpt lat="42.378403070027744" lon="12.285966411355206"><ele>349.0</ele><time>2026-05-01T11:56:07Z</time></trkpt><trkpt lat="42.37834850538236" lon="12.285782926897157"><ele>350.0</ele><time>2026-05-01T11:56:08Z</time></trkpt><trkpt lat="42.378286038765545" lon="12.285603677963902"><ele>351.0</ele><time>2026-05-01T11:56:09Z</time></trkpt><trkpt lat="42.37821860556163" lon="12.285430786192704"><ele>350.6666666666667</ele><time>2026-05-01T11:56:10Z</time></trkpt><trkpt lat="42.37814303329532" lon="12.285261472569179"><ele>350.33333333333337</ele><time>2026-05-01T11:56:11Z</time></trkpt><trkpt lat="42.37805492704971" lon="12.285097015546032"><ele>350.0</ele><time>2026-05-01T11:56:12Z</time></trkpt><trkpt lat="42.3779627623857" lon="12.284928996035497"><ele>350.0</ele><time>2026-05-01T11:56:13Z</time></trkpt><trkpt lat="42.377866035645994" lon="12.284767989495139"><ele>350.0</ele><time>2026-05-01T11:56:14Z</time></trkpt><trkpt lat="42.377765830584785" lon="12.284608778626334"><ele>350.0</ele><time>2026-05-01T11:56:15Z</time></trkpt><trkpt lat="42.37766400809711" lon="12.284441869178343"><ele>351.33333333333337</ele><time>2026-05-01T11:56:16Z</time></trkpt><trkpt lat="42.377565704003324" lon="12.284275314300059"><ele>352.6666666666667</ele><time>2026-05-01T11:56:17Z</time></trkpt><trkpt lat="42.37746553084719" lon="12.284109286365357"><ele>354.0</ele><time>2026-05-01T11:56:18Z</time></trkpt><trkpt lat="42.37736541456318" lon="12.283931948904439"><ele>354.6666666666667</ele><time>2026-05-01T11:56:19.001Z</time></trkpt><trkpt lat="42.37727459176764" lon="12.283739650388895"><ele>355.33333333333337</ele><time>2026-05-01T11:56:20.001Z</time></trkpt><trkpt lat="42.377182155126825" lon="12.283551599771199"><ele>356.0</ele><time>2026-05-01T11:56:21.001Z</time></trkpt><trkpt lat="42.377068843998615" lon="12.2833811834654"><ele>357.33333333333337</ele><time>2026-05-01T11:56:22.001Z</time></trkpt><trkpt lat="42.37695849063404" lon="12.283204073636249"><ele>358.6666666666667</ele><time>2026-05-01T11:56:23.001Z</time></trkpt><trkpt lat="42.37685017188326" lon="12.283031725987641"><ele>360.0</ele><time>2026-05-01T11:56:24.001Z</time></trkpt><trkpt lat="42.37675527335179" lon="12.282874567945715"><ele>361.0</ele><time>2026-05-01T11:56:25.001Z</time></trkpt><trkpt lat="42.376664935843195" lon="12.282723681225866"><ele>362.0</ele><time>2026-05-01T11:56:26.001Z</time></trkpt><trkpt lat="42.37656719177504" lon="12.282559432217145"><ele>363.0</ele><time>2026-05-01T11:56:27.001Z</time></trkpt><trkpt lat="42.376483161024986" lon="12.282398232455733"><ele>364.0</ele><time>2026-05-01T11:56:28.001Z</time></trkpt><trkpt lat="42.37640643756987" lon="12.282211212104897"><ele>362.66666666666663</ele><time>2026-05-01T11:56:29.001Z</time></trkpt><trkpt lat="42.37632051425999" lon="12.282008264440652"><ele>361.3333333333333</ele><time>2026-05-01T11:56:30.001Z</time></trkpt><trkpt lat="42.37624727462083" lon="12.281790195297761"><ele>360.0</ele><time>2026-05-01T11:56:31.001Z</time></trkpt><trkpt lat="42.37619113634814" lon="12.281549812336577"><ele>361.0</ele><time>2026-05-01T11:56:32.001Z</time></trkpt><trkpt lat="42.37614891178632" lon="12.28130822824549"><ele>362.0</ele><time>2026-05-01T11:56:33.001Z</time></trkpt><trkpt lat="42.37611948465027" lon="12.28106064235638"><ele>363.0</ele><time>2026-05-01T11:56:34.001Z</time></trkpt><trkpt lat="42.37609619481219" lon="12.280804088283213"><ele>362.6666666666667</ele><time>2026-05-01T11:56:35.001Z</time></trkpt><trkpt lat="42.37607452085133" lon="12.280532983163983"><ele>362.33333333333337</ele><time>2026-05-01T11:56:36.001Z</time></trkpt><trkpt lat="42.376052417749165" lon="12.280250150999098"><ele>362.0</ele><time>2026-05-01T11:56:37.001Z</time></trkpt><trkpt lat="42.37603581075979" lon="12.279957358265923"><ele>360.6666666666667</ele><time>2026-05-01T11:56:38.001Z</time></trkpt><trkpt lat="42.37603147876824" lon="12.27967181210314"><ele>359.3333333333333</ele><time>2026-05-01T11:56:39.001Z</time></trkpt><trkpt lat="42.376034001610265" lon="12.279384489482192"><ele>358.0</ele><time>2026-05-01T11:56:40.001Z</time></trkpt><trkpt lat="42.37605281666202" lon="12.279103653208132"><ele>357.3333333333333</ele><time>2026-05-01T11:56:41.001Z</time></trkpt><trkpt lat="42.37608368017782" lon="12.278820553941587"><ele>356.6666666666667</ele><time>2026-05-01T11:56:42.001Z</time></trkpt><trkpt lat="42.3761211634423" lon="12.278538925562016"><ele>356.0</ele><time>2026-05-01T11:56:43.001Z</time></trkpt><trkpt lat="42.376164154013594" lon="12.27825268672855"><ele>356.0</ele><time>2026-05-01T11:56:44.001Z</time></trkpt><trkpt lat="42.3762082729146" lon="12.27796294553283"><ele>356.0</ele><time>2026-05-01T11:56:45.001Z</time></trkpt><trkpt lat="42.37625161902582" lon="12.277672437853422"><ele>356.0</ele><time>2026-05-01T11:56:46.001Z</time></trkpt><trkpt lat="42.376298512945446" lon="12.27737831191587"><ele>357.5</ele><time>2026-05-01T11:56:47.001Z</time></trkpt><trkpt lat="42.376349533242795" lon="12.2770794705294"><ele>359.0</ele><time>2026-05-01T11:56:48.001Z</time></trkpt><trkpt lat="42.376398952227284" lon="12.27677530576058"><ele>367.5</ele><time>2026-05-01T11:56:49.001Z</time></trkpt><trkpt lat="42.37644543216622" lon="12.276470382188453"><ele>376.0</ele><time>2026-05-01T11:56:50.001Z</time></trkpt><trkpt lat="42.37648800087176" lon="12.276164285168726"><ele>376.5</ele><time>2026-05-01T11:56:51.001Z</time></trkpt><trkpt lat="42.37652303406224" lon="12.275856757866098"><ele>377.0</ele><time>2026-05-01T11:56:52.001Z</time></trkpt><trkpt lat="42.37654264476648" lon="12.275546088291515"><ele>379.0</ele><time>2026-05-01T11:56:53.001Z</time></trkpt><trkpt lat="42.376542679581846" lon="12.275232781629665"><ele>381.0</ele><time>2026-05-01T11:56:54.001Z</time></trkpt><trkpt lat="42.376520187881525" lon="12.274918402327227"><ele>384.0</ele><time>2026-05-01T11:56:55.001Z</time></trkpt><trkpt lat="42.37647790623282" lon="12.27461422927407"><ele>387.0</ele><time>2026-05-01T11:56:56.001Z</time></trkpt><trkpt lat="42.37643807015499" lon="12.274308162658288"><ele>387.0</ele><time>2026-05-01T11:56:57.001Z</time></trkpt><trkpt lat="42.37637951405154" lon="12.274002188256746"><ele>387.0</ele><time>2026-05-01T11:56:58.001Z</time></trkpt><trkpt lat="42.376306742055434" lon="12.273690721769348"><ele>387.0</ele><time>2026-05-01T11:56:59.001Z</time></trkpt><trkpt lat="42.37625269530553" lon="12.273373815073775"><ele>387.0</ele><time>2026-05-01T11:57:00.001Z</time></trkpt><trkpt lat="42.376204385661836" lon="12.273051486326537"><ele>387.0</ele><time>2026-05-01T11:57:01.001Z</time></trkpt><trkpt lat="42.37616681209747" lon="12.272720380886904"><ele>387.0</ele><time>2026-05-01T11:57:02.001Z</time></trkpt><trkpt lat="42.3761362172029" lon="12.272382830069487"><ele>388.5</ele><time>2026-05-01T11:57:03.001Z</time></trkpt><trkpt lat="42.376108702574825" lon="12.272032355487596"><ele>390.0</ele><time>2026-05-01T11:57:04.001Z</time></trkpt><trkpt lat="42.37608629865329" lon="12.271674160738574"><ele>391.0</ele><time>2026-05-01T11:57:05.001Z</time></trkpt><trkpt lat="42.37606477339082" lon="12.271312454708585"><ele>392.0</ele><time>2026-05-01T11:57:06.001Z</time></trkpt><trkpt lat="42.376042057381675" lon="12.270947056554318"><ele>393.5</ele><time>2026-05-01T11:57:07.001Z</time></trkpt><trkpt lat="42.37602378485654" lon="12.270578282086442"><ele>395.0</ele><time>2026-05-01T11:57:08.001Z</time></trkpt><trkpt lat="42.37599992883164" lon="12.270214294221923"><ele>395.0</ele><time>2026-05-01T11:57:09.001Z</time></trkpt><trkpt lat="42.37598766760019" lon="12.269864419619758"><ele>395.0</ele><time>2026-05-01T11:57:10.001Z</time></trkpt><trkpt lat="42.37598425924827" lon="12.269509190248451"><ele>395.5</ele><time>2026-05-01T11:57:11.001Z</time></trkpt><trkpt lat="42.375990174771154" lon="12.269153230538706"><ele>396.0</ele><time>2026-05-01T11:57:12Z</time></trkpt><trkpt lat="42.375998177846455" lon="12.26880228279251"><ele>396.5</ele><time>2026-05-01T11:57:13Z</time></trkpt><trkpt lat="42.37600607130302" lon="12.268451381523054"><ele>397.0</ele><time>2026-05-01T11:57:14Z</time></trkpt><trkpt lat="42.37602942855728" lon="12.268082506808287"><ele>397.0</ele><time>2026-05-01T11:57:15Z</time></trkpt><trkpt lat="42.376028150574406" lon="12.2677529691927"><ele>397.0</ele><time>2026-05-01T11:57:16Z</time></trkpt><trkpt lat="42.376038082074054" lon="12.26741180065581"><ele>397.0</ele><time>2026-05-01T11:57:17Z</time></trkpt><trkpt lat="42.37604691508596" lon="12.267064954963981"><ele>397.0</ele><time>2026-05-01T11:57:18Z</time></trkpt><trkpt lat="42.376057828139025" lon="12.266717955290733"><ele>397.5</ele><time>2026-05-01T11:57:19Z</time></trkpt><trkpt lat="42.37606170282678" lon="12.266368751855891"><ele>398.0</ele><time>2026-05-01T11:57:20Z</time></trkpt><trkpt lat="42.376056025046374" lon="12.266026413574423"><ele>398.0</ele><time>2026-05-01T11:57:21Z</time></trkpt><trkpt lat="42.37603153114348" lon="12.265690019746074"><ele>398.0</ele><time>2026-05-01T11:57:22Z</time></trkpt><trkpt lat="42.37599677812458" lon="12.265350420655407"><ele>399.5</ele><time>2026-05-01T11:57:23Z</time></trkpt><trkpt lat="42.375962854984984" lon="12.265018454099984"><ele>401.0</ele><time>2026-05-01T11:57:24Z</time></trkpt><trkpt lat="42.37593875459628" lon="12.264705592041636"><ele>401.0</ele><time>2026-05-01T11:57:25Z</time></trkpt><trkpt lat="42.37593351907893" lon="12.264393066059489"><ele>401.0</ele><time>2026-05-01T11:57:26Z</time></trkpt><trkpt lat="42.375937127073826" lon="12.264077325573354"><ele>401.3333333333333</ele><time>2026-05-01T11:57:27Z</time></trkpt><trkpt lat="42.37595184848037" lon="12.263780964542985"><ele>401.66666666666663</ele><time>2026-05-01T11:57:28Z</time></trkpt><trkpt lat="42.375988567294925" lon="12.263505628301024"><ele>402.0</ele><time>2026-05-01T11:57:29Z</time></trkpt><trkpt lat="42.37604749121247" lon="12.263241909478307"><ele>403.33333333333337</ele><time>2026-05-01T11:57:30Z</time></trkpt><trkpt lat="42.37612002584568" lon="12.262987438251633"><ele>404.6666666666667</ele><time>2026-05-01T11:57:31Z</time></trkpt><trkpt lat="42.37621128407586" lon="12.262747301725033"><ele>406.0</ele><time>2026-05-01T11:57:32Z</time></trkpt><trkpt lat="42.37632083467573" lon="12.262514978160658"><ele>407.6666666666667</ele><time>2026-05-01T11:57:33Z</time></trkpt><trkpt lat="42.376442992487696" lon="12.262292188291198"><ele>409.33333333333337</ele><time>2026-05-01T11:57:34Z</time></trkpt><trkpt lat="42.37657769306403" lon="12.262078882330817"><ele>411.0</ele><time>2026-05-01T11:57:35Z</time></trkpt><trkpt lat="42.376717223722935" lon="12.261871307529638"><ele>411.33333333333337</ele><time>2026-05-01T11:57:36Z</time></trkpt><trkpt lat="42.37685813605455" lon="12.261662809967973"><ele>411.6666666666667</ele><time>2026-05-01T11:57:37Z</time></trkpt><trkpt lat="42.37699896485049" lon="12.261450011913418"><ele>412.0</ele><time>2026-05-01T11:57:38Z</time></trkpt><trkpt lat="42.377135476945156" lon="12.26123975981076"><ele>414.33333333333337</ele><time>2026-05-01T11:57:39Z</time></trkpt><trkpt lat="42.37727174412077" lon="12.261041041567033"><ele>416.66666666666663</ele><time>2026-05-01T11:57:40Z</time></trkpt><trkpt lat="42.377398392937536" lon="12.260843823406168"><ele>419.0</ele><time>2026-05-01T11:57:41Z</time></trkpt><trkpt lat="42.377521393882844" lon="12.260632519329297"><ele>420.0</ele><time>2026-05-01T11:57:42Z</time></trkpt><trkpt lat="42.377628466789396" lon="12.260411377180326"><ele>421.0</ele><time>2026-05-01T11:57:43Z</time></trkpt><trkpt lat="42.37772984407491" lon="12.260172408521534"><ele>422.0</ele><time>2026-05-01T11:57:44Z</time></trkpt><trkpt lat="42.3778152612355" lon="12.259916702312886"><ele>422.3333333333333</ele><time>2026-05-01T11:57:45Z</time></trkpt><trkpt lat="42.37789853457566" lon="12.25965716121592"><ele>422.66666666666663</ele><time>2026-05-01T11:57:46Z</time></trkpt><trkpt lat="42.377981156734705" lon="12.259392435616043"><ele>423.0</ele><time>2026-05-01T11:57:47Z</time></trkpt><trkpt lat="42.3780615407743" lon="12.259141093851587"><ele>424.66666666666663</ele><time>2026-05-01T11:57:48Z</time></trkpt><trkpt lat="42.37814707810332" lon="12.258892522676982"><ele>426.3333333333333</ele><time>2026-05-01T11:57:49Z</time></trkpt><trkpt lat="42.37824043597882" lon="12.25864094164555"><ele>428.0</ele><time>2026-05-01T11:57:50Z</time></trkpt><trkpt lat="42.3783474287916" lon="12.258396725411805"><ele>428.0</ele><time>2026-05-01T11:57:51Z</time></trkpt><trkpt lat="42.37846748708694" lon="12.258163043198628"><ele>428.0</ele><time>2026-05-01T11:57:52Z</time></trkpt><trkpt lat="42.37860278605986" lon="12.257935466077587"><ele>428.0</ele><time>2026-05-01T11:57:53Z</time></trkpt><trkpt lat="42.378749113057125" lon="12.257721030820198"><ele>421.0</ele><time>2026-05-01T11:57:54Z</time></trkpt><trkpt lat="42.378904966809216" lon="12.257508269992185"><ele>414.0</ele><time>2026-05-01T11:57:55Z</time></trkpt><trkpt lat="42.379063506127494" lon="12.257297405522873"><ele>407.0</ele><time>2026-05-01T11:57:56Z</time></trkpt><trkpt lat="42.379224800718895" lon="12.257080430301755"><ele>404.5</ele><time>2026-05-01T11:57:57Z</time></trkpt><trkpt lat="42.379390703005704" lon="12.256856371281605"><ele>402.0</ele><time>2026-05-01T11:57:58Z</time></trkpt><trkpt lat="42.37955900759288" lon="12.256628551969175"><ele>413.5</ele><time>2026-05-01T11:57:59Z</time></trkpt><trkpt lat="42.37972917519287" lon="12.25639796766076"><ele>425.0</ele><time>2026-05-01T11:58:00Z</time></trkpt><trkpt lat="42.37989702735737" lon="12.256164497726038"><ele>425.0</ele><time>2026-05-01T11:58:01Z</time></trkpt><trkpt lat="42.38006253372752" lon="12.255936186788668"><ele>425.0</ele><time>2026-05-01T11:58:02Z</time></trkpt><trkpt lat="42.38023816134727" lon="12.255720886464083"><ele>430.0</ele><time>2026-05-01T11:58:03Z</time></trkpt><trkpt lat="42.38041469838027" lon="12.255520525974651"><ele>435.0</ele><time>2026-05-01T11:58:04Z</time></trkpt><trkpt lat="42.38060104247652" lon="12.25533297750314"><ele>436.0</ele><time>2026-05-01T11:58:05Z</time></trkpt><trkpt lat="42.3807979738888" lon="12.255173248838277"><ele>437.0</ele><time>2026-05-01T11:58:06Z</time></trkpt><trkpt lat="42.380999001492285" lon="12.255019985892009"><ele>437.0</ele><time>2026-05-01T11:58:07Z</time></trkpt><trkpt lat="42.38119564452177" lon="12.254885174463187"><ele>437.0</ele><time>2026-05-01T11:58:08Z</time></trkpt><trkpt lat="42.38137680289336" lon="12.254745729338072"><ele>437.0</ele><time>2026-05-01T11:58:09Z</time></trkpt><trkpt lat="42.38154611007741" lon="12.254587584561412"><ele>437.66666666666663</ele><time>2026-05-01T11:58:10Z</time></trkpt><trkpt lat="42.38169955748978" lon="12.254409790118537"><ele>438.33333333333337</ele><time>2026-05-01T11:58:11Z</time></trkpt><trkpt lat="42.38181956090111" lon="12.254203067358047"><ele>439.0</ele><time>2026-05-01T11:58:12Z</time></trkpt><trkpt lat="42.38191896444023" lon="12.253979320225968"><ele>441.6666666666667</ele><time>2026-05-01T11:58:13Z</time></trkpt><trkpt lat="42.38200352917033" lon="12.253729602665667"><ele>444.33333333333337</ele><time>2026-05-01T11:58:14Z</time></trkpt><trkpt lat="42.38207387067228" lon="12.253471297616361"><ele>447.0</ele><time>2026-05-01T11:58:15Z</time></trkpt><trkpt lat="42.38214174168746" lon="12.253204450366809"><ele>444.33333333333337</ele><time>2026-05-01T11:58:16Z</time></trkpt><trkpt lat="42.38222778435086" lon="12.252952346440411"><ele>441.6666666666667</ele><time>2026-05-01T11:58:17Z</time></trkpt><trkpt lat="42.38229476670097" lon="12.25271755084084"><ele>439.0</ele><time>2026-05-01T11:58:18Z</time></trkpt><trkpt lat="42.38236132185784" lon="12.252506183141067"><ele>439.0</ele><time>2026-05-01T11:58:19Z</time></trkpt><trkpt lat="42.382425277505746" lon="12.252299889440891"><ele>439.0</ele><time>2026-05-01T11:58:20Z</time></trkpt><trkpt lat="42.38251324967847" lon="12.25212928098797"><ele>439.0</ele><time>2026-05-01T11:58:21Z</time></trkpt><trkpt lat="42.382617280910594" lon="12.25198686523747"><ele>439.33333333333337</ele><time>2026-05-01T11:58:22Z</time></trkpt><trkpt lat="42.38273327992471" lon="12.251859258814163"><ele>439.66666666666663</ele><time>2026-05-01T11:58:23Z</time></trkpt><trkpt lat="42.38286662193829" lon="12.25174722873825"><ele>440.0</ele><time>2026-05-01T11:58:24Z</time></trkpt><trkpt lat="42.383014639427934" lon="12.251651050568542"><ele>439.5</ele><time>2026-05-01T11:58:25Z</time></trkpt><trkpt lat="42.38317464092368" lon="12.251591079396382"><ele>439.0</ele><time>2026-05-01T11:58:26Z</time></trkpt><trkpt lat="42.38332096339764" lon="12.25156902700471"><ele>438.5</ele><time>2026-05-01T11:58:27Z</time></trkpt><trkpt lat="42.383450854024595" lon="12.251573419360877"><ele>438.0</ele><time>2026-05-01T11:58:28Z</time></trkpt><trkpt lat="42.38356159506414" lon="12.251616022927097"><ele>438.0</ele><time>2026-05-01T11:58:29Z</time></trkpt><trkpt lat="42.38365745322411" lon="12.251686104363294"><ele>437.99999999999994</ele><time>2026-05-01T11:58:30Z</time></trkpt><trkpt lat="42.38375679055062" lon="12.251735799022438"><ele>437.99999999999994</ele><time>2026-05-01T11:58:31Z</time></trkpt><trkpt lat="42.38386705805522" lon="12.251706833256156"><ele>438.0</ele><time>2026-05-01T11:58:32Z</time></trkpt><trkpt lat="42.38397405148041" lon="12.25163509426387"><ele>438.0</ele><time>2026-05-01T11:58:33Z</time></trkpt><trkpt lat="42.384094139499055" lon="12.251576521172407"><ele>439.0</ele><time>2026-05-01T11:58:34Z</time></trkpt><trkpt lat="42.38423905645221" lon="12.251574505606458"><ele>440.0</ele><time>2026-05-01T11:58:35Z</time></trkpt><trkpt lat="42.38439013122256" lon="12.251580230034332"><ele>441.0</ele><time>2026-05-01T11:58:36Z</time></trkpt><trkpt lat="42.38455540822803" lon="12.251582601645024"><ele>442.0</ele><time>2026-05-01T11:58:37Z</time></trkpt><trkpt lat="42.38473535154391" lon="12.251585092306318"><ele>443.0</ele><time>2026-05-01T11:58:38Z</time></trkpt><trkpt lat="42.384921557331516" lon="12.251575722738039"><ele>444.0</ele><time>2026-05-01T11:58:39Z</time></trkpt><trkpt lat="42.3851092953873" lon="12.251552357774614"><ele>444.0</ele><time>2026-05-01T11:58:40Z</time></trkpt><trkpt lat="42.38529417437881" lon="12.251504363954165"><ele>444.0</ele><time>2026-05-01T11:58:41Z</time></trkpt><trkpt lat="42.38546826515205" lon="12.251430615572078"><ele>444.0</ele><time>2026-05-01T11:58:42Z</time></trkpt><trkpt lat="42.38563324154912" lon="12.251330217685037"><ele>443.33333333333337</ele><time>2026-05-01T11:58:43Z</time></trkpt><trkpt lat="42.3858005002366" lon="12.251206603830724"><ele>442.6666666666667</ele><time>2026-05-01T11:58:44Z</time></trkpt><trkpt lat="42.38597516378547" lon="12.251071725427972"><ele>442.0</ele><time>2026-05-01T11:58:45Z</time></trkpt><trkpt lat="42.386162554842194" lon="12.250923036251885"><ele>438.5</ele><time>2026-05-01T11:58:46Z</time></trkpt><trkpt lat="42.38636461741149" lon="12.250785641933701"><ele>435.0</ele><time>2026-05-01T11:58:47Z</time></trkpt><trkpt lat="42.38658604209988" lon="12.250659853906177"><ele>431.0</ele><time>2026-05-01T11:58:48Z</time></trkpt><trkpt lat="42.38682832296038" lon="12.25053278146603"><ele>427.0</ele><time>2026-05-01T11:58:49Z</time></trkpt><trkpt lat="42.38707932282372" lon="12.250415243032279"><ele>414.0</ele><time>2026-05-01T11:58:50Z</time></trkpt><trkpt lat="42.38731846667119" lon="12.25030544906685"><ele>401.0</ele><time>2026-05-01T11:58:51.001Z</time></trkpt><trkpt lat="42.38754147565664" lon="12.250200061598099"><ele>401.0</ele><time>2026-05-01T11:58:52.001Z</time></trkpt><trkpt lat="42.38776271430343" lon="12.250088314394997"><ele>401.0</ele><time>2026-05-01T11:58:53.001Z</time></trkpt><trkpt lat="42.387986150921805" lon="12.249975103861775"><ele>407.5</ele><time>2026-05-01T11:58:54.001Z</time></trkpt><trkpt lat="42.38820689413992" lon="12.249866503117747"><ele>414.0</ele><time>2026-05-01T11:58:55.001Z</time></trkpt><trkpt lat="42.38843066937538" lon="12.249776293053305"><ele>414.5</ele><time>2026-05-01T11:58:56.001Z</time></trkpt><trkpt lat="42.388648783776105" lon="12.249676401851618"><ele>415.0</ele><time>2026-05-01T11:58:57.001Z</time></trkpt><trkpt lat="42.38885798881971" lon="12.249560461062186"><ele>420.6666666666667</ele><time>2026-05-01T11:58:58.001Z</time></trkpt><trkpt lat="42.38906262890494" lon="12.24943088393552"><ele>426.33333333333337</ele><time>2026-05-01T11:58:59.001Z</time></trkpt><trkpt lat="42.38925220629242" lon="12.249279003280249"><ele>432.0</ele><time>2026-05-01T11:59:00.001Z</time></trkpt><trkpt lat="42.38941920903318" lon="12.249112341737893"><ele>430.0</ele><time>2026-05-01T11:59:01.001Z</time></trkpt><trkpt lat="42.38954777355726" lon="12.248931623393137"><ele>428.0</ele><time>2026-05-01T11:59:02.001Z</time></trkpt><trkpt lat="42.38964750517331" lon="12.248739492468205"><ele>426.0</ele><time>2026-05-01T11:59:03.001Z</time></trkpt><trkpt lat="42.38972176722747" lon="12.248525103113517"><ele>430.66666666666663</ele><time>2026-05-01T11:59:04.001Z</time></trkpt><trkpt lat="42.3897669189784" lon="12.24829953828476"><ele>435.3333333333333</ele><time>2026-05-01T11:59:05.001Z</time></trkpt><trkpt lat="42.389785584980686" lon="12.248060880001223"><ele>440.0</ele><time>2026-05-01T11:59:06.001Z</time></trkpt><trkpt lat="42.389779291862595" lon="12.247813722630308"><ele>440.3333333333333</ele><time>2026-05-01T11:59:07.001Z</time></trkpt><trkpt lat="42.38975522064836" lon="12.247560139915008"><ele>440.66666666666663</ele><time>2026-05-01T11:59:08.001Z</time></trkpt><trkpt lat="42.38969733040865" lon="12.247299611000354"><ele>441.0</ele><time>2026-05-01T11:59:09.001Z</time></trkpt><trkpt lat="42.38963881781169" lon="12.247037773975372"><ele>443.66666666666663</ele><time>2026-05-01T11:59:10.001Z</time></trkpt><trkpt lat="42.38955241956129" lon="12.24677426032338"><ele>446.3333333333333</ele><time>2026-05-01T11:59:11.001Z</time></trkpt><trkpt lat="42.389485498018665" lon="12.246493696599327"><ele>449.0</ele><time>2026-05-01T11:59:12.001Z</time></trkpt><trkpt lat="42.38939689266813" lon="12.246214769956655"><ele>452.0</ele><time>2026-05-01T11:59:13.001Z</time></trkpt><trkpt lat="42.3893091035324" lon="12.245921563677655"><ele>455.0</ele><time>2026-05-01T11:59:14.001Z</time></trkpt><trkpt lat="42.389226547765176" lon="12.245640739300415"><ele>457.66666666666663</ele><time>2026-05-01T11:59:15.001Z</time></trkpt><trkpt lat="42.38915387203212" lon="12.245357154056476"><ele>460.33333333333337</ele><time>2026-05-01T11:59:16.001Z</time></trkpt><trkpt lat="42.38909117101026" lon="12.245084196298627"><ele>463.0</ele><time>2026-05-01T11:59:17.001Z</time></trkpt><trkpt lat="42.38908344966467" lon="12.244823362659561"><ele>465.0</ele><time>2026-05-01T11:59:18Z</time></trkpt><trkpt lat="42.38908842177555" lon="12.244579321524824"><ele>467.0</ele><time>2026-05-01T11:59:19Z</time></trkpt><trkpt lat="42.389120757422575" lon="12.244340240270216"><ele>469.0</ele><time>2026-05-01T11:59:20Z</time></trkpt><trkpt lat="42.38917464814353" lon="12.244114886848346"><ele>470.0</ele><time>2026-05-01T11:59:21Z</time></trkpt><trkpt lat="42.38924603577291" lon="12.24389512071059"><ele>471.0</ele><time>2026-05-01T11:59:22Z</time></trkpt><trkpt lat="42.38932961226211" lon="12.24367935603822"><ele>472.0</ele><time>2026-05-01T11:59:23Z</time></trkpt><trkpt lat="42.389425474470755" lon="12.243461922480556"><ele>472.0</ele><time>2026-05-01T11:59:24Z</time></trkpt><trkpt lat="42.38952688870336" lon="12.243243420251945"><ele>472.0</ele><time>2026-05-01T11:59:25Z</time></trkpt><trkpt lat="42.38963292822975" lon="12.243015649537229"><ele>472.0</ele><time>2026-05-01T11:59:26Z</time></trkpt><trkpt lat="42.38972261481301" lon="12.242766992158401"><ele>472.33333333333337</ele><time>2026-05-01T11:59:27Z</time></trkpt><trkpt lat="42.38980855030129" lon="12.242536443056608"><ele>472.66666666666663</ele><time>2026-05-01T11:59:28Z</time></trkpt><trkpt lat="42.389872213145445" lon="12.242299655621702"><ele>473.0</ele><time>2026-05-01T11:59:29Z</time></trkpt><trkpt lat="42.389907285009905" lon="12.242052357503015"><ele>473.0</ele><time>2026-05-01T11:59:30Z</time></trkpt><trkpt lat="42.389915711115286" lon="12.241805195130107"><ele>473.0</ele><time>2026-05-01T11:59:31Z</time></trkpt><trkpt lat="42.389891965936386" lon="12.241556507009811"><ele>473.0</ele><time>2026-05-01T11:59:32Z</time></trkpt><trkpt lat="42.389842185861404" lon="12.241309522267263"><ele>473.3333333333333</ele><time>2026-05-01T11:59:33Z</time></trkpt><trkpt lat="42.389784502634434" lon="12.24106172766474"><ele>473.66666666666663</ele><time>2026-05-01T11:59:34Z</time></trkpt><trkpt lat="42.389722115393845" lon="12.24081158542713"><ele>474.0</ele><time>2026-05-01T11:59:35Z</time></trkpt><trkpt lat="42.389657445016134" lon="12.240563434538588"><ele>478.66666666666663</ele><time>2026-05-01T11:59:36Z</time></trkpt><trkpt lat="42.38957459651106" lon="12.240319493986245"><ele>483.3333333333333</ele><time>2026-05-01T11:59:37Z</time></trkpt><trkpt lat="42.38947183135931" lon="12.240097663786486"><ele>488.0</ele><time>2026-05-01T11:59:38Z</time></trkpt><trkpt lat="42.38932270646025" lon="12.239911504261693"><ele>489.0</ele><time>2026-05-01T11:59:39Z</time></trkpt><trkpt lat="42.3891724384618" lon="12.239754792442897"><ele>490.0</ele><time>2026-05-01T11:59:40Z</time></trkpt><trkpt lat="42.3890037849933" lon="12.23963164400701"><ele>491.0</ele><time>2026-05-01T11:59:41Z</time></trkpt><trkpt lat="42.38882346390826" lon="12.239543700982583"><ele>493.3333333333333</ele><time>2026-05-01T11:59:42Z</time></trkpt><trkpt lat="42.388634299919595" lon="12.239479385254272"><ele>495.66666666666663</ele><time>2026-05-01T11:59:43Z</time></trkpt><trkpt lat="42.38843707925117" lon="12.239426464041555"><ele>498.0</ele><time>2026-05-01T11:59:44Z</time></trkpt><trkpt lat="42.38823419995737" lon="12.239374424424494"><ele>498.0</ele><time>2026-05-01T11:59:45Z</time></trkpt><trkpt lat="42.38804053642895" lon="12.239303569304322"><ele>498.0</ele><time>2026-05-01T11:59:46Z</time></trkpt><trkpt lat="42.38786603907799" lon="12.239181679850141"><ele>498.0</ele><time>2026-05-01T11:59:47Z</time></trkpt><trkpt lat="42.38771090746211" lon="12.239063563715499"><ele>501.0</ele><time>2026-05-01T11:59:48Z</time></trkpt><trkpt lat="42.38758833878947" lon="12.238929239998573"><ele>504.0</ele><time>2026-05-01T11:59:49Z</time></trkpt><trkpt lat="42.387482112243354" lon="12.238767539041918"><ele>507.0</ele><time>2026-05-01T11:59:50Z</time></trkpt><trkpt lat="42.3873866546149" lon="12.238572441271588"><ele>507.0</ele><time>2026-05-01T11:59:51Z</time></trkpt><trkpt lat="42.38731214182344" lon="12.238352558303758"><ele>507.0</ele><time>2026-05-01T11:59:52Z</time></trkpt><trkpt lat="42.387273772337586" lon="12.238116754758337"><ele>507.0</ele><time>2026-05-01T11:59:53Z</time></trkpt><trkpt lat="42.38726185317796" lon="12.237871546627407"><ele>510.66666666666663</ele><time>2026-05-01T11:59:54Z</time></trkpt><trkpt lat="42.38727691600548" lon="12.23762085696366"><ele>514.3333333333333</ele><time>2026-05-01T11:59:55Z</time></trkpt><trkpt lat="42.387310107949844" lon="12.237362135813333"><ele>518.0</ele><time>2026-05-01T11:59:56Z</time></trkpt><trkpt lat="42.38733885359979" lon="12.23709564300773"><ele>521.6666666666666</ele><time>2026-05-01T11:59:57Z</time></trkpt><trkpt lat="42.38737958292196" lon="12.236832127545751"><ele>525.3333333333334</ele><time>2026-05-01T11:59:58Z</time></trkpt><trkpt lat="42.387403251516226" lon="12.236573627777167"><ele>529.0</ele><time>2026-05-01T11:59:59Z</time></trkpt><trkpt lat="42.387400393179234" lon="12.236313167476855"><ele>529.3333333333334</ele><time>2026-05-01T12:00:00Z</time></trkpt><trkpt lat="42.387370527102064" lon="12.23604736561091"><ele>529.6666666666666</ele><time>2026-05-01T12:00:01Z</time></trkpt><trkpt lat="42.38731403535473" lon="12.2358028192578"><ele>530.0</ele><time>2026-05-01T12:00:02Z</time></trkpt><trkpt lat="42.387236687117074" lon="12.23554913401748"><ele>534.6666666666666</ele><time>2026-05-01T12:00:03Z</time></trkpt><trkpt lat="42.38715024099771" lon="12.235287789193954"><ele>539.3333333333334</ele><time>2026-05-01T12:00:04Z</time></trkpt><trkpt lat="42.387078935107006" lon="12.235018600590076"><ele>544.0</ele><time>2026-05-01T12:00:05Z</time></trkpt><trkpt lat="42.38703981166341" lon="12.234756015337936"><ele>544.0</ele><time>2026-05-01T12:00:06Z</time></trkpt><trkpt lat="42.387015251005714" lon="12.234500579899551"><ele>544.0</ele><time>2026-05-01T12:00:07Z</time></trkpt><trkpt lat="42.387027352745584" lon="12.234236063882202"><ele>544.0</ele><time>2026-05-01T12:00:08Z</time></trkpt><trkpt lat="42.38709194623523" lon="12.233973370515388"><ele>543.0</ele><time>2026-05-01T12:00:09Z</time></trkpt><trkpt lat="42.38715904661958" lon="12.233703108609397"><ele>542.0</ele><time>2026-05-01T12:00:10Z</time></trkpt><trkpt lat="42.387224155669145" lon="12.233422430800234"><ele>541.0</ele><time>2026-05-01T12:00:11Z</time></trkpt><trkpt lat="42.38731077790548" lon="12.233150488486071"><ele>542.0</ele><time>2026-05-01T12:00:12Z</time></trkpt><trkpt lat="42.387385423854525" lon="12.232887568628017"><ele>543.0</ele><time>2026-05-01T12:00:13Z</time></trkpt><trkpt lat="42.38743682234555" lon="12.232640562290985"><ele>544.0</ele><time>2026-05-01T12:00:14Z</time></trkpt><trkpt lat="42.38746331184329" lon="12.232388302860658"><ele>542.3333333333334</ele><time>2026-05-01T12:00:15Z</time></trkpt><trkpt lat="42.38745566462207" lon="12.232125043414968"><ele>540.6666666666666</ele><time>2026-05-01T12:00:16Z</time></trkpt><trkpt lat="42.38742498688363" lon="12.231863545487888"><ele>539.0</ele><time>2026-05-01T12:00:17Z</time></trkpt><trkpt lat="42.387369638408764" lon="12.231602437829483"><ele>540.0</ele><time>2026-05-01T12:00:18Z</time></trkpt><trkpt lat="42.3872825307608" lon="12.231349319161577"><ele>541.0</ele><time>2026-05-01T12:00:19Z</time></trkpt><trkpt lat="42.38718647873045" lon="12.231079700748538"><ele>542.0</ele><time>2026-05-01T12:00:20Z</time></trkpt><trkpt lat="42.387086162909966" lon="12.23079864599278"><ele>545.5</ele><time>2026-05-01T12:00:21Z</time></trkpt><trkpt lat="42.386984966396454" lon="12.230513720866993"><ele>549.0</ele><time>2026-05-01T12:00:22Z</time></trkpt><trkpt lat="42.38690816969207" lon="12.230229376601292"><ele>549.0</ele><time>2026-05-01T12:00:23Z</time></trkpt><trkpt lat="42.386830545471874" lon="12.22995691057412"><ele>549.0</ele><time>2026-05-01T12:00:24Z</time></trkpt><trkpt lat="42.38675869737507" lon="12.229685426652892"><ele>549.0</ele><time>2026-05-01T12:00:25Z</time></trkpt><trkpt lat="42.3867515331616" lon="12.229388907226273"><ele>549.6666666666666</ele><time>2026-05-01T12:00:26Z</time></trkpt><trkpt lat="42.38675509112224" lon="12.22909184104992"><ele>550.3333333333333</ele><time>2026-05-01T12:00:27Z</time></trkpt><trkpt lat="42.38677226679744" lon="12.228784292803672"><ele>551.0</ele><time>2026-05-01T12:00:28Z</time></trkpt><trkpt lat="42.38679344213663" lon="12.228472258458595"><ele>554.5</ele><time>2026-05-01T12:00:29Z</time></trkpt><trkpt lat="42.38679969101456" lon="12.228152582945663"><ele>558.0</ele><time>2026-05-01T12:00:30Z</time></trkpt><trkpt lat="42.38680251709202" lon="12.227840035246263"><ele>561.5</ele><time>2026-05-01T12:00:31Z</time></trkpt><trkpt lat="42.38677887677781" lon="12.227528561644741"><ele>565.0</ele><time>2026-05-01T12:00:32Z</time></trkpt><trkpt lat="42.3867411663623" lon="12.227220587150148"><ele>566.3333333333334</ele><time>2026-05-01T12:00:33Z</time></trkpt><trkpt lat="42.3866923481279" lon="12.22693177540543"><ele>567.6666666666666</ele><time>2026-05-01T12:00:34Z</time></trkpt><trkpt lat="42.38664659096774" lon="12.22667722331022"><ele>569.0</ele><time>2026-05-01T12:00:35Z</time></trkpt><trkpt lat="42.38661074379552" lon="12.226454910765336"><ele>569.5</ele><time>2026-05-01T12:00:36Z</time></trkpt><trkpt lat="42.38658550680441" lon="12.226261377026635"><ele>570.0</ele><time>2026-05-01T12:00:37Z</time></trkpt><trkpt lat="42.38657454598123" lon="12.226077350620047"><ele>570.5</ele><time>2026-05-01T12:00:38Z</time></trkpt><trkpt lat="42.38654643435255" lon="12.225906453217428"><ele>571.0</ele><time>2026-05-01T12:00:39Z</time></trkpt><trkpt lat="42.38652951925721" lon="12.225741949853612"><ele>571.3333333333334</ele><time>2026-05-01T12:00:40Z</time></trkpt><trkpt lat="42.38651981865252" lon="12.225557715416999"><ele>571.6666666666666</ele><time>2026-05-01T12:00:41Z</time></trkpt><trkpt lat="42.38648672901767" lon="12.225358235744526"><ele>572.0</ele><time>2026-05-01T12:00:42Z</time></trkpt><trkpt lat="42.38642069583931" lon="12.225140757538503"><ele>571.3333333333333</ele><time>2026-05-01T12:00:43Z</time></trkpt><trkpt lat="42.386313904171374" lon="12.224923651712439"><ele>570.6666666666666</ele><time>2026-05-01T12:00:44Z</time></trkpt><trkpt lat="42.38620393027174" lon="12.224694294187584"><ele>570.0</ele><time>2026-05-01T12:00:45Z</time></trkpt><trkpt lat="42.38604771723647" lon="12.22450032587151"><ele>572.3333333333334</ele><time>2026-05-01T12:00:46Z</time></trkpt><trkpt lat="42.38589400829463" lon="12.224295383573244"><ele>574.6666666666667</ele><time>2026-05-01T12:00:47Z</time></trkpt><trkpt lat="42.385732460928445" lon="12.224101020498281"><ele>577.0</ele><time>2026-05-01T12:00:48Z</time></trkpt><trkpt lat="42.38556805831836" lon="12.223904912456959"><ele>579.3333333333334</ele><time>2026-05-01T12:00:49Z</time></trkpt><trkpt lat="42.3854226968634" lon="12.223710279549046"><ele>581.6666666666666</ele><time>2026-05-01T12:00:50.001Z</time></trkpt><trkpt lat="42.38528373630314" lon="12.223541581363529"><ele>584.0</ele><time>2026-05-01T12:00:51.001Z</time></trkpt><trkpt lat="42.38517185444312" lon="12.223403211894203"><ele>584.0</ele><time>2026-05-01T12:00:52.001Z</time></trkpt><trkpt lat="42.38506708642403" lon="12.223282058820075"><ele>584.0</ele><time>2026-05-01T12:00:53.001Z</time></trkpt><trkpt lat="42.38494735548469" lon="12.22318240685776"><ele>584.0</ele><time>2026-05-01T12:00:54.001Z</time></trkpt><trkpt lat="42.384817072412815" lon="12.223057419274289"><ele>584.0</ele><time>2026-05-01T12:00:55.001Z</time></trkpt><trkpt lat="42.38468903984775" lon="12.222978899683119"><ele>589.3333333333333</ele><time>2026-05-01T12:00:56.001Z</time></trkpt><trkpt lat="42.38452802279729" lon="12.222919700047244"><ele>594.6666666666666</ele><time>2026-05-01T12:00:57.001Z</time></trkpt><trkpt lat="42.38435287100175" lon="12.222871197985045"><ele>600.0</ele><time>2026-05-01T12:00:58.001Z</time></trkpt><trkpt lat="42.38418839368228" lon="12.222842005214718"><ele>600.0</ele><time>2026-05-01T12:00:59.001Z</time></trkpt><trkpt lat="42.38403074567828" lon="12.222799267133574"><ele>600.0</ele><time>2026-05-01T12:01:00.001Z</time></trkpt><trkpt lat="42.38387444885178" lon="12.222763681199808"><ele>600.0</ele><time>2026-05-01T12:01:01.001Z</time></trkpt><trkpt lat="42.383721383189425" lon="12.222732718365442"><ele>598.75</ele><time>2026-05-01T12:01:02.001Z</time></trkpt><trkpt lat="42.38357616210745" lon="12.222703062751465"><ele>597.5</ele><time>2026-05-01T12:01:03.001Z</time></trkpt><trkpt lat="42.383444337823484" lon="12.222664176437013"><ele>596.25</ele><time>2026-05-01T12:01:04.001Z</time></trkpt><trkpt lat="42.383319834956964" lon="12.222555058685051"><ele>595.0</ele><time>2026-05-01T12:01:05.001Z</time></trkpt><trkpt lat="42.38321946263861" lon="12.222450999606416"><ele>596.6666666666667</ele><time>2026-05-01T12:01:06.001Z</time></trkpt><trkpt lat="42.38312766779737" lon="12.22229779766586"><ele>598.3333333333334</ele><time>2026-05-01T12:01:07.001Z</time></trkpt><trkpt lat="42.383053933352336" lon="12.222118199733234"><ele>600.0</ele><time>2026-05-01T12:01:08.001Z</time></trkpt><trkpt lat="42.382996514564475" lon="12.221916701426103"><ele>600.0</ele><time>2026-05-01T12:01:09.001Z</time></trkpt><trkpt lat="42.382933095028015" lon="12.221719416949233"><ele>600.0</ele><time>2026-05-01T12:01:10.001Z</time></trkpt><trkpt lat="42.38288870588122" lon="12.22152440474214"><ele>600.0</ele><time>2026-05-01T12:01:11.001Z</time></trkpt><trkpt lat="42.382829349777516" lon="12.221363803126291"><ele>600.0</ele><time>2026-05-01T12:01:12.001Z</time></trkpt><trkpt lat="42.38274070020119" lon="12.221239525399945"><ele>606.25</ele><time>2026-05-01T12:01:13.001Z</time></trkpt><trkpt lat="42.38263448816709" lon="12.221154502802396"><ele>612.5</ele><time>2026-05-01T12:01:14.001Z</time></trkpt><trkpt lat="42.38252203125419" lon="12.22108970787072"><ele>618.75</ele><time>2026-05-01T12:01:15.001Z</time></trkpt><trkpt lat="42.38236913887671" lon="12.220970979700267"><ele>625.0</ele><time>2026-05-01T12:01:16.001Z</time></trkpt><trkpt lat="42.382245103997114" lon="12.22088319958595"><ele>625.0</ele><time>2026-05-01T12:01:17.001Z</time></trkpt><trkpt lat="42.38213476326605" lon="12.220797877634181"><ele>625.0</ele><time>2026-05-01T12:01:18.001Z</time></trkpt><trkpt lat="42.382036631503865" lon="12.220692992782897"><ele>625.0</ele><time>2026-05-01T12:01:19.001Z</time></trkpt><trkpt lat="42.38195102482308" lon="12.220568239909596"><ele>625.0</ele><time>2026-05-01T12:01:20.001Z</time></trkpt><trkpt lat="42.381893651697" lon="12.220422530064905"><ele>625.0</ele><time>2026-05-01T12:01:21.001Z</time></trkpt><trkpt lat="42.38184969188022" lon="12.220261051791699"><ele>625.0</ele><time>2026-05-01T12:01:22.001Z</time></trkpt><trkpt lat="42.381812019194825" lon="12.22009730650203"><ele>625.0</ele><time>2026-05-01T12:01:23.001Z</time></trkpt><trkpt lat="42.381778529023165" lon="12.219941087565264"><ele>625.0</ele><time>2026-05-01T12:01:24Z</time></trkpt><trkpt lat="42.38173462470408" lon="12.219806939681224"><ele>625.0</ele><time>2026-05-01T12:01:25Z</time></trkpt><trkpt lat="42.38171187078542" lon="12.219694683453847"><ele>625.0</ele><time>2026-05-01T12:01:26Z</time></trkpt><trkpt lat="42.381663620581186" lon="12.219613934806729"><ele>625.0</ele><time>2026-05-01T12:01:27Z</time></trkpt><trkpt lat="42.38158342760587" lon="12.219587078337224"><ele>625.0</ele><time>2026-05-01T12:01:28Z</time></trkpt><trkpt lat="42.38150134246401" lon="12.219586073412408"><ele>625.0</ele><time>2026-05-01T12:01:29Z</time></trkpt><trkpt lat="42.38141509041928" lon="12.219702979541331"><ele>625.0</ele><time>2026-05-01T12:01:30Z</time></trkpt><trkpt lat="42.38134901596611" lon="12.21984288145286"><ele>625.0</ele><time>2026-05-01T12:01:31Z</time></trkpt><trkpt lat="42.38131487995442" lon="12.220008718633672"><ele>625.0</ele><time>2026-05-01T12:01:32Z</time></trkpt><trkpt lat="42.38130339409857" lon="12.220197676223208"><ele>625.0</ele><time>2026-05-01T12:01:33Z</time></trkpt><trkpt lat="42.3813194898801" lon="12.220383658469403"><ele>625.0</ele><time>2026-05-01T12:01:34Z</time></trkpt><trkpt lat="42.38136009998631" lon="12.220595547655583"><ele>624.3333333333334</ele><time>2026-05-01T12:01:35Z</time></trkpt><trkpt lat="42.38138142077735" lon="12.22088158413393"><ele>623.6666666666666</ele><time>2026-05-01T12:01:36Z</time></trkpt><trkpt lat="42.38142198981277" lon="12.221139742438078"><ele>623.0</ele><time>2026-05-01T12:01:37Z</time></trkpt><trkpt lat="42.38143358825271" lon="12.221368814554943"><ele>623.4</ele><time>2026-05-01T12:01:38Z</time></trkpt><trkpt lat="42.381449748347954" lon="12.22155088094852"><ele>623.8</ele><time>2026-05-01T12:01:39Z</time></trkpt><trkpt lat="42.38143451365378" lon="12.221691726753978"><ele>624.2</ele><time>2026-05-01T12:01:40Z</time></trkpt><trkpt lat="42.38136961162832" lon="12.221799325326387"><ele>624.6</ele><time>2026-05-01T12:01:41Z</time></trkpt><trkpt lat="42.381281949266445" lon="12.221805554371011"><ele>625.0</ele><time>2026-05-01T12:01:42Z</time></trkpt><trkpt lat="42.381215133088126" lon="12.221711434666789"><ele>625.0</ele><time>2026-05-01T12:01:43Z</time></trkpt><trkpt lat="42.38119137846588" lon="12.221555835745335"><ele>625.0</ele><time>2026-05-01T12:01:44Z</time></trkpt><trkpt lat="42.381139419527116" lon="12.221412925370897"><ele>625.0</ele><time>2026-05-01T12:01:45Z</time></trkpt><trkpt lat="42.38108075587633" lon="12.22124114141665"><ele>625.0</ele><time>2026-05-01T12:01:46Z</time></trkpt><trkpt lat="42.3809897195297" lon="12.221072518111473"><ele>628.3333333333334</ele><time>2026-05-01T12:01:47Z</time></trkpt><trkpt lat="42.38087929378704" lon="12.220905139109522"><ele>631.6666666666666</ele><time>2026-05-01T12:01:48Z</time></trkpt><trkpt lat="42.380750401037446" lon="12.22073418394487"><ele>635.0</ele><time>2026-05-01T12:01:49Z</time></trkpt><trkpt lat="42.38063717584417" lon="12.220536135528025"><ele>637.3333333333333</ele><time>2026-05-01T12:01:50Z</time></trkpt><trkpt lat="42.38050871576629" lon="12.220341079477553"><ele>639.6666666666666</ele><time>2026-05-01T12:01:51Z</time></trkpt><trkpt lat="42.38036231678661" lon="12.220158525182066"><ele>642.0</ele><time>2026-05-01T12:01:52Z</time></trkpt><trkpt lat="42.380212568147876" lon="12.219986349763971"><ele>642.0</ele><time>2026-05-01T12:01:53Z</time></trkpt><trkpt lat="42.38008006980525" lon="12.21984323078962"><ele>642.0</ele><time>2026-05-01T12:01:54Z</time></trkpt><trkpt lat="42.37996259216773" lon="12.219709255556754"><ele>642.0</ele><time>2026-05-01T12:01:55Z</time></trkpt><trkpt lat="42.3798716563498" lon="12.21956461486353"><ele>646.3333333333334</ele><time>2026-05-01T12:01:56Z</time></trkpt><trkpt lat="42.379816468845945" lon="12.219377164675823"><ele>650.6666666666667</ele><time>2026-05-01T12:01:57Z</time></trkpt><trkpt lat="42.379785886120025" lon="12.21916726651573"><ele>655.0</ele><time>2026-05-01T12:01:58Z</time></trkpt><trkpt lat="42.37975593655305" lon="12.218966161781713"><ele>657.0</ele><time>2026-05-01T12:01:59Z</time></trkpt><trkpt lat="42.37972169182847" lon="12.218745015691386"><ele>659.0</ele><time>2026-05-01T12:02:00Z</time></trkpt><trkpt lat="42.3796868589799" lon="12.218512349061614"><ele>661.0</ele><time>2026-05-01T12:02:01Z</time></trkpt><trkpt lat="42.37967999784005" lon="12.218279222795278"><ele>662.0</ele><time>2026-05-01T12:02:02Z</time></trkpt><trkpt lat="42.37966162648368" lon="12.218063224838327"><ele>663.0</ele><time>2026-05-01T12:02:03Z</time></trkpt><trkpt lat="42.37967973517939" lon="12.217854656947983"><ele>664.0</ele><time>2026-05-01T12:02:04Z</time></trkpt><trkpt lat="42.37971515869201" lon="12.217656259610445"><ele>664.0</ele><time>2026-05-01T12:02:05Z</time></trkpt><trkpt lat="42.37977171562239" lon="12.21747154975042"><ele>664.0</ele><time>2026-05-01T12:02:06Z</time></trkpt><trkpt lat="42.37984907053962" lon="12.217315903901225"><ele>664.0</ele><time>2026-05-01T12:02:07Z</time></trkpt><trkpt lat="42.379944994368465" lon="12.21716629612343"><ele>664.0</ele><time>2026-05-01T12:02:08Z</time></trkpt><trkpt lat="42.380055656981504" lon="12.217010756076213"><ele>664.0</ele><time>2026-05-01T12:02:09Z</time></trkpt><trkpt lat="42.38017103282132" lon="12.216847654093366"><ele>664.0</ele><time>2026-05-01T12:02:10Z</time></trkpt><trkpt lat="42.38028166272083" lon="12.21667623225088"><ele>664.0</ele><time>2026-05-01T12:02:11Z</time></trkpt><trkpt lat="42.380407066461025" lon="12.216505420714471"><ele>667.3333333333334</ele><time>2026-05-01T12:02:12Z</time></trkpt><trkpt lat="42.380523023118776" lon="12.216326231953497"><ele>670.6666666666666</ele><time>2026-05-01T12:02:13Z</time></trkpt><trkpt lat="42.38063585287817" lon="12.216131955192019"><ele>674.0</ele><time>2026-05-01T12:02:14Z</time></trkpt><trkpt lat="42.38076090466793" lon="12.21595131300559"><ele>674.0</ele><time>2026-05-01T12:02:15Z</time></trkpt><trkpt lat="42.380877380235766" lon="12.215771994160445"><ele>674.0</ele><time>2026-05-01T12:02:16Z</time></trkpt><trkpt lat="42.38099174889032" lon="12.215598963218783"><ele>674.0</ele><time>2026-05-01T12:02:17Z</time></trkpt><trkpt lat="42.38110132726076" lon="12.21542635294864"><ele>675.6666666666666</ele><time>2026-05-01T12:02:18Z</time></trkpt><trkpt lat="42.38120355592216" lon="12.215250276857999"><ele>677.3333333333334</ele><time>2026-05-01T12:02:19Z</time></trkpt><trkpt lat="42.38130960670095" lon="12.21508282307947"><ele>679.0</ele><time>2026-05-01T12:02:20Z</time></trkpt><trkpt lat="42.381400817346446" lon="12.214896077723541"><ele>682.3333333333334</ele><time>2026-05-01T12:02:21Z</time></trkpt><trkpt lat="42.38148966221634" lon="12.21469030793641"><ele>685.6666666666666</ele><time>2026-05-01T12:02:22Z</time></trkpt><trkpt lat="42.381565128095254" lon="12.214503075213782"><ele>689.0</ele><time>2026-05-01T12:02:23Z</time></trkpt><trkpt lat="42.381642109176894" lon="12.214313508008338"><ele>689.0</ele><time>2026-05-01T12:02:24Z</time></trkpt><trkpt lat="42.38172146767556" lon="12.214135002683735"><ele>689.0</ele><time>2026-05-01T12:02:25Z</time></trkpt><trkpt lat="42.3818109252061" lon="12.213959618077778"><ele>689.0</ele><time>2026-05-01T12:02:26Z</time></trkpt><trkpt lat="42.38191059549876" lon="12.213805536226419"><ele>690.5</ele><time>2026-05-01T12:02:27Z</time></trkpt><trkpt lat="42.38201470269539" lon="12.213659507265996"><ele>692.0</ele><time>2026-05-01T12:02:28Z</time></trkpt><trkpt lat="42.38211706766569" lon="12.213522510009927"><ele>693.5</ele><time>2026-05-01T12:02:29Z</time></trkpt><trkpt lat="42.38222096398318" lon="12.213384183140516"><ele>695.0</ele><time>2026-05-01T12:02:30Z</time></trkpt><trkpt lat="42.38232501680512" lon="12.213244724177198"><ele>697.6666666666666</ele><time>2026-05-01T12:02:31Z</time></trkpt><trkpt lat="42.38244399891067" lon="12.213087937878349"><ele>700.3333333333334</ele><time>2026-05-01T12:02:32Z</time></trkpt><trkpt lat="42.38256431574095" lon="12.212930653203278"><ele>703.0</ele><time>2026-05-01T12:02:33Z</time></trkpt><trkpt lat="42.382666905838434" lon="12.212793057597885"><ele>703.0</ele><time>2026-05-01T12:02:34Z</time></trkpt><trkpt lat="42.38275374983506" lon="12.212675634149946"><ele>703.0</ele><time>2026-05-01T12:02:35Z</time></trkpt><trkpt lat="42.382866092637585" lon="12.21250707312208"><ele>703.0</ele><time>2026-05-01T12:02:36.001Z</time></trkpt><trkpt lat="42.38295832297972" lon="12.212342647980009"><ele>703.0</ele><time>2026-05-01T12:02:37.001Z</time></trkpt><trkpt lat="42.383036083010715" lon="12.212200142155051"><ele>704.3333333333334</ele><time>2026-05-01T12:02:38.001Z</time></trkpt><trkpt lat="42.38311189170273" lon="12.212014823271513"><ele>705.6666666666666</ele><time>2026-05-01T12:02:39.001Z</time></trkpt><trkpt lat="42.38320383599187" lon="12.21181630171234"><ele>707.0</ele><time>2026-05-01T12:02:40.001Z</time></trkpt><trkpt lat="42.38329251422313" lon="12.211626474183966"><ele>708.3333333333333</ele><time>2026-05-01T12:02:41.001Z</time></trkpt><trkpt lat="42.38336048698242" lon="12.211440928401904"><ele>709.6666666666666</ele><time>2026-05-01T12:02:42.001Z</time></trkpt><trkpt lat="42.38343442076509" lon="12.211238442469579"><ele>711.0</ele><time>2026-05-01T12:02:43.001Z</time></trkpt><trkpt lat="42.38350947914804" lon="12.211032877077098"><ele>711.0</ele><time>2026-05-01T12:02:44.001Z</time></trkpt><trkpt lat="42.38358894627194" lon="12.210815236923112"><ele>711.0</ele><time>2026-05-01T12:02:45.001Z</time></trkpt><trkpt lat="42.38366745017243" lon="12.2106004070068"><ele>711.0</ele><time>2026-05-01T12:02:46.001Z</time></trkpt><trkpt lat="42.38374439867562" lon="12.210393306608822"><ele>711.6666666666666</ele><time>2026-05-01T12:02:47.001Z</time></trkpt><trkpt lat="42.38379910220093" lon="12.210190040258885"><ele>712.3333333333333</ele><time>2026-05-01T12:02:48.001Z</time></trkpt><trkpt lat="42.383877421845504" lon="12.210009268248113"><ele>713.0</ele><time>2026-05-01T12:02:49.001Z</time></trkpt><trkpt lat="42.383934874290595" lon="12.209802503614958"><ele>716.3333333333333</ele><time>2026-05-01T12:02:50.001Z</time></trkpt><trkpt lat="42.383977981997255" lon="12.2095733355718"><ele>719.6666666666666</ele><time>2026-05-01T12:02:51.001Z</time></trkpt><trkpt lat="42.384014667640265" lon="12.209336188985645"><ele>723.0</ele><time>2026-05-01T12:02:52.001Z</time></trkpt><trkpt lat="42.38405005025479" lon="12.209085203815865"><ele>723.6666666666666</ele><time>2026-05-01T12:02:53.001Z</time></trkpt><trkpt lat="42.38408800087843" lon="12.208837889821103"><ele>724.3333333333333</ele><time>2026-05-01T12:02:54.001Z</time></trkpt><trkpt lat="42.38413335946771" lon="12.208600757202923"><ele>725.0</ele><time>2026-05-01T12:02:55.001Z</time></trkpt><trkpt lat="42.38420970628944" lon="12.208361091437927"><ele>725.0</ele><time>2026-05-01T12:02:56.001Z</time></trkpt><trkpt lat="42.38431056489081" lon="12.208128515089177"><ele>725.0</ele><time>2026-05-01T12:02:57.001Z</time></trkpt><trkpt lat="42.38442814831389" lon="12.207906059062616"><ele>725.0</ele><time>2026-05-01T12:02:58.001Z</time></trkpt><trkpt lat="42.38455334865016" lon="12.207681787977057"><ele>725.0</ele><time>2026-05-01T12:02:59.001Z</time></trkpt><trkpt lat="42.384674462782044" lon="12.207467365773828"><ele>725.0</ele><time>2026-05-01T12:03:00.001Z</time></trkpt><trkpt lat="42.38480062925764" lon="12.207243998784868"><ele>725.0</ele><time>2026-05-01T12:03:01.001Z</time></trkpt><trkpt lat="42.384916429348706" lon="12.207039533786375"><ele>729.0</ele><time>2026-05-01T12:03:02.001Z</time></trkpt><trkpt lat="42.38504059535956" lon="12.206820936220089"><ele>733.0</ele><time>2026-05-01T12:03:03.001Z</time></trkpt><trkpt lat="42.3851677760891" lon="12.206589641678008"><ele>737.0</ele><time>2026-05-01T12:03:04.001Z</time></trkpt><trkpt lat="42.38529532179945" lon="12.206346864064711"><ele>737.3333333333333</ele><time>2026-05-01T12:03:05.001Z</time></trkpt><trkpt lat="42.38541683197564" lon="12.206100656089731"><ele>737.6666666666666</ele><time>2026-05-01T12:03:06.001Z</time></trkpt><trkpt lat="42.38552042763677" lon="12.20586055791244"><ele>738.0</ele><time>2026-05-01T12:03:07.001Z</time></trkpt><trkpt lat="42.38566357674072" lon="12.20563878126231"><ele>739.5</ele><time>2026-05-01T12:03:08.001Z</time></trkpt><trkpt lat="42.38580992520811" lon="12.205389540147298"><ele>741.0</ele><time>2026-05-01T12:03:09.001Z</time></trkpt><trkpt lat="42.38594551549544" lon="12.205157329881619"><ele>741.0</ele><time>2026-05-01T12:03:10.001Z</time></trkpt><trkpt lat="42.386093384613794" lon="12.204912828189068"><ele>741.0</ele><time>2026-05-01T12:03:11.001Z</time></trkpt><trkpt lat="42.38623645896077" lon="12.204678263481084"><ele>746.0</ele><time>2026-05-01T12:03:12.001Z</time></trkpt><trkpt lat="42.386387995923265" lon="12.20444096845915"><ele>751.0</ele><time>2026-05-01T12:03:13.001Z</time></trkpt><trkpt lat="42.38656270075821" lon="12.20421504109478"><ele>750.6666666666667</ele><time>2026-05-01T12:03:14.001Z</time></trkpt><trkpt lat="42.386721113418815" lon="12.203990646859433"><ele>750.3333333333334</ele><time>2026-05-01T12:03:15.001Z</time></trkpt><trkpt lat="42.38685851181478" lon="12.203788821411909"><ele>750.0</ele><time>2026-05-01T12:03:16.001Z</time></trkpt><trkpt lat="42.38702528718211" lon="12.203606407163887"><ele>752.6666666666666</ele><time>2026-05-01T12:03:17.001Z</time></trkpt><trkpt lat="42.38721325772433" lon="12.203471814233353"><ele>755.3333333333333</ele><time>2026-05-01T12:03:18.001Z</time></trkpt><trkpt lat="42.38740410146234" lon="12.20334200778266"><ele>758.0</ele><time>2026-05-01T12:03:19.001Z</time></trkpt><trkpt lat="42.3876037899235" lon="12.203200380861452"><ele>756.0</ele><time>2026-05-01T12:03:20.001Z</time></trkpt><trkpt lat="42.38781061219504" lon="12.20306279170969"><ele>754.0</ele><time>2026-05-01T12:03:21.001Z</time></trkpt><trkpt lat="42.38802260778788" lon="12.202928786213606"><ele>757.0</ele><time>2026-05-01T12:03:22.001Z</time></trkpt><trkpt lat="42.38823016454668" lon="12.202814472455405"><ele>760.0</ele><time>2026-05-01T12:03:23.001Z</time></trkpt><trkpt lat="42.38840842122301" lon="12.202705399493997"><ele>763.0</ele><time>2026-05-01T12:03:24.001Z</time></trkpt><trkpt lat="42.388570767489654" lon="12.20261281808341"><ele>763.0</ele><time>2026-05-01T12:03:25.001Z</time></trkpt><trkpt lat="42.388718568399426" lon="12.202506851043902"><ele>763.0</ele><time>2026-05-01T12:03:26.001Z</time></trkpt><trkpt lat="42.38885853645475" lon="12.202367738082911"><ele>763.0</ele><time>2026-05-01T12:03:27.001Z</time></trkpt><trkpt lat="42.38897991579356" lon="12.202187172095945"><ele>765.0</ele><time>2026-05-01T12:03:28.001Z</time></trkpt><trkpt lat="42.38907937118415" lon="12.201972554564458"><ele>767.0</ele><time>2026-05-01T12:03:29.001Z</time></trkpt><trkpt lat="42.389153976164515" lon="12.201737902416449"><ele>769.0</ele><time>2026-05-01T12:03:30Z</time></trkpt><trkpt lat="42.38919951045816" lon="12.201476637227673"><ele>769.3333333333333</ele><time>2026-05-01T12:03:31Z</time></trkpt><trkpt lat="42.389236017499236" lon="12.20120633662069"><ele>769.6666666666667</ele><time>2026-05-01T12:03:32Z</time></trkpt><trkpt lat="42.38926583933594" lon="12.200957050763257"><ele>770.0</ele><time>2026-05-01T12:03:33Z</time></trkpt><trkpt lat="42.38929972932527" lon="12.20071806262125"><ele>770.3333333333334</ele><time>2026-05-01T12:03:34Z</time></trkpt><trkpt lat="42.38935843988745" lon="12.200488507896582"><ele>770.6666666666667</ele><time>2026-05-01T12:03:35Z</time></trkpt><trkpt lat="42.389434781832385" lon="12.200261246886871"><ele>771.0</ele><time>2026-05-01T12:03:36Z</time></trkpt><trkpt lat="42.3895336546862" lon="12.200043204706766"><ele>771.0</ele><time>2026-05-01T12:03:37Z</time></trkpt><trkpt lat="42.38966858107957" lon="12.19986423745484"><ele>771.0</ele><time>2026-05-01T12:03:38Z</time></trkpt><trkpt lat="42.38980263066771" lon="12.199695764257687"><ele>771.0</ele><time>2026-05-01T12:03:39Z</time></trkpt><trkpt lat="42.38994309780571" lon="12.19953239776114"><ele>771.6666666666667</ele><time>2026-05-01T12:03:40Z</time></trkpt><trkpt lat="42.390079466598976" lon="12.19936264938099"><ele>772.3333333333334</ele><time>2026-05-01T12:03:41Z</time></trkpt><trkpt lat="42.39021765829217" lon="12.199173393701935"><ele>773.0</ele><time>2026-05-01T12:03:42Z</time></trkpt><trkpt lat="42.39032071472699" lon="12.198976063505675"><ele>771.6666666666667</ele><time>2026-05-01T12:03:43Z</time></trkpt><trkpt lat="42.3904030885489" lon="12.19873101215718"><ele>770.3333333333333</ele><time>2026-05-01T12:03:44Z</time></trkpt><trkpt lat="42.390465788961464" lon="12.198455528818807"><ele>769.0</ele><time>2026-05-01T12:03:45Z</time></trkpt><trkpt lat="42.39049714006469" lon="12.198154693632143"><ele>773.0</ele><time>2026-05-01T12:03:46Z</time></trkpt><trkpt lat="42.39050956146746" lon="12.197856983421639"><ele>777.0</ele><time>2026-05-01T12:03:47Z</time></trkpt><trkpt lat="42.39051803970266" lon="12.197582111216594"><ele>781.0</ele><time>2026-05-01T12:03:48Z</time></trkpt><trkpt lat="42.390540327968644" lon="12.197317948429541"><ele>781.6666666666666</ele><time>2026-05-01T12:03:49Z</time></trkpt><trkpt lat="42.390587882054305" lon="12.197056663822444"><ele>782.3333333333333</ele><time>2026-05-01T12:03:50Z</time></trkpt><trkpt lat="42.39064887590367" lon="12.19679233688566"><ele>783.0</ele><time>2026-05-01T12:03:51Z</time></trkpt><trkpt lat="42.39072454433709" lon="12.19652230138034"><ele>782.0</ele><time>2026-05-01T12:03:52Z</time></trkpt><trkpt lat="42.39077382576675" lon="12.196273918584264"><ele>781.0</ele><time>2026-05-01T12:03:53Z</time></trkpt><trkpt lat="42.390974971965896" lon="12.196105612109069"><ele>780.0</ele><time>2026-05-01T12:03:54Z</time></trkpt><trkpt lat="42.39106046566441" lon="12.195915077095762"><ele>780.0</ele><time>2026-05-01T12:03:55Z</time></trkpt><trkpt lat="42.391126631631735" lon="12.195744543731516"><ele>780.0</ele><time>2026-05-01T12:03:56Z</time></trkpt><trkpt lat="42.391177337809154" lon="12.195584147426908"><ele>780.0</ele><time>2026-05-01T12:03:57Z</time></trkpt><trkpt lat="42.391194587077436" lon="12.195428923443435"><ele>780.0</ele><time>2026-05-01T12:03:58Z</time></trkpt><trkpt lat="42.39120876292953" lon="12.195258915584759"><ele>779.0</ele><time>2026-05-01T12:03:59Z</time></trkpt><trkpt lat="42.39118766415118" lon="12.19504483456682"><ele>778.0</ele><time>2026-05-01T12:04:00Z</time></trkpt><trkpt lat="42.391191662873595" lon="12.19488845323989"><ele>777.0</ele><time>2026-05-01T12:04:01Z</time></trkpt><trkpt lat="42.391188402868316" lon="12.194737058993464"><ele>776.0</ele><time>2026-05-01T12:04:02Z</time></trkpt><trkpt lat="42.39118904146193" lon="12.194634441217449"><ele>774.5000000000001</ele><time>2026-05-01T12:04:03Z</time></trkpt><trkpt lat="42.39122741675473" lon="12.194549978749608"><ele>773.0</ele><time>2026-05-01T12:04:06Z</time></trkpt><trkpt lat="42.391243994266944" lon="12.194463179937324"><ele>771.5</ele><time>2026-05-01T12:04:10Z</time></trkpt><trkpt lat="42.39130196138292" lon="12.19437906333376"><ele>770.0</ele><time>2026-05-01T12:06:00Z</time></trkpt><trkpt lat="42.39121954779945" lon="12.194256370355141"><ele>768.5</ele><time>2026-05-01T12:06:02Z</time></trkpt><trkpt lat="42.3911814480484" lon="12.194176571724766"><ele>767.0</ele><time>2026-05-01T12:06:03Z</time></trkpt><trkpt lat="42.391202476545814" lon="12.19396469111187"><ele>766.0</ele><time>2026-05-01T12:06:05Z</time></trkpt><trkpt lat="42.391219079113526" lon="12.193825003420313"><ele>765.0</ele><time>2026-05-01T12:06:06Z</time></trkpt><trkpt lat="42.391218808962826" lon="12.193648333990481"><ele>764.0</ele><time>2026-05-01T12:06:07Z</time></trkpt><trkpt lat="42.39123662750492" lon="12.193465151079613"><ele>763.0</ele><time>2026-05-01T12:06:08Z</time></trkpt><trkpt lat="42.39125517567499" lon="12.193274562267074"><ele>762.75</ele><time>2026-05-01T12:06:09Z</time></trkpt><trkpt lat="42.391282941436536" lon="12.193077448876833"><ele>762.5</ele><time>2026-05-01T12:06:10Z</time></trkpt><trkpt lat="42.391315950460154" lon="12.192887178863032"><ele>762.25</ele><time>2026-05-01T12:06:11Z</time></trkpt><trkpt lat="42.39134651222528" lon="12.192696861300307"><ele>762.0</ele><time>2026-05-01T12:06:12Z</time></trkpt><trkpt lat="42.39135715407949" lon="12.19251430305078"><ele>760.5</ele><time>2026-05-01T12:06:13Z</time></trkpt><trkpt lat="42.391340145745225" lon="12.192322819439987"><ele>759.0</ele><time>2026-05-01T12:06:14Z</time></trkpt><trkpt lat="42.3912974241715" lon="12.19213097884699"><ele>757.5</ele><time>2026-05-01T12:06:15Z</time></trkpt><trkpt lat="42.39124482187893" lon="12.191933554841095"><ele>756.0</ele><time>2026-05-01T12:06:16Z</time></trkpt><trkpt lat="42.391167034401576" lon="12.191735839579225"><ele>756.0</ele><time>2026-05-01T12:06:17Z</time></trkpt><trkpt lat="42.391076188854754" lon="12.191542248707158"><ele>756.0</ele><time>2026-05-01T12:06:18Z</time></trkpt><trkpt lat="42.39099291808689" lon="12.19136240957516"><ele>756.0</ele><time>2026-05-01T12:06:19Z</time></trkpt><trkpt lat="42.39091412239472" lon="12.191164960704505"><ele>755.0</ele><time>2026-05-01T12:06:20Z</time></trkpt><trkpt lat="42.390862012916664" lon="12.190970040519847"><ele>754.0</ele><time>2026-05-01T12:06:21Z</time></trkpt><trkpt lat="42.390815829355766" lon="12.190760489311927"><ele>753.0</ele><time>2026-05-01T12:06:22Z</time></trkpt><trkpt lat="42.39078612121422" lon="12.190523469011477"><ele>752.0</ele><time>2026-05-01T12:06:23Z</time></trkpt><trkpt lat="42.39077243898375" lon="12.190263893726117"><ele>751.0</ele><time>2026-05-01T12:06:24Z</time></trkpt><trkpt lat="42.390762240595194" lon="12.189977245947084"><ele>750.0</ele><time>2026-05-01T12:06:25Z</time></trkpt><trkpt lat="42.39076456621981" lon="12.189673845866213"><ele>749.6666666666666</ele><time>2026-05-01T12:06:26Z</time></trkpt><trkpt lat="42.39076517190179" lon="12.189385137506974"><ele>749.3333333333333</ele><time>2026-05-01T12:06:27Z</time></trkpt><trkpt lat="42.390768356501766" lon="12.18907489012207"><ele>749.0</ele><time>2026-05-01T12:06:28Z</time></trkpt><trkpt lat="42.39077083142162" lon="12.188754547309202"><ele>747.5</ele><time>2026-05-01T12:06:29Z</time></trkpt><trkpt lat="42.39080242360389" lon="12.188432348070277"><ele>746.0</ele><time>2026-05-01T12:06:30Z</time></trkpt><trkpt lat="42.39083443841868" lon="12.188136010121319"><ele>746.0</ele><time>2026-05-01T12:06:31Z</time></trkpt><trkpt lat="42.39088336568105" lon="12.187854277687332"><ele>746.0</ele><time>2026-05-01T12:06:32Z</time></trkpt><trkpt lat="42.39094511508752" lon="12.187572913241153"><ele>746.0</ele><time>2026-05-01T12:06:33Z</time></trkpt><trkpt lat="42.39100710756908" lon="12.187284410155002"><ele>745.5</ele><time>2026-05-01T12:06:34Z</time></trkpt><trkpt lat="42.391067246722116" lon="12.186981048183888"><ele>745.0</ele><time>2026-05-01T12:06:35Z</time></trkpt><trkpt lat="42.39112387665816" lon="12.18667344993826"><ele>745.5</ele><time>2026-05-01T12:06:36Z</time></trkpt><trkpt lat="42.39117416980779" lon="12.186356470309327"><ele>746.0</ele><time>2026-05-01T12:06:37Z</time></trkpt><trkpt lat="42.39121263410982" lon="12.186055379320452"><ele>746.0</ele><time>2026-05-01T12:06:38Z</time></trkpt><trkpt lat="42.39126284032457" lon="12.185748531652226"><ele>746.0</ele><time>2026-05-01T12:06:39Z</time></trkpt><trkpt lat="42.391311429252646" lon="12.185458724270006"><ele>747.0</ele><time>2026-05-01T12:06:40Z</time></trkpt><trkpt lat="42.39135621945" lon="12.185178759671759"><ele>748.0</ele><time>2026-05-01T12:06:41Z</time></trkpt><trkpt lat="42.39140241253423" lon="12.184911263314893"><ele>749.0</ele><time>2026-05-01T12:06:42Z</time></trkpt><trkpt lat="42.39144098337882" lon="12.184652187211489"><ele>747.0</ele><time>2026-05-01T12:06:43Z</time></trkpt><trkpt lat="42.39148966007508" lon="12.184400163485844"><ele>745.0</ele><time>2026-05-01T12:06:44Z</time></trkpt><trkpt lat="42.391535106524316" lon="12.18414220143984"><ele>743.0</ele><time>2026-05-01T12:06:45Z</time></trkpt><trkpt lat="42.39158765644637" lon="12.183878533613429"><ele>741.6666666666666</ele><time>2026-05-01T12:06:46Z</time></trkpt><trkpt lat="42.39165609302525" lon="12.183616832296583"><ele>740.3333333333334</ele><time>2026-05-01T12:06:47Z</time></trkpt><trkpt lat="42.39173629783529" lon="12.183349086818865"><ele>739.0</ele><time>2026-05-01T12:06:48Z</time></trkpt><trkpt lat="42.39184273511946" lon="12.183103842419028"><ele>738.3333333333334</ele><time>2026-05-01T12:06:49Z</time></trkpt><trkpt lat="42.39196230586504" lon="12.182872011386136"><ele>737.6666666666666</ele><time>2026-05-01T12:06:50Z</time></trkpt><trkpt lat="42.39205203180332" lon="12.182637446109105"><ele>737.0</ele><time>2026-05-01T12:06:51Z</time></trkpt><trkpt lat="42.39214870594932" lon="12.182416880342391"><ele>733.6666666666666</ele><time>2026-05-01T12:06:52Z</time></trkpt><trkpt lat="42.392223909936135" lon="12.182198077718382"><ele>730.3333333333334</ele><time>2026-05-01T12:06:53Z</time></trkpt><trkpt lat="42.39228809905055" lon="12.181978006748212"><ele>727.0</ele><time>2026-05-01T12:06:54Z</time></trkpt><trkpt lat="42.39234603236619" lon="12.181737707457325"><ele>727.0</ele><time>2026-05-01T12:06:55Z</time></trkpt><trkpt lat="42.39239141571828" lon="12.181486485938944"><ele>727.0</ele><time>2026-05-01T12:06:56Z</time></trkpt><trkpt lat="42.39242969835997" lon="12.181251757796131"><ele>727.0</ele><time>2026-05-01T12:06:57Z</time></trkpt><trkpt lat="42.392466356756636" lon="12.181014554407128"><ele>727.0</ele><time>2026-05-01T12:06:58Z</time></trkpt><trkpt lat="42.3925070022263" lon="12.180776343970908"><ele>727.0</ele><time>2026-05-01T12:06:59Z</time></trkpt><trkpt lat="42.39255480299366" lon="12.180528364173478"><ele>727.0</ele><time>2026-05-01T12:07:00Z</time></trkpt><trkpt lat="42.39259643384348" lon="12.18027858987265"><ele>727.6666666666667</ele><time>2026-05-01T12:07:01Z</time></trkpt><trkpt lat="42.392639181945775" lon="12.180025238322273"><ele>728.3333333333334</ele><time>2026-05-01T12:07:02Z</time></trkpt><trkpt lat="42.39267927022114" lon="12.17978423302089"><ele>729.0</ele><time>2026-05-01T12:07:03Z</time></trkpt><trkpt lat="42.3927230644212" lon="12.1795493884076"><ele>729.3333333333334</ele><time>2026-05-01T12:07:04Z</time></trkpt><trkpt lat="42.3927653109684" lon="12.179314548636475"><ele>729.6666666666667</ele><time>2026-05-01T12:07:05Z</time></trkpt><trkpt lat="42.392798858074336" lon="12.179073588854548"><ele>730.0</ele><time>2026-05-01T12:07:06Z</time></trkpt><trkpt lat="42.392843941030904" lon="12.178826667217932"><ele>730.0</ele><time>2026-05-01T12:07:07Z</time></trkpt><trkpt lat="42.39288324506351" lon="12.178599688873653"><ele>730.0</ele><time>2026-05-01T12:07:08Z</time></trkpt><trkpt lat="42.39292971731567" lon="12.178383868354574"><ele>730.0</ele><time>2026-05-01T12:07:09Z</time></trkpt><trkpt lat="42.392971428150716" lon="12.178152521360238"><ele>730.0</ele><time>2026-05-01T12:07:10Z</time></trkpt><trkpt lat="42.39300585384111" lon="12.177910462423073"><ele>730.0</ele><time>2026-05-01T12:07:11Z</time></trkpt><trkpt lat="42.393034678524465" lon="12.177671544926609"><ele>730.0</ele><time>2026-05-01T12:07:12Z</time></trkpt><trkpt lat="42.39305960014764" lon="12.177431097380445"><ele>729.0</ele><time>2026-05-01T12:07:13Z</time></trkpt><trkpt lat="42.39307888922761" lon="12.177187779960377"><ele>728.0</ele><time>2026-05-01T12:07:14Z</time></trkpt><trkpt lat="42.39309691469379" lon="12.17694454731314"><ele>727.0</ele><time>2026-05-01T12:07:15Z</time></trkpt><trkpt lat="42.39310944109428" lon="12.176714665493355"><ele>728.6666666666667</ele><time>2026-05-01T12:07:16Z</time></trkpt><trkpt lat="42.39310986307734" lon="12.176497901416107"><ele>730.3333333333334</ele><time>2026-05-01T12:07:17Z</time></trkpt><trkpt lat="42.3931140500242" lon="12.176281171263877"><ele>732.0</ele><time>2026-05-01T12:07:18Z</time></trkpt><trkpt lat="42.39310436608741" lon="12.176058215099161"><ele>732.0</ele><time>2026-05-01T12:07:19Z</time></trkpt><trkpt lat="42.393088958687606" lon="12.175845436794546"><ele>732.0</ele><time>2026-05-01T12:07:20Z</time></trkpt><trkpt lat="42.3930616281967" lon="12.175647291731993"><ele>732.0</ele><time>2026-05-01T12:07:21Z</time></trkpt><trkpt lat="42.39301530659911" lon="12.175444597289786"><ele>730.6666666666666</ele><time>2026-05-01T12:07:22Z</time></trkpt><trkpt lat="42.39297626432132" lon="12.17522232657129"><ele>729.3333333333333</ele><time>2026-05-01T12:07:23Z</time></trkpt><trkpt lat="42.39295374188945" lon="12.174973505026973"><ele>728.0</ele><time>2026-05-01T12:07:24Z</time></trkpt><trkpt lat="42.39294492166025" lon="12.174712804507895"><ele>726.3333333333333</ele><time>2026-05-01T12:07:25Z</time></trkpt><trkpt lat="42.39295140707746" lon="12.174465571797313"><ele>724.6666666666666</ele><time>2026-05-01T12:07:26Z</time></trkpt><trkpt lat="42.39296771685001" lon="12.174213067783867"><ele>723.0</ele><time>2026-05-01T12:07:27Z</time></trkpt><trkpt lat="42.39296383173973" lon="12.173980052762102"><ele>720.3333333333334</ele><time>2026-05-01T12:07:28Z</time></trkpt><trkpt lat="42.39293704431159" lon="12.173751779560229"><ele>717.6666666666667</ele><time>2026-05-01T12:07:29Z</time></trkpt><trkpt lat="42.39288465423952" lon="12.173546437135723"><ele>715.0</ele><time>2026-05-01T12:07:30Z</time></trkpt><trkpt lat="42.39277539567069" lon="12.173368576137012"><ele>715.0</ele><time>2026-05-01T12:07:31Z</time></trkpt><trkpt lat="42.39268371350219" lon="12.173203667515992"><ele>715.0</ele><time>2026-05-01T12:07:32Z</time></trkpt><trkpt lat="42.392612419704534" lon="12.173062548415114"><ele>715.0</ele><time>2026-05-01T12:07:33Z</time></trkpt><trkpt lat="42.39256374937844" lon="12.172923840835791"><ele>715.0</ele><time>2026-05-01T12:07:34Z</time></trkpt><trkpt lat="42.39254094007382" lon="12.172787647627992"><ele>714.0</ele><time>2026-05-01T12:07:35Z</time></trkpt><trkpt lat="42.39252541826092" lon="12.172666592627838"><ele>713.0</ele><time>2026-05-01T12:07:36Z</time></trkpt><trkpt lat="42.39250112887337" lon="12.172566729628835"><ele>712.0</ele><time>2026-05-01T12:07:37Z</time></trkpt><trkpt lat="42.39242478929875" lon="12.172508207688905"><ele>711.0</ele><time>2026-05-01T12:07:39Z</time></trkpt><trkpt lat="42.39235581749483" lon="12.172530502070499"><ele>710.0</ele><time>2026-05-01T12:07:41Z</time></trkpt><trkpt lat="42.39237020279417" lon="12.172622234772044"><ele>709.0</ele><time>2026-05-01T12:07:46.998Z</time></trkpt><trkpt lat="42.39244302800329" lon="12.172727981307197"><ele>709.0</ele><time>2026-05-01T12:07:48.998Z</time></trkpt><trkpt lat="42.39248178881912" lon="12.172891786996344"><ele>709.0</ele><time>2026-05-01T12:07:50.999Z</time></trkpt><trkpt lat="42.392518423143834" lon="12.17298596844236"><ele>709.0</ele><time>2026-05-01T12:07:51.999Z</time></trkpt><trkpt lat="42.39255608011882" lon="12.17306774533317"><ele>709.0</ele><time>2026-05-01T12:07:52.999Z</time></trkpt><trkpt lat="42.39260336426597" lon="12.173162165842802"><ele>709.0</ele><time>2026-05-01T12:07:53.999Z</time></trkpt><trkpt lat="42.3926437186809" lon="12.17327778507369"><ele>710.2</ele><time>2026-05-01T12:07:54.999Z</time></trkpt><trkpt lat="42.39268834887428" lon="12.173389822979365"><ele>711.4000000000001</ele><time>2026-05-01T12:07:55.999Z</time></trkpt><trkpt lat="42.39273111024816" lon="12.173510419961906"><ele>712.6</ele><time>2026-05-01T12:07:56.999Z</time></trkpt><trkpt lat="42.392767073222835" lon="12.173638462460996"><ele>713.8</ele><time>2026-05-01T12:07:57.999Z</time></trkpt><trkpt lat="42.39280142293976" lon="12.173738029610291"><ele>715.0</ele><time>2026-05-01T12:07:58.999Z</time></trkpt><trkpt lat="42.39282594286766" lon="12.17383911425595"><ele>715.0</ele><time>2026-05-01T12:07:59.999Z</time></trkpt><trkpt lat="42.39284480828471" lon="12.173939881403495"><ele>715.0</ele><time>2026-05-01T12:08:00.999Z</time></trkpt><trkpt lat="42.39285486331196" lon="12.174048723619673"><ele>715.0</ele><time>2026-05-01T12:08:01.999Z</time></trkpt><trkpt lat="42.39286022650309" lon="12.174164968882693"><ele>715.0</ele><time>2026-05-01T12:08:02.999Z</time></trkpt><trkpt lat="42.39287514362408" lon="12.174288612711635"><ele>715.0</ele><time>2026-05-01T12:08:03.999Z</time></trkpt><trkpt lat="42.39289116488188" lon="12.174420386934656"><ele>715.0</ele><time>2026-05-01T12:08:04.999Z</time></trkpt><trkpt lat="42.392906735249376" lon="12.174557801801669"><ele>717.0</ele><time>2026-05-01T12:08:05.999Z</time></trkpt><trkpt lat="42.392926769599605" lon="12.174702495950008"><ele>719.0</ele><time>2026-05-01T12:08:06.999Z</time></trkpt><trkpt lat="42.39293740388968" lon="12.174855896534245"><ele>721.0</ele><time>2026-05-01T12:08:07.999Z</time></trkpt><trkpt lat="42.39295294487169" lon="12.175022865700365"><ele>723.0</ele><time>2026-05-01T12:08:08.999Z</time></trkpt><trkpt lat="42.39294831175016" lon="12.175192233009215"><ele>724.25</ele><time>2026-05-01T12:08:09.999Z</time></trkpt><trkpt lat="42.39298971903873" lon="12.175365065485472"><ele>725.5</ele><time>2026-05-01T12:08:10.999Z</time></trkpt><trkpt lat="42.393032703028595" lon="12.175551416887103"><ele>726.75</ele><time>2026-05-01T12:08:11.999Z</time></trkpt><trkpt lat="42.3930713885681" lon="12.175749174761645"><ele>728.0</ele><time>2026-05-01T12:08:12.999Z</time></trkpt><trkpt lat="42.39309239722837" lon="12.175948833840028"><ele>727.6666666666666</ele><time>2026-05-01T12:08:13.999Z</time></trkpt><trkpt lat="42.393099542937385" lon="12.176165903128714"><ele>727.3333333333334</ele><time>2026-05-01T12:08:14.999Z</time></trkpt><trkpt lat="42.393107679458986" lon="12.176388025772297"><ele>727.0</ele><time>2026-05-01T12:08:15.999Z</time></trkpt><trkpt lat="42.39311240518033" lon="12.176624076804712"><ele>727.0</ele><time>2026-05-01T12:08:16.999Z</time></trkpt><trkpt lat="42.39311347277188" lon="12.176868535766422"><ele>727.0</ele><time>2026-05-01T12:08:17.999Z</time></trkpt><trkpt lat="42.39309574931166" lon="12.177118980276607"><ele>727.0</ele><time>2026-05-01T12:08:19Z</time></trkpt><trkpt lat="42.39307505336166" lon="12.177375459992513"><ele>725.6666666666667</ele><time>2026-05-01T12:08:20Z</time></trkpt><trkpt lat="42.39304993883879" lon="12.177656208874224"><ele>724.3333333333334</ele><time>2026-05-01T12:08:21Z</time></trkpt><trkpt lat="42.39300880950853" lon="12.17793921270753"><ele>723.0</ele><time>2026-05-01T12:08:22Z</time></trkpt><trkpt lat="42.392959537066275" lon="12.178221698661359"><ele>727.0</ele><time>2026-05-01T12:08:23Z</time></trkpt><trkpt lat="42.392912239523056" lon="12.17851456574941"><ele>731.0</ele><time>2026-05-01T12:08:24Z</time></trkpt><trkpt lat="42.39286097550329" lon="12.178816242766372"><ele>730.5</ele><time>2026-05-01T12:08:25Z</time></trkpt><trkpt lat="42.39280890117226" lon="12.179124734591465"><ele>730.0</ele><time>2026-05-01T12:08:26Z</time></trkpt><trkpt lat="42.39275548415695" lon="12.17943644253684"><ele>730.0</ele><time>2026-05-01T12:08:27Z</time></trkpt><trkpt lat="42.392708259990876" lon="12.179727666237055"><ele>730.0</ele><time>2026-05-01T12:08:28Z</time></trkpt><trkpt lat="42.39266635712166" lon="12.179999651005453"><ele>730.0</ele><time>2026-05-01T12:08:29Z</time></trkpt><trkpt lat="42.39262673723007" lon="12.180266765868211"><ele>729.6666666666667</ele><time>2026-05-01T12:08:30Z</time></trkpt><trkpt lat="42.392580773055975" lon="12.180519608284811"><ele>729.3333333333334</ele><time>2026-05-01T12:08:31Z</time></trkpt><trkpt lat="42.392524588766214" lon="12.180761080301753"><ele>729.0</ele><time>2026-05-01T12:08:32Z</time></trkpt><trkpt lat="42.39247596211634" lon="12.18101363835193"><ele>728.3333333333334</ele><time>2026-05-01T12:08:33Z</time></trkpt><trkpt lat="42.392425195611494" lon="12.181264103205296"><ele>727.6666666666667</ele><time>2026-05-01T12:08:34Z</time></trkpt><trkpt lat="42.3923735380659" lon="12.181516277617378"><ele>727.0</ele><time>2026-05-01T12:08:35Z</time></trkpt><trkpt lat="42.3923120408126" lon="12.1817686492995"><ele>727.0</ele><time>2026-05-01T12:08:36Z</time></trkpt><trkpt lat="42.39225256476234" lon="12.18201852960571"><ele>727.0</ele><time>2026-05-01T12:08:37Z</time></trkpt><trkpt lat="42.39217771651586" lon="12.182262906618408"><ele>727.0</ele><time>2026-05-01T12:08:38Z</time></trkpt><trkpt lat="42.392089246582486" lon="12.182498507861215"><ele>730.3333333333334</ele><time>2026-05-01T12:08:39Z</time></trkpt><trkpt lat="42.39198548561048" lon="12.182721147574728"><ele>733.6666666666666</ele><time>2026-05-01T12:08:40Z</time></trkpt><trkpt lat="42.39188965633408" lon="12.182945030098752"><ele>737.0</ele><time>2026-05-01T12:08:41Z</time></trkpt><trkpt lat="42.39178983596128" lon="12.183168995884861"><ele>737.6666666666666</ele><time>2026-05-01T12:08:42Z</time></trkpt><trkpt lat="42.39169796845568" lon="12.183395928883552"><ele>738.3333333333334</ele><time>2026-05-01T12:08:43Z</time></trkpt><trkpt lat="42.39162112440461" lon="12.183627227124845"><ele>739.0</ele><time>2026-05-01T12:08:44Z</time></trkpt><trkpt lat="42.391562531216614" lon="12.183876283005915"><ele>740.3333333333334</ele><time>2026-05-01T12:08:45Z</time></trkpt><trkpt lat="42.391517878302835" lon="12.18412891881316"><ele>741.6666666666666</ele><time>2026-05-01T12:08:46Z</time></trkpt><trkpt lat="42.39147421061703" lon="12.184390649134475"><ele>743.0</ele><time>2026-05-01T12:08:47Z</time></trkpt><trkpt lat="42.39143526856692" lon="12.184648419554705"><ele>743.6666666666666</ele><time>2026-05-01T12:08:48Z</time></trkpt><trkpt lat="42.39139136035376" lon="12.184901095338233"><ele>744.3333333333334</ele><time>2026-05-01T12:08:49Z</time></trkpt><trkpt lat="42.391341245148105" lon="12.185157396032961"><ele>745.0</ele><time>2026-05-01T12:08:50Z</time></trkpt><trkpt lat="42.39129730449271" lon="12.185414666647505"><ele>745.0</ele><time>2026-05-01T12:08:51Z</time></trkpt><trkpt lat="42.391251328293784" lon="12.185673284769857"><ele>745.0</ele><time>2026-05-01T12:08:52Z</time></trkpt><trkpt lat="42.39120544325814" lon="12.185932610055513"><ele>745.0</ele><time>2026-05-01T12:08:53Z</time></trkpt><trkpt lat="42.39116724381134" lon="12.186180901228232"><ele>745.0</ele><time>2026-05-01T12:08:54Z</time></trkpt><trkpt lat="42.39112678747371" lon="12.186433174172816"><ele>745.0</ele><time>2026-05-01T12:08:55Z</time></trkpt><trkpt lat="42.39108288747345" lon="12.18667972507092"><ele>745.0</ele><time>2026-05-01T12:08:56Z</time></trkpt><trkpt lat="42.391048235598916" lon="12.186907301950173"><ele>745.0</ele><time>2026-05-01T12:08:57Z</time></trkpt><trkpt lat="42.39102275046434" lon="12.187118450403714"><ele>745.0</ele><time>2026-05-01T12:08:58Z</time></trkpt><trkpt lat="42.39099431687118" lon="12.187319926908257"><ele>745.0</ele><time>2026-05-01T12:08:59Z</time></trkpt><trkpt lat="42.3909725258623" lon="12.18749940404679"><ele>745.0</ele><time>2026-05-01T12:09:00Z</time></trkpt><trkpt lat="42.39095906833094" lon="12.18765149672636"><ele>745.0</ele><time>2026-05-01T12:09:01Z</time></trkpt><trkpt lat="42.39090782065369" lon="12.187776565342803"><ele>745.0</ele><time>2026-05-01T12:09:02Z</time></trkpt><trkpt lat="42.39088797791006" lon="12.187907519585032"><ele>745.0</ele><time>2026-05-01T12:09:03Z</time></trkpt><trkpt lat="42.39087176370077" lon="12.188021341002504"><ele>745.0</ele><time>2026-05-01T12:09:04Z</time></trkpt><trkpt lat="42.390851889628244" lon="12.188146894365682"><ele>745.0</ele><time>2026-05-01T12:09:05Z</time></trkpt><trkpt lat="42.3908308827294" lon="12.188261794492005"><ele>745.0</ele><time>2026-05-01T12:09:06Z</time></trkpt><trkpt lat="42.390811510331744" lon="12.188371388887406"><ele>745.0</ele><time>2026-05-01T12:09:07Z</time></trkpt><trkpt lat="42.390790729659365" lon="12.188494215048095"><ele>745.0</ele><time>2026-05-01T12:09:08Z</time></trkpt><trkpt lat="42.390772533360234" lon="12.18862455786559"><ele>745.0</ele><time>2026-05-01T12:09:09Z</time></trkpt><trkpt lat="42.39075805155518" lon="12.188775249488378"><ele>745.0</ele><time>2026-05-01T12:09:10Z</time></trkpt><trkpt lat="42.390751891323795" lon="12.188947136580545"><ele>746.0</ele><time>2026-05-01T12:09:11Z</time></trkpt><trkpt lat="42.39074547952914" lon="12.189125248208166"><ele>747.0</ele><time>2026-05-01T12:09:12Z</time></trkpt><trkpt lat="42.39072956339958" lon="12.189315235270591"><ele>748.0</ele><time>2026-05-01T12:09:13Z</time></trkpt><trkpt lat="42.39071689184562" lon="12.189501091248083"><ele>749.0</ele><time>2026-05-01T12:09:14Z</time></trkpt><trkpt lat="42.39072887352687" lon="12.189682567012714"><ele>749.25</ele><time>2026-05-01T12:09:15Z</time></trkpt><trkpt lat="42.39073688121663" lon="12.189878260999137"><ele>749.5</ele><time>2026-05-01T12:09:16Z</time></trkpt><trkpt lat="42.39075258492039" lon="12.190089323059732"><ele>749.75</ele><time>2026-05-01T12:09:17Z</time></trkpt><trkpt lat="42.39076069971455" lon="12.190281885872764"><ele>750.0</ele><time>2026-05-01T12:09:18Z</time></trkpt><trkpt lat="42.39077157239666" lon="12.190482765003456"><ele>751.0</ele><time>2026-05-01T12:09:19Z</time></trkpt><trkpt lat="42.390793858810795" lon="12.190680947177608"><ele>752.0</ele><time>2026-05-01T12:09:20Z</time></trkpt><trkpt lat="42.39082996549081" lon="12.19088411124137"><ele>753.0</ele><time>2026-05-01T12:09:21Z</time></trkpt><trkpt lat="42.39087471467174" lon="12.191082223095856"><ele>753.0</ele><time>2026-05-01T12:09:22Z</time></trkpt><trkpt lat="42.39094061925281" lon="12.191270343831011"><ele>753.0</ele><time>2026-05-01T12:09:23Z</time></trkpt><trkpt lat="42.391015272352696" lon="12.19144678003141"><ele>753.0</ele><time>2026-05-01T12:09:24Z</time></trkpt><trkpt lat="42.39109785095099" lon="12.191620996587975"><ele>754.0</ele><time>2026-05-01T12:09:25Z</time></trkpt><trkpt lat="42.39119218987145" lon="12.191795966063228"><ele>755.0</ele><time>2026-05-01T12:09:26Z</time></trkpt><trkpt lat="42.39127966154454" lon="12.191983996520968"><ele>756.0</ele><time>2026-05-01T12:09:27Z</time></trkpt><trkpt lat="42.39134414910186" lon="12.192194668619178"><ele>758.0</ele><time>2026-05-01T12:09:28Z</time></trkpt><trkpt lat="42.391387363526874" lon="12.192425166696154"><ele>760.0</ele><time>2026-05-01T12:09:29Z</time></trkpt><trkpt lat="42.39138435502183" lon="12.192663207921846"><ele>762.0</ele><time>2026-05-01T12:09:30Z</time></trkpt><trkpt lat="42.391376659426626" lon="12.192904191713081"><ele>762.3333333333334</ele><time>2026-05-01T12:09:31Z</time></trkpt><trkpt lat="42.39133830399398" lon="12.193145682929462"><ele>762.6666666666667</ele><time>2026-05-01T12:09:32Z</time></trkpt><trkpt lat="42.39127732346733" lon="12.193387558489313"><ele>763.0</ele><time>2026-05-01T12:09:33Z</time></trkpt><trkpt lat="42.391230876223545" lon="12.193625608085245"><ele>763.0</ele><time>2026-05-01T12:09:34Z</time></trkpt><trkpt lat="42.391212761721334" lon="12.193849860848667"><ele>763.0</ele><time>2026-05-01T12:09:35Z</time></trkpt><trkpt lat="42.39120912668618" lon="12.194041803288778"><ele>763.0</ele><time>2026-05-01T12:09:36Z</time></trkpt><trkpt lat="42.39121001861147" lon="12.194193690004685"><ele>763.0</ele><time>2026-05-01T12:09:37Z</time></trkpt><trkpt lat="42.39119511296712" lon="12.194314901297831"><ele>763.8</ele><time>2026-05-01T12:09:38Z</time></trkpt><trkpt lat="42.39124121730923" lon="12.19445636361194"><ele>764.5999999999999</ele><time>2026-05-01T12:09:40Z</time></trkpt><trkpt lat="42.391367559036695" lon="12.194491965642854"><ele>765.4000000000001</ele><time>2026-05-01T12:09:42Z</time></trkpt><trkpt lat="42.39144994271195" lon="12.194491357404145"><ele>766.2</ele><time>2026-05-01T12:09:43Z</time></trkpt><trkpt lat="42.391545359878435" lon="12.19453279622737"><ele>767.0</ele><time>2026-05-01T12:09:44Z</time></trkpt><trkpt lat="42.391666008881856" lon="12.194587744762003"><ele>767.75</ele><time>2026-05-01T12:09:45Z</time></trkpt><trkpt lat="42.39179502060797" lon="12.194634872151937"><ele>768.5</ele><time>2026-05-01T12:09:46Z</time></trkpt><trkpt lat="42.391931530265396" lon="12.194704899015656"><ele>769.25</ele><time>2026-05-01T12:09:47Z</time></trkpt><trkpt lat="42.392076025549706" lon="12.194773502515334"><ele>770.0</ele><time>2026-05-01T12:09:47.998Z</time></trkpt><trkpt lat="42.39222660147252" lon="12.19484429586263"><ele>773.6666666666667</ele><time>2026-05-01T12:09:48.998Z</time></trkpt><trkpt lat="42.3923877148084" lon="12.194911448297278"><ele>777.3333333333333</ele><time>2026-05-01T12:09:49.998Z</time></trkpt><trkpt lat="42.392546030547244" lon="12.19496788259536"><ele>781.0</ele><time>2026-05-01T12:09:50.998Z</time></trkpt><trkpt lat="42.39270481758303" lon="12.19499893988438"><ele>781.0</ele><time>2026-05-01T12:09:51.998Z</time></trkpt><trkpt lat="42.39287623899116" lon="12.195016758414809"><ele>781.0</ele><time>2026-05-01T12:09:52.998Z</time></trkpt><trkpt lat="42.39308025801568" lon="12.195032115653603"><ele>781.0</ele><time>2026-05-01T12:09:53.999Z</time></trkpt><trkpt lat="42.393264565623895" lon="12.19506671234933"><ele>781.0</ele><time>2026-05-01T12:09:54.998Z</time></trkpt><trkpt lat="42.39343725440872" lon="12.195101673866917"><ele>781.0</ele><time>2026-05-01T12:09:55.999Z</time></trkpt><trkpt lat="42.393590438406484" lon="12.195129232150752"><ele>781.0</ele><time>2026-05-01T12:09:56.999Z</time></trkpt><trkpt lat="42.39372940772699" lon="12.195151335644265"><ele>781.5</ele><time>2026-05-01T12:09:57.999Z</time></trkpt><trkpt lat="42.393863563581945" lon="12.195136886924095"><ele>782.0</ele><time>2026-05-01T12:09:58.999Z</time></trkpt><trkpt lat="42.39399492712039" lon="12.195076892871537"><ele>782.5</ele><time>2026-05-01T12:09:59.999Z</time></trkpt><trkpt lat="42.394122920222514" lon="12.194988385227765"><ele>783.0</ele><time>2026-05-01T12:10:00.999Z</time></trkpt><trkpt lat="42.39426422473208" lon="12.194866705859903"><ele>781.6666666666667</ele><time>2026-05-01T12:10:01.999Z</time></trkpt><trkpt lat="42.39440600929002" lon="12.194744027299404"><ele>780.3333333333334</ele><time>2026-05-01T12:10:02.999Z</time></trkpt><trkpt lat="42.394541031109085" lon="12.194626040812485"><ele>779.0</ele><time>2026-05-01T12:10:03.999Z</time></trkpt><trkpt lat="42.39465772521775" lon="12.194519406936125"><ele>780.5</ele><time>2026-05-01T12:10:04.999Z</time></trkpt><trkpt lat="42.39475958775628" lon="12.194412330829813"><ele>782.0</ele><time>2026-05-01T12:10:05.999Z</time></trkpt><trkpt lat="42.39485828497579" lon="12.194300360152482"><ele>783.5</ele><time>2026-05-01T12:10:06.999Z</time></trkpt><trkpt lat="42.39494407779091" lon="12.19417369220373"><ele>785.0</ele><time>2026-05-01T12:10:07.999Z</time></trkpt><trkpt lat="42.39503000694342" lon="12.194053577143235"><ele>783.25</ele><time>2026-05-01T12:10:08.999Z</time></trkpt><trkpt lat="42.3951304981358" lon="12.193954376507813"><ele>781.5</ele><time>2026-05-01T12:10:09.999Z</time></trkpt><trkpt lat="42.39524579112555" lon="12.193854400943724"><ele>779.75</ele><time>2026-05-01T12:10:10.999Z</time></trkpt><trkpt lat="42.39537537056062" lon="12.193756580303855"><ele>778.0</ele><time>2026-05-01T12:10:11.999Z</time></trkpt><trkpt lat="42.39551003911431" lon="12.19365398066843"><ele>778.0</ele><time>2026-05-01T12:10:12.999Z</time></trkpt><trkpt lat="42.395640254259575" lon="12.193555092818208"><ele>778.0</ele><time>2026-05-01T12:10:13.999Z</time></trkpt><trkpt lat="42.39576473490345" lon="12.19348688205475"><ele>778.0</ele><time>2026-05-01T12:10:14.999Z</time></trkpt><trkpt lat="42.39589088916541" lon="12.193459175722639"><ele>778.0</ele><time>2026-05-01T12:10:15.999Z</time></trkpt><trkpt lat="42.39602730434687" lon="12.193460436680814"><ele>778.0</ele><time>2026-05-01T12:10:16.999Z</time></trkpt><trkpt lat="42.396172802304406" lon="12.193506046283153"><ele>778.0</ele><time>2026-05-01T12:10:17.999Z</time></trkpt><trkpt lat="42.39632148916984" lon="12.193569094849368"><ele>778.0</ele><time>2026-05-01T12:10:18.999Z</time></trkpt><trkpt lat="42.396463347944" lon="12.193565654329447"><ele>778.0</ele><time>2026-05-01T12:10:19.999Z</time></trkpt><trkpt lat="42.396612755923634" lon="12.193539355623495"><ele>777.3333333333333</ele><time>2026-05-01T12:10:20.999Z</time></trkpt><trkpt lat="42.396749549786605" lon="12.193465911443441"><ele>776.6666666666667</ele><time>2026-05-01T12:10:22Z</time></trkpt><trkpt lat="42.39686933792938" lon="12.193344881009207"><ele>776.0</ele><time>2026-05-01T12:10:23Z</time></trkpt><trkpt lat="42.39697005868165" lon="12.193186679128411"><ele>776.25</ele><time>2026-05-01T12:10:24Z</time></trkpt><trkpt lat="42.397060156583194" lon="12.193021682993564"><ele>776.5</ele><time>2026-05-01T12:10:25Z</time></trkpt><trkpt lat="42.39717532951382" lon="12.192893519042125"><ele>776.75</ele><time>2026-05-01T12:10:26Z</time></trkpt><trkpt lat="42.397308701755186" lon="12.192824992171175"><ele>777.0</ele><time>2026-05-01T12:10:27Z</time></trkpt><trkpt lat="42.39745072002441" lon="12.192763107257385"><ele>777.0</ele><time>2026-05-01T12:10:28Z</time></trkpt><trkpt lat="42.39759342115502" lon="12.19269448699877"><ele>777.0</ele><time>2026-05-01T12:10:29Z</time></trkpt><trkpt lat="42.397734322352214" lon="12.192631156644756"><ele>777.0</ele><time>2026-05-01T12:10:30Z</time></trkpt><trkpt lat="42.397878584794405" lon="12.19257115892347"><ele>776.0</ele><time>2026-05-01T12:10:31Z</time></trkpt><trkpt lat="42.39801625321143" lon="12.192507980230042"><ele>775.0</ele><time>2026-05-01T12:10:32Z</time></trkpt><trkpt lat="42.398152805662185" lon="12.192443510838624"><ele>774.0</ele><time>2026-05-01T12:10:33Z</time></trkpt><trkpt lat="42.39829259110879" lon="12.192391165760977"><ele>773.0</ele><time>2026-05-01T12:10:34Z</time></trkpt><trkpt lat="42.39843534584205" lon="12.192347787852572"><ele>772.25</ele><time>2026-05-01T12:10:35Z</time></trkpt><trkpt lat="42.39858071736729" lon="12.192313378586434"><ele>771.5</ele><time>2026-05-01T12:10:36Z</time></trkpt><trkpt lat="42.398727655696746" lon="12.192284901171991"><ele>770.75</ele><time>2026-05-01T12:10:37Z</time></trkpt><trkpt lat="42.39887102720557" lon="12.192264429978918"><ele>770.0</ele><time>2026-05-01T12:10:38Z</time></trkpt><trkpt lat="42.399016279210976" lon="12.192247231575662"><ele>770.0</ele><time>2026-05-01T12:10:39Z</time></trkpt><trkpt lat="42.39916784618593" lon="12.192217536063444"><ele>770.0</ele><time>2026-05-01T12:10:40Z</time></trkpt><trkpt lat="42.399317647199936" lon="12.192186622676397"><ele>770.0</ele><time>2026-05-01T12:10:41Z</time></trkpt><trkpt lat="42.399468909341635" lon="12.192153568255224"><ele>770.0</ele><time>2026-05-01T12:10:42Z</time></trkpt><trkpt lat="42.399617457251495" lon="12.192116764554575"><ele>770.0</ele><time>2026-05-01T12:10:43Z</time></trkpt><trkpt lat="42.39976688901646" lon="12.19205945565472"><ele>770.0</ele><time>2026-05-01T12:10:44Z</time></trkpt><trkpt lat="42.3999163630829" lon="12.191988820164717"><ele>769.3333333333334</ele><time>2026-05-01T12:10:45Z</time></trkpt><trkpt lat="42.40006463379161" lon="12.191907229489772"><ele>768.6666666666667</ele><time>2026-05-01T12:10:46Z</time></trkpt><trkpt lat="42.40020572934465" lon="12.191801587736341"><ele>768.0</ele><time>2026-05-01T12:10:47Z</time></trkpt><trkpt lat="42.40033930036681" lon="12.191666638417425"><ele>768.0</ele><time>2026-05-01T12:10:48Z</time></trkpt><trkpt lat="42.400474110651984" lon="12.191515263364405"><ele>768.0</ele><time>2026-05-01T12:10:49Z</time></trkpt><trkpt lat="42.400613824278246" lon="12.191369311849103"><ele>768.0</ele><time>2026-05-01T12:10:50Z</time></trkpt><trkpt lat="42.40077511368319" lon="12.191262421609892"><ele>769.0</ele><time>2026-05-01T12:10:51Z</time></trkpt><trkpt lat="42.40094375893557" lon="12.191220950547804"><ele>770.0</ele><time>2026-05-01T12:10:52Z</time></trkpt><trkpt lat="42.401099595576355" lon="12.191218523707397"><ele>771.0</ele><time>2026-05-01T12:10:53Z</time></trkpt><trkpt lat="42.40124264216498" lon="12.19125677981464"><ele>770.5999999999999</ele><time>2026-05-01T12:10:54Z</time></trkpt><trkpt lat="42.401364631504855" lon="12.191268145492863"><ele>770.2</ele><time>2026-05-01T12:10:55Z</time></trkpt><trkpt lat="42.40144236318056" lon="12.191220776117817"><ele>769.8</ele><time>2026-05-01T12:10:56Z</time></trkpt><trkpt lat="42.40154397168784" lon="12.19116083742105"><ele>769.4000000000001</ele><time>2026-05-01T12:10:57Z</time></trkpt><trkpt lat="42.40164484783794" lon="12.191107391521841"><ele>769.0</ele><time>2026-05-01T12:10:58Z</time></trkpt><trkpt lat="42.40175667078051" lon="12.190970325091897"><ele>769.0</ele><time>2026-05-01T12:10:59Z</time></trkpt><trkpt lat="42.401855072929955" lon="12.190844402376777"><ele>769.0</ele><time>2026-05-01T12:11:00Z</time></trkpt><trkpt lat="42.40196586304814" lon="12.19071007185453"><ele>769.0</ele><time>2026-05-01T12:11:01Z</time></trkpt><trkpt lat="42.40204170076227" lon="12.190555570213705"><ele>769.0</ele><time>2026-05-01T12:11:02Z</time></trkpt><trkpt lat="42.40209576007536" lon="12.190400922383294"><ele>766.8000000000001</ele><time>2026-05-01T12:11:03Z</time></trkpt><trkpt lat="42.40217124443418" lon="12.190289097965989"><ele>764.6</ele><time>2026-05-01T12:11:04Z</time></trkpt><trkpt lat="42.402269415129844" lon="12.190207495015219"><ele>762.4</ele><time>2026-05-01T12:11:05Z</time></trkpt><trkpt lat="42.402379086183906" lon="12.190187495491395"><ele>760.2</ele><time>2026-05-01T12:11:06Z</time></trkpt><trkpt lat="42.402470005400225" lon="12.190173857258781"><ele>758.0</ele><time>2026-05-01T12:11:07Z</time></trkpt><trkpt lat="42.402523300440336" lon="12.190097338838207"><ele>758.0</ele><time>2026-05-01T12:11:08Z</time></trkpt><trkpt lat="42.40251494033076" lon="12.189980510043807"><ele>758.0</ele><time>2026-05-01T12:11:09Z</time></trkpt><trkpt lat="42.40246148004224" lon="12.189868714088517"><ele>758.0</ele><time>2026-05-01T12:11:10Z</time></trkpt><trkpt lat="42.40240553987911" lon="12.189738905833813"><ele>758.0</ele><time>2026-05-01T12:11:11Z</time></trkpt><trkpt lat="42.402395798054016" lon="12.189586316195603"><ele>758.0</ele><time>2026-05-01T12:11:12Z</time></trkpt><trkpt lat="42.402437761709365" lon="12.189428967001858"><ele>757.0</ele><time>2026-05-01T12:11:13Z</time></trkpt><trkpt lat="42.40251216800668" lon="12.189273829383868"><ele>756.0</ele><time>2026-05-01T12:11:14Z</time></trkpt><trkpt lat="42.402603383908705" lon="12.189142626266907"><ele>755.0</ele><time>2026-05-01T12:11:15Z</time></trkpt><trkpt lat="42.4027126519184" lon="12.189049018931538"><ele>754.0</ele><time>2026-05-01T12:11:16Z</time></trkpt><trkpt lat="42.40284891927365" lon="12.188973766475309"><ele>747.3333333333334</ele><time>2026-05-01T12:11:17Z</time></trkpt><trkpt lat="42.40301219222225" lon="12.188908736021297"><ele>740.6666666666666</ele><time>2026-05-01T12:11:18Z</time></trkpt><trkpt lat="42.403191049803134" lon="12.188810787005817"><ele>734.0</ele><time>2026-05-01T12:11:19Z</time></trkpt><trkpt lat="42.403386842257774" lon="12.188677936483716"><ele>734.0</ele><time>2026-05-01T12:11:20Z</time></trkpt><trkpt lat="42.40359757499509" lon="12.188539888112034"><ele>734.0</ele><time>2026-05-01T12:11:21Z</time></trkpt><trkpt lat="42.403797642597624" lon="12.188411347160676"><ele>733.0</ele><time>2026-05-01T12:11:22Z</time></trkpt><trkpt lat="42.403974982881216" lon="12.188300171224093"><ele>732.0</ele><time>2026-05-01T12:11:23.001Z</time></trkpt><trkpt lat="42.404144716816695" lon="12.18821198113457"><ele>731.0</ele><time>2026-05-01T12:11:24.001Z</time></trkpt><trkpt lat="42.40428659937074" lon="12.188146968178033"><ele>730.0</ele><time>2026-05-01T12:11:25.001Z</time></trkpt><trkpt lat="42.40440951492023" lon="12.188106674929058"><ele>729.0</ele><time>2026-05-01T12:11:26.001Z</time></trkpt><trkpt lat="42.40452265836903" lon="12.188084675562086"><ele>728.0</ele><time>2026-05-01T12:11:27.001Z</time></trkpt><trkpt lat="42.40463121675088" lon="12.188125005380007"><ele>727.0</ele><time>2026-05-01T12:11:28.001Z</time></trkpt><trkpt lat="42.40473499681796" lon="12.188228698963995"><ele>726.5</ele><time>2026-05-01T12:11:29.001Z</time></trkpt><trkpt lat="42.40482205002853" lon="12.188369472003835"><ele>726.0</ele><time>2026-05-01T12:11:30.001Z</time></trkpt><trkpt lat="42.4049314841448" lon="12.188499406792495"><ele>725.5</ele><time>2026-05-01T12:11:31.001Z</time></trkpt><trkpt lat="42.40505031585489" lon="12.188636669015253"><ele>725.0</ele><time>2026-05-01T12:11:32.001Z</time></trkpt><trkpt lat="42.405156623341654" lon="12.188762534990833"><ele>725.0</ele><time>2026-05-01T12:11:33.001Z</time></trkpt><trkpt lat="42.405254059497004" lon="12.188868073107898"><ele>725.0</ele><time>2026-05-01T12:11:34.001Z</time></trkpt><trkpt lat="42.40533010564566" lon="12.188943268504849"><ele>725.0</ele><time>2026-05-01T12:11:35.001Z</time></trkpt><trkpt lat="42.40540124295969" lon="12.188998452807224"><ele>725.0</ele><time>2026-05-01T12:11:36.001Z</time></trkpt><trkpt lat="42.40546540153575" lon="12.189027122590197"><ele>725.0</ele><time>2026-05-01T12:11:37.001Z</time></trkpt><trkpt lat="42.40558615160752" lon="12.189089117101565"><ele>726.75</ele><time>2026-05-01T12:11:39.001Z</time></trkpt><trkpt lat="42.405694823871215" lon="12.189117369164276"><ele>728.5</ele><time>2026-05-01T12:11:40.001Z</time></trkpt><trkpt lat="42.40580085213748" lon="12.189154602473927"><ele>730.25</ele><time>2026-05-01T12:11:41.001Z</time></trkpt><trkpt lat="42.40591380549957" lon="12.189202279897046"><ele>732.0</ele><time>2026-05-01T12:11:42.001Z</time></trkpt><trkpt lat="42.406043112522966" lon="12.189267695587366"><ele>732.0</ele><time>2026-05-01T12:11:43.001Z</time></trkpt><trkpt lat="42.40618225414176" lon="12.189355727848206"><ele>732.0</ele><time>2026-05-01T12:11:44.001Z</time></trkpt><trkpt lat="42.406326809732896" lon="12.189445116750758"><ele>732.0</ele><time>2026-05-01T12:11:45.001Z</time></trkpt><trkpt lat="42.406483696372675" lon="12.189528492786826"><ele>727.0</ele><time>2026-05-01T12:11:46.001Z</time></trkpt><trkpt lat="42.40662845459819" lon="12.189597581788883"><ele>722.0</ele><time>2026-05-01T12:11:47.001Z</time></trkpt><trkpt lat="42.40678668814172" lon="12.189644455855381"><ele>717.0</ele><time>2026-05-01T12:11:48.001Z</time></trkpt><trkpt lat="42.406949705833846" lon="12.189658971207392"><ele>717.0</ele><time>2026-05-01T12:11:49.001Z</time></trkpt><trkpt lat="42.40709908860079" lon="12.18965479277099"><ele>717.0</ele><time>2026-05-01T12:11:50.001Z</time></trkpt><trkpt lat="42.40723694719945" lon="12.189635916500565"><ele>717.0</ele><time>2026-05-01T12:11:51.001Z</time></trkpt><trkpt lat="42.407353424817714" lon="12.189607316943436"><ele>717.0</ele><time>2026-05-01T12:11:52.001Z</time></trkpt><trkpt lat="42.407454442225244" lon="12.189551597604341"><ele>716.75</ele><time>2026-05-01T12:11:53.001Z</time></trkpt><trkpt lat="42.407547505110706" lon="12.189441361372602"><ele>716.5</ele><time>2026-05-01T12:11:54Z</time></trkpt><trkpt lat="42.40762137086401" lon="12.189293318431492"><ele>716.25</ele><time>2026-05-01T12:11:55Z</time></trkpt><trkpt lat="42.40770127842527" lon="12.189148896275087"><ele>716.0</ele><time>2026-05-01T12:11:56Z</time></trkpt><trkpt lat="42.407810903006585" lon="12.18906769371845"><ele>716.0</ele><time>2026-05-01T12:11:57Z</time></trkpt><trkpt lat="42.40794114034582" lon="12.189016268970377"><ele>716.0</ele><time>2026-05-01T12:11:58Z</time></trkpt><trkpt lat="42.40809899969056" lon="12.189008078752234"><ele>716.0</ele><time>2026-05-01T12:11:59Z</time></trkpt><trkpt lat="42.40827110858087" lon="12.18899606058262"><ele>713.3333333333333</ele><time>2026-05-01T12:12:00Z</time></trkpt><trkpt lat="42.40846193554879" lon="12.188954245645709"><ele>710.6666666666666</ele><time>2026-05-01T12:12:01Z</time></trkpt><trkpt lat="42.40866131213563" lon="12.1888973308781"><ele>708.0</ele><time>2026-05-01T12:12:02Z</time></trkpt><trkpt lat="42.40886065635937" lon="12.188831985658293"><ele>704.3333333333334</ele><time>2026-05-01T12:12:03Z</time></trkpt><trkpt lat="42.40906085275782" lon="12.188764918446905"><ele>700.6666666666667</ele><time>2026-05-01T12:12:04Z</time></trkpt><trkpt lat="42.40925282880589" lon="12.188700543188116"><ele>697.0</ele><time>2026-05-01T12:12:05Z</time></trkpt><trkpt lat="42.40942746688907" lon="12.18864560444445"><ele>697.0</ele><time>2026-05-01T12:12:06Z</time></trkpt><trkpt lat="42.40959610745799" lon="12.188565777255846"><ele>697.0</ele><time>2026-05-01T12:12:07Z</time></trkpt><trkpt lat="42.40975158633419" lon="12.188461497926376"><ele>697.0</ele><time>2026-05-01T12:12:08Z</time></trkpt><trkpt lat="42.40993089307956" lon="12.188345848097935"><ele>695.6666666666667</ele><time>2026-05-01T12:12:09Z</time></trkpt><trkpt lat="42.41012862309252" lon="12.18825882853034"><ele>694.3333333333334</ele><time>2026-05-01T12:12:10Z</time></trkpt><trkpt lat="42.41031108274897" lon="12.188181671132634"><ele>693.0</ele><time>2026-05-01T12:12:11Z</time></trkpt><trkpt lat="42.410449488408815" lon="12.188101062290805"><ele>691.5999999999999</ele><time>2026-05-01T12:12:12Z</time></trkpt><trkpt lat="42.41055115947617" lon="12.188029343022322"><ele>690.1999999999999</ele><time>2026-05-01T12:12:13Z</time></trkpt><trkpt lat="42.41062316927124" lon="12.187942151349606"><ele>688.8</ele><time>2026-05-01T12:12:14Z</time></trkpt><trkpt lat="42.41068691044961" lon="12.18781245018753"><ele>687.4</ele><time>2026-05-01T12:12:15Z</time></trkpt><trkpt lat="42.410748920141785" lon="12.187670905431432"><ele>686.0</ele><time>2026-05-01T12:12:16Z</time></trkpt><trkpt lat="42.410826914396054" lon="12.187541190054008"><ele>686.0</ele><time>2026-05-01T12:12:17Z</time></trkpt><trkpt lat="42.410899007022344" lon="12.18743692585129"><ele>686.0</ele><time>2026-05-01T12:12:18Z</time></trkpt><trkpt lat="42.41097098326603" lon="12.187362954468563"><ele>686.0</ele><time>2026-05-01T12:12:19Z</time></trkpt><trkpt lat="42.411061562020464" lon="12.187323108706861"><ele>686.0</ele><time>2026-05-01T12:12:20Z</time></trkpt><trkpt lat="42.41117154131529" lon="12.187328783177987"><ele>686.0</ele><time>2026-05-01T12:12:21Z</time></trkpt><trkpt lat="42.411287193026794" lon="12.187395459427934"><ele>686.1999999999999</ele><time>2026-05-01T12:12:22Z</time></trkpt><trkpt lat="42.411396442428924" lon="12.187431142168125"><ele>686.4</ele><time>2026-05-01T12:12:23Z</time></trkpt><trkpt lat="42.411462627665635" lon="12.187336752883178"><ele>686.6</ele><time>2026-05-01T12:12:24Z</time></trkpt><trkpt lat="42.4115535010221" lon="12.187258143119125"><ele>686.8</ele><time>2026-05-01T12:12:25Z</time></trkpt><trkpt lat="42.411635953321166" lon="12.187130856122792"><ele>687.0</ele><time>2026-05-01T12:12:26Z</time></trkpt><trkpt lat="42.41173058368875" lon="12.187004004487575"><ele>683.5</ele><time>2026-05-01T12:12:27Z</time></trkpt><trkpt lat="42.4118249176035" lon="12.186892640160108"><ele>680.0</ele><time>2026-05-01T12:12:28Z</time></trkpt><trkpt lat="42.41193088253714" lon="12.18680719859696"><ele>676.5</ele><time>2026-05-01T12:12:29Z</time></trkpt><trkpt lat="42.41204421192415" lon="12.18675111386189"><ele>673.0</ele><time>2026-05-01T12:12:30Z</time></trkpt><trkpt lat="42.41216305942741" lon="12.186734837312716"><ele>673.0</ele><time>2026-05-01T12:12:31Z</time></trkpt><trkpt lat="42.412291518105" lon="12.186742651734079"><ele>673.0</ele><time>2026-05-01T12:12:32Z</time></trkpt><trkpt lat="42.41242305338564" lon="12.186754329125948"><ele>673.0</ele><time>2026-05-01T12:12:33Z</time></trkpt><trkpt lat="42.41256354400575" lon="12.186801770064973"><ele>673.0</ele><time>2026-05-01T12:12:34Z</time></trkpt><trkpt lat="42.41271328070264" lon="12.186850923894657"><ele>673.0</ele><time>2026-05-01T12:12:35Z</time></trkpt><trkpt lat="42.41287583635378" lon="12.186909683973335"><ele>673.0</ele><time>2026-05-01T12:12:36Z</time></trkpt><trkpt lat="42.41305124700304" lon="12.186963242274214"><ele>673.0</ele><time>2026-05-01T12:12:37Z</time></trkpt><trkpt lat="42.41322703448927" lon="12.187021220006676"><ele>673.0</ele><time>2026-05-01T12:12:38Z</time></trkpt><trkpt lat="42.41341017007685" lon="12.187072149985447"><ele>673.0</ele><time>2026-05-01T12:12:39Z</time></trkpt><trkpt lat="42.41360594254434" lon="12.187134551295117"><ele>673.0</ele><time>2026-05-01T12:12:40Z</time></trkpt><trkpt lat="42.41379831313159" lon="12.187198506083305"><ele>674.0</ele><time>2026-05-01T12:12:41Z</time></trkpt><trkpt lat="42.41398306067485" lon="12.187271319556368"><ele>675.0</ele><time>2026-05-01T12:12:42Z</time></trkpt><trkpt lat="42.414157620121685" lon="12.187345747637735"><ele>676.0</ele><time>2026-05-01T12:12:43Z</time></trkpt><trkpt lat="42.414329510732614" lon="12.187410357317189"><ele>676.0</ele><time>2026-05-01T12:12:44Z</time></trkpt><trkpt lat="42.41450177325436" lon="12.18747499036973"><ele>676.0</ele><time>2026-05-01T12:12:45Z</time></trkpt><trkpt lat="42.414674698994475" lon="12.187540902470536"><ele>676.0</ele><time>2026-05-01T12:12:46Z</time></trkpt><trkpt lat="42.41484977332169" lon="12.187593067916163"><ele>676.0</ele><time>2026-05-01T12:12:47Z</time></trkpt><trkpt lat="42.415022182027805" lon="12.187624647735111"><ele>676.0</ele><time>2026-05-01T12:12:48Z</time></trkpt><trkpt lat="42.415190691392084" lon="12.187649080847448"><ele>676.0</ele><time>2026-05-01T12:12:49Z</time></trkpt><trkpt lat="42.41535088943005" lon="12.187677404064363"><ele>675.3333333333334</ele><time>2026-05-01T12:12:50Z</time></trkpt><trkpt lat="42.41551835636858" lon="12.187722588597916"><ele>674.6666666666666</ele><time>2026-05-01T12:12:51Z</time></trkpt><trkpt lat="42.415692149959774" lon="12.187807004634768"><ele>674.0</ele><time>2026-05-01T12:12:52.001Z</time></trkpt><trkpt lat="42.41584273511817" lon="12.187900508479428"><ele>674.0</ele><time>2026-05-01T12:12:53.001Z</time></trkpt><trkpt lat="42.415981741487926" lon="12.188037071680638"><ele>674.0</ele><time>2026-05-01T12:12:54.001Z</time></trkpt><trkpt lat="42.41609399394757" lon="12.188194663606689"><ele>674.0</ele><time>2026-05-01T12:12:55.001Z</time></trkpt><trkpt lat="42.416206281620006" lon="12.188370264691567"><ele>671.3333333333333</ele><time>2026-05-01T12:12:56.001Z</time></trkpt><trkpt lat="42.41633032854656" lon="12.18852983147446"><ele>668.6666666666666</ele><time>2026-05-01T12:12:57.001Z</time></trkpt><trkpt lat="42.41648318954368" lon="12.188664134604302"><ele>666.0</ele><time>2026-05-01T12:12:58.001Z</time></trkpt><trkpt lat="42.41664954452201" lon="12.188809108553189"><ele>666.0</ele><time>2026-05-01T12:12:59.001Z</time></trkpt><trkpt lat="42.41682317294684" lon="12.188958942481328"><ele>666.0</ele><time>2026-05-01T12:13:00.001Z</time></trkpt><trkpt lat="42.41701749379308" lon="12.18910685717431"><ele>666.0</ele><time>2026-05-01T12:13:01.001Z</time></trkpt><trkpt lat="42.417202393953595" lon="12.189253910692175"><ele>662.3333333333334</ele><time>2026-05-01T12:13:02.001Z</time></trkpt><trkpt lat="42.4173751393104" lon="12.189404636698864"><ele>658.6666666666667</ele><time>2026-05-01T12:13:03.001Z</time></trkpt><trkpt lat="42.41752729011405" lon="12.189533990612711"><ele>655.0</ele><time>2026-05-01T12:13:04.001Z</time></trkpt><trkpt lat="42.41766192459549" lon="12.189634236842686"><ele>655.0</ele><time>2026-05-01T12:13:05.001Z</time></trkpt><trkpt lat="42.41778083262672" lon="12.189726084500423"><ele>655.0</ele><time>2026-05-01T12:13:06.001Z</time></trkpt><trkpt lat="42.417897275594456" lon="12.189810359229549"><ele>655.0</ele><time>2026-05-01T12:13:07.001Z</time></trkpt><trkpt lat="42.41801419457905" lon="12.189865492602788"><ele>655.0</ele><time>2026-05-01T12:13:08.001Z</time></trkpt><trkpt lat="42.418121231254034" lon="12.189860098982798"><ele>656.0</ele><time>2026-05-01T12:13:09.001Z</time></trkpt><trkpt lat="42.41824507919514" lon="12.189779331675092"><ele>657.0</ele><time>2026-05-01T12:13:10.001Z</time></trkpt><trkpt lat="42.418383499145705" lon="12.189716001600475"><ele>658.0</ele><time>2026-05-01T12:13:11.001Z</time></trkpt><trkpt lat="42.418541416612115" lon="12.189671032229384"><ele>659.0</ele><time>2026-05-01T12:13:12.001Z</time></trkpt><trkpt lat="42.418708757257114" lon="12.189627637378015"><ele>657.0</ele><time>2026-05-01T12:13:13.001Z</time></trkpt><trkpt lat="42.41886977333593" lon="12.189580342103293"><ele>655.0</ele><time>2026-05-01T12:13:14.001Z</time></trkpt><trkpt lat="42.41901733389281" lon="12.18951759438935"><ele>653.0</ele><time>2026-05-01T12:13:15.001Z</time></trkpt><trkpt lat="42.419163132933264" lon="12.189482522009254"><ele>653.0</ele><time>2026-05-01T12:13:16.001Z</time></trkpt><trkpt lat="42.419299636573065" lon="12.189489276937204"><ele>653.0</ele><time>2026-05-01T12:13:17.001Z</time></trkpt><trkpt lat="42.41944587036025" lon="12.189502611571044"><ele>653.0</ele><time>2026-05-01T12:13:18.001Z</time></trkpt><trkpt lat="42.41962284518392" lon="12.189474103211547"><ele>649.0</ele><time>2026-05-01T12:13:19.001Z</time></trkpt><trkpt lat="42.419782367474696" lon="12.189446834897991"><ele>645.0</ele><time>2026-05-01T12:13:20.001Z</time></trkpt><trkpt lat="42.41993840429845" lon="12.189389087146331"><ele>641.0</ele><time>2026-05-01T12:13:21.001Z</time></trkpt><trkpt lat="42.420127968896566" lon="12.189325415650691"><ele>641.0</ele><time>2026-05-01T12:13:22.001Z</time></trkpt><trkpt lat="42.4202877273708" lon="12.189303680963315"><ele>641.0</ele><time>2026-05-01T12:13:23.001Z</time></trkpt><trkpt lat="42.42046271787608" lon="12.189300997626653"><ele>641.0</ele><time>2026-05-01T12:13:24.001Z</time></trkpt><trkpt lat="42.42063154807944" lon="12.189293026761234"><ele>636.6666666666666</ele><time>2026-05-01T12:13:25.001Z</time></trkpt><trkpt lat="42.42077845288906" lon="12.189287333713317"><ele>632.3333333333334</ele><time>2026-05-01T12:13:26.001Z</time></trkpt><trkpt lat="42.420929289274945" lon="12.189277042104374"><ele>628.0</ele><time>2026-05-01T12:13:27.001Z</time></trkpt><trkpt lat="42.421078404084675" lon="12.189232305549034"><ele>628.0</ele><time>2026-05-01T12:13:28.001Z</time></trkpt><trkpt lat="42.42121950837331" lon="12.189164666890276"><ele>628.0</ele><time>2026-05-01T12:13:29.001Z</time></trkpt><trkpt lat="42.42136286753479" lon="12.189071721853008"><ele>628.0</ele><time>2026-05-01T12:13:30.001Z</time></trkpt><trkpt lat="42.4215248439467" lon="12.189005578994479"><ele>630.0</ele><time>2026-05-01T12:13:31.001Z</time></trkpt><trkpt lat="42.42169318810278" lon="12.188970436431742"><ele>632.0</ele><time>2026-05-01T12:13:32.001Z</time></trkpt><trkpt lat="42.42187749545583" lon="12.188920170859184"><ele>634.0</ele><time>2026-05-01T12:13:33.001Z</time></trkpt><trkpt lat="42.42204352231231" lon="12.18887994238267"><ele>629.3333333333334</ele><time>2026-05-01T12:13:34.001Z</time></trkpt><trkpt lat="42.422194801797254" lon="12.188849761919727"><ele>624.6666666666666</ele><time>2026-05-01T12:13:35.001Z</time></trkpt><trkpt lat="42.42235072713099" lon="12.188868536064534"><ele>620.0</ele><time>2026-05-01T12:13:36.001Z</time></trkpt><trkpt lat="42.42250022812845" lon="12.188902518769911"><ele>620.0</ele><time>2026-05-01T12:13:37.001Z</time></trkpt><trkpt lat="42.42265443839376" lon="12.188962040609162"><ele>620.0</ele><time>2026-05-01T12:13:38.001Z</time></trkpt><trkpt lat="42.42280445844467" lon="12.189029119127637"><ele>620.0</ele><time>2026-05-01T12:13:39.001Z</time></trkpt><trkpt lat="42.42295226654995" lon="12.189068553719704"><ele>610.3333333333333</ele><time>2026-05-01T12:13:40.001Z</time></trkpt><trkpt lat="42.42309049251527" lon="12.189074014508709"><ele>600.6666666666666</ele><time>2026-05-01T12:13:41.001Z</time></trkpt><trkpt lat="42.42324685833068" lon="12.189083750637687"><ele>591.0</ele><time>2026-05-01T12:13:42.001Z</time></trkpt><trkpt lat="42.423406449125835" lon="12.189052207838628"><ele>591.6666666666666</ele><time>2026-05-01T12:13:43.001Z</time></trkpt><trkpt lat="42.423576605986675" lon="12.188993543909735"><ele>592.3333333333333</ele><time>2026-05-01T12:13:44.001Z</time></trkpt><trkpt lat="42.423750167420806" lon="12.188922166426847"><ele>593.0</ele><time>2026-05-01T12:13:45.001Z</time></trkpt><trkpt lat="42.42393772431107" lon="12.188841951335354"><ele>593.0</ele><time>2026-05-01T12:13:46.001Z</time></trkpt><trkpt lat="42.42412238148647" lon="12.188731117211507"><ele>593.0</ele><time>2026-05-01T12:13:47.001Z</time></trkpt><trkpt lat="42.42430271597886" lon="12.188621988429496"><ele>593.0</ele><time>2026-05-01T12:13:48.001Z</time></trkpt><trkpt lat="42.42450396592453" lon="12.188494371751975"><ele>590.3333333333333</ele><time>2026-05-01T12:13:49.001Z</time></trkpt><trkpt lat="42.42470394495892" lon="12.188374528884344"><ele>587.6666666666666</ele><time>2026-05-01T12:13:50.001Z</time></trkpt><trkpt lat="42.42490014762097" lon="12.188227142355593"><ele>585.0</ele><time>2026-05-01T12:13:51.001Z</time></trkpt><trkpt lat="42.42510595068225" lon="12.188098225769117"><ele>585.0</ele><time>2026-05-01T12:13:52.001Z</time></trkpt><trkpt lat="42.425308885459394" lon="12.187969523885007"><ele>585.0</ele><time>2026-05-01T12:13:53.001Z</time></trkpt><trkpt lat="42.42551360644899" lon="12.187850119095597"><ele>585.0</ele><time>2026-05-01T12:13:54.001Z</time></trkpt><trkpt lat="42.42572089633329" lon="12.18772700791062"><ele>581.3333333333334</ele><time>2026-05-01T12:13:55.001Z</time></trkpt><trkpt lat="42.42591641865385" lon="12.187595202899963"><ele>577.6666666666667</ele><time>2026-05-01T12:13:56.001Z</time></trkpt><trkpt lat="42.426116380094804" lon="12.18746807489831"><ele>574.0</ele><time>2026-05-01T12:13:57.001Z</time></trkpt><trkpt lat="42.426306060297165" lon="12.18732844712566"><ele>572.0</ele><time>2026-05-01T12:13:58.001Z</time></trkpt><trkpt lat="42.42650292291289" lon="12.187184207539712"><ele>570.0</ele><time>2026-05-01T12:13:59.001Z</time></trkpt><trkpt lat="42.426689695395076" lon="12.187046216738786"><ele>568.0</ele><time>2026-05-01T12:14:00.001Z</time></trkpt><trkpt lat="42.4268705770308" lon="12.186926451023444"><ele>568.0</ele><time>2026-05-01T12:14:01.001Z</time></trkpt><trkpt lat="42.42706747848861" lon="12.186783492950378"><ele>568.0</ele><time>2026-05-01T12:14:02.001Z</time></trkpt><trkpt lat="42.42726112153938" lon="12.18665516473761"><ele>568.0</ele><time>2026-05-01T12:14:03.001Z</time></trkpt><trkpt lat="42.42744862196528" lon="12.18653793678376"><ele>565.6666666666667</ele><time>2026-05-01T12:14:04.001Z</time></trkpt><trkpt lat="42.427639868209454" lon="12.186442947235657"><ele>563.3333333333334</ele><time>2026-05-01T12:14:05.001Z</time></trkpt><trkpt lat="42.42782020131383" lon="12.186366346016783"><ele>561.0</ele><time>2026-05-01T12:14:06.001Z</time></trkpt><trkpt lat="42.42799650197525" lon="12.186322375860428"><ele>557.6666666666666</ele><time>2026-05-01T12:14:07.001Z</time></trkpt><trkpt lat="42.42815040329742" lon="12.186255419459544"><ele>554.3333333333333</ele><time>2026-05-01T12:14:08.001Z</time></trkpt><trkpt lat="42.428315409818666" lon="12.186150038630544"><ele>551.0</ele><time>2026-05-01T12:14:09.001Z</time></trkpt><trkpt lat="42.42849232329831" lon="12.186053237630084"><ele>551.0</ele><time>2026-05-01T12:14:10.001Z</time></trkpt><trkpt lat="42.42868457709085" lon="12.185973051280117"><ele>551.0</ele><time>2026-05-01T12:14:11.001Z</time></trkpt><trkpt lat="42.42888480145863" lon="12.185916461211411"><ele>551.0</ele><time>2026-05-01T12:14:12.001Z</time></trkpt><trkpt lat="42.42910589405362" lon="12.185895444534568"><ele>548.5</ele><time>2026-05-01T12:14:13.001Z</time></trkpt><trkpt lat="42.42933817204373" lon="12.185889044250402"><ele>546.0</ele><time>2026-05-01T12:14:14.001Z</time></trkpt><trkpt lat="42.42957591502569" lon="12.18589532078665"><ele>545.0</ele><time>2026-05-01T12:14:15.001Z</time></trkpt><trkpt lat="42.42979433064263" lon="12.185922681345467"><ele>544.0</ele><time>2026-05-01T12:14:16.001Z</time></trkpt><trkpt lat="42.42999117901454" lon="12.185936270022577"><ele>543.0</ele><time>2026-05-01T12:14:17.001Z</time></trkpt><trkpt lat="42.43016474898424" lon="12.185946840068123"><ele>543.0</ele><time>2026-05-01T12:14:18.001Z</time></trkpt><trkpt lat="42.430306417027175" lon="12.185918527940872"><ele>543.0</ele><time>2026-05-01T12:14:19.001Z</time></trkpt><trkpt lat="42.43044344440161" lon="12.18586810980104"><ele>543.0</ele><time>2026-05-01T12:14:20.001Z</time></trkpt><trkpt lat="42.43058767436775" lon="12.185765066437696"><ele>543.0</ele><time>2026-05-01T12:14:21.001Z</time></trkpt><trkpt lat="42.43074485918137" lon="12.18564763710195"><ele>542.0</ele><time>2026-05-01T12:14:22.001Z</time></trkpt><trkpt lat="42.4308927488091" lon="12.185529273072879"><ele>541.0</ele><time>2026-05-01T12:14:23.001Z</time></trkpt><trkpt lat="42.431042291903275" lon="12.185450266794811"><ele>540.0</ele><time>2026-05-01T12:14:24.001Z</time></trkpt><trkpt lat="42.43120532572839" lon="12.185326614282076"><ele>538.3333333333334</ele><time>2026-05-01T12:14:25.001Z</time></trkpt><trkpt lat="42.431350428577844" lon="12.185235823060161"><ele>536.6666666666667</ele><time>2026-05-01T12:14:26.001Z</time></trkpt><trkpt lat="42.43148869009754" lon="12.185134857938861"><ele>535.0</ele><time>2026-05-01T12:14:27.001Z</time></trkpt><trkpt lat="42.43161898444575" lon="12.185053459383337"><ele>535.0</ele><time>2026-05-01T12:14:28.001Z</time></trkpt><trkpt lat="42.43177290773767" lon="12.184990534766696"><ele>535.0</ele><time>2026-05-01T12:14:29.001Z</time></trkpt><trkpt lat="42.43193265628404" lon="12.184909188927914"><ele>535.0</ele><time>2026-05-01T12:14:30.001Z</time></trkpt><trkpt lat="42.43209862097366" lon="12.184848183939057"><ele>532.75</ele><time>2026-05-01T12:14:31.001Z</time></trkpt><trkpt lat="42.4322336117448" lon="12.184775370763909"><ele>530.5</ele><time>2026-05-01T12:14:32.001Z</time></trkpt><trkpt lat="42.432343149541545" lon="12.184688165327909"><ele>528.25</ele><time>2026-05-01T12:14:33.001Z</time></trkpt><trkpt lat="42.43243397889542" lon="12.184589709665367"><ele>526.0</ele><time>2026-05-01T12:14:34.001Z</time></trkpt><trkpt lat="42.43248815044977" lon="12.184530258863392"><ele>526.0</ele><time>2026-05-01T12:14:35.001Z</time></trkpt><trkpt lat="42.43257360900729" lon="12.184596514561743"><ele>526.0</ele><time>2026-05-01T12:14:37.001Z</time></trkpt><trkpt lat="42.43248336944059" lon="12.184747073446704"><ele>526.0</ele><time>2026-05-01T12:14:39.001Z</time></trkpt><trkpt lat="42.43242720858728" lon="12.184802771162365"><ele>526.0</ele><time>2026-05-01T12:14:40.001Z</time></trkpt><trkpt lat="42.43239544724878" lon="12.184895021892311"><ele>526.0</ele><time>2026-05-01T12:14:41.001Z</time></trkpt><trkpt lat="42.43242639818787" lon="12.184987584997097"><ele>524.4</ele><time>2026-05-01T12:14:42.001Z</time></trkpt><trkpt lat="42.432496131630685" lon="12.18507049146433"><ele>522.8</ele><time>2026-05-01T12:14:43.001Z</time></trkpt><trkpt lat="42.43261229327469" lon="12.18507253861127"><ele>521.1999999999999</ele><time>2026-05-01T12:14:44.001Z</time></trkpt><trkpt lat="42.43272332806771" lon="12.185053553776312"><ele>519.6</ele><time>2026-05-01T12:14:45.001Z</time></trkpt><trkpt lat="42.432817711388786" lon="12.185036988011186"><ele>518.0</ele><time>2026-05-01T12:14:46.001Z</time></trkpt><trkpt lat="42.43291577282335" lon="12.185051804721315"><ele>515.4</ele><time>2026-05-01T12:14:47.001Z</time></trkpt><trkpt lat="42.43301127544493" lon="12.185027995892279"><ele>512.8</ele><time>2026-05-01T12:14:48.001Z</time></trkpt><trkpt lat="42.43310296247673" lon="12.185032301265059"><ele>510.2</ele><time>2026-05-01T12:14:49.001Z</time></trkpt><trkpt lat="42.43321313183579" lon="12.185043345623692"><ele>507.6</ele><time>2026-05-01T12:14:50.001Z</time></trkpt><trkpt lat="42.43333385008685" lon="12.18503501746853"><ele>505.0</ele><time>2026-05-01T12:14:51.001Z</time></trkpt><trkpt lat="42.43342412630742" lon="12.185031529786375"><ele>505.0</ele><time>2026-05-01T12:14:52.001Z</time></trkpt><trkpt lat="42.43354684736872" lon="12.185031641530548"><ele>505.0</ele><time>2026-05-01T12:14:53.001Z</time></trkpt><trkpt lat="42.43364638073599" lon="12.18501635995752"><ele>505.0</ele><time>2026-05-01T12:14:54.001Z</time></trkpt><trkpt lat="42.43374374374833" lon="12.184998525072993"><ele>505.0</ele><time>2026-05-01T12:14:55.001Z</time></trkpt><trkpt lat="42.43380792657073" lon="12.184920426569272"><ele>505.0</ele><time>2026-05-01T12:14:56.001Z</time></trkpt><trkpt lat="42.43382503167955" lon="12.18478634049374"><ele>505.0</ele><time>2026-05-01T12:14:57.001Z</time></trkpt><trkpt lat="42.43380427917591" lon="12.184675459550451"><ele>505.0</ele><time>2026-05-01T12:14:58.001Z</time></trkpt><trkpt lat="42.433746667390196" lon="12.184573808687917"><ele>505.0</ele><time>2026-05-01T12:14:59.001Z</time></trkpt><trkpt lat="42.43372057370938" lon="12.184458673080629"><ele>505.0</ele><time>2026-05-01T12:15:00.001Z</time></trkpt><trkpt lat="42.43367873018612" lon="12.184342506570749"><ele>505.0</ele><time>2026-05-01T12:15:01.001Z</time></trkpt><trkpt lat="42.43363324200052" lon="12.184220775094278"><ele>505.0</ele><time>2026-05-01T12:15:02.001Z</time></trkpt><trkpt lat="42.43358298659273" lon="12.184110308096775"><ele>505.0</ele><time>2026-05-01T12:15:03.001Z</time></trkpt><trkpt lat="42.43354823327625" lon="12.183998752161058"><ele>505.0</ele><time>2026-05-01T12:15:04.001Z</time></trkpt><trkpt lat="42.433514371502206" lon="12.183882217706872"><ele>505.0</ele><time>2026-05-01T12:15:05.001Z</time></trkpt><trkpt lat="42.4334690311465" lon="12.18378142223698"><ele>505.0</ele><time>2026-05-01T12:15:06.001Z</time></trkpt><trkpt lat="42.43343670447869" lon="12.18366980623669"><ele>504.83333333333337</ele><time>2026-05-01T12:15:07.001Z</time></trkpt><trkpt lat="42.43343078976163" lon="12.183559150297379"><ele>504.6666666666667</ele><time>2026-05-01T12:15:08.001Z</time></trkpt><trkpt lat="42.433462282540155" lon="12.183462014102957"><ele>504.5</ele><time>2026-05-01T12:15:09.001Z</time></trkpt><trkpt lat="42.433509100370394" lon="12.183365318879938"><ele>504.33333333333337</ele><time>2026-05-01T12:15:10.001Z</time></trkpt><trkpt lat="42.433587599255894" lon="12.183312530475078"><ele>504.1666666666667</ele><time>2026-05-01T12:15:11.001Z</time></trkpt><trkpt lat="42.43367905767877" lon="12.18327127751383"><ele>504.0</ele><time>2026-05-01T12:15:12.001Z</time></trkpt><trkpt lat="42.433781591692316" lon="12.183221049895579"><ele>498.0</ele><time>2026-05-01T12:15:13.001Z</time></trkpt><trkpt lat="42.43388732931834" lon="12.183163422264162"><ele>492.0</ele><time>2026-05-01T12:15:14.001Z</time></trkpt><trkpt lat="42.433998162794765" lon="12.183064035326208"><ele>486.0</ele><time>2026-05-01T12:15:15.001Z</time></trkpt><trkpt lat="42.434092323001494" lon="12.182942269893545"><ele>480.0</ele><time>2026-05-01T12:15:16.001Z</time></trkpt><trkpt lat="42.43418547275129" lon="12.182850882340702"><ele>480.0</ele><time>2026-05-01T12:15:17.001Z</time></trkpt><trkpt lat="42.43422291022683" lon="12.182724101514012"><ele>480.0</ele><time>2026-05-01T12:15:18.001Z</time></trkpt><trkpt lat="42.43423373466101" lon="12.1826181317072"><ele>480.0</ele><time>2026-05-01T12:15:19.001Z</time></trkpt><trkpt lat="42.434179666876474" lon="12.182475824132538"><ele>480.0</ele><time>2026-05-01T12:15:20.001Z</time></trkpt><trkpt lat="42.43412818759309" lon="12.182377075157316"><ele>480.0</ele><time>2026-05-01T12:15:21.001Z</time></trkpt><trkpt lat="42.43412533680708" lon="12.182261833478652"><ele>482.8</ele><time>2026-05-01T12:15:22.001Z</time></trkpt><trkpt lat="42.43418132609392" lon="12.182168597051175"><ele>485.6</ele><time>2026-05-01T12:15:23.001Z</time></trkpt><trkpt lat="42.43428246887414" lon="12.18215394820402"><ele>488.4</ele><time>2026-05-01T12:15:24.001Z</time></trkpt><trkpt lat="42.43435077198157" lon="12.182213364862864"><ele>491.2</ele><time>2026-05-01T12:15:25.001Z</time></trkpt><trkpt lat="42.43443997274241" lon="12.182262469976784"><ele>494.0</ele><time>2026-05-01T12:15:26.001Z</time></trkpt><trkpt lat="42.43457191380353" lon="12.182232894702551"><ele>489.0</ele><time>2026-05-01T12:15:27.001Z</time></trkpt><trkpt lat="42.4346986633623" lon="12.182232529442976"><ele>484.0</ele><time>2026-05-01T12:15:28.001Z</time></trkpt><trkpt lat="42.434840333587005" lon="12.182215596331663"><ele>479.0</ele><time>2026-05-01T12:15:29.001Z</time></trkpt><trkpt lat="42.434974839482514" lon="12.182170983231616"><ele>474.0</ele><time>2026-05-01T12:15:30.001Z</time></trkpt><trkpt lat="42.435118606211525" lon="12.182118155058093"><ele>474.0</ele><time>2026-05-01T12:15:31.001Z</time></trkpt><trkpt lat="42.43526025882764" lon="12.182052580465044"><ele>474.0</ele><time>2026-05-01T12:15:32.001Z</time></trkpt><trkpt lat="42.43540023502818" lon="12.181975622447231"><ele>474.0</ele><time>2026-05-01T12:15:33.001Z</time></trkpt><trkpt lat="42.43554917499338" lon="12.181908025718968"><ele>468.66666666666663</ele><time>2026-05-01T12:15:34.001Z</time></trkpt><trkpt lat="42.43569110536293" lon="12.181822229506311"><ele>463.3333333333333</ele><time>2026-05-01T12:15:35.001Z</time></trkpt><trkpt lat="42.43583308487303" lon="12.181721853847852"><ele>458.0</ele><time>2026-05-01T12:15:36.001Z</time></trkpt><trkpt lat="42.43596800725537" lon="12.181600077920402"><ele>455.0</ele><time>2026-05-01T12:15:37.001Z</time></trkpt><trkpt lat="42.436104636505824" lon="12.181483354173809"><ele>452.0</ele><time>2026-05-01T12:15:38.001Z</time></trkpt><trkpt lat="42.43624180789517" lon="12.18136327166394"><ele>449.0</ele><time>2026-05-01T12:15:39.001Z</time></trkpt><trkpt lat="42.436385033999414" lon="12.18124327526807"><ele>449.0</ele><time>2026-05-01T12:15:40.001Z</time></trkpt><trkpt lat="42.43651987514673" lon="12.181133023793299"><ele>449.0</ele><time>2026-05-01T12:15:41.001Z</time></trkpt><trkpt lat="42.43665658059031" lon="12.181011134548925"><ele>449.0</ele><time>2026-05-01T12:15:42.001Z</time></trkpt><trkpt lat="42.43678406129479" lon="12.180886518635894"><ele>449.0</ele><time>2026-05-01T12:15:43.001Z</time></trkpt><trkpt lat="42.43692607717425" lon="12.180760810008783"><ele>449.0</ele><time>2026-05-01T12:15:44.001Z</time></trkpt><trkpt lat="42.43706381395843" lon="12.180637437729844"><ele>449.0</ele><time>2026-05-01T12:15:45.001Z</time></trkpt><trkpt lat="42.43721427174659" lon="12.18052973554744"><ele>447.25</ele><time>2026-05-01T12:15:46.002Z</time></trkpt><trkpt lat="42.43733768727124" lon="12.180424106939407"><ele>445.5</ele><time>2026-05-01T12:15:47.002Z</time></trkpt><trkpt lat="42.43744455974282" lon="12.180333976111147"><ele>443.75</ele><time>2026-05-01T12:15:48.002Z</time></trkpt><trkpt lat="42.43753550500112" lon="12.180253251479389"><ele>442.0</ele><time>2026-05-01T12:15:49.002Z</time></trkpt><trkpt lat="42.437604244174466" lon="12.180216874014864"><ele>442.0</ele><time>2026-05-01T12:15:50.002Z</time></trkpt><trkpt lat="42.437676979330874" lon="12.180219200041567"><ele>442.00000000000006</ele><time>2026-05-01T12:15:51.002Z</time></trkpt><trkpt lat="42.43775057687111" lon="12.180261670744422"><ele>442.00000000000006</ele><time>2026-05-01T12:15:52.002Z</time></trkpt><trkpt lat="42.43779654196808" lon="12.18038625019048"><ele>442.0</ele><time>2026-05-01T12:15:53.002Z</time></trkpt><trkpt lat="42.43788766988097" lon="12.18051731871247"><ele>442.0</ele><time>2026-05-01T12:15:54.002Z</time></trkpt><trkpt lat="42.437968450503476" lon="12.180641778908088"><ele>437.5</ele><time>2026-05-01T12:15:55.002Z</time></trkpt><trkpt lat="42.43805837717343" lon="12.180770943928385"><ele>433.0</ele><time>2026-05-01T12:15:56.002Z</time></trkpt><trkpt lat="42.438111787984724" lon="12.180905164411863"><ele>428.5</ele><time>2026-05-01T12:15:57.002Z</time></trkpt><trkpt lat="42.43818791200962" lon="12.180998090942103"><ele>424.0</ele><time>2026-05-01T12:15:58.002Z</time></trkpt><trkpt lat="42.43828071836538" lon="12.181062815220313"><ele>424.0</ele><time>2026-05-01T12:15:59.002Z</time></trkpt><trkpt lat="42.4383642086851" lon="12.18107358249302"><ele>424.0</ele><time>2026-05-01T12:16:00.002Z</time></trkpt><trkpt lat="42.438447876751255" lon="12.181033657144773"><ele>424.0</ele><time>2026-05-01T12:16:01.002Z</time></trkpt><trkpt lat="42.43854212065994" lon="12.180958507009334"><ele>424.0</ele><time>2026-05-01T12:16:02.002Z</time></trkpt><trkpt lat="42.43863378669912" lon="12.180888388816852"><ele>424.0</ele><time>2026-05-01T12:16:03.002Z</time></trkpt><trkpt lat="42.43874132813714" lon="12.180818370648318"><ele>422.5</ele><time>2026-05-01T12:16:04.002Z</time></trkpt><trkpt lat="42.43886552536667" lon="12.18075419243705"><ele>421.0</ele><time>2026-05-01T12:16:05.002Z</time></trkpt><trkpt lat="42.43900018942613" lon="12.180665121462026"><ele>419.5</ele><time>2026-05-01T12:16:06.001Z</time></trkpt><trkpt lat="42.439129627523556" lon="12.180571505239243"><ele>418.0</ele><time>2026-05-01T12:16:07.001Z</time></trkpt><trkpt lat="42.43926115374918" lon="12.180476207921371"><ele>418.0</ele><time>2026-05-01T12:16:08.001Z</time></trkpt><trkpt lat="42.43939885208183" lon="12.180376942622651"><ele>418.0</ele><time>2026-05-01T12:16:09.001Z</time></trkpt><trkpt lat="42.43953302522922" lon="12.180283990931974"><ele>418.0</ele><time>2026-05-01T12:16:10.001Z</time></trkpt><trkpt lat="42.4396787328727" lon="12.180188571339112"><ele>415.33333333333337</ele><time>2026-05-01T12:16:11.001Z</time></trkpt><trkpt lat="42.43981166916797" lon="12.180094380287915"><ele>412.66666666666663</ele><time>2026-05-01T12:16:12.001Z</time></trkpt><trkpt lat="42.439954129910426" lon="12.1800243320882"><ele>410.0</ele><time>2026-05-01T12:16:13.001Z</time></trkpt><trkpt lat="42.44010647379587" lon="12.17996690835768"><ele>410.0</ele><time>2026-05-01T12:16:14.001Z</time></trkpt><trkpt lat="42.4402597991303" lon="12.179919567854357"><ele>410.0</ele><time>2026-05-01T12:16:15.001Z</time></trkpt><trkpt lat="42.440409635201576" lon="12.179886996577743"><ele>410.0</ele><time>2026-05-01T12:16:16.001Z</time></trkpt><trkpt lat="42.44054834285885" lon="12.179865007094905"><ele>410.0</ele><time>2026-05-01T12:16:17.001Z</time></trkpt><trkpt lat="42.440671288425705" lon="12.17985496587876"><ele>409.8</ele><time>2026-05-01T12:16:18.001Z</time></trkpt><trkpt lat="42.44077852421267" lon="12.179848657137901"><ele>409.6</ele><time>2026-05-01T12:16:19.001Z</time></trkpt><trkpt lat="42.44085688220154" lon="12.179849083827397"><ele>409.4</ele><time>2026-05-01T12:16:20.001Z</time></trkpt><trkpt lat="42.44092089045027" lon="12.179845445848994"><ele>409.2</ele><time>2026-05-01T12:16:21.001Z</time></trkpt><trkpt lat="42.44105931219037" lon="12.179841522974765"><ele>409.0</ele><time>2026-05-01T12:16:23.001Z</time></trkpt><trkpt lat="42.441145736790105" lon="12.179832220286047"><ele>409.0</ele><time>2026-05-01T12:16:24.001Z</time></trkpt><trkpt lat="42.441242959369376" lon="12.179810877120401"><ele>409.0</ele><time>2026-05-01T12:16:25.001Z</time></trkpt><trkpt lat="42.44135157370524" lon="12.179771032033695"><ele>409.0</ele><time>2026-05-01T12:16:26.001Z</time></trkpt><trkpt lat="42.441459747209905" lon="12.179718668268523"><ele>409.0</ele><time>2026-05-01T12:16:27.001Z</time></trkpt><trkpt lat="42.441566836903306" lon="12.17967096883091"><ele>409.0</ele><time>2026-05-01T12:16:28.001Z</time></trkpt><trkpt lat="42.441669318946055" lon="12.179628774844774"><ele>408.0</ele><time>2026-05-01T12:16:29.001Z</time></trkpt><trkpt lat="42.44177320790781" lon="12.17958069969185"><ele>407.0</ele><time>2026-05-01T12:16:30.001Z</time></trkpt><trkpt lat="42.441879359323" lon="12.179544868554178"><ele>406.0</ele><time>2026-05-01T12:16:31.001Z</time></trkpt><trkpt lat="42.44197672818844" lon="12.179507491816192"><ele>405.0</ele><time>2026-05-01T12:16:32.001Z</time></trkpt><trkpt lat="42.44207636531824" lon="12.179470976388691"><ele>404.0</ele><time>2026-05-01T12:16:33.001Z</time></trkpt><trkpt lat="42.442159588032396" lon="12.179418489950285"><ele>402.99999999999994</ele><time>2026-05-01T12:16:34.001Z</time></trkpt><trkpt lat="42.44223508816559" lon="12.179363497094904"><ele>402.0</ele><time>2026-05-01T12:16:35.001Z</time></trkpt><trkpt lat="42.44230442548315" lon="12.17930967442223"><ele>401.0</ele><time>2026-05-01T12:16:36.001Z</time></trkpt><trkpt lat="42.44236666675473" lon="12.179263176379772"><ele>400.0</ele><time>2026-05-01T12:16:37.001Z</time></trkpt><trkpt lat="42.44245680693733" lon="12.17920712510277"><ele>398.99999999999994</ele><time>2026-05-01T12:16:39.001Z</time></trkpt><trkpt lat="42.44251759231394" lon="12.17916624818337"><ele>398.0</ele><time>2026-05-01T12:16:41.001Z</time></trkpt><trkpt lat="42.44258246905416" lon="12.179116429015817"><ele>398.3333333333333</ele><time>2026-05-01T12:16:43.001Z</time></trkpt><trkpt lat="42.44258117795457" lon="12.178996053441347"><ele>398.66666666666663</ele><time>2026-05-01T12:16:44.001Z</time></trkpt><trkpt lat="42.44258906533401" lon="12.178903875157273"><ele>399.0</ele><time>2026-05-01T12:16:45.001Z</time></trkpt><trkpt lat="42.44259831679097" lon="12.17879508982288"><ele>399.33333333333337</ele><time>2026-05-01T12:16:46.001Z</time></trkpt><trkpt lat="42.44261573106521" lon="12.178675994467445"><ele>399.6666666666667</ele><time>2026-05-01T12:16:47.001Z</time></trkpt><trkpt lat="42.442629056911244" lon="12.1785505536354"><ele>400.0</ele><time>2026-05-01T12:16:48.001Z</time></trkpt><trkpt lat="42.44263733476078" lon="12.178420719683983"><ele>400.0</ele><time>2026-05-01T12:16:49.001Z</time></trkpt><trkpt lat="42.442652499722634" lon="12.178284372831666"><ele>400.0</ele><time>2026-05-01T12:16:50.001Z</time></trkpt><trkpt lat="42.44266561212532" lon="12.178133490311778"><ele>400.0</ele><time>2026-05-01T12:16:51.001Z</time></trkpt><trkpt lat="42.442683871114696" lon="12.177973399170709"><ele>400.0</ele><time>2026-05-01T12:16:52.001Z</time></trkpt><trkpt lat="42.442703066268614" lon="12.177811850760978"><ele>400.5</ele><time>2026-05-01T12:16:53.001Z</time></trkpt><trkpt lat="42.442720492104336" lon="12.177652006402745"><ele>401.0</ele><time>2026-05-01T12:16:54.001Z</time></trkpt><trkpt lat="42.44273141516217" lon="12.177488446221593"><ele>401.5</ele><time>2026-05-01T12:16:55.001Z</time></trkpt><trkpt lat="42.44274076447128" lon="12.177328845715609"><ele>402.0</ele><time>2026-05-01T12:16:56.001Z</time></trkpt><trkpt lat="42.44275656192752" lon="12.177173085615696"><ele>402.20000000000005</ele><time>2026-05-01T12:16:57.001Z</time></trkpt><trkpt lat="42.44278181442173" lon="12.17701630428779"><ele>402.4</ele><time>2026-05-01T12:16:58.001Z</time></trkpt><trkpt lat="42.442813474689025" lon="12.176866747488571"><ele>402.6</ele><time>2026-05-01T12:16:59.001Z</time></trkpt><trkpt lat="42.44286260989846" lon="12.176744587347564"><ele>402.79999999999995</ele><time>2026-05-01T12:17:00.001Z</time></trkpt><trkpt lat="42.442914252208375" lon="12.176637447237093"><ele>403.0</ele><time>2026-05-01T12:17:01.001Z</time></trkpt><trkpt lat="42.44297368016887" lon="12.176530522555389"><ele>402.4</ele><time>2026-05-01T12:17:02.001Z</time></trkpt><trkpt lat="42.44305533288635" lon="12.176434034150178"><ele>401.79999999999995</ele><time>2026-05-01T12:17:03.001Z</time></trkpt><trkpt lat="42.44314035298435" lon="12.176338093636444"><ele>401.2</ele><time>2026-05-01T12:17:04.001Z</time></trkpt><trkpt lat="42.443223827488595" lon="12.176239433606536"><ele>400.6</ele><time>2026-05-01T12:17:05.001Z</time></trkpt><trkpt lat="42.44330855311081" lon="12.176139255426666"><ele>400.0</ele><time>2026-05-01T12:17:06.001Z</time></trkpt><trkpt lat="42.443394135452195" lon="12.176042783751418"><ele>400.0</ele><time>2026-05-01T12:17:07.001Z</time></trkpt><trkpt lat="42.443487192799275" lon="12.175939552223157"><ele>400.0</ele><time>2026-05-01T12:17:08.001Z</time></trkpt><trkpt lat="42.44357621599452" lon="12.175836942718025"><ele>400.0</ele><time>2026-05-01T12:17:09.001Z</time></trkpt><trkpt lat="42.443659529129924" lon="12.175729094610967"><ele>400.0</ele><time>2026-05-01T12:17:10.001Z</time></trkpt><trkpt lat="42.44375505755067" lon="12.175617440531548"><ele>399.5</ele><time>2026-05-01T12:17:11.001Z</time></trkpt><trkpt lat="42.44386293972269" lon="12.175523821565266"><ele>399.0</ele><time>2026-05-01T12:17:12.001Z</time></trkpt><trkpt lat="42.44395176714673" lon="12.17539447957843"><ele>398.5</ele><time>2026-05-01T12:17:13.001Z</time></trkpt><trkpt lat="42.44405548098764" lon="12.175279311264275"><ele>398.0</ele><time>2026-05-01T12:17:14.001Z</time></trkpt><trkpt lat="42.444162058183004" lon="12.175170042212708"><ele>398.0</ele><time>2026-05-01T12:17:15.001Z</time></trkpt><trkpt lat="42.44426476576419" lon="12.175058118499722"><ele>398.0</ele><time>2026-05-01T12:17:16.001Z</time></trkpt><trkpt lat="42.444364116343266" lon="12.17495634946496"><ele>398.0</ele><time>2026-05-01T12:17:17.001Z</time></trkpt><trkpt lat="42.4444588471373" lon="12.174853218239601"><ele>398.0</ele><time>2026-05-01T12:17:18.001Z</time></trkpt><trkpt lat="42.44454222998818" lon="12.17475329358134"><ele>397.59999999999997</ele><time>2026-05-01T12:17:19.001Z</time></trkpt><trkpt lat="42.44461271714616" lon="12.174676032307582"><ele>397.2</ele><time>2026-05-01T12:17:20.001Z</time></trkpt><trkpt lat="42.444697939643866" lon="12.174604068089943"><ele>396.8</ele><time>2026-05-01T12:17:22.001Z</time></trkpt><trkpt lat="42.444774531130726" lon="12.174550208409316"><ele>396.4</ele><time>2026-05-01T12:17:31.001Z</time></trkpt><trkpt lat="42.44487364060273" lon="12.174471275421224"><ele>396.0</ele><time>2026-05-01T12:17:33.001Z</time></trkpt><trkpt lat="42.444924323460214" lon="12.17440774679778"><ele>396.0</ele><time>2026-05-01T12:17:35.001Z</time></trkpt><trkpt lat="42.44488389059951" lon="12.174274852072662"><ele>396.0</ele><time>2026-05-01T12:17:38.001Z</time></trkpt><trkpt lat="42.444817038677954" lon="12.174244233670485"><ele>396.0</ele><time>2026-05-01T12:17:39.001Z</time></trkpt><trkpt lat="42.444746331600506" lon="12.17420665473536"><ele>396.0</ele><time>2026-05-01T12:17:40.001Z</time></trkpt><trkpt lat="42.4446855432684" lon="12.174147766580703"><ele>396.0</ele><time>2026-05-01T12:17:41.001Z</time></trkpt><trkpt lat="42.444612000798564" lon="12.174094595100101"><ele>396.0</ele><time>2026-05-01T12:17:42.001Z</time></trkpt><trkpt lat="42.444526311202935" lon="12.174038638567556"><ele>395.20000000000005</ele><time>2026-05-01T12:17:43.001Z</time></trkpt><trkpt lat="42.444433409764294" lon="12.173975457151178"><ele>394.40000000000003</ele><time>2026-05-01T12:17:44.001Z</time></trkpt><trkpt lat="42.44434095584435" lon="12.173902454174486"><ele>393.6</ele><time>2026-05-01T12:17:45.001Z</time></trkpt><trkpt lat="42.444240596205795" lon="12.173825232358546"><ele>392.8</ele><time>2026-05-01T12:17:46.001Z</time></trkpt><trkpt lat="42.4441345395996" lon="12.173743287111487"><ele>392.0</ele><time>2026-05-01T12:17:47.001Z</time></trkpt><trkpt lat="42.4440210594915" lon="12.17365753232177"><ele>392.0</ele><time>2026-05-01T12:17:48.001Z</time></trkpt><trkpt lat="42.44390253035029" lon="12.173567602034518"><ele>392.0</ele><time>2026-05-01T12:17:49.001Z</time></trkpt><trkpt lat="42.443781083191986" lon="12.173479682411086"><ele>392.0</ele><time>2026-05-01T12:17:50.001Z</time></trkpt><trkpt lat="42.44365901324776" lon="12.173386479357207"><ele>392.0</ele><time>2026-05-01T12:17:51.001Z</time></trkpt><trkpt lat="42.44354055013559" lon="12.173316901868663"><ele>392.5</ele><time>2026-05-01T12:17:52.001Z</time></trkpt><trkpt lat="42.44341563609875" lon="12.17322335576047"><ele>393.0</ele><time>2026-05-01T12:17:53.001Z</time></trkpt><trkpt lat="42.44328736545066" lon="12.173118919097744"><ele>393.5</ele><time>2026-05-01T12:17:54.001Z</time></trkpt><trkpt lat="42.44315576051423" lon="12.17302060431402"><ele>394.0</ele><time>2026-05-01T12:17:55.001Z</time></trkpt><trkpt lat="42.443021553889245" lon="12.172923925491748"><ele>393.75</ele><time>2026-05-01T12:17:56.001Z</time></trkpt><trkpt lat="42.44289899350295" lon="12.172830964099271"><ele>393.5</ele><time>2026-05-01T12:17:57.001Z</time></trkpt><trkpt lat="42.44279139972964" lon="12.172750118937188"><ele>393.25</ele><time>2026-05-01T12:17:58.001Z</time></trkpt><trkpt lat="42.44269639801121" lon="12.172666702135594"><ele>393.0</ele><time>2026-05-01T12:17:59.001Z</time></trkpt><trkpt lat="42.442623415490836" lon="12.1725781712031"><ele>393.0</ele><time>2026-05-01T12:18:00.001Z</time></trkpt><trkpt lat="42.44254906642182" lon="12.172521026187534"><ele>393.0</ele><time>2026-05-01T12:18:01.001Z</time></trkpt><trkpt lat="42.44247737258242" lon="12.17247246573194"><ele>393.0</ele><time>2026-05-01T12:18:02.001Z</time></trkpt><trkpt lat="42.44240183400235" lon="12.172421188055473"><ele>393.0</ele><time>2026-05-01T12:18:03.001Z</time></trkpt><trkpt lat="42.442333011642134" lon="12.17236983676509"><ele>393.0</ele><time>2026-05-01T12:18:04.001Z</time></trkpt><trkpt lat="42.44226866332147" lon="12.172318935185485"><ele>393.0</ele><time>2026-05-01T12:18:05.001Z</time></trkpt><trkpt lat="42.44219501625281" lon="12.172268457634098"><ele>392.6666666666667</ele><time>2026-05-01T12:18:06.001Z</time></trkpt><trkpt lat="42.442115164805315" lon="12.172209707104006"><ele>392.33333333333337</ele><time>2026-05-01T12:18:07.001Z</time></trkpt><trkpt lat="42.44203697804903" lon="12.17214882148588"><ele>392.0</ele><time>2026-05-01T12:18:08.001Z</time></trkpt><trkpt lat="42.441967280394465" lon="12.172092329262426"><ele>391.6666666666667</ele><time>2026-05-01T12:18:09.001Z</time></trkpt><trkpt lat="42.4419072621099" lon="12.17204022478551"><ele>391.33333333333337</ele><time>2026-05-01T12:18:10.001Z</time></trkpt><trkpt lat="42.44181745433949" lon="12.171942803435106"><ele>391.0</ele><time>2026-05-01T12:18:12Z</time></trkpt><trkpt lat="42.44175343638463" lon="12.172042260845911"><ele>391.0</ele><time>2026-05-01T12:18:14Z</time></trkpt><trkpt lat="42.441872337883154" lon="12.172093958795593"><ele>391.0</ele><time>2026-05-01T12:18:19Z</time></trkpt><trkpt lat="42.44196382608525" lon="12.17210305560928"><ele>391.0</ele><time>2026-05-01T12:18:21Z</time></trkpt><trkpt lat="42.44201520349045" lon="12.172156542663034"><ele>391.0</ele><time>2026-05-01T12:18:22Z</time></trkpt><trkpt lat="42.44214765482322" lon="12.172257972712446"><ele>391.0</ele><time>2026-05-01T12:18:24Z</time></trkpt><trkpt lat="42.4422258482624" lon="12.172324272814494"><ele>391.4</ele><time>2026-05-01T12:18:25Z</time></trkpt><trkpt lat="42.44232414068919" lon="12.17239394055483"><ele>391.8</ele><time>2026-05-01T12:18:26Z</time></trkpt><trkpt lat="42.442409630690115" lon="12.172462681976889"><ele>392.2</ele><time>2026-05-01T12:18:27Z</time></trkpt><trkpt lat="42.44250288794952" lon="12.172534887610736"><ele>392.59999999999997</ele><time>2026-05-01T12:18:28Z</time></trkpt><trkpt lat="42.44259902082893" lon="12.172611302539355"><ele>393.0</ele><time>2026-05-01T12:18:29Z</time></trkpt><trkpt lat="42.44269591663797" lon="12.172685106209418"><ele>393.0</ele><time>2026-05-01T12:18:30Z</time></trkpt><trkpt lat="42.44279655305609" lon="12.172763498973522"><ele>393.0</ele><time>2026-05-01T12:18:31Z</time></trkpt><trkpt lat="42.442888881628" lon="12.172834569015453"><ele>393.0</ele><time>2026-05-01T12:18:32Z</time></trkpt><trkpt lat="42.44297091446164" lon="12.172893970833842"><ele>393.0</ele><time>2026-05-01T12:18:33Z</time></trkpt><trkpt lat="42.44302672179306" lon="12.172934808298693"><ele>393.0</ele><time>2026-05-01T12:18:34Z</time></trkpt><trkpt lat="42.44313526935227" lon="12.172842699710225"><ele>392.4</ele><time>2026-05-01T12:18:44Z</time></trkpt><trkpt lat="42.443225420599134" lon="12.172813268740278"><ele>391.79999999999995</ele><time>2026-05-01T12:18:46Z</time></trkpt><trkpt lat="42.44332473779021" lon="12.172770474094738"><ele>391.2</ele><time>2026-05-01T12:18:48Z</time></trkpt><trkpt lat="42.443422870056125" lon="12.172728189976993"><ele>390.6</ele><time>2026-05-01T12:18:50Z</time></trkpt><trkpt lat="42.44352335090084" lon="12.17268156359964"><ele>390.0</ele><time>2026-05-01T12:18:52Z</time></trkpt><trkpt lat="42.4436193268741" lon="12.17263512727897"><ele>390.0</ele><time>2026-05-01T12:18:54.001Z</time></trkpt><trkpt lat="42.44371769556718" lon="12.172580890951995"><ele>390.0</ele><time>2026-05-01T12:18:56.001Z</time></trkpt><trkpt lat="42.44380324845885" lon="12.172521990062725"><ele>390.0</ele><time>2026-05-01T12:18:58.001Z</time></trkpt><trkpt lat="42.44388296197938" lon="12.172483433324796"><ele>390.0</ele><time>2026-05-01T12:19:00.001Z</time></trkpt><trkpt lat="42.44394978693594" lon="12.172445810587757"><ele>390.0</ele><time>2026-05-01T12:19:02.001Z</time></trkpt><trkpt lat="42.44401479822834" lon="12.172303525346017"><ele>389.0</ele><time>2026-05-01T12:19:04.001Z</time></trkpt><trkpt lat="42.444096400842845" lon="12.172216057476744"><ele>388.0</ele><time>2026-05-01T12:19:06.001Z</time></trkpt><trkpt lat="42.44417926935211" lon="12.172108739921432"><ele>387.0</ele><time>2026-05-01T12:19:08.001Z</time></trkpt><trkpt lat="42.444261230984644" lon="12.172020668277858"><ele>386.0</ele><time>2026-05-01T12:19:10.001Z</time></trkpt><trkpt lat="42.444321749975316" lon="12.17191222886959"><ele>385.0</ele><time>2026-05-01T12:19:12.001Z</time></trkpt><trkpt lat="42.44441367684829" lon="12.171828902111605"><ele>385.00000000000006</ele><time>2026-05-01T12:19:14.001Z</time></trkpt><trkpt lat="42.44449746443026" lon="12.17175287192289"><ele>385.0</ele><time>2026-05-01T12:19:16.001Z</time></trkpt><trkpt lat="42.44455302204846" lon="12.17170154205642"><ele>385.0</ele><time>2026-05-01T12:19:19.001Z</time></trkpt><trkpt lat="42.444615782900236" lon="12.171665757554518"><ele>385.0</ele><time>2026-05-01T12:22:09.001Z</time></trkpt><trkpt lat="42.44468164311883" lon="12.171629383212917"><ele>385.00000000000006</ele><time>2026-05-01T12:22:14.001Z</time></trkpt><trkpt lat="42.44477632751816" lon="12.171566407526816"><ele>385.0</ele><time>2026-05-01T12:22:23.001Z</time></trkpt><trkpt lat="42.44484721323557" lon="12.171522393320172"><ele>385.0</ele><time>2026-05-01T12:22:29Z</time></trkpt><trkpt lat="42.444907853851994" lon="12.171470775623636"><ele>385.0</ele><time>2026-05-01T12:22:36Z</time></trkpt><trkpt lat="42.4449616485525" lon="12.171423767976622"><ele>385.0</ele><time>2026-05-01T12:22:40Z</time></trkpt><trkpt lat="42.44502113863515" lon="12.171392498098065"><ele>385.0</ele><time>2026-05-01T12:22:44Z</time></trkpt><trkpt lat="42.44507957106934" lon="12.171346696339024"><ele>385.0</ele><time>2026-05-01T12:22:49Z</time></trkpt><trkpt lat="42.445147944739496" lon="12.171329570292682"><ele>385.0</ele><time>2026-05-01T12:22:54Z</time></trkpt><trkpt lat="42.44521717798718" lon="12.171346078207552"><ele>385.0</ele><time>2026-05-01T12:22:59Z</time></trkpt><trkpt lat="42.44529062491639" lon="12.171375141955012"><ele>385.0</ele><time>2026-05-01T12:23:06Z</time></trkpt><trkpt lat="42.445354116003294" lon="12.171341377296095"><ele>385.0</ele><time>2026-05-01T12:23:11.001Z</time></trkpt><trkpt lat="42.44542850107451" lon="12.171331863991695"><ele>385.0</ele><time>2026-05-01T12:23:17.001Z</time></trkpt><trkpt lat="42.44545942652915" lon="12.171243683378295"><ele>385.0</ele><time>2026-05-01T12:23:32.001Z</time></trkpt><trkpt lat="42.445513025503054" lon="12.171169771453632"><ele>385.0</ele><time>2026-05-01T12:23:40.001Z</time></trkpt><trkpt lat="42.445544247555944" lon="12.171089280818084"><ele>385.0</ele><time>2026-05-01T12:23:46.001Z</time></trkpt><trkpt lat="42.44559369778064" lon="12.171028381924954"><ele>385.0</ele><time>2026-05-01T12:23:53.001Z</time></trkpt><trkpt lat="42.445539934090384" lon="12.171077430576782"><ele>385.0</ele><time>2026-05-01T12:28:31.001Z</time></trkpt><trkpt lat="42.445511528891466" lon="12.171154317153205"><ele>385.0</ele><time>2026-05-01T12:28:36.001Z</time></trkpt><trkpt lat="42.445466216127166" lon="12.171224748397236"><ele>385.0</ele><time>2026-05-01T12:28:42.001Z</time></trkpt><trkpt lat="42.44541988338455" lon="12.171294862478566"><ele>385.0</ele><time>2026-05-01T12:28:49Z</time></trkpt><trkpt lat="42.44536578949973" lon="12.171354845307818"><ele>385.0</ele><time>2026-05-01T12:28:56Z</time></trkpt><trkpt lat="42.445297795062714" lon="12.171382190438896"><ele>385.0</ele><time>2026-05-01T12:30:03Z</time></trkpt><trkpt lat="42.44523766295697" lon="12.171410964699833"><ele>385.0</ele><time>2026-05-01T12:30:10Z</time></trkpt><trkpt lat="42.44517640725441" lon="12.171376619755058"><ele>385.0</ele><time>2026-05-01T12:30:17Z</time></trkpt><trkpt lat="42.44511007270866" lon="12.171355249243314"><ele>385.0</ele><time>2026-05-01T12:30:24.001Z</time></trkpt><trkpt lat="42.44504181792032" lon="12.171370708387537"><ele>385.0</ele><time>2026-05-01T12:30:31.001Z</time></trkpt><trkpt lat="42.44498046396927" lon="12.171408528622848"><ele>385.0</ele><time>2026-05-01T12:30:38.001Z</time></trkpt><trkpt lat="42.44491686645506" lon="12.17144169928761"><ele>385.0</ele><time>2026-05-01T12:30:45.001Z</time></trkpt><trkpt lat="42.44484550408827" lon="12.17148743000674"><ele>385.0</ele><time>2026-05-01T12:30:52Z</time></trkpt><trkpt lat="42.4447868379869" lon="12.171536624321153"><ele>385.0</ele><time>2026-05-01T12:30:58Z</time></trkpt><trkpt lat="42.44472566529514" lon="12.171589073654436"><ele>385.0</ele><time>2026-05-01T12:31:05Z</time></trkpt><trkpt lat="42.444668152759185" lon="12.171634624118896"><ele>385.0</ele><time>2026-05-01T12:31:11Z</time></trkpt><trkpt lat="42.444601313821835" lon="12.171674902793693"><ele>385.0</ele><time>2026-05-01T12:31:18Z</time></trkpt><trkpt lat="42.444551254935455" lon="12.171610282266721"><ele>385.0</ele><time>2026-05-01T12:31:26Z</time></trkpt><trkpt lat="42.4446143429376" lon="12.171547425282101"><ele>385.0</ele><time>2026-05-01T12:31:34Z</time></trkpt><trkpt lat="42.44456140003" lon="12.171618312748175"><ele>385.0</ele><time>2026-05-01T12:35:47Z</time></trkpt><trkpt lat="42.44459224582913" lon="12.171537081721107"><ele>385.0</ele><time>2026-05-01T12:36:38Z</time></trkpt><trkpt lat="42.44453727901401" lon="12.171593502440126"><ele>385.0</ele><time>2026-05-01T12:36:47Z</time></trkpt><trkpt lat="42.44447722381192" lon="12.17168418601666"><ele>385.0</ele><time>2026-05-01T12:36:51Z</time></trkpt><trkpt lat="42.44451561405237" lon="12.171613035168013"><ele>385.0</ele><time>2026-05-01T12:37:22Z</time></trkpt><trkpt lat="42.4445538063288" lon="12.171544968023657"><ele>385.0</ele><time>2026-05-01T12:37:27Z</time></trkpt><trkpt lat="42.444601410253384" lon="12.171478426251134"><ele>385.0</ele><time>2026-05-01T12:37:34Z</time></trkpt><trkpt lat="42.44467130655914" lon="12.171417110728063"><ele>385.0</ele><time>2026-05-01T12:37:45Z</time></trkpt><trkpt lat="42.44472720821253" lon="12.17147744266304"><ele>385.0</ele><time>2026-05-01T12:37:50Z</time></trkpt><trkpt lat="42.44478072476791" lon="12.17142138195157"><ele>385.0</ele><time>2026-05-01T12:37:54Z</time></trkpt><trkpt lat="42.4448415702713" lon="12.171385843038696"><ele>385.0</ele><time>2026-05-01T12:38:00Z</time></trkpt><trkpt lat="42.444902921495775" lon="12.171345044535448"><ele>385.0</ele><time>2026-05-01T12:38:06Z</time></trkpt><trkpt lat="42.44497307411801" lon="12.17131930261116"><ele>385.0</ele><time>2026-05-01T12:38:13Z</time></trkpt><trkpt lat="42.44502980452009" lon="12.17127649073313"><ele>385.0</ele><time>2026-05-01T12:38:21Z</time></trkpt><trkpt lat="42.44508489490418" lon="12.17122501072566"><ele>385.0</ele><time>2026-05-01T12:38:28Z</time></trkpt><trkpt lat="42.44515012659776" lon="12.17120035381353"><ele>385.0</ele><time>2026-05-01T12:38:35Z</time></trkpt><trkpt lat="42.445203265576204" lon="12.17115180337583"><ele>385.0</ele><time>2026-05-01T12:38:42Z</time></trkpt><trkpt lat="42.445256409468264" lon="12.1710936023155"><ele>385.0</ele><time>2026-05-01T12:38:48Z</time></trkpt><trkpt lat="42.445306914889606" lon="12.171034768408745"><ele>385.0</ele><time>2026-05-01T12:38:55Z</time></trkpt><trkpt lat="42.44533936208196" lon="12.17095809508633"><ele>385.0</ele><time>2026-05-01T12:39:00Z</time></trkpt><trkpt lat="42.44535599597218" lon="12.170872613744894"><ele>385.0</ele><time>2026-05-01T12:39:13Z</time></trkpt><trkpt lat="42.44529019863878" lon="12.170880523221927"><ele>385.0</ele><time>2026-05-01T12:39:31Z</time></trkpt><trkpt lat="42.445258321241084" lon="12.170803392405224"><ele>385.0</ele><time>2026-05-01T12:39:39Z</time></trkpt><trkpt lat="42.445222004087455" lon="12.170722826265953"><ele>385.0</ele><time>2026-05-01T12:39:47Z</time></trkpt><trkpt lat="42.44515457637412" lon="12.170745798996062"><ele>385.0</ele><time>2026-05-01T12:40:00Z</time></trkpt><trkpt lat="42.44509253926845" lon="12.1707132401618"><ele>385.0</ele><time>2026-05-01T12:40:08Z</time></trkpt><trkpt lat="42.445042467604814" lon="12.170655492778339"><ele>387.0</ele><time>2026-05-01T12:40:18Z</time></trkpt><trkpt lat="42.44515483628888" lon="12.17065548366143"><ele>387.0</ele><time>2026-05-01T14:02:11Z</time></trkpt><trkpt lat="42.445141215091" lon="12.170741913395302"><ele>385.0</ele><time>2026-05-01T14:02:23Z</time></trkpt></trkseg></trk></gpx>